<?xml version="1.0" encoding="UTF-8" standalone="no" ?>
<gpx xmlns="http://www.topografix.com/GPX/1/1" xmlns:xsi="http://www.w3.org/2001/XMLSchema-instance" xsi:schemaLocation="http://www.topografix.com/GPX/1/1 http://www.topografix.com/GPX/1/1/gpx.xsd" version="1.1" creator="VisuGPX - https://www.visugpx.com">
  <metadata>
    <name>Tour dan le vercord, vendredi</name>
    <desc><![CDATA[Avec Jean Christophe]]></desc>
  </metadata>
  <trk>
    <name><![CDATA[29-AVR-16 20:47:06]]></name>
    <trkseg>
      <trkpt lat="45.07336" lon="5.55332">
        <ele>1026.83</ele>
        <time>2016-04-29T08:23:19Z</time>
      </trkpt>
      <trkpt lat="45.07336" lon="5.55332">
        <ele>1026.83</ele>
        <time>2016-04-29T08:23:22Z</time>
      </trkpt>
      <trkpt lat="45.07336" lon="5.55333">
        <ele>1026.83</ele>
        <time>2016-04-29T08:23:38Z</time>
      </trkpt>
      <trkpt lat="45.0734" lon="5.55331">
        <ele>1026.83</ele>
        <time>2016-04-29T08:23:51Z</time>
      </trkpt>
      <trkpt lat="45.07341" lon="5.55331">
        <ele>1026.83</ele>
        <time>2016-04-29T08:24:16Z</time>
      </trkpt>
      <trkpt lat="45.07343" lon="5.5533">
        <ele>1026.83</ele>
        <time>2016-04-29T08:24:41Z</time>
      </trkpt>
      <trkpt lat="45.07343" lon="5.5533">
        <ele>1026.83</ele>
        <time>2016-04-29T08:25:09Z</time>
      </trkpt>
      <trkpt lat="45.07343" lon="5.55327">
        <ele>1025.38</ele>
        <time>2016-04-29T08:25:25Z</time>
      </trkpt>
      <trkpt lat="45.07342" lon="5.55325">
        <ele>1024.9</ele>
        <time>2016-04-29T08:26:01Z</time>
      </trkpt>
      <trkpt lat="45.0734" lon="5.55325">
        <ele>1024.9</ele>
        <time>2016-04-29T08:26:38Z</time>
      </trkpt>
      <trkpt lat="45.07339" lon="5.55324">
        <ele>1024.9</ele>
        <time>2016-04-29T08:27:12Z</time>
      </trkpt>
      <trkpt lat="45.07339" lon="5.55323">
        <ele>1024.9</ele>
        <time>2016-04-29T08:27:39Z</time>
      </trkpt>
      <trkpt lat="45.07339" lon="5.55322">
        <ele>1024.42</ele>
        <time>2016-04-29T08:28:10Z</time>
      </trkpt>
      <trkpt lat="45.07338" lon="5.55322">
        <ele>1024.42</ele>
        <time>2016-04-29T08:28:43Z</time>
      </trkpt>
      <trkpt lat="45.07337" lon="5.55323">
        <ele>1024.42</ele>
        <time>2016-04-29T08:29:12Z</time>
      </trkpt>
      <trkpt lat="45.07337" lon="5.55322">
        <ele>1024.42</ele>
        <time>2016-04-29T08:29:38Z</time>
      </trkpt>
      <trkpt lat="45.07337" lon="5.55322">
        <ele>1024.42</ele>
        <time>2016-04-29T08:30:11Z</time>
      </trkpt>
      <trkpt lat="45.07337" lon="5.55322">
        <ele>1024.42</ele>
        <time>2016-04-29T08:30:39Z</time>
      </trkpt>
      <trkpt lat="45.07337" lon="5.55323">
        <ele>1023.94</ele>
        <time>2016-04-29T08:31:09Z</time>
      </trkpt>
      <trkpt lat="45.07337" lon="5.55322">
        <ele>1023.94</ele>
        <time>2016-04-29T08:31:42Z</time>
      </trkpt>
      <trkpt lat="45.07338" lon="5.55323">
        <ele>1023.94</ele>
        <time>2016-04-29T08:32:14Z</time>
      </trkpt>
      <trkpt lat="45.07338" lon="5.55323">
        <ele>1023.94</ele>
        <time>2016-04-29T08:32:42Z</time>
      </trkpt>
      <trkpt lat="45.07338" lon="5.55323">
        <ele>1023.46</ele>
        <time>2016-04-29T08:33:15Z</time>
      </trkpt>
      <trkpt lat="45.07338" lon="5.55324">
        <ele>1023.94</ele>
        <time>2016-04-29T08:33:50Z</time>
      </trkpt>
      <trkpt lat="45.07338" lon="5.55324">
        <ele>1023.94</ele>
        <time>2016-04-29T08:34:24Z</time>
      </trkpt>
      <trkpt lat="45.07339" lon="5.55324">
        <ele>1023.46</ele>
        <time>2016-04-29T08:34:50Z</time>
      </trkpt>
      <trkpt lat="45.07339" lon="5.55324">
        <ele>1023.46</ele>
        <time>2016-04-29T08:35:21Z</time>
      </trkpt>
      <trkpt lat="45.07339" lon="5.55325">
        <ele>1023.94</ele>
        <time>2016-04-29T08:35:23Z</time>
      </trkpt>
      <trkpt lat="45.07337" lon="5.55319">
        <ele>1024.42</ele>
        <time>2016-04-29T08:35:34Z</time>
      </trkpt>
      <trkpt lat="45.07335" lon="5.55319">
        <ele>1024.42</ele>
        <time>2016-04-29T08:35:51Z</time>
      </trkpt>
      <trkpt lat="45.07335" lon="5.55319">
        <ele>1023.94</ele>
        <time>2016-04-29T08:36:11Z</time>
      </trkpt>
      <trkpt lat="45.07335" lon="5.55319">
        <ele>1024.42</ele>
        <time>2016-04-29T08:36:37Z</time>
      </trkpt>
      <trkpt lat="45.07335" lon="5.55319">
        <ele>1024.42</ele>
        <time>2016-04-29T08:36:57Z</time>
      </trkpt>
      <trkpt lat="45.07335" lon="5.55319">
        <ele>1024.42</ele>
        <time>2016-04-29T08:37:16Z</time>
      </trkpt>
      <trkpt lat="45.07335" lon="5.55318">
        <ele>1023.46</ele>
        <time>2016-04-29T08:37:32Z</time>
      </trkpt>
      <trkpt lat="45.07336" lon="5.55319">
        <ele>1017.69</ele>
        <time>2016-04-29T08:37:54Z</time>
      </trkpt>
      <trkpt lat="45.07336" lon="5.55319">
        <ele>1030.19</ele>
        <time>2016-04-29T08:37:55Z</time>
      </trkpt>
      <trkpt lat="45.07336" lon="5.55319">
        <ele>1024.9</ele>
        <time>2016-04-29T08:37:56Z</time>
      </trkpt>
      <trkpt lat="45.07335" lon="5.55319">
        <ele>1023.94</ele>
        <time>2016-04-29T08:38:20Z</time>
      </trkpt>
      <trkpt lat="45.07336" lon="5.55319">
        <ele>1023.46</ele>
        <time>2016-04-29T08:38:51Z</time>
      </trkpt>
      <trkpt lat="45.07337" lon="5.5532">
        <ele>1023.46</ele>
        <time>2016-04-29T08:39:16Z</time>
      </trkpt>
      <trkpt lat="45.07337" lon="5.5532">
        <ele>1023.46</ele>
        <time>2016-04-29T08:39:42Z</time>
      </trkpt>
      <trkpt lat="45.07337" lon="5.55321">
        <ele>1022.98</ele>
        <time>2016-04-29T08:40:11Z</time>
      </trkpt>
      <trkpt lat="45.07337" lon="5.55321">
        <ele>1022.98</ele>
        <time>2016-04-29T08:40:41Z</time>
      </trkpt>
      <trkpt lat="45.07339" lon="5.5532">
        <ele>1022.98</ele>
        <time>2016-04-29T08:41:17Z</time>
      </trkpt>
      <trkpt lat="45.07339" lon="5.5532">
        <ele>1022.5</ele>
        <time>2016-04-29T08:41:46Z</time>
      </trkpt>
      <trkpt lat="45.07341" lon="5.55321">
        <ele>1022.5</ele>
        <time>2016-04-29T08:42:27Z</time>
      </trkpt>
      <trkpt lat="45.07341" lon="5.55322">
        <ele>1022.5</ele>
        <time>2016-04-29T08:43:06Z</time>
      </trkpt>
      <trkpt lat="45.07341" lon="5.55319">
        <ele>1022.5</ele>
        <time>2016-04-29T08:43:38Z</time>
      </trkpt>
      <trkpt lat="45.0734" lon="5.55319">
        <ele>1022.5</ele>
        <time>2016-04-29T08:44:20Z</time>
      </trkpt>
      <trkpt lat="45.0734" lon="5.5532">
        <ele>1022.5</ele>
        <time>2016-04-29T08:44:49Z</time>
      </trkpt>
      <trkpt lat="45.0734" lon="5.55322">
        <ele>1022.02</ele>
        <time>2016-04-29T08:45:26Z</time>
      </trkpt>
      <trkpt lat="45.07339" lon="5.55321">
        <ele>1022.02</ele>
        <time>2016-04-29T08:46:03Z</time>
      </trkpt>
      <trkpt lat="45.07338" lon="5.55321">
        <ele>1022.02</ele>
        <time>2016-04-29T08:46:35Z</time>
      </trkpt>
      <trkpt lat="45.07336" lon="5.55321">
        <ele>1022.5</ele>
        <time>2016-04-29T08:46:41Z</time>
      </trkpt>
      <trkpt lat="45.0733" lon="5.55327">
        <ele>1022.5</ele>
        <time>2016-04-29T08:46:47Z</time>
      </trkpt>
      <trkpt lat="45.07333" lon="5.55331">
        <ele>1022.5</ele>
        <time>2016-04-29T08:46:52Z</time>
      </trkpt>
      <trkpt lat="45.07335" lon="5.55328">
        <ele>1022.5</ele>
        <time>2016-04-29T08:46:54Z</time>
      </trkpt>
      <trkpt lat="45.07337" lon="5.55324">
        <ele>1022.02</ele>
        <time>2016-04-29T08:46:56Z</time>
      </trkpt>
      <trkpt lat="45.07334" lon="5.55323">
        <ele>1022.02</ele>
        <time>2016-04-29T08:47:01Z</time>
      </trkpt>
      <trkpt lat="45.07337" lon="5.55324">
        <ele>1021.54</ele>
        <time>2016-04-29T08:47:12Z</time>
      </trkpt>
      <trkpt lat="45.07337" lon="5.55321">
        <ele>1021.54</ele>
        <time>2016-04-29T08:47:36Z</time>
      </trkpt>
      <trkpt lat="45.07338" lon="5.55321">
        <ele>1021.06</ele>
        <time>2016-04-29T08:48:04Z</time>
      </trkpt>
      <trkpt lat="45.07339" lon="5.55324">
        <ele>1021.06</ele>
        <time>2016-04-29T08:48:31Z</time>
      </trkpt>
      <trkpt lat="45.07339" lon="5.55325">
        <ele>1021.06</ele>
        <time>2016-04-29T08:48:56Z</time>
      </trkpt>
      <trkpt lat="45.07338" lon="5.55325">
        <ele>1020.58</ele>
        <time>2016-04-29T08:49:26Z</time>
      </trkpt>
      <trkpt lat="45.07338" lon="5.55324">
        <ele>1020.58</ele>
        <time>2016-04-29T08:49:56Z</time>
      </trkpt>
      <trkpt lat="45.07339" lon="5.55323">
        <ele>1020.1</ele>
        <time>2016-04-29T08:50:30Z</time>
      </trkpt>
      <trkpt lat="45.07338" lon="5.55324">
        <ele>1020.1</ele>
        <time>2016-04-29T08:51:00Z</time>
      </trkpt>
      <trkpt lat="45.07338" lon="5.55324">
        <ele>1019.62</ele>
        <time>2016-04-29T08:51:33Z</time>
      </trkpt>
      <trkpt lat="45.07337" lon="5.55325">
        <ele>1019.62</ele>
        <time>2016-04-29T08:52:07Z</time>
      </trkpt>
      <trkpt lat="45.07337" lon="5.55325">
        <ele>1019.62</ele>
        <time>2016-04-29T08:52:41Z</time>
      </trkpt>
      <trkpt lat="45.07335" lon="5.55323">
        <ele>1019.13</ele>
        <time>2016-04-29T08:53:27Z</time>
      </trkpt>
      <trkpt lat="45.07336" lon="5.55321">
        <ele>1018.65</ele>
        <time>2016-04-29T08:54:10Z</time>
      </trkpt>
      <trkpt lat="45.07336" lon="5.55322">
        <ele>1019.62</ele>
        <time>2016-04-29T08:54:33Z</time>
      </trkpt>
      <trkpt lat="45.07337" lon="5.55327">
        <ele>1019.62</ele>
        <time>2016-04-29T08:54:46Z</time>
      </trkpt>
      <trkpt lat="45.07333" lon="5.55326">
        <ele>1019.62</ele>
        <time>2016-04-29T08:54:50Z</time>
      </trkpt>
      <trkpt lat="45.0733" lon="5.55322">
        <ele>1019.62</ele>
        <time>2016-04-29T08:55:03Z</time>
      </trkpt>
      <trkpt lat="45.07331" lon="5.55324">
        <ele>1019.62</ele>
        <time>2016-04-29T08:55:20Z</time>
      </trkpt>
      <trkpt lat="45.07332" lon="5.5533">
        <ele>1019.62</ele>
        <time>2016-04-29T08:55:24Z</time>
      </trkpt>
      <trkpt lat="45.07336" lon="5.55322">
        <ele>1019.62</ele>
        <time>2016-04-29T08:55:31Z</time>
      </trkpt>
      <trkpt lat="45.07333" lon="5.55328">
        <ele>1019.62</ele>
        <time>2016-04-29T08:55:38Z</time>
      </trkpt>
      <trkpt lat="45.07333" lon="5.55323">
        <ele>1019.62</ele>
        <time>2016-04-29T08:55:46Z</time>
      </trkpt>
      <trkpt lat="45.07333" lon="5.55329">
        <ele>1019.62</ele>
        <time>2016-04-29T08:55:53Z</time>
      </trkpt>
      <trkpt lat="45.07333" lon="5.55324">
        <ele>1019.62</ele>
        <time>2016-04-29T08:56:01Z</time>
      </trkpt>
      <trkpt lat="45.07336" lon="5.55322">
        <ele>1019.13</ele>
        <time>2016-04-29T08:56:09Z</time>
      </trkpt>
      <trkpt lat="45.07333" lon="5.55323">
        <ele>1019.62</ele>
        <time>2016-04-29T08:56:17Z</time>
      </trkpt>
      <trkpt lat="45.07333" lon="5.55322">
        <ele>1019.13</ele>
        <time>2016-04-29T08:56:36Z</time>
      </trkpt>
      <trkpt lat="45.07333" lon="5.55322">
        <ele>1019.62</ele>
        <time>2016-04-29T08:56:41Z</time>
      </trkpt>
      <trkpt lat="45.07331" lon="5.55323">
        <ele>1019.62</ele>
        <time>2016-04-29T08:56:44Z</time>
      </trkpt>
      <trkpt lat="45.07319" lon="5.5531">
        <ele>1019.62</ele>
        <time>2016-04-29T08:56:53Z</time>
      </trkpt>
      <trkpt lat="45.07309" lon="5.55295">
        <ele>1019.62</ele>
        <time>2016-04-29T08:56:59Z</time>
      </trkpt>
      <trkpt lat="45.07306" lon="5.55286">
        <ele>1019.62</ele>
        <time>2016-04-29T08:57:02Z</time>
      </trkpt>
      <trkpt lat="45.07291" lon="5.55289">
        <ele>1020.1</ele>
        <time>2016-04-29T08:57:09Z</time>
      </trkpt>
      <trkpt lat="45.07281" lon="5.55305">
        <ele>1020.58</ele>
        <time>2016-04-29T08:57:18Z</time>
      </trkpt>
      <trkpt lat="45.07282" lon="5.55318">
        <ele>1020.58</ele>
        <time>2016-04-29T08:57:22Z</time>
      </trkpt>
      <trkpt lat="45.07295" lon="5.55338">
        <ele>1020.1</ele>
        <time>2016-04-29T08:57:29Z</time>
      </trkpt>
      <trkpt lat="45.07292" lon="5.55351">
        <ele>1021.06</ele>
        <time>2016-04-29T08:57:33Z</time>
      </trkpt>
      <trkpt lat="45.07279" lon="5.55361">
        <ele>1022.5</ele>
        <time>2016-04-29T08:57:41Z</time>
      </trkpt>
      <trkpt lat="45.0727" lon="5.55364">
        <ele>1023.94</ele>
        <time>2016-04-29T08:57:47Z</time>
      </trkpt>
      <trkpt lat="45.07256" lon="5.55381">
        <ele>1027.31</ele>
        <time>2016-04-29T08:58:01Z</time>
      </trkpt>
      <trkpt lat="45.07242" lon="5.55408">
        <ele>1030.19</ele>
        <time>2016-04-29T08:58:16Z</time>
      </trkpt>
      <trkpt lat="45.07223" lon="5.55441">
        <ele>1031.63</ele>
        <time>2016-04-29T08:58:31Z</time>
      </trkpt>
      <trkpt lat="45.07208" lon="5.55462">
        <ele>1033.07</ele>
        <time>2016-04-29T08:58:40Z</time>
      </trkpt>
      <trkpt lat="45.07184" lon="5.55492">
        <ele>1034.52</ele>
        <time>2016-04-29T08:58:55Z</time>
      </trkpt>
      <trkpt lat="45.07156" lon="5.55507">
        <ele>1036.92</ele>
        <time>2016-04-29T08:59:09Z</time>
      </trkpt>
      <trkpt lat="45.07152" lon="5.55508">
        <ele>1036.92</ele>
        <time>2016-04-29T08:59:11Z</time>
      </trkpt>
      <trkpt lat="45.07137" lon="5.55504">
        <ele>1037.88</ele>
        <time>2016-04-29T08:59:22Z</time>
      </trkpt>
      <trkpt lat="45.07093" lon="5.55491">
        <ele>1037.4</ele>
        <time>2016-04-29T08:59:37Z</time>
      </trkpt>
      <trkpt lat="45.07047" lon="5.55477">
        <ele>1036.92</ele>
        <time>2016-04-29T08:59:52Z</time>
      </trkpt>
      <trkpt lat="45.07014" lon="5.55458">
        <ele>1037.88</ele>
        <time>2016-04-29T09:00:04Z</time>
      </trkpt>
      <trkpt lat="45.06995" lon="5.55486">
        <ele>1038.84</ele>
        <time>2016-04-29T09:00:14Z</time>
      </trkpt>
      <trkpt lat="45.06979" lon="5.55528">
        <ele>1039.8</ele>
        <time>2016-04-29T09:00:26Z</time>
      </trkpt>
      <trkpt lat="45.06962" lon="5.55578">
        <ele>1041.73</ele>
        <time>2016-04-29T09:00:41Z</time>
      </trkpt>
      <trkpt lat="45.06958" lon="5.5559">
        <ele>1043.17</ele>
        <time>2016-04-29T09:00:46Z</time>
      </trkpt>
      <trkpt lat="45.06948" lon="5.55622">
        <ele>1045.57</ele>
        <time>2016-04-29T09:01:00Z</time>
      </trkpt>
      <trkpt lat="45.06943" lon="5.55637">
        <ele>1046.53</ele>
        <time>2016-04-29T09:01:07Z</time>
      </trkpt>
      <trkpt lat="45.06931" lon="5.55667">
        <ele>1048.94</ele>
        <time>2016-04-29T09:01:21Z</time>
      </trkpt>
      <trkpt lat="45.06926" lon="5.55676">
        <ele>1049.9</ele>
        <time>2016-04-29T09:01:25Z</time>
      </trkpt>
      <trkpt lat="45.0691" lon="5.55697">
        <ele>1051.82</ele>
        <time>2016-04-29T09:01:38Z</time>
      </trkpt>
      <trkpt lat="45.06894" lon="5.55718">
        <ele>1054.22</ele>
        <time>2016-04-29T09:01:50Z</time>
      </trkpt>
      <trkpt lat="45.06887" lon="5.55725">
        <ele>1054.7</ele>
        <time>2016-04-29T09:01:55Z</time>
      </trkpt>
      <trkpt lat="45.06864" lon="5.55757">
        <ele>1057.59</ele>
        <time>2016-04-29T09:02:12Z</time>
      </trkpt>
      <trkpt lat="45.06848" lon="5.55786">
        <ele>1059.51</ele>
        <time>2016-04-29T09:02:27Z</time>
      </trkpt>
      <trkpt lat="45.06831" lon="5.55818">
        <ele>1061.91</ele>
        <time>2016-04-29T09:02:42Z</time>
      </trkpt>
      <trkpt lat="45.06812" lon="5.55853">
        <ele>1064.8</ele>
        <time>2016-04-29T09:02:58Z</time>
      </trkpt>
      <trkpt lat="45.06802" lon="5.55884">
        <ele>1067.68</ele>
        <time>2016-04-29T09:03:12Z</time>
      </trkpt>
      <trkpt lat="45.06803" lon="5.5592">
        <ele>1070.08</ele>
        <time>2016-04-29T09:03:26Z</time>
      </trkpt>
      <trkpt lat="45.06804" lon="5.5593">
        <ele>1071.05</ele>
        <time>2016-04-29T09:03:30Z</time>
      </trkpt>
      <trkpt lat="45.06803" lon="5.55974">
        <ele>1072.49</ele>
        <time>2016-04-29T09:03:47Z</time>
      </trkpt>
      <trkpt lat="45.06797" lon="5.56025">
        <ele>1074.41</ele>
        <time>2016-04-29T09:04:05Z</time>
      </trkpt>
      <trkpt lat="45.06778" lon="5.56063">
        <ele>1076.33</ele>
        <time>2016-04-29T09:04:21Z</time>
      </trkpt>
      <trkpt lat="45.06759" lon="5.56093">
        <ele>1078.74</ele>
        <time>2016-04-29T09:04:36Z</time>
      </trkpt>
      <trkpt lat="45.06758" lon="5.56095">
        <ele>1079.22</ele>
        <time>2016-04-29T09:04:37Z</time>
      </trkpt>
      <trkpt lat="45.06746" lon="5.56133">
        <ele>1081.14</ele>
        <time>2016-04-29T09:04:53Z</time>
      </trkpt>
      <trkpt lat="45.06738" lon="5.56168">
        <ele>1082.58</ele>
        <time>2016-04-29T09:05:08Z</time>
      </trkpt>
      <trkpt lat="45.06736" lon="5.56204">
        <ele>1083.06</ele>
        <time>2016-04-29T09:05:22Z</time>
      </trkpt>
      <trkpt lat="45.06736" lon="5.56206">
        <ele>1083.06</ele>
        <time>2016-04-29T09:05:23Z</time>
      </trkpt>
      <trkpt lat="45.06737" lon="5.56213">
        <ele>1083.06</ele>
        <time>2016-04-29T09:05:26Z</time>
      </trkpt>
      <trkpt lat="45.06739" lon="5.56238">
        <ele>1083.54</ele>
        <time>2016-04-29T09:05:37Z</time>
      </trkpt>
      <trkpt lat="45.06736" lon="5.56278">
        <ele>1084.02</ele>
        <time>2016-04-29T09:05:53Z</time>
      </trkpt>
      <trkpt lat="45.06731" lon="5.56298">
        <ele>1084.5</ele>
        <time>2016-04-29T09:06:01Z</time>
      </trkpt>
      <trkpt lat="45.06736" lon="5.56294">
        <ele>1084.5</ele>
        <time>2016-04-29T09:06:06Z</time>
      </trkpt>
      <trkpt lat="45.06742" lon="5.56248">
        <ele>1084.02</ele>
        <time>2016-04-29T09:06:21Z</time>
      </trkpt>
      <trkpt lat="45.06738" lon="5.562">
        <ele>1083.06</ele>
        <time>2016-04-29T09:06:35Z</time>
      </trkpt>
      <trkpt lat="45.06738" lon="5.56189">
        <ele>1082.58</ele>
        <time>2016-04-29T09:06:40Z</time>
      </trkpt>
      <trkpt lat="45.06735" lon="5.56179">
        <ele>1083.06</ele>
        <time>2016-04-29T09:06:44Z</time>
      </trkpt>
      <trkpt lat="45.06721" lon="5.56162">
        <ele>1084.02</ele>
        <time>2016-04-29T09:06:52Z</time>
      </trkpt>
      <trkpt lat="45.06698" lon="5.56133">
        <ele>1084.02</ele>
        <time>2016-04-29T09:07:06Z</time>
      </trkpt>
      <trkpt lat="45.06676" lon="5.56105">
        <ele>1086.43</ele>
        <time>2016-04-29T09:07:19Z</time>
      </trkpt>
      <trkpt lat="45.0665" lon="5.56082">
        <ele>1087.39</ele>
        <time>2016-04-29T09:07:32Z</time>
      </trkpt>
      <trkpt lat="45.06639" lon="5.56073">
        <ele>1086.91</ele>
        <time>2016-04-29T09:07:37Z</time>
      </trkpt>
      <trkpt lat="45.06624" lon="5.56077">
        <ele>1088.35</ele>
        <time>2016-04-29T09:07:44Z</time>
      </trkpt>
      <trkpt lat="45.06605" lon="5.5609">
        <ele>1091.71</ele>
        <time>2016-04-29T09:07:56Z</time>
      </trkpt>
      <trkpt lat="45.0659" lon="5.56117">
        <ele>1094.12</ele>
        <time>2016-04-29T09:08:10Z</time>
      </trkpt>
      <trkpt lat="45.06585" lon="5.56125">
        <ele>1094.6</ele>
        <time>2016-04-29T09:08:14Z</time>
      </trkpt>
      <trkpt lat="45.06575" lon="5.56152">
        <ele>1096.04</ele>
        <time>2016-04-29T09:08:26Z</time>
      </trkpt>
      <trkpt lat="45.06562" lon="5.5618">
        <ele>1097.96</ele>
        <time>2016-04-29T09:08:39Z</time>
      </trkpt>
      <trkpt lat="45.06556" lon="5.56193">
        <ele>1098.44</ele>
        <time>2016-04-29T09:08:45Z</time>
      </trkpt>
      <trkpt lat="45.06539" lon="5.56228">
        <ele>1101.33</ele>
        <time>2016-04-29T09:09:01Z</time>
      </trkpt>
      <trkpt lat="45.06533" lon="5.56243">
        <ele>1102.29</ele>
        <time>2016-04-29T09:09:08Z</time>
      </trkpt>
      <trkpt lat="45.06528" lon="5.56257">
        <ele>1103.25</ele>
        <time>2016-04-29T09:09:15Z</time>
      </trkpt>
      <trkpt lat="45.0651" lon="5.56287">
        <ele>1105.17</ele>
        <time>2016-04-29T09:09:30Z</time>
      </trkpt>
      <trkpt lat="45.06499" lon="5.56315">
        <ele>1106.61</ele>
        <time>2016-04-29T09:09:44Z</time>
      </trkpt>
      <trkpt lat="45.06488" lon="5.56353">
        <ele>1108.54</ele>
        <time>2016-04-29T09:09:58Z</time>
      </trkpt>
      <trkpt lat="45.0648" lon="5.56386">
        <ele>1109.02</ele>
        <time>2016-04-29T09:10:09Z</time>
      </trkpt>
      <trkpt lat="45.06472" lon="5.56424">
        <ele>1109.5</ele>
        <time>2016-04-29T09:10:21Z</time>
      </trkpt>
      <trkpt lat="45.06459" lon="5.56468">
        <ele>1107.58</ele>
        <time>2016-04-29T09:10:34Z</time>
      </trkpt>
      <trkpt lat="45.06452" lon="5.56486">
        <ele>1106.61</ele>
        <time>2016-04-29T09:10:38Z</time>
      </trkpt>
      <trkpt lat="45.06445" lon="5.56502">
        <ele>1105.65</ele>
        <time>2016-04-29T09:10:41Z</time>
      </trkpt>
      <trkpt lat="45.06407" lon="5.56546">
        <ele>1103.73</ele>
        <time>2016-04-29T09:10:52Z</time>
      </trkpt>
      <trkpt lat="45.06362" lon="5.56576">
        <ele>1105.17</ele>
        <time>2016-04-29T09:11:07Z</time>
      </trkpt>
      <trkpt lat="45.06331" lon="5.56609">
        <ele>1104.21</ele>
        <time>2016-04-29T09:11:18Z</time>
      </trkpt>
      <trkpt lat="45.063" lon="5.56639">
        <ele>1105.17</ele>
        <time>2016-04-29T09:11:30Z</time>
      </trkpt>
      <trkpt lat="45.06274" lon="5.56655">
        <ele>1107.1</ele>
        <time>2016-04-29T09:11:43Z</time>
      </trkpt>
      <trkpt lat="45.06251" lon="5.5666">
        <ele>1108.06</ele>
        <time>2016-04-29T09:11:54Z</time>
      </trkpt>
      <trkpt lat="45.06247" lon="5.56662">
        <ele>1108.06</ele>
        <time>2016-04-29T09:11:56Z</time>
      </trkpt>
      <trkpt lat="45.06229" lon="5.5669">
        <ele>1107.58</ele>
        <time>2016-04-29T09:12:07Z</time>
      </trkpt>
      <trkpt lat="45.06225" lon="5.56699">
        <ele>1108.06</ele>
        <time>2016-04-29T09:12:10Z</time>
      </trkpt>
      <trkpt lat="45.06223" lon="5.56702">
        <ele>1107.58</ele>
        <time>2016-04-29T09:12:11Z</time>
      </trkpt>
      <trkpt lat="45.06217" lon="5.56712">
        <ele>1108.06</ele>
        <time>2016-04-29T09:12:15Z</time>
      </trkpt>
      <trkpt lat="45.06215" lon="5.56713">
        <ele>1108.06</ele>
        <time>2016-04-29T09:12:16Z</time>
      </trkpt>
      <trkpt lat="45.06199" lon="5.56731">
        <ele>1109.5</ele>
        <time>2016-04-29T09:12:25Z</time>
      </trkpt>
      <trkpt lat="45.06191" lon="5.56736">
        <ele>1109.98</ele>
        <time>2016-04-29T09:12:29Z</time>
      </trkpt>
      <trkpt lat="45.06189" lon="5.56739">
        <ele>1110.46</ele>
        <time>2016-04-29T09:12:32Z</time>
      </trkpt>
      <trkpt lat="45.06188" lon="5.56741">
        <ele>1110.46</ele>
        <time>2016-04-29T09:12:33Z</time>
      </trkpt>
      <trkpt lat="45.06186" lon="5.56741">
        <ele>1109.98</ele>
        <time>2016-04-29T09:12:34Z</time>
      </trkpt>
      <trkpt lat="45.06185" lon="5.56741">
        <ele>1109.98</ele>
        <time>2016-04-29T09:12:35Z</time>
      </trkpt>
      <trkpt lat="45.06183" lon="5.56741">
        <ele>1109.98</ele>
        <time>2016-04-29T09:12:36Z</time>
      </trkpt>
      <trkpt lat="45.06181" lon="5.56741">
        <ele>1109.5</ele>
        <time>2016-04-29T09:12:37Z</time>
      </trkpt>
      <trkpt lat="45.0618" lon="5.5674">
        <ele>1109.5</ele>
        <time>2016-04-29T09:12:38Z</time>
      </trkpt>
      <trkpt lat="45.06179" lon="5.56739">
        <ele>1109.98</ele>
        <time>2016-04-29T09:12:39Z</time>
      </trkpt>
      <trkpt lat="45.06178" lon="5.56738">
        <ele>1109.5</ele>
        <time>2016-04-29T09:12:40Z</time>
      </trkpt>
      <trkpt lat="45.06176" lon="5.56736">
        <ele>1109.98</ele>
        <time>2016-04-29T09:12:41Z</time>
      </trkpt>
      <trkpt lat="45.06175" lon="5.56735">
        <ele>1109.98</ele>
        <time>2016-04-29T09:12:42Z</time>
      </trkpt>
      <trkpt lat="45.06175" lon="5.56732">
        <ele>1109.98</ele>
        <time>2016-04-29T09:12:43Z</time>
      </trkpt>
      <trkpt lat="45.06175" lon="5.5673">
        <ele>1110.46</ele>
        <time>2016-04-29T09:12:44Z</time>
      </trkpt>
      <trkpt lat="45.06176" lon="5.56728">
        <ele>1110.94</ele>
        <time>2016-04-29T09:12:54Z</time>
      </trkpt>
      <trkpt lat="45.06176" lon="5.56727">
        <ele>1110.46</ele>
        <time>2016-04-29T09:13:11Z</time>
      </trkpt>
      <trkpt lat="45.06175" lon="5.56723">
        <ele>1110.46</ele>
        <time>2016-04-29T09:13:27Z</time>
      </trkpt>
      <trkpt lat="45.06178" lon="5.56722">
        <ele>1109.98</ele>
        <time>2016-04-29T09:13:47Z</time>
      </trkpt>
      <trkpt lat="45.0618" lon="5.5672">
        <ele>1109.98</ele>
        <time>2016-04-29T09:13:48Z</time>
      </trkpt>
      <trkpt lat="45.06195" lon="5.56697">
        <ele>1108.54</ele>
        <time>2016-04-29T09:13:57Z</time>
      </trkpt>
      <trkpt lat="45.06199" lon="5.56693">
        <ele>1108.54</ele>
        <time>2016-04-29T09:13:59Z</time>
      </trkpt>
      <trkpt lat="45.06201" lon="5.5669">
        <ele>1108.54</ele>
        <time>2016-04-29T09:14:00Z</time>
      </trkpt>
      <trkpt lat="45.06202" lon="5.56686">
        <ele>1108.54</ele>
        <time>2016-04-29T09:14:01Z</time>
      </trkpt>
      <trkpt lat="45.06213" lon="5.56672">
        <ele>1109.02</ele>
        <time>2016-04-29T09:14:06Z</time>
      </trkpt>
      <trkpt lat="45.06216" lon="5.56669">
        <ele>1108.54</ele>
        <time>2016-04-29T09:14:07Z</time>
      </trkpt>
      <trkpt lat="45.06218" lon="5.56665">
        <ele>1108.06</ele>
        <time>2016-04-29T09:14:08Z</time>
      </trkpt>
      <trkpt lat="45.06221" lon="5.56663">
        <ele>1108.54</ele>
        <time>2016-04-29T09:14:09Z</time>
      </trkpt>
      <trkpt lat="45.06224" lon="5.56661">
        <ele>1108.54</ele>
        <time>2016-04-29T09:14:10Z</time>
      </trkpt>
      <trkpt lat="45.06226" lon="5.56658">
        <ele>1108.06</ele>
        <time>2016-04-29T09:14:11Z</time>
      </trkpt>
      <trkpt lat="45.06229" lon="5.56654">
        <ele>1108.06</ele>
        <time>2016-04-29T09:14:12Z</time>
      </trkpt>
      <trkpt lat="45.06248" lon="5.56628">
        <ele>1108.06</ele>
        <time>2016-04-29T09:14:22Z</time>
      </trkpt>
      <trkpt lat="45.06249" lon="5.56625">
        <ele>1108.06</ele>
        <time>2016-04-29T09:14:23Z</time>
      </trkpt>
      <trkpt lat="45.0625" lon="5.56624">
        <ele>1108.06</ele>
        <time>2016-04-29T09:14:24Z</time>
      </trkpt>
      <trkpt lat="45.06251" lon="5.56622">
        <ele>1108.54</ele>
        <time>2016-04-29T09:14:25Z</time>
      </trkpt>
      <trkpt lat="45.0625" lon="5.56597">
        <ele>1110.94</ele>
        <time>2016-04-29T09:14:36Z</time>
      </trkpt>
      <trkpt lat="45.0625" lon="5.56584">
        <ele>1111.9</ele>
        <time>2016-04-29T09:14:40Z</time>
      </trkpt>
      <trkpt lat="45.0625" lon="5.5658">
        <ele>1112.38</ele>
        <time>2016-04-29T09:14:41Z</time>
      </trkpt>
      <trkpt lat="45.0625" lon="5.56577">
        <ele>1112.38</ele>
        <time>2016-04-29T09:14:42Z</time>
      </trkpt>
      <trkpt lat="45.0625" lon="5.56574">
        <ele>1112.38</ele>
        <time>2016-04-29T09:14:43Z</time>
      </trkpt>
      <trkpt lat="45.0625" lon="5.56573">
        <ele>1112.38</ele>
        <time>2016-04-29T09:14:44Z</time>
      </trkpt>
      <trkpt lat="45.0625" lon="5.56571">
        <ele>1112.38</ele>
        <time>2016-04-29T09:14:45Z</time>
      </trkpt>
      <trkpt lat="45.06251" lon="5.56568">
        <ele>1112.38</ele>
        <time>2016-04-29T09:14:46Z</time>
      </trkpt>
      <trkpt lat="45.06253" lon="5.56566">
        <ele>1112.38</ele>
        <time>2016-04-29T09:14:47Z</time>
      </trkpt>
      <trkpt lat="45.06253" lon="5.56562">
        <ele>1112.38</ele>
        <time>2016-04-29T09:14:48Z</time>
      </trkpt>
      <trkpt lat="45.06254" lon="5.56559">
        <ele>1112.38</ele>
        <time>2016-04-29T09:14:49Z</time>
      </trkpt>
      <trkpt lat="45.06255" lon="5.56556">
        <ele>1112.38</ele>
        <time>2016-04-29T09:14:50Z</time>
      </trkpt>
      <trkpt lat="45.06257" lon="5.56553">
        <ele>1112.38</ele>
        <time>2016-04-29T09:14:51Z</time>
      </trkpt>
      <trkpt lat="45.06257" lon="5.5655">
        <ele>1112.38</ele>
        <time>2016-04-29T09:14:52Z</time>
      </trkpt>
      <trkpt lat="45.06258" lon="5.56547">
        <ele>1112.38</ele>
        <time>2016-04-29T09:14:53Z</time>
      </trkpt>
      <trkpt lat="45.06258" lon="5.56544">
        <ele>1112.38</ele>
        <time>2016-04-29T09:14:54Z</time>
      </trkpt>
      <trkpt lat="45.06258" lon="5.56539">
        <ele>1112.38</ele>
        <time>2016-04-29T09:14:55Z</time>
      </trkpt>
      <trkpt lat="45.06257" lon="5.56535">
        <ele>1112.38</ele>
        <time>2016-04-29T09:14:56Z</time>
      </trkpt>
      <trkpt lat="45.06257" lon="5.5653">
        <ele>1111.9</ele>
        <time>2016-04-29T09:14:57Z</time>
      </trkpt>
      <trkpt lat="45.06251" lon="5.56491">
        <ele>1110.94</ele>
        <time>2016-04-29T09:15:06Z</time>
      </trkpt>
      <trkpt lat="45.06248" lon="5.56455">
        <ele>1109.98</ele>
        <time>2016-04-29T09:15:14Z</time>
      </trkpt>
      <trkpt lat="45.06247" lon="5.56447">
        <ele>1109.98</ele>
        <time>2016-04-29T09:15:16Z</time>
      </trkpt>
      <trkpt lat="45.06246" lon="5.56441">
        <ele>1109.5</ele>
        <time>2016-04-29T09:15:17Z</time>
      </trkpt>
      <trkpt lat="45.06245" lon="5.56436">
        <ele>1109.5</ele>
        <time>2016-04-29T09:15:18Z</time>
      </trkpt>
      <trkpt lat="45.06246" lon="5.5643">
        <ele>1109.5</ele>
        <time>2016-04-29T09:15:19Z</time>
      </trkpt>
      <trkpt lat="45.06246" lon="5.56423">
        <ele>1109.5</ele>
        <time>2016-04-29T09:15:20Z</time>
      </trkpt>
      <trkpt lat="45.06246" lon="5.56417">
        <ele>1109.02</ele>
        <time>2016-04-29T09:15:21Z</time>
      </trkpt>
      <trkpt lat="45.06248" lon="5.56394">
        <ele>1108.54</ele>
        <time>2016-04-29T09:15:25Z</time>
      </trkpt>
      <trkpt lat="45.06251" lon="5.56388">
        <ele>1108.54</ele>
        <time>2016-04-29T09:15:26Z</time>
      </trkpt>
      <trkpt lat="45.06254" lon="5.56384">
        <ele>1108.54</ele>
        <time>2016-04-29T09:15:27Z</time>
      </trkpt>
      <trkpt lat="45.06256" lon="5.56378">
        <ele>1108.06</ele>
        <time>2016-04-29T09:15:28Z</time>
      </trkpt>
      <trkpt lat="45.06257" lon="5.56372">
        <ele>1108.06</ele>
        <time>2016-04-29T09:15:29Z</time>
      </trkpt>
      <trkpt lat="45.06259" lon="5.56366">
        <ele>1107.58</ele>
        <time>2016-04-29T09:15:30Z</time>
      </trkpt>
      <trkpt lat="45.06262" lon="5.56347">
        <ele>1108.06</ele>
        <time>2016-04-29T09:15:33Z</time>
      </trkpt>
      <trkpt lat="45.06264" lon="5.5634">
        <ele>1107.58</ele>
        <time>2016-04-29T09:15:34Z</time>
      </trkpt>
      <trkpt lat="45.06267" lon="5.56326">
        <ele>1107.1</ele>
        <time>2016-04-29T09:15:36Z</time>
      </trkpt>
      <trkpt lat="45.06276" lon="5.56287">
        <ele>1104.21</ele>
        <time>2016-04-29T09:15:42Z</time>
      </trkpt>
      <trkpt lat="45.06279" lon="5.56264">
        <ele>1102.77</ele>
        <time>2016-04-29T09:15:45Z</time>
      </trkpt>
      <trkpt lat="45.06281" lon="5.56244">
        <ele>1102.77</ele>
        <time>2016-04-29T09:15:48Z</time>
      </trkpt>
      <trkpt lat="45.06283" lon="5.56236">
        <ele>1102.29</ele>
        <time>2016-04-29T09:15:49Z</time>
      </trkpt>
      <trkpt lat="45.06292" lon="5.56205">
        <ele>1100.37</ele>
        <time>2016-04-29T09:15:53Z</time>
      </trkpt>
      <trkpt lat="45.06298" lon="5.56169">
        <ele>1099.89</ele>
        <time>2016-04-29T09:15:58Z</time>
      </trkpt>
      <trkpt lat="45.06306" lon="5.56141">
        <ele>1097.96</ele>
        <time>2016-04-29T09:16:02Z</time>
      </trkpt>
      <trkpt lat="45.06306" lon="5.56133">
        <ele>1097.48</ele>
        <time>2016-04-29T09:16:03Z</time>
      </trkpt>
      <trkpt lat="45.06306" lon="5.56119">
        <ele>1097.48</ele>
        <time>2016-04-29T09:16:05Z</time>
      </trkpt>
      <trkpt lat="45.06305" lon="5.56111">
        <ele>1097</ele>
        <time>2016-04-29T09:16:06Z</time>
      </trkpt>
      <trkpt lat="45.06304" lon="5.56102">
        <ele>1096.52</ele>
        <time>2016-04-29T09:16:07Z</time>
      </trkpt>
      <trkpt lat="45.06294" lon="5.56063">
        <ele>1092.68</ele>
        <time>2016-04-29T09:16:11Z</time>
      </trkpt>
      <trkpt lat="45.0629" lon="5.5605">
        <ele>1091.71</ele>
        <time>2016-04-29T09:16:12Z</time>
      </trkpt>
      <trkpt lat="45.06283" lon="5.56023">
        <ele>1093.16</ele>
        <time>2016-04-29T09:16:16Z</time>
      </trkpt>
      <trkpt lat="45.06281" lon="5.56022">
        <ele>1093.16</ele>
        <time>2016-04-29T09:16:17Z</time>
      </trkpt>
      <trkpt lat="45.06281" lon="5.56016">
        <ele>1093.16</ele>
        <time>2016-04-29T09:16:32Z</time>
      </trkpt>
      <trkpt lat="45.06281" lon="5.56016">
        <ele>1092.2</ele>
        <time>2016-04-29T09:16:35Z</time>
      </trkpt>
      <trkpt lat="45.0628" lon="5.56014">
        <ele>1091.71</ele>
        <time>2016-04-29T09:16:36Z</time>
      </trkpt>
      <trkpt lat="45.0628" lon="5.56013">
        <ele>1092.68</ele>
        <time>2016-04-29T09:16:42Z</time>
      </trkpt>
      <trkpt lat="45.06279" lon="5.5601">
        <ele>1093.16</ele>
        <time>2016-04-29T09:16:54Z</time>
      </trkpt>
      <trkpt lat="45.06279" lon="5.56008">
        <ele>1092.68</ele>
        <time>2016-04-29T09:16:55Z</time>
      </trkpt>
      <trkpt lat="45.0628" lon="5.56004">
        <ele>1092.2</ele>
        <time>2016-04-29T09:16:56Z</time>
      </trkpt>
      <trkpt lat="45.06287" lon="5.55977">
        <ele>1089.31</ele>
        <time>2016-04-29T09:17:00Z</time>
      </trkpt>
      <trkpt lat="45.06288" lon="5.55968">
        <ele>1088.83</ele>
        <time>2016-04-29T09:17:01Z</time>
      </trkpt>
      <trkpt lat="45.06291" lon="5.55935">
        <ele>1085.47</ele>
        <time>2016-04-29T09:17:04Z</time>
      </trkpt>
      <trkpt lat="45.06296" lon="5.55904">
        <ele>1081.14</ele>
        <time>2016-04-29T09:17:07Z</time>
      </trkpt>
      <trkpt lat="45.06296" lon="5.55895">
        <ele>1080.66</ele>
        <time>2016-04-29T09:17:08Z</time>
      </trkpt>
      <trkpt lat="45.06294" lon="5.55883">
        <ele>1078.74</ele>
        <time>2016-04-29T09:17:09Z</time>
      </trkpt>
      <trkpt lat="45.06288" lon="5.55847">
        <ele>1076.33</ele>
        <time>2016-04-29T09:17:12Z</time>
      </trkpt>
      <trkpt lat="45.06285" lon="5.55828">
        <ele>1075.85</ele>
        <time>2016-04-29T09:17:14Z</time>
      </trkpt>
      <trkpt lat="45.06282" lon="5.5582">
        <ele>1076.81</ele>
        <time>2016-04-29T09:17:15Z</time>
      </trkpt>
      <trkpt lat="45.0628" lon="5.55813">
        <ele>1076.81</ele>
        <time>2016-04-29T09:17:16Z</time>
      </trkpt>
      <trkpt lat="45.06275" lon="5.55801">
        <ele>1077.29</ele>
        <time>2016-04-29T09:17:18Z</time>
      </trkpt>
      <trkpt lat="45.06273" lon="5.55796">
        <ele>1077.29</ele>
        <time>2016-04-29T09:17:19Z</time>
      </trkpt>
      <trkpt lat="45.06272" lon="5.55791">
        <ele>1077.78</ele>
        <time>2016-04-29T09:17:20Z</time>
      </trkpt>
      <trkpt lat="45.06271" lon="5.55787">
        <ele>1077.78</ele>
        <time>2016-04-29T09:17:21Z</time>
      </trkpt>
      <trkpt lat="45.06271" lon="5.55783">
        <ele>1078.26</ele>
        <time>2016-04-29T09:17:22Z</time>
      </trkpt>
      <trkpt lat="45.06271" lon="5.55778">
        <ele>1078.26</ele>
        <time>2016-04-29T09:17:23Z</time>
      </trkpt>
      <trkpt lat="45.06272" lon="5.55774">
        <ele>1078.26</ele>
        <time>2016-04-29T09:17:24Z</time>
      </trkpt>
      <trkpt lat="45.06263" lon="5.55727">
        <ele>1076.81</ele>
        <time>2016-04-29T09:17:35Z</time>
      </trkpt>
      <trkpt lat="45.06261" lon="5.55722">
        <ele>1076.81</ele>
        <time>2016-04-29T09:17:36Z</time>
      </trkpt>
      <trkpt lat="45.06238" lon="5.55686">
        <ele>1073.45</ele>
        <time>2016-04-29T09:17:42Z</time>
      </trkpt>
      <trkpt lat="45.06215" lon="5.55648">
        <ele>1069.12</ele>
        <time>2016-04-29T09:17:47Z</time>
      </trkpt>
      <trkpt lat="45.06193" lon="5.55609">
        <ele>1066.24</ele>
        <time>2016-04-29T09:17:52Z</time>
      </trkpt>
      <trkpt lat="45.0617" lon="5.55571">
        <ele>1063.36</ele>
        <time>2016-04-29T09:17:57Z</time>
      </trkpt>
      <trkpt lat="45.06164" lon="5.55565">
        <ele>1062.87</ele>
        <time>2016-04-29T09:17:58Z</time>
      </trkpt>
      <trkpt lat="45.06156" lon="5.55561">
        <ele>1061.43</ele>
        <time>2016-04-29T09:17:59Z</time>
      </trkpt>
      <trkpt lat="45.06147" lon="5.55563">
        <ele>1060.95</ele>
        <time>2016-04-29T09:18:00Z</time>
      </trkpt>
      <trkpt lat="45.06139" lon="5.55571">
        <ele>1059.99</ele>
        <time>2016-04-29T09:18:01Z</time>
      </trkpt>
      <trkpt lat="45.06132" lon="5.5558">
        <ele>1059.03</ele>
        <time>2016-04-29T09:18:02Z</time>
      </trkpt>
      <trkpt lat="45.06125" lon="5.55591">
        <ele>1057.59</ele>
        <time>2016-04-29T09:18:03Z</time>
      </trkpt>
      <trkpt lat="45.06093" lon="5.55631">
        <ele>1054.22</ele>
        <time>2016-04-29T09:18:07Z</time>
      </trkpt>
      <trkpt lat="45.06084" lon="5.55639">
        <ele>1053.74</ele>
        <time>2016-04-29T09:18:08Z</time>
      </trkpt>
      <trkpt lat="45.06075" lon="5.55644">
        <ele>1053.74</ele>
        <time>2016-04-29T09:18:09Z</time>
      </trkpt>
      <trkpt lat="45.06066" lon="5.55645">
        <ele>1053.74</ele>
        <time>2016-04-29T09:18:10Z</time>
      </trkpt>
      <trkpt lat="45.06057" lon="5.55643">
        <ele>1053.74</ele>
        <time>2016-04-29T09:18:11Z</time>
      </trkpt>
      <trkpt lat="45.0605" lon="5.5564">
        <ele>1054.7</ele>
        <time>2016-04-29T09:18:12Z</time>
      </trkpt>
      <trkpt lat="45.06044" lon="5.55635">
        <ele>1055.18</ele>
        <time>2016-04-29T09:18:13Z</time>
      </trkpt>
      <trkpt lat="45.06038" lon="5.55631">
        <ele>1054.7</ele>
        <time>2016-04-29T09:18:14Z</time>
      </trkpt>
      <trkpt lat="45.0603" lon="5.55625">
        <ele>1056.63</ele>
        <time>2016-04-29T09:18:16Z</time>
      </trkpt>
      <trkpt lat="45.06003" lon="5.55605">
        <ele>1059.99</ele>
        <time>2016-04-29T09:18:27Z</time>
      </trkpt>
      <trkpt lat="45.05972" lon="5.55584">
        <ele>1062.39</ele>
        <time>2016-04-29T09:18:38Z</time>
      </trkpt>
      <trkpt lat="45.05944" lon="5.55537">
        <ele>1064.32</ele>
        <time>2016-04-29T09:18:52Z</time>
      </trkpt>
      <trkpt lat="45.05918" lon="5.55494">
        <ele>1066.24</ele>
        <time>2016-04-29T09:19:06Z</time>
      </trkpt>
      <trkpt lat="45.05883" lon="5.55496">
        <ele>1067.68</ele>
        <time>2016-04-29T09:19:18Z</time>
      </trkpt>
      <trkpt lat="45.05847" lon="5.55521">
        <ele>1069.6</ele>
        <time>2016-04-29T09:19:32Z</time>
      </trkpt>
      <trkpt lat="45.05816" lon="5.55556">
        <ele>1072.01</ele>
        <time>2016-04-29T09:19:46Z</time>
      </trkpt>
      <trkpt lat="45.05784" lon="5.55595">
        <ele>1074.89</ele>
        <time>2016-04-29T09:20:03Z</time>
      </trkpt>
      <trkpt lat="45.0575" lon="5.55619">
        <ele>1078.26</ele>
        <time>2016-04-29T09:20:19Z</time>
      </trkpt>
      <trkpt lat="45.05714" lon="5.55639">
        <ele>1080.66</ele>
        <time>2016-04-29T09:20:36Z</time>
      </trkpt>
      <trkpt lat="45.05686" lon="5.55645">
        <ele>1083.06</ele>
        <time>2016-04-29T09:20:49Z</time>
      </trkpt>
      <trkpt lat="45.05652" lon="5.55636">
        <ele>1085.47</ele>
        <time>2016-04-29T09:21:04Z</time>
      </trkpt>
      <trkpt lat="45.05649" lon="5.55635">
        <ele>1085.47</ele>
        <time>2016-04-29T09:21:06Z</time>
      </trkpt>
      <trkpt lat="45.05647" lon="5.55633">
        <ele>1085.47</ele>
        <time>2016-04-29T09:21:07Z</time>
      </trkpt>
      <trkpt lat="45.05638" lon="5.55612">
        <ele>1085.47</ele>
        <time>2016-04-29T09:21:15Z</time>
      </trkpt>
      <trkpt lat="45.05637" lon="5.5561">
        <ele>1085.47</ele>
        <time>2016-04-29T09:21:16Z</time>
      </trkpt>
      <trkpt lat="45.05635" lon="5.55608">
        <ele>1085.95</ele>
        <time>2016-04-29T09:21:17Z</time>
      </trkpt>
      <trkpt lat="45.05634" lon="5.55607">
        <ele>1085.95</ele>
        <time>2016-04-29T09:21:18Z</time>
      </trkpt>
      <trkpt lat="45.05633" lon="5.55605">
        <ele>1085.95</ele>
        <time>2016-04-29T09:21:19Z</time>
      </trkpt>
      <trkpt lat="45.05632" lon="5.55603">
        <ele>1086.43</ele>
        <time>2016-04-29T09:21:20Z</time>
      </trkpt>
      <trkpt lat="45.05631" lon="5.55602">
        <ele>1086.43</ele>
        <time>2016-04-29T09:21:21Z</time>
      </trkpt>
      <trkpt lat="45.05629" lon="5.556">
        <ele>1086.43</ele>
        <time>2016-04-29T09:21:22Z</time>
      </trkpt>
      <trkpt lat="45.05627" lon="5.55598">
        <ele>1086.43</ele>
        <time>2016-04-29T09:21:23Z</time>
      </trkpt>
      <trkpt lat="45.05626" lon="5.55597">
        <ele>1086.91</ele>
        <time>2016-04-29T09:21:24Z</time>
      </trkpt>
      <trkpt lat="45.05624" lon="5.55596">
        <ele>1086.91</ele>
        <time>2016-04-29T09:21:25Z</time>
      </trkpt>
      <trkpt lat="45.05623" lon="5.55595">
        <ele>1087.39</ele>
        <time>2016-04-29T09:21:26Z</time>
      </trkpt>
      <trkpt lat="45.05611" lon="5.5559">
        <ele>1089.79</ele>
        <time>2016-04-29T09:21:35Z</time>
      </trkpt>
      <trkpt lat="45.05609" lon="5.55589">
        <ele>1089.79</ele>
        <time>2016-04-29T09:21:36Z</time>
      </trkpt>
      <trkpt lat="45.05607" lon="5.55589">
        <ele>1090.27</ele>
        <time>2016-04-29T09:21:37Z</time>
      </trkpt>
      <trkpt lat="45.05605" lon="5.55587">
        <ele>1090.75</ele>
        <time>2016-04-29T09:21:39Z</time>
      </trkpt>
      <trkpt lat="45.05603" lon="5.55586">
        <ele>1090.75</ele>
        <time>2016-04-29T09:21:40Z</time>
      </trkpt>
      <trkpt lat="45.05602" lon="5.55585">
        <ele>1091.23</ele>
        <time>2016-04-29T09:21:41Z</time>
      </trkpt>
      <trkpt lat="45.05593" lon="5.55574">
        <ele>1093.16</ele>
        <time>2016-04-29T09:21:52Z</time>
      </trkpt>
      <trkpt lat="45.05589" lon="5.55572">
        <ele>1093.64</ele>
        <time>2016-04-29T09:21:54Z</time>
      </trkpt>
      <trkpt lat="45.05588" lon="5.55571">
        <ele>1093.64</ele>
        <time>2016-04-29T09:21:55Z</time>
      </trkpt>
      <trkpt lat="45.05587" lon="5.55569">
        <ele>1094.12</ele>
        <time>2016-04-29T09:21:56Z</time>
      </trkpt>
      <trkpt lat="45.05586" lon="5.55568">
        <ele>1094.6</ele>
        <time>2016-04-29T09:21:57Z</time>
      </trkpt>
      <trkpt lat="45.05584" lon="5.55568">
        <ele>1094.6</ele>
        <time>2016-04-29T09:21:58Z</time>
      </trkpt>
      <trkpt lat="45.05582" lon="5.55567">
        <ele>1095.08</ele>
        <time>2016-04-29T09:21:59Z</time>
      </trkpt>
      <trkpt lat="45.0557" lon="5.55555">
        <ele>1097</ele>
        <time>2016-04-29T09:22:09Z</time>
      </trkpt>
      <trkpt lat="45.05567" lon="5.5555">
        <ele>1097.96</ele>
        <time>2016-04-29T09:22:13Z</time>
      </trkpt>
      <trkpt lat="45.05566" lon="5.55549">
        <ele>1097.96</ele>
        <time>2016-04-29T09:22:14Z</time>
      </trkpt>
      <trkpt lat="45.05564" lon="5.55547">
        <ele>1097.96</ele>
        <time>2016-04-29T09:22:15Z</time>
      </trkpt>
      <trkpt lat="45.05563" lon="5.55546">
        <ele>1098.44</ele>
        <time>2016-04-29T09:22:16Z</time>
      </trkpt>
      <trkpt lat="45.05562" lon="5.55544">
        <ele>1098.44</ele>
        <time>2016-04-29T09:22:17Z</time>
      </trkpt>
      <trkpt lat="45.0556" lon="5.55542">
        <ele>1098.44</ele>
        <time>2016-04-29T09:22:18Z</time>
      </trkpt>
      <trkpt lat="45.05559" lon="5.55541">
        <ele>1098.92</ele>
        <time>2016-04-29T09:22:19Z</time>
      </trkpt>
      <trkpt lat="45.05544" lon="5.55526">
        <ele>1100.85</ele>
        <time>2016-04-29T09:22:30Z</time>
      </trkpt>
      <trkpt lat="45.05543" lon="5.55524">
        <ele>1101.33</ele>
        <time>2016-04-29T09:22:31Z</time>
      </trkpt>
      <trkpt lat="45.05525" lon="5.5551">
        <ele>1103.73</ele>
        <time>2016-04-29T09:22:43Z</time>
      </trkpt>
      <trkpt lat="45.05519" lon="5.555">
        <ele>1105.17</ele>
        <time>2016-04-29T09:22:51Z</time>
      </trkpt>
      <trkpt lat="45.05514" lon="5.55497">
        <ele>1106.13</ele>
        <time>2016-04-29T09:22:55Z</time>
      </trkpt>
      <trkpt lat="45.05512" lon="5.55497">
        <ele>1106.61</ele>
        <time>2016-04-29T09:22:56Z</time>
      </trkpt>
      <trkpt lat="45.05511" lon="5.55496">
        <ele>1106.61</ele>
        <time>2016-04-29T09:22:57Z</time>
      </trkpt>
      <trkpt lat="45.05499" lon="5.55486">
        <ele>1109.98</ele>
        <time>2016-04-29T09:23:09Z</time>
      </trkpt>
      <trkpt lat="45.05492" lon="5.55477">
        <ele>1111.42</ele>
        <time>2016-04-29T09:23:20Z</time>
      </trkpt>
      <trkpt lat="45.05486" lon="5.55468">
        <ele>1112.86</ele>
        <time>2016-04-29T09:23:31Z</time>
      </trkpt>
      <trkpt lat="45.05484" lon="5.55467">
        <ele>1113.34</ele>
        <time>2016-04-29T09:23:32Z</time>
      </trkpt>
      <trkpt lat="45.05477" lon="5.55461">
        <ele>1113.82</ele>
        <time>2016-04-29T09:23:36Z</time>
      </trkpt>
      <trkpt lat="45.0547" lon="5.55457">
        <ele>1114.79</ele>
        <time>2016-04-29T09:23:40Z</time>
      </trkpt>
      <trkpt lat="45.05467" lon="5.55455">
        <ele>1115.75</ele>
        <time>2016-04-29T09:23:44Z</time>
      </trkpt>
      <trkpt lat="45.05456" lon="5.55441">
        <ele>1117.67</ele>
        <time>2016-04-29T09:23:54Z</time>
      </trkpt>
      <trkpt lat="45.05454" lon="5.55437">
        <ele>1118.15</ele>
        <time>2016-04-29T09:23:56Z</time>
      </trkpt>
      <trkpt lat="45.05453" lon="5.55435">
        <ele>1118.15</ele>
        <time>2016-04-29T09:23:57Z</time>
      </trkpt>
      <trkpt lat="45.05452" lon="5.55433">
        <ele>1118.15</ele>
        <time>2016-04-29T09:23:58Z</time>
      </trkpt>
      <trkpt lat="45.05451" lon="5.55432">
        <ele>1118.63</ele>
        <time>2016-04-29T09:23:59Z</time>
      </trkpt>
      <trkpt lat="45.0545" lon="5.5543">
        <ele>1118.63</ele>
        <time>2016-04-29T09:24:00Z</time>
      </trkpt>
      <trkpt lat="45.05446" lon="5.55416">
        <ele>1120.07</ele>
        <time>2016-04-29T09:24:07Z</time>
      </trkpt>
      <trkpt lat="45.05444" lon="5.55415">
        <ele>1120.07</ele>
        <time>2016-04-29T09:24:08Z</time>
      </trkpt>
      <trkpt lat="45.05443" lon="5.55413">
        <ele>1120.07</ele>
        <time>2016-04-29T09:24:09Z</time>
      </trkpt>
      <trkpt lat="45.05442" lon="5.55412">
        <ele>1120.07</ele>
        <time>2016-04-29T09:24:10Z</time>
      </trkpt>
      <trkpt lat="45.0544" lon="5.55411">
        <ele>1120.07</ele>
        <time>2016-04-29T09:24:11Z</time>
      </trkpt>
      <trkpt lat="45.05439" lon="5.55409">
        <ele>1119.59</ele>
        <time>2016-04-29T09:24:12Z</time>
      </trkpt>
      <trkpt lat="45.05437" lon="5.55406">
        <ele>1119.59</ele>
        <time>2016-04-29T09:24:13Z</time>
      </trkpt>
      <trkpt lat="45.05435" lon="5.55405">
        <ele>1119.59</ele>
        <time>2016-04-29T09:24:14Z</time>
      </trkpt>
      <trkpt lat="45.05434" lon="5.55403">
        <ele>1120.07</ele>
        <time>2016-04-29T09:24:15Z</time>
      </trkpt>
      <trkpt lat="45.05421" lon="5.55386">
        <ele>1122.96</ele>
        <time>2016-04-29T09:24:27Z</time>
      </trkpt>
      <trkpt lat="45.0542" lon="5.55384">
        <ele>1123.44</ele>
        <time>2016-04-29T09:24:28Z</time>
      </trkpt>
      <trkpt lat="45.05419" lon="5.55383">
        <ele>1123.44</ele>
        <time>2016-04-29T09:24:29Z</time>
      </trkpt>
      <trkpt lat="45.05415" lon="5.55378">
        <ele>1124.4</ele>
        <time>2016-04-29T09:24:33Z</time>
      </trkpt>
      <trkpt lat="45.05414" lon="5.55376">
        <ele>1124.4</ele>
        <time>2016-04-29T09:24:34Z</time>
      </trkpt>
      <trkpt lat="45.05413" lon="5.55375">
        <ele>1124.4</ele>
        <time>2016-04-29T09:24:35Z</time>
      </trkpt>
      <trkpt lat="45.05412" lon="5.55374">
        <ele>1124.4</ele>
        <time>2016-04-29T09:24:36Z</time>
      </trkpt>
      <trkpt lat="45.05411" lon="5.55373">
        <ele>1124.88</ele>
        <time>2016-04-29T09:24:37Z</time>
      </trkpt>
      <trkpt lat="45.0541" lon="5.55372">
        <ele>1124.88</ele>
        <time>2016-04-29T09:24:38Z</time>
      </trkpt>
      <trkpt lat="45.05409" lon="5.55371">
        <ele>1125.36</ele>
        <time>2016-04-29T09:24:39Z</time>
      </trkpt>
      <trkpt lat="45.05393" lon="5.55358">
        <ele>1128.24</ele>
        <time>2016-04-29T09:24:52Z</time>
      </trkpt>
      <trkpt lat="45.05374" lon="5.55346">
        <ele>1131.13</ele>
        <time>2016-04-29T09:25:07Z</time>
      </trkpt>
      <trkpt lat="45.05351" lon="5.55332">
        <ele>1132.57</ele>
        <time>2016-04-29T09:25:23Z</time>
      </trkpt>
      <trkpt lat="45.0534" lon="5.55324">
        <ele>1129.21</ele>
        <time>2016-04-29T09:25:31Z</time>
      </trkpt>
      <trkpt lat="45.05339" lon="5.55323">
        <ele>1134.97</ele>
        <time>2016-04-29T09:25:32Z</time>
      </trkpt>
      <trkpt lat="45.0533" lon="5.5532">
        <ele>1132.09</ele>
        <time>2016-04-29T09:25:36Z</time>
      </trkpt>
      <trkpt lat="45.05309" lon="5.55312">
        <ele>1129.21</ele>
        <time>2016-04-29T09:25:42Z</time>
      </trkpt>
      <trkpt lat="45.05304" lon="5.5531">
        <ele>1129.21</ele>
        <time>2016-04-29T09:25:43Z</time>
      </trkpt>
      <trkpt lat="45.05299" lon="5.55308">
        <ele>1128.73</ele>
        <time>2016-04-29T09:25:44Z</time>
      </trkpt>
      <trkpt lat="45.05279" lon="5.553">
        <ele>1125.84</ele>
        <time>2016-04-29T09:25:48Z</time>
      </trkpt>
      <trkpt lat="45.05249" lon="5.5529">
        <ele>1121.52</ele>
        <time>2016-04-29T09:25:52Z</time>
      </trkpt>
      <trkpt lat="45.05231" lon="5.55289">
        <ele>1119.59</ele>
        <time>2016-04-29T09:25:54Z</time>
      </trkpt>
      <trkpt lat="45.05222" lon="5.55291">
        <ele>1118.63</ele>
        <time>2016-04-29T09:25:55Z</time>
      </trkpt>
      <trkpt lat="45.05204" lon="5.55295">
        <ele>1117.19</ele>
        <time>2016-04-29T09:25:57Z</time>
      </trkpt>
      <trkpt lat="45.05194" lon="5.55293">
        <ele>1116.71</ele>
        <time>2016-04-29T09:25:58Z</time>
      </trkpt>
      <trkpt lat="45.05186" lon="5.55288">
        <ele>1116.23</ele>
        <time>2016-04-29T09:25:59Z</time>
      </trkpt>
      <trkpt lat="45.0518" lon="5.55281">
        <ele>1116.23</ele>
        <time>2016-04-29T09:26:00Z</time>
      </trkpt>
      <trkpt lat="45.05174" lon="5.55275">
        <ele>1116.71</ele>
        <time>2016-04-29T09:26:01Z</time>
      </trkpt>
      <trkpt lat="45.05159" lon="5.5526">
        <ele>1118.63</ele>
        <time>2016-04-29T09:26:04Z</time>
      </trkpt>
      <trkpt lat="45.05154" lon="5.55257">
        <ele>1118.15</ele>
        <time>2016-04-29T09:26:05Z</time>
      </trkpt>
      <trkpt lat="45.0512" lon="5.55238">
        <ele>1115.75</ele>
        <time>2016-04-29T09:26:10Z</time>
      </trkpt>
      <trkpt lat="45.0508" lon="5.55208">
        <ele>1118.63</ele>
        <time>2016-04-29T09:26:17Z</time>
      </trkpt>
      <trkpt lat="45.05077" lon="5.55205">
        <ele>1119.59</ele>
        <time>2016-04-29T09:26:18Z</time>
      </trkpt>
      <trkpt lat="45.05071" lon="5.55198">
        <ele>1120.55</ele>
        <time>2016-04-29T09:26:20Z</time>
      </trkpt>
      <trkpt lat="45.05044" lon="5.55185">
        <ele>1122.96</ele>
        <time>2016-04-29T09:26:31Z</time>
      </trkpt>
      <trkpt lat="45.05019" lon="5.55188">
        <ele>1126.32</ele>
        <time>2016-04-29T09:26:43Z</time>
      </trkpt>
      <trkpt lat="45.04987" lon="5.55198">
        <ele>1129.21</ele>
        <time>2016-04-29T09:26:58Z</time>
      </trkpt>
      <trkpt lat="45.04951" lon="5.55202">
        <ele>1130.17</ele>
        <time>2016-04-29T09:27:13Z</time>
      </trkpt>
      <trkpt lat="45.0491" lon="5.55206">
        <ele>1133.05</ele>
        <time>2016-04-29T09:27:28Z</time>
      </trkpt>
      <trkpt lat="45.04861" lon="5.55205">
        <ele>1134.01</ele>
        <time>2016-04-29T09:27:45Z</time>
      </trkpt>
      <trkpt lat="45.04836" lon="5.55237">
        <ele>1133.53</ele>
        <time>2016-04-29T09:27:57Z</time>
      </trkpt>
      <trkpt lat="45.04824" lon="5.55285">
        <ele>1130.65</ele>
        <time>2016-04-29T09:28:03Z</time>
      </trkpt>
      <trkpt lat="45.0482" lon="5.55306">
        <ele>1128.24</ele>
        <time>2016-04-29T09:28:05Z</time>
      </trkpt>
      <trkpt lat="45.04815" lon="5.55364">
        <ele>1125.36</ele>
        <time>2016-04-29T09:28:10Z</time>
      </trkpt>
      <trkpt lat="45.04812" lon="5.55413">
        <ele>1122.96</ele>
        <time>2016-04-29T09:28:14Z</time>
      </trkpt>
      <trkpt lat="45.04813" lon="5.55426">
        <ele>1122.48</ele>
        <time>2016-04-29T09:28:15Z</time>
      </trkpt>
      <trkpt lat="45.04814" lon="5.55438">
        <ele>1122</ele>
        <time>2016-04-29T09:28:16Z</time>
      </trkpt>
      <trkpt lat="45.04817" lon="5.5546">
        <ele>1122.48</ele>
        <time>2016-04-29T09:28:18Z</time>
      </trkpt>
      <trkpt lat="45.04826" lon="5.55532">
        <ele>1124.88</ele>
        <time>2016-04-29T09:28:28Z</time>
      </trkpt>
      <trkpt lat="45.04835" lon="5.55569">
        <ele>1127.76</ele>
        <time>2016-04-29T09:28:40Z</time>
      </trkpt>
      <trkpt lat="45.04844" lon="5.55587">
        <ele>1129.21</ele>
        <time>2016-04-29T09:28:49Z</time>
      </trkpt>
      <trkpt lat="45.04847" lon="5.55597">
        <ele>1130.65</ele>
        <time>2016-04-29T09:28:53Z</time>
      </trkpt>
      <trkpt lat="45.04848" lon="5.55599">
        <ele>1129.69</ele>
        <time>2016-04-29T09:28:54Z</time>
      </trkpt>
      <trkpt lat="45.04849" lon="5.556">
        <ele>1132.09</ele>
        <time>2016-04-29T09:28:55Z</time>
      </trkpt>
      <trkpt lat="45.0485" lon="5.55603">
        <ele>1131.13</ele>
        <time>2016-04-29T09:28:56Z</time>
      </trkpt>
      <trkpt lat="45.04852" lon="5.55605">
        <ele>1131.13</ele>
        <time>2016-04-29T09:28:57Z</time>
      </trkpt>
      <trkpt lat="45.04853" lon="5.55608">
        <ele>1131.61</ele>
        <time>2016-04-29T09:28:58Z</time>
      </trkpt>
      <trkpt lat="45.04854" lon="5.55611">
        <ele>1131.61</ele>
        <time>2016-04-29T09:28:59Z</time>
      </trkpt>
      <trkpt lat="45.04855" lon="5.55613">
        <ele>1132.09</ele>
        <time>2016-04-29T09:29:00Z</time>
      </trkpt>
      <trkpt lat="45.04856" lon="5.55616">
        <ele>1132.57</ele>
        <time>2016-04-29T09:29:01Z</time>
      </trkpt>
      <trkpt lat="45.04857" lon="5.55619">
        <ele>1132.57</ele>
        <time>2016-04-29T09:29:02Z</time>
      </trkpt>
      <trkpt lat="45.04857" lon="5.55622">
        <ele>1133.05</ele>
        <time>2016-04-29T09:29:03Z</time>
      </trkpt>
      <trkpt lat="45.04862" lon="5.55638">
        <ele>1134.01</ele>
        <time>2016-04-29T09:29:10Z</time>
      </trkpt>
      <trkpt lat="45.04863" lon="5.55641">
        <ele>1134.01</ele>
        <time>2016-04-29T09:29:11Z</time>
      </trkpt>
      <trkpt lat="45.04864" lon="5.55644">
        <ele>1134.01</ele>
        <time>2016-04-29T09:29:12Z</time>
      </trkpt>
      <trkpt lat="45.04864" lon="5.55647">
        <ele>1134.49</ele>
        <time>2016-04-29T09:29:13Z</time>
      </trkpt>
      <trkpt lat="45.04863" lon="5.55651">
        <ele>1134.97</ele>
        <time>2016-04-29T09:29:14Z</time>
      </trkpt>
      <trkpt lat="45.04862" lon="5.55654">
        <ele>1134.97</ele>
        <time>2016-04-29T09:29:15Z</time>
      </trkpt>
      <trkpt lat="45.04861" lon="5.55657">
        <ele>1135.45</ele>
        <time>2016-04-29T09:29:16Z</time>
      </trkpt>
      <trkpt lat="45.0486" lon="5.55659">
        <ele>1135.45</ele>
        <time>2016-04-29T09:29:17Z</time>
      </trkpt>
      <trkpt lat="45.04858" lon="5.55661">
        <ele>1135.45</ele>
        <time>2016-04-29T09:29:18Z</time>
      </trkpt>
      <trkpt lat="45.04856" lon="5.55663">
        <ele>1135.45</ele>
        <time>2016-04-29T09:29:19Z</time>
      </trkpt>
      <trkpt lat="45.04833" lon="5.55673">
        <ele>1137.38</ele>
        <time>2016-04-29T09:29:31Z</time>
      </trkpt>
      <trkpt lat="45.04832" lon="5.55675">
        <ele>1137.86</ele>
        <time>2016-04-29T09:29:32Z</time>
      </trkpt>
      <trkpt lat="45.0483" lon="5.55676">
        <ele>1137.86</ele>
        <time>2016-04-29T09:29:33Z</time>
      </trkpt>
      <trkpt lat="45.04829" lon="5.55677">
        <ele>1137.86</ele>
        <time>2016-04-29T09:29:34Z</time>
      </trkpt>
      <trkpt lat="45.04827" lon="5.55676">
        <ele>1137.86</ele>
        <time>2016-04-29T09:29:35Z</time>
      </trkpt>
      <trkpt lat="45.04826" lon="5.55675">
        <ele>1137.86</ele>
        <time>2016-04-29T09:29:36Z</time>
      </trkpt>
      <trkpt lat="45.04825" lon="5.55674">
        <ele>1137.86</ele>
        <time>2016-04-29T09:29:37Z</time>
      </trkpt>
      <trkpt lat="45.04823" lon="5.55673">
        <ele>1138.34</ele>
        <time>2016-04-29T09:29:38Z</time>
      </trkpt>
      <trkpt lat="45.04822" lon="5.55672">
        <ele>1138.34</ele>
        <time>2016-04-29T09:29:39Z</time>
      </trkpt>
      <trkpt lat="45.0482" lon="5.55671">
        <ele>1138.34</ele>
        <time>2016-04-29T09:29:40Z</time>
      </trkpt>
      <trkpt lat="45.04818" lon="5.55671">
        <ele>1138.34</ele>
        <time>2016-04-29T09:29:41Z</time>
      </trkpt>
      <trkpt lat="45.04816" lon="5.55671">
        <ele>1135.94</ele>
        <time>2016-04-29T09:29:42Z</time>
      </trkpt>
      <trkpt lat="45.04814" lon="5.55672">
        <ele>1142.18</ele>
        <time>2016-04-29T09:29:43Z</time>
      </trkpt>
      <trkpt lat="45.04812" lon="5.55672">
        <ele>1138.82</ele>
        <time>2016-04-29T09:29:44Z</time>
      </trkpt>
      <trkpt lat="45.04782" lon="5.55679">
        <ele>1140.26</ele>
        <time>2016-04-29T09:29:58Z</time>
      </trkpt>
      <trkpt lat="45.04755" lon="5.55683">
        <ele>1142.18</ele>
        <time>2016-04-29T09:30:11Z</time>
      </trkpt>
      <trkpt lat="45.04729" lon="5.55686">
        <ele>1143.63</ele>
        <time>2016-04-29T09:30:23Z</time>
      </trkpt>
      <trkpt lat="45.04683" lon="5.55682">
        <ele>1146.03</ele>
        <time>2016-04-29T09:30:43Z</time>
      </trkpt>
      <trkpt lat="45.04645" lon="5.55659">
        <ele>1147.47</ele>
        <time>2016-04-29T09:30:59Z</time>
      </trkpt>
      <trkpt lat="45.04615" lon="5.55664">
        <ele>1148.91</ele>
        <time>2016-04-29T09:31:12Z</time>
      </trkpt>
      <trkpt lat="45.04606" lon="5.55701">
        <ele>1149.39</ele>
        <time>2016-04-29T09:31:23Z</time>
      </trkpt>
      <trkpt lat="45.04603" lon="5.55738">
        <ele>1149.87</ele>
        <time>2016-04-29T09:31:36Z</time>
      </trkpt>
      <trkpt lat="45.04592" lon="5.55796">
        <ele>1150.84</ele>
        <time>2016-04-29T09:31:50Z</time>
      </trkpt>
      <trkpt lat="45.04569" lon="5.55857">
        <ele>1153.24</ele>
        <time>2016-04-29T09:32:06Z</time>
      </trkpt>
      <trkpt lat="45.04553" lon="5.5592">
        <ele>1155.64</ele>
        <time>2016-04-29T09:32:23Z</time>
      </trkpt>
      <trkpt lat="45.04541" lon="5.5595">
        <ele>1156.6</ele>
        <time>2016-04-29T09:32:35Z</time>
      </trkpt>
      <trkpt lat="45.04541" lon="5.55955">
        <ele>1156.6</ele>
        <time>2016-04-29T09:32:38Z</time>
      </trkpt>
      <trkpt lat="45.0454" lon="5.55957">
        <ele>1156.6</ele>
        <time>2016-04-29T09:32:39Z</time>
      </trkpt>
      <trkpt lat="45.04539" lon="5.55959">
        <ele>1156.6</ele>
        <time>2016-04-29T09:32:40Z</time>
      </trkpt>
      <trkpt lat="45.04537" lon="5.55965">
        <ele>1153.72</ele>
        <time>2016-04-29T09:32:43Z</time>
      </trkpt>
      <trkpt lat="45.04536" lon="5.55967">
        <ele>1160.93</ele>
        <time>2016-04-29T09:32:44Z</time>
      </trkpt>
      <trkpt lat="45.04534" lon="5.55969">
        <ele>1157.56</ele>
        <time>2016-04-29T09:32:45Z</time>
      </trkpt>
      <trkpt lat="45.04511" lon="5.55985">
        <ele>1158.53</ele>
        <time>2016-04-29T09:32:58Z</time>
      </trkpt>
      <trkpt lat="45.04509" lon="5.55987">
        <ele>1158.53</ele>
        <time>2016-04-29T09:32:59Z</time>
      </trkpt>
      <trkpt lat="45.04506" lon="5.55989">
        <ele>1158.53</ele>
        <time>2016-04-29T09:33:00Z</time>
      </trkpt>
      <trkpt lat="45.04504" lon="5.5599">
        <ele>1159.01</ele>
        <time>2016-04-29T09:33:01Z</time>
      </trkpt>
      <trkpt lat="45.04502" lon="5.55992">
        <ele>1159.01</ele>
        <time>2016-04-29T09:33:02Z</time>
      </trkpt>
      <trkpt lat="45.04499" lon="5.55993">
        <ele>1159.01</ele>
        <time>2016-04-29T09:33:03Z</time>
      </trkpt>
      <trkpt lat="45.04496" lon="5.55995">
        <ele>1159.01</ele>
        <time>2016-04-29T09:33:04Z</time>
      </trkpt>
      <trkpt lat="45.04493" lon="5.55996">
        <ele>1159.49</ele>
        <time>2016-04-29T09:33:05Z</time>
      </trkpt>
      <trkpt lat="45.0449" lon="5.55996">
        <ele>1159.49</ele>
        <time>2016-04-29T09:33:06Z</time>
      </trkpt>
      <trkpt lat="45.04452" lon="5.5601">
        <ele>1159.97</ele>
        <time>2016-04-29T09:33:18Z</time>
      </trkpt>
      <trkpt lat="45.04413" lon="5.56013">
        <ele>1160.45</ele>
        <time>2016-04-29T09:33:31Z</time>
      </trkpt>
      <trkpt lat="45.04393" lon="5.5599">
        <ele>1161.41</ele>
        <time>2016-04-29T09:33:41Z</time>
      </trkpt>
      <trkpt lat="45.04393" lon="5.55988">
        <ele>1161.41</ele>
        <time>2016-04-29T09:33:42Z</time>
      </trkpt>
      <trkpt lat="45.0439" lon="5.55984">
        <ele>1161.89</ele>
        <time>2016-04-29T09:33:45Z</time>
      </trkpt>
      <trkpt lat="45.04388" lon="5.55984">
        <ele>1161.89</ele>
        <time>2016-04-29T09:33:46Z</time>
      </trkpt>
      <trkpt lat="45.04387" lon="5.55986">
        <ele>1161.89</ele>
        <time>2016-04-29T09:33:47Z</time>
      </trkpt>
      <trkpt lat="45.04387" lon="5.55988">
        <ele>1162.37</ele>
        <time>2016-04-29T09:33:48Z</time>
      </trkpt>
      <trkpt lat="45.04387" lon="5.5599">
        <ele>1162.37</ele>
        <time>2016-04-29T09:33:49Z</time>
      </trkpt>
      <trkpt lat="45.04389" lon="5.55992">
        <ele>1161.89</ele>
        <time>2016-04-29T09:33:50Z</time>
      </trkpt>
      <trkpt lat="45.04391" lon="5.55992">
        <ele>1161.89</ele>
        <time>2016-04-29T09:33:51Z</time>
      </trkpt>
      <trkpt lat="45.04392" lon="5.55991">
        <ele>1161.89</ele>
        <time>2016-04-29T09:33:52Z</time>
      </trkpt>
      <trkpt lat="45.04392" lon="5.55989">
        <ele>1161.89</ele>
        <time>2016-04-29T09:33:53Z</time>
      </trkpt>
      <trkpt lat="45.04392" lon="5.55988">
        <ele>1161.89</ele>
        <time>2016-04-29T09:33:54Z</time>
      </trkpt>
      <trkpt lat="45.04391" lon="5.55986">
        <ele>1161.41</ele>
        <time>2016-04-29T09:33:55Z</time>
      </trkpt>
      <trkpt lat="45.0439" lon="5.55979">
        <ele>1161.41</ele>
        <time>2016-04-29T09:33:58Z</time>
      </trkpt>
      <trkpt lat="45.04391" lon="5.55976">
        <ele>1160.93</ele>
        <time>2016-04-29T09:33:59Z</time>
      </trkpt>
      <trkpt lat="45.04393" lon="5.55973">
        <ele>1159.49</ele>
        <time>2016-04-29T09:34:00Z</time>
      </trkpt>
      <trkpt lat="45.04395" lon="5.5597">
        <ele>1158.53</ele>
        <time>2016-04-29T09:34:01Z</time>
      </trkpt>
      <trkpt lat="45.04397" lon="5.55967">
        <ele>1157.08</ele>
        <time>2016-04-29T09:34:02Z</time>
      </trkpt>
      <trkpt lat="45.044" lon="5.55964">
        <ele>1156.12</ele>
        <time>2016-04-29T09:34:03Z</time>
      </trkpt>
      <trkpt lat="45.04402" lon="5.55962">
        <ele>1155.16</ele>
        <time>2016-04-29T09:34:04Z</time>
      </trkpt>
      <trkpt lat="45.04405" lon="5.5596">
        <ele>1154.2</ele>
        <time>2016-04-29T09:34:05Z</time>
      </trkpt>
      <trkpt lat="45.04409" lon="5.55956">
        <ele>1152.76</ele>
        <time>2016-04-29T09:34:06Z</time>
      </trkpt>
      <trkpt lat="45.04413" lon="5.5595">
        <ele>1151.32</ele>
        <time>2016-04-29T09:34:07Z</time>
      </trkpt>
      <trkpt lat="45.04415" lon="5.55943">
        <ele>1150.35</ele>
        <time>2016-04-29T09:34:08Z</time>
      </trkpt>
      <trkpt lat="45.04417" lon="5.55935">
        <ele>1150.35</ele>
        <time>2016-04-29T09:34:09Z</time>
      </trkpt>
      <trkpt lat="45.04417" lon="5.55927">
        <ele>1150.35</ele>
        <time>2016-04-29T09:34:10Z</time>
      </trkpt>
      <trkpt lat="45.04416" lon="5.5592">
        <ele>1150.35</ele>
        <time>2016-04-29T09:34:11Z</time>
      </trkpt>
      <trkpt lat="45.04416" lon="5.55913">
        <ele>1150.84</ele>
        <time>2016-04-29T09:34:12Z</time>
      </trkpt>
      <trkpt lat="45.04415" lon="5.55906">
        <ele>1150.84</ele>
        <time>2016-04-29T09:34:13Z</time>
      </trkpt>
      <trkpt lat="45.04401" lon="5.55881">
        <ele>1151.32</ele>
        <time>2016-04-29T09:34:22Z</time>
      </trkpt>
      <trkpt lat="45.04395" lon="5.55878">
        <ele>1151.8</ele>
        <time>2016-04-29T09:34:26Z</time>
      </trkpt>
      <trkpt lat="45.04393" lon="5.55876">
        <ele>1151.8</ele>
        <time>2016-04-29T09:34:27Z</time>
      </trkpt>
      <trkpt lat="45.04392" lon="5.55873">
        <ele>1151.8</ele>
        <time>2016-04-29T09:34:28Z</time>
      </trkpt>
      <trkpt lat="45.0439" lon="5.5587">
        <ele>1151.32</ele>
        <time>2016-04-29T09:34:29Z</time>
      </trkpt>
      <trkpt lat="45.04389" lon="5.55865">
        <ele>1151.8</ele>
        <time>2016-04-29T09:34:30Z</time>
      </trkpt>
      <trkpt lat="45.04388" lon="5.5586">
        <ele>1151.32</ele>
        <time>2016-04-29T09:34:31Z</time>
      </trkpt>
      <trkpt lat="45.04382" lon="5.55822">
        <ele>1152.28</ele>
        <time>2016-04-29T09:34:41Z</time>
      </trkpt>
      <trkpt lat="45.04387" lon="5.55819">
        <ele>1152.28</ele>
        <time>2016-04-29T09:34:48Z</time>
      </trkpt>
      <trkpt lat="45.04387" lon="5.55819">
        <ele>1152.28</ele>
        <time>2016-04-29T09:34:56Z</time>
      </trkpt>
      <trkpt lat="45.04379" lon="5.55822">
        <ele>1152.28</ele>
        <time>2016-04-29T09:35:05Z</time>
      </trkpt>
      <trkpt lat="45.04377" lon="5.55813">
        <ele>1152.28</ele>
        <time>2016-04-29T09:35:10Z</time>
      </trkpt>
      <trkpt lat="45.04371" lon="5.55793">
        <ele>1152.76</ele>
        <time>2016-04-29T09:35:21Z</time>
      </trkpt>
      <trkpt lat="45.04369" lon="5.55774">
        <ele>1150.84</ele>
        <time>2016-04-29T09:35:26Z</time>
      </trkpt>
      <trkpt lat="45.04369" lon="5.5576">
        <ele>1149.39</ele>
        <time>2016-04-29T09:35:30Z</time>
      </trkpt>
      <trkpt lat="45.0437" lon="5.55746">
        <ele>1146.51</ele>
        <time>2016-04-29T09:35:36Z</time>
      </trkpt>
      <trkpt lat="45.04373" lon="5.55735">
        <ele>1143.14</ele>
        <time>2016-04-29T09:35:40Z</time>
      </trkpt>
      <trkpt lat="45.04376" lon="5.55721">
        <ele>1141.22</ele>
        <time>2016-04-29T09:35:44Z</time>
      </trkpt>
      <trkpt lat="45.04379" lon="5.55712">
        <ele>1140.26</ele>
        <time>2016-04-29T09:35:53Z</time>
      </trkpt>
      <trkpt lat="45.0438" lon="5.55704">
        <ele>1137.38</ele>
        <time>2016-04-29T09:36:08Z</time>
      </trkpt>
      <trkpt lat="45.0438" lon="5.55704">
        <ele>1137.38</ele>
        <time>2016-04-29T09:36:12Z</time>
      </trkpt>
      <trkpt lat="45.04381" lon="5.55705">
        <ele>1136.42</ele>
        <time>2016-04-29T09:36:17Z</time>
      </trkpt>
      <trkpt lat="45.04383" lon="5.55706">
        <ele>1135.94</ele>
        <time>2016-04-29T09:36:20Z</time>
      </trkpt>
      <trkpt lat="45.04386" lon="5.55706">
        <ele>1134.97</ele>
        <time>2016-04-29T09:36:30Z</time>
      </trkpt>
      <trkpt lat="45.04388" lon="5.55704">
        <ele>1133.53</ele>
        <time>2016-04-29T09:36:41Z</time>
      </trkpt>
      <trkpt lat="45.04389" lon="5.55704">
        <ele>1133.53</ele>
        <time>2016-04-29T09:36:42Z</time>
      </trkpt>
      <trkpt lat="45.04391" lon="5.55701">
        <ele>1132.09</ele>
        <time>2016-04-29T09:36:45Z</time>
      </trkpt>
      <trkpt lat="45.0439" lon="5.55692">
        <ele>1132.09</ele>
        <time>2016-04-29T09:36:58Z</time>
      </trkpt>
      <trkpt lat="45.04384" lon="5.55677">
        <ele>1133.53</ele>
        <time>2016-04-29T09:37:09Z</time>
      </trkpt>
      <trkpt lat="45.04384" lon="5.55676">
        <ele>1134.01</ele>
        <time>2016-04-29T09:37:20Z</time>
      </trkpt>
      <trkpt lat="45.04384" lon="5.55674">
        <ele>1134.01</ele>
        <time>2016-04-29T09:37:22Z</time>
      </trkpt>
      <trkpt lat="45.04371" lon="5.55656">
        <ele>1135.94</ele>
        <time>2016-04-29T09:37:34Z</time>
      </trkpt>
      <trkpt lat="45.04364" lon="5.5565">
        <ele>1136.9</ele>
        <time>2016-04-29T09:37:39Z</time>
      </trkpt>
      <trkpt lat="45.04358" lon="5.55642">
        <ele>1139.3</ele>
        <time>2016-04-29T09:37:46Z</time>
      </trkpt>
      <trkpt lat="45.04353" lon="5.55625">
        <ele>1141.22</ele>
        <time>2016-04-29T09:37:56Z</time>
      </trkpt>
      <trkpt lat="45.04346" lon="5.55609">
        <ele>1144.11</ele>
        <time>2016-04-29T09:38:08Z</time>
      </trkpt>
      <trkpt lat="45.04344" lon="5.55603">
        <ele>1144.59</ele>
        <time>2016-04-29T09:38:12Z</time>
      </trkpt>
      <trkpt lat="45.04338" lon="5.5559">
        <ele>1146.51</ele>
        <time>2016-04-29T09:38:19Z</time>
      </trkpt>
      <trkpt lat="45.0433" lon="5.55576">
        <ele>1149.39</ele>
        <time>2016-04-29T09:38:28Z</time>
      </trkpt>
      <trkpt lat="45.04329" lon="5.55572">
        <ele>1149.87</ele>
        <time>2016-04-29T09:38:30Z</time>
      </trkpt>
      <trkpt lat="45.04324" lon="5.55559">
        <ele>1151.32</ele>
        <time>2016-04-29T09:38:36Z</time>
      </trkpt>
      <trkpt lat="45.04323" lon="5.55555">
        <ele>1151.8</ele>
        <time>2016-04-29T09:38:38Z</time>
      </trkpt>
      <trkpt lat="45.04317" lon="5.55544">
        <ele>1152.76</ele>
        <time>2016-04-29T09:38:45Z</time>
      </trkpt>
      <trkpt lat="45.04314" lon="5.55537">
        <ele>1152.76</ele>
        <time>2016-04-29T09:38:49Z</time>
      </trkpt>
      <trkpt lat="45.04312" lon="5.55533">
        <ele>1153.24</ele>
        <time>2016-04-29T09:38:51Z</time>
      </trkpt>
      <trkpt lat="45.04309" lon="5.55528">
        <ele>1153.72</ele>
        <time>2016-04-29T09:38:54Z</time>
      </trkpt>
      <trkpt lat="45.04303" lon="5.55514">
        <ele>1155.16</ele>
        <time>2016-04-29T09:39:00Z</time>
      </trkpt>
      <trkpt lat="45.04296" lon="5.55504">
        <ele>1156.6</ele>
        <time>2016-04-29T09:39:06Z</time>
      </trkpt>
      <trkpt lat="45.04283" lon="5.55478">
        <ele>1159.97</ele>
        <time>2016-04-29T09:39:19Z</time>
      </trkpt>
      <trkpt lat="45.0428" lon="5.55468">
        <ele>1159.97</ele>
        <time>2016-04-29T09:39:23Z</time>
      </trkpt>
      <trkpt lat="45.04274" lon="5.55454">
        <ele>1159.97</ele>
        <time>2016-04-29T09:39:29Z</time>
      </trkpt>
      <trkpt lat="45.04263" lon="5.55429">
        <ele>1159.49</ele>
        <time>2016-04-29T09:39:37Z</time>
      </trkpt>
      <trkpt lat="45.04252" lon="5.554">
        <ele>1161.41</ele>
        <time>2016-04-29T09:39:47Z</time>
      </trkpt>
      <trkpt lat="45.04231" lon="5.55371">
        <ele>1161.41</ele>
        <time>2016-04-29T09:39:59Z</time>
      </trkpt>
      <trkpt lat="45.04205" lon="5.55314">
        <ele>1158.05</ele>
        <time>2016-04-29T09:40:08Z</time>
      </trkpt>
      <trkpt lat="45.04186" lon="5.55269">
        <ele>1157.56</ele>
        <time>2016-04-29T09:40:15Z</time>
      </trkpt>
      <trkpt lat="45.04182" lon="5.55264">
        <ele>1157.08</ele>
        <time>2016-04-29T09:40:16Z</time>
      </trkpt>
      <trkpt lat="45.04178" lon="5.5526">
        <ele>1157.08</ele>
        <time>2016-04-29T09:40:17Z</time>
      </trkpt>
      <trkpt lat="45.04174" lon="5.55256">
        <ele>1157.08</ele>
        <time>2016-04-29T09:40:18Z</time>
      </trkpt>
      <trkpt lat="45.04171" lon="5.55253">
        <ele>1156.6</ele>
        <time>2016-04-29T09:40:19Z</time>
      </trkpt>
      <trkpt lat="45.04167" lon="5.55248">
        <ele>1156.6</ele>
        <time>2016-04-29T09:40:20Z</time>
      </trkpt>
      <trkpt lat="45.04164" lon="5.55244">
        <ele>1156.12</ele>
        <time>2016-04-29T09:40:21Z</time>
      </trkpt>
      <trkpt lat="45.04162" lon="5.5524">
        <ele>1156.12</ele>
        <time>2016-04-29T09:40:22Z</time>
      </trkpt>
      <trkpt lat="45.04161" lon="5.55236">
        <ele>1156.12</ele>
        <time>2016-04-29T09:40:23Z</time>
      </trkpt>
      <trkpt lat="45.0416" lon="5.55231">
        <ele>1155.64</ele>
        <time>2016-04-29T09:40:24Z</time>
      </trkpt>
      <trkpt lat="45.04158" lon="5.55226">
        <ele>1155.16</ele>
        <time>2016-04-29T09:40:25Z</time>
      </trkpt>
      <trkpt lat="45.04156" lon="5.55221">
        <ele>1154.68</ele>
        <time>2016-04-29T09:40:26Z</time>
      </trkpt>
      <trkpt lat="45.04144" lon="5.55199">
        <ele>1152.28</ele>
        <time>2016-04-29T09:40:29Z</time>
      </trkpt>
      <trkpt lat="45.04141" lon="5.55188">
        <ele>1151.32</ele>
        <time>2016-04-29T09:40:30Z</time>
      </trkpt>
      <trkpt lat="45.0414" lon="5.55178">
        <ele>1150.84</ele>
        <time>2016-04-29T09:40:31Z</time>
      </trkpt>
      <trkpt lat="45.0414" lon="5.55169">
        <ele>1149.87</ele>
        <time>2016-04-29T09:40:32Z</time>
      </trkpt>
      <trkpt lat="45.04141" lon="5.55161">
        <ele>1148.43</ele>
        <time>2016-04-29T09:40:33Z</time>
      </trkpt>
      <trkpt lat="45.04144" lon="5.55155">
        <ele>1147.47</ele>
        <time>2016-04-29T09:40:34Z</time>
      </trkpt>
      <trkpt lat="45.04147" lon="5.55148">
        <ele>1146.99</ele>
        <time>2016-04-29T09:40:35Z</time>
      </trkpt>
      <trkpt lat="45.0415" lon="5.5514">
        <ele>1146.03</ele>
        <time>2016-04-29T09:40:36Z</time>
      </trkpt>
      <trkpt lat="45.04152" lon="5.55131">
        <ele>1145.07</ele>
        <time>2016-04-29T09:40:37Z</time>
      </trkpt>
      <trkpt lat="45.04151" lon="5.55122">
        <ele>1144.11</ele>
        <time>2016-04-29T09:40:38Z</time>
      </trkpt>
      <trkpt lat="45.04148" lon="5.55113">
        <ele>1143.63</ele>
        <time>2016-04-29T09:40:39Z</time>
      </trkpt>
      <trkpt lat="45.04144" lon="5.55105">
        <ele>1142.66</ele>
        <time>2016-04-29T09:40:40Z</time>
      </trkpt>
      <trkpt lat="45.04139" lon="5.55096">
        <ele>1142.18</ele>
        <time>2016-04-29T09:40:41Z</time>
      </trkpt>
      <trkpt lat="45.04136" lon="5.55087">
        <ele>1141.7</ele>
        <time>2016-04-29T09:40:42Z</time>
      </trkpt>
      <trkpt lat="45.04133" lon="5.55077">
        <ele>1141.22</ele>
        <time>2016-04-29T09:40:43Z</time>
      </trkpt>
      <trkpt lat="45.04133" lon="5.55066">
        <ele>1141.22</ele>
        <time>2016-04-29T09:40:44Z</time>
      </trkpt>
      <trkpt lat="45.04134" lon="5.55056">
        <ele>1141.22</ele>
        <time>2016-04-29T09:40:45Z</time>
      </trkpt>
      <trkpt lat="45.04135" lon="5.55047">
        <ele>1141.22</ele>
        <time>2016-04-29T09:40:46Z</time>
      </trkpt>
      <trkpt lat="45.04137" lon="5.5504">
        <ele>1141.22</ele>
        <time>2016-04-29T09:40:47Z</time>
      </trkpt>
      <trkpt lat="45.0414" lon="5.55034">
        <ele>1141.22</ele>
        <time>2016-04-29T09:40:48Z</time>
      </trkpt>
      <trkpt lat="45.04144" lon="5.55027">
        <ele>1141.22</ele>
        <time>2016-04-29T09:40:49Z</time>
      </trkpt>
      <trkpt lat="45.04149" lon="5.55021">
        <ele>1140.74</ele>
        <time>2016-04-29T09:40:50Z</time>
      </trkpt>
      <trkpt lat="45.04154" lon="5.55015">
        <ele>1139.78</ele>
        <time>2016-04-29T09:40:51Z</time>
      </trkpt>
      <trkpt lat="45.04158" lon="5.55009">
        <ele>1138.82</ele>
        <time>2016-04-29T09:40:52Z</time>
      </trkpt>
      <trkpt lat="45.04162" lon="5.55002">
        <ele>1138.34</ele>
        <time>2016-04-29T09:40:53Z</time>
      </trkpt>
      <trkpt lat="45.04172" lon="5.54991">
        <ele>1138.82</ele>
        <time>2016-04-29T09:40:55Z</time>
      </trkpt>
      <trkpt lat="45.04176" lon="5.54988">
        <ele>1139.3</ele>
        <time>2016-04-29T09:40:56Z</time>
      </trkpt>
      <trkpt lat="45.04181" lon="5.54984">
        <ele>1139.78</ele>
        <time>2016-04-29T09:40:57Z</time>
      </trkpt>
      <trkpt lat="45.04185" lon="5.5498">
        <ele>1140.26</ele>
        <time>2016-04-29T09:40:58Z</time>
      </trkpt>
      <trkpt lat="45.04188" lon="5.54977">
        <ele>1140.26</ele>
        <time>2016-04-29T09:40:59Z</time>
      </trkpt>
      <trkpt lat="45.04196" lon="5.54971">
        <ele>1139.78</ele>
        <time>2016-04-29T09:41:01Z</time>
      </trkpt>
      <trkpt lat="45.04201" lon="5.54969">
        <ele>1139.3</ele>
        <time>2016-04-29T09:41:02Z</time>
      </trkpt>
      <trkpt lat="45.04207" lon="5.54965">
        <ele>1139.3</ele>
        <time>2016-04-29T09:41:03Z</time>
      </trkpt>
      <trkpt lat="45.04212" lon="5.5496">
        <ele>1138.82</ele>
        <time>2016-04-29T09:41:04Z</time>
      </trkpt>
      <trkpt lat="45.04217" lon="5.54954">
        <ele>1139.3</ele>
        <time>2016-04-29T09:41:05Z</time>
      </trkpt>
      <trkpt lat="45.04238" lon="5.54924">
        <ele>1134.49</ele>
        <time>2016-04-29T09:41:11Z</time>
      </trkpt>
      <trkpt lat="45.04241" lon="5.5492">
        <ele>1140.26</ele>
        <time>2016-04-29T09:41:12Z</time>
      </trkpt>
      <trkpt lat="45.04259" lon="5.5488">
        <ele>1138.82</ele>
        <time>2016-04-29T09:41:22Z</time>
      </trkpt>
      <trkpt lat="45.04271" lon="5.54855">
        <ele>1136.42</ele>
        <time>2016-04-29T09:41:26Z</time>
      </trkpt>
      <trkpt lat="45.04272" lon="5.54847">
        <ele>1136.42</ele>
        <time>2016-04-29T09:41:27Z</time>
      </trkpt>
      <trkpt lat="45.04272" lon="5.5484">
        <ele>1136.42</ele>
        <time>2016-04-29T09:41:28Z</time>
      </trkpt>
      <trkpt lat="45.0427" lon="5.54833">
        <ele>1135.94</ele>
        <time>2016-04-29T09:41:29Z</time>
      </trkpt>
      <trkpt lat="45.04267" lon="5.54828">
        <ele>1135.94</ele>
        <time>2016-04-29T09:41:30Z</time>
      </trkpt>
      <trkpt lat="45.04261" lon="5.54825">
        <ele>1135.45</ele>
        <time>2016-04-29T09:41:31Z</time>
      </trkpt>
      <trkpt lat="45.04255" lon="5.54823">
        <ele>1135.45</ele>
        <time>2016-04-29T09:41:32Z</time>
      </trkpt>
      <trkpt lat="45.04249" lon="5.54821">
        <ele>1134.97</ele>
        <time>2016-04-29T09:41:33Z</time>
      </trkpt>
      <trkpt lat="45.04209" lon="5.54814">
        <ele>1131.13</ele>
        <time>2016-04-29T09:41:39Z</time>
      </trkpt>
      <trkpt lat="45.042" lon="5.54814">
        <ele>1130.17</ele>
        <time>2016-04-29T09:41:40Z</time>
      </trkpt>
      <trkpt lat="45.04192" lon="5.54815">
        <ele>1129.69</ele>
        <time>2016-04-29T09:41:41Z</time>
      </trkpt>
      <trkpt lat="45.04183" lon="5.54816">
        <ele>1128.73</ele>
        <time>2016-04-29T09:41:42Z</time>
      </trkpt>
      <trkpt lat="45.04176" lon="5.54813">
        <ele>1127.76</ele>
        <time>2016-04-29T09:41:43Z</time>
      </trkpt>
      <trkpt lat="45.0417" lon="5.54804">
        <ele>1126.8</ele>
        <time>2016-04-29T09:41:44Z</time>
      </trkpt>
      <trkpt lat="45.04166" lon="5.54793">
        <ele>1126.32</ele>
        <time>2016-04-29T09:41:45Z</time>
      </trkpt>
      <trkpt lat="45.04164" lon="5.5478">
        <ele>1125.36</ele>
        <time>2016-04-29T09:41:46Z</time>
      </trkpt>
      <trkpt lat="45.04164" lon="5.54767">
        <ele>1124.4</ele>
        <time>2016-04-29T09:41:47Z</time>
      </trkpt>
      <trkpt lat="45.04164" lon="5.54753">
        <ele>1123.44</ele>
        <time>2016-04-29T09:41:48Z</time>
      </trkpt>
      <trkpt lat="45.04165" lon="5.54723">
        <ele>1120.55</ele>
        <time>2016-04-29T09:41:50Z</time>
      </trkpt>
      <trkpt lat="45.04168" lon="5.54708">
        <ele>1119.11</ele>
        <time>2016-04-29T09:41:51Z</time>
      </trkpt>
      <trkpt lat="45.04172" lon="5.54693">
        <ele>1117.67</ele>
        <time>2016-04-29T09:41:52Z</time>
      </trkpt>
      <trkpt lat="45.04179" lon="5.5468">
        <ele>1117.19</ele>
        <time>2016-04-29T09:41:53Z</time>
      </trkpt>
      <trkpt lat="45.04185" lon="5.54668">
        <ele>1116.23</ele>
        <time>2016-04-29T09:41:54Z</time>
      </trkpt>
      <trkpt lat="45.04192" lon="5.54657">
        <ele>1115.27</ele>
        <time>2016-04-29T09:41:55Z</time>
      </trkpt>
      <trkpt lat="45.04201" lon="5.54647">
        <ele>1113.82</ele>
        <time>2016-04-29T09:41:56Z</time>
      </trkpt>
      <trkpt lat="45.0421" lon="5.54637">
        <ele>1112.38</ele>
        <time>2016-04-29T09:41:57Z</time>
      </trkpt>
      <trkpt lat="45.04228" lon="5.54617">
        <ele>1110.94</ele>
        <time>2016-04-29T09:41:59Z</time>
      </trkpt>
      <trkpt lat="45.04244" lon="5.54594">
        <ele>1108.54</ele>
        <time>2016-04-29T09:42:01Z</time>
      </trkpt>
      <trkpt lat="45.04249" lon="5.54579">
        <ele>1107.58</ele>
        <time>2016-04-29T09:42:02Z</time>
      </trkpt>
      <trkpt lat="45.04253" lon="5.54564">
        <ele>1106.61</ele>
        <time>2016-04-29T09:42:03Z</time>
      </trkpt>
      <trkpt lat="45.04256" lon="5.54549">
        <ele>1105.65</ele>
        <time>2016-04-29T09:42:04Z</time>
      </trkpt>
      <trkpt lat="45.04257" lon="5.54534">
        <ele>1105.17</ele>
        <time>2016-04-29T09:42:05Z</time>
      </trkpt>
      <trkpt lat="45.04258" lon="5.5452">
        <ele>1103.73</ele>
        <time>2016-04-29T09:42:06Z</time>
      </trkpt>
      <trkpt lat="45.04257" lon="5.54504">
        <ele>1103.25</ele>
        <time>2016-04-29T09:42:07Z</time>
      </trkpt>
      <trkpt lat="45.04255" lon="5.54474">
        <ele>1100.85</ele>
        <time>2016-04-29T09:42:09Z</time>
      </trkpt>
      <trkpt lat="45.04252" lon="5.5446">
        <ele>1099.89</ele>
        <time>2016-04-29T09:42:10Z</time>
      </trkpt>
      <trkpt lat="45.0424" lon="5.54417">
        <ele>1096.52</ele>
        <time>2016-04-29T09:42:13Z</time>
      </trkpt>
      <trkpt lat="45.04224" lon="5.54344">
        <ele>1092.2</ele>
        <time>2016-04-29T09:42:18Z</time>
      </trkpt>
      <trkpt lat="45.04211" lon="5.54285">
        <ele>1089.31</ele>
        <time>2016-04-29T09:42:22Z</time>
      </trkpt>
      <trkpt lat="45.04199" lon="5.5423">
        <ele>1088.83</ele>
        <time>2016-04-29T09:42:27Z</time>
      </trkpt>
      <trkpt lat="45.04196" lon="5.54208">
        <ele>1089.79</ele>
        <time>2016-04-29T09:42:30Z</time>
      </trkpt>
      <trkpt lat="45.04195" lon="5.54202">
        <ele>1089.79</ele>
        <time>2016-04-29T09:42:31Z</time>
      </trkpt>
      <trkpt lat="45.04193" lon="5.54196">
        <ele>1089.79</ele>
        <time>2016-04-29T09:42:32Z</time>
      </trkpt>
      <trkpt lat="45.0419" lon="5.54191">
        <ele>1089.31</ele>
        <time>2016-04-29T09:42:33Z</time>
      </trkpt>
      <trkpt lat="45.04186" lon="5.54186">
        <ele>1089.31</ele>
        <time>2016-04-29T09:42:34Z</time>
      </trkpt>
      <trkpt lat="45.04181" lon="5.54183">
        <ele>1089.31</ele>
        <time>2016-04-29T09:42:35Z</time>
      </trkpt>
      <trkpt lat="45.04176" lon="5.5418">
        <ele>1088.35</ele>
        <time>2016-04-29T09:42:36Z</time>
      </trkpt>
      <trkpt lat="45.0417" lon="5.54177">
        <ele>1087.87</ele>
        <time>2016-04-29T09:42:37Z</time>
      </trkpt>
      <trkpt lat="45.04165" lon="5.54173">
        <ele>1087.87</ele>
        <time>2016-04-29T09:42:38Z</time>
      </trkpt>
      <trkpt lat="45.0416" lon="5.5417">
        <ele>1087.87</ele>
        <time>2016-04-29T09:42:39Z</time>
      </trkpt>
      <trkpt lat="45.04156" lon="5.54166">
        <ele>1087.87</ele>
        <time>2016-04-29T09:42:40Z</time>
      </trkpt>
      <trkpt lat="45.04153" lon="5.54161">
        <ele>1088.35</ele>
        <time>2016-04-29T09:42:41Z</time>
      </trkpt>
      <trkpt lat="45.0415" lon="5.54157">
        <ele>1088.35</ele>
        <time>2016-04-29T09:42:42Z</time>
      </trkpt>
      <trkpt lat="45.04148" lon="5.54152">
        <ele>1088.83</ele>
        <time>2016-04-29T09:42:43Z</time>
      </trkpt>
      <trkpt lat="45.04146" lon="5.54148">
        <ele>1089.31</ele>
        <time>2016-04-29T09:42:44Z</time>
      </trkpt>
      <trkpt lat="45.04145" lon="5.54145">
        <ele>1089.31</ele>
        <time>2016-04-29T09:42:45Z</time>
      </trkpt>
      <trkpt lat="45.04144" lon="5.54141">
        <ele>1089.79</ele>
        <time>2016-04-29T09:42:46Z</time>
      </trkpt>
      <trkpt lat="45.04143" lon="5.54138">
        <ele>1089.79</ele>
        <time>2016-04-29T09:42:47Z</time>
      </trkpt>
      <trkpt lat="45.04143" lon="5.54134">
        <ele>1090.27</ele>
        <time>2016-04-29T09:42:48Z</time>
      </trkpt>
      <trkpt lat="45.04143" lon="5.54131">
        <ele>1090.75</ele>
        <time>2016-04-29T09:42:49Z</time>
      </trkpt>
      <trkpt lat="45.04143" lon="5.54128">
        <ele>1090.75</ele>
        <time>2016-04-29T09:42:50Z</time>
      </trkpt>
      <trkpt lat="45.04143" lon="5.54125">
        <ele>1091.23</ele>
        <time>2016-04-29T09:42:51Z</time>
      </trkpt>
      <trkpt lat="45.04143" lon="5.54077">
        <ele>1094.12</ele>
        <time>2016-04-29T09:43:05Z</time>
      </trkpt>
      <trkpt lat="45.04139" lon="5.54024">
        <ele>1094.6</ele>
        <time>2016-04-29T09:43:17Z</time>
      </trkpt>
      <trkpt lat="45.04123" lon="5.53977">
        <ele>1094.12</ele>
        <time>2016-04-29T09:43:28Z</time>
      </trkpt>
      <trkpt lat="45.04115" lon="5.53917">
        <ele>1095.56</ele>
        <time>2016-04-29T09:43:41Z</time>
      </trkpt>
      <trkpt lat="45.04113" lon="5.53896">
        <ele>1097</ele>
        <time>2016-04-29T09:43:47Z</time>
      </trkpt>
      <trkpt lat="45.04112" lon="5.53893">
        <ele>1097</ele>
        <time>2016-04-29T09:43:48Z</time>
      </trkpt>
      <trkpt lat="45.04084" lon="5.53865">
        <ele>1097.96</ele>
        <time>2016-04-29T09:44:01Z</time>
      </trkpt>
      <trkpt lat="45.04055" lon="5.53847">
        <ele>1099.89</ele>
        <time>2016-04-29T09:44:13Z</time>
      </trkpt>
      <trkpt lat="45.0402" lon="5.53822">
        <ele>1101.33</ele>
        <time>2016-04-29T09:44:25Z</time>
      </trkpt>
      <trkpt lat="45.03987" lon="5.5379">
        <ele>1099.89</ele>
        <time>2016-04-29T09:44:36Z</time>
      </trkpt>
      <trkpt lat="45.03964" lon="5.53764">
        <ele>1100.37</ele>
        <time>2016-04-29T09:44:45Z</time>
      </trkpt>
      <trkpt lat="45.03937" lon="5.53734">
        <ele>1098.44</ele>
        <time>2016-04-29T09:44:54Z</time>
      </trkpt>
      <trkpt lat="45.03905" lon="5.53709">
        <ele>1095.56</ele>
        <time>2016-04-29T09:45:04Z</time>
      </trkpt>
      <trkpt lat="45.03875" lon="5.53677">
        <ele>1092.2</ele>
        <time>2016-04-29T09:45:12Z</time>
      </trkpt>
      <trkpt lat="45.03864" lon="5.53665">
        <ele>1091.71</ele>
        <time>2016-04-29T09:45:14Z</time>
      </trkpt>
      <trkpt lat="45.03824" lon="5.53618">
        <ele>1092.68</ele>
        <time>2016-04-29T09:45:25Z</time>
      </trkpt>
      <trkpt lat="45.03767" lon="5.53559">
        <ele>1091.71</ele>
        <time>2016-04-29T09:45:41Z</time>
      </trkpt>
      <trkpt lat="45.03759" lon="5.53553">
        <ele>1091.71</ele>
        <time>2016-04-29T09:45:43Z</time>
      </trkpt>
      <trkpt lat="45.03738" lon="5.53537">
        <ele>1091.23</ele>
        <time>2016-04-29T09:45:48Z</time>
      </trkpt>
      <trkpt lat="45.03719" lon="5.53519">
        <ele>1091.71</ele>
        <time>2016-04-29T09:45:53Z</time>
      </trkpt>
      <trkpt lat="45.03708" lon="5.53509">
        <ele>1091.71</ele>
        <time>2016-04-29T09:45:56Z</time>
      </trkpt>
      <trkpt lat="45.03704" lon="5.53505">
        <ele>1091.71</ele>
        <time>2016-04-29T09:45:57Z</time>
      </trkpt>
      <trkpt lat="45.03697" lon="5.53497">
        <ele>1091.23</ele>
        <time>2016-04-29T09:45:59Z</time>
      </trkpt>
      <trkpt lat="45.03694" lon="5.53492">
        <ele>1090.75</ele>
        <time>2016-04-29T09:46:00Z</time>
      </trkpt>
      <trkpt lat="45.03692" lon="5.53487">
        <ele>1090.75</ele>
        <time>2016-04-29T09:46:01Z</time>
      </trkpt>
      <trkpt lat="45.03689" lon="5.53481">
        <ele>1090.75</ele>
        <time>2016-04-29T09:46:02Z</time>
      </trkpt>
      <trkpt lat="45.03686" lon="5.53477">
        <ele>1090.75</ele>
        <time>2016-04-29T09:46:03Z</time>
      </trkpt>
      <trkpt lat="45.03683" lon="5.53472">
        <ele>1090.75</ele>
        <time>2016-04-29T09:46:04Z</time>
      </trkpt>
      <trkpt lat="45.0368" lon="5.53467">
        <ele>1090.75</ele>
        <time>2016-04-29T09:46:05Z</time>
      </trkpt>
      <trkpt lat="45.03663" lon="5.53438">
        <ele>1090.27</ele>
        <time>2016-04-29T09:46:11Z</time>
      </trkpt>
      <trkpt lat="45.03642" lon="5.53407">
        <ele>1089.31</ele>
        <time>2016-04-29T09:46:17Z</time>
      </trkpt>
      <trkpt lat="45.03631" lon="5.53396">
        <ele>1089.79</ele>
        <time>2016-04-29T09:46:20Z</time>
      </trkpt>
      <trkpt lat="45.03599" lon="5.53376">
        <ele>1090.27</ele>
        <time>2016-04-29T09:46:30Z</time>
      </trkpt>
      <trkpt lat="45.03555" lon="5.53365">
        <ele>1086.91</ele>
        <time>2016-04-29T09:46:41Z</time>
      </trkpt>
      <trkpt lat="45.03551" lon="5.53364">
        <ele>1094.12</ele>
        <time>2016-04-29T09:46:42Z</time>
      </trkpt>
      <trkpt lat="45.03547" lon="5.53363">
        <ele>1090.75</ele>
        <time>2016-04-29T09:46:43Z</time>
      </trkpt>
      <trkpt lat="45.03539" lon="5.53361">
        <ele>1083.06</ele>
        <time>2016-04-29T09:46:45Z</time>
      </trkpt>
      <trkpt lat="45.03536" lon="5.5336">
        <ele>1089.31</ele>
        <time>2016-04-29T09:46:46Z</time>
      </trkpt>
      <trkpt lat="45.03528" lon="5.53358">
        <ele>1090.75</ele>
        <time>2016-04-29T09:46:48Z</time>
      </trkpt>
      <trkpt lat="45.0349" lon="5.53348">
        <ele>1094.12</ele>
        <time>2016-04-29T09:46:58Z</time>
      </trkpt>
      <trkpt lat="45.03486" lon="5.53347">
        <ele>1091.23</ele>
        <time>2016-04-29T09:46:59Z</time>
      </trkpt>
      <trkpt lat="45.03475" lon="5.53342">
        <ele>1095.56</ele>
        <time>2016-04-29T09:47:02Z</time>
      </trkpt>
      <trkpt lat="45.03472" lon="5.5334">
        <ele>1091.71</ele>
        <time>2016-04-29T09:47:03Z</time>
      </trkpt>
      <trkpt lat="45.03419" lon="5.533">
        <ele>1092.68</ele>
        <time>2016-04-29T09:47:20Z</time>
      </trkpt>
      <trkpt lat="45.03376" lon="5.53248">
        <ele>1094.12</ele>
        <time>2016-04-29T09:47:37Z</time>
      </trkpt>
      <trkpt lat="45.03354" lon="5.53198">
        <ele>1089.31</ele>
        <time>2016-04-29T09:47:50Z</time>
      </trkpt>
      <trkpt lat="45.03353" lon="5.53193">
        <ele>1097</ele>
        <time>2016-04-29T09:47:51Z</time>
      </trkpt>
      <trkpt lat="45.03349" lon="5.53181">
        <ele>1094.6</ele>
        <time>2016-04-29T09:47:54Z</time>
      </trkpt>
      <trkpt lat="45.03343" lon="5.5315">
        <ele>1098.92</ele>
        <time>2016-04-29T09:48:01Z</time>
      </trkpt>
      <trkpt lat="45.03343" lon="5.53145">
        <ele>1095.08</ele>
        <time>2016-04-29T09:48:02Z</time>
      </trkpt>
      <trkpt lat="45.03336" lon="5.53111">
        <ele>1088.83</ele>
        <time>2016-04-29T09:48:09Z</time>
      </trkpt>
      <trkpt lat="45.03335" lon="5.53106">
        <ele>1100.37</ele>
        <time>2016-04-29T09:48:10Z</time>
      </trkpt>
      <trkpt lat="45.03334" lon="5.53101">
        <ele>1094.6</ele>
        <time>2016-04-29T09:48:11Z</time>
      </trkpt>
      <trkpt lat="45.03327" lon="5.53043">
        <ele>1093.64</ele>
        <time>2016-04-29T09:48:22Z</time>
      </trkpt>
      <trkpt lat="45.03331" lon="5.52976">
        <ele>1094.12</ele>
        <time>2016-04-29T09:48:35Z</time>
      </trkpt>
      <trkpt lat="45.03325" lon="5.52901">
        <ele>1096.04</ele>
        <time>2016-04-29T09:48:50Z</time>
      </trkpt>
      <trkpt lat="45.03314" lon="5.52805">
        <ele>1097.48</ele>
        <time>2016-04-29T09:49:09Z</time>
      </trkpt>
      <trkpt lat="45.03289" lon="5.52757">
        <ele>1098.92</ele>
        <time>2016-04-29T09:49:21Z</time>
      </trkpt>
      <trkpt lat="45.0325" lon="5.52743">
        <ele>1100.85</ele>
        <time>2016-04-29T09:49:35Z</time>
      </trkpt>
      <trkpt lat="45.03214" lon="5.52739">
        <ele>1103.25</ele>
        <time>2016-04-29T09:49:48Z</time>
      </trkpt>
      <trkpt lat="45.03173" lon="5.52717">
        <ele>1105.17</ele>
        <time>2016-04-29T09:50:03Z</time>
      </trkpt>
      <trkpt lat="45.03131" lon="5.5267">
        <ele>1106.13</ele>
        <time>2016-04-29T09:50:19Z</time>
      </trkpt>
      <trkpt lat="45.03093" lon="5.52648">
        <ele>1107.1</ele>
        <time>2016-04-29T09:50:32Z</time>
      </trkpt>
      <trkpt lat="45.03038" lon="5.5261">
        <ele>1108.06</ele>
        <time>2016-04-29T09:50:50Z</time>
      </trkpt>
      <trkpt lat="45.03007" lon="5.5257">
        <ele>1107.58</ele>
        <time>2016-04-29T09:51:04Z</time>
      </trkpt>
      <trkpt lat="45.02974" lon="5.52515">
        <ele>1107.58</ele>
        <time>2016-04-29T09:51:20Z</time>
      </trkpt>
      <trkpt lat="45.02946" lon="5.52466">
        <ele>1109.5</ele>
        <time>2016-04-29T09:51:35Z</time>
      </trkpt>
      <trkpt lat="45.02919" lon="5.52417">
        <ele>1111.42</ele>
        <time>2016-04-29T09:51:49Z</time>
      </trkpt>
      <trkpt lat="45.0291" lon="5.52399">
        <ele>1115.75</ele>
        <time>2016-04-29T09:51:54Z</time>
      </trkpt>
      <trkpt lat="45.02908" lon="5.52395">
        <ele>1112.38</ele>
        <time>2016-04-29T09:51:55Z</time>
      </trkpt>
      <trkpt lat="45.02897" lon="5.52371">
        <ele>1108.54</ele>
        <time>2016-04-29T09:52:01Z</time>
      </trkpt>
      <trkpt lat="45.02895" lon="5.52368">
        <ele>1118.15</ele>
        <time>2016-04-29T09:52:02Z</time>
      </trkpt>
      <trkpt lat="45.02893" lon="5.52364">
        <ele>1112.86</ele>
        <time>2016-04-29T09:52:03Z</time>
      </trkpt>
      <trkpt lat="45.02867" lon="5.52308">
        <ele>1113.34</ele>
        <time>2016-04-29T09:52:18Z</time>
      </trkpt>
      <trkpt lat="45.02865" lon="5.52304">
        <ele>1107.58</ele>
        <time>2016-04-29T09:52:19Z</time>
      </trkpt>
      <trkpt lat="45.02863" lon="5.523">
        <ele>1111.9</ele>
        <time>2016-04-29T09:52:20Z</time>
      </trkpt>
      <trkpt lat="45.02861" lon="5.52296">
        <ele>1120.07</ele>
        <time>2016-04-29T09:52:21Z</time>
      </trkpt>
      <trkpt lat="45.02859" lon="5.52292">
        <ele>1113.82</ele>
        <time>2016-04-29T09:52:22Z</time>
      </trkpt>
      <trkpt lat="45.02826" lon="5.52235">
        <ele>1113.82</ele>
        <time>2016-04-29T09:52:38Z</time>
      </trkpt>
      <trkpt lat="45.02815" lon="5.52216">
        <ele>1110.94</ele>
        <time>2016-04-29T09:52:43Z</time>
      </trkpt>
      <trkpt lat="45.02813" lon="5.52212">
        <ele>1115.27</ele>
        <time>2016-04-29T09:52:44Z</time>
      </trkpt>
      <trkpt lat="45.02776" lon="5.52162">
        <ele>1114.31</ele>
        <time>2016-04-29T09:52:59Z</time>
      </trkpt>
      <trkpt lat="45.0274" lon="5.52121">
        <ele>1118.63</ele>
        <time>2016-04-29T09:53:13Z</time>
      </trkpt>
      <trkpt lat="45.02731" lon="5.52109">
        <ele>1114.31</ele>
        <time>2016-04-29T09:53:17Z</time>
      </trkpt>
      <trkpt lat="45.02729" lon="5.52106">
        <ele>1121.03</ele>
        <time>2016-04-29T09:53:18Z</time>
      </trkpt>
      <trkpt lat="45.02727" lon="5.52103">
        <ele>1115.75</ele>
        <time>2016-04-29T09:53:19Z</time>
      </trkpt>
      <trkpt lat="45.02701" lon="5.52082">
        <ele>1122</ele>
        <time>2016-04-29T09:53:29Z</time>
      </trkpt>
      <trkpt lat="45.02698" lon="5.52081">
        <ele>1118.63</ele>
        <time>2016-04-29T09:53:30Z</time>
      </trkpt>
      <trkpt lat="45.02655" lon="5.52065">
        <ele>1120.55</ele>
        <time>2016-04-29T09:53:44Z</time>
      </trkpt>
      <trkpt lat="45.02631" lon="5.52033">
        <ele>1122</ele>
        <time>2016-04-29T09:53:55Z</time>
      </trkpt>
      <trkpt lat="45.02613" lon="5.51985">
        <ele>1124.4</ele>
        <time>2016-04-29T09:54:10Z</time>
      </trkpt>
      <trkpt lat="45.02602" lon="5.51941">
        <ele>1124.88</ele>
        <time>2016-04-29T09:54:22Z</time>
      </trkpt>
      <trkpt lat="45.02581" lon="5.5189">
        <ele>1126.32</ele>
        <time>2016-04-29T09:54:38Z</time>
      </trkpt>
      <trkpt lat="45.02566" lon="5.51865">
        <ele>1128.73</ele>
        <time>2016-04-29T09:54:49Z</time>
      </trkpt>
      <trkpt lat="45.02546" lon="5.51849">
        <ele>1131.61</ele>
        <time>2016-04-29T09:55:02Z</time>
      </trkpt>
      <trkpt lat="45.02535" lon="5.51829">
        <ele>1134.01</ele>
        <time>2016-04-29T09:55:14Z</time>
      </trkpt>
      <trkpt lat="45.0253" lon="5.51821">
        <ele>1135.45</ele>
        <time>2016-04-29T09:55:20Z</time>
      </trkpt>
      <trkpt lat="45.02529" lon="5.5182">
        <ele>1135.45</ele>
        <time>2016-04-29T09:55:21Z</time>
      </trkpt>
      <trkpt lat="45.02528" lon="5.51814">
        <ele>1136.9</ele>
        <time>2016-04-29T09:55:24Z</time>
      </trkpt>
      <trkpt lat="45.02527" lon="5.51813">
        <ele>1136.9</ele>
        <time>2016-04-29T09:55:25Z</time>
      </trkpt>
      <trkpt lat="45.02526" lon="5.51811">
        <ele>1137.38</ele>
        <time>2016-04-29T09:55:26Z</time>
      </trkpt>
      <trkpt lat="45.02521" lon="5.51807">
        <ele>1137.86</ele>
        <time>2016-04-29T09:55:31Z</time>
      </trkpt>
      <trkpt lat="45.0252" lon="5.51805">
        <ele>1137.86</ele>
        <time>2016-04-29T09:55:32Z</time>
      </trkpt>
      <trkpt lat="45.02519" lon="5.51804">
        <ele>1137.86</ele>
        <time>2016-04-29T09:55:33Z</time>
      </trkpt>
      <trkpt lat="45.02518" lon="5.51802">
        <ele>1138.34</ele>
        <time>2016-04-29T09:55:34Z</time>
      </trkpt>
      <trkpt lat="45.02517" lon="5.518">
        <ele>1137.86</ele>
        <time>2016-04-29T09:55:35Z</time>
      </trkpt>
      <trkpt lat="45.02516" lon="5.51798">
        <ele>1137.86</ele>
        <time>2016-04-29T09:55:36Z</time>
      </trkpt>
      <trkpt lat="45.02515" lon="5.51796">
        <ele>1138.34</ele>
        <time>2016-04-29T09:55:37Z</time>
      </trkpt>
      <trkpt lat="45.025" lon="5.51784">
        <ele>1139.3</ele>
        <time>2016-04-29T09:55:49Z</time>
      </trkpt>
      <trkpt lat="45.02499" lon="5.51783">
        <ele>1139.78</ele>
        <time>2016-04-29T09:55:50Z</time>
      </trkpt>
      <trkpt lat="45.02478" lon="5.51774">
        <ele>1141.22</ele>
        <time>2016-04-29T09:56:03Z</time>
      </trkpt>
      <trkpt lat="45.02459" lon="5.51754">
        <ele>1143.63</ele>
        <time>2016-04-29T09:56:18Z</time>
      </trkpt>
      <trkpt lat="45.02453" lon="5.51744">
        <ele>1144.59</ele>
        <time>2016-04-29T09:56:24Z</time>
      </trkpt>
      <trkpt lat="45.02452" lon="5.51743">
        <ele>1145.07</ele>
        <time>2016-04-29T09:56:25Z</time>
      </trkpt>
      <trkpt lat="45.0245" lon="5.51742">
        <ele>1145.07</ele>
        <time>2016-04-29T09:56:26Z</time>
      </trkpt>
      <trkpt lat="45.02449" lon="5.5174">
        <ele>1145.55</ele>
        <time>2016-04-29T09:56:27Z</time>
      </trkpt>
      <trkpt lat="45.02448" lon="5.51738">
        <ele>1145.55</ele>
        <time>2016-04-29T09:56:28Z</time>
      </trkpt>
      <trkpt lat="45.02436" lon="5.51722">
        <ele>1147.47</ele>
        <time>2016-04-29T09:56:39Z</time>
      </trkpt>
      <trkpt lat="45.02435" lon="5.51721">
        <ele>1147.47</ele>
        <time>2016-04-29T09:56:40Z</time>
      </trkpt>
      <trkpt lat="45.02435" lon="5.51719">
        <ele>1147.95</ele>
        <time>2016-04-29T09:56:41Z</time>
      </trkpt>
      <trkpt lat="45.02434" lon="5.51717">
        <ele>1148.43</ele>
        <time>2016-04-29T09:56:42Z</time>
      </trkpt>
      <trkpt lat="45.02432" lon="5.51716">
        <ele>1148.91</ele>
        <time>2016-04-29T09:56:43Z</time>
      </trkpt>
      <trkpt lat="45.02417" lon="5.51705">
        <ele>1151.8</ele>
        <time>2016-04-29T09:56:57Z</time>
      </trkpt>
      <trkpt lat="45.02404" lon="5.51687">
        <ele>1154.68</ele>
        <time>2016-04-29T09:57:12Z</time>
      </trkpt>
      <trkpt lat="45.02394" lon="5.51664">
        <ele>1157.08</ele>
        <time>2016-04-29T09:57:27Z</time>
      </trkpt>
      <trkpt lat="45.02388" lon="5.51639">
        <ele>1159.97</ele>
        <time>2016-04-29T09:57:41Z</time>
      </trkpt>
      <trkpt lat="45.02386" lon="5.51629">
        <ele>1160.93</ele>
        <time>2016-04-29T09:57:47Z</time>
      </trkpt>
      <trkpt lat="45.02386" lon="5.51627">
        <ele>1161.41</ele>
        <time>2016-04-29T09:57:48Z</time>
      </trkpt>
      <trkpt lat="45.02386" lon="5.51624">
        <ele>1161.89</ele>
        <time>2016-04-29T09:57:50Z</time>
      </trkpt>
      <trkpt lat="45.02385" lon="5.51605">
        <ele>1164.77</ele>
        <time>2016-04-29T09:58:03Z</time>
      </trkpt>
      <trkpt lat="45.02384" lon="5.51602">
        <ele>1164.77</ele>
        <time>2016-04-29T09:58:05Z</time>
      </trkpt>
      <trkpt lat="45.0238" lon="5.51596">
        <ele>1165.74</ele>
        <time>2016-04-29T09:58:15Z</time>
      </trkpt>
      <trkpt lat="45.02381" lon="5.51595">
        <ele>1165.74</ele>
        <time>2016-04-29T09:58:36Z</time>
      </trkpt>
      <trkpt lat="45.02381" lon="5.51596">
        <ele>1165.74</ele>
        <time>2016-04-29T09:59:04Z</time>
      </trkpt>
      <trkpt lat="45.02378" lon="5.51599">
        <ele>1165.74</ele>
        <time>2016-04-29T09:59:17Z</time>
      </trkpt>
      <trkpt lat="45.02378" lon="5.51601">
        <ele>1165.74</ele>
        <time>2016-04-29T09:59:18Z</time>
      </trkpt>
      <trkpt lat="45.02379" lon="5.51602">
        <ele>1165.26</ele>
        <time>2016-04-29T09:59:19Z</time>
      </trkpt>
      <trkpt lat="45.02381" lon="5.51603">
        <ele>1165.26</ele>
        <time>2016-04-29T09:59:20Z</time>
      </trkpt>
      <trkpt lat="45.02382" lon="5.51604">
        <ele>1165.26</ele>
        <time>2016-04-29T09:59:21Z</time>
      </trkpt>
      <trkpt lat="45.02384" lon="5.51603">
        <ele>1165.26</ele>
        <time>2016-04-29T09:59:22Z</time>
      </trkpt>
      <trkpt lat="45.02386" lon="5.51602">
        <ele>1165.26</ele>
        <time>2016-04-29T09:59:23Z</time>
      </trkpt>
      <trkpt lat="45.02387" lon="5.516">
        <ele>1165.26</ele>
        <time>2016-04-29T09:59:24Z</time>
      </trkpt>
      <trkpt lat="45.02391" lon="5.51596">
        <ele>1165.74</ele>
        <time>2016-04-29T09:59:27Z</time>
      </trkpt>
      <trkpt lat="45.02393" lon="5.51596">
        <ele>1166.22</ele>
        <time>2016-04-29T09:59:28Z</time>
      </trkpt>
      <trkpt lat="45.02413" lon="5.51593">
        <ele>1168.62</ele>
        <time>2016-04-29T09:59:39Z</time>
      </trkpt>
      <trkpt lat="45.02427" lon="5.51581">
        <ele>1170.06</ele>
        <time>2016-04-29T09:59:49Z</time>
      </trkpt>
      <trkpt lat="45.02445" lon="5.5157">
        <ele>1171.02</ele>
        <time>2016-04-29T10:00:02Z</time>
      </trkpt>
      <trkpt lat="45.02462" lon="5.51563">
        <ele>1171.98</ele>
        <time>2016-04-29T10:00:13Z</time>
      </trkpt>
      <trkpt lat="45.02488" lon="5.51557">
        <ele>1174.39</ele>
        <time>2016-04-29T10:00:28Z</time>
      </trkpt>
      <trkpt lat="45.02513" lon="5.51552">
        <ele>1176.79</ele>
        <time>2016-04-29T10:00:44Z</time>
      </trkpt>
      <trkpt lat="45.02537" lon="5.51542">
        <ele>1179.19</ele>
        <time>2016-04-29T10:01:00Z</time>
      </trkpt>
      <trkpt lat="45.0256" lon="5.51533">
        <ele>1181.6</ele>
        <time>2016-04-29T10:01:16Z</time>
      </trkpt>
      <trkpt lat="45.02584" lon="5.51524">
        <ele>1183.04</ele>
        <time>2016-04-29T10:01:30Z</time>
      </trkpt>
      <trkpt lat="45.0261" lon="5.51516">
        <ele>1185.44</ele>
        <time>2016-04-29T10:01:44Z</time>
      </trkpt>
      <trkpt lat="45.0263" lon="5.51513">
        <ele>1186.88</ele>
        <time>2016-04-29T10:01:55Z</time>
      </trkpt>
      <trkpt lat="45.02653" lon="5.51509">
        <ele>1187.37</ele>
        <time>2016-04-29T10:02:06Z</time>
      </trkpt>
      <trkpt lat="45.02671" lon="5.51486">
        <ele>1189.29</ele>
        <time>2016-04-29T10:02:16Z</time>
      </trkpt>
      <trkpt lat="45.02677" lon="5.51477">
        <ele>1189.77</ele>
        <time>2016-04-29T10:02:20Z</time>
      </trkpt>
      <trkpt lat="45.02678" lon="5.51474">
        <ele>1189.77</ele>
        <time>2016-04-29T10:02:21Z</time>
      </trkpt>
      <trkpt lat="45.02679" lon="5.51472">
        <ele>1190.25</ele>
        <time>2016-04-29T10:02:22Z</time>
      </trkpt>
      <trkpt lat="45.0268" lon="5.5147">
        <ele>1190.25</ele>
        <time>2016-04-29T10:02:23Z</time>
      </trkpt>
      <trkpt lat="45.02681" lon="5.51468">
        <ele>1190.25</ele>
        <time>2016-04-29T10:02:24Z</time>
      </trkpt>
      <trkpt lat="45.02682" lon="5.51466">
        <ele>1190.25</ele>
        <time>2016-04-29T10:02:25Z</time>
      </trkpt>
      <trkpt lat="45.02683" lon="5.51463">
        <ele>1190.25</ele>
        <time>2016-04-29T10:02:26Z</time>
      </trkpt>
      <trkpt lat="45.02695" lon="5.51435">
        <ele>1192.65</ele>
        <time>2016-04-29T10:02:38Z</time>
      </trkpt>
      <trkpt lat="45.02709" lon="5.51409">
        <ele>1195.06</ele>
        <time>2016-04-29T10:02:51Z</time>
      </trkpt>
      <trkpt lat="45.02721" lon="5.51389">
        <ele>1196.02</ele>
        <time>2016-04-29T10:03:02Z</time>
      </trkpt>
      <trkpt lat="45.02736" lon="5.51366">
        <ele>1197.94</ele>
        <time>2016-04-29T10:03:15Z</time>
      </trkpt>
      <trkpt lat="45.02743" lon="5.51357">
        <ele>1199.38</ele>
        <time>2016-04-29T10:03:21Z</time>
      </trkpt>
      <trkpt lat="45.02744" lon="5.51356">
        <ele>1199.86</ele>
        <time>2016-04-29T10:03:22Z</time>
      </trkpt>
      <trkpt lat="45.02746" lon="5.51355">
        <ele>1199.86</ele>
        <time>2016-04-29T10:03:23Z</time>
      </trkpt>
      <trkpt lat="45.02747" lon="5.51354">
        <ele>1200.34</ele>
        <time>2016-04-29T10:03:24Z</time>
      </trkpt>
      <trkpt lat="45.02748" lon="5.51353">
        <ele>1200.34</ele>
        <time>2016-04-29T10:03:25Z</time>
      </trkpt>
      <trkpt lat="45.0275" lon="5.51352">
        <ele>1200.34</ele>
        <time>2016-04-29T10:03:26Z</time>
      </trkpt>
      <trkpt lat="45.02752" lon="5.5135">
        <ele>1200.82</ele>
        <time>2016-04-29T10:03:27Z</time>
      </trkpt>
      <trkpt lat="45.02772" lon="5.51317">
        <ele>1199.86</ele>
        <time>2016-04-29T10:03:40Z</time>
      </trkpt>
      <trkpt lat="45.02775" lon="5.51312">
        <ele>1199.86</ele>
        <time>2016-04-29T10:03:41Z</time>
      </trkpt>
      <trkpt lat="45.02778" lon="5.51307">
        <ele>1199.38</ele>
        <time>2016-04-29T10:03:42Z</time>
      </trkpt>
      <trkpt lat="45.0278" lon="5.51301">
        <ele>1198.9</ele>
        <time>2016-04-29T10:03:43Z</time>
      </trkpt>
      <trkpt lat="45.02802" lon="5.51256">
        <ele>1200.34</ele>
        <time>2016-04-29T10:03:54Z</time>
      </trkpt>
      <trkpt lat="45.02808" lon="5.51233">
        <ele>1205.15</ele>
        <time>2016-04-29T10:04:01Z</time>
      </trkpt>
      <trkpt lat="45.02809" lon="5.5123">
        <ele>1201.3</ele>
        <time>2016-04-29T10:04:02Z</time>
      </trkpt>
      <trkpt lat="45.02823" lon="5.51196">
        <ele>1202.27</ele>
        <time>2016-04-29T10:04:14Z</time>
      </trkpt>
      <trkpt lat="45.02848" lon="5.5118">
        <ele>1203.23</ele>
        <time>2016-04-29T10:04:26Z</time>
      </trkpt>
      <trkpt lat="45.02875" lon="5.51168">
        <ele>1204.67</ele>
        <time>2016-04-29T10:04:38Z</time>
      </trkpt>
      <trkpt lat="45.02899" lon="5.51151">
        <ele>1205.63</ele>
        <time>2016-04-29T10:04:50Z</time>
      </trkpt>
      <trkpt lat="45.02925" lon="5.51134">
        <ele>1207.07</ele>
        <time>2016-04-29T10:05:02Z</time>
      </trkpt>
      <trkpt lat="45.02951" lon="5.51106">
        <ele>1209</ele>
        <time>2016-04-29T10:05:15Z</time>
      </trkpt>
      <trkpt lat="45.02965" lon="5.51073">
        <ele>1210.92</ele>
        <time>2016-04-29T10:05:26Z</time>
      </trkpt>
      <trkpt lat="45.02977" lon="5.51032">
        <ele>1211.88</ele>
        <time>2016-04-29T10:05:38Z</time>
      </trkpt>
      <trkpt lat="45.02984" lon="5.50988">
        <ele>1212.36</ele>
        <time>2016-04-29T10:05:50Z</time>
      </trkpt>
      <trkpt lat="45.02994" lon="5.50959">
        <ele>1209.96</ele>
        <time>2016-04-29T10:05:56Z</time>
      </trkpt>
      <trkpt lat="45.02997" lon="5.50952">
        <ele>1209.48</ele>
        <time>2016-04-29T10:05:57Z</time>
      </trkpt>
      <trkpt lat="45.03024" lon="5.50899">
        <ele>1210.44</ele>
        <time>2016-04-29T10:06:07Z</time>
      </trkpt>
      <trkpt lat="45.03039" lon="5.50863">
        <ele>1213.8</ele>
        <time>2016-04-29T10:06:20Z</time>
      </trkpt>
      <trkpt lat="45.0306" lon="5.50819">
        <ele>1216.69</ele>
        <time>2016-04-29T10:06:37Z</time>
      </trkpt>
      <trkpt lat="45.03078" lon="5.50787">
        <ele>1218.61</ele>
        <time>2016-04-29T10:06:50Z</time>
      </trkpt>
      <trkpt lat="45.03081" lon="5.50741">
        <ele>1220.53</ele>
        <time>2016-04-29T10:07:04Z</time>
      </trkpt>
      <trkpt lat="45.03081" lon="5.50728">
        <ele>1220.53</ele>
        <time>2016-04-29T10:07:08Z</time>
      </trkpt>
      <trkpt lat="45.03081" lon="5.50724">
        <ele>1220.53</ele>
        <time>2016-04-29T10:07:09Z</time>
      </trkpt>
      <trkpt lat="45.03089" lon="5.50667">
        <ele>1219.57</ele>
        <time>2016-04-29T10:07:21Z</time>
      </trkpt>
      <trkpt lat="45.03106" lon="5.50633">
        <ele>1222.45</ele>
        <time>2016-04-29T10:07:34Z</time>
      </trkpt>
      <trkpt lat="45.03108" lon="5.50631">
        <ele>1222.45</ele>
        <time>2016-04-29T10:07:36Z</time>
      </trkpt>
      <trkpt lat="45.0311" lon="5.5063">
        <ele>1222.93</ele>
        <time>2016-04-29T10:07:37Z</time>
      </trkpt>
      <trkpt lat="45.03111" lon="5.50629">
        <ele>1222.93</ele>
        <time>2016-04-29T10:07:38Z</time>
      </trkpt>
      <trkpt lat="45.03113" lon="5.50628">
        <ele>1222.93</ele>
        <time>2016-04-29T10:07:39Z</time>
      </trkpt>
      <trkpt lat="45.03114" lon="5.50626">
        <ele>1223.42</ele>
        <time>2016-04-29T10:07:40Z</time>
      </trkpt>
      <trkpt lat="45.03119" lon="5.50623">
        <ele>1223.9</ele>
        <time>2016-04-29T10:07:43Z</time>
      </trkpt>
      <trkpt lat="45.0312" lon="5.50621">
        <ele>1223.9</ele>
        <time>2016-04-29T10:07:44Z</time>
      </trkpt>
      <trkpt lat="45.03122" lon="5.5062">
        <ele>1223.9</ele>
        <time>2016-04-29T10:07:45Z</time>
      </trkpt>
      <trkpt lat="45.03123" lon="5.50618">
        <ele>1224.38</ele>
        <time>2016-04-29T10:07:46Z</time>
      </trkpt>
      <trkpt lat="45.03125" lon="5.50616">
        <ele>1224.38</ele>
        <time>2016-04-29T10:07:47Z</time>
      </trkpt>
      <trkpt lat="45.03144" lon="5.50594">
        <ele>1226.3</ele>
        <time>2016-04-29T10:08:01Z</time>
      </trkpt>
      <trkpt lat="45.03151" lon="5.50586">
        <ele>1227.26</ele>
        <time>2016-04-29T10:08:06Z</time>
      </trkpt>
      <trkpt lat="45.03152" lon="5.50585">
        <ele>1227.74</ele>
        <time>2016-04-29T10:08:07Z</time>
      </trkpt>
      <trkpt lat="45.03155" lon="5.50582">
        <ele>1228.7</ele>
        <time>2016-04-29T10:08:11Z</time>
      </trkpt>
      <trkpt lat="45.03156" lon="5.50581">
        <ele>1228.7</ele>
        <time>2016-04-29T10:08:12Z</time>
      </trkpt>
      <trkpt lat="45.03157" lon="5.5058">
        <ele>1229.18</ele>
        <time>2016-04-29T10:08:13Z</time>
      </trkpt>
      <trkpt lat="45.03159" lon="5.50579">
        <ele>1229.18</ele>
        <time>2016-04-29T10:08:14Z</time>
      </trkpt>
      <trkpt lat="45.0316" lon="5.50579">
        <ele>1229.18</ele>
        <time>2016-04-29T10:08:15Z</time>
      </trkpt>
      <trkpt lat="45.03162" lon="5.50578">
        <ele>1229.18</ele>
        <time>2016-04-29T10:08:16Z</time>
      </trkpt>
      <trkpt lat="45.03163" lon="5.50577">
        <ele>1229.18</ele>
        <time>2016-04-29T10:08:17Z</time>
      </trkpt>
      <trkpt lat="45.03181" lon="5.50562">
        <ele>1231.11</ele>
        <time>2016-04-29T10:08:29Z</time>
      </trkpt>
      <trkpt lat="45.03193" lon="5.50552">
        <ele>1233.03</ele>
        <time>2016-04-29T10:08:39Z</time>
      </trkpt>
      <trkpt lat="45.03194" lon="5.5055">
        <ele>1233.03</ele>
        <time>2016-04-29T10:08:40Z</time>
      </trkpt>
      <trkpt lat="45.0321" lon="5.50533">
        <ele>1235.91</ele>
        <time>2016-04-29T10:08:54Z</time>
      </trkpt>
      <trkpt lat="45.03211" lon="5.50531">
        <ele>1236.39</ele>
        <time>2016-04-29T10:08:55Z</time>
      </trkpt>
      <trkpt lat="45.03212" lon="5.50529">
        <ele>1236.87</ele>
        <time>2016-04-29T10:08:56Z</time>
      </trkpt>
      <trkpt lat="45.03213" lon="5.50528">
        <ele>1236.87</ele>
        <time>2016-04-29T10:08:57Z</time>
      </trkpt>
      <trkpt lat="45.03214" lon="5.50526">
        <ele>1236.87</ele>
        <time>2016-04-29T10:08:58Z</time>
      </trkpt>
      <trkpt lat="45.03214" lon="5.50524">
        <ele>1237.35</ele>
        <time>2016-04-29T10:08:59Z</time>
      </trkpt>
      <trkpt lat="45.03215" lon="5.50522">
        <ele>1237.35</ele>
        <time>2016-04-29T10:09:00Z</time>
      </trkpt>
      <trkpt lat="45.03216" lon="5.5052">
        <ele>1237.35</ele>
        <time>2016-04-29T10:09:01Z</time>
      </trkpt>
      <trkpt lat="45.03217" lon="5.50519">
        <ele>1237.83</ele>
        <time>2016-04-29T10:09:02Z</time>
      </trkpt>
      <trkpt lat="45.03217" lon="5.50516">
        <ele>1238.32</ele>
        <time>2016-04-29T10:09:03Z</time>
      </trkpt>
      <trkpt lat="45.03218" lon="5.50514">
        <ele>1238.32</ele>
        <time>2016-04-29T10:09:04Z</time>
      </trkpt>
      <trkpt lat="45.03219" lon="5.50508">
        <ele>1238.8</ele>
        <time>2016-04-29T10:09:07Z</time>
      </trkpt>
      <trkpt lat="45.0322" lon="5.50507">
        <ele>1239.28</ele>
        <time>2016-04-29T10:09:08Z</time>
      </trkpt>
      <trkpt lat="45.03221" lon="5.50505">
        <ele>1239.28</ele>
        <time>2016-04-29T10:09:09Z</time>
      </trkpt>
      <trkpt lat="45.03222" lon="5.50503">
        <ele>1239.76</ele>
        <time>2016-04-29T10:09:10Z</time>
      </trkpt>
      <trkpt lat="45.03222" lon="5.50501">
        <ele>1239.76</ele>
        <time>2016-04-29T10:09:11Z</time>
      </trkpt>
      <trkpt lat="45.03237" lon="5.50481">
        <ele>1242.64</ele>
        <time>2016-04-29T10:09:25Z</time>
      </trkpt>
      <trkpt lat="45.03253" lon="5.50474">
        <ele>1244.56</ele>
        <time>2016-04-29T10:09:37Z</time>
      </trkpt>
      <trkpt lat="45.03266" lon="5.50468">
        <ele>1245.53</ele>
        <time>2016-04-29T10:09:47Z</time>
      </trkpt>
      <trkpt lat="45.03285" lon="5.50459">
        <ele>1247.93</ele>
        <time>2016-04-29T10:09:59Z</time>
      </trkpt>
      <trkpt lat="45.03308" lon="5.50454">
        <ele>1249.85</ele>
        <time>2016-04-29T10:10:13Z</time>
      </trkpt>
      <trkpt lat="45.03322" lon="5.50449">
        <ele>1252.74</ele>
        <time>2016-04-29T10:10:24Z</time>
      </trkpt>
      <trkpt lat="45.03329" lon="5.50439">
        <ele>1254.18</ele>
        <time>2016-04-29T10:10:31Z</time>
      </trkpt>
      <trkpt lat="45.03329" lon="5.50437">
        <ele>1254.18</ele>
        <time>2016-04-29T10:10:32Z</time>
      </trkpt>
      <trkpt lat="45.03329" lon="5.50436">
        <ele>1254.18</ele>
        <time>2016-04-29T10:10:33Z</time>
      </trkpt>
      <trkpt lat="45.03329" lon="5.50431">
        <ele>1254.66</ele>
        <time>2016-04-29T10:10:36Z</time>
      </trkpt>
      <trkpt lat="45.03328" lon="5.50429">
        <ele>1255.14</ele>
        <time>2016-04-29T10:10:37Z</time>
      </trkpt>
      <trkpt lat="45.03328" lon="5.50424">
        <ele>1255.62</ele>
        <time>2016-04-29T10:10:40Z</time>
      </trkpt>
      <trkpt lat="45.03327" lon="5.50422">
        <ele>1255.62</ele>
        <time>2016-04-29T10:10:41Z</time>
      </trkpt>
      <trkpt lat="45.03327" lon="5.50421">
        <ele>1253.7</ele>
        <time>2016-04-29T10:10:42Z</time>
      </trkpt>
      <trkpt lat="45.03327" lon="5.50419">
        <ele>1254.66</ele>
        <time>2016-04-29T10:10:43Z</time>
      </trkpt>
      <trkpt lat="45.03326" lon="5.50417">
        <ele>1258.02</ele>
        <time>2016-04-29T10:10:44Z</time>
      </trkpt>
      <trkpt lat="45.03326" lon="5.50415">
        <ele>1256.1</ele>
        <time>2016-04-29T10:10:45Z</time>
      </trkpt>
      <trkpt lat="45.03325" lon="5.50412">
        <ele>1256.58</ele>
        <time>2016-04-29T10:10:47Z</time>
      </trkpt>
      <trkpt lat="45.03324" lon="5.50411">
        <ele>1257.06</ele>
        <time>2016-04-29T10:10:48Z</time>
      </trkpt>
      <trkpt lat="45.03324" lon="5.50409">
        <ele>1257.06</ele>
        <time>2016-04-29T10:10:49Z</time>
      </trkpt>
      <trkpt lat="45.03324" lon="5.50408">
        <ele>1257.06</ele>
        <time>2016-04-29T10:10:50Z</time>
      </trkpt>
      <trkpt lat="45.03323" lon="5.50406">
        <ele>1257.54</ele>
        <time>2016-04-29T10:10:51Z</time>
      </trkpt>
      <trkpt lat="45.03323" lon="5.50404">
        <ele>1257.54</ele>
        <time>2016-04-29T10:10:52Z</time>
      </trkpt>
      <trkpt lat="45.03322" lon="5.50399">
        <ele>1257.54</ele>
        <time>2016-04-29T10:10:55Z</time>
      </trkpt>
      <trkpt lat="45.03317" lon="5.50391">
        <ele>1258.5</ele>
        <time>2016-04-29T10:11:01Z</time>
      </trkpt>
      <trkpt lat="45.03316" lon="5.50389">
        <ele>1258.5</ele>
        <time>2016-04-29T10:11:02Z</time>
      </trkpt>
      <trkpt lat="45.03316" lon="5.50387">
        <ele>1258.5</ele>
        <time>2016-04-29T10:11:03Z</time>
      </trkpt>
      <trkpt lat="45.03316" lon="5.50386">
        <ele>1258.5</ele>
        <time>2016-04-29T10:11:04Z</time>
      </trkpt>
      <trkpt lat="45.03315" lon="5.50384">
        <ele>1258.98</ele>
        <time>2016-04-29T10:11:05Z</time>
      </trkpt>
      <trkpt lat="45.03314" lon="5.50382">
        <ele>1258.98</ele>
        <time>2016-04-29T10:11:06Z</time>
      </trkpt>
      <trkpt lat="45.03313" lon="5.50381">
        <ele>1258.98</ele>
        <time>2016-04-29T10:11:07Z</time>
      </trkpt>
      <trkpt lat="45.03313" lon="5.50379">
        <ele>1259.46</ele>
        <time>2016-04-29T10:11:08Z</time>
      </trkpt>
      <trkpt lat="45.03312" lon="5.50378">
        <ele>1259.46</ele>
        <time>2016-04-29T10:11:09Z</time>
      </trkpt>
      <trkpt lat="45.03304" lon="5.50359">
        <ele>1261.39</ele>
        <time>2016-04-29T10:11:20Z</time>
      </trkpt>
      <trkpt lat="45.03304" lon="5.50358">
        <ele>1261.39</ele>
        <time>2016-04-29T10:11:21Z</time>
      </trkpt>
      <trkpt lat="45.03303" lon="5.50356">
        <ele>1261.39</ele>
        <time>2016-04-29T10:11:22Z</time>
      </trkpt>
      <trkpt lat="45.033" lon="5.50347">
        <ele>1262.35</ele>
        <time>2016-04-29T10:11:28Z</time>
      </trkpt>
      <trkpt lat="45.033" lon="5.50344">
        <ele>1262.35</ele>
        <time>2016-04-29T10:11:29Z</time>
      </trkpt>
      <trkpt lat="45.033" lon="5.50342">
        <ele>1262.35</ele>
        <time>2016-04-29T10:11:30Z</time>
      </trkpt>
      <trkpt lat="45.033" lon="5.50339">
        <ele>1262.83</ele>
        <time>2016-04-29T10:11:31Z</time>
      </trkpt>
      <trkpt lat="45.033" lon="5.50337">
        <ele>1262.83</ele>
        <time>2016-04-29T10:11:32Z</time>
      </trkpt>
      <trkpt lat="45.03298" lon="5.50332">
        <ele>1263.31</ele>
        <time>2016-04-29T10:11:35Z</time>
      </trkpt>
      <trkpt lat="45.03298" lon="5.50329">
        <ele>1263.31</ele>
        <time>2016-04-29T10:11:36Z</time>
      </trkpt>
      <trkpt lat="45.03298" lon="5.50327">
        <ele>1263.79</ele>
        <time>2016-04-29T10:11:37Z</time>
      </trkpt>
      <trkpt lat="45.03298" lon="5.50324">
        <ele>1263.79</ele>
        <time>2016-04-29T10:11:38Z</time>
      </trkpt>
      <trkpt lat="45.03298" lon="5.50322">
        <ele>1263.79</ele>
        <time>2016-04-29T10:11:39Z</time>
      </trkpt>
      <trkpt lat="45.03298" lon="5.5032">
        <ele>1264.27</ele>
        <time>2016-04-29T10:11:40Z</time>
      </trkpt>
      <trkpt lat="45.03298" lon="5.50318">
        <ele>1264.27</ele>
        <time>2016-04-29T10:11:41Z</time>
      </trkpt>
      <trkpt lat="45.03299" lon="5.50316">
        <ele>1264.27</ele>
        <time>2016-04-29T10:11:42Z</time>
      </trkpt>
      <trkpt lat="45.03298" lon="5.50313">
        <ele>1264.75</ele>
        <time>2016-04-29T10:11:44Z</time>
      </trkpt>
      <trkpt lat="45.03299" lon="5.50312">
        <ele>1265.23</ele>
        <time>2016-04-29T10:11:45Z</time>
      </trkpt>
      <trkpt lat="45.033" lon="5.50311">
        <ele>1265.23</ele>
        <time>2016-04-29T10:11:46Z</time>
      </trkpt>
      <trkpt lat="45.03301" lon="5.50309">
        <ele>1265.23</ele>
        <time>2016-04-29T10:11:47Z</time>
      </trkpt>
      <trkpt lat="45.03303" lon="5.50308">
        <ele>1265.71</ele>
        <time>2016-04-29T10:11:48Z</time>
      </trkpt>
      <trkpt lat="45.03304" lon="5.50306">
        <ele>1265.71</ele>
        <time>2016-04-29T10:11:49Z</time>
      </trkpt>
      <trkpt lat="45.03307" lon="5.50302">
        <ele>1266.67</ele>
        <time>2016-04-29T10:11:52Z</time>
      </trkpt>
      <trkpt lat="45.03308" lon="5.50301">
        <ele>1266.67</ele>
        <time>2016-04-29T10:11:53Z</time>
      </trkpt>
      <trkpt lat="45.03309" lon="5.503">
        <ele>1266.67</ele>
        <time>2016-04-29T10:11:54Z</time>
      </trkpt>
      <trkpt lat="45.0331" lon="5.50299">
        <ele>1267.16</ele>
        <time>2016-04-29T10:11:55Z</time>
      </trkpt>
      <trkpt lat="45.03311" lon="5.50297">
        <ele>1267.16</ele>
        <time>2016-04-29T10:11:56Z</time>
      </trkpt>
      <trkpt lat="45.03312" lon="5.50296">
        <ele>1267.16</ele>
        <time>2016-04-29T10:11:57Z</time>
      </trkpt>
      <trkpt lat="45.03315" lon="5.50294">
        <ele>1267.64</ele>
        <time>2016-04-29T10:11:59Z</time>
      </trkpt>
      <trkpt lat="45.03317" lon="5.50293">
        <ele>1268.12</ele>
        <time>2016-04-29T10:12:00Z</time>
      </trkpt>
      <trkpt lat="45.03323" lon="5.5029">
        <ele>1268.6</ele>
        <time>2016-04-29T10:12:05Z</time>
      </trkpt>
      <trkpt lat="45.03332" lon="5.50282">
        <ele>1270.04</ele>
        <time>2016-04-29T10:12:15Z</time>
      </trkpt>
      <trkpt lat="45.0335" lon="5.50273">
        <ele>1272.44</ele>
        <time>2016-04-29T10:12:30Z</time>
      </trkpt>
      <trkpt lat="45.03364" lon="5.50268">
        <ele>1273.88</ele>
        <time>2016-04-29T10:12:41Z</time>
      </trkpt>
      <trkpt lat="45.03382" lon="5.50262">
        <ele>1276.29</ele>
        <time>2016-04-29T10:12:54Z</time>
      </trkpt>
      <trkpt lat="45.03398" lon="5.5025">
        <ele>1278.21</ele>
        <time>2016-04-29T10:13:06Z</time>
      </trkpt>
      <trkpt lat="45.03402" lon="5.50243">
        <ele>1278.69</ele>
        <time>2016-04-29T10:13:11Z</time>
      </trkpt>
      <trkpt lat="45.03403" lon="5.5024">
        <ele>1279.17</ele>
        <time>2016-04-29T10:13:13Z</time>
      </trkpt>
      <trkpt lat="45.03403" lon="5.50238">
        <ele>1279.65</ele>
        <time>2016-04-29T10:13:14Z</time>
      </trkpt>
      <trkpt lat="45.03407" lon="5.50224">
        <ele>1280.61</ele>
        <time>2016-04-29T10:13:21Z</time>
      </trkpt>
      <trkpt lat="45.03407" lon="5.50222">
        <ele>1281.09</ele>
        <time>2016-04-29T10:13:22Z</time>
      </trkpt>
      <trkpt lat="45.03408" lon="5.50221">
        <ele>1281.09</ele>
        <time>2016-04-29T10:13:23Z</time>
      </trkpt>
      <trkpt lat="45.03409" lon="5.50219">
        <ele>1281.09</ele>
        <time>2016-04-29T10:13:24Z</time>
      </trkpt>
      <trkpt lat="45.0341" lon="5.50217">
        <ele>1281.09</ele>
        <time>2016-04-29T10:13:25Z</time>
      </trkpt>
      <trkpt lat="45.03411" lon="5.50215">
        <ele>1281.09</ele>
        <time>2016-04-29T10:13:26Z</time>
      </trkpt>
      <trkpt lat="45.03411" lon="5.50213">
        <ele>1281.57</ele>
        <time>2016-04-29T10:13:27Z</time>
      </trkpt>
      <trkpt lat="45.03411" lon="5.5021">
        <ele>1281.57</ele>
        <time>2016-04-29T10:13:28Z</time>
      </trkpt>
      <trkpt lat="45.03412" lon="5.50208">
        <ele>1281.57</ele>
        <time>2016-04-29T10:13:29Z</time>
      </trkpt>
      <trkpt lat="45.03412" lon="5.50206">
        <ele>1281.57</ele>
        <time>2016-04-29T10:13:30Z</time>
      </trkpt>
      <trkpt lat="45.03413" lon="5.50205">
        <ele>1282.06</ele>
        <time>2016-04-29T10:13:31Z</time>
      </trkpt>
      <trkpt lat="45.03415" lon="5.50178">
        <ele>1284.46</ele>
        <time>2016-04-29T10:13:45Z</time>
      </trkpt>
      <trkpt lat="45.03415" lon="5.50177">
        <ele>1284.94</ele>
        <time>2016-04-29T10:13:46Z</time>
      </trkpt>
      <trkpt lat="45.03415" lon="5.50175">
        <ele>1284.94</ele>
        <time>2016-04-29T10:13:47Z</time>
      </trkpt>
      <trkpt lat="45.03415" lon="5.50173">
        <ele>1284.94</ele>
        <time>2016-04-29T10:13:48Z</time>
      </trkpt>
      <trkpt lat="45.03416" lon="5.50171">
        <ele>1285.42</ele>
        <time>2016-04-29T10:13:49Z</time>
      </trkpt>
      <trkpt lat="45.03416" lon="5.5017">
        <ele>1285.42</ele>
        <time>2016-04-29T10:13:50Z</time>
      </trkpt>
      <trkpt lat="45.03417" lon="5.50168">
        <ele>1285.9</ele>
        <time>2016-04-29T10:13:51Z</time>
      </trkpt>
      <trkpt lat="45.03424" lon="5.50151">
        <ele>1287.82</ele>
        <time>2016-04-29T10:14:02Z</time>
      </trkpt>
      <trkpt lat="45.03423" lon="5.50149">
        <ele>1287.82</ele>
        <time>2016-04-29T10:14:03Z</time>
      </trkpt>
      <trkpt lat="45.03424" lon="5.50148">
        <ele>1287.82</ele>
        <time>2016-04-29T10:14:04Z</time>
      </trkpt>
      <trkpt lat="45.03425" lon="5.50146">
        <ele>1288.3</ele>
        <time>2016-04-29T10:14:05Z</time>
      </trkpt>
      <trkpt lat="45.03425" lon="5.50145">
        <ele>1288.3</ele>
        <time>2016-04-29T10:14:06Z</time>
      </trkpt>
      <trkpt lat="45.03425" lon="5.50143">
        <ele>1288.3</ele>
        <time>2016-04-29T10:14:07Z</time>
      </trkpt>
      <trkpt lat="45.03426" lon="5.50135">
        <ele>1288.78</ele>
        <time>2016-04-29T10:14:11Z</time>
      </trkpt>
      <trkpt lat="45.03426" lon="5.50133">
        <ele>1288.78</ele>
        <time>2016-04-29T10:14:12Z</time>
      </trkpt>
      <trkpt lat="45.03427" lon="5.50131">
        <ele>1288.78</ele>
        <time>2016-04-29T10:14:13Z</time>
      </trkpt>
      <trkpt lat="45.03429" lon="5.50122">
        <ele>1289.27</ele>
        <time>2016-04-29T10:14:18Z</time>
      </trkpt>
      <trkpt lat="45.03431" lon="5.50122">
        <ele>1289.27</ele>
        <time>2016-04-29T10:14:19Z</time>
      </trkpt>
      <trkpt lat="45.03432" lon="5.50121">
        <ele>1289.27</ele>
        <time>2016-04-29T10:14:20Z</time>
      </trkpt>
      <trkpt lat="45.03433" lon="5.5012">
        <ele>1289.75</ele>
        <time>2016-04-29T10:14:21Z</time>
      </trkpt>
      <trkpt lat="45.03435" lon="5.50118">
        <ele>1289.75</ele>
        <time>2016-04-29T10:14:22Z</time>
      </trkpt>
      <trkpt lat="45.03436" lon="5.50117">
        <ele>1289.75</ele>
        <time>2016-04-29T10:14:23Z</time>
      </trkpt>
      <trkpt lat="45.03435" lon="5.50115">
        <ele>1289.75</ele>
        <time>2016-04-29T10:14:24Z</time>
      </trkpt>
      <trkpt lat="45.03436" lon="5.50113">
        <ele>1290.23</ele>
        <time>2016-04-29T10:14:25Z</time>
      </trkpt>
      <trkpt lat="45.03436" lon="5.50097">
        <ele>1292.15</ele>
        <time>2016-04-29T10:14:32Z</time>
      </trkpt>
      <trkpt lat="45.03437" lon="5.50095">
        <ele>1292.15</ele>
        <time>2016-04-29T10:14:33Z</time>
      </trkpt>
      <trkpt lat="45.03438" lon="5.50093">
        <ele>1292.15</ele>
        <time>2016-04-29T10:14:34Z</time>
      </trkpt>
      <trkpt lat="45.03443" lon="5.50067">
        <ele>1293.59</ele>
        <time>2016-04-29T10:14:46Z</time>
      </trkpt>
      <trkpt lat="45.03444" lon="5.50065">
        <ele>1293.59</ele>
        <time>2016-04-29T10:14:47Z</time>
      </trkpt>
      <trkpt lat="45.03445" lon="5.50064">
        <ele>1294.07</ele>
        <time>2016-04-29T10:14:48Z</time>
      </trkpt>
      <trkpt lat="45.03445" lon="5.50062">
        <ele>1294.07</ele>
        <time>2016-04-29T10:14:49Z</time>
      </trkpt>
      <trkpt lat="45.03446" lon="5.5006">
        <ele>1294.07</ele>
        <time>2016-04-29T10:14:50Z</time>
      </trkpt>
      <trkpt lat="45.03446" lon="5.50058">
        <ele>1294.55</ele>
        <time>2016-04-29T10:14:51Z</time>
      </trkpt>
      <trkpt lat="45.03446" lon="5.50056">
        <ele>1294.55</ele>
        <time>2016-04-29T10:14:52Z</time>
      </trkpt>
      <trkpt lat="45.03447" lon="5.50054">
        <ele>1294.55</ele>
        <time>2016-04-29T10:14:53Z</time>
      </trkpt>
      <trkpt lat="45.03447" lon="5.50052">
        <ele>1295.03</ele>
        <time>2016-04-29T10:14:54Z</time>
      </trkpt>
      <trkpt lat="45.03456" lon="5.5003">
        <ele>1297.44</ele>
        <time>2016-04-29T10:15:06Z</time>
      </trkpt>
      <trkpt lat="45.03466" lon="5.50016">
        <ele>1299.36</ele>
        <time>2016-04-29T10:15:17Z</time>
      </trkpt>
      <trkpt lat="45.03469" lon="5.50012">
        <ele>1298.88</ele>
        <time>2016-04-29T10:15:22Z</time>
      </trkpt>
      <trkpt lat="45.03472" lon="5.50008">
        <ele>1298.4</ele>
        <time>2016-04-29T10:15:24Z</time>
      </trkpt>
      <trkpt lat="45.03474" lon="5.50005">
        <ele>1298.4</ele>
        <time>2016-04-29T10:15:25Z</time>
      </trkpt>
      <trkpt lat="45.03476" lon="5.50002">
        <ele>1298.4</ele>
        <time>2016-04-29T10:15:26Z</time>
      </trkpt>
      <trkpt lat="45.03479" lon="5.49999">
        <ele>1298.4</ele>
        <time>2016-04-29T10:15:27Z</time>
      </trkpt>
      <trkpt lat="45.03481" lon="5.49997">
        <ele>1298.4</ele>
        <time>2016-04-29T10:15:28Z</time>
      </trkpt>
      <trkpt lat="45.03482" lon="5.49993">
        <ele>1298.4</ele>
        <time>2016-04-29T10:15:29Z</time>
      </trkpt>
      <trkpt lat="45.03484" lon="5.49989">
        <ele>1298.4</ele>
        <time>2016-04-29T10:15:30Z</time>
      </trkpt>
      <trkpt lat="45.03485" lon="5.49986">
        <ele>1298.88</ele>
        <time>2016-04-29T10:15:31Z</time>
      </trkpt>
      <trkpt lat="45.03488" lon="5.49973">
        <ele>1298.88</ele>
        <time>2016-04-29T10:15:35Z</time>
      </trkpt>
      <trkpt lat="45.03479" lon="5.49934">
        <ele>1297.44</ele>
        <time>2016-04-29T10:15:45Z</time>
      </trkpt>
      <trkpt lat="45.03473" lon="5.49916">
        <ele>1296.96</ele>
        <time>2016-04-29T10:15:48Z</time>
      </trkpt>
      <trkpt lat="45.0347" lon="5.49911">
        <ele>1296.48</ele>
        <time>2016-04-29T10:15:49Z</time>
      </trkpt>
      <trkpt lat="45.03458" lon="5.49886">
        <ele>1295.03</ele>
        <time>2016-04-29T10:15:53Z</time>
      </trkpt>
      <trkpt lat="45.03455" lon="5.4988">
        <ele>1295.03</ele>
        <time>2016-04-29T10:15:54Z</time>
      </trkpt>
      <trkpt lat="45.03428" lon="5.49838">
        <ele>1295.99</ele>
        <time>2016-04-29T10:16:05Z</time>
      </trkpt>
      <trkpt lat="45.03416" lon="5.49809">
        <ele>1296.96</ele>
        <time>2016-04-29T10:16:15Z</time>
      </trkpt>
      <trkpt lat="45.03415" lon="5.49807">
        <ele>1296.96</ele>
        <time>2016-04-29T10:16:16Z</time>
      </trkpt>
      <trkpt lat="45.03414" lon="5.49805">
        <ele>1297.44</ele>
        <time>2016-04-29T10:16:17Z</time>
      </trkpt>
      <trkpt lat="45.03413" lon="5.498">
        <ele>1297.92</ele>
        <time>2016-04-29T10:16:20Z</time>
      </trkpt>
      <trkpt lat="45.03413" lon="5.49791">
        <ele>1298.88</ele>
        <time>2016-04-29T10:16:24Z</time>
      </trkpt>
      <trkpt lat="45.03414" lon="5.49789">
        <ele>1298.88</ele>
        <time>2016-04-29T10:16:25Z</time>
      </trkpt>
      <trkpt lat="45.03416" lon="5.4978">
        <ele>1299.84</ele>
        <time>2016-04-29T10:16:29Z</time>
      </trkpt>
      <trkpt lat="45.03416" lon="5.49769">
        <ele>1300.32</ele>
        <time>2016-04-29T10:16:33Z</time>
      </trkpt>
      <trkpt lat="45.03417" lon="5.4976">
        <ele>1300.32</ele>
        <time>2016-04-29T10:16:36Z</time>
      </trkpt>
      <trkpt lat="45.0342" lon="5.49739">
        <ele>1300.32</ele>
        <time>2016-04-29T10:16:43Z</time>
      </trkpt>
      <trkpt lat="45.03421" lon="5.49731">
        <ele>1300.8</ele>
        <time>2016-04-29T10:16:46Z</time>
      </trkpt>
      <trkpt lat="45.03421" lon="5.4971">
        <ele>1302.72</ele>
        <time>2016-04-29T10:16:57Z</time>
      </trkpt>
      <trkpt lat="45.03424" lon="5.49701">
        <ele>1303.69</ele>
        <time>2016-04-29T10:17:02Z</time>
      </trkpt>
      <trkpt lat="45.03427" lon="5.49687">
        <ele>1304.65</ele>
        <time>2016-04-29T10:17:08Z</time>
      </trkpt>
      <trkpt lat="45.03423" lon="5.4967">
        <ele>1306.09</ele>
        <time>2016-04-29T10:17:16Z</time>
      </trkpt>
      <trkpt lat="45.03412" lon="5.49656">
        <ele>1308.01</ele>
        <time>2016-04-29T10:17:28Z</time>
      </trkpt>
      <trkpt lat="45.03401" lon="5.49648">
        <ele>1309.93</ele>
        <time>2016-04-29T10:17:38Z</time>
      </trkpt>
      <trkpt lat="45.03396" lon="5.49641">
        <ele>1311.38</ele>
        <time>2016-04-29T10:17:46Z</time>
      </trkpt>
      <trkpt lat="45.03394" lon="5.49641">
        <ele>1311.38</ele>
        <time>2016-04-29T10:17:48Z</time>
      </trkpt>
      <trkpt lat="45.03372" lon="5.49637">
        <ele>1313.78</ele>
        <time>2016-04-29T10:17:58Z</time>
      </trkpt>
      <trkpt lat="45.03361" lon="5.49639">
        <ele>1313.78</ele>
        <time>2016-04-29T10:18:04Z</time>
      </trkpt>
      <trkpt lat="45.03339" lon="5.49649">
        <ele>1315.7</ele>
        <time>2016-04-29T10:18:17Z</time>
      </trkpt>
      <trkpt lat="45.03326" lon="5.49656">
        <ele>1317.14</ele>
        <time>2016-04-29T10:18:27Z</time>
      </trkpt>
      <trkpt lat="45.0332" lon="5.49655">
        <ele>1316.66</ele>
        <time>2016-04-29T10:18:42Z</time>
      </trkpt>
      <trkpt lat="45.03317" lon="5.49657">
        <ele>1317.14</ele>
        <time>2016-04-29T10:19:10Z</time>
      </trkpt>
      <trkpt lat="45.03318" lon="5.49657">
        <ele>1316.18</ele>
        <time>2016-04-29T10:19:38Z</time>
      </trkpt>
      <trkpt lat="45.03319" lon="5.49656">
        <ele>1316.66</ele>
        <time>2016-04-29T10:20:07Z</time>
      </trkpt>
      <trkpt lat="45.03318" lon="5.49656">
        <ele>1316.66</ele>
        <time>2016-04-29T10:20:33Z</time>
      </trkpt>
      <trkpt lat="45.03318" lon="5.49655">
        <ele>1316.66</ele>
        <time>2016-04-29T10:21:02Z</time>
      </trkpt>
      <trkpt lat="45.03316" lon="5.49653">
        <ele>1317.14</ele>
        <time>2016-04-29T10:21:36Z</time>
      </trkpt>
      <trkpt lat="45.03316" lon="5.49652">
        <ele>1317.62</ele>
        <time>2016-04-29T10:22:01Z</time>
      </trkpt>
      <trkpt lat="45.03314" lon="5.49653">
        <ele>1317.62</ele>
        <time>2016-04-29T10:22:27Z</time>
      </trkpt>
      <trkpt lat="45.03314" lon="5.49652">
        <ele>1317.14</ele>
        <time>2016-04-29T10:22:49Z</time>
      </trkpt>
      <trkpt lat="45.03316" lon="5.49651">
        <ele>1317.14</ele>
        <time>2016-04-29T10:23:22Z</time>
      </trkpt>
      <trkpt lat="45.03316" lon="5.4965">
        <ele>1317.62</ele>
        <time>2016-04-29T10:24:00Z</time>
      </trkpt>
      <trkpt lat="45.03315" lon="5.4965">
        <ele>1317.14</ele>
        <time>2016-04-29T10:24:30Z</time>
      </trkpt>
      <trkpt lat="45.03315" lon="5.49652">
        <ele>1317.62</ele>
        <time>2016-04-29T10:25:02Z</time>
      </trkpt>
      <trkpt lat="45.03314" lon="5.4965">
        <ele>1317.62</ele>
        <time>2016-04-29T10:25:33Z</time>
      </trkpt>
      <trkpt lat="45.03315" lon="5.49649">
        <ele>1318.1</ele>
        <time>2016-04-29T10:26:07Z</time>
      </trkpt>
      <trkpt lat="45.03314" lon="5.49651">
        <ele>1318.1</ele>
        <time>2016-04-29T10:26:35Z</time>
      </trkpt>
      <trkpt lat="45.03314" lon="5.4965">
        <ele>1318.59</ele>
        <time>2016-04-29T10:27:02Z</time>
      </trkpt>
      <trkpt lat="45.03314" lon="5.49651">
        <ele>1319.07</ele>
        <time>2016-04-29T10:27:30Z</time>
      </trkpt>
      <trkpt lat="45.03313" lon="5.49652">
        <ele>1319.07</ele>
        <time>2016-04-29T10:27:56Z</time>
      </trkpt>
      <trkpt lat="45.03312" lon="5.49653">
        <ele>1318.59</ele>
        <time>2016-04-29T10:28:23Z</time>
      </trkpt>
      <trkpt lat="45.03312" lon="5.49653">
        <ele>1318.59</ele>
        <time>2016-04-29T10:28:52Z</time>
      </trkpt>
      <trkpt lat="45.03312" lon="5.49651">
        <ele>1318.59</ele>
        <time>2016-04-29T10:29:23Z</time>
      </trkpt>
      <trkpt lat="45.03311" lon="5.4965">
        <ele>1319.07</ele>
        <time>2016-04-29T10:29:53Z</time>
      </trkpt>
      <trkpt lat="45.0331" lon="5.4965">
        <ele>1319.07</ele>
        <time>2016-04-29T10:30:25Z</time>
      </trkpt>
      <trkpt lat="45.03311" lon="5.49649">
        <ele>1319.55</ele>
        <time>2016-04-29T10:30:59Z</time>
      </trkpt>
      <trkpt lat="45.03311" lon="5.49648">
        <ele>1320.03</ele>
        <time>2016-04-29T10:31:29Z</time>
      </trkpt>
      <trkpt lat="45.03312" lon="5.49651">
        <ele>1320.03</ele>
        <time>2016-04-29T10:31:36Z</time>
      </trkpt>
      <trkpt lat="45.03315" lon="5.49651">
        <ele>1320.03</ele>
        <time>2016-04-29T10:31:46Z</time>
      </trkpt>
      <trkpt lat="45.03318" lon="5.49657">
        <ele>1320.03</ele>
        <time>2016-04-29T10:31:51Z</time>
      </trkpt>
      <trkpt lat="45.03319" lon="5.49655">
        <ele>1320.99</ele>
        <time>2016-04-29T10:32:03Z</time>
      </trkpt>
      <trkpt lat="45.03318" lon="5.49657">
        <ele>1320.99</ele>
        <time>2016-04-29T10:32:19Z</time>
      </trkpt>
      <trkpt lat="45.03318" lon="5.49658">
        <ele>1320.99</ele>
        <time>2016-04-29T10:32:31Z</time>
      </trkpt>
      <trkpt lat="45.03318" lon="5.49657">
        <ele>1320.99</ele>
        <time>2016-04-29T10:32:49Z</time>
      </trkpt>
      <trkpt lat="45.03317" lon="5.49656">
        <ele>1320.99</ele>
        <time>2016-04-29T10:33:09Z</time>
      </trkpt>
      <trkpt lat="45.03316" lon="5.49658">
        <ele>1320.99</ele>
        <time>2016-04-29T10:33:11Z</time>
      </trkpt>
      <trkpt lat="45.03319" lon="5.49654">
        <ele>1321.47</ele>
        <time>2016-04-29T10:33:24Z</time>
      </trkpt>
      <trkpt lat="45.03317" lon="5.49654">
        <ele>1320.99</ele>
        <time>2016-04-29T10:33:38Z</time>
      </trkpt>
      <trkpt lat="45.03316" lon="5.49652">
        <ele>1320.99</ele>
        <time>2016-04-29T10:34:11Z</time>
      </trkpt>
      <trkpt lat="45.03313" lon="5.49653">
        <ele>1321.47</ele>
        <time>2016-04-29T10:34:34Z</time>
      </trkpt>
      <trkpt lat="45.03311" lon="5.49655">
        <ele>1321.95</ele>
        <time>2016-04-29T10:34:56Z</time>
      </trkpt>
      <trkpt lat="45.0331" lon="5.49655">
        <ele>1321.95</ele>
        <time>2016-04-29T10:34:57Z</time>
      </trkpt>
      <trkpt lat="45.03306" lon="5.49656">
        <ele>1321.95</ele>
        <time>2016-04-29T10:35:03Z</time>
      </trkpt>
      <trkpt lat="45.03293" lon="5.49647">
        <ele>1321.95</ele>
        <time>2016-04-29T10:35:09Z</time>
      </trkpt>
      <trkpt lat="45.03275" lon="5.49631">
        <ele>1322.91</ele>
        <time>2016-04-29T10:35:20Z</time>
      </trkpt>
      <trkpt lat="45.03238" lon="5.49618">
        <ele>1325.31</ele>
        <time>2016-04-29T10:35:33Z</time>
      </trkpt>
      <trkpt lat="45.03214" lon="5.49613">
        <ele>1324.83</ele>
        <time>2016-04-29T10:35:39Z</time>
      </trkpt>
      <trkpt lat="45.03187" lon="5.49592">
        <ele>1327.24</ele>
        <time>2016-04-29T10:35:50Z</time>
      </trkpt>
      <trkpt lat="45.03169" lon="5.49571">
        <ele>1330.6</ele>
        <time>2016-04-29T10:35:58Z</time>
      </trkpt>
      <trkpt lat="45.03155" lon="5.49548">
        <ele>1328.68</ele>
        <time>2016-04-29T10:36:08Z</time>
      </trkpt>
      <trkpt lat="45.03133" lon="5.49534">
        <ele>1331.08</ele>
        <time>2016-04-29T10:36:17Z</time>
      </trkpt>
      <trkpt lat="45.03105" lon="5.49538">
        <ele>1332.52</ele>
        <time>2016-04-29T10:36:26Z</time>
      </trkpt>
      <trkpt lat="45.03078" lon="5.4955">
        <ele>1329.64</ele>
        <time>2016-04-29T10:36:32Z</time>
      </trkpt>
      <trkpt lat="45.03073" lon="5.49552">
        <ele>1329.64</ele>
        <time>2016-04-29T10:36:33Z</time>
      </trkpt>
      <trkpt lat="45.03063" lon="5.49557">
        <ele>1329.16</ele>
        <time>2016-04-29T10:36:35Z</time>
      </trkpt>
      <trkpt lat="45.03058" lon="5.4956">
        <ele>1329.16</ele>
        <time>2016-04-29T10:36:36Z</time>
      </trkpt>
      <trkpt lat="45.03049" lon="5.49565">
        <ele>1329.16</ele>
        <time>2016-04-29T10:36:38Z</time>
      </trkpt>
      <trkpt lat="45.03044" lon="5.49568">
        <ele>1328.68</ele>
        <time>2016-04-29T10:36:39Z</time>
      </trkpt>
      <trkpt lat="45.03039" lon="5.4957">
        <ele>1328.2</ele>
        <time>2016-04-29T10:36:40Z</time>
      </trkpt>
      <trkpt lat="45.03034" lon="5.49572">
        <ele>1328.2</ele>
        <time>2016-04-29T10:36:41Z</time>
      </trkpt>
      <trkpt lat="45.03029" lon="5.49575">
        <ele>1327.72</ele>
        <time>2016-04-29T10:36:42Z</time>
      </trkpt>
      <trkpt lat="45.03004" lon="5.49573">
        <ele>1324.83</ele>
        <time>2016-04-29T10:36:49Z</time>
      </trkpt>
      <trkpt lat="45.02989" lon="5.49565">
        <ele>1323.87</ele>
        <time>2016-04-29T10:36:52Z</time>
      </trkpt>
      <trkpt lat="45.02983" lon="5.49564">
        <ele>1323.39</ele>
        <time>2016-04-29T10:36:53Z</time>
      </trkpt>
      <trkpt lat="45.02937" lon="5.4956">
        <ele>1323.87</ele>
        <time>2016-04-29T10:37:00Z</time>
      </trkpt>
      <trkpt lat="45.02909" lon="5.49566">
        <ele>1322.91</ele>
        <time>2016-04-29T10:37:05Z</time>
      </trkpt>
      <trkpt lat="45.02889" lon="5.49577">
        <ele>1322.43</ele>
        <time>2016-04-29T10:37:09Z</time>
      </trkpt>
      <trkpt lat="45.02885" lon="5.4958">
        <ele>1321.95</ele>
        <time>2016-04-29T10:37:10Z</time>
      </trkpt>
      <trkpt lat="45.02868" lon="5.49591">
        <ele>1322.91</ele>
        <time>2016-04-29T10:37:14Z</time>
      </trkpt>
      <trkpt lat="45.0286" lon="5.49599">
        <ele>1322.91</ele>
        <time>2016-04-29T10:37:16Z</time>
      </trkpt>
      <trkpt lat="45.02857" lon="5.49603">
        <ele>1322.43</ele>
        <time>2016-04-29T10:37:17Z</time>
      </trkpt>
      <trkpt lat="45.02855" lon="5.49608">
        <ele>1322.43</ele>
        <time>2016-04-29T10:37:18Z</time>
      </trkpt>
      <trkpt lat="45.02852" lon="5.49614">
        <ele>1322.43</ele>
        <time>2016-04-29T10:37:19Z</time>
      </trkpt>
      <trkpt lat="45.02849" lon="5.49618">
        <ele>1322.43</ele>
        <time>2016-04-29T10:37:20Z</time>
      </trkpt>
      <trkpt lat="45.0284" lon="5.49629">
        <ele>1322.43</ele>
        <time>2016-04-29T10:37:23Z</time>
      </trkpt>
      <trkpt lat="45.02822" lon="5.49645">
        <ele>1321.95</ele>
        <time>2016-04-29T10:37:28Z</time>
      </trkpt>
      <trkpt lat="45.02818" lon="5.49648">
        <ele>1320.99</ele>
        <time>2016-04-29T10:37:29Z</time>
      </trkpt>
      <trkpt lat="45.02795" lon="5.49662">
        <ele>1318.59</ele>
        <time>2016-04-29T10:37:34Z</time>
      </trkpt>
      <trkpt lat="45.0279" lon="5.49663">
        <ele>1318.59</ele>
        <time>2016-04-29T10:37:35Z</time>
      </trkpt>
      <trkpt lat="45.02781" lon="5.49663">
        <ele>1318.1</ele>
        <time>2016-04-29T10:37:37Z</time>
      </trkpt>
      <trkpt lat="45.02777" lon="5.49662">
        <ele>1318.1</ele>
        <time>2016-04-29T10:37:38Z</time>
      </trkpt>
      <trkpt lat="45.02772" lon="5.49662">
        <ele>1318.1</ele>
        <time>2016-04-29T10:37:39Z</time>
      </trkpt>
      <trkpt lat="45.02767" lon="5.49661">
        <ele>1317.62</ele>
        <time>2016-04-29T10:37:40Z</time>
      </trkpt>
      <trkpt lat="45.02762" lon="5.49661">
        <ele>1318.1</ele>
        <time>2016-04-29T10:37:41Z</time>
      </trkpt>
      <trkpt lat="45.02757" lon="5.49661">
        <ele>1319.07</ele>
        <time>2016-04-29T10:37:42Z</time>
      </trkpt>
      <trkpt lat="45.02752" lon="5.49661">
        <ele>1319.07</ele>
        <time>2016-04-29T10:37:43Z</time>
      </trkpt>
      <trkpt lat="45.02742" lon="5.49659">
        <ele>1319.07</ele>
        <time>2016-04-29T10:37:45Z</time>
      </trkpt>
      <trkpt lat="45.02736" lon="5.49659">
        <ele>1320.03</ele>
        <time>2016-04-29T10:37:46Z</time>
      </trkpt>
      <trkpt lat="45.02731" lon="5.49659">
        <ele>1320.51</ele>
        <time>2016-04-29T10:37:47Z</time>
      </trkpt>
      <trkpt lat="45.02727" lon="5.49659">
        <ele>1320.99</ele>
        <time>2016-04-29T10:37:48Z</time>
      </trkpt>
      <trkpt lat="45.02723" lon="5.49659">
        <ele>1320.99</ele>
        <time>2016-04-29T10:37:49Z</time>
      </trkpt>
      <trkpt lat="45.02719" lon="5.4966">
        <ele>1321.47</ele>
        <time>2016-04-29T10:37:50Z</time>
      </trkpt>
      <trkpt lat="45.02716" lon="5.49662">
        <ele>1320.99</ele>
        <time>2016-04-29T10:37:51Z</time>
      </trkpt>
      <trkpt lat="45.02712" lon="5.49665">
        <ele>1321.47</ele>
        <time>2016-04-29T10:37:52Z</time>
      </trkpt>
      <trkpt lat="45.02708" lon="5.49667">
        <ele>1321.47</ele>
        <time>2016-04-29T10:37:53Z</time>
      </trkpt>
      <trkpt lat="45.02672" lon="5.49687">
        <ele>1321.95</ele>
        <time>2016-04-29T10:38:03Z</time>
      </trkpt>
      <trkpt lat="45.02665" lon="5.49691">
        <ele>1322.43</ele>
        <time>2016-04-29T10:38:05Z</time>
      </trkpt>
      <trkpt lat="45.02661" lon="5.49694">
        <ele>1322.91</ele>
        <time>2016-04-29T10:38:06Z</time>
      </trkpt>
      <trkpt lat="45.02634" lon="5.49713">
        <ele>1321.95</ele>
        <time>2016-04-29T10:38:14Z</time>
      </trkpt>
      <trkpt lat="45.0263" lon="5.49711">
        <ele>1321.47</ele>
        <time>2016-04-29T10:38:16Z</time>
      </trkpt>
      <trkpt lat="45.02626" lon="5.49712">
        <ele>1321.95</ele>
        <time>2016-04-29T10:38:18Z</time>
      </trkpt>
      <trkpt lat="45.02623" lon="5.49711">
        <ele>1321.47</ele>
        <time>2016-04-29T10:38:19Z</time>
      </trkpt>
      <trkpt lat="45.02612" lon="5.49711">
        <ele>1323.87</ele>
        <time>2016-04-29T10:38:24Z</time>
      </trkpt>
      <trkpt lat="45.0261" lon="5.4971">
        <ele>1323.87</ele>
        <time>2016-04-29T10:38:25Z</time>
      </trkpt>
      <trkpt lat="45.02608" lon="5.4971">
        <ele>1324.35</ele>
        <time>2016-04-29T10:38:26Z</time>
      </trkpt>
      <trkpt lat="45.02606" lon="5.49709">
        <ele>1324.35</ele>
        <time>2016-04-29T10:38:27Z</time>
      </trkpt>
      <trkpt lat="45.02603" lon="5.49709">
        <ele>1324.83</ele>
        <time>2016-04-29T10:38:28Z</time>
      </trkpt>
      <trkpt lat="45.026" lon="5.49706">
        <ele>1325.31</ele>
        <time>2016-04-29T10:38:30Z</time>
      </trkpt>
      <trkpt lat="45.02598" lon="5.49704">
        <ele>1325.31</ele>
        <time>2016-04-29T10:38:31Z</time>
      </trkpt>
      <trkpt lat="45.02597" lon="5.49702">
        <ele>1325.31</ele>
        <time>2016-04-29T10:38:32Z</time>
      </trkpt>
      <trkpt lat="45.02596" lon="5.49699">
        <ele>1325.31</ele>
        <time>2016-04-29T10:38:33Z</time>
      </trkpt>
      <trkpt lat="45.02596" lon="5.49697">
        <ele>1325.8</ele>
        <time>2016-04-29T10:38:34Z</time>
      </trkpt>
      <trkpt lat="45.02596" lon="5.49696">
        <ele>1326.28</ele>
        <time>2016-04-29T10:38:35Z</time>
      </trkpt>
      <trkpt lat="45.02595" lon="5.49694">
        <ele>1326.28</ele>
        <time>2016-04-29T10:38:36Z</time>
      </trkpt>
      <trkpt lat="45.02593" lon="5.49691">
        <ele>1326.76</ele>
        <time>2016-04-29T10:38:37Z</time>
      </trkpt>
      <trkpt lat="45.02592" lon="5.49689">
        <ele>1326.76</ele>
        <time>2016-04-29T10:38:38Z</time>
      </trkpt>
      <trkpt lat="45.02591" lon="5.4968">
        <ele>1326.76</ele>
        <time>2016-04-29T10:38:41Z</time>
      </trkpt>
      <trkpt lat="45.02592" lon="5.49677">
        <ele>1326.76</ele>
        <time>2016-04-29T10:38:42Z</time>
      </trkpt>
      <trkpt lat="45.02592" lon="5.49673">
        <ele>1326.76</ele>
        <time>2016-04-29T10:38:43Z</time>
      </trkpt>
      <trkpt lat="45.02592" lon="5.49669">
        <ele>1326.76</ele>
        <time>2016-04-29T10:38:44Z</time>
      </trkpt>
      <trkpt lat="45.02593" lon="5.49666">
        <ele>1326.76</ele>
        <time>2016-04-29T10:38:45Z</time>
      </trkpt>
      <trkpt lat="45.02593" lon="5.49663">
        <ele>1326.76</ele>
        <time>2016-04-29T10:38:46Z</time>
      </trkpt>
      <trkpt lat="45.02594" lon="5.4966">
        <ele>1326.76</ele>
        <time>2016-04-29T10:38:47Z</time>
      </trkpt>
      <trkpt lat="45.02596" lon="5.49657">
        <ele>1327.24</ele>
        <time>2016-04-29T10:38:48Z</time>
      </trkpt>
      <trkpt lat="45.02596" lon="5.49655">
        <ele>1326.76</ele>
        <time>2016-04-29T10:38:49Z</time>
      </trkpt>
      <trkpt lat="45.02596" lon="5.49652">
        <ele>1327.24</ele>
        <time>2016-04-29T10:38:50Z</time>
      </trkpt>
      <trkpt lat="45.02595" lon="5.49649">
        <ele>1327.24</ele>
        <time>2016-04-29T10:38:51Z</time>
      </trkpt>
      <trkpt lat="45.02594" lon="5.49646">
        <ele>1327.72</ele>
        <time>2016-04-29T10:38:52Z</time>
      </trkpt>
      <trkpt lat="45.02594" lon="5.49644">
        <ele>1327.72</ele>
        <time>2016-04-29T10:38:53Z</time>
      </trkpt>
      <trkpt lat="45.02592" lon="5.49642">
        <ele>1327.72</ele>
        <time>2016-04-29T10:38:54Z</time>
      </trkpt>
      <trkpt lat="45.02589" lon="5.49638">
        <ele>1327.72</ele>
        <time>2016-04-29T10:38:55Z</time>
      </trkpt>
      <trkpt lat="45.02565" lon="5.4962">
        <ele>1326.28</ele>
        <time>2016-04-29T10:39:04Z</time>
      </trkpt>
      <trkpt lat="45.0254" lon="5.49595">
        <ele>1324.35</ele>
        <time>2016-04-29T10:39:11Z</time>
      </trkpt>
      <trkpt lat="45.02537" lon="5.4959">
        <ele>1323.39</ele>
        <time>2016-04-29T10:39:12Z</time>
      </trkpt>
      <trkpt lat="45.02533" lon="5.49587">
        <ele>1322.91</ele>
        <time>2016-04-29T10:39:13Z</time>
      </trkpt>
      <trkpt lat="45.02527" lon="5.49584">
        <ele>1322.43</ele>
        <time>2016-04-29T10:39:14Z</time>
      </trkpt>
      <trkpt lat="45.0252" lon="5.49583">
        <ele>1321.47</ele>
        <time>2016-04-29T10:39:15Z</time>
      </trkpt>
      <trkpt lat="45.02513" lon="5.49584">
        <ele>1320.99</ele>
        <time>2016-04-29T10:39:16Z</time>
      </trkpt>
      <trkpt lat="45.02506" lon="5.49587">
        <ele>1320.99</ele>
        <time>2016-04-29T10:39:17Z</time>
      </trkpt>
      <trkpt lat="45.02501" lon="5.4959">
        <ele>1321.47</ele>
        <time>2016-04-29T10:39:18Z</time>
      </trkpt>
      <trkpt lat="45.02496" lon="5.49593">
        <ele>1321.47</ele>
        <time>2016-04-29T10:39:19Z</time>
      </trkpt>
      <trkpt lat="45.02493" lon="5.49594">
        <ele>1322.43</ele>
        <time>2016-04-29T10:39:20Z</time>
      </trkpt>
      <trkpt lat="45.0249" lon="5.49595">
        <ele>1322.91</ele>
        <time>2016-04-29T10:39:21Z</time>
      </trkpt>
      <trkpt lat="45.02487" lon="5.49595">
        <ele>1323.39</ele>
        <time>2016-04-29T10:39:22Z</time>
      </trkpt>
      <trkpt lat="45.02485" lon="5.49595">
        <ele>1323.87</ele>
        <time>2016-04-29T10:39:23Z</time>
      </trkpt>
      <trkpt lat="45.02483" lon="5.49595">
        <ele>1323.87</ele>
        <time>2016-04-29T10:39:24Z</time>
      </trkpt>
      <trkpt lat="45.02481" lon="5.49594">
        <ele>1324.35</ele>
        <time>2016-04-29T10:39:25Z</time>
      </trkpt>
      <trkpt lat="45.02474" lon="5.49585">
        <ele>1325.8</ele>
        <time>2016-04-29T10:39:30Z</time>
      </trkpt>
      <trkpt lat="45.02473" lon="5.49583">
        <ele>1325.8</ele>
        <time>2016-04-29T10:39:31Z</time>
      </trkpt>
      <trkpt lat="45.02471" lon="5.49581">
        <ele>1326.28</ele>
        <time>2016-04-29T10:39:32Z</time>
      </trkpt>
      <trkpt lat="45.0247" lon="5.49579">
        <ele>1326.76</ele>
        <time>2016-04-29T10:39:33Z</time>
      </trkpt>
      <trkpt lat="45.02468" lon="5.49578">
        <ele>1326.76</ele>
        <time>2016-04-29T10:39:34Z</time>
      </trkpt>
      <trkpt lat="45.02467" lon="5.49576">
        <ele>1326.76</ele>
        <time>2016-04-29T10:39:35Z</time>
      </trkpt>
      <trkpt lat="45.02466" lon="5.49575">
        <ele>1327.24</ele>
        <time>2016-04-29T10:39:36Z</time>
      </trkpt>
      <trkpt lat="45.02465" lon="5.49573">
        <ele>1327.24</ele>
        <time>2016-04-29T10:39:37Z</time>
      </trkpt>
      <trkpt lat="45.02464" lon="5.49572">
        <ele>1327.24</ele>
        <time>2016-04-29T10:39:38Z</time>
      </trkpt>
      <trkpt lat="45.02442" lon="5.49546">
        <ele>1329.16</ele>
        <time>2016-04-29T10:39:52Z</time>
      </trkpt>
      <trkpt lat="45.02424" lon="5.49518">
        <ele>1329.16</ele>
        <time>2016-04-29T10:40:02Z</time>
      </trkpt>
      <trkpt lat="45.02421" lon="5.49514">
        <ele>1329.16</ele>
        <time>2016-04-29T10:40:04Z</time>
      </trkpt>
      <trkpt lat="45.02419" lon="5.49512">
        <ele>1329.64</ele>
        <time>2016-04-29T10:40:05Z</time>
      </trkpt>
      <trkpt lat="45.02418" lon="5.4951">
        <ele>1330.12</ele>
        <time>2016-04-29T10:40:06Z</time>
      </trkpt>
      <trkpt lat="45.02417" lon="5.49508">
        <ele>1330.6</ele>
        <time>2016-04-29T10:40:07Z</time>
      </trkpt>
      <trkpt lat="45.02413" lon="5.49503">
        <ele>1331.56</ele>
        <time>2016-04-29T10:40:12Z</time>
      </trkpt>
      <trkpt lat="45.02411" lon="5.49502">
        <ele>1331.56</ele>
        <time>2016-04-29T10:40:13Z</time>
      </trkpt>
      <trkpt lat="45.02408" lon="5.495">
        <ele>1332.52</ele>
        <time>2016-04-29T10:40:14Z</time>
      </trkpt>
      <trkpt lat="45.02406" lon="5.49498">
        <ele>1333.01</ele>
        <time>2016-04-29T10:40:15Z</time>
      </trkpt>
      <trkpt lat="45.02403" lon="5.49497">
        <ele>1333.01</ele>
        <time>2016-04-29T10:40:16Z</time>
      </trkpt>
      <trkpt lat="45.02375" lon="5.49496">
        <ele>1335.41</ele>
        <time>2016-04-29T10:40:27Z</time>
      </trkpt>
      <trkpt lat="45.02363" lon="5.49508">
        <ele>1335.89</ele>
        <time>2016-04-29T10:40:33Z</time>
      </trkpt>
      <trkpt lat="45.02335" lon="5.49519">
        <ele>1333.97</ele>
        <time>2016-04-29T10:40:43Z</time>
      </trkpt>
      <trkpt lat="45.02321" lon="5.49527">
        <ele>1332.04</ele>
        <time>2016-04-29T10:40:46Z</time>
      </trkpt>
      <trkpt lat="45.02311" lon="5.49533">
        <ele>1330.12</ele>
        <time>2016-04-29T10:40:48Z</time>
      </trkpt>
      <trkpt lat="45.02299" lon="5.49538">
        <ele>1330.12</ele>
        <time>2016-04-29T10:40:50Z</time>
      </trkpt>
      <trkpt lat="45.02284" lon="5.49541">
        <ele>1330.6</ele>
        <time>2016-04-29T10:40:53Z</time>
      </trkpt>
      <trkpt lat="45.0228" lon="5.49542">
        <ele>1331.08</ele>
        <time>2016-04-29T10:40:54Z</time>
      </trkpt>
      <trkpt lat="45.02274" lon="5.49543">
        <ele>1331.08</ele>
        <time>2016-04-29T10:40:55Z</time>
      </trkpt>
      <trkpt lat="45.02269" lon="5.49543">
        <ele>1331.56</ele>
        <time>2016-04-29T10:40:56Z</time>
      </trkpt>
      <trkpt lat="45.02264" lon="5.49544">
        <ele>1331.08</ele>
        <time>2016-04-29T10:40:57Z</time>
      </trkpt>
      <trkpt lat="45.02259" lon="5.49545">
        <ele>1331.08</ele>
        <time>2016-04-29T10:40:58Z</time>
      </trkpt>
      <trkpt lat="45.02244" lon="5.49552">
        <ele>1331.56</ele>
        <time>2016-04-29T10:41:01Z</time>
      </trkpt>
      <trkpt lat="45.02235" lon="5.49555">
        <ele>1330.6</ele>
        <time>2016-04-29T10:41:03Z</time>
      </trkpt>
      <trkpt lat="45.02207" lon="5.49565">
        <ele>1329.16</ele>
        <time>2016-04-29T10:41:09Z</time>
      </trkpt>
      <trkpt lat="45.02201" lon="5.49566">
        <ele>1328.68</ele>
        <time>2016-04-29T10:41:10Z</time>
      </trkpt>
      <trkpt lat="45.02183" lon="5.49567">
        <ele>1326.76</ele>
        <time>2016-04-29T10:41:13Z</time>
      </trkpt>
      <trkpt lat="45.02176" lon="5.49566">
        <ele>1325.8</ele>
        <time>2016-04-29T10:41:14Z</time>
      </trkpt>
      <trkpt lat="45.0217" lon="5.49565">
        <ele>1325.8</ele>
        <time>2016-04-29T10:41:15Z</time>
      </trkpt>
      <trkpt lat="45.02162" lon="5.49565">
        <ele>1325.8</ele>
        <time>2016-04-29T10:41:16Z</time>
      </trkpt>
      <trkpt lat="45.02149" lon="5.49567">
        <ele>1325.31</ele>
        <time>2016-04-29T10:41:18Z</time>
      </trkpt>
      <trkpt lat="45.02142" lon="5.4957">
        <ele>1324.35</ele>
        <time>2016-04-29T10:41:19Z</time>
      </trkpt>
      <trkpt lat="45.02128" lon="5.49579">
        <ele>1322.43</ele>
        <time>2016-04-29T10:41:21Z</time>
      </trkpt>
      <trkpt lat="45.02104" lon="5.49591">
        <ele>1320.51</ele>
        <time>2016-04-29T10:41:24Z</time>
      </trkpt>
      <trkpt lat="45.02098" lon="5.49594">
        <ele>1321.47</ele>
        <time>2016-04-29T10:41:25Z</time>
      </trkpt>
      <trkpt lat="45.02083" lon="5.496">
        <ele>1324.83</ele>
        <time>2016-04-29T10:41:28Z</time>
      </trkpt>
      <trkpt lat="45.02063" lon="5.49601">
        <ele>1327.72</ele>
        <time>2016-04-29T10:41:35Z</time>
      </trkpt>
      <trkpt lat="45.02038" lon="5.4959">
        <ele>1330.6</ele>
        <time>2016-04-29T10:41:46Z</time>
      </trkpt>
      <trkpt lat="45.02012" lon="5.49583">
        <ele>1331.56</ele>
        <time>2016-04-29T10:41:55Z</time>
      </trkpt>
      <trkpt lat="45.01973" lon="5.49564">
        <ele>1331.56</ele>
        <time>2016-04-29T10:42:07Z</time>
      </trkpt>
      <trkpt lat="45.01935" lon="5.49558">
        <ele>1331.56</ele>
        <time>2016-04-29T10:42:17Z</time>
      </trkpt>
      <trkpt lat="45.01928" lon="5.49555">
        <ele>1331.56</ele>
        <time>2016-04-29T10:42:19Z</time>
      </trkpt>
      <trkpt lat="45.01924" lon="5.49554">
        <ele>1331.08</ele>
        <time>2016-04-29T10:42:20Z</time>
      </trkpt>
      <trkpt lat="45.0192" lon="5.49554">
        <ele>1331.56</ele>
        <time>2016-04-29T10:42:21Z</time>
      </trkpt>
      <trkpt lat="45.01917" lon="5.49553">
        <ele>1332.04</ele>
        <time>2016-04-29T10:42:22Z</time>
      </trkpt>
      <trkpt lat="45.01914" lon="5.49553">
        <ele>1332.52</ele>
        <time>2016-04-29T10:42:23Z</time>
      </trkpt>
      <trkpt lat="45.0188" lon="5.49555">
        <ele>1334.93</ele>
        <time>2016-04-29T10:42:33Z</time>
      </trkpt>
      <trkpt lat="45.0184" lon="5.49556">
        <ele>1334.45</ele>
        <time>2016-04-29T10:42:43Z</time>
      </trkpt>
      <trkpt lat="45.01811" lon="5.49546">
        <ele>1336.85</ele>
        <time>2016-04-29T10:42:54Z</time>
      </trkpt>
      <trkpt lat="45.0181" lon="5.49546">
        <ele>1336.85</ele>
        <time>2016-04-29T10:42:55Z</time>
      </trkpt>
      <trkpt lat="45.01807" lon="5.49545">
        <ele>1337.33</ele>
        <time>2016-04-29T10:42:56Z</time>
      </trkpt>
      <trkpt lat="45.01805" lon="5.49544">
        <ele>1337.81</ele>
        <time>2016-04-29T10:42:57Z</time>
      </trkpt>
      <trkpt lat="45.01803" lon="5.49544">
        <ele>1337.81</ele>
        <time>2016-04-29T10:42:58Z</time>
      </trkpt>
      <trkpt lat="45.018" lon="5.49543">
        <ele>1338.29</ele>
        <time>2016-04-29T10:42:59Z</time>
      </trkpt>
      <trkpt lat="45.01798" lon="5.49542">
        <ele>1338.29</ele>
        <time>2016-04-29T10:43:00Z</time>
      </trkpt>
      <trkpt lat="45.01797" lon="5.49541">
        <ele>1338.77</ele>
        <time>2016-04-29T10:43:01Z</time>
      </trkpt>
      <trkpt lat="45.01792" lon="5.49539">
        <ele>1339.73</ele>
        <time>2016-04-29T10:43:04Z</time>
      </trkpt>
      <trkpt lat="45.0179" lon="5.49538">
        <ele>1339.73</ele>
        <time>2016-04-29T10:43:05Z</time>
      </trkpt>
      <trkpt lat="45.01788" lon="5.49536">
        <ele>1339.73</ele>
        <time>2016-04-29T10:43:06Z</time>
      </trkpt>
      <trkpt lat="45.01786" lon="5.49535">
        <ele>1340.22</ele>
        <time>2016-04-29T10:43:07Z</time>
      </trkpt>
      <trkpt lat="45.01783" lon="5.49534">
        <ele>1340.22</ele>
        <time>2016-04-29T10:43:08Z</time>
      </trkpt>
      <trkpt lat="45.01746" lon="5.49526">
        <ele>1341.66</ele>
        <time>2016-04-29T10:43:21Z</time>
      </trkpt>
      <trkpt lat="45.01711" lon="5.49523">
        <ele>1341.66</ele>
        <time>2016-04-29T10:43:33Z</time>
      </trkpt>
      <trkpt lat="45.01682" lon="5.49517">
        <ele>1344.06</ele>
        <time>2016-04-29T10:43:44Z</time>
      </trkpt>
      <trkpt lat="45.01657" lon="5.49513">
        <ele>1345.5</ele>
        <time>2016-04-29T10:43:55Z</time>
      </trkpt>
      <trkpt lat="45.01649" lon="5.49517">
        <ele>1346.46</ele>
        <time>2016-04-29T10:43:59Z</time>
      </trkpt>
      <trkpt lat="45.01633" lon="5.49546">
        <ele>1346.94</ele>
        <time>2016-04-29T10:44:09Z</time>
      </trkpt>
      <trkpt lat="45.01615" lon="5.49577">
        <ele>1345.98</ele>
        <time>2016-04-29T10:44:17Z</time>
      </trkpt>
      <trkpt lat="45.01612" lon="5.4958">
        <ele>1345.98</ele>
        <time>2016-04-29T10:44:18Z</time>
      </trkpt>
      <trkpt lat="45.0161" lon="5.49583">
        <ele>1346.46</ele>
        <time>2016-04-29T10:44:19Z</time>
      </trkpt>
      <trkpt lat="45.01608" lon="5.49587">
        <ele>1346.46</ele>
        <time>2016-04-29T10:44:20Z</time>
      </trkpt>
      <trkpt lat="45.01605" lon="5.4959">
        <ele>1346.46</ele>
        <time>2016-04-29T10:44:21Z</time>
      </trkpt>
      <trkpt lat="45.01594" lon="5.49606">
        <ele>1345.02</ele>
        <time>2016-04-29T10:44:25Z</time>
      </trkpt>
      <trkpt lat="45.0159" lon="5.4961">
        <ele>1345.02</ele>
        <time>2016-04-29T10:44:26Z</time>
      </trkpt>
      <trkpt lat="45.01586" lon="5.49614">
        <ele>1345.02</ele>
        <time>2016-04-29T10:44:27Z</time>
      </trkpt>
      <trkpt lat="45.01566" lon="5.49628">
        <ele>1344.54</ele>
        <time>2016-04-29T10:44:33Z</time>
      </trkpt>
      <trkpt lat="45.01565" lon="5.49627">
        <ele>1344.54</ele>
        <time>2016-04-29T10:44:34Z</time>
      </trkpt>
      <trkpt lat="45.01564" lon="5.49627">
        <ele>1344.54</ele>
        <time>2016-04-29T10:44:35Z</time>
      </trkpt>
      <trkpt lat="45.01556" lon="5.49633">
        <ele>1343.1</ele>
        <time>2016-04-29T10:44:37Z</time>
      </trkpt>
      <trkpt lat="45.01545" lon="5.4964">
        <ele>1341.66</ele>
        <time>2016-04-29T10:44:39Z</time>
      </trkpt>
      <trkpt lat="45.01516" lon="5.49659">
        <ele>1338.77</ele>
        <time>2016-04-29T10:44:44Z</time>
      </trkpt>
      <trkpt lat="45.01491" lon="5.49665">
        <ele>1339.73</ele>
        <time>2016-04-29T10:44:48Z</time>
      </trkpt>
      <trkpt lat="45.01485" lon="5.49666">
        <ele>1339.73</ele>
        <time>2016-04-29T10:44:49Z</time>
      </trkpt>
      <trkpt lat="45.01471" lon="5.49676">
        <ele>1338.29</ele>
        <time>2016-04-29T10:44:52Z</time>
      </trkpt>
      <trkpt lat="45.01442" lon="5.49703">
        <ele>1334.93</ele>
        <time>2016-04-29T10:44:57Z</time>
      </trkpt>
      <trkpt lat="45.01425" lon="5.4972">
        <ele>1333.97</ele>
        <time>2016-04-29T10:45:00Z</time>
      </trkpt>
      <trkpt lat="45.01413" lon="5.4973">
        <ele>1333.49</ele>
        <time>2016-04-29T10:45:02Z</time>
      </trkpt>
      <trkpt lat="45.01398" lon="5.49736">
        <ele>1335.89</ele>
        <time>2016-04-29T10:45:06Z</time>
      </trkpt>
      <trkpt lat="45.01388" lon="5.49737">
        <ele>1335.89</ele>
        <time>2016-04-29T10:45:08Z</time>
      </trkpt>
      <trkpt lat="45.01383" lon="5.49738">
        <ele>1335.41</ele>
        <time>2016-04-29T10:45:09Z</time>
      </trkpt>
      <trkpt lat="45.01379" lon="5.49741">
        <ele>1335.89</ele>
        <time>2016-04-29T10:45:10Z</time>
      </trkpt>
      <trkpt lat="45.01324" lon="5.4978">
        <ele>1338.29</ele>
        <time>2016-04-29T10:45:23Z</time>
      </trkpt>
      <trkpt lat="45.01302" lon="5.49792">
        <ele>1338.29</ele>
        <time>2016-04-29T10:45:29Z</time>
      </trkpt>
      <trkpt lat="45.01298" lon="5.49796">
        <ele>1337.81</ele>
        <time>2016-04-29T10:45:30Z</time>
      </trkpt>
      <trkpt lat="45.0129" lon="5.49804">
        <ele>1337.81</ele>
        <time>2016-04-29T10:45:32Z</time>
      </trkpt>
      <trkpt lat="45.01288" lon="5.4981">
        <ele>1337.81</ele>
        <time>2016-04-29T10:45:33Z</time>
      </trkpt>
      <trkpt lat="45.01287" lon="5.49816">
        <ele>1338.29</ele>
        <time>2016-04-29T10:45:34Z</time>
      </trkpt>
      <trkpt lat="45.01285" lon="5.49822">
        <ele>1338.29</ele>
        <time>2016-04-29T10:45:35Z</time>
      </trkpt>
      <trkpt lat="45.01283" lon="5.49828">
        <ele>1337.81</ele>
        <time>2016-04-29T10:45:36Z</time>
      </trkpt>
      <trkpt lat="45.0128" lon="5.49833">
        <ele>1337.81</ele>
        <time>2016-04-29T10:45:37Z</time>
      </trkpt>
      <trkpt lat="45.01276" lon="5.49837">
        <ele>1337.81</ele>
        <time>2016-04-29T10:45:38Z</time>
      </trkpt>
      <trkpt lat="45.01272" lon="5.4984">
        <ele>1337.81</ele>
        <time>2016-04-29T10:45:39Z</time>
      </trkpt>
      <trkpt lat="45.01268" lon="5.49844">
        <ele>1337.81</ele>
        <time>2016-04-29T10:45:40Z</time>
      </trkpt>
      <trkpt lat="45.01261" lon="5.49851">
        <ele>1338.29</ele>
        <time>2016-04-29T10:45:42Z</time>
      </trkpt>
      <trkpt lat="45.01257" lon="5.49855">
        <ele>1338.77</ele>
        <time>2016-04-29T10:45:43Z</time>
      </trkpt>
      <trkpt lat="45.01254" lon="5.49858">
        <ele>1339.25</ele>
        <time>2016-04-29T10:45:44Z</time>
      </trkpt>
      <trkpt lat="45.01251" lon="5.4986">
        <ele>1339.25</ele>
        <time>2016-04-29T10:45:45Z</time>
      </trkpt>
      <trkpt lat="45.01248" lon="5.49861">
        <ele>1339.73</ele>
        <time>2016-04-29T10:45:46Z</time>
      </trkpt>
      <trkpt lat="45.01245" lon="5.49863">
        <ele>1339.73</ele>
        <time>2016-04-29T10:45:47Z</time>
      </trkpt>
      <trkpt lat="45.01242" lon="5.49864">
        <ele>1339.73</ele>
        <time>2016-04-29T10:45:48Z</time>
      </trkpt>
      <trkpt lat="45.01238" lon="5.49865">
        <ele>1339.73</ele>
        <time>2016-04-29T10:45:49Z</time>
      </trkpt>
      <trkpt lat="45.01235" lon="5.49865">
        <ele>1339.73</ele>
        <time>2016-04-29T10:45:50Z</time>
      </trkpt>
      <trkpt lat="45.01233" lon="5.49866">
        <ele>1340.22</ele>
        <time>2016-04-29T10:45:51Z</time>
      </trkpt>
      <trkpt lat="45.01231" lon="5.49866">
        <ele>1340.7</ele>
        <time>2016-04-29T10:45:52Z</time>
      </trkpt>
      <trkpt lat="45.01229" lon="5.49867">
        <ele>1341.18</ele>
        <time>2016-04-29T10:45:53Z</time>
      </trkpt>
      <trkpt lat="45.01214" lon="5.49867">
        <ele>1342.62</ele>
        <time>2016-04-29T10:46:01Z</time>
      </trkpt>
      <trkpt lat="45.01213" lon="5.49866">
        <ele>1343.1</ele>
        <time>2016-04-29T10:46:02Z</time>
      </trkpt>
      <trkpt lat="45.01211" lon="5.49864">
        <ele>1343.1</ele>
        <time>2016-04-29T10:46:03Z</time>
      </trkpt>
      <trkpt lat="45.0121" lon="5.49863">
        <ele>1343.58</ele>
        <time>2016-04-29T10:46:04Z</time>
      </trkpt>
      <trkpt lat="45.01208" lon="5.49861">
        <ele>1344.06</ele>
        <time>2016-04-29T10:46:05Z</time>
      </trkpt>
      <trkpt lat="45.01207" lon="5.49859">
        <ele>1344.54</ele>
        <time>2016-04-29T10:46:06Z</time>
      </trkpt>
      <trkpt lat="45.01207" lon="5.49856">
        <ele>1344.54</ele>
        <time>2016-04-29T10:46:07Z</time>
      </trkpt>
      <trkpt lat="45.01204" lon="5.49831">
        <ele>1346.94</ele>
        <time>2016-04-29T10:46:17Z</time>
      </trkpt>
      <trkpt lat="45.01204" lon="5.49828">
        <ele>1346.94</ele>
        <time>2016-04-29T10:46:18Z</time>
      </trkpt>
      <trkpt lat="45.01203" lon="5.49826">
        <ele>1346.94</ele>
        <time>2016-04-29T10:46:19Z</time>
      </trkpt>
      <trkpt lat="45.01203" lon="5.49823">
        <ele>1345.98</ele>
        <time>2016-04-29T10:46:20Z</time>
      </trkpt>
      <trkpt lat="45.01203" lon="5.4982">
        <ele>1345.98</ele>
        <time>2016-04-29T10:46:21Z</time>
      </trkpt>
      <trkpt lat="45.01204" lon="5.49816">
        <ele>1345.02</ele>
        <time>2016-04-29T10:46:22Z</time>
      </trkpt>
      <trkpt lat="45.01204" lon="5.49812">
        <ele>1345.02</ele>
        <time>2016-04-29T10:46:23Z</time>
      </trkpt>
      <trkpt lat="45.01203" lon="5.49807">
        <ele>1344.54</ele>
        <time>2016-04-29T10:46:24Z</time>
      </trkpt>
      <trkpt lat="45.01202" lon="5.49801">
        <ele>1344.06</ele>
        <time>2016-04-29T10:46:25Z</time>
      </trkpt>
      <trkpt lat="45.01201" lon="5.49794">
        <ele>1344.06</ele>
        <time>2016-04-29T10:46:26Z</time>
      </trkpt>
      <trkpt lat="45.01196" lon="5.49784">
        <ele>1343.58</ele>
        <time>2016-04-29T10:46:27Z</time>
      </trkpt>
      <trkpt lat="45.0119" lon="5.49774">
        <ele>1343.58</ele>
        <time>2016-04-29T10:46:28Z</time>
      </trkpt>
      <trkpt lat="45.01173" lon="5.49748">
        <ele>1342.62</ele>
        <time>2016-04-29T10:46:31Z</time>
      </trkpt>
      <trkpt lat="45.01169" lon="5.49744">
        <ele>1343.1</ele>
        <time>2016-04-29T10:46:32Z</time>
      </trkpt>
      <trkpt lat="45.01162" lon="5.49737">
        <ele>1343.58</ele>
        <time>2016-04-29T10:46:34Z</time>
      </trkpt>
      <trkpt lat="45.01158" lon="5.49734">
        <ele>1344.06</ele>
        <time>2016-04-29T10:46:35Z</time>
      </trkpt>
      <trkpt lat="45.01127" lon="5.49723">
        <ele>1346.46</ele>
        <time>2016-04-29T10:46:46Z</time>
      </trkpt>
      <trkpt lat="45.01104" lon="5.49712">
        <ele>1347.43</ele>
        <time>2016-04-29T10:46:55Z</time>
      </trkpt>
      <trkpt lat="45.0108" lon="5.49702">
        <ele>1349.83</ele>
        <time>2016-04-29T10:47:04Z</time>
      </trkpt>
      <trkpt lat="45.01055" lon="5.49702">
        <ele>1352.71</ele>
        <time>2016-04-29T10:47:16Z</time>
      </trkpt>
      <trkpt lat="45.01054" lon="5.49703">
        <ele>1352.71</ele>
        <time>2016-04-29T10:47:17Z</time>
      </trkpt>
      <trkpt lat="45.01045" lon="5.49702">
        <ele>1353.19</ele>
        <time>2016-04-29T10:47:21Z</time>
      </trkpt>
      <trkpt lat="45.01044" lon="5.49702">
        <ele>1353.19</ele>
        <time>2016-04-29T10:47:22Z</time>
      </trkpt>
      <trkpt lat="45.01042" lon="5.49701">
        <ele>1353.67</ele>
        <time>2016-04-29T10:47:23Z</time>
      </trkpt>
      <trkpt lat="45.0104" lon="5.497">
        <ele>1353.67</ele>
        <time>2016-04-29T10:47:24Z</time>
      </trkpt>
      <trkpt lat="45.01038" lon="5.49699">
        <ele>1354.15</ele>
        <time>2016-04-29T10:47:25Z</time>
      </trkpt>
      <trkpt lat="45.01014" lon="5.49686">
        <ele>1354.63</ele>
        <time>2016-04-29T10:47:37Z</time>
      </trkpt>
      <trkpt lat="45.0101" lon="5.49683">
        <ele>1354.15</ele>
        <time>2016-04-29T10:47:38Z</time>
      </trkpt>
      <trkpt lat="45.01006" lon="5.49682">
        <ele>1354.15</ele>
        <time>2016-04-29T10:47:39Z</time>
      </trkpt>
      <trkpt lat="45.01003" lon="5.49682">
        <ele>1354.15</ele>
        <time>2016-04-29T10:47:40Z</time>
      </trkpt>
      <trkpt lat="45.00966" lon="5.49683">
        <ele>1353.19</ele>
        <time>2016-04-29T10:47:51Z</time>
      </trkpt>
      <trkpt lat="45.00948" lon="5.49684">
        <ele>1353.19</ele>
        <time>2016-04-29T10:47:56Z</time>
      </trkpt>
      <trkpt lat="45.00946" lon="5.49685">
        <ele>1353.67</ele>
        <time>2016-04-29T10:47:57Z</time>
      </trkpt>
      <trkpt lat="45.00944" lon="5.49687">
        <ele>1353.67</ele>
        <time>2016-04-29T10:47:58Z</time>
      </trkpt>
      <trkpt lat="45.00941" lon="5.49687">
        <ele>1353.67</ele>
        <time>2016-04-29T10:47:59Z</time>
      </trkpt>
      <trkpt lat="45.00939" lon="5.49688">
        <ele>1354.15</ele>
        <time>2016-04-29T10:48:00Z</time>
      </trkpt>
      <trkpt lat="45.00936" lon="5.49689">
        <ele>1353.67</ele>
        <time>2016-04-29T10:48:01Z</time>
      </trkpt>
      <trkpt lat="45.00933" lon="5.49689">
        <ele>1354.15</ele>
        <time>2016-04-29T10:48:02Z</time>
      </trkpt>
      <trkpt lat="45.00927" lon="5.49692">
        <ele>1353.67</ele>
        <time>2016-04-29T10:48:04Z</time>
      </trkpt>
      <trkpt lat="45.00925" lon="5.49692">
        <ele>1353.67</ele>
        <time>2016-04-29T10:48:05Z</time>
      </trkpt>
      <trkpt lat="45.00922" lon="5.49693">
        <ele>1353.67</ele>
        <time>2016-04-29T10:48:06Z</time>
      </trkpt>
      <trkpt lat="45.0092" lon="5.49693">
        <ele>1353.67</ele>
        <time>2016-04-29T10:48:07Z</time>
      </trkpt>
      <trkpt lat="45.00919" lon="5.49693">
        <ele>1353.67</ele>
        <time>2016-04-29T10:48:08Z</time>
      </trkpt>
      <trkpt lat="45.00916" lon="5.49692">
        <ele>1353.67</ele>
        <time>2016-04-29T10:48:09Z</time>
      </trkpt>
      <trkpt lat="45.00914" lon="5.4969">
        <ele>1354.15</ele>
        <time>2016-04-29T10:48:10Z</time>
      </trkpt>
      <trkpt lat="45.00912" lon="5.49688">
        <ele>1354.63</ele>
        <time>2016-04-29T10:48:11Z</time>
      </trkpt>
      <trkpt lat="45.0091" lon="5.49688">
        <ele>1354.63</ele>
        <time>2016-04-29T10:48:12Z</time>
      </trkpt>
      <trkpt lat="45.00908" lon="5.49687">
        <ele>1354.63</ele>
        <time>2016-04-29T10:48:13Z</time>
      </trkpt>
      <trkpt lat="45.00905" lon="5.49686">
        <ele>1354.63</ele>
        <time>2016-04-29T10:48:14Z</time>
      </trkpt>
      <trkpt lat="45.00904" lon="5.49686">
        <ele>1355.12</ele>
        <time>2016-04-29T10:48:15Z</time>
      </trkpt>
      <trkpt lat="45.00902" lon="5.49684">
        <ele>1355.6</ele>
        <time>2016-04-29T10:48:16Z</time>
      </trkpt>
      <trkpt lat="45.00899" lon="5.49683">
        <ele>1355.6</ele>
        <time>2016-04-29T10:48:17Z</time>
      </trkpt>
      <trkpt lat="45.00897" lon="5.49681">
        <ele>1356.08</ele>
        <time>2016-04-29T10:48:18Z</time>
      </trkpt>
      <trkpt lat="45.00871" lon="5.49673">
        <ele>1358.96</ele>
        <time>2016-04-29T10:48:31Z</time>
      </trkpt>
      <trkpt lat="45.00855" lon="5.49667">
        <ele>1360.88</ele>
        <time>2016-04-29T10:48:39Z</time>
      </trkpt>
      <trkpt lat="45.00854" lon="5.49666">
        <ele>1360.88</ele>
        <time>2016-04-29T10:48:40Z</time>
      </trkpt>
      <trkpt lat="45.00853" lon="5.49665">
        <ele>1360.88</ele>
        <time>2016-04-29T10:48:41Z</time>
      </trkpt>
      <trkpt lat="45.00852" lon="5.49664">
        <ele>1361.36</ele>
        <time>2016-04-29T10:48:42Z</time>
      </trkpt>
      <trkpt lat="45.0085" lon="5.49663">
        <ele>1361.36</ele>
        <time>2016-04-29T10:48:43Z</time>
      </trkpt>
      <trkpt lat="45.00849" lon="5.49662">
        <ele>1361.84</ele>
        <time>2016-04-29T10:48:44Z</time>
      </trkpt>
      <trkpt lat="45.00848" lon="5.49661">
        <ele>1362.33</ele>
        <time>2016-04-29T10:48:45Z</time>
      </trkpt>
      <trkpt lat="45.00827" lon="5.49641">
        <ele>1364.25</ele>
        <time>2016-04-29T10:48:57Z</time>
      </trkpt>
      <trkpt lat="45.00815" lon="5.49617">
        <ele>1365.69</ele>
        <time>2016-04-29T10:49:08Z</time>
      </trkpt>
      <trkpt lat="45.00812" lon="5.49603">
        <ele>1367.13</ele>
        <time>2016-04-29T10:49:15Z</time>
      </trkpt>
      <trkpt lat="45.00811" lon="5.49601">
        <ele>1367.13</ele>
        <time>2016-04-29T10:49:16Z</time>
      </trkpt>
      <trkpt lat="45.0081" lon="5.49598">
        <ele>1367.13</ele>
        <time>2016-04-29T10:49:17Z</time>
      </trkpt>
      <trkpt lat="45.00809" lon="5.49595">
        <ele>1367.61</ele>
        <time>2016-04-29T10:49:18Z</time>
      </trkpt>
      <trkpt lat="45.00809" lon="5.49593">
        <ele>1367.61</ele>
        <time>2016-04-29T10:49:19Z</time>
      </trkpt>
      <trkpt lat="45.00802" lon="5.49582">
        <ele>1368.57</ele>
        <time>2016-04-29T10:49:24Z</time>
      </trkpt>
      <trkpt lat="45.008" lon="5.4958">
        <ele>1369.05</ele>
        <time>2016-04-29T10:49:25Z</time>
      </trkpt>
      <trkpt lat="45.00799" lon="5.49578">
        <ele>1369.54</ele>
        <time>2016-04-29T10:49:26Z</time>
      </trkpt>
      <trkpt lat="45.00798" lon="5.49576">
        <ele>1369.54</ele>
        <time>2016-04-29T10:49:27Z</time>
      </trkpt>
      <trkpt lat="45.00796" lon="5.49574">
        <ele>1369.54</ele>
        <time>2016-04-29T10:49:28Z</time>
      </trkpt>
      <trkpt lat="45.00795" lon="5.49573">
        <ele>1370.02</ele>
        <time>2016-04-29T10:49:29Z</time>
      </trkpt>
      <trkpt lat="45.00783" lon="5.49562">
        <ele>1372.42</ele>
        <time>2016-04-29T10:49:40Z</time>
      </trkpt>
      <trkpt lat="45.00782" lon="5.49561">
        <ele>1372.42</ele>
        <time>2016-04-29T10:49:41Z</time>
      </trkpt>
      <trkpt lat="45.00777" lon="5.49558">
        <ele>1372.9</ele>
        <time>2016-04-29T10:49:45Z</time>
      </trkpt>
      <trkpt lat="45.00752" lon="5.49545">
        <ele>1374.82</ele>
        <time>2016-04-29T10:49:58Z</time>
      </trkpt>
      <trkpt lat="45.0075" lon="5.49541">
        <ele>1375.3</ele>
        <time>2016-04-29T10:50:00Z</time>
      </trkpt>
      <trkpt lat="45.00748" lon="5.4953">
        <ele>1375.78</ele>
        <time>2016-04-29T10:50:05Z</time>
      </trkpt>
      <trkpt lat="45.00748" lon="5.49528">
        <ele>1375.78</ele>
        <time>2016-04-29T10:50:06Z</time>
      </trkpt>
      <trkpt lat="45.00749" lon="5.49526">
        <ele>1376.26</ele>
        <time>2016-04-29T10:50:07Z</time>
      </trkpt>
      <trkpt lat="45.00749" lon="5.49525">
        <ele>1376.26</ele>
        <time>2016-04-29T10:50:08Z</time>
      </trkpt>
      <trkpt lat="45.00751" lon="5.49524">
        <ele>1376.26</ele>
        <time>2016-04-29T10:50:09Z</time>
      </trkpt>
      <trkpt lat="45.00751" lon="5.49522">
        <ele>1376.26</ele>
        <time>2016-04-29T10:50:10Z</time>
      </trkpt>
      <trkpt lat="45.00752" lon="5.4952">
        <ele>1376.75</ele>
        <time>2016-04-29T10:50:11Z</time>
      </trkpt>
      <trkpt lat="45.00755" lon="5.49519">
        <ele>1376.75</ele>
        <time>2016-04-29T10:50:12Z</time>
      </trkpt>
      <trkpt lat="45.00757" lon="5.49519">
        <ele>1376.75</ele>
        <time>2016-04-29T10:50:13Z</time>
      </trkpt>
      <trkpt lat="45.00758" lon="5.49517">
        <ele>1377.23</ele>
        <time>2016-04-29T10:50:14Z</time>
      </trkpt>
      <trkpt lat="45.00778" lon="5.49497">
        <ele>1380.11</ele>
        <time>2016-04-29T10:50:27Z</time>
      </trkpt>
      <trkpt lat="45.00794" lon="5.49474">
        <ele>1381.55</ele>
        <time>2016-04-29T10:50:39Z</time>
      </trkpt>
      <trkpt lat="45.00813" lon="5.49447">
        <ele>1382.03</ele>
        <time>2016-04-29T10:50:51Z</time>
      </trkpt>
      <trkpt lat="45.00831" lon="5.49409">
        <ele>1382.03</ele>
        <time>2016-04-29T10:51:03Z</time>
      </trkpt>
      <trkpt lat="45.0085" lon="5.49372">
        <ele>1382.99</ele>
        <time>2016-04-29T10:51:16Z</time>
      </trkpt>
      <trkpt lat="45.00846" lon="5.49327">
        <ele>1384.44</ele>
        <time>2016-04-29T10:51:27Z</time>
      </trkpt>
      <trkpt lat="45.00838" lon="5.49292">
        <ele>1387.32</ele>
        <time>2016-04-29T10:51:38Z</time>
      </trkpt>
      <trkpt lat="45.00838" lon="5.49289">
        <ele>1387.32</ele>
        <time>2016-04-29T10:51:39Z</time>
      </trkpt>
      <trkpt lat="45.00848" lon="5.49293">
        <ele>1387.8</ele>
        <time>2016-04-29T10:51:41Z</time>
      </trkpt>
      <trkpt lat="45.0085" lon="5.4929">
        <ele>1388.28</ele>
        <time>2016-04-29T10:51:43Z</time>
      </trkpt>
      <trkpt lat="45.00867" lon="5.49298">
        <ele>1388.76</ele>
        <time>2016-04-29T10:51:46Z</time>
      </trkpt>
      <trkpt lat="45.00893" lon="5.49299">
        <ele>1390.68</ele>
        <time>2016-04-29T10:51:55Z</time>
      </trkpt>
      <trkpt lat="45.00921" lon="5.49295">
        <ele>1393.09</ele>
        <time>2016-04-29T10:52:09Z</time>
      </trkpt>
      <trkpt lat="45.00938" lon="5.49292">
        <ele>1395.01</ele>
        <time>2016-04-29T10:52:21Z</time>
      </trkpt>
      <trkpt lat="45.00949" lon="5.4929">
        <ele>1396.93</ele>
        <time>2016-04-29T10:52:33Z</time>
      </trkpt>
      <trkpt lat="45.00957" lon="5.4929">
        <ele>1397.89</ele>
        <time>2016-04-29T10:52:39Z</time>
      </trkpt>
      <trkpt lat="45.00974" lon="5.49283">
        <ele>1400.78</ele>
        <time>2016-04-29T10:52:53Z</time>
      </trkpt>
      <trkpt lat="45.00991" lon="5.49272">
        <ele>1403.18</ele>
        <time>2016-04-29T10:53:07Z</time>
      </trkpt>
      <trkpt lat="45.00997" lon="5.4927">
        <ele>1403.66</ele>
        <time>2016-04-29T10:53:11Z</time>
      </trkpt>
      <trkpt lat="45.00999" lon="5.49268">
        <ele>1404.14</ele>
        <time>2016-04-29T10:53:13Z</time>
      </trkpt>
      <trkpt lat="45.01018" lon="5.4925">
        <ele>1406.07</ele>
        <time>2016-04-29T10:53:28Z</time>
      </trkpt>
      <trkpt lat="45.01025" lon="5.4924">
        <ele>1407.03</ele>
        <time>2016-04-29T10:53:34Z</time>
      </trkpt>
      <trkpt lat="45.01027" lon="5.49238">
        <ele>1407.03</ele>
        <time>2016-04-29T10:53:36Z</time>
      </trkpt>
      <trkpt lat="45.01027" lon="5.49227">
        <ele>1407.51</ele>
        <time>2016-04-29T10:53:41Z</time>
      </trkpt>
      <trkpt lat="45.01028" lon="5.49222">
        <ele>1407.99</ele>
        <time>2016-04-29T10:53:43Z</time>
      </trkpt>
      <trkpt lat="45.01034" lon="5.49214">
        <ele>1408.95</ele>
        <time>2016-04-29T10:53:49Z</time>
      </trkpt>
      <trkpt lat="45.01039" lon="5.4921">
        <ele>1409.43</ele>
        <time>2016-04-29T10:53:53Z</time>
      </trkpt>
      <trkpt lat="45.01042" lon="5.49201">
        <ele>1410.39</ele>
        <time>2016-04-29T10:53:58Z</time>
      </trkpt>
      <trkpt lat="45.01047" lon="5.49192">
        <ele>1411.35</ele>
        <time>2016-04-29T10:54:04Z</time>
      </trkpt>
      <trkpt lat="45.01046" lon="5.49174">
        <ele>1412.79</ele>
        <time>2016-04-29T10:54:13Z</time>
      </trkpt>
      <trkpt lat="45.01053" lon="5.49164">
        <ele>1413.76</ele>
        <time>2016-04-29T10:54:20Z</time>
      </trkpt>
      <trkpt lat="45.01057" lon="5.49158">
        <ele>1414.72</ele>
        <time>2016-04-29T10:54:24Z</time>
      </trkpt>
      <trkpt lat="45.01061" lon="5.49151">
        <ele>1414.72</ele>
        <time>2016-04-29T10:54:28Z</time>
      </trkpt>
      <trkpt lat="45.01077" lon="5.49138">
        <ele>1416.16</ele>
        <time>2016-04-29T10:54:40Z</time>
      </trkpt>
      <trkpt lat="45.01081" lon="5.49132">
        <ele>1416.64</ele>
        <time>2016-04-29T10:54:45Z</time>
      </trkpt>
      <trkpt lat="45.01092" lon="5.4912">
        <ele>1417.6</ele>
        <time>2016-04-29T10:54:52Z</time>
      </trkpt>
      <trkpt lat="45.01097" lon="5.49096">
        <ele>1420</ele>
        <time>2016-04-29T10:55:04Z</time>
      </trkpt>
      <trkpt lat="45.01095" lon="5.49084">
        <ele>1420.97</ele>
        <time>2016-04-29T10:55:11Z</time>
      </trkpt>
      <trkpt lat="45.01096" lon="5.49079">
        <ele>1420.97</ele>
        <time>2016-04-29T10:55:14Z</time>
      </trkpt>
      <trkpt lat="45.01092" lon="5.49054">
        <ele>1421.45</ele>
        <time>2016-04-29T10:55:24Z</time>
      </trkpt>
      <trkpt lat="45.01092" lon="5.49052">
        <ele>1421.45</ele>
        <time>2016-04-29T10:55:25Z</time>
      </trkpt>
      <trkpt lat="45.01097" lon="5.49037">
        <ele>1420.97</ele>
        <time>2016-04-29T10:55:33Z</time>
      </trkpt>
      <trkpt lat="45.011" lon="5.49043">
        <ele>1418.08</ele>
        <time>2016-04-29T10:55:38Z</time>
      </trkpt>
      <trkpt lat="45.01098" lon="5.49056">
        <ele>1415.2</ele>
        <time>2016-04-29T10:55:44Z</time>
      </trkpt>
      <trkpt lat="45.01027" lon="5.48962">
        <ele>1413.76</ele>
        <time>2016-04-29T10:55:48Z</time>
      </trkpt>
      <trkpt lat="45.01025" lon="5.48908">
        <ele>1413.28</ele>
        <time>2016-04-29T10:56:00Z</time>
      </trkpt>
      <trkpt lat="45.01021" lon="5.48849">
        <ele>1410.87</ele>
        <time>2016-04-29T10:56:11Z</time>
      </trkpt>
      <trkpt lat="45.01019" lon="5.48839">
        <ele>1410.87</ele>
        <time>2016-04-29T10:56:14Z</time>
      </trkpt>
      <trkpt lat="45.01019" lon="5.48833">
        <ele>1411.35</ele>
        <time>2016-04-29T10:56:17Z</time>
      </trkpt>
      <trkpt lat="45.01017" lon="5.48829">
        <ele>1410.87</ele>
        <time>2016-04-29T10:56:18Z</time>
      </trkpt>
      <trkpt lat="45.01016" lon="5.48825">
        <ele>1410.87</ele>
        <time>2016-04-29T10:56:19Z</time>
      </trkpt>
      <trkpt lat="45.01015" lon="5.48822">
        <ele>1410.39</ele>
        <time>2016-04-29T10:56:20Z</time>
      </trkpt>
      <trkpt lat="45.01014" lon="5.48819">
        <ele>1410.39</ele>
        <time>2016-04-29T10:56:21Z</time>
      </trkpt>
      <trkpt lat="45.01013" lon="5.48816">
        <ele>1410.39</ele>
        <time>2016-04-29T10:56:22Z</time>
      </trkpt>
      <trkpt lat="45.01004" lon="5.48798">
        <ele>1409.91</ele>
        <time>2016-04-29T10:56:28Z</time>
      </trkpt>
      <trkpt lat="45.01003" lon="5.48796">
        <ele>1409.91</ele>
        <time>2016-04-29T10:56:29Z</time>
      </trkpt>
      <trkpt lat="45.01001" lon="5.48793">
        <ele>1409.91</ele>
        <time>2016-04-29T10:56:30Z</time>
      </trkpt>
      <trkpt lat="45.00986" lon="5.48777">
        <ele>1408.47</ele>
        <time>2016-04-29T10:56:39Z</time>
      </trkpt>
      <trkpt lat="45.00983" lon="5.48773">
        <ele>1408.95</ele>
        <time>2016-04-29T10:56:42Z</time>
      </trkpt>
      <trkpt lat="45.00982" lon="5.48773">
        <ele>1408.95</ele>
        <time>2016-04-29T10:56:43Z</time>
      </trkpt>
      <trkpt lat="45.00979" lon="5.48773">
        <ele>1408.47</ele>
        <time>2016-04-29T10:56:44Z</time>
      </trkpt>
      <trkpt lat="45.00965" lon="5.48768">
        <ele>1407.03</ele>
        <time>2016-04-29T10:56:53Z</time>
      </trkpt>
      <trkpt lat="45.00963" lon="5.48768">
        <ele>1407.03</ele>
        <time>2016-04-29T10:56:54Z</time>
      </trkpt>
      <trkpt lat="45.0096" lon="5.48768">
        <ele>1407.03</ele>
        <time>2016-04-29T10:56:55Z</time>
      </trkpt>
      <trkpt lat="45.00957" lon="5.48768">
        <ele>1407.03</ele>
        <time>2016-04-29T10:56:56Z</time>
      </trkpt>
      <trkpt lat="45.00953" lon="5.48767">
        <ele>1407.51</ele>
        <time>2016-04-29T10:56:57Z</time>
      </trkpt>
      <trkpt lat="45.0095" lon="5.48766">
        <ele>1407.99</ele>
        <time>2016-04-29T10:56:58Z</time>
      </trkpt>
      <trkpt lat="45.00927" lon="5.48754">
        <ele>1410.87</ele>
        <time>2016-04-29T10:57:07Z</time>
      </trkpt>
      <trkpt lat="45.00897" lon="5.48759">
        <ele>1412.31</ele>
        <time>2016-04-29T10:57:18Z</time>
      </trkpt>
      <trkpt lat="45.00871" lon="5.48772">
        <ele>1411.83</ele>
        <time>2016-04-29T10:57:28Z</time>
      </trkpt>
      <trkpt lat="45.00841" lon="5.4879">
        <ele>1410.39</ele>
        <time>2016-04-29T10:57:38Z</time>
      </trkpt>
      <trkpt lat="45.00837" lon="5.48792">
        <ele>1409.91</ele>
        <time>2016-04-29T10:57:39Z</time>
      </trkpt>
      <trkpt lat="45.0083" lon="5.48796">
        <ele>1409.43</ele>
        <time>2016-04-29T10:57:41Z</time>
      </trkpt>
      <trkpt lat="45.00826" lon="5.48798">
        <ele>1409.43</ele>
        <time>2016-04-29T10:57:42Z</time>
      </trkpt>
      <trkpt lat="45.00796" lon="5.48805">
        <ele>1408.95</ele>
        <time>2016-04-29T10:57:49Z</time>
      </trkpt>
      <trkpt lat="45.00787" lon="5.48809">
        <ele>1407.99</ele>
        <time>2016-04-29T10:57:51Z</time>
      </trkpt>
      <trkpt lat="45.00778" lon="5.48814">
        <ele>1407.03</ele>
        <time>2016-04-29T10:57:53Z</time>
      </trkpt>
      <trkpt lat="45.0076" lon="5.48821">
        <ele>1406.07</ele>
        <time>2016-04-29T10:57:57Z</time>
      </trkpt>
      <trkpt lat="45.00738" lon="5.48838">
        <ele>1404.14</ele>
        <time>2016-04-29T10:58:01Z</time>
      </trkpt>
      <trkpt lat="45.00731" lon="5.48839">
        <ele>1402.7</ele>
        <time>2016-04-29T10:58:02Z</time>
      </trkpt>
      <trkpt lat="45.00725" lon="5.48837">
        <ele>1402.22</ele>
        <time>2016-04-29T10:58:03Z</time>
      </trkpt>
      <trkpt lat="45.00719" lon="5.48832">
        <ele>1401.74</ele>
        <time>2016-04-29T10:58:04Z</time>
      </trkpt>
      <trkpt lat="45.00715" lon="5.48825">
        <ele>1401.74</ele>
        <time>2016-04-29T10:58:05Z</time>
      </trkpt>
      <trkpt lat="45.00713" lon="5.48816">
        <ele>1401.26</ele>
        <time>2016-04-29T10:58:06Z</time>
      </trkpt>
      <trkpt lat="45.00711" lon="5.48807">
        <ele>1400.78</ele>
        <time>2016-04-29T10:58:07Z</time>
      </trkpt>
      <trkpt lat="45.0071" lon="5.48798">
        <ele>1400.78</ele>
        <time>2016-04-29T10:58:08Z</time>
      </trkpt>
      <trkpt lat="45.00709" lon="5.4879">
        <ele>1401.26</ele>
        <time>2016-04-29T10:58:09Z</time>
      </trkpt>
      <trkpt lat="45.00708" lon="5.48783">
        <ele>1401.26</ele>
        <time>2016-04-29T10:58:10Z</time>
      </trkpt>
      <trkpt lat="45.00704" lon="5.48764">
        <ele>1402.7</ele>
        <time>2016-04-29T10:58:13Z</time>
      </trkpt>
      <trkpt lat="45.00692" lon="5.48728">
        <ele>1406.07</ele>
        <time>2016-04-29T10:58:21Z</time>
      </trkpt>
      <trkpt lat="45.00683" lon="5.48698">
        <ele>1405.58</ele>
        <time>2016-04-29T10:58:28Z</time>
      </trkpt>
      <trkpt lat="45.00675" lon="5.48678">
        <ele>1404.62</ele>
        <time>2016-04-29T10:58:32Z</time>
      </trkpt>
      <trkpt lat="45.00672" lon="5.48674">
        <ele>1404.62</ele>
        <time>2016-04-29T10:58:33Z</time>
      </trkpt>
      <trkpt lat="45.0067" lon="5.48669">
        <ele>1404.62</ele>
        <time>2016-04-29T10:58:34Z</time>
      </trkpt>
      <trkpt lat="45.00668" lon="5.48666">
        <ele>1405.1</ele>
        <time>2016-04-29T10:58:35Z</time>
      </trkpt>
      <trkpt lat="45.00666" lon="5.48663">
        <ele>1405.58</ele>
        <time>2016-04-29T10:58:36Z</time>
      </trkpt>
      <trkpt lat="45.00664" lon="5.48661">
        <ele>1406.07</ele>
        <time>2016-04-29T10:58:37Z</time>
      </trkpt>
      <trkpt lat="45.00663" lon="5.48659">
        <ele>1406.07</ele>
        <time>2016-04-29T10:58:38Z</time>
      </trkpt>
      <trkpt lat="45.00649" lon="5.48645">
        <ele>1408.47</ele>
        <time>2016-04-29T10:58:47Z</time>
      </trkpt>
      <trkpt lat="45.00647" lon="5.48642">
        <ele>1408.47</ele>
        <time>2016-04-29T10:58:49Z</time>
      </trkpt>
      <trkpt lat="45.00646" lon="5.4864">
        <ele>1408.95</ele>
        <time>2016-04-29T10:58:50Z</time>
      </trkpt>
      <trkpt lat="45.00645" lon="5.48639">
        <ele>1408.95</ele>
        <time>2016-04-29T10:58:51Z</time>
      </trkpt>
      <trkpt lat="45.00644" lon="5.48637">
        <ele>1409.43</ele>
        <time>2016-04-29T10:58:52Z</time>
      </trkpt>
      <trkpt lat="45.00643" lon="5.48635">
        <ele>1409.43</ele>
        <time>2016-04-29T10:58:53Z</time>
      </trkpt>
      <trkpt lat="45.00625" lon="5.4861">
        <ele>1411.35</ele>
        <time>2016-04-29T10:59:06Z</time>
      </trkpt>
      <trkpt lat="45.00607" lon="5.48592">
        <ele>1413.28</ele>
        <time>2016-04-29T10:59:16Z</time>
      </trkpt>
      <trkpt lat="45.00606" lon="5.48591">
        <ele>1413.28</ele>
        <time>2016-04-29T10:59:17Z</time>
      </trkpt>
      <trkpt lat="45.00604" lon="5.48589">
        <ele>1413.28</ele>
        <time>2016-04-29T10:59:18Z</time>
      </trkpt>
      <trkpt lat="45.00602" lon="5.48587">
        <ele>1413.28</ele>
        <time>2016-04-29T10:59:19Z</time>
      </trkpt>
      <trkpt lat="45.006" lon="5.48585">
        <ele>1413.28</ele>
        <time>2016-04-29T10:59:20Z</time>
      </trkpt>
      <trkpt lat="45.00597" lon="5.48583">
        <ele>1413.28</ele>
        <time>2016-04-29T10:59:21Z</time>
      </trkpt>
      <trkpt lat="45.00595" lon="5.4858">
        <ele>1413.28</ele>
        <time>2016-04-29T10:59:22Z</time>
      </trkpt>
      <trkpt lat="45.00593" lon="5.48578">
        <ele>1412.79</ele>
        <time>2016-04-29T10:59:23Z</time>
      </trkpt>
      <trkpt lat="45.00591" lon="5.48577">
        <ele>1412.79</ele>
        <time>2016-04-29T10:59:24Z</time>
      </trkpt>
      <trkpt lat="45.00589" lon="5.48574">
        <ele>1412.79</ele>
        <time>2016-04-29T10:59:25Z</time>
      </trkpt>
      <trkpt lat="45.00588" lon="5.48571">
        <ele>1412.79</ele>
        <time>2016-04-29T10:59:26Z</time>
      </trkpt>
      <trkpt lat="45.00586" lon="5.48569">
        <ele>1412.79</ele>
        <time>2016-04-29T10:59:27Z</time>
      </trkpt>
      <trkpt lat="45.00553" lon="5.48538">
        <ele>1411.83</ele>
        <time>2016-04-29T10:59:38Z</time>
      </trkpt>
      <trkpt lat="45.0053" lon="5.48539">
        <ele>1414.24</ele>
        <time>2016-04-29T10:59:48Z</time>
      </trkpt>
      <trkpt lat="45.00521" lon="5.48538">
        <ele>1414.72</ele>
        <time>2016-04-29T10:59:54Z</time>
      </trkpt>
      <trkpt lat="45.00518" lon="5.48537">
        <ele>1415.2</ele>
        <time>2016-04-29T10:59:57Z</time>
      </trkpt>
      <trkpt lat="45.00516" lon="5.48537">
        <ele>1415.2</ele>
        <time>2016-04-29T10:59:58Z</time>
      </trkpt>
      <trkpt lat="45.00514" lon="5.48536">
        <ele>1415.2</ele>
        <time>2016-04-29T10:59:59Z</time>
      </trkpt>
      <trkpt lat="45.00511" lon="5.48536">
        <ele>1415.68</ele>
        <time>2016-04-29T11:00:00Z</time>
      </trkpt>
      <trkpt lat="45.00509" lon="5.48536">
        <ele>1415.68</ele>
        <time>2016-04-29T11:00:01Z</time>
      </trkpt>
      <trkpt lat="45.00506" lon="5.48536">
        <ele>1416.16</ele>
        <time>2016-04-29T11:00:02Z</time>
      </trkpt>
      <trkpt lat="45.00505" lon="5.48536">
        <ele>1416.16</ele>
        <time>2016-04-29T11:00:03Z</time>
      </trkpt>
      <trkpt lat="45.00502" lon="5.48535">
        <ele>1416.16</ele>
        <time>2016-04-29T11:00:04Z</time>
      </trkpt>
      <trkpt lat="45.00496" lon="5.48534">
        <ele>1418.08</ele>
        <time>2016-04-29T11:00:10Z</time>
      </trkpt>
      <trkpt lat="45.00494" lon="5.48535">
        <ele>1418.08</ele>
        <time>2016-04-29T11:00:11Z</time>
      </trkpt>
      <trkpt lat="45.00486" lon="5.48538">
        <ele>1419.04</ele>
        <time>2016-04-29T11:00:15Z</time>
      </trkpt>
      <trkpt lat="45.00484" lon="5.4854">
        <ele>1419.52</ele>
        <time>2016-04-29T11:00:16Z</time>
      </trkpt>
      <trkpt lat="45.00481" lon="5.48542">
        <ele>1419.52</ele>
        <time>2016-04-29T11:00:17Z</time>
      </trkpt>
      <trkpt lat="45.00478" lon="5.48543">
        <ele>1419.52</ele>
        <time>2016-04-29T11:00:18Z</time>
      </trkpt>
      <trkpt lat="45.00476" lon="5.48545">
        <ele>1419.52</ele>
        <time>2016-04-29T11:00:19Z</time>
      </trkpt>
      <trkpt lat="45.00468" lon="5.48551">
        <ele>1420.97</ele>
        <time>2016-04-29T11:00:26Z</time>
      </trkpt>
      <trkpt lat="45.00451" lon="5.48564">
        <ele>1422.41</ele>
        <time>2016-04-29T11:00:34Z</time>
      </trkpt>
      <trkpt lat="45.0045" lon="5.48565">
        <ele>1422.41</ele>
        <time>2016-04-29T11:00:35Z</time>
      </trkpt>
      <trkpt lat="45.0044" lon="5.48571">
        <ele>1423.37</ele>
        <time>2016-04-29T11:00:40Z</time>
      </trkpt>
      <trkpt lat="45.00439" lon="5.48572">
        <ele>1423.37</ele>
        <time>2016-04-29T11:00:41Z</time>
      </trkpt>
      <trkpt lat="45.00437" lon="5.48574">
        <ele>1423.37</ele>
        <time>2016-04-29T11:00:42Z</time>
      </trkpt>
      <trkpt lat="45.00436" lon="5.48576">
        <ele>1423.85</ele>
        <time>2016-04-29T11:00:43Z</time>
      </trkpt>
      <trkpt lat="45.00434" lon="5.48577">
        <ele>1423.85</ele>
        <time>2016-04-29T11:00:44Z</time>
      </trkpt>
      <trkpt lat="45.00419" lon="5.48588">
        <ele>1424.33</ele>
        <time>2016-04-29T11:00:54Z</time>
      </trkpt>
      <trkpt lat="45.00409" lon="5.48594">
        <ele>1424.81</ele>
        <time>2016-04-29T11:01:00Z</time>
      </trkpt>
      <trkpt lat="45.00407" lon="5.48596">
        <ele>1425.29</ele>
        <time>2016-04-29T11:01:01Z</time>
      </trkpt>
      <trkpt lat="45.00406" lon="5.48598">
        <ele>1425.29</ele>
        <time>2016-04-29T11:01:02Z</time>
      </trkpt>
      <trkpt lat="45.00388" lon="5.48605">
        <ele>1426.73</ele>
        <time>2016-04-29T11:01:12Z</time>
      </trkpt>
      <trkpt lat="45.00368" lon="5.48619">
        <ele>1427.7</ele>
        <time>2016-04-29T11:01:24Z</time>
      </trkpt>
      <trkpt lat="45.00366" lon="5.48622">
        <ele>1427.7</ele>
        <time>2016-04-29T11:01:25Z</time>
      </trkpt>
      <trkpt lat="45.00365" lon="5.48624">
        <ele>1427.7</ele>
        <time>2016-04-29T11:01:26Z</time>
      </trkpt>
      <trkpt lat="45.00364" lon="5.48626">
        <ele>1427.21</ele>
        <time>2016-04-29T11:01:27Z</time>
      </trkpt>
      <trkpt lat="45.00362" lon="5.48628">
        <ele>1427.21</ele>
        <time>2016-04-29T11:01:28Z</time>
      </trkpt>
      <trkpt lat="45.0036" lon="5.48631">
        <ele>1426.73</ele>
        <time>2016-04-29T11:01:29Z</time>
      </trkpt>
      <trkpt lat="45.00357" lon="5.48635">
        <ele>1426.25</ele>
        <time>2016-04-29T11:01:30Z</time>
      </trkpt>
      <trkpt lat="45.00337" lon="5.48668">
        <ele>1428.18</ele>
        <time>2016-04-29T11:01:41Z</time>
      </trkpt>
      <trkpt lat="45.00336" lon="5.4867">
        <ele>1428.18</ele>
        <time>2016-04-29T11:01:42Z</time>
      </trkpt>
      <trkpt lat="45.00319" lon="5.48686">
        <ele>1429.62</ele>
        <time>2016-04-29T11:01:52Z</time>
      </trkpt>
      <trkpt lat="45.00304" lon="5.48693">
        <ele>1431.06</ele>
        <time>2016-04-29T11:02:01Z</time>
      </trkpt>
      <trkpt lat="45.00303" lon="5.48694">
        <ele>1431.06</ele>
        <time>2016-04-29T11:02:02Z</time>
      </trkpt>
      <trkpt lat="45.00282" lon="5.48702">
        <ele>1432.5</ele>
        <time>2016-04-29T11:02:14Z</time>
      </trkpt>
      <trkpt lat="45.00274" lon="5.487">
        <ele>1432.98</ele>
        <time>2016-04-29T11:02:26Z</time>
      </trkpt>
      <trkpt lat="45.00273" lon="5.48699">
        <ele>1433.46</ele>
        <time>2016-04-29T11:02:47Z</time>
      </trkpt>
      <trkpt lat="45.00273" lon="5.487">
        <ele>1432.98</ele>
        <time>2016-04-29T11:03:04Z</time>
      </trkpt>
      <trkpt lat="45.00275" lon="5.48701">
        <ele>1433.46</ele>
        <time>2016-04-29T11:03:35Z</time>
      </trkpt>
      <trkpt lat="45.00274" lon="5.48703">
        <ele>1433.46</ele>
        <time>2016-04-29T11:04:04Z</time>
      </trkpt>
      <trkpt lat="45.00273" lon="5.48703">
        <ele>1433.46</ele>
        <time>2016-04-29T11:04:37Z</time>
      </trkpt>
      <trkpt lat="45.00271" lon="5.48703">
        <ele>1432.98</ele>
        <time>2016-04-29T11:05:11Z</time>
      </trkpt>
      <trkpt lat="45.00271" lon="5.48704">
        <ele>1433.46</ele>
        <time>2016-04-29T11:05:40Z</time>
      </trkpt>
      <trkpt lat="45.00269" lon="5.48707">
        <ele>1433.46</ele>
        <time>2016-04-29T11:06:10Z</time>
      </trkpt>
      <trkpt lat="45.0027" lon="5.48707">
        <ele>1433.46</ele>
        <time>2016-04-29T11:06:41Z</time>
      </trkpt>
      <trkpt lat="45.0027" lon="5.48707">
        <ele>1433.94</ele>
        <time>2016-04-29T11:07:11Z</time>
      </trkpt>
      <trkpt lat="45.00271" lon="5.4871">
        <ele>1434.42</ele>
        <time>2016-04-29T11:07:48Z</time>
      </trkpt>
      <trkpt lat="45.0027" lon="5.48713">
        <ele>1434.42</ele>
        <time>2016-04-29T11:08:24Z</time>
      </trkpt>
      <trkpt lat="45.00269" lon="5.48713">
        <ele>1434.42</ele>
        <time>2016-04-29T11:08:54Z</time>
      </trkpt>
      <trkpt lat="45.00269" lon="5.48713">
        <ele>1434.42</ele>
        <time>2016-04-29T11:09:22Z</time>
      </trkpt>
      <trkpt lat="45.00268" lon="5.48711">
        <ele>1434.42</ele>
        <time>2016-04-29T11:09:44Z</time>
      </trkpt>
      <trkpt lat="45.00269" lon="5.48712">
        <ele>1434.91</ele>
        <time>2016-04-29T11:10:14Z</time>
      </trkpt>
      <trkpt lat="45.00268" lon="5.48712">
        <ele>1434.91</ele>
        <time>2016-04-29T11:10:40Z</time>
      </trkpt>
      <trkpt lat="45.00269" lon="5.48714">
        <ele>1434.91</ele>
        <time>2016-04-29T11:11:13Z</time>
      </trkpt>
      <trkpt lat="45.00269" lon="5.48716">
        <ele>1434.91</ele>
        <time>2016-04-29T11:11:47Z</time>
      </trkpt>
      <trkpt lat="45.00268" lon="5.48717">
        <ele>1434.91</ele>
        <time>2016-04-29T11:12:23Z</time>
      </trkpt>
      <trkpt lat="45.00267" lon="5.48717">
        <ele>1435.39</ele>
        <time>2016-04-29T11:12:59Z</time>
      </trkpt>
      <trkpt lat="45.00266" lon="5.48719">
        <ele>1435.87</ele>
        <time>2016-04-29T11:13:32Z</time>
      </trkpt>
      <trkpt lat="45.00266" lon="5.48719">
        <ele>1436.35</ele>
        <time>2016-04-29T11:13:57Z</time>
      </trkpt>
      <trkpt lat="45.00266" lon="5.4872">
        <ele>1436.35</ele>
        <time>2016-04-29T11:14:23Z</time>
      </trkpt>
      <trkpt lat="45.00265" lon="5.48719">
        <ele>1435.87</ele>
        <time>2016-04-29T11:14:54Z</time>
      </trkpt>
      <trkpt lat="45.00264" lon="5.4872">
        <ele>1435.87</ele>
        <time>2016-04-29T11:15:25Z</time>
      </trkpt>
      <trkpt lat="45.00264" lon="5.4872">
        <ele>1436.83</ele>
        <time>2016-04-29T11:15:53Z</time>
      </trkpt>
      <trkpt lat="45.00264" lon="5.48721">
        <ele>1436.83</ele>
        <time>2016-04-29T11:16:25Z</time>
      </trkpt>
      <trkpt lat="45.00263" lon="5.48722">
        <ele>1436.83</ele>
        <time>2016-04-29T11:16:56Z</time>
      </trkpt>
      <trkpt lat="45.00264" lon="5.48722">
        <ele>1437.31</ele>
        <time>2016-04-29T11:17:27Z</time>
      </trkpt>
      <trkpt lat="45.00264" lon="5.48723">
        <ele>1437.31</ele>
        <time>2016-04-29T11:18:03Z</time>
      </trkpt>
      <trkpt lat="45.00263" lon="5.48722">
        <ele>1437.79</ele>
        <time>2016-04-29T11:18:33Z</time>
      </trkpt>
      <trkpt lat="45.00265" lon="5.48723">
        <ele>1437.79</ele>
        <time>2016-04-29T11:19:02Z</time>
      </trkpt>
      <trkpt lat="45.00266" lon="5.48724">
        <ele>1437.31</ele>
        <time>2016-04-29T11:19:36Z</time>
      </trkpt>
      <trkpt lat="45.00269" lon="5.48724">
        <ele>1437.79</ele>
        <time>2016-04-29T11:20:04Z</time>
      </trkpt>
      <trkpt lat="45.00269" lon="5.48721">
        <ele>1437.79</ele>
        <time>2016-04-29T11:20:38Z</time>
      </trkpt>
      <trkpt lat="45.0027" lon="5.48719">
        <ele>1437.79</ele>
        <time>2016-04-29T11:21:07Z</time>
      </trkpt>
      <trkpt lat="45.00269" lon="5.4872">
        <ele>1438.27</ele>
        <time>2016-04-29T11:21:31Z</time>
      </trkpt>
      <trkpt lat="45.00269" lon="5.48721">
        <ele>1438.27</ele>
        <time>2016-04-29T11:22:00Z</time>
      </trkpt>
      <trkpt lat="45.00269" lon="5.4872">
        <ele>1438.27</ele>
        <time>2016-04-29T11:22:33Z</time>
      </trkpt>
      <trkpt lat="45.00268" lon="5.4872">
        <ele>1438.27</ele>
        <time>2016-04-29T11:22:55Z</time>
      </trkpt>
      <trkpt lat="45.00269" lon="5.4872">
        <ele>1438.27</ele>
        <time>2016-04-29T11:23:21Z</time>
      </trkpt>
      <trkpt lat="45.00268" lon="5.48721">
        <ele>1438.27</ele>
        <time>2016-04-29T11:23:55Z</time>
      </trkpt>
      <trkpt lat="45.00267" lon="5.48721">
        <ele>1438.27</ele>
        <time>2016-04-29T11:24:26Z</time>
      </trkpt>
      <trkpt lat="45.00269" lon="5.48719">
        <ele>1437.79</ele>
        <time>2016-04-29T11:24:55Z</time>
      </trkpt>
      <trkpt lat="45.0027" lon="5.4872">
        <ele>1438.27</ele>
        <time>2016-04-29T11:25:25Z</time>
      </trkpt>
      <trkpt lat="45.00271" lon="5.48719">
        <ele>1438.27</ele>
        <time>2016-04-29T11:25:53Z</time>
      </trkpt>
      <trkpt lat="45.00271" lon="5.48718">
        <ele>1438.27</ele>
        <time>2016-04-29T11:26:24Z</time>
      </trkpt>
      <trkpt lat="45.0027" lon="5.48719">
        <ele>1438.75</ele>
        <time>2016-04-29T11:26:54Z</time>
      </trkpt>
      <trkpt lat="45.0027" lon="5.48721">
        <ele>1438.27</ele>
        <time>2016-04-29T11:27:27Z</time>
      </trkpt>
      <trkpt lat="45.00271" lon="5.48722">
        <ele>1438.27</ele>
        <time>2016-04-29T11:27:59Z</time>
      </trkpt>
      <trkpt lat="45.00269" lon="5.48724">
        <ele>1438.27</ele>
        <time>2016-04-29T11:28:34Z</time>
      </trkpt>
      <trkpt lat="45.00268" lon="5.48725">
        <ele>1438.27</ele>
        <time>2016-04-29T11:29:11Z</time>
      </trkpt>
      <trkpt lat="45.00268" lon="5.48726">
        <ele>1438.75</ele>
        <time>2016-04-29T11:29:46Z</time>
      </trkpt>
      <trkpt lat="45.00269" lon="5.48726">
        <ele>1438.27</ele>
        <time>2016-04-29T11:30:21Z</time>
      </trkpt>
      <trkpt lat="45.00268" lon="5.48726">
        <ele>1438.27</ele>
        <time>2016-04-29T11:30:57Z</time>
      </trkpt>
      <trkpt lat="45.00269" lon="5.48726">
        <ele>1438.27</ele>
        <time>2016-04-29T11:31:32Z</time>
      </trkpt>
      <trkpt lat="45.00269" lon="5.48726">
        <ele>1438.27</ele>
        <time>2016-04-29T11:32:03Z</time>
      </trkpt>
      <trkpt lat="45.00269" lon="5.48725">
        <ele>1438.27</ele>
        <time>2016-04-29T11:32:37Z</time>
      </trkpt>
      <trkpt lat="45.0027" lon="5.48725">
        <ele>1438.27</ele>
        <time>2016-04-29T11:33:13Z</time>
      </trkpt>
      <trkpt lat="45.00273" lon="5.48723">
        <ele>1438.27</ele>
        <time>2016-04-29T11:33:46Z</time>
      </trkpt>
      <trkpt lat="45.00272" lon="5.48721">
        <ele>1437.79</ele>
        <time>2016-04-29T11:34:21Z</time>
      </trkpt>
      <trkpt lat="45.00271" lon="5.4872">
        <ele>1437.31</ele>
        <time>2016-04-29T11:34:53Z</time>
      </trkpt>
      <trkpt lat="45.0027" lon="5.48719">
        <ele>1437.79</ele>
        <time>2016-04-29T11:35:27Z</time>
      </trkpt>
      <trkpt lat="45.00269" lon="5.48718">
        <ele>1437.31</ele>
        <time>2016-04-29T11:35:57Z</time>
      </trkpt>
      <trkpt lat="45.0027" lon="5.48719">
        <ele>1437.31</ele>
        <time>2016-04-29T11:36:30Z</time>
      </trkpt>
      <trkpt lat="45.0027" lon="5.48718">
        <ele>1437.31</ele>
        <time>2016-04-29T11:37:03Z</time>
      </trkpt>
      <trkpt lat="45.00271" lon="5.48717">
        <ele>1437.31</ele>
        <time>2016-04-29T11:37:36Z</time>
      </trkpt>
      <trkpt lat="45.00271" lon="5.48718">
        <ele>1436.83</ele>
        <time>2016-04-29T11:38:14Z</time>
      </trkpt>
      <trkpt lat="45.0027" lon="5.48716">
        <ele>1436.35</ele>
        <time>2016-04-29T11:38:47Z</time>
      </trkpt>
      <trkpt lat="45.00271" lon="5.48716">
        <ele>1436.35</ele>
        <time>2016-04-29T11:39:22Z</time>
      </trkpt>
      <trkpt lat="45.00272" lon="5.48715">
        <ele>1436.35</ele>
        <time>2016-04-29T11:39:50Z</time>
      </trkpt>
      <trkpt lat="45.00271" lon="5.48714">
        <ele>1435.87</ele>
        <time>2016-04-29T11:40:23Z</time>
      </trkpt>
      <trkpt lat="45.00271" lon="5.48715">
        <ele>1435.87</ele>
        <time>2016-04-29T11:41:00Z</time>
      </trkpt>
      <trkpt lat="45.00272" lon="5.48714">
        <ele>1435.39</ele>
        <time>2016-04-29T11:41:33Z</time>
      </trkpt>
      <trkpt lat="45.00273" lon="5.48714">
        <ele>1434.91</ele>
        <time>2016-04-29T11:42:02Z</time>
      </trkpt>
      <trkpt lat="45.00273" lon="5.48714">
        <ele>1434.91</ele>
        <time>2016-04-29T11:42:31Z</time>
      </trkpt>
      <trkpt lat="45.00273" lon="5.48715">
        <ele>1434.42</ele>
        <time>2016-04-29T11:43:01Z</time>
      </trkpt>
      <trkpt lat="45.00274" lon="5.48709">
        <ele>1433.94</ele>
        <time>2016-04-29T11:43:14Z</time>
      </trkpt>
      <trkpt lat="45.00275" lon="5.48706">
        <ele>1433.94</ele>
        <time>2016-04-29T11:43:30Z</time>
      </trkpt>
      <trkpt lat="45.00275" lon="5.48705">
        <ele>1433.94</ele>
        <time>2016-04-29T11:43:59Z</time>
      </trkpt>
      <trkpt lat="45.00275" lon="5.48701">
        <ele>1433.46</ele>
        <time>2016-04-29T11:44:18Z</time>
      </trkpt>
      <trkpt lat="45.00276" lon="5.48698">
        <ele>1433.46</ele>
        <time>2016-04-29T11:44:50Z</time>
      </trkpt>
      <trkpt lat="45.00275" lon="5.48698">
        <ele>1433.94</ele>
        <time>2016-04-29T11:45:10Z</time>
      </trkpt>
      <trkpt lat="45.0027" lon="5.487">
        <ele>1433.94</ele>
        <time>2016-04-29T11:45:15Z</time>
      </trkpt>
      <trkpt lat="45.00261" lon="5.48698">
        <ele>1434.42</ele>
        <time>2016-04-29T11:45:25Z</time>
      </trkpt>
      <trkpt lat="45.00256" lon="5.48689">
        <ele>1435.39</ele>
        <time>2016-04-29T11:45:33Z</time>
      </trkpt>
      <trkpt lat="45.00255" lon="5.48678">
        <ele>1435.87</ele>
        <time>2016-04-29T11:45:38Z</time>
      </trkpt>
      <trkpt lat="45.00254" lon="5.48672">
        <ele>1436.83</ele>
        <time>2016-04-29T11:45:44Z</time>
      </trkpt>
      <trkpt lat="45.00254" lon="5.48658">
        <ele>1437.79</ele>
        <time>2016-04-29T11:45:50Z</time>
      </trkpt>
      <trkpt lat="45.00255" lon="5.4865">
        <ele>1438.75</ele>
        <time>2016-04-29T11:45:54Z</time>
      </trkpt>
      <trkpt lat="45.00253" lon="5.48626">
        <ele>1440.67</ele>
        <time>2016-04-29T11:46:06Z</time>
      </trkpt>
      <trkpt lat="45.00253" lon="5.4862">
        <ele>1441.15</ele>
        <time>2016-04-29T11:46:11Z</time>
      </trkpt>
      <trkpt lat="45.00257" lon="5.4861">
        <ele>1439.23</ele>
        <time>2016-04-29T11:46:14Z</time>
      </trkpt>
      <trkpt lat="45.00259" lon="5.48604">
        <ele>1438.27</ele>
        <time>2016-04-29T11:46:15Z</time>
      </trkpt>
      <trkpt lat="45.0026" lon="5.48597">
        <ele>1438.27</ele>
        <time>2016-04-29T11:46:16Z</time>
      </trkpt>
      <trkpt lat="45.00261" lon="5.48592">
        <ele>1437.79</ele>
        <time>2016-04-29T11:46:17Z</time>
      </trkpt>
      <trkpt lat="45.00262" lon="5.48587">
        <ele>1437.79</ele>
        <time>2016-04-29T11:46:18Z</time>
      </trkpt>
      <trkpt lat="45.00261" lon="5.48583">
        <ele>1437.79</ele>
        <time>2016-04-29T11:46:19Z</time>
      </trkpt>
      <trkpt lat="45.00261" lon="5.48579">
        <ele>1437.31</ele>
        <time>2016-04-29T11:46:20Z</time>
      </trkpt>
      <trkpt lat="45.0026" lon="5.48574">
        <ele>1436.35</ele>
        <time>2016-04-29T11:46:21Z</time>
      </trkpt>
      <trkpt lat="45.00258" lon="5.48553">
        <ele>1432.98</ele>
        <time>2016-04-29T11:46:25Z</time>
      </trkpt>
      <trkpt lat="45.00257" lon="5.48547">
        <ele>1432.02</ele>
        <time>2016-04-29T11:46:26Z</time>
      </trkpt>
      <trkpt lat="45.00255" lon="5.48541">
        <ele>1431.06</ele>
        <time>2016-04-29T11:46:27Z</time>
      </trkpt>
      <trkpt lat="45.00253" lon="5.48537">
        <ele>1430.58</ele>
        <time>2016-04-29T11:46:28Z</time>
      </trkpt>
      <trkpt lat="45.00252" lon="5.48532">
        <ele>1429.62</ele>
        <time>2016-04-29T11:46:29Z</time>
      </trkpt>
      <trkpt lat="45.00251" lon="5.48528">
        <ele>1429.14</ele>
        <time>2016-04-29T11:46:30Z</time>
      </trkpt>
      <trkpt lat="45.0025" lon="5.48519">
        <ele>1426.73</ele>
        <time>2016-04-29T11:46:32Z</time>
      </trkpt>
      <trkpt lat="45.00248" lon="5.48512">
        <ele>1425.77</ele>
        <time>2016-04-29T11:46:33Z</time>
      </trkpt>
      <trkpt lat="45.00245" lon="5.48505">
        <ele>1424.33</ele>
        <time>2016-04-29T11:46:34Z</time>
      </trkpt>
      <trkpt lat="45.00241" lon="5.485">
        <ele>1423.37</ele>
        <time>2016-04-29T11:46:35Z</time>
      </trkpt>
      <trkpt lat="45.00237" lon="5.48496">
        <ele>1422.89</ele>
        <time>2016-04-29T11:46:36Z</time>
      </trkpt>
      <trkpt lat="45.00233" lon="5.48494">
        <ele>1422.89</ele>
        <time>2016-04-29T11:46:37Z</time>
      </trkpt>
      <trkpt lat="45.00229" lon="5.48495">
        <ele>1422.89</ele>
        <time>2016-04-29T11:46:38Z</time>
      </trkpt>
      <trkpt lat="45.00226" lon="5.48497">
        <ele>1422.89</ele>
        <time>2016-04-29T11:46:39Z</time>
      </trkpt>
      <trkpt lat="45.00224" lon="5.48499">
        <ele>1422.89</ele>
        <time>2016-04-29T11:46:40Z</time>
      </trkpt>
      <trkpt lat="45.00223" lon="5.485">
        <ele>1422.41</ele>
        <time>2016-04-29T11:46:41Z</time>
      </trkpt>
      <trkpt lat="45.00222" lon="5.48501">
        <ele>1421.45</ele>
        <time>2016-04-29T11:46:42Z</time>
      </trkpt>
      <trkpt lat="45.0022" lon="5.48502">
        <ele>1420.49</ele>
        <time>2016-04-29T11:46:43Z</time>
      </trkpt>
      <trkpt lat="45.00218" lon="5.48506">
        <ele>1419.52</ele>
        <time>2016-04-29T11:46:45Z</time>
      </trkpt>
      <trkpt lat="45.00217" lon="5.48509">
        <ele>1418.56</ele>
        <time>2016-04-29T11:46:46Z</time>
      </trkpt>
      <trkpt lat="45.00215" lon="5.48514">
        <ele>1418.08</ele>
        <time>2016-04-29T11:46:47Z</time>
      </trkpt>
      <trkpt lat="45.00208" lon="5.48535">
        <ele>1415.68</ele>
        <time>2016-04-29T11:46:51Z</time>
      </trkpt>
      <trkpt lat="45.00203" lon="5.48543">
        <ele>1414.72</ele>
        <time>2016-04-29T11:46:53Z</time>
      </trkpt>
      <trkpt lat="45.002" lon="5.48546">
        <ele>1413.76</ele>
        <time>2016-04-29T11:46:54Z</time>
      </trkpt>
      <trkpt lat="45.00197" lon="5.48549">
        <ele>1413.28</ele>
        <time>2016-04-29T11:46:55Z</time>
      </trkpt>
      <trkpt lat="45.00195" lon="5.48551">
        <ele>1412.31</ele>
        <time>2016-04-29T11:46:56Z</time>
      </trkpt>
      <trkpt lat="45.00192" lon="5.48553">
        <ele>1410.87</ele>
        <time>2016-04-29T11:46:57Z</time>
      </trkpt>
      <trkpt lat="45.00189" lon="5.48555">
        <ele>1410.39</ele>
        <time>2016-04-29T11:46:58Z</time>
      </trkpt>
      <trkpt lat="45.00187" lon="5.48557">
        <ele>1409.91</ele>
        <time>2016-04-29T11:46:59Z</time>
      </trkpt>
      <trkpt lat="45.00184" lon="5.48558">
        <ele>1409.43</ele>
        <time>2016-04-29T11:47:00Z</time>
      </trkpt>
      <trkpt lat="45.00182" lon="5.48559">
        <ele>1408.47</ele>
        <time>2016-04-29T11:47:01Z</time>
      </trkpt>
      <trkpt lat="45.0018" lon="5.4856">
        <ele>1407.99</ele>
        <time>2016-04-29T11:47:02Z</time>
      </trkpt>
      <trkpt lat="45.00178" lon="5.4856">
        <ele>1407.03</ele>
        <time>2016-04-29T11:47:03Z</time>
      </trkpt>
      <trkpt lat="45.00176" lon="5.48561">
        <ele>1405.58</ele>
        <time>2016-04-29T11:47:04Z</time>
      </trkpt>
      <trkpt lat="45.00164" lon="5.48566">
        <ele>1403.18</ele>
        <time>2016-04-29T11:47:07Z</time>
      </trkpt>
      <trkpt lat="45.00156" lon="5.48572">
        <ele>1402.7</ele>
        <time>2016-04-29T11:47:08Z</time>
      </trkpt>
      <trkpt lat="45.00132" lon="5.48592">
        <ele>1401.74</ele>
        <time>2016-04-29T11:47:11Z</time>
      </trkpt>
      <trkpt lat="45.00126" lon="5.48599">
        <ele>1401.26</ele>
        <time>2016-04-29T11:47:12Z</time>
      </trkpt>
      <trkpt lat="45.00119" lon="5.48605">
        <ele>1400.78</ele>
        <time>2016-04-29T11:47:13Z</time>
      </trkpt>
      <trkpt lat="45.00115" lon="5.48611">
        <ele>1400.78</ele>
        <time>2016-04-29T11:47:14Z</time>
      </trkpt>
      <trkpt lat="45.0011" lon="5.48617">
        <ele>1400.78</ele>
        <time>2016-04-29T11:47:15Z</time>
      </trkpt>
      <trkpt lat="45.00105" lon="5.48622">
        <ele>1400.3</ele>
        <time>2016-04-29T11:47:16Z</time>
      </trkpt>
      <trkpt lat="45.001" lon="5.48627">
        <ele>1400.3</ele>
        <time>2016-04-29T11:47:17Z</time>
      </trkpt>
      <trkpt lat="45.00096" lon="5.48632">
        <ele>1400.3</ele>
        <time>2016-04-29T11:47:18Z</time>
      </trkpt>
      <trkpt lat="45.00072" lon="5.48657">
        <ele>1398.37</ele>
        <time>2016-04-29T11:47:23Z</time>
      </trkpt>
      <trkpt lat="45.00067" lon="5.4866">
        <ele>1397.89</ele>
        <time>2016-04-29T11:47:24Z</time>
      </trkpt>
      <trkpt lat="45.00062" lon="5.48664">
        <ele>1397.89</ele>
        <time>2016-04-29T11:47:25Z</time>
      </trkpt>
      <trkpt lat="45.00057" lon="5.48668">
        <ele>1397.41</ele>
        <time>2016-04-29T11:47:26Z</time>
      </trkpt>
      <trkpt lat="45.00052" lon="5.48671">
        <ele>1396.93</ele>
        <time>2016-04-29T11:47:27Z</time>
      </trkpt>
      <trkpt lat="45.00042" lon="5.48677">
        <ele>1395.97</ele>
        <time>2016-04-29T11:47:29Z</time>
      </trkpt>
      <trkpt lat="45.00038" lon="5.4868">
        <ele>1395.49</ele>
        <time>2016-04-29T11:47:30Z</time>
      </trkpt>
      <trkpt lat="45.00033" lon="5.48685">
        <ele>1395.49</ele>
        <time>2016-04-29T11:47:31Z</time>
      </trkpt>
      <trkpt lat="45.0003" lon="5.4869">
        <ele>1395.49</ele>
        <time>2016-04-29T11:47:32Z</time>
      </trkpt>
      <trkpt lat="45.00026" lon="5.48696">
        <ele>1395.01</ele>
        <time>2016-04-29T11:47:33Z</time>
      </trkpt>
      <trkpt lat="45.00022" lon="5.48702">
        <ele>1395.01</ele>
        <time>2016-04-29T11:47:34Z</time>
      </trkpt>
      <trkpt lat="45.00018" lon="5.48707">
        <ele>1395.01</ele>
        <time>2016-04-29T11:47:35Z</time>
      </trkpt>
      <trkpt lat="45.00014" lon="5.48713">
        <ele>1395.01</ele>
        <time>2016-04-29T11:47:36Z</time>
      </trkpt>
      <trkpt lat="45.00006" lon="5.48723">
        <ele>1395.01</ele>
        <time>2016-04-29T11:47:38Z</time>
      </trkpt>
      <trkpt lat="45.00003" lon="5.48727">
        <ele>1395.49</ele>
        <time>2016-04-29T11:47:39Z</time>
      </trkpt>
      <trkpt lat="45" lon="5.48731">
        <ele>1395.01</ele>
        <time>2016-04-29T11:47:40Z</time>
      </trkpt>
      <trkpt lat="44.99997" lon="5.48734">
        <ele>1395.01</ele>
        <time>2016-04-29T11:47:41Z</time>
      </trkpt>
      <trkpt lat="44.99995" lon="5.48736">
        <ele>1395.01</ele>
        <time>2016-04-29T11:47:42Z</time>
      </trkpt>
      <trkpt lat="44.99991" lon="5.48741">
        <ele>1394.53</ele>
        <time>2016-04-29T11:47:43Z</time>
      </trkpt>
      <trkpt lat="44.99986" lon="5.48745">
        <ele>1394.05</ele>
        <time>2016-04-29T11:47:44Z</time>
      </trkpt>
      <trkpt lat="44.99981" lon="5.48749">
        <ele>1393.57</ele>
        <time>2016-04-29T11:47:45Z</time>
      </trkpt>
      <trkpt lat="44.99975" lon="5.48753">
        <ele>1393.57</ele>
        <time>2016-04-29T11:47:46Z</time>
      </trkpt>
      <trkpt lat="44.9997" lon="5.48756">
        <ele>1393.09</ele>
        <time>2016-04-29T11:47:47Z</time>
      </trkpt>
      <trkpt lat="44.99965" lon="5.4876">
        <ele>1393.09</ele>
        <time>2016-04-29T11:47:48Z</time>
      </trkpt>
      <trkpt lat="44.9996" lon="5.48761">
        <ele>1393.09</ele>
        <time>2016-04-29T11:47:49Z</time>
      </trkpt>
      <trkpt lat="44.99955" lon="5.48761">
        <ele>1393.57</ele>
        <time>2016-04-29T11:47:50Z</time>
      </trkpt>
      <trkpt lat="44.99932" lon="5.48766">
        <ele>1393.09</ele>
        <time>2016-04-29T11:47:58Z</time>
      </trkpt>
      <trkpt lat="44.99931" lon="5.48765">
        <ele>1393.09</ele>
        <time>2016-04-29T11:47:59Z</time>
      </trkpt>
      <trkpt lat="44.99927" lon="5.48762">
        <ele>1393.09</ele>
        <time>2016-04-29T11:48:03Z</time>
      </trkpt>
      <trkpt lat="44.99925" lon="5.48754">
        <ele>1393.09</ele>
        <time>2016-04-29T11:48:16Z</time>
      </trkpt>
      <trkpt lat="44.99924" lon="5.48754">
        <ele>1393.57</ele>
        <time>2016-04-29T11:48:41Z</time>
      </trkpt>
      <trkpt lat="44.99925" lon="5.48752">
        <ele>1393.57</ele>
        <time>2016-04-29T11:49:06Z</time>
      </trkpt>
      <trkpt lat="44.99925" lon="5.48748">
        <ele>1394.05</ele>
        <time>2016-04-29T11:49:33Z</time>
      </trkpt>
      <trkpt lat="44.99924" lon="5.48746">
        <ele>1393.09</ele>
        <time>2016-04-29T11:49:59Z</time>
      </trkpt>
      <trkpt lat="44.99925" lon="5.48748">
        <ele>1393.09</ele>
        <time>2016-04-29T11:50:32Z</time>
      </trkpt>
      <trkpt lat="44.99924" lon="5.48751">
        <ele>1393.57</ele>
        <time>2016-04-29T11:51:04Z</time>
      </trkpt>
      <trkpt lat="44.99925" lon="5.48752">
        <ele>1393.09</ele>
        <time>2016-04-29T11:51:31Z</time>
      </trkpt>
      <trkpt lat="44.99926" lon="5.48751">
        <ele>1393.57</ele>
        <time>2016-04-29T11:52:00Z</time>
      </trkpt>
      <trkpt lat="44.99926" lon="5.48751">
        <ele>1393.57</ele>
        <time>2016-04-29T11:52:28Z</time>
      </trkpt>
      <trkpt lat="44.99926" lon="5.4875">
        <ele>1393.57</ele>
        <time>2016-04-29T11:52:32Z</time>
      </trkpt>
      <trkpt lat="44.99926" lon="5.48741">
        <ele>1392.61</ele>
        <time>2016-04-29T11:52:38Z</time>
      </trkpt>
      <trkpt lat="44.99925" lon="5.48739">
        <ele>1391.17</ele>
        <time>2016-04-29T11:52:39Z</time>
      </trkpt>
      <trkpt lat="44.99925" lon="5.48737">
        <ele>1394.05</ele>
        <time>2016-04-29T11:52:40Z</time>
      </trkpt>
      <trkpt lat="44.99924" lon="5.48735">
        <ele>1392.13</ele>
        <time>2016-04-29T11:52:41Z</time>
      </trkpt>
      <trkpt lat="44.99924" lon="5.48732">
        <ele>1392.61</ele>
        <time>2016-04-29T11:52:42Z</time>
      </trkpt>
      <trkpt lat="44.99924" lon="5.4873">
        <ele>1392.13</ele>
        <time>2016-04-29T11:52:43Z</time>
      </trkpt>
      <trkpt lat="44.99924" lon="5.48728">
        <ele>1391.65</ele>
        <time>2016-04-29T11:52:44Z</time>
      </trkpt>
      <trkpt lat="44.99924" lon="5.48721">
        <ele>1390.2</ele>
        <time>2016-04-29T11:52:47Z</time>
      </trkpt>
      <trkpt lat="44.99922" lon="5.48719">
        <ele>1391.65</ele>
        <time>2016-04-29T11:52:48Z</time>
      </trkpt>
      <trkpt lat="44.99921" lon="5.48716">
        <ele>1390.68</ele>
        <time>2016-04-29T11:52:49Z</time>
      </trkpt>
      <trkpt lat="44.9991" lon="5.48693">
        <ele>1392.13</ele>
        <time>2016-04-29T11:53:00Z</time>
      </trkpt>
      <trkpt lat="44.9991" lon="5.48679">
        <ele>1392.61</ele>
        <time>2016-04-29T11:53:06Z</time>
      </trkpt>
      <trkpt lat="44.99917" lon="5.48669">
        <ele>1393.57</ele>
        <time>2016-04-29T11:53:19Z</time>
      </trkpt>
      <trkpt lat="44.99923" lon="5.48661">
        <ele>1394.05</ele>
        <time>2016-04-29T11:53:28Z</time>
      </trkpt>
      <trkpt lat="44.99925" lon="5.4866">
        <ele>1394.05</ele>
        <time>2016-04-29T11:53:30Z</time>
      </trkpt>
      <trkpt lat="44.99926" lon="5.48658">
        <ele>1394.05</ele>
        <time>2016-04-29T11:53:31Z</time>
      </trkpt>
      <trkpt lat="44.99927" lon="5.48656">
        <ele>1394.05</ele>
        <time>2016-04-29T11:53:32Z</time>
      </trkpt>
      <trkpt lat="44.9993" lon="5.48653">
        <ele>1394.05</ele>
        <time>2016-04-29T11:53:34Z</time>
      </trkpt>
      <trkpt lat="44.99931" lon="5.48651">
        <ele>1394.05</ele>
        <time>2016-04-29T11:53:35Z</time>
      </trkpt>
      <trkpt lat="44.99933" lon="5.48648">
        <ele>1394.05</ele>
        <time>2016-04-29T11:53:36Z</time>
      </trkpt>
      <trkpt lat="44.99936" lon="5.48644">
        <ele>1394.53</ele>
        <time>2016-04-29T11:53:39Z</time>
      </trkpt>
      <trkpt lat="44.99938" lon="5.48642">
        <ele>1394.05</ele>
        <time>2016-04-29T11:53:41Z</time>
      </trkpt>
      <trkpt lat="44.99948" lon="5.48612">
        <ele>1396.93</ele>
        <time>2016-04-29T11:53:55Z</time>
      </trkpt>
      <trkpt lat="44.99955" lon="5.48599">
        <ele>1399.34</ele>
        <time>2016-04-29T11:54:08Z</time>
      </trkpt>
      <trkpt lat="44.99961" lon="5.48591">
        <ele>1402.22</ele>
        <time>2016-04-29T11:54:19Z</time>
      </trkpt>
      <trkpt lat="44.99966" lon="5.48587">
        <ele>1404.62</ele>
        <time>2016-04-29T11:54:28Z</time>
      </trkpt>
      <trkpt lat="44.9997" lon="5.48582">
        <ele>1406.55</ele>
        <time>2016-04-29T11:54:40Z</time>
      </trkpt>
      <trkpt lat="44.9997" lon="5.48577">
        <ele>1408.47</ele>
        <time>2016-04-29T11:54:52Z</time>
      </trkpt>
      <trkpt lat="44.99973" lon="5.48568">
        <ele>1410.39</ele>
        <time>2016-04-29T11:55:04Z</time>
      </trkpt>
      <trkpt lat="44.99979" lon="5.48555">
        <ele>1412.79</ele>
        <time>2016-04-29T11:55:17Z</time>
      </trkpt>
      <trkpt lat="44.99986" lon="5.48543">
        <ele>1414.72</ele>
        <time>2016-04-29T11:55:30Z</time>
      </trkpt>
      <trkpt lat="44.99992" lon="5.4853">
        <ele>1417.12</ele>
        <time>2016-04-29T11:55:43Z</time>
      </trkpt>
      <trkpt lat="44.99996" lon="5.48517">
        <ele>1418.56</ele>
        <time>2016-04-29T11:55:56Z</time>
      </trkpt>
      <trkpt lat="44.99998" lon="5.4851">
        <ele>1419.04</ele>
        <time>2016-04-29T11:56:06Z</time>
      </trkpt>
      <trkpt lat="45" lon="5.48485">
        <ele>1415.2</ele>
        <time>2016-04-29T11:56:15Z</time>
      </trkpt>
      <trkpt lat="45.00002" lon="5.48479">
        <ele>1414.24</ele>
        <time>2016-04-29T11:56:16Z</time>
      </trkpt>
      <trkpt lat="45.00007" lon="5.48464">
        <ele>1412.31</ele>
        <time>2016-04-29T11:56:18Z</time>
      </trkpt>
      <trkpt lat="45.00011" lon="5.48459">
        <ele>1411.83</ele>
        <time>2016-04-29T11:56:19Z</time>
      </trkpt>
      <trkpt lat="45.00015" lon="5.48456">
        <ele>1411.83</ele>
        <time>2016-04-29T11:56:20Z</time>
      </trkpt>
      <trkpt lat="45.00036" lon="5.48443">
        <ele>1412.79</ele>
        <time>2016-04-29T11:56:29Z</time>
      </trkpt>
      <trkpt lat="45.00058" lon="5.48429">
        <ele>1413.28</ele>
        <time>2016-04-29T11:56:41Z</time>
      </trkpt>
      <trkpt lat="45.00087" lon="5.48407">
        <ele>1411.83</ele>
        <time>2016-04-29T11:56:52Z</time>
      </trkpt>
      <trkpt lat="45.00112" lon="5.48383">
        <ele>1408.47</ele>
        <time>2016-04-29T11:56:59Z</time>
      </trkpt>
      <trkpt lat="45.00139" lon="5.48361">
        <ele>1405.1</ele>
        <time>2016-04-29T11:57:04Z</time>
      </trkpt>
      <trkpt lat="45.00166" lon="5.48338">
        <ele>1401.74</ele>
        <time>2016-04-29T11:57:08Z</time>
      </trkpt>
      <trkpt lat="45.00174" lon="5.48332">
        <ele>1400.78</ele>
        <time>2016-04-29T11:57:09Z</time>
      </trkpt>
      <trkpt lat="45.00182" lon="5.48327">
        <ele>1399.82</ele>
        <time>2016-04-29T11:57:10Z</time>
      </trkpt>
      <trkpt lat="45.00217" lon="5.48308">
        <ele>1395.97</ele>
        <time>2016-04-29T11:57:16Z</time>
      </trkpt>
      <trkpt lat="45.00223" lon="5.48304">
        <ele>1393.57</ele>
        <time>2016-04-29T11:57:17Z</time>
      </trkpt>
      <trkpt lat="45.00228" lon="5.483">
        <ele>1393.57</ele>
        <time>2016-04-29T11:57:18Z</time>
      </trkpt>
      <trkpt lat="45.00234" lon="5.48296">
        <ele>1392.61</ele>
        <time>2016-04-29T11:57:19Z</time>
      </trkpt>
      <trkpt lat="45.00239" lon="5.48292">
        <ele>1391.65</ele>
        <time>2016-04-29T11:57:20Z</time>
      </trkpt>
      <trkpt lat="45.00244" lon="5.48288">
        <ele>1391.65</ele>
        <time>2016-04-29T11:57:21Z</time>
      </trkpt>
      <trkpt lat="45.00278" lon="5.48268">
        <ele>1387.32</ele>
        <time>2016-04-29T11:57:26Z</time>
      </trkpt>
      <trkpt lat="45.00301" lon="5.48251">
        <ele>1383.96</ele>
        <time>2016-04-29T11:57:29Z</time>
      </trkpt>
      <trkpt lat="45.00326" lon="5.48235">
        <ele>1380.59</ele>
        <time>2016-04-29T11:57:32Z</time>
      </trkpt>
      <trkpt lat="45.00351" lon="5.48219">
        <ele>1377.23</ele>
        <time>2016-04-29T11:57:35Z</time>
      </trkpt>
      <trkpt lat="45.00378" lon="5.48205">
        <ele>1374.34</ele>
        <time>2016-04-29T11:57:38Z</time>
      </trkpt>
      <trkpt lat="45.00387" lon="5.48203">
        <ele>1373.38</ele>
        <time>2016-04-29T11:57:39Z</time>
      </trkpt>
      <trkpt lat="45.00397" lon="5.48201">
        <ele>1372.9</ele>
        <time>2016-04-29T11:57:40Z</time>
      </trkpt>
      <trkpt lat="45.00456" lon="5.48195">
        <ele>1370.5</ele>
        <time>2016-04-29T11:57:47Z</time>
      </trkpt>
      <trkpt lat="45.00463" lon="5.48195">
        <ele>1370.02</ele>
        <time>2016-04-29T11:57:48Z</time>
      </trkpt>
      <trkpt lat="45.00503" lon="5.48198">
        <ele>1369.54</ele>
        <time>2016-04-29T11:57:54Z</time>
      </trkpt>
      <trkpt lat="45.0051" lon="5.48199">
        <ele>1369.05</ele>
        <time>2016-04-29T11:57:55Z</time>
      </trkpt>
      <trkpt lat="45.00522" lon="5.48204">
        <ele>1368.57</ele>
        <time>2016-04-29T11:57:57Z</time>
      </trkpt>
      <trkpt lat="45.00526" lon="5.48208">
        <ele>1368.57</ele>
        <time>2016-04-29T11:57:58Z</time>
      </trkpt>
      <trkpt lat="45.00529" lon="5.48215">
        <ele>1368.09</ele>
        <time>2016-04-29T11:57:59Z</time>
      </trkpt>
      <trkpt lat="45.0053" lon="5.48222">
        <ele>1368.57</ele>
        <time>2016-04-29T11:58:00Z</time>
      </trkpt>
      <trkpt lat="45.0053" lon="5.48229">
        <ele>1368.09</ele>
        <time>2016-04-29T11:58:01Z</time>
      </trkpt>
      <trkpt lat="45.0053" lon="5.48236">
        <ele>1368.09</ele>
        <time>2016-04-29T11:58:02Z</time>
      </trkpt>
      <trkpt lat="45.0053" lon="5.48243">
        <ele>1367.61</ele>
        <time>2016-04-29T11:58:03Z</time>
      </trkpt>
      <trkpt lat="45.00531" lon="5.48249">
        <ele>1367.61</ele>
        <time>2016-04-29T11:58:04Z</time>
      </trkpt>
      <trkpt lat="45.00534" lon="5.48254">
        <ele>1367.61</ele>
        <time>2016-04-29T11:58:05Z</time>
      </trkpt>
      <trkpt lat="45.00544" lon="5.48267">
        <ele>1369.05</ele>
        <time>2016-04-29T11:58:10Z</time>
      </trkpt>
      <trkpt lat="45.00546" lon="5.48268">
        <ele>1369.54</ele>
        <time>2016-04-29T11:58:11Z</time>
      </trkpt>
      <trkpt lat="45.00558" lon="5.48282">
        <ele>1370.5</ele>
        <time>2016-04-29T11:58:18Z</time>
      </trkpt>
      <trkpt lat="45.0056" lon="5.48285">
        <ele>1370.5</ele>
        <time>2016-04-29T11:58:19Z</time>
      </trkpt>
      <trkpt lat="45.00561" lon="5.48286">
        <ele>1370.98</ele>
        <time>2016-04-29T11:58:20Z</time>
      </trkpt>
      <trkpt lat="45.00576" lon="5.48293">
        <ele>1371.46</ele>
        <time>2016-04-29T11:58:29Z</time>
      </trkpt>
      <trkpt lat="45.00591" lon="5.48291">
        <ele>1372.42</ele>
        <time>2016-04-29T11:58:37Z</time>
      </trkpt>
      <trkpt lat="45.00593" lon="5.4829">
        <ele>1372.42</ele>
        <time>2016-04-29T11:58:38Z</time>
      </trkpt>
      <trkpt lat="45.00595" lon="5.4829">
        <ele>1372.9</ele>
        <time>2016-04-29T11:58:39Z</time>
      </trkpt>
      <trkpt lat="45.00597" lon="5.48289">
        <ele>1372.9</ele>
        <time>2016-04-29T11:58:40Z</time>
      </trkpt>
      <trkpt lat="45.00599" lon="5.48289">
        <ele>1372.9</ele>
        <time>2016-04-29T11:58:41Z</time>
      </trkpt>
      <trkpt lat="45.00625" lon="5.48285">
        <ele>1375.3</ele>
        <time>2016-04-29T11:58:53Z</time>
      </trkpt>
      <trkpt lat="45.00643" lon="5.48279">
        <ele>1377.23</ele>
        <time>2016-04-29T11:59:02Z</time>
      </trkpt>
      <trkpt lat="45.00645" lon="5.48278">
        <ele>1376.75</ele>
        <time>2016-04-29T11:59:03Z</time>
      </trkpt>
      <trkpt lat="45.00647" lon="5.48276">
        <ele>1377.23</ele>
        <time>2016-04-29T11:59:04Z</time>
      </trkpt>
      <trkpt lat="45.00649" lon="5.48274">
        <ele>1377.23</ele>
        <time>2016-04-29T11:59:05Z</time>
      </trkpt>
      <trkpt lat="45.0065" lon="5.48273">
        <ele>1377.71</ele>
        <time>2016-04-29T11:59:06Z</time>
      </trkpt>
      <trkpt lat="45.00652" lon="5.48272">
        <ele>1377.71</ele>
        <time>2016-04-29T11:59:07Z</time>
      </trkpt>
      <trkpt lat="45.00654" lon="5.48271">
        <ele>1377.71</ele>
        <time>2016-04-29T11:59:08Z</time>
      </trkpt>
      <trkpt lat="45.00671" lon="5.48265">
        <ele>1379.15</ele>
        <time>2016-04-29T11:59:17Z</time>
      </trkpt>
      <trkpt lat="45.00673" lon="5.48264">
        <ele>1379.15</ele>
        <time>2016-04-29T11:59:18Z</time>
      </trkpt>
      <trkpt lat="45.00675" lon="5.48264">
        <ele>1379.15</ele>
        <time>2016-04-29T11:59:19Z</time>
      </trkpt>
      <trkpt lat="45.00681" lon="5.48261">
        <ele>1379.63</ele>
        <time>2016-04-29T11:59:22Z</time>
      </trkpt>
      <trkpt lat="45.00683" lon="5.48261">
        <ele>1379.63</ele>
        <time>2016-04-29T11:59:23Z</time>
      </trkpt>
      <trkpt lat="45.00685" lon="5.48261">
        <ele>1379.63</ele>
        <time>2016-04-29T11:59:24Z</time>
      </trkpt>
      <trkpt lat="45.00687" lon="5.48261">
        <ele>1379.63</ele>
        <time>2016-04-29T11:59:25Z</time>
      </trkpt>
      <trkpt lat="45.00689" lon="5.4826">
        <ele>1379.63</ele>
        <time>2016-04-29T11:59:26Z</time>
      </trkpt>
      <trkpt lat="45.0069" lon="5.48259">
        <ele>1380.11</ele>
        <time>2016-04-29T11:59:27Z</time>
      </trkpt>
      <trkpt lat="45.00696" lon="5.48257">
        <ele>1380.11</ele>
        <time>2016-04-29T11:59:30Z</time>
      </trkpt>
      <trkpt lat="45.00698" lon="5.48255">
        <ele>1380.59</ele>
        <time>2016-04-29T11:59:31Z</time>
      </trkpt>
      <trkpt lat="45.00718" lon="5.48243">
        <ele>1382.03</ele>
        <time>2016-04-29T11:59:41Z</time>
      </trkpt>
      <trkpt lat="45.00747" lon="5.48232">
        <ele>1382.51</ele>
        <time>2016-04-29T11:59:53Z</time>
      </trkpt>
      <trkpt lat="45.00769" lon="5.48223">
        <ele>1382.51</ele>
        <time>2016-04-29T12:00:03Z</time>
      </trkpt>
      <trkpt lat="45.00781" lon="5.48209">
        <ele>1382.51</ele>
        <time>2016-04-29T12:00:10Z</time>
      </trkpt>
      <trkpt lat="45.00786" lon="5.48176">
        <ele>1379.63</ele>
        <time>2016-04-29T12:00:20Z</time>
      </trkpt>
      <trkpt lat="45.00786" lon="5.48169">
        <ele>1378.67</ele>
        <time>2016-04-29T12:00:22Z</time>
      </trkpt>
      <trkpt lat="45.00777" lon="5.48141">
        <ele>1373.86</ele>
        <time>2016-04-29T12:00:26Z</time>
      </trkpt>
      <trkpt lat="45.00769" lon="5.4812">
        <ele>1370.5</ele>
        <time>2016-04-29T12:00:28Z</time>
      </trkpt>
      <trkpt lat="45.00758" lon="5.48096">
        <ele>1368.09</ele>
        <time>2016-04-29T12:00:31Z</time>
      </trkpt>
      <trkpt lat="45.00755" lon="5.48081">
        <ele>1368.09</ele>
        <time>2016-04-29T12:00:39Z</time>
      </trkpt>
      <trkpt lat="45.00754" lon="5.48078">
        <ele>1368.09</ele>
        <time>2016-04-29T12:01:03Z</time>
      </trkpt>
      <trkpt lat="45.00754" lon="5.48075">
        <ele>1367.61</ele>
        <time>2016-04-29T12:01:04Z</time>
      </trkpt>
      <trkpt lat="45.00754" lon="5.4807">
        <ele>1367.13</ele>
        <time>2016-04-29T12:01:05Z</time>
      </trkpt>
      <trkpt lat="45.00761" lon="5.48048">
        <ele>1363.29</ele>
        <time>2016-04-29T12:01:10Z</time>
      </trkpt>
      <trkpt lat="45.00763" lon="5.48042">
        <ele>1362.33</ele>
        <time>2016-04-29T12:01:12Z</time>
      </trkpt>
      <trkpt lat="45.00763" lon="5.48037">
        <ele>1361.84</ele>
        <time>2016-04-29T12:01:13Z</time>
      </trkpt>
      <trkpt lat="45.00764" lon="5.48032">
        <ele>1361.36</ele>
        <time>2016-04-29T12:01:14Z</time>
      </trkpt>
      <trkpt lat="45.00766" lon="5.48021">
        <ele>1360.4</ele>
        <time>2016-04-29T12:01:16Z</time>
      </trkpt>
      <trkpt lat="45.00768" lon="5.48014">
        <ele>1359.44</ele>
        <time>2016-04-29T12:01:17Z</time>
      </trkpt>
      <trkpt lat="45.00774" lon="5.47985">
        <ele>1355.6</ele>
        <time>2016-04-29T12:01:21Z</time>
      </trkpt>
      <trkpt lat="45.00776" lon="5.4798">
        <ele>1354.63</ele>
        <time>2016-04-29T12:01:22Z</time>
      </trkpt>
      <trkpt lat="45.00779" lon="5.47974">
        <ele>1354.15</ele>
        <time>2016-04-29T12:01:23Z</time>
      </trkpt>
      <trkpt lat="45.00781" lon="5.47968">
        <ele>1353.19</ele>
        <time>2016-04-29T12:01:24Z</time>
      </trkpt>
      <trkpt lat="45.00784" lon="5.4796">
        <ele>1351.75</ele>
        <time>2016-04-29T12:01:25Z</time>
      </trkpt>
      <trkpt lat="45.00787" lon="5.47953">
        <ele>1349.35</ele>
        <time>2016-04-29T12:01:26Z</time>
      </trkpt>
      <trkpt lat="45.00797" lon="5.47931">
        <ele>1345.98</ele>
        <time>2016-04-29T12:01:29Z</time>
      </trkpt>
      <trkpt lat="45.00801" lon="5.47925">
        <ele>1345.02</ele>
        <time>2016-04-29T12:01:30Z</time>
      </trkpt>
      <trkpt lat="45.00805" lon="5.47919">
        <ele>1344.06</ele>
        <time>2016-04-29T12:01:31Z</time>
      </trkpt>
      <trkpt lat="45.00811" lon="5.47904">
        <ele>1342.14</ele>
        <time>2016-04-29T12:01:33Z</time>
      </trkpt>
      <trkpt lat="45.00813" lon="5.47896">
        <ele>1340.7</ele>
        <time>2016-04-29T12:01:34Z</time>
      </trkpt>
      <trkpt lat="45.00819" lon="5.47877">
        <ele>1337.81</ele>
        <time>2016-04-29T12:01:36Z</time>
      </trkpt>
      <trkpt lat="45.00825" lon="5.47858">
        <ele>1334.45</ele>
        <time>2016-04-29T12:01:38Z</time>
      </trkpt>
      <trkpt lat="45.00829" lon="5.47849">
        <ele>1333.49</ele>
        <time>2016-04-29T12:01:39Z</time>
      </trkpt>
      <trkpt lat="45.00832" lon="5.4784">
        <ele>1332.04</ele>
        <time>2016-04-29T12:01:40Z</time>
      </trkpt>
      <trkpt lat="45.00836" lon="5.4783">
        <ele>1330.12</ele>
        <time>2016-04-29T12:01:41Z</time>
      </trkpt>
      <trkpt lat="45.00839" lon="5.47821">
        <ele>1328.2</ele>
        <time>2016-04-29T12:01:42Z</time>
      </trkpt>
      <trkpt lat="45.00843" lon="5.47811">
        <ele>1326.28</ele>
        <time>2016-04-29T12:01:43Z</time>
      </trkpt>
      <trkpt lat="45.00856" lon="5.47779">
        <ele>1322.43</ele>
        <time>2016-04-29T12:01:46Z</time>
      </trkpt>
      <trkpt lat="45.0086" lon="5.47767">
        <ele>1320.51</ele>
        <time>2016-04-29T12:01:47Z</time>
      </trkpt>
      <trkpt lat="45.00863" lon="5.47756">
        <ele>1319.07</ele>
        <time>2016-04-29T12:01:48Z</time>
      </trkpt>
      <trkpt lat="45.00867" lon="5.47749">
        <ele>1318.59</ele>
        <time>2016-04-29T12:01:49Z</time>
      </trkpt>
      <trkpt lat="45.00871" lon="5.47744">
        <ele>1318.59</ele>
        <time>2016-04-29T12:01:50Z</time>
      </trkpt>
      <trkpt lat="45.00875" lon="5.47742">
        <ele>1318.1</ele>
        <time>2016-04-29T12:01:51Z</time>
      </trkpt>
      <trkpt lat="45.0088" lon="5.4774">
        <ele>1318.1</ele>
        <time>2016-04-29T12:01:52Z</time>
      </trkpt>
      <trkpt lat="45.00884" lon="5.47739">
        <ele>1318.1</ele>
        <time>2016-04-29T12:01:53Z</time>
      </trkpt>
      <trkpt lat="45.00887" lon="5.47737">
        <ele>1317.62</ele>
        <time>2016-04-29T12:01:54Z</time>
      </trkpt>
      <trkpt lat="45.00887" lon="5.47734">
        <ele>1317.62</ele>
        <time>2016-04-29T12:01:55Z</time>
      </trkpt>
      <trkpt lat="45.00886" lon="5.47731">
        <ele>1318.1</ele>
        <time>2016-04-29T12:01:56Z</time>
      </trkpt>
      <trkpt lat="45.00884" lon="5.4773">
        <ele>1318.1</ele>
        <time>2016-04-29T12:01:57Z</time>
      </trkpt>
      <trkpt lat="45.00882" lon="5.4773">
        <ele>1318.1</ele>
        <time>2016-04-29T12:01:58Z</time>
      </trkpt>
      <trkpt lat="45.0088" lon="5.4773">
        <ele>1315.7</ele>
        <time>2016-04-29T12:01:59Z</time>
      </trkpt>
      <trkpt lat="45.00879" lon="5.4773">
        <ele>1320.99</ele>
        <time>2016-04-29T12:02:00Z</time>
      </trkpt>
      <trkpt lat="45.00877" lon="5.4773">
        <ele>1318.1</ele>
        <time>2016-04-29T12:02:01Z</time>
      </trkpt>
      <trkpt lat="45.00875" lon="5.4773">
        <ele>1318.1</ele>
        <time>2016-04-29T12:02:02Z</time>
      </trkpt>
      <trkpt lat="45.00854" lon="5.47743">
        <ele>1318.1</ele>
        <time>2016-04-29T12:02:15Z</time>
      </trkpt>
      <trkpt lat="45.00833" lon="5.47767">
        <ele>1317.62</ele>
        <time>2016-04-29T12:02:26Z</time>
      </trkpt>
      <trkpt lat="45.00793" lon="5.47802">
        <ele>1317.62</ele>
        <time>2016-04-29T12:02:39Z</time>
      </trkpt>
      <trkpt lat="45.00765" lon="5.47835">
        <ele>1318.1</ele>
        <time>2016-04-29T12:02:52Z</time>
      </trkpt>
      <trkpt lat="45.00741" lon="5.47845">
        <ele>1317.62</ele>
        <time>2016-04-29T12:03:01Z</time>
      </trkpt>
      <trkpt lat="45.00714" lon="5.47863">
        <ele>1317.14</ele>
        <time>2016-04-29T12:03:08Z</time>
      </trkpt>
      <trkpt lat="45.00709" lon="5.47865">
        <ele>1317.62</ele>
        <time>2016-04-29T12:03:09Z</time>
      </trkpt>
      <trkpt lat="45.00695" lon="5.47868">
        <ele>1317.62</ele>
        <time>2016-04-29T12:03:12Z</time>
      </trkpt>
      <trkpt lat="45.00691" lon="5.47869">
        <ele>1318.1</ele>
        <time>2016-04-29T12:03:13Z</time>
      </trkpt>
      <trkpt lat="45.00686" lon="5.47869">
        <ele>1318.1</ele>
        <time>2016-04-29T12:03:14Z</time>
      </trkpt>
      <trkpt lat="45.00673" lon="5.4787">
        <ele>1318.1</ele>
        <time>2016-04-29T12:03:17Z</time>
      </trkpt>
      <trkpt lat="45.0065" lon="5.47868">
        <ele>1318.1</ele>
        <time>2016-04-29T12:03:22Z</time>
      </trkpt>
      <trkpt lat="45.00646" lon="5.47867">
        <ele>1318.1</ele>
        <time>2016-04-29T12:03:23Z</time>
      </trkpt>
      <trkpt lat="45.00604" lon="5.47866">
        <ele>1319.55</ele>
        <time>2016-04-29T12:03:35Z</time>
      </trkpt>
      <trkpt lat="45.00571" lon="5.47893">
        <ele>1319.55</ele>
        <time>2016-04-29T12:03:45Z</time>
      </trkpt>
      <trkpt lat="45.0056" lon="5.47898">
        <ele>1320.03</ele>
        <time>2016-04-29T12:03:48Z</time>
      </trkpt>
      <trkpt lat="45.00556" lon="5.479">
        <ele>1320.03</ele>
        <time>2016-04-29T12:03:49Z</time>
      </trkpt>
      <trkpt lat="45.00552" lon="5.47901">
        <ele>1320.03</ele>
        <time>2016-04-29T12:03:50Z</time>
      </trkpt>
      <trkpt lat="45.00548" lon="5.47903">
        <ele>1320.03</ele>
        <time>2016-04-29T12:03:51Z</time>
      </trkpt>
      <trkpt lat="45.00545" lon="5.47905">
        <ele>1320.03</ele>
        <time>2016-04-29T12:03:52Z</time>
      </trkpt>
      <trkpt lat="45.00512" lon="5.47928">
        <ele>1320.99</ele>
        <time>2016-04-29T12:04:02Z</time>
      </trkpt>
      <trkpt lat="45.00508" lon="5.47932">
        <ele>1320.99</ele>
        <time>2016-04-29T12:04:03Z</time>
      </trkpt>
      <trkpt lat="45.00504" lon="5.47936">
        <ele>1320.99</ele>
        <time>2016-04-29T12:04:04Z</time>
      </trkpt>
      <trkpt lat="45.00499" lon="5.47938">
        <ele>1320.51</ele>
        <time>2016-04-29T12:04:05Z</time>
      </trkpt>
      <trkpt lat="45.00495" lon="5.4794">
        <ele>1320.99</ele>
        <time>2016-04-29T12:04:06Z</time>
      </trkpt>
      <trkpt lat="45.00491" lon="5.47941">
        <ele>1320.51</ele>
        <time>2016-04-29T12:04:07Z</time>
      </trkpt>
      <trkpt lat="45.00487" lon="5.47941">
        <ele>1320.51</ele>
        <time>2016-04-29T12:04:08Z</time>
      </trkpt>
      <trkpt lat="45.00471" lon="5.47938">
        <ele>1320.99</ele>
        <time>2016-04-29T12:04:12Z</time>
      </trkpt>
      <trkpt lat="45.00468" lon="5.47936">
        <ele>1320.99</ele>
        <time>2016-04-29T12:04:13Z</time>
      </trkpt>
      <trkpt lat="45.00464" lon="5.47933">
        <ele>1320.51</ele>
        <time>2016-04-29T12:04:14Z</time>
      </trkpt>
      <trkpt lat="45.0046" lon="5.4793">
        <ele>1320.51</ele>
        <time>2016-04-29T12:04:15Z</time>
      </trkpt>
      <trkpt lat="45.00457" lon="5.47927">
        <ele>1320.99</ele>
        <time>2016-04-29T12:04:16Z</time>
      </trkpt>
      <trkpt lat="45.00454" lon="5.47922">
        <ele>1320.99</ele>
        <time>2016-04-29T12:04:17Z</time>
      </trkpt>
      <trkpt lat="45.00451" lon="5.47918">
        <ele>1320.99</ele>
        <time>2016-04-29T12:04:18Z</time>
      </trkpt>
      <trkpt lat="45.00448" lon="5.47914">
        <ele>1320.99</ele>
        <time>2016-04-29T12:04:19Z</time>
      </trkpt>
      <trkpt lat="45.00439" lon="5.47904">
        <ele>1320.51</ele>
        <time>2016-04-29T12:04:22Z</time>
      </trkpt>
      <trkpt lat="45.00435" lon="5.47903">
        <ele>1320.99</ele>
        <time>2016-04-29T12:04:23Z</time>
      </trkpt>
      <trkpt lat="45.00426" lon="5.47901">
        <ele>1320.99</ele>
        <time>2016-04-29T12:04:25Z</time>
      </trkpt>
      <trkpt lat="45.00421" lon="5.47901">
        <ele>1320.99</ele>
        <time>2016-04-29T12:04:26Z</time>
      </trkpt>
      <trkpt lat="45.0041" lon="5.47903">
        <ele>1321.47</ele>
        <time>2016-04-29T12:04:29Z</time>
      </trkpt>
      <trkpt lat="45.00407" lon="5.47904">
        <ele>1320.99</ele>
        <time>2016-04-29T12:04:30Z</time>
      </trkpt>
      <trkpt lat="45.00392" lon="5.47909">
        <ele>1320.99</ele>
        <time>2016-04-29T12:04:40Z</time>
      </trkpt>
      <trkpt lat="45.0038" lon="5.4792">
        <ele>1320.51</ele>
        <time>2016-04-29T12:04:46Z</time>
      </trkpt>
      <trkpt lat="45.00376" lon="5.47924">
        <ele>1320.03</ele>
        <time>2016-04-29T12:04:47Z</time>
      </trkpt>
      <trkpt lat="45.00373" lon="5.47928">
        <ele>1320.03</ele>
        <time>2016-04-29T12:04:48Z</time>
      </trkpt>
      <trkpt lat="45.00369" lon="5.47932">
        <ele>1319.55</ele>
        <time>2016-04-29T12:04:49Z</time>
      </trkpt>
      <trkpt lat="45.00364" lon="5.47936">
        <ele>1319.55</ele>
        <time>2016-04-29T12:04:50Z</time>
      </trkpt>
      <trkpt lat="45.00361" lon="5.4794">
        <ele>1319.55</ele>
        <time>2016-04-29T12:04:51Z</time>
      </trkpt>
      <trkpt lat="45.00357" lon="5.47944">
        <ele>1319.55</ele>
        <time>2016-04-29T12:04:52Z</time>
      </trkpt>
      <trkpt lat="45.00353" lon="5.47948">
        <ele>1319.55</ele>
        <time>2016-04-29T12:04:53Z</time>
      </trkpt>
      <trkpt lat="45.00342" lon="5.47959">
        <ele>1319.55</ele>
        <time>2016-04-29T12:04:56Z</time>
      </trkpt>
      <trkpt lat="45.00333" lon="5.47964">
        <ele>1319.07</ele>
        <time>2016-04-29T12:04:58Z</time>
      </trkpt>
      <trkpt lat="45.00328" lon="5.47966">
        <ele>1319.07</ele>
        <time>2016-04-29T12:04:59Z</time>
      </trkpt>
      <trkpt lat="45.00307" lon="5.47971">
        <ele>1318.59</ele>
        <time>2016-04-29T12:05:03Z</time>
      </trkpt>
      <trkpt lat="45.00302" lon="5.47972">
        <ele>1318.59</ele>
        <time>2016-04-29T12:05:04Z</time>
      </trkpt>
      <trkpt lat="45.00297" lon="5.47972">
        <ele>1318.1</ele>
        <time>2016-04-29T12:05:05Z</time>
      </trkpt>
      <trkpt lat="45.00292" lon="5.47973">
        <ele>1318.1</ele>
        <time>2016-04-29T12:05:06Z</time>
      </trkpt>
      <trkpt lat="45.00286" lon="5.47974">
        <ele>1317.62</ele>
        <time>2016-04-29T12:05:07Z</time>
      </trkpt>
      <trkpt lat="45.00275" lon="5.47977">
        <ele>1317.62</ele>
        <time>2016-04-29T12:05:09Z</time>
      </trkpt>
      <trkpt lat="45.00264" lon="5.47982">
        <ele>1316.66</ele>
        <time>2016-04-29T12:05:11Z</time>
      </trkpt>
      <trkpt lat="45.00259" lon="5.47986">
        <ele>1316.66</ele>
        <time>2016-04-29T12:05:12Z</time>
      </trkpt>
      <trkpt lat="45.00255" lon="5.47991">
        <ele>1316.66</ele>
        <time>2016-04-29T12:05:13Z</time>
      </trkpt>
      <trkpt lat="45.00251" lon="5.47997">
        <ele>1316.66</ele>
        <time>2016-04-29T12:05:14Z</time>
      </trkpt>
      <trkpt lat="45.00248" lon="5.48004">
        <ele>1316.66</ele>
        <time>2016-04-29T12:05:15Z</time>
      </trkpt>
      <trkpt lat="45.00241" lon="5.48017">
        <ele>1316.18</ele>
        <time>2016-04-29T12:05:17Z</time>
      </trkpt>
      <trkpt lat="45.00238" lon="5.48024">
        <ele>1316.18</ele>
        <time>2016-04-29T12:05:18Z</time>
      </trkpt>
      <trkpt lat="45.00234" lon="5.4803">
        <ele>1315.7</ele>
        <time>2016-04-29T12:05:19Z</time>
      </trkpt>
      <trkpt lat="45.0023" lon="5.48034">
        <ele>1315.22</ele>
        <time>2016-04-29T12:05:20Z</time>
      </trkpt>
      <trkpt lat="45.00224" lon="5.48038">
        <ele>1315.22</ele>
        <time>2016-04-29T12:05:21Z</time>
      </trkpt>
      <trkpt lat="45.00219" lon="5.4804">
        <ele>1315.22</ele>
        <time>2016-04-29T12:05:22Z</time>
      </trkpt>
      <trkpt lat="45.00213" lon="5.48042">
        <ele>1314.74</ele>
        <time>2016-04-29T12:05:23Z</time>
      </trkpt>
      <trkpt lat="45.00208" lon="5.48043">
        <ele>1314.74</ele>
        <time>2016-04-29T12:05:24Z</time>
      </trkpt>
      <trkpt lat="45.00202" lon="5.48044">
        <ele>1314.26</ele>
        <time>2016-04-29T12:05:25Z</time>
      </trkpt>
      <trkpt lat="45.00196" lon="5.48043">
        <ele>1314.26</ele>
        <time>2016-04-29T12:05:26Z</time>
      </trkpt>
      <trkpt lat="45.0019" lon="5.48041">
        <ele>1313.78</ele>
        <time>2016-04-29T12:05:27Z</time>
      </trkpt>
      <trkpt lat="45.00171" lon="5.48037">
        <ele>1313.3</ele>
        <time>2016-04-29T12:05:30Z</time>
      </trkpt>
      <trkpt lat="45.00165" lon="5.48038">
        <ele>1313.3</ele>
        <time>2016-04-29T12:05:31Z</time>
      </trkpt>
      <trkpt lat="45.00159" lon="5.4804">
        <ele>1312.82</ele>
        <time>2016-04-29T12:05:32Z</time>
      </trkpt>
      <trkpt lat="45.00154" lon="5.48042">
        <ele>1312.82</ele>
        <time>2016-04-29T12:05:33Z</time>
      </trkpt>
      <trkpt lat="45.00148" lon="5.48044">
        <ele>1312.82</ele>
        <time>2016-04-29T12:05:34Z</time>
      </trkpt>
      <trkpt lat="45.00142" lon="5.48044">
        <ele>1312.34</ele>
        <time>2016-04-29T12:05:35Z</time>
      </trkpt>
      <trkpt lat="45.00136" lon="5.48044">
        <ele>1311.86</ele>
        <time>2016-04-29T12:05:36Z</time>
      </trkpt>
      <trkpt lat="45.00131" lon="5.48043">
        <ele>1311.86</ele>
        <time>2016-04-29T12:05:37Z</time>
      </trkpt>
      <trkpt lat="45.00125" lon="5.48041">
        <ele>1311.86</ele>
        <time>2016-04-29T12:05:38Z</time>
      </trkpt>
      <trkpt lat="45.00105" lon="5.48032">
        <ele>1311.38</ele>
        <time>2016-04-29T12:05:42Z</time>
      </trkpt>
      <trkpt lat="45.001" lon="5.4803">
        <ele>1311.38</ele>
        <time>2016-04-29T12:05:43Z</time>
      </trkpt>
      <trkpt lat="45.00096" lon="5.48028">
        <ele>1311.38</ele>
        <time>2016-04-29T12:05:44Z</time>
      </trkpt>
      <trkpt lat="45.00091" lon="5.48024">
        <ele>1311.38</ele>
        <time>2016-04-29T12:05:45Z</time>
      </trkpt>
      <trkpt lat="45.00086" lon="5.48021">
        <ele>1311.86</ele>
        <time>2016-04-29T12:05:46Z</time>
      </trkpt>
      <trkpt lat="45.00081" lon="5.48019">
        <ele>1311.86</ele>
        <time>2016-04-29T12:05:47Z</time>
      </trkpt>
      <trkpt lat="45.00075" lon="5.48016">
        <ele>1311.86</ele>
        <time>2016-04-29T12:05:48Z</time>
      </trkpt>
      <trkpt lat="45.00064" lon="5.48011">
        <ele>1311.86</ele>
        <time>2016-04-29T12:05:50Z</time>
      </trkpt>
      <trkpt lat="45.00059" lon="5.48007">
        <ele>1311.86</ele>
        <time>2016-04-29T12:05:51Z</time>
      </trkpt>
      <trkpt lat="45.00022" lon="5.47974">
        <ele>1311.38</ele>
        <time>2016-04-29T12:05:59Z</time>
      </trkpt>
      <trkpt lat="45.00018" lon="5.47969">
        <ele>1311.38</ele>
        <time>2016-04-29T12:06:00Z</time>
      </trkpt>
      <trkpt lat="44.99993" lon="5.47934">
        <ele>1310.41</ele>
        <time>2016-04-29T12:06:07Z</time>
      </trkpt>
      <trkpt lat="44.9999" lon="5.47929">
        <ele>1310.41</ele>
        <time>2016-04-29T12:06:08Z</time>
      </trkpt>
      <trkpt lat="44.99988" lon="5.47923">
        <ele>1310.41</ele>
        <time>2016-04-29T12:06:09Z</time>
      </trkpt>
      <trkpt lat="44.99986" lon="5.47918">
        <ele>1310.9</ele>
        <time>2016-04-29T12:06:10Z</time>
      </trkpt>
      <trkpt lat="44.99984" lon="5.47912">
        <ele>1310.9</ele>
        <time>2016-04-29T12:06:11Z</time>
      </trkpt>
      <trkpt lat="44.99981" lon="5.47906">
        <ele>1310.9</ele>
        <time>2016-04-29T12:06:12Z</time>
      </trkpt>
      <trkpt lat="44.99978" lon="5.47901">
        <ele>1310.9</ele>
        <time>2016-04-29T12:06:13Z</time>
      </trkpt>
      <trkpt lat="44.99973" lon="5.47897">
        <ele>1310.41</ele>
        <time>2016-04-29T12:06:14Z</time>
      </trkpt>
      <trkpt lat="44.99941" lon="5.47881">
        <ele>1309.93</ele>
        <time>2016-04-29T12:06:21Z</time>
      </trkpt>
      <trkpt lat="44.99937" lon="5.47879">
        <ele>1310.41</ele>
        <time>2016-04-29T12:06:22Z</time>
      </trkpt>
      <trkpt lat="44.99933" lon="5.47875">
        <ele>1310.41</ele>
        <time>2016-04-29T12:06:23Z</time>
      </trkpt>
      <trkpt lat="44.9993" lon="5.4787">
        <ele>1310.41</ele>
        <time>2016-04-29T12:06:24Z</time>
      </trkpt>
      <trkpt lat="44.99927" lon="5.47865">
        <ele>1310.9</ele>
        <time>2016-04-29T12:06:25Z</time>
      </trkpt>
      <trkpt lat="44.99925" lon="5.4786">
        <ele>1310.9</ele>
        <time>2016-04-29T12:06:26Z</time>
      </trkpt>
      <trkpt lat="44.99922" lon="5.47856">
        <ele>1311.38</ele>
        <time>2016-04-29T12:06:27Z</time>
      </trkpt>
      <trkpt lat="44.99919" lon="5.47852">
        <ele>1311.38</ele>
        <time>2016-04-29T12:06:28Z</time>
      </trkpt>
      <trkpt lat="44.99915" lon="5.47849">
        <ele>1311.86</ele>
        <time>2016-04-29T12:06:29Z</time>
      </trkpt>
      <trkpt lat="44.99912" lon="5.47847">
        <ele>1311.86</ele>
        <time>2016-04-29T12:06:30Z</time>
      </trkpt>
      <trkpt lat="44.99902" lon="5.47844">
        <ele>1311.86</ele>
        <time>2016-04-29T12:06:32Z</time>
      </trkpt>
      <trkpt lat="44.99892" lon="5.47842">
        <ele>1311.86</ele>
        <time>2016-04-29T12:06:34Z</time>
      </trkpt>
      <trkpt lat="44.99888" lon="5.4784">
        <ele>1311.86</ele>
        <time>2016-04-29T12:06:35Z</time>
      </trkpt>
      <trkpt lat="44.99884" lon="5.47837">
        <ele>1311.86</ele>
        <time>2016-04-29T12:06:36Z</time>
      </trkpt>
      <trkpt lat="44.99878" lon="5.47829">
        <ele>1312.34</ele>
        <time>2016-04-29T12:06:38Z</time>
      </trkpt>
      <trkpt lat="44.99875" lon="5.47824">
        <ele>1312.34</ele>
        <time>2016-04-29T12:06:39Z</time>
      </trkpt>
      <trkpt lat="44.99873" lon="5.47819">
        <ele>1312.34</ele>
        <time>2016-04-29T12:06:40Z</time>
      </trkpt>
      <trkpt lat="44.99872" lon="5.47814">
        <ele>1312.34</ele>
        <time>2016-04-29T12:06:41Z</time>
      </trkpt>
      <trkpt lat="44.99871" lon="5.47809">
        <ele>1312.34</ele>
        <time>2016-04-29T12:06:42Z</time>
      </trkpt>
      <trkpt lat="44.9987" lon="5.47804">
        <ele>1312.82</ele>
        <time>2016-04-29T12:06:43Z</time>
      </trkpt>
      <trkpt lat="44.99869" lon="5.478">
        <ele>1312.82</ele>
        <time>2016-04-29T12:06:44Z</time>
      </trkpt>
      <trkpt lat="44.99867" lon="5.47795">
        <ele>1313.3</ele>
        <time>2016-04-29T12:06:45Z</time>
      </trkpt>
      <trkpt lat="44.99865" lon="5.47791">
        <ele>1313.3</ele>
        <time>2016-04-29T12:06:46Z</time>
      </trkpt>
      <trkpt lat="44.99838" lon="5.47768">
        <ele>1314.74</ele>
        <time>2016-04-29T12:06:56Z</time>
      </trkpt>
      <trkpt lat="44.99802" lon="5.47758">
        <ele>1317.14</ele>
        <time>2016-04-29T12:07:10Z</time>
      </trkpt>
      <trkpt lat="44.99776" lon="5.47761">
        <ele>1319.07</ele>
        <time>2016-04-29T12:07:23Z</time>
      </trkpt>
      <trkpt lat="44.99767" lon="5.47758">
        <ele>1319.55</ele>
        <time>2016-04-29T12:07:27Z</time>
      </trkpt>
      <trkpt lat="44.99765" lon="5.47758">
        <ele>1320.03</ele>
        <time>2016-04-29T12:07:28Z</time>
      </trkpt>
      <trkpt lat="44.99756" lon="5.47744">
        <ele>1320.99</ele>
        <time>2016-04-29T12:07:36Z</time>
      </trkpt>
      <trkpt lat="44.99755" lon="5.47742">
        <ele>1320.99</ele>
        <time>2016-04-29T12:07:37Z</time>
      </trkpt>
      <trkpt lat="44.99754" lon="5.4774">
        <ele>1321.47</ele>
        <time>2016-04-29T12:07:38Z</time>
      </trkpt>
      <trkpt lat="44.99752" lon="5.47733">
        <ele>1321.95</ele>
        <time>2016-04-29T12:07:41Z</time>
      </trkpt>
      <trkpt lat="44.99747" lon="5.47724">
        <ele>1322.43</ele>
        <time>2016-04-29T12:07:45Z</time>
      </trkpt>
      <trkpt lat="44.99746" lon="5.47723">
        <ele>1322.91</ele>
        <time>2016-04-29T12:07:46Z</time>
      </trkpt>
      <trkpt lat="44.9972" lon="5.4772">
        <ele>1322.91</ele>
        <time>2016-04-29T12:07:58Z</time>
      </trkpt>
      <trkpt lat="44.99683" lon="5.47731">
        <ele>1323.87</ele>
        <time>2016-04-29T12:08:12Z</time>
      </trkpt>
      <trkpt lat="44.9965" lon="5.47736">
        <ele>1324.83</ele>
        <time>2016-04-29T12:08:24Z</time>
      </trkpt>
      <trkpt lat="44.99625" lon="5.47723">
        <ele>1325.31</ele>
        <time>2016-04-29T12:08:34Z</time>
      </trkpt>
      <trkpt lat="44.99623" lon="5.47719">
        <ele>1325.31</ele>
        <time>2016-04-29T12:08:35Z</time>
      </trkpt>
      <trkpt lat="44.99622" lon="5.47715">
        <ele>1325.31</ele>
        <time>2016-04-29T12:08:36Z</time>
      </trkpt>
      <trkpt lat="44.99606" lon="5.47669">
        <ele>1326.76</ele>
        <time>2016-04-29T12:08:48Z</time>
      </trkpt>
      <trkpt lat="44.99573" lon="5.47665">
        <ele>1327.72</ele>
        <time>2016-04-29T12:08:59Z</time>
      </trkpt>
      <trkpt lat="44.99541" lon="5.47697">
        <ele>1328.2</ele>
        <time>2016-04-29T12:09:11Z</time>
      </trkpt>
      <trkpt lat="44.99509" lon="5.47724">
        <ele>1329.16</ele>
        <time>2016-04-29T12:09:22Z</time>
      </trkpt>
      <trkpt lat="44.99469" lon="5.47745">
        <ele>1330.6</ele>
        <time>2016-04-29T12:09:35Z</time>
      </trkpt>
      <trkpt lat="44.9944" lon="5.47782">
        <ele>1332.04</ele>
        <time>2016-04-29T12:09:47Z</time>
      </trkpt>
      <trkpt lat="44.99411" lon="5.47809">
        <ele>1333.01</ele>
        <time>2016-04-29T12:09:57Z</time>
      </trkpt>
      <trkpt lat="44.99367" lon="5.4784">
        <ele>1334.45</ele>
        <time>2016-04-29T12:10:12Z</time>
      </trkpt>
      <trkpt lat="44.99327" lon="5.47858">
        <ele>1334.93</ele>
        <time>2016-04-29T12:10:24Z</time>
      </trkpt>
      <trkpt lat="44.99293" lon="5.47874">
        <ele>1336.37</ele>
        <time>2016-04-29T12:10:35Z</time>
      </trkpt>
      <trkpt lat="44.99272" lon="5.47876">
        <ele>1337.33</ele>
        <time>2016-04-29T12:10:43Z</time>
      </trkpt>
      <trkpt lat="44.99271" lon="5.47874">
        <ele>1337.81</ele>
        <time>2016-04-29T12:10:44Z</time>
      </trkpt>
      <trkpt lat="44.9927" lon="5.47872">
        <ele>1337.81</ele>
        <time>2016-04-29T12:10:45Z</time>
      </trkpt>
      <trkpt lat="44.99269" lon="5.47868">
        <ele>1338.29</ele>
        <time>2016-04-29T12:10:47Z</time>
      </trkpt>
      <trkpt lat="44.99269" lon="5.47867">
        <ele>1338.29</ele>
        <time>2016-04-29T12:10:48Z</time>
      </trkpt>
      <trkpt lat="44.99269" lon="5.47865">
        <ele>1338.29</ele>
        <time>2016-04-29T12:10:49Z</time>
      </trkpt>
      <trkpt lat="44.99268" lon="5.47862">
        <ele>1338.29</ele>
        <time>2016-04-29T12:10:50Z</time>
      </trkpt>
      <trkpt lat="44.99268" lon="5.4786">
        <ele>1338.77</ele>
        <time>2016-04-29T12:10:51Z</time>
      </trkpt>
      <trkpt lat="44.99269" lon="5.47858">
        <ele>1338.77</ele>
        <time>2016-04-29T12:10:52Z</time>
      </trkpt>
      <trkpt lat="44.9927" lon="5.47855">
        <ele>1338.77</ele>
        <time>2016-04-29T12:10:53Z</time>
      </trkpt>
      <trkpt lat="44.99271" lon="5.47853">
        <ele>1338.77</ele>
        <time>2016-04-29T12:10:54Z</time>
      </trkpt>
      <trkpt lat="44.99271" lon="5.47851">
        <ele>1339.25</ele>
        <time>2016-04-29T12:10:55Z</time>
      </trkpt>
      <trkpt lat="44.99272" lon="5.47848">
        <ele>1339.25</ele>
        <time>2016-04-29T12:10:56Z</time>
      </trkpt>
      <trkpt lat="44.99273" lon="5.47846">
        <ele>1339.25</ele>
        <time>2016-04-29T12:10:57Z</time>
      </trkpt>
      <trkpt lat="44.99274" lon="5.47843">
        <ele>1339.25</ele>
        <time>2016-04-29T12:10:58Z</time>
      </trkpt>
      <trkpt lat="44.99275" lon="5.47841">
        <ele>1339.73</ele>
        <time>2016-04-29T12:10:59Z</time>
      </trkpt>
      <trkpt lat="44.99277" lon="5.47839">
        <ele>1339.25</ele>
        <time>2016-04-29T12:11:00Z</time>
      </trkpt>
      <trkpt lat="44.99278" lon="5.47837">
        <ele>1339.73</ele>
        <time>2016-04-29T12:11:01Z</time>
      </trkpt>
      <trkpt lat="44.99279" lon="5.47834">
        <ele>1339.73</ele>
        <time>2016-04-29T12:11:02Z</time>
      </trkpt>
      <trkpt lat="44.9928" lon="5.47832">
        <ele>1339.73</ele>
        <time>2016-04-29T12:11:03Z</time>
      </trkpt>
      <trkpt lat="44.99282" lon="5.47829">
        <ele>1339.73</ele>
        <time>2016-04-29T12:11:04Z</time>
      </trkpt>
      <trkpt lat="44.99284" lon="5.47827">
        <ele>1339.73</ele>
        <time>2016-04-29T12:11:05Z</time>
      </trkpt>
      <trkpt lat="44.99285" lon="5.47826">
        <ele>1339.73</ele>
        <time>2016-04-29T12:11:06Z</time>
      </trkpt>
      <trkpt lat="44.99309" lon="5.47808">
        <ele>1341.66</ele>
        <time>2016-04-29T12:11:20Z</time>
      </trkpt>
      <trkpt lat="44.99318" lon="5.47792">
        <ele>1343.58</ele>
        <time>2016-04-29T12:11:30Z</time>
      </trkpt>
      <trkpt lat="44.99304" lon="5.47766">
        <ele>1345.5</ele>
        <time>2016-04-29T12:11:41Z</time>
      </trkpt>
      <trkpt lat="44.99283" lon="5.47743">
        <ele>1345.98</ele>
        <time>2016-04-29T12:11:52Z</time>
      </trkpt>
      <trkpt lat="44.99276" lon="5.47727">
        <ele>1346.46</ele>
        <time>2016-04-29T12:11:57Z</time>
      </trkpt>
      <trkpt lat="44.99276" lon="5.47723">
        <ele>1346.46</ele>
        <time>2016-04-29T12:11:58Z</time>
      </trkpt>
      <trkpt lat="44.99276" lon="5.4772">
        <ele>1346.46</ele>
        <time>2016-04-29T12:11:59Z</time>
      </trkpt>
      <trkpt lat="44.99276" lon="5.47716">
        <ele>1346.94</ele>
        <time>2016-04-29T12:12:00Z</time>
      </trkpt>
      <trkpt lat="44.99277" lon="5.47714">
        <ele>1346.94</ele>
        <time>2016-04-29T12:12:01Z</time>
      </trkpt>
      <trkpt lat="44.99279" lon="5.47704">
        <ele>1346.94</ele>
        <time>2016-04-29T12:12:04Z</time>
      </trkpt>
      <trkpt lat="44.99265" lon="5.47675">
        <ele>1348.87</ele>
        <time>2016-04-29T12:12:15Z</time>
      </trkpt>
      <trkpt lat="44.99236" lon="5.47669">
        <ele>1349.35</ele>
        <time>2016-04-29T12:12:26Z</time>
      </trkpt>
      <trkpt lat="44.9921" lon="5.47648">
        <ele>1349.35</ele>
        <time>2016-04-29T12:12:36Z</time>
      </trkpt>
      <trkpt lat="44.9917" lon="5.47646">
        <ele>1349.35</ele>
        <time>2016-04-29T12:12:48Z</time>
      </trkpt>
      <trkpt lat="44.99128" lon="5.47656">
        <ele>1350.31</ele>
        <time>2016-04-29T12:13:01Z</time>
      </trkpt>
      <trkpt lat="44.99092" lon="5.47653">
        <ele>1350.31</ele>
        <time>2016-04-29T12:13:12Z</time>
      </trkpt>
      <trkpt lat="44.99077" lon="5.47648">
        <ele>1346.46</ele>
        <time>2016-04-29T12:13:17Z</time>
      </trkpt>
      <trkpt lat="44.99075" lon="5.47646">
        <ele>1357.04</ele>
        <time>2016-04-29T12:13:18Z</time>
      </trkpt>
      <trkpt lat="44.99073" lon="5.47645">
        <ele>1351.27</ele>
        <time>2016-04-29T12:13:19Z</time>
      </trkpt>
      <trkpt lat="44.99038" lon="5.47626">
        <ele>1352.71</ele>
        <time>2016-04-29T12:13:32Z</time>
      </trkpt>
      <trkpt lat="44.99015" lon="5.47615">
        <ele>1354.15</ele>
        <time>2016-04-29T12:13:43Z</time>
      </trkpt>
      <trkpt lat="44.99005" lon="5.47598">
        <ele>1355.6</ele>
        <time>2016-04-29T12:13:52Z</time>
      </trkpt>
      <trkpt lat="44.99004" lon="5.47596">
        <ele>1355.6</ele>
        <time>2016-04-29T12:13:53Z</time>
      </trkpt>
      <trkpt lat="44.99004" lon="5.47593">
        <ele>1355.6</ele>
        <time>2016-04-29T12:13:54Z</time>
      </trkpt>
      <trkpt lat="44.99003" lon="5.47591">
        <ele>1356.08</ele>
        <time>2016-04-29T12:13:55Z</time>
      </trkpt>
      <trkpt lat="44.99003" lon="5.47588">
        <ele>1356.56</ele>
        <time>2016-04-29T12:13:56Z</time>
      </trkpt>
      <trkpt lat="44.99003" lon="5.47586">
        <ele>1356.08</ele>
        <time>2016-04-29T12:13:57Z</time>
      </trkpt>
      <trkpt lat="44.99003" lon="5.47583">
        <ele>1356.08</ele>
        <time>2016-04-29T12:13:58Z</time>
      </trkpt>
      <trkpt lat="44.99003" lon="5.47581">
        <ele>1356.56</ele>
        <time>2016-04-29T12:13:59Z</time>
      </trkpt>
      <trkpt lat="44.99002" lon="5.47578">
        <ele>1356.56</ele>
        <time>2016-04-29T12:14:00Z</time>
      </trkpt>
      <trkpt lat="44.99002" lon="5.47576">
        <ele>1356.56</ele>
        <time>2016-04-29T12:14:01Z</time>
      </trkpt>
      <trkpt lat="44.99" lon="5.47566">
        <ele>1357.04</ele>
        <time>2016-04-29T12:14:05Z</time>
      </trkpt>
      <trkpt lat="44.98999" lon="5.47563">
        <ele>1357.04</ele>
        <time>2016-04-29T12:14:06Z</time>
      </trkpt>
      <trkpt lat="44.98998" lon="5.47561">
        <ele>1357.52</ele>
        <time>2016-04-29T12:14:07Z</time>
      </trkpt>
      <trkpt lat="44.98998" lon="5.47556">
        <ele>1357.52</ele>
        <time>2016-04-29T12:14:09Z</time>
      </trkpt>
      <trkpt lat="44.98997" lon="5.47554">
        <ele>1357.52</ele>
        <time>2016-04-29T12:14:10Z</time>
      </trkpt>
      <trkpt lat="44.98997" lon="5.47552">
        <ele>1358</ele>
        <time>2016-04-29T12:14:11Z</time>
      </trkpt>
      <trkpt lat="44.98996" lon="5.4755">
        <ele>1358</ele>
        <time>2016-04-29T12:14:13Z</time>
      </trkpt>
      <trkpt lat="44.98995" lon="5.47548">
        <ele>1358</ele>
        <time>2016-04-29T12:14:14Z</time>
      </trkpt>
      <trkpt lat="44.98992" lon="5.47545">
        <ele>1358</ele>
        <time>2016-04-29T12:14:26Z</time>
      </trkpt>
      <trkpt lat="44.98992" lon="5.47548">
        <ele>1357.52</ele>
        <time>2016-04-29T12:14:40Z</time>
      </trkpt>
      <trkpt lat="44.98992" lon="5.47548">
        <ele>1356.56</ele>
        <time>2016-04-29T12:15:07Z</time>
      </trkpt>
      <trkpt lat="44.98992" lon="5.47547">
        <ele>1361.36</ele>
        <time>2016-04-29T12:15:12Z</time>
      </trkpt>
      <trkpt lat="44.98993" lon="5.47548">
        <ele>1358</ele>
        <time>2016-04-29T12:15:13Z</time>
      </trkpt>
      <trkpt lat="44.98993" lon="5.47549">
        <ele>1357.52</ele>
        <time>2016-04-29T12:15:27Z</time>
      </trkpt>
      <trkpt lat="44.98992" lon="5.47552">
        <ele>1357.04</ele>
        <time>2016-04-29T12:15:38Z</time>
      </trkpt>
      <trkpt lat="44.98992" lon="5.47552">
        <ele>1357.04</ele>
        <time>2016-04-29T12:16:11Z</time>
      </trkpt>
      <trkpt lat="44.98994" lon="5.4755">
        <ele>1357.04</ele>
        <time>2016-04-29T12:16:45Z</time>
      </trkpt>
      <trkpt lat="44.98996" lon="5.47549">
        <ele>1356.56</ele>
        <time>2016-04-29T12:17:25Z</time>
      </trkpt>
      <trkpt lat="44.98996" lon="5.47551">
        <ele>1357.04</ele>
        <time>2016-04-29T12:17:46Z</time>
      </trkpt>
      <trkpt lat="44.98996" lon="5.47551">
        <ele>1357.04</ele>
        <time>2016-04-29T12:17:56Z</time>
      </trkpt>
      <trkpt lat="44.98995" lon="5.47545">
        <ele>1357.04</ele>
        <time>2016-04-29T12:18:02Z</time>
      </trkpt>
      <trkpt lat="44.98994" lon="5.47543">
        <ele>1357.04</ele>
        <time>2016-04-29T12:18:03Z</time>
      </trkpt>
      <trkpt lat="44.98992" lon="5.47542">
        <ele>1357.04</ele>
        <time>2016-04-29T12:18:04Z</time>
      </trkpt>
      <trkpt lat="44.98991" lon="5.4754">
        <ele>1357.52</ele>
        <time>2016-04-29T12:18:05Z</time>
      </trkpt>
      <trkpt lat="44.98991" lon="5.47538">
        <ele>1357.52</ele>
        <time>2016-04-29T12:18:06Z</time>
      </trkpt>
      <trkpt lat="44.9899" lon="5.47536">
        <ele>1357.52</ele>
        <time>2016-04-29T12:18:07Z</time>
      </trkpt>
      <trkpt lat="44.98984" lon="5.47505">
        <ele>1358.96</ele>
        <time>2016-04-29T12:18:19Z</time>
      </trkpt>
      <trkpt lat="44.98978" lon="5.47477">
        <ele>1360.88</ele>
        <time>2016-04-29T12:18:30Z</time>
      </trkpt>
      <trkpt lat="44.98961" lon="5.47454">
        <ele>1362.33</ele>
        <time>2016-04-29T12:18:44Z</time>
      </trkpt>
      <trkpt lat="44.98941" lon="5.47443">
        <ele>1363.77</ele>
        <time>2016-04-29T12:18:55Z</time>
      </trkpt>
      <trkpt lat="44.98916" lon="5.4743">
        <ele>1365.69</ele>
        <time>2016-04-29T12:19:08Z</time>
      </trkpt>
      <trkpt lat="44.98906" lon="5.47421">
        <ele>1366.17</ele>
        <time>2016-04-29T12:19:14Z</time>
      </trkpt>
      <trkpt lat="44.98905" lon="5.4742">
        <ele>1366.17</ele>
        <time>2016-04-29T12:19:15Z</time>
      </trkpt>
      <trkpt lat="44.98904" lon="5.47417">
        <ele>1366.65</ele>
        <time>2016-04-29T12:19:16Z</time>
      </trkpt>
      <trkpt lat="44.98903" lon="5.47416">
        <ele>1366.65</ele>
        <time>2016-04-29T12:19:17Z</time>
      </trkpt>
      <trkpt lat="44.98901" lon="5.47415">
        <ele>1366.65</ele>
        <time>2016-04-29T12:19:18Z</time>
      </trkpt>
      <trkpt lat="44.98898" lon="5.47415">
        <ele>1366.65</ele>
        <time>2016-04-29T12:19:19Z</time>
      </trkpt>
      <trkpt lat="44.98896" lon="5.47413">
        <ele>1366.65</ele>
        <time>2016-04-29T12:19:20Z</time>
      </trkpt>
      <trkpt lat="44.98894" lon="5.47411">
        <ele>1367.13</ele>
        <time>2016-04-29T12:19:21Z</time>
      </trkpt>
      <trkpt lat="44.98893" lon="5.47411">
        <ele>1367.13</ele>
        <time>2016-04-29T12:19:22Z</time>
      </trkpt>
      <trkpt lat="44.98883" lon="5.47409">
        <ele>1367.13</ele>
        <time>2016-04-29T12:19:26Z</time>
      </trkpt>
      <trkpt lat="44.9888" lon="5.47407">
        <ele>1367.13</ele>
        <time>2016-04-29T12:19:28Z</time>
      </trkpt>
      <trkpt lat="44.98872" lon="5.4741">
        <ele>1367.13</ele>
        <time>2016-04-29T12:19:38Z</time>
      </trkpt>
      <trkpt lat="44.98853" lon="5.47417">
        <ele>1365.69</ele>
        <time>2016-04-29T12:19:45Z</time>
      </trkpt>
      <trkpt lat="44.9881" lon="5.47424">
        <ele>1364.73</ele>
        <time>2016-04-29T12:19:56Z</time>
      </trkpt>
      <trkpt lat="44.98788" lon="5.47411">
        <ele>1365.21</ele>
        <time>2016-04-29T12:20:07Z</time>
      </trkpt>
      <trkpt lat="44.98787" lon="5.47408">
        <ele>1364.73</ele>
        <time>2016-04-29T12:20:08Z</time>
      </trkpt>
      <trkpt lat="44.98786" lon="5.47403">
        <ele>1364.25</ele>
        <time>2016-04-29T12:20:09Z</time>
      </trkpt>
      <trkpt lat="44.98785" lon="5.47397">
        <ele>1363.77</ele>
        <time>2016-04-29T12:20:10Z</time>
      </trkpt>
      <trkpt lat="44.98782" lon="5.47391">
        <ele>1362.33</ele>
        <time>2016-04-29T12:20:11Z</time>
      </trkpt>
      <trkpt lat="44.98779" lon="5.47383">
        <ele>1360.88</ele>
        <time>2016-04-29T12:20:12Z</time>
      </trkpt>
      <trkpt lat="44.98768" lon="5.47357">
        <ele>1358.96</ele>
        <time>2016-04-29T12:20:15Z</time>
      </trkpt>
      <trkpt lat="44.98764" lon="5.4735">
        <ele>1359.44</ele>
        <time>2016-04-29T12:20:16Z</time>
      </trkpt>
      <trkpt lat="44.98757" lon="5.4734">
        <ele>1359.44</ele>
        <time>2016-04-29T12:20:18Z</time>
      </trkpt>
      <trkpt lat="44.98754" lon="5.47334">
        <ele>1359.44</ele>
        <time>2016-04-29T12:20:19Z</time>
      </trkpt>
      <trkpt lat="44.98749" lon="5.47322">
        <ele>1358.96</ele>
        <time>2016-04-29T12:20:21Z</time>
      </trkpt>
      <trkpt lat="44.98744" lon="5.47304">
        <ele>1358.48</ele>
        <time>2016-04-29T12:20:24Z</time>
      </trkpt>
      <trkpt lat="44.98743" lon="5.47299">
        <ele>1358.96</ele>
        <time>2016-04-29T12:20:25Z</time>
      </trkpt>
      <trkpt lat="44.98738" lon="5.47289">
        <ele>1358.96</ele>
        <time>2016-04-29T12:20:27Z</time>
      </trkpt>
      <trkpt lat="44.98735" lon="5.47284">
        <ele>1358.48</ele>
        <time>2016-04-29T12:20:28Z</time>
      </trkpt>
      <trkpt lat="44.98731" lon="5.47279">
        <ele>1358.48</ele>
        <time>2016-04-29T12:20:29Z</time>
      </trkpt>
      <trkpt lat="44.98726" lon="5.47275">
        <ele>1357.52</ele>
        <time>2016-04-29T12:20:30Z</time>
      </trkpt>
      <trkpt lat="44.98721" lon="5.47271">
        <ele>1357.04</ele>
        <time>2016-04-29T12:20:31Z</time>
      </trkpt>
      <trkpt lat="44.98717" lon="5.47267">
        <ele>1356.56</ele>
        <time>2016-04-29T12:20:32Z</time>
      </trkpt>
      <trkpt lat="44.98713" lon="5.47264">
        <ele>1357.52</ele>
        <time>2016-04-29T12:20:33Z</time>
      </trkpt>
      <trkpt lat="44.98711" lon="5.47262">
        <ele>1358</ele>
        <time>2016-04-29T12:20:34Z</time>
      </trkpt>
      <trkpt lat="44.9871" lon="5.47259">
        <ele>1358</ele>
        <time>2016-04-29T12:20:35Z</time>
      </trkpt>
      <trkpt lat="44.98709" lon="5.47257">
        <ele>1358.48</ele>
        <time>2016-04-29T12:20:36Z</time>
      </trkpt>
      <trkpt lat="44.98708" lon="5.47255">
        <ele>1358.48</ele>
        <time>2016-04-29T12:20:37Z</time>
      </trkpt>
      <trkpt lat="44.98707" lon="5.47255">
        <ele>1358.48</ele>
        <time>2016-04-29T12:20:38Z</time>
      </trkpt>
      <trkpt lat="44.98705" lon="5.47253">
        <ele>1358.96</ele>
        <time>2016-04-29T12:20:40Z</time>
      </trkpt>
      <trkpt lat="44.987" lon="5.47247">
        <ele>1359.92</ele>
        <time>2016-04-29T12:20:45Z</time>
      </trkpt>
      <trkpt lat="44.98699" lon="5.47246">
        <ele>1359.92</ele>
        <time>2016-04-29T12:20:46Z</time>
      </trkpt>
      <trkpt lat="44.98698" lon="5.47235">
        <ele>1363.29</ele>
        <time>2016-04-29T12:20:57Z</time>
      </trkpt>
      <trkpt lat="44.98695" lon="5.47231">
        <ele>1365.69</ele>
        <time>2016-04-29T12:21:12Z</time>
      </trkpt>
      <trkpt lat="44.9869" lon="5.47223">
        <ele>1367.61</ele>
        <time>2016-04-29T12:21:23Z</time>
      </trkpt>
      <trkpt lat="44.98684" lon="5.4721">
        <ele>1369.05</ele>
        <time>2016-04-29T12:21:34Z</time>
      </trkpt>
      <trkpt lat="44.98685" lon="5.47195">
        <ele>1370.98</ele>
        <time>2016-04-29T12:21:48Z</time>
      </trkpt>
      <trkpt lat="44.98682" lon="5.47189">
        <ele>1373.38</ele>
        <time>2016-04-29T12:22:01Z</time>
      </trkpt>
      <trkpt lat="44.98681" lon="5.47184">
        <ele>1375.78</ele>
        <time>2016-04-29T12:22:12Z</time>
      </trkpt>
      <trkpt lat="44.98679" lon="5.47176">
        <ele>1377.71</ele>
        <time>2016-04-29T12:22:24Z</time>
      </trkpt>
      <trkpt lat="44.98677" lon="5.47173">
        <ele>1378.19</ele>
        <time>2016-04-29T12:22:38Z</time>
      </trkpt>
      <trkpt lat="44.98676" lon="5.47171">
        <ele>1377.71</ele>
        <time>2016-04-29T12:22:42Z</time>
      </trkpt>
      <trkpt lat="44.98675" lon="5.47168">
        <ele>1377.71</ele>
        <time>2016-04-29T12:22:43Z</time>
      </trkpt>
      <trkpt lat="44.98673" lon="5.47165">
        <ele>1376.75</ele>
        <time>2016-04-29T12:22:44Z</time>
      </trkpt>
      <trkpt lat="44.98667" lon="5.47158">
        <ele>1376.26</ele>
        <time>2016-04-29T12:22:47Z</time>
      </trkpt>
      <trkpt lat="44.9865" lon="5.47154">
        <ele>1377.23</ele>
        <time>2016-04-29T12:23:00Z</time>
      </trkpt>
      <trkpt lat="44.98644" lon="5.47149">
        <ele>1378.67</ele>
        <time>2016-04-29T12:23:10Z</time>
      </trkpt>
      <trkpt lat="44.98643" lon="5.47149">
        <ele>1379.15</ele>
        <time>2016-04-29T12:23:11Z</time>
      </trkpt>
      <trkpt lat="44.98638" lon="5.4714">
        <ele>1382.51</ele>
        <time>2016-04-29T12:23:20Z</time>
      </trkpt>
      <trkpt lat="44.98635" lon="5.47136">
        <ele>1383.47</ele>
        <time>2016-04-29T12:23:24Z</time>
      </trkpt>
      <trkpt lat="44.98634" lon="5.47134">
        <ele>1383.96</ele>
        <time>2016-04-29T12:23:26Z</time>
      </trkpt>
      <trkpt lat="44.9863" lon="5.47132">
        <ele>1384.44</ele>
        <time>2016-04-29T12:23:30Z</time>
      </trkpt>
      <trkpt lat="44.98628" lon="5.47132">
        <ele>1384.44</ele>
        <time>2016-04-29T12:23:31Z</time>
      </trkpt>
      <trkpt lat="44.98624" lon="5.47128">
        <ele>1384.44</ele>
        <time>2016-04-29T12:23:36Z</time>
      </trkpt>
      <trkpt lat="44.98618" lon="5.47116">
        <ele>1384.44</ele>
        <time>2016-04-29T12:23:46Z</time>
      </trkpt>
      <trkpt lat="44.98618" lon="5.47115">
        <ele>1384.44</ele>
        <time>2016-04-29T12:23:47Z</time>
      </trkpt>
      <trkpt lat="44.98617" lon="5.47113">
        <ele>1384.44</ele>
        <time>2016-04-29T12:23:48Z</time>
      </trkpt>
      <trkpt lat="44.98613" lon="5.47104">
        <ele>1384.44</ele>
        <time>2016-04-29T12:23:56Z</time>
      </trkpt>
      <trkpt lat="44.98605" lon="5.47092">
        <ele>1384.44</ele>
        <time>2016-04-29T12:24:10Z</time>
      </trkpt>
      <trkpt lat="44.98597" lon="5.47091">
        <ele>1384.92</ele>
        <time>2016-04-29T12:24:18Z</time>
      </trkpt>
      <trkpt lat="44.98595" lon="5.4709">
        <ele>1384.92</ele>
        <time>2016-04-29T12:24:19Z</time>
      </trkpt>
      <trkpt lat="44.98583" lon="5.47089">
        <ele>1385.4</ele>
        <time>2016-04-29T12:24:27Z</time>
      </trkpt>
      <trkpt lat="44.98574" lon="5.47089">
        <ele>1385.4</ele>
        <time>2016-04-29T12:24:33Z</time>
      </trkpt>
      <trkpt lat="44.9857" lon="5.47086">
        <ele>1385.88</ele>
        <time>2016-04-29T12:24:36Z</time>
      </trkpt>
      <trkpt lat="44.98568" lon="5.47086">
        <ele>1385.88</ele>
        <time>2016-04-29T12:24:37Z</time>
      </trkpt>
      <trkpt lat="44.98567" lon="5.47085">
        <ele>1386.36</ele>
        <time>2016-04-29T12:24:38Z</time>
      </trkpt>
      <trkpt lat="44.98565" lon="5.47085">
        <ele>1386.36</ele>
        <time>2016-04-29T12:24:39Z</time>
      </trkpt>
      <trkpt lat="44.98563" lon="5.47084">
        <ele>1386.36</ele>
        <time>2016-04-29T12:24:40Z</time>
      </trkpt>
      <trkpt lat="44.98562" lon="5.47083">
        <ele>1386.84</ele>
        <time>2016-04-29T12:24:41Z</time>
      </trkpt>
      <trkpt lat="44.98561" lon="5.47082">
        <ele>1387.32</ele>
        <time>2016-04-29T12:24:42Z</time>
      </trkpt>
      <trkpt lat="44.98551" lon="5.47071">
        <ele>1389.72</ele>
        <time>2016-04-29T12:24:52Z</time>
      </trkpt>
      <trkpt lat="44.9855" lon="5.47069">
        <ele>1389.72</ele>
        <time>2016-04-29T12:24:53Z</time>
      </trkpt>
      <trkpt lat="44.9855" lon="5.47068">
        <ele>1390.2</ele>
        <time>2016-04-29T12:24:54Z</time>
      </trkpt>
      <trkpt lat="44.98549" lon="5.47066">
        <ele>1390.2</ele>
        <time>2016-04-29T12:24:55Z</time>
      </trkpt>
      <trkpt lat="44.98549" lon="5.47064">
        <ele>1390.2</ele>
        <time>2016-04-29T12:24:56Z</time>
      </trkpt>
      <trkpt lat="44.98548" lon="5.47062">
        <ele>1390.68</ele>
        <time>2016-04-29T12:24:57Z</time>
      </trkpt>
      <trkpt lat="44.98548" lon="5.4706">
        <ele>1390.68</ele>
        <time>2016-04-29T12:24:58Z</time>
      </trkpt>
      <trkpt lat="44.98548" lon="5.47057">
        <ele>1390.68</ele>
        <time>2016-04-29T12:24:59Z</time>
      </trkpt>
      <trkpt lat="44.98547" lon="5.47055">
        <ele>1390.68</ele>
        <time>2016-04-29T12:25:00Z</time>
      </trkpt>
      <trkpt lat="44.98547" lon="5.47052">
        <ele>1390.68</ele>
        <time>2016-04-29T12:25:01Z</time>
      </trkpt>
      <trkpt lat="44.98545" lon="5.4705">
        <ele>1390.68</ele>
        <time>2016-04-29T12:25:02Z</time>
      </trkpt>
      <trkpt lat="44.98544" lon="5.47048">
        <ele>1390.68</ele>
        <time>2016-04-29T12:25:03Z</time>
      </trkpt>
      <trkpt lat="44.98543" lon="5.47047">
        <ele>1390.68</ele>
        <time>2016-04-29T12:25:04Z</time>
      </trkpt>
      <trkpt lat="44.98542" lon="5.47045">
        <ele>1390.2</ele>
        <time>2016-04-29T12:25:05Z</time>
      </trkpt>
      <trkpt lat="44.98541" lon="5.47044">
        <ele>1390.2</ele>
        <time>2016-04-29T12:25:06Z</time>
      </trkpt>
      <trkpt lat="44.98539" lon="5.47042">
        <ele>1390.68</ele>
        <time>2016-04-29T12:25:07Z</time>
      </trkpt>
      <trkpt lat="44.98533" lon="5.47039">
        <ele>1389.24</ele>
        <time>2016-04-29T12:25:09Z</time>
      </trkpt>
      <trkpt lat="44.98527" lon="5.47038">
        <ele>1388.28</ele>
        <time>2016-04-29T12:25:10Z</time>
      </trkpt>
      <trkpt lat="44.98514" lon="5.47038">
        <ele>1388.28</ele>
        <time>2016-04-29T12:25:13Z</time>
      </trkpt>
      <trkpt lat="44.98512" lon="5.47036">
        <ele>1388.76</ele>
        <time>2016-04-29T12:25:14Z</time>
      </trkpt>
      <trkpt lat="44.9851" lon="5.47034">
        <ele>1388.76</ele>
        <time>2016-04-29T12:25:15Z</time>
      </trkpt>
      <trkpt lat="44.98508" lon="5.47032">
        <ele>1389.24</ele>
        <time>2016-04-29T12:25:16Z</time>
      </trkpt>
      <trkpt lat="44.98506" lon="5.4703">
        <ele>1388.76</ele>
        <time>2016-04-29T12:25:17Z</time>
      </trkpt>
      <trkpt lat="44.98503" lon="5.47026">
        <ele>1388.76</ele>
        <time>2016-04-29T12:25:18Z</time>
      </trkpt>
      <trkpt lat="44.98499" lon="5.47021">
        <ele>1387.8</ele>
        <time>2016-04-29T12:25:19Z</time>
      </trkpt>
      <trkpt lat="44.98496" lon="5.47016">
        <ele>1387.8</ele>
        <time>2016-04-29T12:25:20Z</time>
      </trkpt>
      <trkpt lat="44.98485" lon="5.47002">
        <ele>1390.68</ele>
        <time>2016-04-29T12:25:27Z</time>
      </trkpt>
      <trkpt lat="44.98474" lon="5.46975">
        <ele>1391.65</ele>
        <time>2016-04-29T12:25:37Z</time>
      </trkpt>
      <trkpt lat="44.98473" lon="5.46968">
        <ele>1391.65</ele>
        <time>2016-04-29T12:25:39Z</time>
      </trkpt>
      <trkpt lat="44.9846" lon="5.46923">
        <ele>1391.65</ele>
        <time>2016-04-29T12:25:51Z</time>
      </trkpt>
      <trkpt lat="44.98454" lon="5.46891">
        <ele>1393.57</ele>
        <time>2016-04-29T12:26:00Z</time>
      </trkpt>
      <trkpt lat="44.98446" lon="5.46861">
        <ele>1393.09</ele>
        <time>2016-04-29T12:26:09Z</time>
      </trkpt>
      <trkpt lat="44.98445" lon="5.46853">
        <ele>1393.09</ele>
        <time>2016-04-29T12:26:12Z</time>
      </trkpt>
      <trkpt lat="44.98444" lon="5.4685">
        <ele>1393.09</ele>
        <time>2016-04-29T12:26:13Z</time>
      </trkpt>
      <trkpt lat="44.98441" lon="5.46841">
        <ele>1392.13</ele>
        <time>2016-04-29T12:26:15Z</time>
      </trkpt>
      <trkpt lat="44.98439" lon="5.46835">
        <ele>1391.17</ele>
        <time>2016-04-29T12:26:16Z</time>
      </trkpt>
      <trkpt lat="44.98437" lon="5.46828">
        <ele>1390.68</ele>
        <time>2016-04-29T12:26:17Z</time>
      </trkpt>
      <trkpt lat="44.98436" lon="5.46822">
        <ele>1390.2</ele>
        <time>2016-04-29T12:26:18Z</time>
      </trkpt>
      <trkpt lat="44.98436" lon="5.46817">
        <ele>1390.68</ele>
        <time>2016-04-29T12:26:19Z</time>
      </trkpt>
      <trkpt lat="44.98434" lon="5.46798">
        <ele>1393.09</ele>
        <time>2016-04-29T12:26:26Z</time>
      </trkpt>
      <trkpt lat="44.98433" lon="5.46795">
        <ele>1393.57</ele>
        <time>2016-04-29T12:26:27Z</time>
      </trkpt>
      <trkpt lat="44.98433" lon="5.46793">
        <ele>1394.05</ele>
        <time>2016-04-29T12:26:28Z</time>
      </trkpt>
      <trkpt lat="44.9843" lon="5.46781">
        <ele>1395.97</ele>
        <time>2016-04-29T12:26:34Z</time>
      </trkpt>
      <trkpt lat="44.98428" lon="5.46779">
        <ele>1396.45</ele>
        <time>2016-04-29T12:26:35Z</time>
      </trkpt>
      <trkpt lat="44.98427" lon="5.46777">
        <ele>1396.45</ele>
        <time>2016-04-29T12:26:36Z</time>
      </trkpt>
      <trkpt lat="44.98426" lon="5.46775">
        <ele>1396.93</ele>
        <time>2016-04-29T12:26:37Z</time>
      </trkpt>
      <trkpt lat="44.98425" lon="5.46773">
        <ele>1396.93</ele>
        <time>2016-04-29T12:26:38Z</time>
      </trkpt>
      <trkpt lat="44.98425" lon="5.46771">
        <ele>1396.93</ele>
        <time>2016-04-29T12:26:39Z</time>
      </trkpt>
      <trkpt lat="44.98424" lon="5.46769">
        <ele>1396.93</ele>
        <time>2016-04-29T12:26:40Z</time>
      </trkpt>
      <trkpt lat="44.98422" lon="5.46765">
        <ele>1397.41</ele>
        <time>2016-04-29T12:26:42Z</time>
      </trkpt>
      <trkpt lat="44.98421" lon="5.46763">
        <ele>1397.41</ele>
        <time>2016-04-29T12:26:43Z</time>
      </trkpt>
      <trkpt lat="44.9842" lon="5.46761">
        <ele>1397.41</ele>
        <time>2016-04-29T12:26:44Z</time>
      </trkpt>
      <trkpt lat="44.98413" lon="5.46753">
        <ele>1397.89</ele>
        <time>2016-04-29T12:26:50Z</time>
      </trkpt>
      <trkpt lat="44.98412" lon="5.46752">
        <ele>1397.89</ele>
        <time>2016-04-29T12:26:51Z</time>
      </trkpt>
      <trkpt lat="44.9841" lon="5.46751">
        <ele>1398.37</ele>
        <time>2016-04-29T12:26:52Z</time>
      </trkpt>
      <trkpt lat="44.98393" lon="5.46725">
        <ele>1397.89</ele>
        <time>2016-04-29T12:27:04Z</time>
      </trkpt>
      <trkpt lat="44.98393" lon="5.46723">
        <ele>1397.89</ele>
        <time>2016-04-29T12:27:05Z</time>
      </trkpt>
      <trkpt lat="44.98392" lon="5.46721">
        <ele>1397.89</ele>
        <time>2016-04-29T12:27:06Z</time>
      </trkpt>
      <trkpt lat="44.98387" lon="5.46705">
        <ele>1398.86</ele>
        <time>2016-04-29T12:27:17Z</time>
      </trkpt>
      <trkpt lat="44.98387" lon="5.46704">
        <ele>1398.37</ele>
        <time>2016-04-29T12:27:31Z</time>
      </trkpt>
      <trkpt lat="44.98386" lon="5.46704">
        <ele>1398.37</ele>
        <time>2016-04-29T12:27:48Z</time>
      </trkpt>
      <trkpt lat="44.98386" lon="5.46704">
        <ele>1398.37</ele>
        <time>2016-04-29T12:28:14Z</time>
      </trkpt>
      <trkpt lat="44.98386" lon="5.46706">
        <ele>1398.37</ele>
        <time>2016-04-29T12:28:39Z</time>
      </trkpt>
      <trkpt lat="44.98387" lon="5.46705">
        <ele>1398.37</ele>
        <time>2016-04-29T12:29:00Z</time>
      </trkpt>
      <trkpt lat="44.98386" lon="5.46705">
        <ele>1398.37</ele>
        <time>2016-04-29T12:29:20Z</time>
      </trkpt>
      <trkpt lat="44.98386" lon="5.46704">
        <ele>1398.37</ele>
        <time>2016-04-29T12:29:28Z</time>
      </trkpt>
      <trkpt lat="44.98386" lon="5.46702">
        <ele>1397.89</ele>
        <time>2016-04-29T12:29:30Z</time>
      </trkpt>
      <trkpt lat="44.98386" lon="5.467">
        <ele>1397.89</ele>
        <time>2016-04-29T12:29:31Z</time>
      </trkpt>
      <trkpt lat="44.98385" lon="5.46695">
        <ele>1397.41</ele>
        <time>2016-04-29T12:29:35Z</time>
      </trkpt>
      <trkpt lat="44.98384" lon="5.46693">
        <ele>1397.41</ele>
        <time>2016-04-29T12:29:36Z</time>
      </trkpt>
      <trkpt lat="44.98383" lon="5.46691">
        <ele>1396.93</ele>
        <time>2016-04-29T12:29:37Z</time>
      </trkpt>
      <trkpt lat="44.98383" lon="5.46688">
        <ele>1396.45</ele>
        <time>2016-04-29T12:29:38Z</time>
      </trkpt>
      <trkpt lat="44.98383" lon="5.46685">
        <ele>1395.97</ele>
        <time>2016-04-29T12:29:39Z</time>
      </trkpt>
      <trkpt lat="44.98378" lon="5.46665">
        <ele>1393.09</ele>
        <time>2016-04-29T12:29:46Z</time>
      </trkpt>
      <trkpt lat="44.98372" lon="5.46648">
        <ele>1389.72</ele>
        <time>2016-04-29T12:29:51Z</time>
      </trkpt>
      <trkpt lat="44.98354" lon="5.46621">
        <ele>1386.84</ele>
        <time>2016-04-29T12:29:58Z</time>
      </trkpt>
      <trkpt lat="44.98337" lon="5.46596">
        <ele>1382.99</ele>
        <time>2016-04-29T12:30:05Z</time>
      </trkpt>
      <trkpt lat="44.98331" lon="5.46591">
        <ele>1381.07</ele>
        <time>2016-04-29T12:30:08Z</time>
      </trkpt>
      <trkpt lat="44.9833" lon="5.46588">
        <ele>1380.59</ele>
        <time>2016-04-29T12:30:09Z</time>
      </trkpt>
      <trkpt lat="44.98328" lon="5.46585">
        <ele>1380.11</ele>
        <time>2016-04-29T12:30:10Z</time>
      </trkpt>
      <trkpt lat="44.98313" lon="5.4656">
        <ele>1376.75</ele>
        <time>2016-04-29T12:30:17Z</time>
      </trkpt>
      <trkpt lat="44.98299" lon="5.46541">
        <ele>1373.38</ele>
        <time>2016-04-29T12:30:21Z</time>
      </trkpt>
      <trkpt lat="44.98296" lon="5.46536">
        <ele>1372.42</ele>
        <time>2016-04-29T12:30:22Z</time>
      </trkpt>
      <trkpt lat="44.98292" lon="5.46529">
        <ele>1371.46</ele>
        <time>2016-04-29T12:30:23Z</time>
      </trkpt>
      <trkpt lat="44.98288" lon="5.46524">
        <ele>1370.5</ele>
        <time>2016-04-29T12:30:24Z</time>
      </trkpt>
      <trkpt lat="44.98271" lon="5.46501">
        <ele>1367.13</ele>
        <time>2016-04-29T12:30:28Z</time>
      </trkpt>
      <trkpt lat="44.98262" lon="5.46475">
        <ele>1363.77</ele>
        <time>2016-04-29T12:30:32Z</time>
      </trkpt>
      <trkpt lat="44.98258" lon="5.46469">
        <ele>1362.81</ele>
        <time>2016-04-29T12:30:33Z</time>
      </trkpt>
      <trkpt lat="44.98255" lon="5.46463">
        <ele>1362.33</ele>
        <time>2016-04-29T12:30:34Z</time>
      </trkpt>
      <trkpt lat="44.98246" lon="5.46452">
        <ele>1360.4</ele>
        <time>2016-04-29T12:30:36Z</time>
      </trkpt>
      <trkpt lat="44.98241" lon="5.46446">
        <ele>1359.92</ele>
        <time>2016-04-29T12:30:37Z</time>
      </trkpt>
      <trkpt lat="44.98237" lon="5.46439">
        <ele>1358.48</ele>
        <time>2016-04-29T12:30:38Z</time>
      </trkpt>
      <trkpt lat="44.98227" lon="5.46422">
        <ele>1356.08</ele>
        <time>2016-04-29T12:30:40Z</time>
      </trkpt>
      <trkpt lat="44.98213" lon="5.46392">
        <ele>1351.75</ele>
        <time>2016-04-29T12:30:43Z</time>
      </trkpt>
      <trkpt lat="44.98194" lon="5.46361">
        <ele>1347.43</ele>
        <time>2016-04-29T12:30:46Z</time>
      </trkpt>
      <trkpt lat="44.98166" lon="5.4632">
        <ele>1344.06</ele>
        <time>2016-04-29T12:30:50Z</time>
      </trkpt>
      <trkpt lat="44.98143" lon="5.46278">
        <ele>1339.73</ele>
        <time>2016-04-29T12:30:54Z</time>
      </trkpt>
      <trkpt lat="44.98131" lon="5.46257">
        <ele>1337.33</ele>
        <time>2016-04-29T12:30:57Z</time>
      </trkpt>
      <trkpt lat="44.98128" lon="5.46252">
        <ele>1336.37</ele>
        <time>2016-04-29T12:30:58Z</time>
      </trkpt>
      <trkpt lat="44.98124" lon="5.46248">
        <ele>1334.93</ele>
        <time>2016-04-29T12:30:59Z</time>
      </trkpt>
      <trkpt lat="44.98119" lon="5.46243">
        <ele>1333.97</ele>
        <time>2016-04-29T12:31:00Z</time>
      </trkpt>
      <trkpt lat="44.98114" lon="5.46239">
        <ele>1333.01</ele>
        <time>2016-04-29T12:31:01Z</time>
      </trkpt>
      <trkpt lat="44.98108" lon="5.46235">
        <ele>1331.56</ele>
        <time>2016-04-29T12:31:02Z</time>
      </trkpt>
      <trkpt lat="44.98103" lon="5.46232">
        <ele>1330.6</ele>
        <time>2016-04-29T12:31:03Z</time>
      </trkpt>
      <trkpt lat="44.98095" lon="5.46231">
        <ele>1329.16</ele>
        <time>2016-04-29T12:31:04Z</time>
      </trkpt>
      <trkpt lat="44.98088" lon="5.46231">
        <ele>1328.2</ele>
        <time>2016-04-29T12:31:05Z</time>
      </trkpt>
      <trkpt lat="44.98081" lon="5.46233">
        <ele>1327.72</ele>
        <time>2016-04-29T12:31:06Z</time>
      </trkpt>
      <trkpt lat="44.98075" lon="5.46233">
        <ele>1326.76</ele>
        <time>2016-04-29T12:31:07Z</time>
      </trkpt>
      <trkpt lat="44.9807" lon="5.46231">
        <ele>1326.28</ele>
        <time>2016-04-29T12:31:08Z</time>
      </trkpt>
      <trkpt lat="44.98067" lon="5.46227">
        <ele>1325.31</ele>
        <time>2016-04-29T12:31:09Z</time>
      </trkpt>
      <trkpt lat="44.98063" lon="5.46223">
        <ele>1324.35</ele>
        <time>2016-04-29T12:31:10Z</time>
      </trkpt>
      <trkpt lat="44.9806" lon="5.46218">
        <ele>1322.91</ele>
        <time>2016-04-29T12:31:11Z</time>
      </trkpt>
      <trkpt lat="44.98057" lon="5.46213">
        <ele>1321.95</ele>
        <time>2016-04-29T12:31:12Z</time>
      </trkpt>
      <trkpt lat="44.98056" lon="5.46205">
        <ele>1320.51</ele>
        <time>2016-04-29T12:31:13Z</time>
      </trkpt>
      <trkpt lat="44.98054" lon="5.46197">
        <ele>1320.03</ele>
        <time>2016-04-29T12:31:14Z</time>
      </trkpt>
      <trkpt lat="44.98052" lon="5.4618">
        <ele>1319.07</ele>
        <time>2016-04-29T12:31:16Z</time>
      </trkpt>
      <trkpt lat="44.98052" lon="5.46172">
        <ele>1318.59</ele>
        <time>2016-04-29T12:31:17Z</time>
      </trkpt>
      <trkpt lat="44.9805" lon="5.46145">
        <ele>1315.7</ele>
        <time>2016-04-29T12:31:20Z</time>
      </trkpt>
      <trkpt lat="44.98046" lon="5.46115">
        <ele>1311.38</ele>
        <time>2016-04-29T12:31:23Z</time>
      </trkpt>
      <trkpt lat="44.98042" lon="5.46093">
        <ele>1308.49</ele>
        <time>2016-04-29T12:31:25Z</time>
      </trkpt>
      <trkpt lat="44.98037" lon="5.46069">
        <ele>1305.13</ele>
        <time>2016-04-29T12:31:27Z</time>
      </trkpt>
      <trkpt lat="44.98031" lon="5.46043">
        <ele>1301.76</ele>
        <time>2016-04-29T12:31:29Z</time>
      </trkpt>
      <trkpt lat="44.98025" lon="5.46008">
        <ele>1298.4</ele>
        <time>2016-04-29T12:31:32Z</time>
      </trkpt>
      <trkpt lat="44.98023" lon="5.45993">
        <ele>1297.92</ele>
        <time>2016-04-29T12:31:34Z</time>
      </trkpt>
      <trkpt lat="44.9802" lon="5.45978">
        <ele>1296.96</ele>
        <time>2016-04-29T12:31:40Z</time>
      </trkpt>
      <trkpt lat="44.98018" lon="5.45977">
        <ele>1296.96</ele>
        <time>2016-04-29T12:31:41Z</time>
      </trkpt>
      <trkpt lat="44.98016" lon="5.45973">
        <ele>1296.96</ele>
        <time>2016-04-29T12:31:43Z</time>
      </trkpt>
      <trkpt lat="44.98016" lon="5.45969">
        <ele>1296.48</ele>
        <time>2016-04-29T12:31:44Z</time>
      </trkpt>
      <trkpt lat="44.98015" lon="5.45964">
        <ele>1295.99</ele>
        <time>2016-04-29T12:31:45Z</time>
      </trkpt>
      <trkpt lat="44.98014" lon="5.45943">
        <ele>1293.11</ele>
        <time>2016-04-29T12:31:48Z</time>
      </trkpt>
      <trkpt lat="44.98013" lon="5.45934">
        <ele>1292.15</ele>
        <time>2016-04-29T12:31:49Z</time>
      </trkpt>
      <trkpt lat="44.98013" lon="5.45925">
        <ele>1291.19</ele>
        <time>2016-04-29T12:31:50Z</time>
      </trkpt>
      <trkpt lat="44.98012" lon="5.45919">
        <ele>1291.19</ele>
        <time>2016-04-29T12:31:51Z</time>
      </trkpt>
      <trkpt lat="44.98011" lon="5.45896">
        <ele>1290.71</ele>
        <time>2016-04-29T12:31:59Z</time>
      </trkpt>
      <trkpt lat="44.98011" lon="5.45895">
        <ele>1290.71</ele>
        <time>2016-04-29T12:32:12Z</time>
      </trkpt>
      <trkpt lat="44.98011" lon="5.45896">
        <ele>1290.71</ele>
        <time>2016-04-29T12:32:33Z</time>
      </trkpt>
      <trkpt lat="44.98008" lon="5.45895">
        <ele>1290.71</ele>
        <time>2016-04-29T12:32:36Z</time>
      </trkpt>
      <trkpt lat="44.98006" lon="5.45894">
        <ele>1290.23</ele>
        <time>2016-04-29T12:32:37Z</time>
      </trkpt>
      <trkpt lat="44.98004" lon="5.45894">
        <ele>1290.71</ele>
        <time>2016-04-29T12:32:38Z</time>
      </trkpt>
      <trkpt lat="44.98001" lon="5.45894">
        <ele>1290.71</ele>
        <time>2016-04-29T12:32:39Z</time>
      </trkpt>
      <trkpt lat="44.97998" lon="5.45893">
        <ele>1290.23</ele>
        <time>2016-04-29T12:32:40Z</time>
      </trkpt>
      <trkpt lat="44.97958" lon="5.45888">
        <ele>1291.67</ele>
        <time>2016-04-29T12:32:53Z</time>
      </trkpt>
      <trkpt lat="44.97945" lon="5.45888">
        <ele>1292.63</ele>
        <time>2016-04-29T12:32:58Z</time>
      </trkpt>
      <trkpt lat="44.97943" lon="5.45889">
        <ele>1293.11</ele>
        <time>2016-04-29T12:32:59Z</time>
      </trkpt>
      <trkpt lat="44.9794" lon="5.4589">
        <ele>1293.11</ele>
        <time>2016-04-29T12:33:00Z</time>
      </trkpt>
      <trkpt lat="44.97931" lon="5.45889">
        <ele>1293.59</ele>
        <time>2016-04-29T12:33:04Z</time>
      </trkpt>
      <trkpt lat="44.97929" lon="5.4589">
        <ele>1293.59</ele>
        <time>2016-04-29T12:33:05Z</time>
      </trkpt>
      <trkpt lat="44.97926" lon="5.4589">
        <ele>1294.07</ele>
        <time>2016-04-29T12:33:06Z</time>
      </trkpt>
      <trkpt lat="44.97924" lon="5.4589">
        <ele>1294.07</ele>
        <time>2016-04-29T12:33:07Z</time>
      </trkpt>
      <trkpt lat="44.97921" lon="5.4589">
        <ele>1294.07</ele>
        <time>2016-04-29T12:33:08Z</time>
      </trkpt>
      <trkpt lat="44.97919" lon="5.4589">
        <ele>1294.07</ele>
        <time>2016-04-29T12:33:09Z</time>
      </trkpt>
      <trkpt lat="44.97917" lon="5.4589">
        <ele>1294.07</ele>
        <time>2016-04-29T12:33:10Z</time>
      </trkpt>
      <trkpt lat="44.97898" lon="5.45892">
        <ele>1295.51</ele>
        <time>2016-04-29T12:33:19Z</time>
      </trkpt>
      <trkpt lat="44.97896" lon="5.45893">
        <ele>1295.51</ele>
        <time>2016-04-29T12:33:20Z</time>
      </trkpt>
      <trkpt lat="44.97878" lon="5.45891">
        <ele>1297.44</ele>
        <time>2016-04-29T12:33:30Z</time>
      </trkpt>
      <trkpt lat="44.97876" lon="5.45891">
        <ele>1297.44</ele>
        <time>2016-04-29T12:33:31Z</time>
      </trkpt>
      <trkpt lat="44.97848" lon="5.45895">
        <ele>1299.36</ele>
        <time>2016-04-29T12:33:45Z</time>
      </trkpt>
      <trkpt lat="44.97846" lon="5.45896">
        <ele>1299.36</ele>
        <time>2016-04-29T12:33:46Z</time>
      </trkpt>
      <trkpt lat="44.97844" lon="5.45897">
        <ele>1299.84</ele>
        <time>2016-04-29T12:33:47Z</time>
      </trkpt>
      <trkpt lat="44.97842" lon="5.45898">
        <ele>1299.84</ele>
        <time>2016-04-29T12:33:48Z</time>
      </trkpt>
      <trkpt lat="44.97838" lon="5.45899">
        <ele>1300.32</ele>
        <time>2016-04-29T12:33:50Z</time>
      </trkpt>
      <trkpt lat="44.97817" lon="5.45904">
        <ele>1301.76</ele>
        <time>2016-04-29T12:34:02Z</time>
      </trkpt>
      <trkpt lat="44.97797" lon="5.45911">
        <ele>1303.69</ele>
        <time>2016-04-29T12:34:13Z</time>
      </trkpt>
      <trkpt lat="44.97792" lon="5.45915">
        <ele>1304.17</ele>
        <time>2016-04-29T12:34:17Z</time>
      </trkpt>
      <trkpt lat="44.9779" lon="5.45917">
        <ele>1304.17</ele>
        <time>2016-04-29T12:34:18Z</time>
      </trkpt>
      <trkpt lat="44.97778" lon="5.45943">
        <ele>1304.65</ele>
        <time>2016-04-29T12:34:29Z</time>
      </trkpt>
      <trkpt lat="44.97767" lon="5.45976">
        <ele>1305.13</ele>
        <time>2016-04-29T12:34:38Z</time>
      </trkpt>
      <trkpt lat="44.97759" lon="5.46002">
        <ele>1306.09</ele>
        <time>2016-04-29T12:34:45Z</time>
      </trkpt>
      <trkpt lat="44.97748" lon="5.46036">
        <ele>1307.05</ele>
        <time>2016-04-29T12:34:55Z</time>
      </trkpt>
      <trkpt lat="44.9773" lon="5.46074">
        <ele>1308.49</ele>
        <time>2016-04-29T12:35:05Z</time>
      </trkpt>
      <trkpt lat="44.97726" lon="5.46082">
        <ele>1308.49</ele>
        <time>2016-04-29T12:35:08Z</time>
      </trkpt>
      <trkpt lat="44.97724" lon="5.46083">
        <ele>1308.97</ele>
        <time>2016-04-29T12:35:09Z</time>
      </trkpt>
      <trkpt lat="44.97722" lon="5.46085">
        <ele>1308.97</ele>
        <time>2016-04-29T12:35:10Z</time>
      </trkpt>
      <trkpt lat="44.97719" lon="5.46088">
        <ele>1308.97</ele>
        <time>2016-04-29T12:35:11Z</time>
      </trkpt>
      <trkpt lat="44.97716" lon="5.46092">
        <ele>1308.97</ele>
        <time>2016-04-29T12:35:12Z</time>
      </trkpt>
      <trkpt lat="44.97708" lon="5.461">
        <ele>1309.45</ele>
        <time>2016-04-29T12:35:16Z</time>
      </trkpt>
      <trkpt lat="44.97706" lon="5.46102">
        <ele>1309.45</ele>
        <time>2016-04-29T12:35:17Z</time>
      </trkpt>
      <trkpt lat="44.97703" lon="5.46106">
        <ele>1309.45</ele>
        <time>2016-04-29T12:35:18Z</time>
      </trkpt>
      <trkpt lat="44.97672" lon="5.46142">
        <ele>1309.45</ele>
        <time>2016-04-29T12:35:29Z</time>
      </trkpt>
      <trkpt lat="44.97642" lon="5.4617">
        <ele>1309.93</ele>
        <time>2016-04-29T12:35:40Z</time>
      </trkpt>
      <trkpt lat="44.97596" lon="5.46194">
        <ele>1311.38</ele>
        <time>2016-04-29T12:35:52Z</time>
      </trkpt>
      <trkpt lat="44.97567" lon="5.46202">
        <ele>1313.3</ele>
        <time>2016-04-29T12:36:01Z</time>
      </trkpt>
      <trkpt lat="44.97564" lon="5.46202">
        <ele>1313.3</ele>
        <time>2016-04-29T12:36:02Z</time>
      </trkpt>
      <trkpt lat="44.97562" lon="5.46201">
        <ele>1313.78</ele>
        <time>2016-04-29T12:36:03Z</time>
      </trkpt>
      <trkpt lat="44.97542" lon="5.46207">
        <ele>1315.22</ele>
        <time>2016-04-29T12:36:13Z</time>
      </trkpt>
      <trkpt lat="44.9753" lon="5.4621">
        <ele>1315.7</ele>
        <time>2016-04-29T12:36:17Z</time>
      </trkpt>
      <trkpt lat="44.97528" lon="5.46212">
        <ele>1315.7</ele>
        <time>2016-04-29T12:36:18Z</time>
      </trkpt>
      <trkpt lat="44.97526" lon="5.46212">
        <ele>1316.18</ele>
        <time>2016-04-29T12:36:19Z</time>
      </trkpt>
      <trkpt lat="44.97524" lon="5.46212">
        <ele>1316.66</ele>
        <time>2016-04-29T12:36:20Z</time>
      </trkpt>
      <trkpt lat="44.97522" lon="5.46212">
        <ele>1316.66</ele>
        <time>2016-04-29T12:36:21Z</time>
      </trkpt>
      <trkpt lat="44.97521" lon="5.46213">
        <ele>1316.66</ele>
        <time>2016-04-29T12:36:22Z</time>
      </trkpt>
      <trkpt lat="44.9752" lon="5.46213">
        <ele>1317.14</ele>
        <time>2016-04-29T12:36:23Z</time>
      </trkpt>
      <trkpt lat="44.97495" lon="5.46221">
        <ele>1318.59</ele>
        <time>2016-04-29T12:36:34Z</time>
      </trkpt>
      <trkpt lat="44.97467" lon="5.46231">
        <ele>1320.51</ele>
        <time>2016-04-29T12:36:46Z</time>
      </trkpt>
      <trkpt lat="44.97464" lon="5.46231">
        <ele>1320.99</ele>
        <time>2016-04-29T12:36:48Z</time>
      </trkpt>
      <trkpt lat="44.97463" lon="5.4623">
        <ele>1320.99</ele>
        <time>2016-04-29T12:36:49Z</time>
      </trkpt>
      <trkpt lat="44.97432" lon="5.46237">
        <ele>1322.91</ele>
        <time>2016-04-29T12:37:01Z</time>
      </trkpt>
      <trkpt lat="44.97409" lon="5.46243">
        <ele>1323.87</ele>
        <time>2016-04-29T12:37:10Z</time>
      </trkpt>
      <trkpt lat="44.97383" lon="5.46254">
        <ele>1325.31</ele>
        <time>2016-04-29T12:37:20Z</time>
      </trkpt>
      <trkpt lat="44.97347" lon="5.46259">
        <ele>1326.76</ele>
        <time>2016-04-29T12:37:34Z</time>
      </trkpt>
      <trkpt lat="44.97316" lon="5.46257">
        <ele>1328.68</ele>
        <time>2016-04-29T12:37:47Z</time>
      </trkpt>
      <trkpt lat="44.97289" lon="5.46254">
        <ele>1330.12</ele>
        <time>2016-04-29T12:37:59Z</time>
      </trkpt>
      <trkpt lat="44.97282" lon="5.4625">
        <ele>1330.6</ele>
        <time>2016-04-29T12:38:02Z</time>
      </trkpt>
      <trkpt lat="44.9728" lon="5.46248">
        <ele>1330.6</ele>
        <time>2016-04-29T12:38:03Z</time>
      </trkpt>
      <trkpt lat="44.9725" lon="5.46241">
        <ele>1332.04</ele>
        <time>2016-04-29T12:38:15Z</time>
      </trkpt>
      <trkpt lat="44.97239" lon="5.46242">
        <ele>1332.04</ele>
        <time>2016-04-29T12:38:18Z</time>
      </trkpt>
      <trkpt lat="44.97235" lon="5.46242">
        <ele>1331.56</ele>
        <time>2016-04-29T12:38:19Z</time>
      </trkpt>
      <trkpt lat="44.97232" lon="5.46242">
        <ele>1332.04</ele>
        <time>2016-04-29T12:38:20Z</time>
      </trkpt>
      <trkpt lat="44.97182" lon="5.46243">
        <ele>1331.08</ele>
        <time>2016-04-29T12:38:33Z</time>
      </trkpt>
      <trkpt lat="44.97178" lon="5.46241">
        <ele>1330.6</ele>
        <time>2016-04-29T12:38:34Z</time>
      </trkpt>
      <trkpt lat="44.97174" lon="5.46238">
        <ele>1330.6</ele>
        <time>2016-04-29T12:38:35Z</time>
      </trkpt>
      <trkpt lat="44.97166" lon="5.46231">
        <ele>1330.12</ele>
        <time>2016-04-29T12:38:37Z</time>
      </trkpt>
      <trkpt lat="44.97162" lon="5.46227">
        <ele>1330.12</ele>
        <time>2016-04-29T12:38:38Z</time>
      </trkpt>
      <trkpt lat="44.9715" lon="5.46214">
        <ele>1329.64</ele>
        <time>2016-04-29T12:38:41Z</time>
      </trkpt>
      <trkpt lat="44.97146" lon="5.46209">
        <ele>1329.64</ele>
        <time>2016-04-29T12:38:42Z</time>
      </trkpt>
      <trkpt lat="44.97135" lon="5.46195">
        <ele>1329.16</ele>
        <time>2016-04-29T12:38:45Z</time>
      </trkpt>
      <trkpt lat="44.97128" lon="5.46184">
        <ele>1328.68</ele>
        <time>2016-04-29T12:38:47Z</time>
      </trkpt>
      <trkpt lat="44.97125" lon="5.46178">
        <ele>1328.68</ele>
        <time>2016-04-29T12:38:48Z</time>
      </trkpt>
      <trkpt lat="44.97118" lon="5.46168">
        <ele>1327.24</ele>
        <time>2016-04-29T12:38:50Z</time>
      </trkpt>
      <trkpt lat="44.97105" lon="5.46152">
        <ele>1326.28</ele>
        <time>2016-04-29T12:38:53Z</time>
      </trkpt>
      <trkpt lat="44.971" lon="5.46148">
        <ele>1325.8</ele>
        <time>2016-04-29T12:38:54Z</time>
      </trkpt>
      <trkpt lat="44.97096" lon="5.46143">
        <ele>1325.31</ele>
        <time>2016-04-29T12:38:55Z</time>
      </trkpt>
      <trkpt lat="44.97088" lon="5.46131">
        <ele>1324.83</ele>
        <time>2016-04-29T12:38:57Z</time>
      </trkpt>
      <trkpt lat="44.97083" lon="5.46125">
        <ele>1324.35</ele>
        <time>2016-04-29T12:38:58Z</time>
      </trkpt>
      <trkpt lat="44.9708" lon="5.46119">
        <ele>1323.87</ele>
        <time>2016-04-29T12:38:59Z</time>
      </trkpt>
      <trkpt lat="44.97077" lon="5.46113">
        <ele>1323.87</ele>
        <time>2016-04-29T12:39:00Z</time>
      </trkpt>
      <trkpt lat="44.97075" lon="5.46107">
        <ele>1323.39</ele>
        <time>2016-04-29T12:39:01Z</time>
      </trkpt>
      <trkpt lat="44.97074" lon="5.461">
        <ele>1323.39</ele>
        <time>2016-04-29T12:39:02Z</time>
      </trkpt>
      <trkpt lat="44.97073" lon="5.46093">
        <ele>1322.91</ele>
        <time>2016-04-29T12:39:03Z</time>
      </trkpt>
      <trkpt lat="44.97073" lon="5.46078">
        <ele>1321.95</ele>
        <time>2016-04-29T12:39:05Z</time>
      </trkpt>
      <trkpt lat="44.97073" lon="5.4607">
        <ele>1321.47</ele>
        <time>2016-04-29T12:39:06Z</time>
      </trkpt>
      <trkpt lat="44.97073" lon="5.46051">
        <ele>1320.99</ele>
        <time>2016-04-29T12:39:08Z</time>
      </trkpt>
      <trkpt lat="44.97071" lon="5.46042">
        <ele>1320.51</ele>
        <time>2016-04-29T12:39:09Z</time>
      </trkpt>
      <trkpt lat="44.97068" lon="5.46033">
        <ele>1320.03</ele>
        <time>2016-04-29T12:39:10Z</time>
      </trkpt>
      <trkpt lat="44.97063" lon="5.46026">
        <ele>1319.55</ele>
        <time>2016-04-29T12:39:11Z</time>
      </trkpt>
      <trkpt lat="44.97058" lon="5.46021">
        <ele>1319.55</ele>
        <time>2016-04-29T12:39:12Z</time>
      </trkpt>
      <trkpt lat="44.97053" lon="5.46015">
        <ele>1319.55</ele>
        <time>2016-04-29T12:39:13Z</time>
      </trkpt>
      <trkpt lat="44.97028" lon="5.45982">
        <ele>1318.59</ele>
        <time>2016-04-29T12:39:19Z</time>
      </trkpt>
      <trkpt lat="44.96998" lon="5.45947">
        <ele>1317.62</ele>
        <time>2016-04-29T12:39:26Z</time>
      </trkpt>
      <trkpt lat="44.96987" lon="5.45939">
        <ele>1317.14</ele>
        <time>2016-04-29T12:39:28Z</time>
      </trkpt>
      <trkpt lat="44.96981" lon="5.45936">
        <ele>1317.14</ele>
        <time>2016-04-29T12:39:29Z</time>
      </trkpt>
      <trkpt lat="44.96974" lon="5.45935">
        <ele>1317.14</ele>
        <time>2016-04-29T12:39:30Z</time>
      </trkpt>
      <trkpt lat="44.96968" lon="5.45935">
        <ele>1317.14</ele>
        <time>2016-04-29T12:39:31Z</time>
      </trkpt>
      <trkpt lat="44.96961" lon="5.45935">
        <ele>1316.66</ele>
        <time>2016-04-29T12:39:32Z</time>
      </trkpt>
      <trkpt lat="44.96954" lon="5.45935">
        <ele>1316.66</ele>
        <time>2016-04-29T12:39:33Z</time>
      </trkpt>
      <trkpt lat="44.96948" lon="5.45935">
        <ele>1316.66</ele>
        <time>2016-04-29T12:39:34Z</time>
      </trkpt>
      <trkpt lat="44.96942" lon="5.45933">
        <ele>1316.18</ele>
        <time>2016-04-29T12:39:35Z</time>
      </trkpt>
      <trkpt lat="44.96937" lon="5.45929">
        <ele>1315.7</ele>
        <time>2016-04-29T12:39:36Z</time>
      </trkpt>
      <trkpt lat="44.96933" lon="5.45925">
        <ele>1315.22</ele>
        <time>2016-04-29T12:39:37Z</time>
      </trkpt>
      <trkpt lat="44.96929" lon="5.4592">
        <ele>1314.74</ele>
        <time>2016-04-29T12:39:38Z</time>
      </trkpt>
      <trkpt lat="44.96925" lon="5.45914">
        <ele>1314.26</ele>
        <time>2016-04-29T12:39:39Z</time>
      </trkpt>
      <trkpt lat="44.96921" lon="5.45907">
        <ele>1314.26</ele>
        <time>2016-04-29T12:39:40Z</time>
      </trkpt>
      <trkpt lat="44.96917" lon="5.45901">
        <ele>1314.26</ele>
        <time>2016-04-29T12:39:41Z</time>
      </trkpt>
      <trkpt lat="44.96881" lon="5.45864">
        <ele>1312.34</ele>
        <time>2016-04-29T12:39:49Z</time>
      </trkpt>
      <trkpt lat="44.96877" lon="5.45859">
        <ele>1312.34</ele>
        <time>2016-04-29T12:39:50Z</time>
      </trkpt>
      <trkpt lat="44.96873" lon="5.45853">
        <ele>1311.86</ele>
        <time>2016-04-29T12:39:51Z</time>
      </trkpt>
      <trkpt lat="44.96869" lon="5.45847">
        <ele>1311.38</ele>
        <time>2016-04-29T12:39:52Z</time>
      </trkpt>
      <trkpt lat="44.96866" lon="5.45841">
        <ele>1311.38</ele>
        <time>2016-04-29T12:39:53Z</time>
      </trkpt>
      <trkpt lat="44.96861" lon="5.45827">
        <ele>1310.9</ele>
        <time>2016-04-29T12:39:55Z</time>
      </trkpt>
      <trkpt lat="44.96859" lon="5.45819">
        <ele>1310.41</ele>
        <time>2016-04-29T12:39:56Z</time>
      </trkpt>
      <trkpt lat="44.96841" lon="5.45768">
        <ele>1308.97</ele>
        <time>2016-04-29T12:40:02Z</time>
      </trkpt>
      <trkpt lat="44.96837" lon="5.4576">
        <ele>1308.49</ele>
        <time>2016-04-29T12:40:03Z</time>
      </trkpt>
      <trkpt lat="44.96831" lon="5.45754">
        <ele>1307.53</ele>
        <time>2016-04-29T12:40:04Z</time>
      </trkpt>
      <trkpt lat="44.96825" lon="5.45748">
        <ele>1307.53</ele>
        <time>2016-04-29T12:40:05Z</time>
      </trkpt>
      <trkpt lat="44.96819" lon="5.45743">
        <ele>1307.53</ele>
        <time>2016-04-29T12:40:06Z</time>
      </trkpt>
      <trkpt lat="44.96813" lon="5.45738">
        <ele>1307.05</ele>
        <time>2016-04-29T12:40:07Z</time>
      </trkpt>
      <trkpt lat="44.96809" lon="5.45732">
        <ele>1306.57</ele>
        <time>2016-04-29T12:40:08Z</time>
      </trkpt>
      <trkpt lat="44.96804" lon="5.45725">
        <ele>1306.09</ele>
        <time>2016-04-29T12:40:09Z</time>
      </trkpt>
      <trkpt lat="44.96796" lon="5.4571">
        <ele>1305.61</ele>
        <time>2016-04-29T12:40:11Z</time>
      </trkpt>
      <trkpt lat="44.96792" lon="5.45704">
        <ele>1305.13</ele>
        <time>2016-04-29T12:40:12Z</time>
      </trkpt>
      <trkpt lat="44.96787" lon="5.45699">
        <ele>1304.65</ele>
        <time>2016-04-29T12:40:13Z</time>
      </trkpt>
      <trkpt lat="44.96781" lon="5.45694">
        <ele>1305.13</ele>
        <time>2016-04-29T12:40:14Z</time>
      </trkpt>
      <trkpt lat="44.96776" lon="5.4569">
        <ele>1304.65</ele>
        <time>2016-04-29T12:40:15Z</time>
      </trkpt>
      <trkpt lat="44.96732" lon="5.45653">
        <ele>1305.13</ele>
        <time>2016-04-29T12:40:25Z</time>
      </trkpt>
      <trkpt lat="44.96727" lon="5.45651">
        <ele>1304.65</ele>
        <time>2016-04-29T12:40:26Z</time>
      </trkpt>
      <trkpt lat="44.96722" lon="5.45652">
        <ele>1304.17</ele>
        <time>2016-04-29T12:40:27Z</time>
      </trkpt>
      <trkpt lat="44.96718" lon="5.45654">
        <ele>1304.65</ele>
        <time>2016-04-29T12:40:28Z</time>
      </trkpt>
      <trkpt lat="44.96716" lon="5.45658">
        <ele>1305.13</ele>
        <time>2016-04-29T12:40:29Z</time>
      </trkpt>
      <trkpt lat="44.96715" lon="5.45662">
        <ele>1305.61</ele>
        <time>2016-04-29T12:40:30Z</time>
      </trkpt>
      <trkpt lat="44.96715" lon="5.45665">
        <ele>1305.61</ele>
        <time>2016-04-29T12:40:31Z</time>
      </trkpt>
      <trkpt lat="44.96714" lon="5.45668">
        <ele>1306.09</ele>
        <time>2016-04-29T12:40:32Z</time>
      </trkpt>
      <trkpt lat="44.96713" lon="5.45672">
        <ele>1306.09</ele>
        <time>2016-04-29T12:40:33Z</time>
      </trkpt>
      <trkpt lat="44.96712" lon="5.45675">
        <ele>1306.09</ele>
        <time>2016-04-29T12:40:34Z</time>
      </trkpt>
      <trkpt lat="44.96711" lon="5.45677">
        <ele>1306.09</ele>
        <time>2016-04-29T12:40:35Z</time>
      </trkpt>
      <trkpt lat="44.9671" lon="5.45681">
        <ele>1306.09</ele>
        <time>2016-04-29T12:40:36Z</time>
      </trkpt>
      <trkpt lat="44.96691" lon="5.45714">
        <ele>1305.61</ele>
        <time>2016-04-29T12:40:45Z</time>
      </trkpt>
      <trkpt lat="44.96684" lon="5.45727">
        <ele>1305.61</ele>
        <time>2016-04-29T12:40:48Z</time>
      </trkpt>
      <trkpt lat="44.96681" lon="5.45732">
        <ele>1305.61</ele>
        <time>2016-04-29T12:40:49Z</time>
      </trkpt>
      <trkpt lat="44.96679" lon="5.45737">
        <ele>1305.61</ele>
        <time>2016-04-29T12:40:50Z</time>
      </trkpt>
      <trkpt lat="44.96677" lon="5.45741">
        <ele>1305.61</ele>
        <time>2016-04-29T12:40:51Z</time>
      </trkpt>
      <trkpt lat="44.96675" lon="5.45745">
        <ele>1305.13</ele>
        <time>2016-04-29T12:40:52Z</time>
      </trkpt>
      <trkpt lat="44.96673" lon="5.4575">
        <ele>1304.65</ele>
        <time>2016-04-29T12:40:53Z</time>
      </trkpt>
      <trkpt lat="44.9667" lon="5.45761">
        <ele>1304.65</ele>
        <time>2016-04-29T12:40:55Z</time>
      </trkpt>
      <trkpt lat="44.96668" lon="5.45767">
        <ele>1305.13</ele>
        <time>2016-04-29T12:40:56Z</time>
      </trkpt>
      <trkpt lat="44.96667" lon="5.45773">
        <ele>1304.65</ele>
        <time>2016-04-29T12:40:57Z</time>
      </trkpt>
      <trkpt lat="44.96654" lon="5.45828">
        <ele>1304.65</ele>
        <time>2016-04-29T12:41:07Z</time>
      </trkpt>
      <trkpt lat="44.96647" lon="5.45852">
        <ele>1304.65</ele>
        <time>2016-04-29T12:41:11Z</time>
      </trkpt>
      <trkpt lat="44.96645" lon="5.45865">
        <ele>1304.65</ele>
        <time>2016-04-29T12:41:13Z</time>
      </trkpt>
      <trkpt lat="44.96644" lon="5.45877">
        <ele>1304.65</ele>
        <time>2016-04-29T12:41:15Z</time>
      </trkpt>
      <trkpt lat="44.96644" lon="5.45883">
        <ele>1304.65</ele>
        <time>2016-04-29T12:41:16Z</time>
      </trkpt>
      <trkpt lat="44.96643" lon="5.4589">
        <ele>1304.65</ele>
        <time>2016-04-29T12:41:17Z</time>
      </trkpt>
      <trkpt lat="44.96642" lon="5.45896">
        <ele>1305.13</ele>
        <time>2016-04-29T12:41:18Z</time>
      </trkpt>
      <trkpt lat="44.9664" lon="5.45902">
        <ele>1304.65</ele>
        <time>2016-04-29T12:41:19Z</time>
      </trkpt>
      <trkpt lat="44.9664" lon="5.45908">
        <ele>1304.65</ele>
        <time>2016-04-29T12:41:20Z</time>
      </trkpt>
      <trkpt lat="44.96639" lon="5.45914">
        <ele>1304.65</ele>
        <time>2016-04-29T12:41:21Z</time>
      </trkpt>
      <trkpt lat="44.96626" lon="5.45983">
        <ele>1305.13</ele>
        <time>2016-04-29T12:41:33Z</time>
      </trkpt>
      <trkpt lat="44.96625" lon="5.45988">
        <ele>1305.13</ele>
        <time>2016-04-29T12:41:34Z</time>
      </trkpt>
      <trkpt lat="44.96623" lon="5.45993">
        <ele>1305.13</ele>
        <time>2016-04-29T12:41:35Z</time>
      </trkpt>
      <trkpt lat="44.96618" lon="5.46001">
        <ele>1305.13</ele>
        <time>2016-04-29T12:41:37Z</time>
      </trkpt>
      <trkpt lat="44.96614" lon="5.46005">
        <ele>1305.13</ele>
        <time>2016-04-29T12:41:38Z</time>
      </trkpt>
      <trkpt lat="44.9661" lon="5.46009">
        <ele>1305.13</ele>
        <time>2016-04-29T12:41:39Z</time>
      </trkpt>
      <trkpt lat="44.96606" lon="5.46012">
        <ele>1305.13</ele>
        <time>2016-04-29T12:41:40Z</time>
      </trkpt>
      <trkpt lat="44.966" lon="5.46015">
        <ele>1305.13</ele>
        <time>2016-04-29T12:41:41Z</time>
      </trkpt>
      <trkpt lat="44.96596" lon="5.46016">
        <ele>1305.13</ele>
        <time>2016-04-29T12:41:42Z</time>
      </trkpt>
      <trkpt lat="44.96592" lon="5.46017">
        <ele>1305.13</ele>
        <time>2016-04-29T12:41:43Z</time>
      </trkpt>
      <trkpt lat="44.96588" lon="5.46017">
        <ele>1305.61</ele>
        <time>2016-04-29T12:41:44Z</time>
      </trkpt>
      <trkpt lat="44.96585" lon="5.46017">
        <ele>1305.13</ele>
        <time>2016-04-29T12:41:45Z</time>
      </trkpt>
      <trkpt lat="44.96572" lon="5.46014">
        <ele>1305.13</ele>
        <time>2016-04-29T12:41:48Z</time>
      </trkpt>
      <trkpt lat="44.96563" lon="5.46011">
        <ele>1304.65</ele>
        <time>2016-04-29T12:41:50Z</time>
      </trkpt>
      <trkpt lat="44.96558" lon="5.4601">
        <ele>1304.65</ele>
        <time>2016-04-29T12:41:51Z</time>
      </trkpt>
      <trkpt lat="44.96553" lon="5.46009">
        <ele>1304.65</ele>
        <time>2016-04-29T12:41:52Z</time>
      </trkpt>
      <trkpt lat="44.96549" lon="5.46008">
        <ele>1304.65</ele>
        <time>2016-04-29T12:41:53Z</time>
      </trkpt>
      <trkpt lat="44.96545" lon="5.46008">
        <ele>1304.65</ele>
        <time>2016-04-29T12:41:54Z</time>
      </trkpt>
      <trkpt lat="44.9654" lon="5.46008">
        <ele>1304.65</ele>
        <time>2016-04-29T12:41:55Z</time>
      </trkpt>
      <trkpt lat="44.96536" lon="5.46009">
        <ele>1304.65</ele>
        <time>2016-04-29T12:41:56Z</time>
      </trkpt>
      <trkpt lat="44.96517" lon="5.4602">
        <ele>1305.13</ele>
        <time>2016-04-29T12:42:01Z</time>
      </trkpt>
      <trkpt lat="44.96513" lon="5.46023">
        <ele>1305.13</ele>
        <time>2016-04-29T12:42:02Z</time>
      </trkpt>
      <trkpt lat="44.96479" lon="5.46048">
        <ele>1306.09</ele>
        <time>2016-04-29T12:42:12Z</time>
      </trkpt>
      <trkpt lat="44.96449" lon="5.46038">
        <ele>1308.49</ele>
        <time>2016-04-29T12:42:22Z</time>
      </trkpt>
      <trkpt lat="44.9642" lon="5.46024">
        <ele>1310.41</ele>
        <time>2016-04-29T12:42:33Z</time>
      </trkpt>
      <trkpt lat="44.96383" lon="5.46026">
        <ele>1312.82</ele>
        <time>2016-04-29T12:42:47Z</time>
      </trkpt>
      <trkpt lat="44.96365" lon="5.46033">
        <ele>1314.26</ele>
        <time>2016-04-29T12:42:56Z</time>
      </trkpt>
      <trkpt lat="44.96363" lon="5.46033">
        <ele>1314.74</ele>
        <time>2016-04-29T12:42:57Z</time>
      </trkpt>
      <trkpt lat="44.96361" lon="5.46034">
        <ele>1314.74</ele>
        <time>2016-04-29T12:42:58Z</time>
      </trkpt>
      <trkpt lat="44.96333" lon="5.46036">
        <ele>1317.14</ele>
        <time>2016-04-29T12:43:12Z</time>
      </trkpt>
      <trkpt lat="44.96332" lon="5.46036">
        <ele>1317.14</ele>
        <time>2016-04-29T12:43:13Z</time>
      </trkpt>
      <trkpt lat="44.9633" lon="5.46036">
        <ele>1317.14</ele>
        <time>2016-04-29T12:43:14Z</time>
      </trkpt>
      <trkpt lat="44.96329" lon="5.46035">
        <ele>1317.14</ele>
        <time>2016-04-29T12:43:15Z</time>
      </trkpt>
      <trkpt lat="44.96327" lon="5.46033">
        <ele>1317.62</ele>
        <time>2016-04-29T12:43:16Z</time>
      </trkpt>
      <trkpt lat="44.96326" lon="5.46032">
        <ele>1317.62</ele>
        <time>2016-04-29T12:43:17Z</time>
      </trkpt>
      <trkpt lat="44.96326" lon="5.46029">
        <ele>1317.62</ele>
        <time>2016-04-29T12:43:18Z</time>
      </trkpt>
      <trkpt lat="44.96325" lon="5.46027">
        <ele>1318.1</ele>
        <time>2016-04-29T12:43:19Z</time>
      </trkpt>
      <trkpt lat="44.96326" lon="5.46024">
        <ele>1318.1</ele>
        <time>2016-04-29T12:43:20Z</time>
      </trkpt>
      <trkpt lat="44.96326" lon="5.45993">
        <ele>1320.03</ele>
        <time>2016-04-29T12:43:31Z</time>
      </trkpt>
      <trkpt lat="44.96324" lon="5.45987">
        <ele>1320.51</ele>
        <time>2016-04-29T12:43:35Z</time>
      </trkpt>
      <trkpt lat="44.96324" lon="5.45981">
        <ele>1320.99</ele>
        <time>2016-04-29T12:43:40Z</time>
      </trkpt>
      <trkpt lat="44.96334" lon="5.45974">
        <ele>1321.95</ele>
        <time>2016-04-29T12:43:47Z</time>
      </trkpt>
      <trkpt lat="44.96348" lon="5.45959">
        <ele>1323.39</ele>
        <time>2016-04-29T12:43:56Z</time>
      </trkpt>
      <trkpt lat="44.96361" lon="5.45947">
        <ele>1325.8</ele>
        <time>2016-04-29T12:44:07Z</time>
      </trkpt>
      <trkpt lat="44.96386" lon="5.45926">
        <ele>1327.24</ele>
        <time>2016-04-29T12:44:21Z</time>
      </trkpt>
      <trkpt lat="44.96387" lon="5.45924">
        <ele>1327.72</ele>
        <time>2016-04-29T12:44:22Z</time>
      </trkpt>
      <trkpt lat="44.96388" lon="5.45921">
        <ele>1327.72</ele>
        <time>2016-04-29T12:44:23Z</time>
      </trkpt>
      <trkpt lat="44.96391" lon="5.45912">
        <ele>1328.2</ele>
        <time>2016-04-29T12:44:26Z</time>
      </trkpt>
      <trkpt lat="44.96393" lon="5.45908">
        <ele>1328.68</ele>
        <time>2016-04-29T12:44:27Z</time>
      </trkpt>
      <trkpt lat="44.96393" lon="5.45905">
        <ele>1328.68</ele>
        <time>2016-04-29T12:44:28Z</time>
      </trkpt>
      <trkpt lat="44.96392" lon="5.45903">
        <ele>1328.68</ele>
        <time>2016-04-29T12:44:29Z</time>
      </trkpt>
      <trkpt lat="44.96391" lon="5.45902">
        <ele>1329.16</ele>
        <time>2016-04-29T12:44:30Z</time>
      </trkpt>
      <trkpt lat="44.96389" lon="5.45901">
        <ele>1329.16</ele>
        <time>2016-04-29T12:44:31Z</time>
      </trkpt>
      <trkpt lat="44.96388" lon="5.459">
        <ele>1329.16</ele>
        <time>2016-04-29T12:44:32Z</time>
      </trkpt>
      <trkpt lat="44.96386" lon="5.459">
        <ele>1329.16</ele>
        <time>2016-04-29T12:44:33Z</time>
      </trkpt>
      <trkpt lat="44.96371" lon="5.45906">
        <ele>1330.6</ele>
        <time>2016-04-29T12:44:43Z</time>
      </trkpt>
      <trkpt lat="44.96351" lon="5.45916">
        <ele>1331.56</ele>
        <time>2016-04-29T12:44:53Z</time>
      </trkpt>
      <trkpt lat="44.96344" lon="5.45917">
        <ele>1332.04</ele>
        <time>2016-04-29T12:44:56Z</time>
      </trkpt>
      <trkpt lat="44.96342" lon="5.45917">
        <ele>1332.04</ele>
        <time>2016-04-29T12:44:57Z</time>
      </trkpt>
      <trkpt lat="44.9634" lon="5.45918">
        <ele>1332.04</ele>
        <time>2016-04-29T12:44:58Z</time>
      </trkpt>
      <trkpt lat="44.96338" lon="5.45918">
        <ele>1332.04</ele>
        <time>2016-04-29T12:44:59Z</time>
      </trkpt>
      <trkpt lat="44.96336" lon="5.45918">
        <ele>1332.52</ele>
        <time>2016-04-29T12:45:00Z</time>
      </trkpt>
      <trkpt lat="44.96333" lon="5.45919">
        <ele>1333.01</ele>
        <time>2016-04-29T12:45:01Z</time>
      </trkpt>
      <trkpt lat="44.96331" lon="5.45918">
        <ele>1333.01</ele>
        <time>2016-04-29T12:45:02Z</time>
      </trkpt>
      <trkpt lat="44.96329" lon="5.45918">
        <ele>1333.01</ele>
        <time>2016-04-29T12:45:03Z</time>
      </trkpt>
      <trkpt lat="44.96327" lon="5.45918">
        <ele>1333.49</ele>
        <time>2016-04-29T12:45:04Z</time>
      </trkpt>
      <trkpt lat="44.96317" lon="5.45917">
        <ele>1333.97</ele>
        <time>2016-04-29T12:45:09Z</time>
      </trkpt>
      <trkpt lat="44.96315" lon="5.45918">
        <ele>1334.45</ele>
        <time>2016-04-29T12:45:10Z</time>
      </trkpt>
      <trkpt lat="44.96313" lon="5.45918">
        <ele>1334.45</ele>
        <time>2016-04-29T12:45:11Z</time>
      </trkpt>
      <trkpt lat="44.96291" lon="5.45911">
        <ele>1336.37</ele>
        <time>2016-04-29T12:45:23Z</time>
      </trkpt>
      <trkpt lat="44.96283" lon="5.45893">
        <ele>1336.85</ele>
        <time>2016-04-29T12:45:31Z</time>
      </trkpt>
      <trkpt lat="44.96283" lon="5.4589">
        <ele>1336.85</ele>
        <time>2016-04-29T12:45:32Z</time>
      </trkpt>
      <trkpt lat="44.96283" lon="5.45888">
        <ele>1336.85</ele>
        <time>2016-04-29T12:45:33Z</time>
      </trkpt>
      <trkpt lat="44.96283" lon="5.45886">
        <ele>1337.33</ele>
        <time>2016-04-29T12:45:34Z</time>
      </trkpt>
      <trkpt lat="44.96282" lon="5.45883">
        <ele>1337.33</ele>
        <time>2016-04-29T12:45:35Z</time>
      </trkpt>
      <trkpt lat="44.9628" lon="5.45881">
        <ele>1337.33</ele>
        <time>2016-04-29T12:45:36Z</time>
      </trkpt>
      <trkpt lat="44.96275" lon="5.45874">
        <ele>1338.29</ele>
        <time>2016-04-29T12:45:40Z</time>
      </trkpt>
      <trkpt lat="44.96267" lon="5.45861">
        <ele>1339.25</ele>
        <time>2016-04-29T12:45:47Z</time>
      </trkpt>
      <trkpt lat="44.96265" lon="5.4586">
        <ele>1339.25</ele>
        <time>2016-04-29T12:45:48Z</time>
      </trkpt>
      <trkpt lat="44.96264" lon="5.45859">
        <ele>1339.25</ele>
        <time>2016-04-29T12:45:49Z</time>
      </trkpt>
      <trkpt lat="44.96262" lon="5.45858">
        <ele>1339.25</ele>
        <time>2016-04-29T12:45:50Z</time>
      </trkpt>
      <trkpt lat="44.9626" lon="5.45856">
        <ele>1339.73</ele>
        <time>2016-04-29T12:45:51Z</time>
      </trkpt>
      <trkpt lat="44.96258" lon="5.45855">
        <ele>1340.22</ele>
        <time>2016-04-29T12:45:52Z</time>
      </trkpt>
      <trkpt lat="44.96256" lon="5.45854">
        <ele>1340.22</ele>
        <time>2016-04-29T12:45:53Z</time>
      </trkpt>
      <trkpt lat="44.96253" lon="5.45853">
        <ele>1340.22</ele>
        <time>2016-04-29T12:45:54Z</time>
      </trkpt>
      <trkpt lat="44.96251" lon="5.45852">
        <ele>1340.22</ele>
        <time>2016-04-29T12:45:55Z</time>
      </trkpt>
      <trkpt lat="44.96223" lon="5.45852">
        <ele>1342.14</ele>
        <time>2016-04-29T12:46:08Z</time>
      </trkpt>
      <trkpt lat="44.96219" lon="5.45852">
        <ele>1342.62</ele>
        <time>2016-04-29T12:46:10Z</time>
      </trkpt>
      <trkpt lat="44.96217" lon="5.45853">
        <ele>1342.62</ele>
        <time>2016-04-29T12:46:11Z</time>
      </trkpt>
      <trkpt lat="44.96214" lon="5.45854">
        <ele>1343.1</ele>
        <time>2016-04-29T12:46:12Z</time>
      </trkpt>
      <trkpt lat="44.96207" lon="5.45854">
        <ele>1343.58</ele>
        <time>2016-04-29T12:46:16Z</time>
      </trkpt>
      <trkpt lat="44.96206" lon="5.45854">
        <ele>1344.06</ele>
        <time>2016-04-29T12:46:17Z</time>
      </trkpt>
      <trkpt lat="44.96204" lon="5.45854">
        <ele>1344.06</ele>
        <time>2016-04-29T12:46:18Z</time>
      </trkpt>
      <trkpt lat="44.96203" lon="5.45855">
        <ele>1344.06</ele>
        <time>2016-04-29T12:46:19Z</time>
      </trkpt>
      <trkpt lat="44.962" lon="5.45856">
        <ele>1344.06</ele>
        <time>2016-04-29T12:46:20Z</time>
      </trkpt>
      <trkpt lat="44.96199" lon="5.45857">
        <ele>1344.06</ele>
        <time>2016-04-29T12:46:21Z</time>
      </trkpt>
      <trkpt lat="44.96197" lon="5.45858">
        <ele>1344.54</ele>
        <time>2016-04-29T12:46:22Z</time>
      </trkpt>
      <trkpt lat="44.96195" lon="5.45859">
        <ele>1344.54</ele>
        <time>2016-04-29T12:46:23Z</time>
      </trkpt>
      <trkpt lat="44.96184" lon="5.45864">
        <ele>1345.98</ele>
        <time>2016-04-29T12:46:32Z</time>
      </trkpt>
      <trkpt lat="44.96182" lon="5.45865">
        <ele>1345.98</ele>
        <time>2016-04-29T12:46:33Z</time>
      </trkpt>
      <trkpt lat="44.96181" lon="5.45866">
        <ele>1345.98</ele>
        <time>2016-04-29T12:46:34Z</time>
      </trkpt>
      <trkpt lat="44.96165" lon="5.45883">
        <ele>1348.39</ele>
        <time>2016-04-29T12:46:47Z</time>
      </trkpt>
      <trkpt lat="44.96162" lon="5.45886">
        <ele>1348.87</ele>
        <time>2016-04-29T12:46:49Z</time>
      </trkpt>
      <trkpt lat="44.9616" lon="5.45888">
        <ele>1348.87</ele>
        <time>2016-04-29T12:46:50Z</time>
      </trkpt>
      <trkpt lat="44.9615" lon="5.45895">
        <ele>1349.35</ele>
        <time>2016-04-29T12:46:55Z</time>
      </trkpt>
      <trkpt lat="44.96142" lon="5.45898">
        <ele>1349.83</ele>
        <time>2016-04-29T12:47:07Z</time>
      </trkpt>
      <trkpt lat="44.96139" lon="5.45901">
        <ele>1349.83</ele>
        <time>2016-04-29T12:47:20Z</time>
      </trkpt>
      <trkpt lat="44.96137" lon="5.45903">
        <ele>1349.83</ele>
        <time>2016-04-29T12:47:21Z</time>
      </trkpt>
      <trkpt lat="44.96136" lon="5.45904">
        <ele>1349.83</ele>
        <time>2016-04-29T12:47:22Z</time>
      </trkpt>
      <trkpt lat="44.96135" lon="5.45906">
        <ele>1349.83</ele>
        <time>2016-04-29T12:47:23Z</time>
      </trkpt>
      <trkpt lat="44.96134" lon="5.45907">
        <ele>1349.83</ele>
        <time>2016-04-29T12:47:24Z</time>
      </trkpt>
      <trkpt lat="44.96133" lon="5.45909">
        <ele>1349.83</ele>
        <time>2016-04-29T12:47:25Z</time>
      </trkpt>
      <trkpt lat="44.96132" lon="5.45911">
        <ele>1350.31</ele>
        <time>2016-04-29T12:47:26Z</time>
      </trkpt>
      <trkpt lat="44.96131" lon="5.45913">
        <ele>1349.83</ele>
        <time>2016-04-29T12:47:27Z</time>
      </trkpt>
      <trkpt lat="44.9613" lon="5.45915">
        <ele>1349.83</ele>
        <time>2016-04-29T12:47:28Z</time>
      </trkpt>
      <trkpt lat="44.96129" lon="5.45917">
        <ele>1350.31</ele>
        <time>2016-04-29T12:47:29Z</time>
      </trkpt>
      <trkpt lat="44.96117" lon="5.45941">
        <ele>1351.27</ele>
        <time>2016-04-29T12:47:40Z</time>
      </trkpt>
      <trkpt lat="44.96109" lon="5.45982">
        <ele>1353.19</ele>
        <time>2016-04-29T12:47:53Z</time>
      </trkpt>
      <trkpt lat="44.96108" lon="5.45985">
        <ele>1353.19</ele>
        <time>2016-04-29T12:47:54Z</time>
      </trkpt>
      <trkpt lat="44.96101" lon="5.46012">
        <ele>1354.15</ele>
        <time>2016-04-29T12:48:03Z</time>
      </trkpt>
      <trkpt lat="44.96099" lon="5.46016">
        <ele>1353.67</ele>
        <time>2016-04-29T12:48:04Z</time>
      </trkpt>
      <trkpt lat="44.96098" lon="5.4602">
        <ele>1353.67</ele>
        <time>2016-04-29T12:48:05Z</time>
      </trkpt>
      <trkpt lat="44.96096" lon="5.46025">
        <ele>1353.67</ele>
        <time>2016-04-29T12:48:06Z</time>
      </trkpt>
      <trkpt lat="44.96095" lon="5.4603">
        <ele>1353.19</ele>
        <time>2016-04-29T12:48:07Z</time>
      </trkpt>
      <trkpt lat="44.96095" lon="5.46035">
        <ele>1352.71</ele>
        <time>2016-04-29T12:48:08Z</time>
      </trkpt>
      <trkpt lat="44.96095" lon="5.46041">
        <ele>1352.71</ele>
        <time>2016-04-29T12:48:09Z</time>
      </trkpt>
      <trkpt lat="44.96095" lon="5.46046">
        <ele>1352.23</ele>
        <time>2016-04-29T12:48:10Z</time>
      </trkpt>
      <trkpt lat="44.96095" lon="5.46053">
        <ele>1352.23</ele>
        <time>2016-04-29T12:48:11Z</time>
      </trkpt>
      <trkpt lat="44.96095" lon="5.4606">
        <ele>1351.75</ele>
        <time>2016-04-29T12:48:12Z</time>
      </trkpt>
      <trkpt lat="44.96095" lon="5.46067">
        <ele>1351.75</ele>
        <time>2016-04-29T12:48:13Z</time>
      </trkpt>
      <trkpt lat="44.96096" lon="5.4608">
        <ele>1351.27</ele>
        <time>2016-04-29T12:48:15Z</time>
      </trkpt>
      <trkpt lat="44.96094" lon="5.46093">
        <ele>1350.79</ele>
        <time>2016-04-29T12:48:17Z</time>
      </trkpt>
      <trkpt lat="44.96091" lon="5.46098">
        <ele>1350.31</ele>
        <time>2016-04-29T12:48:18Z</time>
      </trkpt>
      <trkpt lat="44.96088" lon="5.46103">
        <ele>1350.31</ele>
        <time>2016-04-29T12:48:19Z</time>
      </trkpt>
      <trkpt lat="44.96084" lon="5.46107">
        <ele>1349.83</ele>
        <time>2016-04-29T12:48:20Z</time>
      </trkpt>
      <trkpt lat="44.9608" lon="5.46111">
        <ele>1349.35</ele>
        <time>2016-04-29T12:48:21Z</time>
      </trkpt>
      <trkpt lat="44.96073" lon="5.46119">
        <ele>1348.39</ele>
        <time>2016-04-29T12:48:23Z</time>
      </trkpt>
      <trkpt lat="44.96071" lon="5.46123">
        <ele>1347.91</ele>
        <time>2016-04-29T12:48:24Z</time>
      </trkpt>
      <trkpt lat="44.9607" lon="5.46128">
        <ele>1347.43</ele>
        <time>2016-04-29T12:48:25Z</time>
      </trkpt>
      <trkpt lat="44.96071" lon="5.46133">
        <ele>1347.43</ele>
        <time>2016-04-29T12:48:26Z</time>
      </trkpt>
      <trkpt lat="44.96072" lon="5.46137">
        <ele>1346.94</ele>
        <time>2016-04-29T12:48:27Z</time>
      </trkpt>
      <trkpt lat="44.96073" lon="5.46141">
        <ele>1346.46</ele>
        <time>2016-04-29T12:48:28Z</time>
      </trkpt>
      <trkpt lat="44.96075" lon="5.46143">
        <ele>1345.98</ele>
        <time>2016-04-29T12:48:29Z</time>
      </trkpt>
      <trkpt lat="44.96087" lon="5.46155">
        <ele>1344.54</ele>
        <time>2016-04-29T12:48:32Z</time>
      </trkpt>
      <trkpt lat="44.96093" lon="5.46158">
        <ele>1344.54</ele>
        <time>2016-04-29T12:48:33Z</time>
      </trkpt>
      <trkpt lat="44.96098" lon="5.4616">
        <ele>1344.06</ele>
        <time>2016-04-29T12:48:34Z</time>
      </trkpt>
      <trkpt lat="44.96104" lon="5.46163">
        <ele>1343.58</ele>
        <time>2016-04-29T12:48:35Z</time>
      </trkpt>
      <trkpt lat="44.96113" lon="5.4617">
        <ele>1343.1</ele>
        <time>2016-04-29T12:48:37Z</time>
      </trkpt>
      <trkpt lat="44.96116" lon="5.46181">
        <ele>1342.14</ele>
        <time>2016-04-29T12:48:40Z</time>
      </trkpt>
      <trkpt lat="44.96111" lon="5.46185">
        <ele>1342.14</ele>
        <time>2016-04-29T12:48:41Z</time>
      </trkpt>
      <trkpt lat="44.96107" lon="5.46186">
        <ele>1341.66</ele>
        <time>2016-04-29T12:48:42Z</time>
      </trkpt>
      <trkpt lat="44.96102" lon="5.46185">
        <ele>1341.18</ele>
        <time>2016-04-29T12:48:43Z</time>
      </trkpt>
      <trkpt lat="44.96097" lon="5.46183">
        <ele>1341.18</ele>
        <time>2016-04-29T12:48:44Z</time>
      </trkpt>
      <trkpt lat="44.96092" lon="5.46181">
        <ele>1340.7</ele>
        <time>2016-04-29T12:48:45Z</time>
      </trkpt>
      <trkpt lat="44.96087" lon="5.46181">
        <ele>1340.22</ele>
        <time>2016-04-29T12:48:46Z</time>
      </trkpt>
      <trkpt lat="44.96083" lon="5.46183">
        <ele>1339.73</ele>
        <time>2016-04-29T12:48:47Z</time>
      </trkpt>
      <trkpt lat="44.96079" lon="5.46186">
        <ele>1339.25</ele>
        <time>2016-04-29T12:48:48Z</time>
      </trkpt>
      <trkpt lat="44.96076" lon="5.4619">
        <ele>1338.77</ele>
        <time>2016-04-29T12:48:49Z</time>
      </trkpt>
      <trkpt lat="44.96073" lon="5.46196">
        <ele>1337.81</ele>
        <time>2016-04-29T12:48:50Z</time>
      </trkpt>
      <trkpt lat="44.9607" lon="5.46203">
        <ele>1336.85</ele>
        <time>2016-04-29T12:48:51Z</time>
      </trkpt>
      <trkpt lat="44.96066" lon="5.46209">
        <ele>1335.89</ele>
        <time>2016-04-29T12:48:52Z</time>
      </trkpt>
      <trkpt lat="44.96063" lon="5.46216">
        <ele>1335.89</ele>
        <time>2016-04-29T12:48:53Z</time>
      </trkpt>
      <trkpt lat="44.96058" lon="5.46224">
        <ele>1334.93</ele>
        <time>2016-04-29T12:48:54Z</time>
      </trkpt>
      <trkpt lat="44.96054" lon="5.46231">
        <ele>1333.97</ele>
        <time>2016-04-29T12:48:55Z</time>
      </trkpt>
      <trkpt lat="44.96048" lon="5.46238">
        <ele>1333.49</ele>
        <time>2016-04-29T12:48:56Z</time>
      </trkpt>
      <trkpt lat="44.96041" lon="5.46244">
        <ele>1333.01</ele>
        <time>2016-04-29T12:48:57Z</time>
      </trkpt>
      <trkpt lat="44.96032" lon="5.46248">
        <ele>1333.01</ele>
        <time>2016-04-29T12:48:58Z</time>
      </trkpt>
      <trkpt lat="44.96" lon="5.46261">
        <ele>1333.97</ele>
        <time>2016-04-29T12:49:03Z</time>
      </trkpt>
      <trkpt lat="44.95995" lon="5.46261">
        <ele>1333.97</ele>
        <time>2016-04-29T12:49:04Z</time>
      </trkpt>
      <trkpt lat="44.95991" lon="5.46261">
        <ele>1333.97</ele>
        <time>2016-04-29T12:49:05Z</time>
      </trkpt>
      <trkpt lat="44.95959" lon="5.46243">
        <ele>1336.37</ele>
        <time>2016-04-29T12:49:15Z</time>
      </trkpt>
      <trkpt lat="44.95934" lon="5.46223">
        <ele>1338.29</ele>
        <time>2016-04-29T12:49:25Z</time>
      </trkpt>
      <trkpt lat="44.95928" lon="5.46219">
        <ele>1338.29</ele>
        <time>2016-04-29T12:49:28Z</time>
      </trkpt>
      <trkpt lat="44.95927" lon="5.46217">
        <ele>1338.29</ele>
        <time>2016-04-29T12:49:29Z</time>
      </trkpt>
      <trkpt lat="44.95927" lon="5.46215">
        <ele>1338.29</ele>
        <time>2016-04-29T12:49:30Z</time>
      </trkpt>
      <trkpt lat="44.9593" lon="5.46209">
        <ele>1338.29</ele>
        <time>2016-04-29T12:49:34Z</time>
      </trkpt>
      <trkpt lat="44.95939" lon="5.46187">
        <ele>1337.33</ele>
        <time>2016-04-29T12:49:47Z</time>
      </trkpt>
      <trkpt lat="44.95942" lon="5.46151">
        <ele>1335.89</ele>
        <time>2016-04-29T12:49:57Z</time>
      </trkpt>
      <trkpt lat="44.95933" lon="5.46125">
        <ele>1335.41</ele>
        <time>2016-04-29T12:50:05Z</time>
      </trkpt>
      <trkpt lat="44.95931" lon="5.46123">
        <ele>1335.41</ele>
        <time>2016-04-29T12:50:06Z</time>
      </trkpt>
      <trkpt lat="44.95921" lon="5.46119">
        <ele>1335.41</ele>
        <time>2016-04-29T12:50:10Z</time>
      </trkpt>
      <trkpt lat="44.95917" lon="5.46119">
        <ele>1334.93</ele>
        <time>2016-04-29T12:50:12Z</time>
      </trkpt>
      <trkpt lat="44.95904" lon="5.46117">
        <ele>1333.01</ele>
        <time>2016-04-29T12:50:16Z</time>
      </trkpt>
      <trkpt lat="44.95888" lon="5.46116">
        <ele>1330.6</ele>
        <time>2016-04-29T12:50:21Z</time>
      </trkpt>
      <trkpt lat="44.95879" lon="5.46113">
        <ele>1327.72</ele>
        <time>2016-04-29T12:50:25Z</time>
      </trkpt>
      <trkpt lat="44.95868" lon="5.4611">
        <ele>1325.8</ele>
        <time>2016-04-29T12:50:28Z</time>
      </trkpt>
      <trkpt lat="44.95856" lon="5.461">
        <ele>1324.83</ele>
        <time>2016-04-29T12:50:31Z</time>
      </trkpt>
      <trkpt lat="44.95847" lon="5.46093">
        <ele>1324.35</ele>
        <time>2016-04-29T12:50:34Z</time>
      </trkpt>
      <trkpt lat="44.95821" lon="5.4607">
        <ele>1321.95</ele>
        <time>2016-04-29T12:50:40Z</time>
      </trkpt>
      <trkpt lat="44.95794" lon="5.46049">
        <ele>1318.1</ele>
        <time>2016-04-29T12:50:45Z</time>
      </trkpt>
      <trkpt lat="44.95776" lon="5.46051">
        <ele>1316.18</ele>
        <time>2016-04-29T12:50:52Z</time>
      </trkpt>
      <trkpt lat="44.95766" lon="5.46055">
        <ele>1315.7</ele>
        <time>2016-04-29T12:51:07Z</time>
      </trkpt>
      <trkpt lat="44.95765" lon="5.46057">
        <ele>1315.7</ele>
        <time>2016-04-29T12:51:13Z</time>
      </trkpt>
      <trkpt lat="44.95761" lon="5.46059">
        <ele>1315.22</ele>
        <time>2016-04-29T12:51:17Z</time>
      </trkpt>
      <trkpt lat="44.95756" lon="5.46057">
        <ele>1314.26</ele>
        <time>2016-04-29T12:51:21Z</time>
      </trkpt>
      <trkpt lat="44.95742" lon="5.46055">
        <ele>1315.22</ele>
        <time>2016-04-29T12:51:26Z</time>
      </trkpt>
      <trkpt lat="44.9573" lon="5.46044">
        <ele>1313.78</ele>
        <time>2016-04-29T12:51:33Z</time>
      </trkpt>
      <trkpt lat="44.95722" lon="5.46033">
        <ele>1311.38</ele>
        <time>2016-04-29T12:51:39Z</time>
      </trkpt>
      <trkpt lat="44.95715" lon="5.46023">
        <ele>1309.45</ele>
        <time>2016-04-29T12:51:48Z</time>
      </trkpt>
      <trkpt lat="44.95712" lon="5.46017">
        <ele>1307.53</ele>
        <time>2016-04-29T12:51:52Z</time>
      </trkpt>
      <trkpt lat="44.95703" lon="5.46013">
        <ele>1304.65</ele>
        <time>2016-04-29T12:51:58Z</time>
      </trkpt>
      <trkpt lat="44.95698" lon="5.46006">
        <ele>1302.24</ele>
        <time>2016-04-29T12:52:02Z</time>
      </trkpt>
      <trkpt lat="44.95687" lon="5.46">
        <ele>1299.36</ele>
        <time>2016-04-29T12:52:06Z</time>
      </trkpt>
      <trkpt lat="44.95685" lon="5.45998">
        <ele>1298.88</ele>
        <time>2016-04-29T12:52:07Z</time>
      </trkpt>
      <trkpt lat="44.95666" lon="5.46006">
        <ele>1294.55</ele>
        <time>2016-04-29T12:52:13Z</time>
      </trkpt>
      <trkpt lat="44.95663" lon="5.46005">
        <ele>1291.19</ele>
        <time>2016-04-29T12:52:17Z</time>
      </trkpt>
      <trkpt lat="44.95646" lon="5.46008">
        <ele>1288.3</ele>
        <time>2016-04-29T12:52:23Z</time>
      </trkpt>
      <trkpt lat="44.95639" lon="5.46009">
        <ele>1286.86</ele>
        <time>2016-04-29T12:52:25Z</time>
      </trkpt>
      <trkpt lat="44.95631" lon="5.46008">
        <ele>1285.42</ele>
        <time>2016-04-29T12:52:27Z</time>
      </trkpt>
      <trkpt lat="44.95627" lon="5.46008">
        <ele>1284.94</ele>
        <time>2016-04-29T12:52:28Z</time>
      </trkpt>
      <trkpt lat="44.95612" lon="5.46005">
        <ele>1282.54</ele>
        <time>2016-04-29T12:52:31Z</time>
      </trkpt>
      <trkpt lat="44.95608" lon="5.46004">
        <ele>1281.57</ele>
        <time>2016-04-29T12:52:32Z</time>
      </trkpt>
      <trkpt lat="44.95604" lon="5.46001">
        <ele>1281.09</ele>
        <time>2016-04-29T12:52:33Z</time>
      </trkpt>
      <trkpt lat="44.95601" lon="5.45997">
        <ele>1280.61</ele>
        <time>2016-04-29T12:52:34Z</time>
      </trkpt>
      <trkpt lat="44.95598" lon="5.45992">
        <ele>1280.13</ele>
        <time>2016-04-29T12:52:35Z</time>
      </trkpt>
      <trkpt lat="44.95578" lon="5.45968">
        <ele>1276.77</ele>
        <time>2016-04-29T12:52:42Z</time>
      </trkpt>
      <trkpt lat="44.95559" lon="5.45956">
        <ele>1274.85</ele>
        <time>2016-04-29T12:52:47Z</time>
      </trkpt>
      <trkpt lat="44.95555" lon="5.45952">
        <ele>1273.88</ele>
        <time>2016-04-29T12:52:48Z</time>
      </trkpt>
      <trkpt lat="44.95551" lon="5.4595">
        <ele>1274.36</ele>
        <time>2016-04-29T12:52:49Z</time>
      </trkpt>
      <trkpt lat="44.95537" lon="5.4594">
        <ele>1271</ele>
        <time>2016-04-29T12:52:56Z</time>
      </trkpt>
      <trkpt lat="44.95534" lon="5.45938">
        <ele>1270.52</ele>
        <time>2016-04-29T12:52:57Z</time>
      </trkpt>
      <trkpt lat="44.95531" lon="5.45936">
        <ele>1270.04</ele>
        <time>2016-04-29T12:52:58Z</time>
      </trkpt>
      <trkpt lat="44.95527" lon="5.45934">
        <ele>1269.56</ele>
        <time>2016-04-29T12:52:59Z</time>
      </trkpt>
      <trkpt lat="44.95523" lon="5.45932">
        <ele>1269.08</ele>
        <time>2016-04-29T12:53:00Z</time>
      </trkpt>
      <trkpt lat="44.95519" lon="5.4593">
        <ele>1268.6</ele>
        <time>2016-04-29T12:53:01Z</time>
      </trkpt>
      <trkpt lat="44.95515" lon="5.45925">
        <ele>1267.64</ele>
        <time>2016-04-29T12:53:02Z</time>
      </trkpt>
      <trkpt lat="44.95511" lon="5.45921">
        <ele>1267.64</ele>
        <time>2016-04-29T12:53:03Z</time>
      </trkpt>
      <trkpt lat="44.95493" lon="5.45916">
        <ele>1268.6</ele>
        <time>2016-04-29T12:53:08Z</time>
      </trkpt>
      <trkpt lat="44.95491" lon="5.45916">
        <ele>1268.6</ele>
        <time>2016-04-29T12:53:09Z</time>
      </trkpt>
      <trkpt lat="44.95489" lon="5.45916">
        <ele>1267.64</ele>
        <time>2016-04-29T12:53:10Z</time>
      </trkpt>
      <trkpt lat="44.95488" lon="5.45917">
        <ele>1270.04</ele>
        <time>2016-04-29T12:53:11Z</time>
      </trkpt>
      <trkpt lat="44.95486" lon="5.45917">
        <ele>1269.08</ele>
        <time>2016-04-29T12:53:12Z</time>
      </trkpt>
      <trkpt lat="44.95484" lon="5.45917">
        <ele>1269.08</ele>
        <time>2016-04-29T12:53:13Z</time>
      </trkpt>
      <trkpt lat="44.95481" lon="5.45918">
        <ele>1268.6</ele>
        <time>2016-04-29T12:53:14Z</time>
      </trkpt>
      <trkpt lat="44.95479" lon="5.45917">
        <ele>1269.56</ele>
        <time>2016-04-29T12:53:15Z</time>
      </trkpt>
      <trkpt lat="44.95477" lon="5.45918">
        <ele>1269.08</ele>
        <time>2016-04-29T12:53:16Z</time>
      </trkpt>
      <trkpt lat="44.95475" lon="5.45918">
        <ele>1269.08</ele>
        <time>2016-04-29T12:53:17Z</time>
      </trkpt>
      <trkpt lat="44.95472" lon="5.45919">
        <ele>1269.08</ele>
        <time>2016-04-29T12:53:18Z</time>
      </trkpt>
      <trkpt lat="44.95469" lon="5.4592">
        <ele>1269.08</ele>
        <time>2016-04-29T12:53:19Z</time>
      </trkpt>
      <trkpt lat="44.9544" lon="5.45926">
        <ele>1269.08</ele>
        <time>2016-04-29T12:53:29Z</time>
      </trkpt>
      <trkpt lat="44.95411" lon="5.4595">
        <ele>1270.04</ele>
        <time>2016-04-29T12:53:39Z</time>
      </trkpt>
      <trkpt lat="44.95407" lon="5.45957">
        <ele>1270.52</ele>
        <time>2016-04-29T12:53:41Z</time>
      </trkpt>
      <trkpt lat="44.95393" lon="5.4599">
        <ele>1272.92</ele>
        <time>2016-04-29T12:53:52Z</time>
      </trkpt>
      <trkpt lat="44.9539" lon="5.45999">
        <ele>1273.4</ele>
        <time>2016-04-29T12:53:55Z</time>
      </trkpt>
      <trkpt lat="44.95389" lon="5.46002">
        <ele>1273.4</ele>
        <time>2016-04-29T12:53:56Z</time>
      </trkpt>
      <trkpt lat="44.95388" lon="5.46005">
        <ele>1273.4</ele>
        <time>2016-04-29T12:53:57Z</time>
      </trkpt>
      <trkpt lat="44.95382" lon="5.46021">
        <ele>1274.36</ele>
        <time>2016-04-29T12:54:03Z</time>
      </trkpt>
      <trkpt lat="44.95375" lon="5.46037">
        <ele>1274.36</ele>
        <time>2016-04-29T12:54:08Z</time>
      </trkpt>
      <trkpt lat="44.95374" lon="5.4604">
        <ele>1274.36</ele>
        <time>2016-04-29T12:54:09Z</time>
      </trkpt>
      <trkpt lat="44.95369" lon="5.46071">
        <ele>1275.33</ele>
        <time>2016-04-29T12:54:18Z</time>
      </trkpt>
      <trkpt lat="44.95363" lon="5.46079">
        <ele>1275.81</ele>
        <time>2016-04-29T12:54:20Z</time>
      </trkpt>
      <trkpt lat="44.95359" lon="5.46082">
        <ele>1275.81</ele>
        <time>2016-04-29T12:54:21Z</time>
      </trkpt>
      <trkpt lat="44.95349" lon="5.46089">
        <ele>1276.29</ele>
        <time>2016-04-29T12:54:24Z</time>
      </trkpt>
      <trkpt lat="44.95331" lon="5.46115">
        <ele>1277.25</ele>
        <time>2016-04-29T12:54:34Z</time>
      </trkpt>
      <trkpt lat="44.95328" lon="5.46131">
        <ele>1278.21</ele>
        <time>2016-04-29T12:54:39Z</time>
      </trkpt>
      <trkpt lat="44.95327" lon="5.46139">
        <ele>1278.69</ele>
        <time>2016-04-29T12:54:42Z</time>
      </trkpt>
      <trkpt lat="44.95325" lon="5.46141">
        <ele>1278.69</ele>
        <time>2016-04-29T12:54:43Z</time>
      </trkpt>
      <trkpt lat="44.95323" lon="5.46146">
        <ele>1279.17</ele>
        <time>2016-04-29T12:54:45Z</time>
      </trkpt>
      <trkpt lat="44.95323" lon="5.46149">
        <ele>1279.17</ele>
        <time>2016-04-29T12:54:46Z</time>
      </trkpt>
      <trkpt lat="44.95324" lon="5.46152">
        <ele>1279.17</ele>
        <time>2016-04-29T12:54:47Z</time>
      </trkpt>
      <trkpt lat="44.95326" lon="5.46168">
        <ele>1280.13</ele>
        <time>2016-04-29T12:54:52Z</time>
      </trkpt>
      <trkpt lat="44.95325" lon="5.4617">
        <ele>1280.13</ele>
        <time>2016-04-29T12:54:53Z</time>
      </trkpt>
      <trkpt lat="44.95325" lon="5.46173">
        <ele>1280.13</ele>
        <time>2016-04-29T12:54:54Z</time>
      </trkpt>
      <trkpt lat="44.95325" lon="5.46176">
        <ele>1280.61</ele>
        <time>2016-04-29T12:54:55Z</time>
      </trkpt>
      <trkpt lat="44.95322" lon="5.46181">
        <ele>1280.61</ele>
        <time>2016-04-29T12:54:57Z</time>
      </trkpt>
      <trkpt lat="44.95305" lon="5.462">
        <ele>1283.02</ele>
        <time>2016-04-29T12:55:07Z</time>
      </trkpt>
      <trkpt lat="44.9531" lon="5.46207">
        <ele>1283.5</ele>
        <time>2016-04-29T12:55:12Z</time>
      </trkpt>
      <trkpt lat="44.9529" lon="5.46225">
        <ele>1284.46</ele>
        <time>2016-04-29T12:55:24Z</time>
      </trkpt>
      <trkpt lat="44.95261" lon="5.46239">
        <ele>1284.46</ele>
        <time>2016-04-29T12:55:34Z</time>
      </trkpt>
      <trkpt lat="44.95237" lon="5.46209">
        <ele>1283.98</ele>
        <time>2016-04-29T12:55:44Z</time>
      </trkpt>
      <trkpt lat="44.95209" lon="5.46188">
        <ele>1286.38</ele>
        <time>2016-04-29T12:55:55Z</time>
      </trkpt>
      <trkpt lat="44.95177" lon="5.46198">
        <ele>1287.82</ele>
        <time>2016-04-29T12:56:08Z</time>
      </trkpt>
      <trkpt lat="44.95159" lon="5.46193">
        <ele>1289.75</ele>
        <time>2016-04-29T12:56:18Z</time>
      </trkpt>
      <trkpt lat="44.9514" lon="5.46161">
        <ele>1292.15</ele>
        <time>2016-04-29T12:56:32Z</time>
      </trkpt>
      <trkpt lat="44.95138" lon="5.4616">
        <ele>1292.15</ele>
        <time>2016-04-29T12:56:33Z</time>
      </trkpt>
      <trkpt lat="44.95129" lon="5.4616">
        <ele>1293.11</ele>
        <time>2016-04-29T12:56:37Z</time>
      </trkpt>
      <trkpt lat="44.95128" lon="5.46161">
        <ele>1293.11</ele>
        <time>2016-04-29T12:56:38Z</time>
      </trkpt>
      <trkpt lat="44.951" lon="5.46181">
        <ele>1294.55</ele>
        <time>2016-04-29T12:56:48Z</time>
      </trkpt>
      <trkpt lat="44.95095" lon="5.46191">
        <ele>1295.03</ele>
        <time>2016-04-29T12:56:52Z</time>
      </trkpt>
      <trkpt lat="44.95087" lon="5.46204">
        <ele>1295.99</ele>
        <time>2016-04-29T12:56:59Z</time>
      </trkpt>
      <trkpt lat="44.95078" lon="5.46216">
        <ele>1297.44</ele>
        <time>2016-04-29T12:57:06Z</time>
      </trkpt>
      <trkpt lat="44.95077" lon="5.46217">
        <ele>1297.44</ele>
        <time>2016-04-29T12:57:07Z</time>
      </trkpt>
      <trkpt lat="44.95076" lon="5.46219">
        <ele>1297.44</ele>
        <time>2016-04-29T12:57:08Z</time>
      </trkpt>
      <trkpt lat="44.95069" lon="5.46224">
        <ele>1297.92</ele>
        <time>2016-04-29T12:57:12Z</time>
      </trkpt>
      <trkpt lat="44.95068" lon="5.46226">
        <ele>1297.92</ele>
        <time>2016-04-29T12:57:13Z</time>
      </trkpt>
      <trkpt lat="44.95067" lon="5.46228">
        <ele>1297.92</ele>
        <time>2016-04-29T12:57:14Z</time>
      </trkpt>
      <trkpt lat="44.95066" lon="5.4623">
        <ele>1298.4</ele>
        <time>2016-04-29T12:57:15Z</time>
      </trkpt>
      <trkpt lat="44.95065" lon="5.46232">
        <ele>1298.4</ele>
        <time>2016-04-29T12:57:16Z</time>
      </trkpt>
      <trkpt lat="44.95042" lon="5.46244">
        <ele>1300.32</ele>
        <time>2016-04-29T12:57:29Z</time>
      </trkpt>
      <trkpt lat="44.9504" lon="5.46245">
        <ele>1300.8</ele>
        <time>2016-04-29T12:57:30Z</time>
      </trkpt>
      <trkpt lat="44.95039" lon="5.46245">
        <ele>1300.8</ele>
        <time>2016-04-29T12:57:31Z</time>
      </trkpt>
      <trkpt lat="44.95018" lon="5.46241">
        <ele>1301.76</ele>
        <time>2016-04-29T12:57:43Z</time>
      </trkpt>
      <trkpt lat="44.94991" lon="5.46224">
        <ele>1301.28</ele>
        <time>2016-04-29T12:57:53Z</time>
      </trkpt>
      <trkpt lat="44.94955" lon="5.46209">
        <ele>1301.28</ele>
        <time>2016-04-29T12:58:04Z</time>
      </trkpt>
      <trkpt lat="44.94931" lon="5.4616">
        <ele>1302.24</ele>
        <time>2016-04-29T12:58:15Z</time>
      </trkpt>
      <trkpt lat="44.94905" lon="5.46155">
        <ele>1302.72</ele>
        <time>2016-04-29T12:58:24Z</time>
      </trkpt>
      <trkpt lat="44.94891" lon="5.46171">
        <ele>1303.2</ele>
        <time>2016-04-29T12:58:29Z</time>
      </trkpt>
      <trkpt lat="44.94888" lon="5.46175">
        <ele>1303.69</ele>
        <time>2016-04-29T12:58:30Z</time>
      </trkpt>
      <trkpt lat="44.94886" lon="5.46178">
        <ele>1303.2</ele>
        <time>2016-04-29T12:58:31Z</time>
      </trkpt>
      <trkpt lat="44.94883" lon="5.46182">
        <ele>1303.2</ele>
        <time>2016-04-29T12:58:32Z</time>
      </trkpt>
      <trkpt lat="44.9488" lon="5.46186">
        <ele>1303.2</ele>
        <time>2016-04-29T12:58:33Z</time>
      </trkpt>
      <trkpt lat="44.94844" lon="5.46235">
        <ele>1304.17</ele>
        <time>2016-04-29T12:58:47Z</time>
      </trkpt>
      <trkpt lat="44.94821" lon="5.46275">
        <ele>1305.13</ele>
        <time>2016-04-29T12:58:59Z</time>
      </trkpt>
      <trkpt lat="44.94813" lon="5.46295">
        <ele>1305.13</ele>
        <time>2016-04-29T12:59:11Z</time>
      </trkpt>
      <trkpt lat="44.94812" lon="5.46295">
        <ele>1305.13</ele>
        <time>2016-04-29T12:59:29Z</time>
      </trkpt>
      <trkpt lat="44.94812" lon="5.46296">
        <ele>1305.13</ele>
        <time>2016-04-29T12:59:44Z</time>
      </trkpt>
      <trkpt lat="44.94811" lon="5.46295">
        <ele>1305.13</ele>
        <time>2016-04-29T13:00:00Z</time>
      </trkpt>
      <trkpt lat="44.9481" lon="5.46296">
        <ele>1305.13</ele>
        <time>2016-04-29T13:00:17Z</time>
      </trkpt>
      <trkpt lat="44.9481" lon="5.46298">
        <ele>1305.13</ele>
        <time>2016-04-29T13:00:47Z</time>
      </trkpt>
      <trkpt lat="44.94811" lon="5.46299">
        <ele>1304.65</ele>
        <time>2016-04-29T13:01:14Z</time>
      </trkpt>
      <trkpt lat="44.94811" lon="5.46298">
        <ele>1305.13</ele>
        <time>2016-04-29T13:01:41Z</time>
      </trkpt>
      <trkpt lat="44.9481" lon="5.46298">
        <ele>1305.61</ele>
        <time>2016-04-29T13:02:10Z</time>
      </trkpt>
      <trkpt lat="44.94808" lon="5.463">
        <ele>1305.61</ele>
        <time>2016-04-29T13:02:40Z</time>
      </trkpt>
      <trkpt lat="44.94808" lon="5.46299">
        <ele>1305.13</ele>
        <time>2016-04-29T13:03:03Z</time>
      </trkpt>
      <trkpt lat="44.94807" lon="5.463">
        <ele>1305.13</ele>
        <time>2016-04-29T13:03:27Z</time>
      </trkpt>
      <trkpt lat="44.94803" lon="5.46306">
        <ele>1305.61</ele>
        <time>2016-04-29T13:03:31Z</time>
      </trkpt>
      <trkpt lat="44.94802" lon="5.46307">
        <ele>1305.61</ele>
        <time>2016-04-29T13:03:32Z</time>
      </trkpt>
      <trkpt lat="44.94787" lon="5.46314">
        <ele>1307.05</ele>
        <time>2016-04-29T13:03:43Z</time>
      </trkpt>
      <trkpt lat="44.94785" lon="5.46314">
        <ele>1307.05</ele>
        <time>2016-04-29T13:03:45Z</time>
      </trkpt>
      <trkpt lat="44.94784" lon="5.46313">
        <ele>1307.05</ele>
        <time>2016-04-29T13:03:46Z</time>
      </trkpt>
      <trkpt lat="44.94782" lon="5.46312">
        <ele>1307.05</ele>
        <time>2016-04-29T13:03:47Z</time>
      </trkpt>
      <trkpt lat="44.9478" lon="5.46313">
        <ele>1307.05</ele>
        <time>2016-04-29T13:03:48Z</time>
      </trkpt>
      <trkpt lat="44.94779" lon="5.46312">
        <ele>1307.05</ele>
        <time>2016-04-29T13:03:49Z</time>
      </trkpt>
      <trkpt lat="44.94777" lon="5.46312">
        <ele>1307.05</ele>
        <time>2016-04-29T13:03:50Z</time>
      </trkpt>
      <trkpt lat="44.94775" lon="5.46312">
        <ele>1307.05</ele>
        <time>2016-04-29T13:03:51Z</time>
      </trkpt>
      <trkpt lat="44.94754" lon="5.46321">
        <ele>1307.05</ele>
        <time>2016-04-29T13:04:00Z</time>
      </trkpt>
      <trkpt lat="44.94752" lon="5.46321">
        <ele>1307.53</ele>
        <time>2016-04-29T13:04:01Z</time>
      </trkpt>
      <trkpt lat="44.9475" lon="5.46321">
        <ele>1307.53</ele>
        <time>2016-04-29T13:04:02Z</time>
      </trkpt>
      <trkpt lat="44.94748" lon="5.46322">
        <ele>1307.53</ele>
        <time>2016-04-29T13:04:03Z</time>
      </trkpt>
      <trkpt lat="44.94746" lon="5.46323">
        <ele>1307.53</ele>
        <time>2016-04-29T13:04:04Z</time>
      </trkpt>
      <trkpt lat="44.94745" lon="5.46324">
        <ele>1307.53</ele>
        <time>2016-04-29T13:04:05Z</time>
      </trkpt>
      <trkpt lat="44.94743" lon="5.46324">
        <ele>1308.01</ele>
        <time>2016-04-29T13:04:06Z</time>
      </trkpt>
      <trkpt lat="44.94742" lon="5.46325">
        <ele>1308.01</ele>
        <time>2016-04-29T13:04:07Z</time>
      </trkpt>
      <trkpt lat="44.94734" lon="5.46331">
        <ele>1309.45</ele>
        <time>2016-04-29T13:04:14Z</time>
      </trkpt>
      <trkpt lat="44.94733" lon="5.46331">
        <ele>1309.93</ele>
        <time>2016-04-29T13:04:15Z</time>
      </trkpt>
      <trkpt lat="44.9473" lon="5.46332">
        <ele>1310.9</ele>
        <time>2016-04-29T13:04:18Z</time>
      </trkpt>
      <trkpt lat="44.94729" lon="5.46332">
        <ele>1310.9</ele>
        <time>2016-04-29T13:04:19Z</time>
      </trkpt>
      <trkpt lat="44.94728" lon="5.46332">
        <ele>1311.38</ele>
        <time>2016-04-29T13:04:20Z</time>
      </trkpt>
      <trkpt lat="44.94714" lon="5.46333">
        <ele>1313.3</ele>
        <time>2016-04-29T13:04:32Z</time>
      </trkpt>
      <trkpt lat="44.94712" lon="5.46333">
        <ele>1313.3</ele>
        <time>2016-04-29T13:04:34Z</time>
      </trkpt>
      <trkpt lat="44.9471" lon="5.46333">
        <ele>1313.78</ele>
        <time>2016-04-29T13:04:36Z</time>
      </trkpt>
      <trkpt lat="44.94701" lon="5.46332">
        <ele>1314.74</ele>
        <time>2016-04-29T13:04:46Z</time>
      </trkpt>
      <trkpt lat="44.94697" lon="5.4633">
        <ele>1315.7</ele>
        <time>2016-04-29T13:04:51Z</time>
      </trkpt>
      <trkpt lat="44.94694" lon="5.46329">
        <ele>1315.7</ele>
        <time>2016-04-29T13:05:03Z</time>
      </trkpt>
      <trkpt lat="44.94689" lon="5.46327">
        <ele>1315.22</ele>
        <time>2016-04-29T13:05:12Z</time>
      </trkpt>
      <trkpt lat="44.94686" lon="5.46326">
        <ele>1315.22</ele>
        <time>2016-04-29T13:05:13Z</time>
      </trkpt>
      <trkpt lat="44.94682" lon="5.46324">
        <ele>1314.26</ele>
        <time>2016-04-29T13:05:14Z</time>
      </trkpt>
      <trkpt lat="44.94678" lon="5.4632">
        <ele>1313.3</ele>
        <time>2016-04-29T13:05:15Z</time>
      </trkpt>
      <trkpt lat="44.94676" lon="5.46316">
        <ele>1312.34</ele>
        <time>2016-04-29T13:05:16Z</time>
      </trkpt>
      <trkpt lat="44.94674" lon="5.46313">
        <ele>1312.82</ele>
        <time>2016-04-29T13:05:17Z</time>
      </trkpt>
      <trkpt lat="44.94673" lon="5.46311">
        <ele>1313.3</ele>
        <time>2016-04-29T13:05:18Z</time>
      </trkpt>
      <trkpt lat="44.94673" lon="5.46309">
        <ele>1314.26</ele>
        <time>2016-04-29T13:05:19Z</time>
      </trkpt>
      <trkpt lat="44.94672" lon="5.46307">
        <ele>1314.74</ele>
        <time>2016-04-29T13:05:20Z</time>
      </trkpt>
      <trkpt lat="44.94672" lon="5.46306">
        <ele>1314.74</ele>
        <time>2016-04-29T13:05:21Z</time>
      </trkpt>
      <trkpt lat="44.94669" lon="5.46288">
        <ele>1316.18</ele>
        <time>2016-04-29T13:05:33Z</time>
      </trkpt>
      <trkpt lat="44.94669" lon="5.46283">
        <ele>1316.18</ele>
        <time>2016-04-29T13:05:44Z</time>
      </trkpt>
      <trkpt lat="44.94668" lon="5.46279">
        <ele>1315.7</ele>
        <time>2016-04-29T13:05:53Z</time>
      </trkpt>
      <trkpt lat="44.94669" lon="5.46277">
        <ele>1315.7</ele>
        <time>2016-04-29T13:05:54Z</time>
      </trkpt>
      <trkpt lat="44.9467" lon="5.46273">
        <ele>1315.7</ele>
        <time>2016-04-29T13:05:57Z</time>
      </trkpt>
      <trkpt lat="44.94674" lon="5.46256">
        <ele>1316.18</ele>
        <time>2016-04-29T13:06:08Z</time>
      </trkpt>
      <trkpt lat="44.94676" lon="5.46246">
        <ele>1316.18</ele>
        <time>2016-04-29T13:06:12Z</time>
      </trkpt>
      <trkpt lat="44.94677" lon="5.46243">
        <ele>1316.18</ele>
        <time>2016-04-29T13:06:13Z</time>
      </trkpt>
      <trkpt lat="44.94684" lon="5.46227">
        <ele>1315.22</ele>
        <time>2016-04-29T13:06:19Z</time>
      </trkpt>
      <trkpt lat="44.94684" lon="5.46223">
        <ele>1315.22</ele>
        <time>2016-04-29T13:06:21Z</time>
      </trkpt>
      <trkpt lat="44.94685" lon="5.46221">
        <ele>1314.74</ele>
        <time>2016-04-29T13:06:22Z</time>
      </trkpt>
      <trkpt lat="44.94686" lon="5.46219">
        <ele>1314.74</ele>
        <time>2016-04-29T13:06:23Z</time>
      </trkpt>
      <trkpt lat="44.94687" lon="5.46217">
        <ele>1315.22</ele>
        <time>2016-04-29T13:06:24Z</time>
      </trkpt>
      <trkpt lat="44.94688" lon="5.46215">
        <ele>1315.22</ele>
        <time>2016-04-29T13:06:25Z</time>
      </trkpt>
      <trkpt lat="44.9469" lon="5.46213">
        <ele>1315.22</ele>
        <time>2016-04-29T13:06:26Z</time>
      </trkpt>
      <trkpt lat="44.94691" lon="5.46211">
        <ele>1315.22</ele>
        <time>2016-04-29T13:06:27Z</time>
      </trkpt>
      <trkpt lat="44.94693" lon="5.462">
        <ele>1315.7</ele>
        <time>2016-04-29T13:06:31Z</time>
      </trkpt>
      <trkpt lat="44.94693" lon="5.46198">
        <ele>1315.7</ele>
        <time>2016-04-29T13:06:32Z</time>
      </trkpt>
      <trkpt lat="44.94693" lon="5.46195">
        <ele>1315.7</ele>
        <time>2016-04-29T13:06:33Z</time>
      </trkpt>
      <trkpt lat="44.94692" lon="5.46172">
        <ele>1317.14</ele>
        <time>2016-04-29T13:06:46Z</time>
      </trkpt>
      <trkpt lat="44.94692" lon="5.46169">
        <ele>1317.62</ele>
        <time>2016-04-29T13:06:47Z</time>
      </trkpt>
      <trkpt lat="44.94692" lon="5.46167">
        <ele>1317.62</ele>
        <time>2016-04-29T13:06:48Z</time>
      </trkpt>
      <trkpt lat="44.94692" lon="5.46165">
        <ele>1318.1</ele>
        <time>2016-04-29T13:06:49Z</time>
      </trkpt>
      <trkpt lat="44.94693" lon="5.46162">
        <ele>1318.59</ele>
        <time>2016-04-29T13:06:50Z</time>
      </trkpt>
      <trkpt lat="44.94693" lon="5.46158">
        <ele>1318.59</ele>
        <time>2016-04-29T13:06:52Z</time>
      </trkpt>
      <trkpt lat="44.94692" lon="5.46156">
        <ele>1318.59</ele>
        <time>2016-04-29T13:06:53Z</time>
      </trkpt>
      <trkpt lat="44.9469" lon="5.46144">
        <ele>1319.55</ele>
        <time>2016-04-29T13:06:59Z</time>
      </trkpt>
      <trkpt lat="44.9469" lon="5.46142">
        <ele>1320.03</ele>
        <time>2016-04-29T13:07:00Z</time>
      </trkpt>
      <trkpt lat="44.9469" lon="5.4614">
        <ele>1320.03</ele>
        <time>2016-04-29T13:07:01Z</time>
      </trkpt>
      <trkpt lat="44.9469" lon="5.46138">
        <ele>1320.03</ele>
        <time>2016-04-29T13:07:02Z</time>
      </trkpt>
      <trkpt lat="44.94689" lon="5.46131">
        <ele>1320.51</ele>
        <time>2016-04-29T13:07:06Z</time>
      </trkpt>
      <trkpt lat="44.94689" lon="5.46129">
        <ele>1320.03</ele>
        <time>2016-04-29T13:07:07Z</time>
      </trkpt>
      <trkpt lat="44.94688" lon="5.46127">
        <ele>1320.51</ele>
        <time>2016-04-29T13:07:08Z</time>
      </trkpt>
      <trkpt lat="44.94687" lon="5.46125">
        <ele>1320.51</ele>
        <time>2016-04-29T13:07:09Z</time>
      </trkpt>
      <trkpt lat="44.94687" lon="5.46123">
        <ele>1320.51</ele>
        <time>2016-04-29T13:07:10Z</time>
      </trkpt>
      <trkpt lat="44.94688" lon="5.46116">
        <ele>1320.99</ele>
        <time>2016-04-29T13:07:14Z</time>
      </trkpt>
      <trkpt lat="44.94689" lon="5.46114">
        <ele>1320.99</ele>
        <time>2016-04-29T13:07:15Z</time>
      </trkpt>
      <trkpt lat="44.94689" lon="5.46112">
        <ele>1321.47</ele>
        <time>2016-04-29T13:07:16Z</time>
      </trkpt>
      <trkpt lat="44.94689" lon="5.46106">
        <ele>1321.47</ele>
        <time>2016-04-29T13:07:19Z</time>
      </trkpt>
      <trkpt lat="44.94689" lon="5.46104">
        <ele>1321.47</ele>
        <time>2016-04-29T13:07:20Z</time>
      </trkpt>
      <trkpt lat="44.94689" lon="5.46101">
        <ele>1321.95</ele>
        <time>2016-04-29T13:07:21Z</time>
      </trkpt>
      <trkpt lat="44.94688" lon="5.46099">
        <ele>1321.95</ele>
        <time>2016-04-29T13:07:22Z</time>
      </trkpt>
      <trkpt lat="44.94688" lon="5.46097">
        <ele>1321.95</ele>
        <time>2016-04-29T13:07:23Z</time>
      </trkpt>
      <trkpt lat="44.94688" lon="5.46095">
        <ele>1321.95</ele>
        <time>2016-04-29T13:07:24Z</time>
      </trkpt>
      <trkpt lat="44.94686" lon="5.46094">
        <ele>1321.95</ele>
        <time>2016-04-29T13:07:25Z</time>
      </trkpt>
      <trkpt lat="44.94686" lon="5.46092">
        <ele>1321.47</ele>
        <time>2016-04-29T13:07:26Z</time>
      </trkpt>
      <trkpt lat="44.94685" lon="5.4609">
        <ele>1321.95</ele>
        <time>2016-04-29T13:07:27Z</time>
      </trkpt>
      <trkpt lat="44.94685" lon="5.46088">
        <ele>1321.47</ele>
        <time>2016-04-29T13:07:28Z</time>
      </trkpt>
      <trkpt lat="44.94684" lon="5.46086">
        <ele>1321.47</ele>
        <time>2016-04-29T13:07:29Z</time>
      </trkpt>
      <trkpt lat="44.94685" lon="5.46084">
        <ele>1321.95</ele>
        <time>2016-04-29T13:07:30Z</time>
      </trkpt>
      <trkpt lat="44.94685" lon="5.46082">
        <ele>1321.95</ele>
        <time>2016-04-29T13:07:31Z</time>
      </trkpt>
      <trkpt lat="44.94685" lon="5.4608">
        <ele>1321.95</ele>
        <time>2016-04-29T13:07:32Z</time>
      </trkpt>
      <trkpt lat="44.94685" lon="5.46077">
        <ele>1321.95</ele>
        <time>2016-04-29T13:07:33Z</time>
      </trkpt>
      <trkpt lat="44.94685" lon="5.46075">
        <ele>1322.43</ele>
        <time>2016-04-29T13:07:34Z</time>
      </trkpt>
      <trkpt lat="44.94684" lon="5.46072">
        <ele>1321.95</ele>
        <time>2016-04-29T13:07:35Z</time>
      </trkpt>
      <trkpt lat="44.9468" lon="5.46061">
        <ele>1323.39</ele>
        <time>2016-04-29T13:07:41Z</time>
      </trkpt>
      <trkpt lat="44.94676" lon="5.46058">
        <ele>1323.39</ele>
        <time>2016-04-29T13:07:45Z</time>
      </trkpt>
      <trkpt lat="44.94676" lon="5.46053">
        <ele>1323.39</ele>
        <time>2016-04-29T13:07:54Z</time>
      </trkpt>
      <trkpt lat="44.94675" lon="5.46051">
        <ele>1323.39</ele>
        <time>2016-04-29T13:08:04Z</time>
      </trkpt>
      <trkpt lat="44.94675" lon="5.4605">
        <ele>1323.39</ele>
        <time>2016-04-29T13:08:05Z</time>
      </trkpt>
      <trkpt lat="44.94674" lon="5.46048">
        <ele>1323.39</ele>
        <time>2016-04-29T13:08:06Z</time>
      </trkpt>
      <trkpt lat="44.94674" lon="5.46047">
        <ele>1323.87</ele>
        <time>2016-04-29T13:08:07Z</time>
      </trkpt>
      <trkpt lat="44.94673" lon="5.46046">
        <ele>1323.39</ele>
        <time>2016-04-29T13:08:08Z</time>
      </trkpt>
      <trkpt lat="44.9467" lon="5.46042">
        <ele>1322.91</ele>
        <time>2016-04-29T13:08:10Z</time>
      </trkpt>
      <trkpt lat="44.94669" lon="5.46039">
        <ele>1322.91</ele>
        <time>2016-04-29T13:08:11Z</time>
      </trkpt>
      <trkpt lat="44.94667" lon="5.46036">
        <ele>1322.43</ele>
        <time>2016-04-29T13:08:12Z</time>
      </trkpt>
      <trkpt lat="44.94665" lon="5.46035">
        <ele>1322.43</ele>
        <time>2016-04-29T13:08:13Z</time>
      </trkpt>
      <trkpt lat="44.94662" lon="5.46035">
        <ele>1322.43</ele>
        <time>2016-04-29T13:08:14Z</time>
      </trkpt>
      <trkpt lat="44.94659" lon="5.46034">
        <ele>1322.43</ele>
        <time>2016-04-29T13:08:15Z</time>
      </trkpt>
      <trkpt lat="44.94658" lon="5.46032">
        <ele>1322.43</ele>
        <time>2016-04-29T13:08:16Z</time>
      </trkpt>
      <trkpt lat="44.94656" lon="5.4603">
        <ele>1322.43</ele>
        <time>2016-04-29T13:08:17Z</time>
      </trkpt>
      <trkpt lat="44.94654" lon="5.46027">
        <ele>1322.43</ele>
        <time>2016-04-29T13:08:19Z</time>
      </trkpt>
      <trkpt lat="44.94654" lon="5.46025">
        <ele>1322.43</ele>
        <time>2016-04-29T13:08:20Z</time>
      </trkpt>
      <trkpt lat="44.94649" lon="5.46003">
        <ele>1323.39</ele>
        <time>2016-04-29T13:08:30Z</time>
      </trkpt>
      <trkpt lat="44.94649" lon="5.45997">
        <ele>1323.39</ele>
        <time>2016-04-29T13:08:34Z</time>
      </trkpt>
      <trkpt lat="44.94651" lon="5.45992">
        <ele>1323.87</ele>
        <time>2016-04-29T13:08:36Z</time>
      </trkpt>
      <trkpt lat="44.9465" lon="5.45985">
        <ele>1323.87</ele>
        <time>2016-04-29T13:08:40Z</time>
      </trkpt>
      <trkpt lat="44.94644" lon="5.45971">
        <ele>1325.31</ele>
        <time>2016-04-29T13:08:50Z</time>
      </trkpt>
      <trkpt lat="44.94645" lon="5.45958">
        <ele>1328.2</ele>
        <time>2016-04-29T13:09:02Z</time>
      </trkpt>
      <trkpt lat="44.94643" lon="5.45953">
        <ele>1331.56</ele>
        <time>2016-04-29T13:09:11Z</time>
      </trkpt>
      <trkpt lat="44.94642" lon="5.45949">
        <ele>1329.64</ele>
        <time>2016-04-29T13:09:26Z</time>
      </trkpt>
      <trkpt lat="44.94634" lon="5.45929">
        <ele>1333.01</ele>
        <time>2016-04-29T13:09:38Z</time>
      </trkpt>
      <trkpt lat="44.94636" lon="5.4591">
        <ele>1334.93</ele>
        <time>2016-04-29T13:09:49Z</time>
      </trkpt>
      <trkpt lat="44.94636" lon="5.45902">
        <ele>1336.37</ele>
        <time>2016-04-29T13:09:54Z</time>
      </trkpt>
      <trkpt lat="44.94634" lon="5.45893">
        <ele>1337.81</ele>
        <time>2016-04-29T13:10:00Z</time>
      </trkpt>
      <trkpt lat="44.94633" lon="5.45875">
        <ele>1339.73</ele>
        <time>2016-04-29T13:10:11Z</time>
      </trkpt>
      <trkpt lat="44.94634" lon="5.45867">
        <ele>1340.7</ele>
        <time>2016-04-29T13:10:16Z</time>
      </trkpt>
      <trkpt lat="44.94637" lon="5.45852">
        <ele>1342.14</ele>
        <time>2016-04-29T13:10:29Z</time>
      </trkpt>
      <trkpt lat="44.94636" lon="5.4584">
        <ele>1343.58</ele>
        <time>2016-04-29T13:10:38Z</time>
      </trkpt>
      <trkpt lat="44.94629" lon="5.45832">
        <ele>1345.02</ele>
        <time>2016-04-29T13:10:52Z</time>
      </trkpt>
      <trkpt lat="44.94629" lon="5.45831">
        <ele>1345.02</ele>
        <time>2016-04-29T13:11:12Z</time>
      </trkpt>
      <trkpt lat="44.94629" lon="5.4583">
        <ele>1345.5</ele>
        <time>2016-04-29T13:11:27Z</time>
      </trkpt>
      <trkpt lat="44.94618" lon="5.45828">
        <ele>1343.1</ele>
        <time>2016-04-29T13:11:32Z</time>
      </trkpt>
      <trkpt lat="44.94612" lon="5.45827">
        <ele>1342.14</ele>
        <time>2016-04-29T13:11:34Z</time>
      </trkpt>
      <trkpt lat="44.94601" lon="5.4582">
        <ele>1342.62</ele>
        <time>2016-04-29T13:11:38Z</time>
      </trkpt>
      <trkpt lat="44.94594" lon="5.45815">
        <ele>1342.62</ele>
        <time>2016-04-29T13:11:44Z</time>
      </trkpt>
      <trkpt lat="44.94582" lon="5.45797">
        <ele>1343.1</ele>
        <time>2016-04-29T13:11:51Z</time>
      </trkpt>
      <trkpt lat="44.94566" lon="5.45787">
        <ele>1344.54</ele>
        <time>2016-04-29T13:12:02Z</time>
      </trkpt>
      <trkpt lat="44.94544" lon="5.45799">
        <ele>1345.02</ele>
        <time>2016-04-29T13:12:15Z</time>
      </trkpt>
      <trkpt lat="44.94536" lon="5.45817">
        <ele>1345.98</ele>
        <time>2016-04-29T13:12:23Z</time>
      </trkpt>
      <trkpt lat="44.94527" lon="5.45828">
        <ele>1346.46</ele>
        <time>2016-04-29T13:12:28Z</time>
      </trkpt>
      <trkpt lat="44.94502" lon="5.45849">
        <ele>1346.94</ele>
        <time>2016-04-29T13:12:40Z</time>
      </trkpt>
      <trkpt lat="44.94488" lon="5.45868">
        <ele>1345.02</ele>
        <time>2016-04-29T13:12:47Z</time>
      </trkpt>
      <trkpt lat="44.94485" lon="5.45872">
        <ele>1345.02</ele>
        <time>2016-04-29T13:12:48Z</time>
      </trkpt>
      <trkpt lat="44.94482" lon="5.45875">
        <ele>1344.54</ele>
        <time>2016-04-29T13:12:49Z</time>
      </trkpt>
      <trkpt lat="44.94479" lon="5.45879">
        <ele>1344.06</ele>
        <time>2016-04-29T13:12:50Z</time>
      </trkpt>
      <trkpt lat="44.94475" lon="5.45883">
        <ele>1343.58</ele>
        <time>2016-04-29T13:12:51Z</time>
      </trkpt>
      <trkpt lat="44.94471" lon="5.45887">
        <ele>1343.58</ele>
        <time>2016-04-29T13:12:52Z</time>
      </trkpt>
      <trkpt lat="44.94468" lon="5.4589">
        <ele>1343.58</ele>
        <time>2016-04-29T13:12:53Z</time>
      </trkpt>
      <trkpt lat="44.9446" lon="5.45894">
        <ele>1343.1</ele>
        <time>2016-04-29T13:12:55Z</time>
      </trkpt>
      <trkpt lat="44.94455" lon="5.45894">
        <ele>1343.1</ele>
        <time>2016-04-29T13:12:56Z</time>
      </trkpt>
      <trkpt lat="44.9445" lon="5.45892">
        <ele>1343.1</ele>
        <time>2016-04-29T13:12:57Z</time>
      </trkpt>
      <trkpt lat="44.94446" lon="5.45889">
        <ele>1342.62</ele>
        <time>2016-04-29T13:12:58Z</time>
      </trkpt>
      <trkpt lat="44.94441" lon="5.45885">
        <ele>1342.14</ele>
        <time>2016-04-29T13:12:59Z</time>
      </trkpt>
      <trkpt lat="44.94436" lon="5.45883">
        <ele>1341.66</ele>
        <time>2016-04-29T13:13:00Z</time>
      </trkpt>
      <trkpt lat="44.94431" lon="5.45881">
        <ele>1341.66</ele>
        <time>2016-04-29T13:13:01Z</time>
      </trkpt>
      <trkpt lat="44.94427" lon="5.4588">
        <ele>1341.18</ele>
        <time>2016-04-29T13:13:02Z</time>
      </trkpt>
      <trkpt lat="44.94422" lon="5.4588">
        <ele>1341.18</ele>
        <time>2016-04-29T13:13:03Z</time>
      </trkpt>
      <trkpt lat="44.94418" lon="5.45881">
        <ele>1341.18</ele>
        <time>2016-04-29T13:13:04Z</time>
      </trkpt>
      <trkpt lat="44.94415" lon="5.45883">
        <ele>1341.18</ele>
        <time>2016-04-29T13:13:05Z</time>
      </trkpt>
      <trkpt lat="44.94411" lon="5.45885">
        <ele>1341.18</ele>
        <time>2016-04-29T13:13:06Z</time>
      </trkpt>
      <trkpt lat="44.9438" lon="5.45886">
        <ele>1340.7</ele>
        <time>2016-04-29T13:13:17Z</time>
      </trkpt>
      <trkpt lat="44.94352" lon="5.45879">
        <ele>1338.77</ele>
        <time>2016-04-29T13:13:28Z</time>
      </trkpt>
      <trkpt lat="44.94337" lon="5.45882">
        <ele>1337.81</ele>
        <time>2016-04-29T13:13:34Z</time>
      </trkpt>
      <trkpt lat="44.94335" lon="5.45881">
        <ele>1337.81</ele>
        <time>2016-04-29T13:13:35Z</time>
      </trkpt>
      <trkpt lat="44.94332" lon="5.45881">
        <ele>1337.81</ele>
        <time>2016-04-29T13:13:36Z</time>
      </trkpt>
      <trkpt lat="44.9433" lon="5.45881">
        <ele>1337.81</ele>
        <time>2016-04-29T13:13:37Z</time>
      </trkpt>
      <trkpt lat="44.94328" lon="5.4588">
        <ele>1337.33</ele>
        <time>2016-04-29T13:13:38Z</time>
      </trkpt>
      <trkpt lat="44.94326" lon="5.45879">
        <ele>1337.33</ele>
        <time>2016-04-29T13:13:39Z</time>
      </trkpt>
      <trkpt lat="44.943" lon="5.45871">
        <ele>1336.37</ele>
        <time>2016-04-29T13:13:51Z</time>
      </trkpt>
      <trkpt lat="44.94276" lon="5.45858">
        <ele>1334.93</ele>
        <time>2016-04-29T13:14:02Z</time>
      </trkpt>
      <trkpt lat="44.94237" lon="5.45847">
        <ele>1334.45</ele>
        <time>2016-04-29T13:14:16Z</time>
      </trkpt>
      <trkpt lat="44.94205" lon="5.45844">
        <ele>1335.41</ele>
        <time>2016-04-29T13:14:31Z</time>
      </trkpt>
      <trkpt lat="44.94166" lon="5.45844">
        <ele>1335.41</ele>
        <time>2016-04-29T13:14:45Z</time>
      </trkpt>
      <trkpt lat="44.94136" lon="5.45854">
        <ele>1336.85</ele>
        <time>2016-04-29T13:14:56Z</time>
      </trkpt>
      <trkpt lat="44.9411" lon="5.45856">
        <ele>1338.29</ele>
        <time>2016-04-29T13:15:07Z</time>
      </trkpt>
      <trkpt lat="44.94079" lon="5.45856">
        <ele>1338.77</ele>
        <time>2016-04-29T13:15:19Z</time>
      </trkpt>
      <trkpt lat="44.94049" lon="5.45863">
        <ele>1340.22</ele>
        <time>2016-04-29T13:15:32Z</time>
      </trkpt>
      <trkpt lat="44.94028" lon="5.45863">
        <ele>1341.66</ele>
        <time>2016-04-29T13:15:42Z</time>
      </trkpt>
      <trkpt lat="44.94026" lon="5.45864">
        <ele>1341.66</ele>
        <time>2016-04-29T13:15:43Z</time>
      </trkpt>
      <trkpt lat="44.94003" lon="5.45874">
        <ele>1343.58</ele>
        <time>2016-04-29T13:15:54Z</time>
      </trkpt>
      <trkpt lat="44.93993" lon="5.45878">
        <ele>1344.06</ele>
        <time>2016-04-29T13:16:00Z</time>
      </trkpt>
      <trkpt lat="44.93991" lon="5.45878">
        <ele>1344.54</ele>
        <time>2016-04-29T13:16:01Z</time>
      </trkpt>
      <trkpt lat="44.93989" lon="5.45877">
        <ele>1344.54</ele>
        <time>2016-04-29T13:16:02Z</time>
      </trkpt>
      <trkpt lat="44.93987" lon="5.45876">
        <ele>1345.02</ele>
        <time>2016-04-29T13:16:03Z</time>
      </trkpt>
      <trkpt lat="44.93984" lon="5.45875">
        <ele>1345.02</ele>
        <time>2016-04-29T13:16:04Z</time>
      </trkpt>
      <trkpt lat="44.93982" lon="5.45874">
        <ele>1345.02</ele>
        <time>2016-04-29T13:16:05Z</time>
      </trkpt>
      <trkpt lat="44.9398" lon="5.45873">
        <ele>1345.02</ele>
        <time>2016-04-29T13:16:06Z</time>
      </trkpt>
      <trkpt lat="44.93979" lon="5.45871">
        <ele>1345.02</ele>
        <time>2016-04-29T13:16:07Z</time>
      </trkpt>
      <trkpt lat="44.93972" lon="5.45866">
        <ele>1345.98</ele>
        <time>2016-04-29T13:16:13Z</time>
      </trkpt>
      <trkpt lat="44.93965" lon="5.4586">
        <ele>1346.94</ele>
        <time>2016-04-29T13:16:20Z</time>
      </trkpt>
      <trkpt lat="44.93962" lon="5.45859">
        <ele>1346.94</ele>
        <time>2016-04-29T13:16:21Z</time>
      </trkpt>
      <trkpt lat="44.93961" lon="5.45858">
        <ele>1346.94</ele>
        <time>2016-04-29T13:16:22Z</time>
      </trkpt>
      <trkpt lat="44.93959" lon="5.45859">
        <ele>1347.43</ele>
        <time>2016-04-29T13:16:23Z</time>
      </trkpt>
      <trkpt lat="44.93958" lon="5.45859">
        <ele>1347.43</ele>
        <time>2016-04-29T13:16:24Z</time>
      </trkpt>
      <trkpt lat="44.93956" lon="5.45859">
        <ele>1347.43</ele>
        <time>2016-04-29T13:16:25Z</time>
      </trkpt>
      <trkpt lat="44.93946" lon="5.45856">
        <ele>1347.91</ele>
        <time>2016-04-29T13:16:30Z</time>
      </trkpt>
      <trkpt lat="44.93925" lon="5.45853">
        <ele>1349.35</ele>
        <time>2016-04-29T13:16:43Z</time>
      </trkpt>
      <trkpt lat="44.93921" lon="5.45849">
        <ele>1350.79</ele>
        <time>2016-04-29T13:16:50Z</time>
      </trkpt>
      <trkpt lat="44.93919" lon="5.45847">
        <ele>1350.79</ele>
        <time>2016-04-29T13:16:52Z</time>
      </trkpt>
      <trkpt lat="44.93916" lon="5.45843">
        <ele>1351.27</ele>
        <time>2016-04-29T13:16:54Z</time>
      </trkpt>
      <trkpt lat="44.93913" lon="5.45838">
        <ele>1351.75</ele>
        <time>2016-04-29T13:16:57Z</time>
      </trkpt>
      <trkpt lat="44.93908" lon="5.4583">
        <ele>1353.19</ele>
        <time>2016-04-29T13:17:05Z</time>
      </trkpt>
      <trkpt lat="44.93905" lon="5.45828">
        <ele>1353.19</ele>
        <time>2016-04-29T13:17:06Z</time>
      </trkpt>
      <trkpt lat="44.93903" lon="5.45826">
        <ele>1353.67</ele>
        <time>2016-04-29T13:17:07Z</time>
      </trkpt>
      <trkpt lat="44.93901" lon="5.45824">
        <ele>1353.67</ele>
        <time>2016-04-29T13:17:08Z</time>
      </trkpt>
      <trkpt lat="44.939" lon="5.45823">
        <ele>1353.67</ele>
        <time>2016-04-29T13:17:09Z</time>
      </trkpt>
      <trkpt lat="44.93898" lon="5.45821">
        <ele>1352.71</ele>
        <time>2016-04-29T13:17:10Z</time>
      </trkpt>
      <trkpt lat="44.93896" lon="5.4582">
        <ele>1353.19</ele>
        <time>2016-04-29T13:17:11Z</time>
      </trkpt>
      <trkpt lat="44.93894" lon="5.45819">
        <ele>1355.6</ele>
        <time>2016-04-29T13:17:12Z</time>
      </trkpt>
      <trkpt lat="44.93893" lon="5.45818">
        <ele>1353.67</ele>
        <time>2016-04-29T13:17:13Z</time>
      </trkpt>
      <trkpt lat="44.93891" lon="5.45818">
        <ele>1355.12</ele>
        <time>2016-04-29T13:17:14Z</time>
      </trkpt>
      <trkpt lat="44.93874" lon="5.45814">
        <ele>1357.04</ele>
        <time>2016-04-29T13:17:27Z</time>
      </trkpt>
      <trkpt lat="44.93868" lon="5.45813">
        <ele>1357.52</ele>
        <time>2016-04-29T13:17:35Z</time>
      </trkpt>
      <trkpt lat="44.93866" lon="5.45811">
        <ele>1357.52</ele>
        <time>2016-04-29T13:17:36Z</time>
      </trkpt>
      <trkpt lat="44.93865" lon="5.45809">
        <ele>1357.52</ele>
        <time>2016-04-29T13:17:37Z</time>
      </trkpt>
      <trkpt lat="44.93864" lon="5.45807">
        <ele>1358</ele>
        <time>2016-04-29T13:17:38Z</time>
      </trkpt>
      <trkpt lat="44.93863" lon="5.45805">
        <ele>1358</ele>
        <time>2016-04-29T13:17:39Z</time>
      </trkpt>
      <trkpt lat="44.93863" lon="5.45803">
        <ele>1358</ele>
        <time>2016-04-29T13:17:40Z</time>
      </trkpt>
      <trkpt lat="44.93862" lon="5.45801">
        <ele>1358.48</ele>
        <time>2016-04-29T13:17:41Z</time>
      </trkpt>
      <trkpt lat="44.9386" lon="5.45796">
        <ele>1358.96</ele>
        <time>2016-04-29T13:17:43Z</time>
      </trkpt>
      <trkpt lat="44.9386" lon="5.45793">
        <ele>1358.48</ele>
        <time>2016-04-29T13:17:44Z</time>
      </trkpt>
      <trkpt lat="44.9386" lon="5.45791">
        <ele>1358.96</ele>
        <time>2016-04-29T13:17:45Z</time>
      </trkpt>
      <trkpt lat="44.93861" lon="5.45768">
        <ele>1360.88</ele>
        <time>2016-04-29T13:17:57Z</time>
      </trkpt>
      <trkpt lat="44.93861" lon="5.45765">
        <ele>1360.88</ele>
        <time>2016-04-29T13:17:58Z</time>
      </trkpt>
      <trkpt lat="44.9386" lon="5.45763">
        <ele>1360.88</ele>
        <time>2016-04-29T13:17:59Z</time>
      </trkpt>
      <trkpt lat="44.93859" lon="5.45758">
        <ele>1361.36</ele>
        <time>2016-04-29T13:18:02Z</time>
      </trkpt>
      <trkpt lat="44.93858" lon="5.45757">
        <ele>1361.36</ele>
        <time>2016-04-29T13:18:03Z</time>
      </trkpt>
      <trkpt lat="44.93857" lon="5.45756">
        <ele>1361.84</ele>
        <time>2016-04-29T13:18:04Z</time>
      </trkpt>
      <trkpt lat="44.93855" lon="5.45755">
        <ele>1361.84</ele>
        <time>2016-04-29T13:18:06Z</time>
      </trkpt>
      <trkpt lat="44.93853" lon="5.45754">
        <ele>1361.84</ele>
        <time>2016-04-29T13:18:07Z</time>
      </trkpt>
      <trkpt lat="44.93834" lon="5.45755">
        <ele>1363.77</ele>
        <time>2016-04-29T13:18:19Z</time>
      </trkpt>
      <trkpt lat="44.93816" lon="5.45764">
        <ele>1364.25</ele>
        <time>2016-04-29T13:18:29Z</time>
      </trkpt>
      <trkpt lat="44.93789" lon="5.45779">
        <ele>1363.77</ele>
        <time>2016-04-29T13:18:40Z</time>
      </trkpt>
      <trkpt lat="44.93786" lon="5.45781">
        <ele>1363.77</ele>
        <time>2016-04-29T13:18:41Z</time>
      </trkpt>
      <trkpt lat="44.93763" lon="5.45823">
        <ele>1360.88</ele>
        <time>2016-04-29T13:18:52Z</time>
      </trkpt>
      <trkpt lat="44.93736" lon="5.45892">
        <ele>1358.48</ele>
        <time>2016-04-29T13:19:07Z</time>
      </trkpt>
      <trkpt lat="44.93708" lon="5.45893">
        <ele>1357.04</ele>
        <time>2016-04-29T13:19:15Z</time>
      </trkpt>
      <trkpt lat="44.93684" lon="5.45853">
        <ele>1356.56</ele>
        <time>2016-04-29T13:19:27Z</time>
      </trkpt>
      <trkpt lat="44.93661" lon="5.45801">
        <ele>1355.12</ele>
        <time>2016-04-29T13:19:40Z</time>
      </trkpt>
      <trkpt lat="44.93649" lon="5.45752">
        <ele>1354.63</ele>
        <time>2016-04-29T13:19:52Z</time>
      </trkpt>
      <trkpt lat="44.93648" lon="5.45742">
        <ele>1353.67</ele>
        <time>2016-04-29T13:19:54Z</time>
      </trkpt>
      <trkpt lat="44.93648" lon="5.45736">
        <ele>1353.19</ele>
        <time>2016-04-29T13:19:55Z</time>
      </trkpt>
      <trkpt lat="44.93648" lon="5.4573">
        <ele>1353.19</ele>
        <time>2016-04-29T13:19:56Z</time>
      </trkpt>
      <trkpt lat="44.93639" lon="5.45687">
        <ele>1350.79</ele>
        <time>2016-04-29T13:20:03Z</time>
      </trkpt>
      <trkpt lat="44.93636" lon="5.45682">
        <ele>1350.79</ele>
        <time>2016-04-29T13:20:04Z</time>
      </trkpt>
      <trkpt lat="44.93633" lon="5.45677">
        <ele>1350.31</ele>
        <time>2016-04-29T13:20:05Z</time>
      </trkpt>
      <trkpt lat="44.93629" lon="5.45673">
        <ele>1349.83</ele>
        <time>2016-04-29T13:20:06Z</time>
      </trkpt>
      <trkpt lat="44.93623" lon="5.45671">
        <ele>1349.35</ele>
        <time>2016-04-29T13:20:07Z</time>
      </trkpt>
      <trkpt lat="44.93618" lon="5.45669">
        <ele>1348.87</ele>
        <time>2016-04-29T13:20:08Z</time>
      </trkpt>
      <trkpt lat="44.93612" lon="5.45667">
        <ele>1348.39</ele>
        <time>2016-04-29T13:20:09Z</time>
      </trkpt>
      <trkpt lat="44.93577" lon="5.45656">
        <ele>1347.43</ele>
        <time>2016-04-29T13:20:15Z</time>
      </trkpt>
      <trkpt lat="44.93572" lon="5.45654">
        <ele>1347.43</ele>
        <time>2016-04-29T13:20:16Z</time>
      </trkpt>
      <trkpt lat="44.93568" lon="5.45651">
        <ele>1346.94</ele>
        <time>2016-04-29T13:20:17Z</time>
      </trkpt>
      <trkpt lat="44.93537" lon="5.45633">
        <ele>1346.94</ele>
        <time>2016-04-29T13:20:25Z</time>
      </trkpt>
      <trkpt lat="44.93531" lon="5.45634">
        <ele>1347.43</ele>
        <time>2016-04-29T13:20:29Z</time>
      </trkpt>
      <trkpt lat="44.93532" lon="5.45634">
        <ele>1347.43</ele>
        <time>2016-04-29T13:20:31Z</time>
      </trkpt>
      <trkpt lat="44.93534" lon="5.45633">
        <ele>1346.94</ele>
        <time>2016-04-29T13:20:33Z</time>
      </trkpt>
      <trkpt lat="44.93536" lon="5.45633">
        <ele>1346.94</ele>
        <time>2016-04-29T13:20:34Z</time>
      </trkpt>
      <trkpt lat="44.93538" lon="5.45633">
        <ele>1346.94</ele>
        <time>2016-04-29T13:20:35Z</time>
      </trkpt>
      <trkpt lat="44.93541" lon="5.45634">
        <ele>1346.94</ele>
        <time>2016-04-29T13:20:36Z</time>
      </trkpt>
      <trkpt lat="44.93544" lon="5.45636">
        <ele>1346.94</ele>
        <time>2016-04-29T13:20:37Z</time>
      </trkpt>
      <trkpt lat="44.93547" lon="5.45639">
        <ele>1346.94</ele>
        <time>2016-04-29T13:20:38Z</time>
      </trkpt>
      <trkpt lat="44.93549" lon="5.45641">
        <ele>1346.46</ele>
        <time>2016-04-29T13:20:39Z</time>
      </trkpt>
      <trkpt lat="44.93577" lon="5.45658">
        <ele>1347.91</ele>
        <time>2016-04-29T13:20:52Z</time>
      </trkpt>
      <trkpt lat="44.93578" lon="5.45662">
        <ele>1347.43</ele>
        <time>2016-04-29T13:21:05Z</time>
      </trkpt>
      <trkpt lat="44.93579" lon="5.45658">
        <ele>1346.94</ele>
        <time>2016-04-29T13:21:31Z</time>
      </trkpt>
      <trkpt lat="44.93579" lon="5.45659">
        <ele>1347.91</ele>
        <time>2016-04-29T13:21:49Z</time>
      </trkpt>
      <trkpt lat="44.93578" lon="5.45658">
        <ele>1346.94</ele>
        <time>2016-04-29T13:22:10Z</time>
      </trkpt>
      <trkpt lat="44.93578" lon="5.45658">
        <ele>1347.43</ele>
        <time>2016-04-29T13:22:34Z</time>
      </trkpt>
      <trkpt lat="44.9358" lon="5.45659">
        <ele>1347.91</ele>
        <time>2016-04-29T13:23:11Z</time>
      </trkpt>
      <trkpt lat="44.93579" lon="5.4566">
        <ele>1348.39</ele>
        <time>2016-04-29T13:23:22Z</time>
      </trkpt>
      <trkpt lat="44.93578" lon="5.4566">
        <ele>1348.39</ele>
        <time>2016-04-29T13:23:50Z</time>
      </trkpt>
      <trkpt lat="44.93577" lon="5.45659">
        <ele>1348.39</ele>
        <time>2016-04-29T13:23:51Z</time>
      </trkpt>
      <trkpt lat="44.93575" lon="5.45658">
        <ele>1348.39</ele>
        <time>2016-04-29T13:23:52Z</time>
      </trkpt>
      <trkpt lat="44.93574" lon="5.45657">
        <ele>1348.39</ele>
        <time>2016-04-29T13:23:53Z</time>
      </trkpt>
      <trkpt lat="44.93571" lon="5.45656">
        <ele>1347.91</ele>
        <time>2016-04-29T13:23:54Z</time>
      </trkpt>
      <trkpt lat="44.93569" lon="5.45655">
        <ele>1347.91</ele>
        <time>2016-04-29T13:23:55Z</time>
      </trkpt>
      <trkpt lat="44.93567" lon="5.45654">
        <ele>1347.91</ele>
        <time>2016-04-29T13:23:56Z</time>
      </trkpt>
      <trkpt lat="44.93565" lon="5.45654">
        <ele>1347.43</ele>
        <time>2016-04-29T13:23:57Z</time>
      </trkpt>
      <trkpt lat="44.93563" lon="5.45651">
        <ele>1347.43</ele>
        <time>2016-04-29T13:23:58Z</time>
      </trkpt>
      <trkpt lat="44.9356" lon="5.45649">
        <ele>1346.94</ele>
        <time>2016-04-29T13:23:59Z</time>
      </trkpt>
      <trkpt lat="44.93557" lon="5.45646">
        <ele>1346.94</ele>
        <time>2016-04-29T13:24:00Z</time>
      </trkpt>
      <trkpt lat="44.93554" lon="5.45643">
        <ele>1346.94</ele>
        <time>2016-04-29T13:24:01Z</time>
      </trkpt>
      <trkpt lat="44.93552" lon="5.45641">
        <ele>1346.94</ele>
        <time>2016-04-29T13:24:02Z</time>
      </trkpt>
      <trkpt lat="44.9355" lon="5.45639">
        <ele>1346.94</ele>
        <time>2016-04-29T13:24:03Z</time>
      </trkpt>
      <trkpt lat="44.93523" lon="5.45641">
        <ele>1347.43</ele>
        <time>2016-04-29T13:24:14Z</time>
      </trkpt>
      <trkpt lat="44.93498" lon="5.4566">
        <ele>1348.87</ele>
        <time>2016-04-29T13:24:24Z</time>
      </trkpt>
      <trkpt lat="44.93468" lon="5.45687">
        <ele>1350.31</ele>
        <time>2016-04-29T13:24:37Z</time>
      </trkpt>
      <trkpt lat="44.93433" lon="5.45704">
        <ele>1350.31</ele>
        <time>2016-04-29T13:24:52Z</time>
      </trkpt>
      <trkpt lat="44.93428" lon="5.45705">
        <ele>1350.31</ele>
        <time>2016-04-29T13:24:54Z</time>
      </trkpt>
      <trkpt lat="44.93415" lon="5.4571">
        <ele>1350.31</ele>
        <time>2016-04-29T13:25:05Z</time>
      </trkpt>
      <trkpt lat="44.9341" lon="5.45713">
        <ele>1350.31</ele>
        <time>2016-04-29T13:25:17Z</time>
      </trkpt>
      <trkpt lat="44.93407" lon="5.45713">
        <ele>1350.31</ele>
        <time>2016-04-29T13:25:25Z</time>
      </trkpt>
      <trkpt lat="44.93405" lon="5.45713">
        <ele>1350.31</ele>
        <time>2016-04-29T13:25:26Z</time>
      </trkpt>
      <trkpt lat="44.93383" lon="5.45705">
        <ele>1350.31</ele>
        <time>2016-04-29T13:25:35Z</time>
      </trkpt>
      <trkpt lat="44.93362" lon="5.45674">
        <ele>1351.27</ele>
        <time>2016-04-29T13:25:47Z</time>
      </trkpt>
      <trkpt lat="44.93361" lon="5.45671">
        <ele>1347.43</ele>
        <time>2016-04-29T13:25:48Z</time>
      </trkpt>
      <trkpt lat="44.9336" lon="5.45668">
        <ele>1353.67</ele>
        <time>2016-04-29T13:25:49Z</time>
      </trkpt>
      <trkpt lat="44.93359" lon="5.45659">
        <ele>1351.75</ele>
        <time>2016-04-29T13:25:52Z</time>
      </trkpt>
      <trkpt lat="44.93365" lon="5.45617">
        <ele>1350.79</ele>
        <time>2016-04-29T13:26:03Z</time>
      </trkpt>
      <trkpt lat="44.93372" lon="5.45575">
        <ele>1351.27</ele>
        <time>2016-04-29T13:26:15Z</time>
      </trkpt>
      <trkpt lat="44.93385" lon="5.45549">
        <ele>1352.71</ele>
        <time>2016-04-29T13:26:25Z</time>
      </trkpt>
      <trkpt lat="44.93398" lon="5.45505">
        <ele>1354.15</ele>
        <time>2016-04-29T13:26:38Z</time>
      </trkpt>
      <trkpt lat="44.93401" lon="5.4549">
        <ele>1355.12</ele>
        <time>2016-04-29T13:26:42Z</time>
      </trkpt>
      <trkpt lat="44.93402" lon="5.45487">
        <ele>1355.12</ele>
        <time>2016-04-29T13:26:43Z</time>
      </trkpt>
      <trkpt lat="44.93403" lon="5.45447">
        <ele>1357.04</ele>
        <time>2016-04-29T13:26:56Z</time>
      </trkpt>
      <trkpt lat="44.93402" lon="5.45444">
        <ele>1357.04</ele>
        <time>2016-04-29T13:26:57Z</time>
      </trkpt>
      <trkpt lat="44.93401" lon="5.45441">
        <ele>1357.52</ele>
        <time>2016-04-29T13:26:58Z</time>
      </trkpt>
      <trkpt lat="44.93401" lon="5.45438">
        <ele>1357.52</ele>
        <time>2016-04-29T13:26:59Z</time>
      </trkpt>
      <trkpt lat="44.93392" lon="5.45395">
        <ele>1358.48</ele>
        <time>2016-04-29T13:27:14Z</time>
      </trkpt>
      <trkpt lat="44.93391" lon="5.45356">
        <ele>1359.92</ele>
        <time>2016-04-29T13:27:27Z</time>
      </trkpt>
      <trkpt lat="44.93393" lon="5.45334">
        <ele>1359.92</ele>
        <time>2016-04-29T13:27:34Z</time>
      </trkpt>
      <trkpt lat="44.93391" lon="5.45333">
        <ele>1360.4</ele>
        <time>2016-04-29T13:27:35Z</time>
      </trkpt>
      <trkpt lat="44.93389" lon="5.45332">
        <ele>1360.4</ele>
        <time>2016-04-29T13:27:36Z</time>
      </trkpt>
      <trkpt lat="44.93387" lon="5.45332">
        <ele>1360.88</ele>
        <time>2016-04-29T13:27:37Z</time>
      </trkpt>
      <trkpt lat="44.93384" lon="5.45333">
        <ele>1360.88</ele>
        <time>2016-04-29T13:27:38Z</time>
      </trkpt>
      <trkpt lat="44.93383" lon="5.45335">
        <ele>1360.88</ele>
        <time>2016-04-29T13:27:39Z</time>
      </trkpt>
      <trkpt lat="44.93381" lon="5.45337">
        <ele>1361.36</ele>
        <time>2016-04-29T13:27:40Z</time>
      </trkpt>
      <trkpt lat="44.93377" lon="5.45373">
        <ele>1362.81</ele>
        <time>2016-04-29T13:27:53Z</time>
      </trkpt>
      <trkpt lat="44.93373" lon="5.45409">
        <ele>1364.73</ele>
        <time>2016-04-29T13:28:05Z</time>
      </trkpt>
      <trkpt lat="44.93364" lon="5.45457">
        <ele>1366.17</ele>
        <time>2016-04-29T13:28:19Z</time>
      </trkpt>
      <trkpt lat="44.93352" lon="5.45505">
        <ele>1365.69</ele>
        <time>2016-04-29T13:28:30Z</time>
      </trkpt>
      <trkpt lat="44.93341" lon="5.45546">
        <ele>1366.65</ele>
        <time>2016-04-29T13:28:41Z</time>
      </trkpt>
      <trkpt lat="44.93321" lon="5.45572">
        <ele>1368.57</ele>
        <time>2016-04-29T13:28:52Z</time>
      </trkpt>
      <trkpt lat="44.93298" lon="5.45601">
        <ele>1370.5</ele>
        <time>2016-04-29T13:29:05Z</time>
      </trkpt>
      <trkpt lat="44.93276" lon="5.45601">
        <ele>1371.46</ele>
        <time>2016-04-29T13:29:14Z</time>
      </trkpt>
      <trkpt lat="44.93246" lon="5.45609">
        <ele>1373.38</ele>
        <time>2016-04-29T13:29:25Z</time>
      </trkpt>
      <trkpt lat="44.93225" lon="5.45626">
        <ele>1374.82</ele>
        <time>2016-04-29T13:29:36Z</time>
      </trkpt>
      <trkpt lat="44.93224" lon="5.45628">
        <ele>1374.34</ele>
        <time>2016-04-29T13:29:37Z</time>
      </trkpt>
      <trkpt lat="44.93222" lon="5.4563">
        <ele>1374.82</ele>
        <time>2016-04-29T13:29:38Z</time>
      </trkpt>
      <trkpt lat="44.9322" lon="5.45632">
        <ele>1374.82</ele>
        <time>2016-04-29T13:29:39Z</time>
      </trkpt>
      <trkpt lat="44.93218" lon="5.45635">
        <ele>1375.3</ele>
        <time>2016-04-29T13:29:40Z</time>
      </trkpt>
      <trkpt lat="44.93217" lon="5.45637">
        <ele>1374.82</ele>
        <time>2016-04-29T13:29:41Z</time>
      </trkpt>
      <trkpt lat="44.93216" lon="5.45639">
        <ele>1375.3</ele>
        <time>2016-04-29T13:29:42Z</time>
      </trkpt>
      <trkpt lat="44.93215" lon="5.45642">
        <ele>1375.3</ele>
        <time>2016-04-29T13:29:43Z</time>
      </trkpt>
      <trkpt lat="44.93213" lon="5.45644">
        <ele>1375.78</ele>
        <time>2016-04-29T13:29:44Z</time>
      </trkpt>
      <trkpt lat="44.93212" lon="5.45646">
        <ele>1375.78</ele>
        <time>2016-04-29T13:29:45Z</time>
      </trkpt>
      <trkpt lat="44.9321" lon="5.45648">
        <ele>1375.78</ele>
        <time>2016-04-29T13:29:46Z</time>
      </trkpt>
      <trkpt lat="44.93208" lon="5.45649">
        <ele>1375.78</ele>
        <time>2016-04-29T13:29:47Z</time>
      </trkpt>
      <trkpt lat="44.93205" lon="5.45651">
        <ele>1376.26</ele>
        <time>2016-04-29T13:29:49Z</time>
      </trkpt>
      <trkpt lat="44.9319" lon="5.45653">
        <ele>1377.23</ele>
        <time>2016-04-29T13:29:57Z</time>
      </trkpt>
      <trkpt lat="44.93188" lon="5.45652">
        <ele>1377.23</ele>
        <time>2016-04-29T13:29:58Z</time>
      </trkpt>
      <trkpt lat="44.93182" lon="5.45653">
        <ele>1377.23</ele>
        <time>2016-04-29T13:30:01Z</time>
      </trkpt>
      <trkpt lat="44.93157" lon="5.45676">
        <ele>1378.67</ele>
        <time>2016-04-29T13:30:14Z</time>
      </trkpt>
      <trkpt lat="44.93137" lon="5.45704">
        <ele>1380.59</ele>
        <time>2016-04-29T13:30:27Z</time>
      </trkpt>
      <trkpt lat="44.93134" lon="5.45707">
        <ele>1380.59</ele>
        <time>2016-04-29T13:30:29Z</time>
      </trkpt>
      <trkpt lat="44.93133" lon="5.4571">
        <ele>1381.07</ele>
        <time>2016-04-29T13:30:30Z</time>
      </trkpt>
      <trkpt lat="44.93131" lon="5.45712">
        <ele>1381.07</ele>
        <time>2016-04-29T13:30:31Z</time>
      </trkpt>
      <trkpt lat="44.93128" lon="5.45713">
        <ele>1380.59</ele>
        <time>2016-04-29T13:30:32Z</time>
      </trkpt>
      <trkpt lat="44.93127" lon="5.45715">
        <ele>1381.07</ele>
        <time>2016-04-29T13:30:33Z</time>
      </trkpt>
      <trkpt lat="44.93125" lon="5.45717">
        <ele>1381.07</ele>
        <time>2016-04-29T13:30:34Z</time>
      </trkpt>
      <trkpt lat="44.93108" lon="5.45749">
        <ele>1382.03</ele>
        <time>2016-04-29T13:30:46Z</time>
      </trkpt>
      <trkpt lat="44.93099" lon="5.45765">
        <ele>1382.51</ele>
        <time>2016-04-29T13:30:52Z</time>
      </trkpt>
      <trkpt lat="44.93096" lon="5.45767">
        <ele>1382.03</ele>
        <time>2016-04-29T13:30:53Z</time>
      </trkpt>
      <trkpt lat="44.93088" lon="5.45778">
        <ele>1382.99</ele>
        <time>2016-04-29T13:30:58Z</time>
      </trkpt>
      <trkpt lat="44.93086" lon="5.4578">
        <ele>1382.99</ele>
        <time>2016-04-29T13:30:59Z</time>
      </trkpt>
      <trkpt lat="44.93084" lon="5.45783">
        <ele>1382.99</ele>
        <time>2016-04-29T13:31:00Z</time>
      </trkpt>
      <trkpt lat="44.93083" lon="5.45785">
        <ele>1383.47</ele>
        <time>2016-04-29T13:31:01Z</time>
      </trkpt>
      <trkpt lat="44.93082" lon="5.45788">
        <ele>1383.47</ele>
        <time>2016-04-29T13:31:02Z</time>
      </trkpt>
      <trkpt lat="44.93061" lon="5.45806">
        <ele>1384.92</ele>
        <time>2016-04-29T13:31:13Z</time>
      </trkpt>
      <trkpt lat="44.93047" lon="5.45812">
        <ele>1385.88</ele>
        <time>2016-04-29T13:31:20Z</time>
      </trkpt>
      <trkpt lat="44.93021" lon="5.45817">
        <ele>1387.32</ele>
        <time>2016-04-29T13:31:32Z</time>
      </trkpt>
      <trkpt lat="44.92998" lon="5.45837">
        <ele>1388.76</ele>
        <time>2016-04-29T13:31:44Z</time>
      </trkpt>
      <trkpt lat="44.92994" lon="5.45846">
        <ele>1389.24</ele>
        <time>2016-04-29T13:31:48Z</time>
      </trkpt>
      <trkpt lat="44.92999" lon="5.4588">
        <ele>1390.2</ele>
        <time>2016-04-29T13:31:59Z</time>
      </trkpt>
      <trkpt lat="44.92999" lon="5.45883">
        <ele>1390.2</ele>
        <time>2016-04-29T13:32:00Z</time>
      </trkpt>
      <trkpt lat="44.92998" lon="5.45886">
        <ele>1390.2</ele>
        <time>2016-04-29T13:32:01Z</time>
      </trkpt>
      <trkpt lat="44.92998" lon="5.45889">
        <ele>1390.68</ele>
        <time>2016-04-29T13:32:02Z</time>
      </trkpt>
      <trkpt lat="44.92998" lon="5.45891">
        <ele>1390.68</ele>
        <time>2016-04-29T13:32:03Z</time>
      </trkpt>
      <trkpt lat="44.92998" lon="5.45894">
        <ele>1391.17</ele>
        <time>2016-04-29T13:32:04Z</time>
      </trkpt>
      <trkpt lat="44.92997" lon="5.45898">
        <ele>1390.68</ele>
        <time>2016-04-29T13:32:05Z</time>
      </trkpt>
      <trkpt lat="44.92993" lon="5.45921">
        <ele>1391.65</ele>
        <time>2016-04-29T13:32:13Z</time>
      </trkpt>
      <trkpt lat="44.92994" lon="5.45924">
        <ele>1391.65</ele>
        <time>2016-04-29T13:32:14Z</time>
      </trkpt>
      <trkpt lat="44.92995" lon="5.45926">
        <ele>1392.13</ele>
        <time>2016-04-29T13:32:15Z</time>
      </trkpt>
      <trkpt lat="44.92996" lon="5.45928">
        <ele>1392.13</ele>
        <time>2016-04-29T13:32:16Z</time>
      </trkpt>
      <trkpt lat="44.92998" lon="5.4593">
        <ele>1392.61</ele>
        <time>2016-04-29T13:32:17Z</time>
      </trkpt>
      <trkpt lat="44.93001" lon="5.45962">
        <ele>1394.05</ele>
        <time>2016-04-29T13:32:29Z</time>
      </trkpt>
      <trkpt lat="44.92981" lon="5.45986">
        <ele>1395.97</ele>
        <time>2016-04-29T13:32:41Z</time>
      </trkpt>
      <trkpt lat="44.92961" lon="5.46006">
        <ele>1396.93</ele>
        <time>2016-04-29T13:32:52Z</time>
      </trkpt>
      <trkpt lat="44.9295" lon="5.46041">
        <ele>1398.86</ele>
        <time>2016-04-29T13:33:05Z</time>
      </trkpt>
      <trkpt lat="44.92951" lon="5.46044">
        <ele>1398.86</ele>
        <time>2016-04-29T13:33:06Z</time>
      </trkpt>
      <trkpt lat="44.92952" lon="5.46047">
        <ele>1398.86</ele>
        <time>2016-04-29T13:33:07Z</time>
      </trkpt>
      <trkpt lat="44.92953" lon="5.4605">
        <ele>1398.86</ele>
        <time>2016-04-29T13:33:08Z</time>
      </trkpt>
      <trkpt lat="44.92954" lon="5.46053">
        <ele>1398.86</ele>
        <time>2016-04-29T13:33:09Z</time>
      </trkpt>
      <trkpt lat="44.92955" lon="5.46055">
        <ele>1398.86</ele>
        <time>2016-04-29T13:33:10Z</time>
      </trkpt>
      <trkpt lat="44.92962" lon="5.46074">
        <ele>1400.3</ele>
        <time>2016-04-29T13:33:18Z</time>
      </trkpt>
      <trkpt lat="44.92963" lon="5.46077">
        <ele>1400.3</ele>
        <time>2016-04-29T13:33:19Z</time>
      </trkpt>
      <trkpt lat="44.92964" lon="5.46078">
        <ele>1400.78</ele>
        <time>2016-04-29T13:33:20Z</time>
      </trkpt>
      <trkpt lat="44.92966" lon="5.46083">
        <ele>1400.78</ele>
        <time>2016-04-29T13:33:23Z</time>
      </trkpt>
      <trkpt lat="44.92966" lon="5.46085">
        <ele>1401.26</ele>
        <time>2016-04-29T13:33:24Z</time>
      </trkpt>
      <trkpt lat="44.92965" lon="5.46087">
        <ele>1401.26</ele>
        <time>2016-04-29T13:33:25Z</time>
      </trkpt>
      <trkpt lat="44.92965" lon="5.46089">
        <ele>1401.26</ele>
        <time>2016-04-29T13:33:26Z</time>
      </trkpt>
      <trkpt lat="44.92964" lon="5.46091">
        <ele>1401.26</ele>
        <time>2016-04-29T13:33:27Z</time>
      </trkpt>
      <trkpt lat="44.92964" lon="5.461">
        <ele>1401.74</ele>
        <time>2016-04-29T13:33:30Z</time>
      </trkpt>
      <trkpt lat="44.92965" lon="5.46103">
        <ele>1401.74</ele>
        <time>2016-04-29T13:33:31Z</time>
      </trkpt>
      <trkpt lat="44.92965" lon="5.46106">
        <ele>1401.74</ele>
        <time>2016-04-29T13:33:32Z</time>
      </trkpt>
      <trkpt lat="44.92965" lon="5.46108">
        <ele>1401.74</ele>
        <time>2016-04-29T13:33:33Z</time>
      </trkpt>
      <trkpt lat="44.92965" lon="5.46111">
        <ele>1401.74</ele>
        <time>2016-04-29T13:33:34Z</time>
      </trkpt>
      <trkpt lat="44.92965" lon="5.46114">
        <ele>1402.22</ele>
        <time>2016-04-29T13:33:35Z</time>
      </trkpt>
      <trkpt lat="44.92966" lon="5.46118">
        <ele>1402.22</ele>
        <time>2016-04-29T13:33:36Z</time>
      </trkpt>
      <trkpt lat="44.92967" lon="5.46121">
        <ele>1402.22</ele>
        <time>2016-04-29T13:33:37Z</time>
      </trkpt>
      <trkpt lat="44.92967" lon="5.46153">
        <ele>1404.14</ele>
        <time>2016-04-29T13:33:49Z</time>
      </trkpt>
      <trkpt lat="44.92963" lon="5.4616">
        <ele>1404.62</ele>
        <time>2016-04-29T13:33:53Z</time>
      </trkpt>
      <trkpt lat="44.92962" lon="5.46162">
        <ele>1404.62</ele>
        <time>2016-04-29T13:33:54Z</time>
      </trkpt>
      <trkpt lat="44.92961" lon="5.46164">
        <ele>1404.62</ele>
        <time>2016-04-29T13:33:55Z</time>
      </trkpt>
      <trkpt lat="44.92944" lon="5.46186">
        <ele>1405.58</ele>
        <time>2016-04-29T13:34:08Z</time>
      </trkpt>
      <trkpt lat="44.92943" lon="5.46188">
        <ele>1405.58</ele>
        <time>2016-04-29T13:34:09Z</time>
      </trkpt>
      <trkpt lat="44.92945" lon="5.4619">
        <ele>1405.1</ele>
        <time>2016-04-29T13:34:21Z</time>
      </trkpt>
      <trkpt lat="44.92945" lon="5.46191">
        <ele>1405.1</ele>
        <time>2016-04-29T13:34:40Z</time>
      </trkpt>
      <trkpt lat="44.92945" lon="5.46191">
        <ele>1405.1</ele>
        <time>2016-04-29T13:35:13Z</time>
      </trkpt>
      <trkpt lat="44.92946" lon="5.46194">
        <ele>1405.1</ele>
        <time>2016-04-29T13:35:45Z</time>
      </trkpt>
      <trkpt lat="44.92946" lon="5.46192">
        <ele>1405.58</ele>
        <time>2016-04-29T13:36:12Z</time>
      </trkpt>
      <trkpt lat="44.92946" lon="5.46192">
        <ele>1405.58</ele>
        <time>2016-04-29T13:36:37Z</time>
      </trkpt>
      <trkpt lat="44.92946" lon="5.46191">
        <ele>1405.1</ele>
        <time>2016-04-29T13:36:58Z</time>
      </trkpt>
      <trkpt lat="44.92946" lon="5.46193">
        <ele>1405.1</ele>
        <time>2016-04-29T13:37:34Z</time>
      </trkpt>
      <trkpt lat="44.92946" lon="5.46192">
        <ele>1405.58</ele>
        <time>2016-04-29T13:38:11Z</time>
      </trkpt>
      <trkpt lat="44.92946" lon="5.46193">
        <ele>1405.1</ele>
        <time>2016-04-29T13:38:52Z</time>
      </trkpt>
      <trkpt lat="44.92948" lon="5.46193">
        <ele>1405.58</ele>
        <time>2016-04-29T13:39:29Z</time>
      </trkpt>
      <trkpt lat="44.92948" lon="5.46194">
        <ele>1406.07</ele>
        <time>2016-04-29T13:40:04Z</time>
      </trkpt>
      <trkpt lat="44.92946" lon="5.46194">
        <ele>1405.58</ele>
        <time>2016-04-29T13:40:42Z</time>
      </trkpt>
      <trkpt lat="44.92946" lon="5.46195">
        <ele>1406.07</ele>
        <time>2016-04-29T13:41:16Z</time>
      </trkpt>
      <trkpt lat="44.92945" lon="5.46194">
        <ele>1406.07</ele>
        <time>2016-04-29T13:41:52Z</time>
      </trkpt>
      <trkpt lat="44.92946" lon="5.46194">
        <ele>1407.03</ele>
        <time>2016-04-29T13:42:23Z</time>
      </trkpt>
      <trkpt lat="44.92945" lon="5.46192">
        <ele>1407.51</ele>
        <time>2016-04-29T13:42:39Z</time>
      </trkpt>
      <trkpt lat="44.92944" lon="5.46195">
        <ele>1407.03</ele>
        <time>2016-04-29T13:42:48Z</time>
      </trkpt>
      <trkpt lat="44.92942" lon="5.46197">
        <ele>1407.03</ele>
        <time>2016-04-29T13:42:49Z</time>
      </trkpt>
      <trkpt lat="44.92941" lon="5.46199">
        <ele>1407.03</ele>
        <time>2016-04-29T13:42:50Z</time>
      </trkpt>
      <trkpt lat="44.9294" lon="5.46201">
        <ele>1407.03</ele>
        <time>2016-04-29T13:42:51Z</time>
      </trkpt>
      <trkpt lat="44.92938" lon="5.46202">
        <ele>1407.03</ele>
        <time>2016-04-29T13:42:52Z</time>
      </trkpt>
      <trkpt lat="44.92937" lon="5.46204">
        <ele>1407.03</ele>
        <time>2016-04-29T13:42:53Z</time>
      </trkpt>
      <trkpt lat="44.92921" lon="5.46243">
        <ele>1406.55</ele>
        <time>2016-04-29T13:43:05Z</time>
      </trkpt>
      <trkpt lat="44.9292" lon="5.46247">
        <ele>1406.55</ele>
        <time>2016-04-29T13:43:06Z</time>
      </trkpt>
      <trkpt lat="44.92906" lon="5.46281">
        <ele>1406.07</ele>
        <time>2016-04-29T13:43:18Z</time>
      </trkpt>
      <trkpt lat="44.92884" lon="5.46312">
        <ele>1406.07</ele>
        <time>2016-04-29T13:43:30Z</time>
      </trkpt>
      <trkpt lat="44.92864" lon="5.46308">
        <ele>1407.99</ele>
        <time>2016-04-29T13:43:42Z</time>
      </trkpt>
      <trkpt lat="44.9286" lon="5.46265">
        <ele>1408.95</ele>
        <time>2016-04-29T13:43:56Z</time>
      </trkpt>
      <trkpt lat="44.9286" lon="5.46259">
        <ele>1408.95</ele>
        <time>2016-04-29T13:43:58Z</time>
      </trkpt>
      <trkpt lat="44.9286" lon="5.46256">
        <ele>1408.95</ele>
        <time>2016-04-29T13:43:59Z</time>
      </trkpt>
      <trkpt lat="44.9286" lon="5.46253">
        <ele>1409.43</ele>
        <time>2016-04-29T13:44:00Z</time>
      </trkpt>
      <trkpt lat="44.92861" lon="5.46249">
        <ele>1409.43</ele>
        <time>2016-04-29T13:44:01Z</time>
      </trkpt>
      <trkpt lat="44.92862" lon="5.46245">
        <ele>1409.43</ele>
        <time>2016-04-29T13:44:02Z</time>
      </trkpt>
      <trkpt lat="44.92873" lon="5.46198">
        <ele>1410.39</ele>
        <time>2016-04-29T13:44:16Z</time>
      </trkpt>
      <trkpt lat="44.9288" lon="5.46176">
        <ele>1410.87</ele>
        <time>2016-04-29T13:44:23Z</time>
      </trkpt>
      <trkpt lat="44.92881" lon="5.46173">
        <ele>1410.87</ele>
        <time>2016-04-29T13:44:24Z</time>
      </trkpt>
      <trkpt lat="44.92882" lon="5.4617">
        <ele>1411.35</ele>
        <time>2016-04-29T13:44:25Z</time>
      </trkpt>
      <trkpt lat="44.92882" lon="5.46166">
        <ele>1411.35</ele>
        <time>2016-04-29T13:44:26Z</time>
      </trkpt>
      <trkpt lat="44.92883" lon="5.46163">
        <ele>1411.35</ele>
        <time>2016-04-29T13:44:27Z</time>
      </trkpt>
      <trkpt lat="44.92883" lon="5.46159">
        <ele>1411.35</ele>
        <time>2016-04-29T13:44:28Z</time>
      </trkpt>
      <trkpt lat="44.92884" lon="5.46156">
        <ele>1411.35</ele>
        <time>2016-04-29T13:44:29Z</time>
      </trkpt>
      <trkpt lat="44.92884" lon="5.46153">
        <ele>1411.35</ele>
        <time>2016-04-29T13:44:30Z</time>
      </trkpt>
      <trkpt lat="44.92885" lon="5.46149">
        <ele>1411.35</ele>
        <time>2016-04-29T13:44:31Z</time>
      </trkpt>
      <trkpt lat="44.9288" lon="5.46111">
        <ele>1412.31</ele>
        <time>2016-04-29T13:44:42Z</time>
      </trkpt>
      <trkpt lat="44.92871" lon="5.46073">
        <ele>1413.28</ele>
        <time>2016-04-29T13:44:54Z</time>
      </trkpt>
      <trkpt lat="44.92866" lon="5.46071">
        <ele>1413.28</ele>
        <time>2016-04-29T13:44:56Z</time>
      </trkpt>
      <trkpt lat="44.92863" lon="5.46072">
        <ele>1413.28</ele>
        <time>2016-04-29T13:44:57Z</time>
      </trkpt>
      <trkpt lat="44.9286" lon="5.46074">
        <ele>1413.76</ele>
        <time>2016-04-29T13:44:58Z</time>
      </trkpt>
      <trkpt lat="44.92858" lon="5.46077">
        <ele>1413.28</ele>
        <time>2016-04-29T13:44:59Z</time>
      </trkpt>
      <trkpt lat="44.92857" lon="5.46079">
        <ele>1413.76</ele>
        <time>2016-04-29T13:45:00Z</time>
      </trkpt>
      <trkpt lat="44.92834" lon="5.4611">
        <ele>1414.24</ele>
        <time>2016-04-29T13:45:11Z</time>
      </trkpt>
      <trkpt lat="44.92804" lon="5.46141">
        <ele>1415.2</ele>
        <time>2016-04-29T13:45:24Z</time>
      </trkpt>
      <trkpt lat="44.92802" lon="5.46153">
        <ele>1415.2</ele>
        <time>2016-04-29T13:45:27Z</time>
      </trkpt>
      <trkpt lat="44.92803" lon="5.46157">
        <ele>1415.2</ele>
        <time>2016-04-29T13:45:28Z</time>
      </trkpt>
      <trkpt lat="44.92795" lon="5.46197">
        <ele>1416.64</ele>
        <time>2016-04-29T13:45:39Z</time>
      </trkpt>
      <trkpt lat="44.92777" lon="5.4624">
        <ele>1418.08</ele>
        <time>2016-04-29T13:45:52Z</time>
      </trkpt>
      <trkpt lat="44.9275" lon="5.46244">
        <ele>1418.08</ele>
        <time>2016-04-29T13:46:03Z</time>
      </trkpt>
      <trkpt lat="44.92733" lon="5.462">
        <ele>1415.68</ele>
        <time>2016-04-29T13:46:15Z</time>
      </trkpt>
      <trkpt lat="44.92727" lon="5.46176">
        <ele>1412.79</ele>
        <time>2016-04-29T13:46:20Z</time>
      </trkpt>
      <trkpt lat="44.92724" lon="5.46161">
        <ele>1411.83</ele>
        <time>2016-04-29T13:46:23Z</time>
      </trkpt>
      <trkpt lat="44.92721" lon="5.46156">
        <ele>1411.35</ele>
        <time>2016-04-29T13:46:24Z</time>
      </trkpt>
      <trkpt lat="44.92717" lon="5.46151">
        <ele>1410.87</ele>
        <time>2016-04-29T13:46:25Z</time>
      </trkpt>
      <trkpt lat="44.92707" lon="5.46144">
        <ele>1408.95</ele>
        <time>2016-04-29T13:46:27Z</time>
      </trkpt>
      <trkpt lat="44.92678" lon="5.46127">
        <ele>1406.55</ele>
        <time>2016-04-29T13:46:32Z</time>
      </trkpt>
      <trkpt lat="44.92672" lon="5.46121">
        <ele>1406.07</ele>
        <time>2016-04-29T13:46:33Z</time>
      </trkpt>
      <trkpt lat="44.92668" lon="5.46113">
        <ele>1405.58</ele>
        <time>2016-04-29T13:46:34Z</time>
      </trkpt>
      <trkpt lat="44.92664" lon="5.46105">
        <ele>1404.62</ele>
        <time>2016-04-29T13:46:35Z</time>
      </trkpt>
      <trkpt lat="44.92661" lon="5.46096">
        <ele>1403.66</ele>
        <time>2016-04-29T13:46:36Z</time>
      </trkpt>
      <trkpt lat="44.92659" lon="5.46088">
        <ele>1403.18</ele>
        <time>2016-04-29T13:46:37Z</time>
      </trkpt>
      <trkpt lat="44.92654" lon="5.46072">
        <ele>1401.74</ele>
        <time>2016-04-29T13:46:40Z</time>
      </trkpt>
      <trkpt lat="44.92651" lon="5.46071">
        <ele>1401.26</ele>
        <time>2016-04-29T13:46:41Z</time>
      </trkpt>
      <trkpt lat="44.92649" lon="5.46072">
        <ele>1400.78</ele>
        <time>2016-04-29T13:46:42Z</time>
      </trkpt>
      <trkpt lat="44.92646" lon="5.46076">
        <ele>1400.78</ele>
        <time>2016-04-29T13:46:43Z</time>
      </trkpt>
      <trkpt lat="44.92645" lon="5.46083">
        <ele>1400.3</ele>
        <time>2016-04-29T13:46:44Z</time>
      </trkpt>
      <trkpt lat="44.92644" lon="5.46089">
        <ele>1399.82</ele>
        <time>2016-04-29T13:46:45Z</time>
      </trkpt>
      <trkpt lat="44.92644" lon="5.46097">
        <ele>1399.34</ele>
        <time>2016-04-29T13:46:46Z</time>
      </trkpt>
      <trkpt lat="44.92645" lon="5.46106">
        <ele>1398.37</ele>
        <time>2016-04-29T13:46:47Z</time>
      </trkpt>
      <trkpt lat="44.92647" lon="5.46114">
        <ele>1396.93</ele>
        <time>2016-04-29T13:46:48Z</time>
      </trkpt>
      <trkpt lat="44.92648" lon="5.46123">
        <ele>1396.45</ele>
        <time>2016-04-29T13:46:49Z</time>
      </trkpt>
      <trkpt lat="44.92648" lon="5.4614">
        <ele>1394.53</ele>
        <time>2016-04-29T13:46:51Z</time>
      </trkpt>
      <trkpt lat="44.92647" lon="5.46149">
        <ele>1394.05</ele>
        <time>2016-04-29T13:46:52Z</time>
      </trkpt>
      <trkpt lat="44.92644" lon="5.46158">
        <ele>1393.57</ele>
        <time>2016-04-29T13:46:53Z</time>
      </trkpt>
      <trkpt lat="44.9264" lon="5.46165">
        <ele>1393.09</ele>
        <time>2016-04-29T13:46:54Z</time>
      </trkpt>
      <trkpt lat="44.92635" lon="5.46171">
        <ele>1392.61</ele>
        <time>2016-04-29T13:46:55Z</time>
      </trkpt>
      <trkpt lat="44.9263" lon="5.46177">
        <ele>1392.61</ele>
        <time>2016-04-29T13:46:56Z</time>
      </trkpt>
      <trkpt lat="44.92625" lon="5.46182">
        <ele>1392.61</ele>
        <time>2016-04-29T13:46:57Z</time>
      </trkpt>
      <trkpt lat="44.92609" lon="5.462">
        <ele>1392.13</ele>
        <time>2016-04-29T13:47:04Z</time>
      </trkpt>
      <trkpt lat="44.92595" lon="5.4623">
        <ele>1389.72</ele>
        <time>2016-04-29T13:47:11Z</time>
      </trkpt>
      <trkpt lat="44.92591" lon="5.46235">
        <ele>1389.24</ele>
        <time>2016-04-29T13:47:12Z</time>
      </trkpt>
      <trkpt lat="44.92586" lon="5.46236">
        <ele>1388.76</ele>
        <time>2016-04-29T13:47:13Z</time>
      </trkpt>
      <trkpt lat="44.92582" lon="5.46235">
        <ele>1388.76</ele>
        <time>2016-04-29T13:47:14Z</time>
      </trkpt>
      <trkpt lat="44.92578" lon="5.46233">
        <ele>1388.76</ele>
        <time>2016-04-29T13:47:15Z</time>
      </trkpt>
      <trkpt lat="44.92575" lon="5.46231">
        <ele>1389.24</ele>
        <time>2016-04-29T13:47:16Z</time>
      </trkpt>
      <trkpt lat="44.92572" lon="5.4623">
        <ele>1389.24</ele>
        <time>2016-04-29T13:47:17Z</time>
      </trkpt>
      <trkpt lat="44.92561" lon="5.46224">
        <ele>1388.28</ele>
        <time>2016-04-29T13:47:20Z</time>
      </trkpt>
      <trkpt lat="44.92557" lon="5.46221">
        <ele>1387.8</ele>
        <time>2016-04-29T13:47:21Z</time>
      </trkpt>
      <trkpt lat="44.92554" lon="5.46217">
        <ele>1387.8</ele>
        <time>2016-04-29T13:47:22Z</time>
      </trkpt>
      <trkpt lat="44.92551" lon="5.46213">
        <ele>1387.32</ele>
        <time>2016-04-29T13:47:23Z</time>
      </trkpt>
      <trkpt lat="44.92548" lon="5.46208">
        <ele>1387.32</ele>
        <time>2016-04-29T13:47:24Z</time>
      </trkpt>
      <trkpt lat="44.92545" lon="5.46203">
        <ele>1387.32</ele>
        <time>2016-04-29T13:47:25Z</time>
      </trkpt>
      <trkpt lat="44.92543" lon="5.46197">
        <ele>1387.32</ele>
        <time>2016-04-29T13:47:26Z</time>
      </trkpt>
      <trkpt lat="44.92542" lon="5.4619">
        <ele>1386.84</ele>
        <time>2016-04-29T13:47:27Z</time>
      </trkpt>
      <trkpt lat="44.9254" lon="5.46184">
        <ele>1386.36</ele>
        <time>2016-04-29T13:47:28Z</time>
      </trkpt>
      <trkpt lat="44.92538" lon="5.46179">
        <ele>1386.36</ele>
        <time>2016-04-29T13:47:29Z</time>
      </trkpt>
      <trkpt lat="44.92536" lon="5.46173">
        <ele>1385.88</ele>
        <time>2016-04-29T13:47:30Z</time>
      </trkpt>
      <trkpt lat="44.92533" lon="5.46168">
        <ele>1385.4</ele>
        <time>2016-04-29T13:47:31Z</time>
      </trkpt>
      <trkpt lat="44.9253" lon="5.46164">
        <ele>1385.88</ele>
        <time>2016-04-29T13:47:32Z</time>
      </trkpt>
      <trkpt lat="44.92527" lon="5.46159">
        <ele>1385.88</ele>
        <time>2016-04-29T13:47:33Z</time>
      </trkpt>
      <trkpt lat="44.92524" lon="5.46155">
        <ele>1385.88</ele>
        <time>2016-04-29T13:47:34Z</time>
      </trkpt>
      <trkpt lat="44.92503" lon="5.46118">
        <ele>1386.36</ele>
        <time>2016-04-29T13:47:45Z</time>
      </trkpt>
      <trkpt lat="44.92476" lon="5.46107">
        <ele>1384.92</ele>
        <time>2016-04-29T13:47:52Z</time>
      </trkpt>
      <trkpt lat="44.92472" lon="5.46105">
        <ele>1384.92</ele>
        <time>2016-04-29T13:47:53Z</time>
      </trkpt>
      <trkpt lat="44.92463" lon="5.46099">
        <ele>1384.44</ele>
        <time>2016-04-29T13:47:55Z</time>
      </trkpt>
      <trkpt lat="44.92454" lon="5.46094">
        <ele>1384.44</ele>
        <time>2016-04-29T13:47:57Z</time>
      </trkpt>
      <trkpt lat="44.9245" lon="5.46094">
        <ele>1384.92</ele>
        <time>2016-04-29T13:47:58Z</time>
      </trkpt>
      <trkpt lat="44.92446" lon="5.46093">
        <ele>1384.92</ele>
        <time>2016-04-29T13:47:59Z</time>
      </trkpt>
      <trkpt lat="44.92428" lon="5.46099">
        <ele>1382.51</ele>
        <time>2016-04-29T13:48:04Z</time>
      </trkpt>
      <trkpt lat="44.92408" lon="5.46111">
        <ele>1379.63</ele>
        <time>2016-04-29T13:48:11Z</time>
      </trkpt>
      <trkpt lat="44.92403" lon="5.46114">
        <ele>1378.67</ele>
        <time>2016-04-29T13:48:12Z</time>
      </trkpt>
      <trkpt lat="44.92398" lon="5.46116">
        <ele>1377.71</ele>
        <time>2016-04-29T13:48:13Z</time>
      </trkpt>
      <trkpt lat="44.92393" lon="5.46117">
        <ele>1377.23</ele>
        <time>2016-04-29T13:48:14Z</time>
      </trkpt>
      <trkpt lat="44.92387" lon="5.46116">
        <ele>1376.75</ele>
        <time>2016-04-29T13:48:15Z</time>
      </trkpt>
      <trkpt lat="44.92383" lon="5.46113">
        <ele>1376.75</ele>
        <time>2016-04-29T13:48:16Z</time>
      </trkpt>
      <trkpt lat="44.92378" lon="5.4611">
        <ele>1376.75</ele>
        <time>2016-04-29T13:48:17Z</time>
      </trkpt>
      <trkpt lat="44.92373" lon="5.46107">
        <ele>1376.75</ele>
        <time>2016-04-29T13:48:18Z</time>
      </trkpt>
      <trkpt lat="44.92368" lon="5.46105">
        <ele>1376.75</ele>
        <time>2016-04-29T13:48:19Z</time>
      </trkpt>
      <trkpt lat="44.92362" lon="5.46104">
        <ele>1376.75</ele>
        <time>2016-04-29T13:48:20Z</time>
      </trkpt>
      <trkpt lat="44.92356" lon="5.46107">
        <ele>1375.78</ele>
        <time>2016-04-29T13:48:21Z</time>
      </trkpt>
      <trkpt lat="44.9235" lon="5.4611">
        <ele>1374.82</ele>
        <time>2016-04-29T13:48:22Z</time>
      </trkpt>
      <trkpt lat="44.92343" lon="5.46113">
        <ele>1374.34</ele>
        <time>2016-04-29T13:48:23Z</time>
      </trkpt>
      <trkpt lat="44.92337" lon="5.46114">
        <ele>1374.34</ele>
        <time>2016-04-29T13:48:24Z</time>
      </trkpt>
      <trkpt lat="44.92331" lon="5.46113">
        <ele>1374.34</ele>
        <time>2016-04-29T13:48:25Z</time>
      </trkpt>
      <trkpt lat="44.92327" lon="5.46111">
        <ele>1374.82</ele>
        <time>2016-04-29T13:48:26Z</time>
      </trkpt>
      <trkpt lat="44.92323" lon="5.46107">
        <ele>1375.3</ele>
        <time>2016-04-29T13:48:27Z</time>
      </trkpt>
      <trkpt lat="44.9232" lon="5.46102">
        <ele>1375.3</ele>
        <time>2016-04-29T13:48:28Z</time>
      </trkpt>
      <trkpt lat="44.92316" lon="5.46097">
        <ele>1374.82</ele>
        <time>2016-04-29T13:48:29Z</time>
      </trkpt>
      <trkpt lat="44.92313" lon="5.46092">
        <ele>1374.34</ele>
        <time>2016-04-29T13:48:30Z</time>
      </trkpt>
      <trkpt lat="44.92308" lon="5.46088">
        <ele>1374.34</ele>
        <time>2016-04-29T13:48:31Z</time>
      </trkpt>
      <trkpt lat="44.92303" lon="5.46085">
        <ele>1373.86</ele>
        <time>2016-04-29T13:48:32Z</time>
      </trkpt>
      <trkpt lat="44.92298" lon="5.46083">
        <ele>1372.9</ele>
        <time>2016-04-29T13:48:33Z</time>
      </trkpt>
      <trkpt lat="44.92292" lon="5.46081">
        <ele>1372.9</ele>
        <time>2016-04-29T13:48:34Z</time>
      </trkpt>
      <trkpt lat="44.92285" lon="5.4608">
        <ele>1372.42</ele>
        <time>2016-04-29T13:48:35Z</time>
      </trkpt>
      <trkpt lat="44.92279" lon="5.4608">
        <ele>1371.94</ele>
        <time>2016-04-29T13:48:36Z</time>
      </trkpt>
      <trkpt lat="44.92273" lon="5.46082">
        <ele>1371.94</ele>
        <time>2016-04-29T13:48:37Z</time>
      </trkpt>
      <trkpt lat="44.92268" lon="5.46084">
        <ele>1371.94</ele>
        <time>2016-04-29T13:48:38Z</time>
      </trkpt>
      <trkpt lat="44.92263" lon="5.46087">
        <ele>1372.42</ele>
        <time>2016-04-29T13:48:39Z</time>
      </trkpt>
      <trkpt lat="44.92258" lon="5.4609">
        <ele>1372.42</ele>
        <time>2016-04-29T13:48:40Z</time>
      </trkpt>
      <trkpt lat="44.92254" lon="5.46093">
        <ele>1372.9</ele>
        <time>2016-04-29T13:48:41Z</time>
      </trkpt>
      <trkpt lat="44.9225" lon="5.46096">
        <ele>1372.9</ele>
        <time>2016-04-29T13:48:42Z</time>
      </trkpt>
      <trkpt lat="44.92247" lon="5.46098">
        <ele>1372.9</ele>
        <time>2016-04-29T13:48:43Z</time>
      </trkpt>
      <trkpt lat="44.92242" lon="5.46099">
        <ele>1373.38</ele>
        <time>2016-04-29T13:48:44Z</time>
      </trkpt>
      <trkpt lat="44.92238" lon="5.46101">
        <ele>1373.38</ele>
        <time>2016-04-29T13:48:45Z</time>
      </trkpt>
      <trkpt lat="44.92235" lon="5.46104">
        <ele>1372.9</ele>
        <time>2016-04-29T13:48:46Z</time>
      </trkpt>
      <trkpt lat="44.92232" lon="5.46107">
        <ele>1373.38</ele>
        <time>2016-04-29T13:48:47Z</time>
      </trkpt>
      <trkpt lat="44.92193" lon="5.46137">
        <ele>1374.82</ele>
        <time>2016-04-29T13:49:00Z</time>
      </trkpt>
      <trkpt lat="44.92173" lon="5.46147">
        <ele>1373.38</ele>
        <time>2016-04-29T13:49:06Z</time>
      </trkpt>
      <trkpt lat="44.92169" lon="5.46145">
        <ele>1372.9</ele>
        <time>2016-04-29T13:49:07Z</time>
      </trkpt>
      <trkpt lat="44.92165" lon="5.46143">
        <ele>1372.9</ele>
        <time>2016-04-29T13:49:08Z</time>
      </trkpt>
      <trkpt lat="44.92154" lon="5.46135">
        <ele>1371.94</ele>
        <time>2016-04-29T13:49:11Z</time>
      </trkpt>
      <trkpt lat="44.92149" lon="5.46138">
        <ele>1371.46</ele>
        <time>2016-04-29T13:49:12Z</time>
      </trkpt>
      <trkpt lat="44.92141" lon="5.4615">
        <ele>1370.5</ele>
        <time>2016-04-29T13:49:14Z</time>
      </trkpt>
      <trkpt lat="44.92139" lon="5.46157">
        <ele>1370.5</ele>
        <time>2016-04-29T13:49:15Z</time>
      </trkpt>
      <trkpt lat="44.92137" lon="5.46164">
        <ele>1370.5</ele>
        <time>2016-04-29T13:49:16Z</time>
      </trkpt>
      <trkpt lat="44.92135" lon="5.46171">
        <ele>1370.5</ele>
        <time>2016-04-29T13:49:17Z</time>
      </trkpt>
      <trkpt lat="44.92132" lon="5.46177">
        <ele>1370.98</ele>
        <time>2016-04-29T13:49:18Z</time>
      </trkpt>
      <trkpt lat="44.92129" lon="5.46182">
        <ele>1370.5</ele>
        <time>2016-04-29T13:49:19Z</time>
      </trkpt>
      <trkpt lat="44.92126" lon="5.46186">
        <ele>1370.98</ele>
        <time>2016-04-29T13:49:20Z</time>
      </trkpt>
      <trkpt lat="44.92115" lon="5.46209">
        <ele>1370.5</ele>
        <time>2016-04-29T13:49:24Z</time>
      </trkpt>
      <trkpt lat="44.92112" lon="5.46216">
        <ele>1370.5</ele>
        <time>2016-04-29T13:49:25Z</time>
      </trkpt>
      <trkpt lat="44.9211" lon="5.46223">
        <ele>1370.5</ele>
        <time>2016-04-29T13:49:26Z</time>
      </trkpt>
      <trkpt lat="44.92102" lon="5.46241">
        <ele>1370.5</ele>
        <time>2016-04-29T13:49:29Z</time>
      </trkpt>
      <trkpt lat="44.92064" lon="5.46309">
        <ele>1370.02</ele>
        <time>2016-04-29T13:49:43Z</time>
      </trkpt>
      <trkpt lat="44.92058" lon="5.46316">
        <ele>1370.02</ele>
        <time>2016-04-29T13:49:45Z</time>
      </trkpt>
      <trkpt lat="44.9205" lon="5.46322">
        <ele>1369.54</ele>
        <time>2016-04-29T13:49:47Z</time>
      </trkpt>
      <trkpt lat="44.92045" lon="5.46324">
        <ele>1369.54</ele>
        <time>2016-04-29T13:49:48Z</time>
      </trkpt>
      <trkpt lat="44.9204" lon="5.46325">
        <ele>1369.54</ele>
        <time>2016-04-29T13:49:49Z</time>
      </trkpt>
      <trkpt lat="44.92036" lon="5.46325">
        <ele>1369.54</ele>
        <time>2016-04-29T13:49:50Z</time>
      </trkpt>
      <trkpt lat="44.92032" lon="5.46323">
        <ele>1369.54</ele>
        <time>2016-04-29T13:49:51Z</time>
      </trkpt>
      <trkpt lat="44.92029" lon="5.4632">
        <ele>1369.54</ele>
        <time>2016-04-29T13:49:52Z</time>
      </trkpt>
      <trkpt lat="44.92026" lon="5.46316">
        <ele>1370.02</ele>
        <time>2016-04-29T13:49:53Z</time>
      </trkpt>
      <trkpt lat="44.92024" lon="5.46312">
        <ele>1370.02</ele>
        <time>2016-04-29T13:49:54Z</time>
      </trkpt>
      <trkpt lat="44.92021" lon="5.46307">
        <ele>1370.02</ele>
        <time>2016-04-29T13:49:55Z</time>
      </trkpt>
      <trkpt lat="44.92017" lon="5.46303">
        <ele>1370.5</ele>
        <time>2016-04-29T13:49:56Z</time>
      </trkpt>
      <trkpt lat="44.92013" lon="5.463">
        <ele>1370.02</ele>
        <time>2016-04-29T13:49:57Z</time>
      </trkpt>
      <trkpt lat="44.92009" lon="5.46298">
        <ele>1370.02</ele>
        <time>2016-04-29T13:49:58Z</time>
      </trkpt>
      <trkpt lat="44.92005" lon="5.46298">
        <ele>1370.02</ele>
        <time>2016-04-29T13:49:59Z</time>
      </trkpt>
      <trkpt lat="44.92" lon="5.46299">
        <ele>1370.5</ele>
        <time>2016-04-29T13:50:00Z</time>
      </trkpt>
      <trkpt lat="44.91997" lon="5.46302">
        <ele>1370.02</ele>
        <time>2016-04-29T13:50:01Z</time>
      </trkpt>
      <trkpt lat="44.91992" lon="5.46305">
        <ele>1370.02</ele>
        <time>2016-04-29T13:50:02Z</time>
      </trkpt>
      <trkpt lat="44.91949" lon="5.46333">
        <ele>1371.46</ele>
        <time>2016-04-29T13:50:14Z</time>
      </trkpt>
      <trkpt lat="44.91932" lon="5.46332">
        <ele>1372.42</ele>
        <time>2016-04-29T13:50:19Z</time>
      </trkpt>
      <trkpt lat="44.91929" lon="5.46332">
        <ele>1371.94</ele>
        <time>2016-04-29T13:50:20Z</time>
      </trkpt>
      <trkpt lat="44.91926" lon="5.46334">
        <ele>1372.42</ele>
        <time>2016-04-29T13:50:21Z</time>
      </trkpt>
      <trkpt lat="44.91912" lon="5.46344">
        <ele>1372.42</ele>
        <time>2016-04-29T13:50:25Z</time>
      </trkpt>
      <trkpt lat="44.91909" lon="5.46347">
        <ele>1371.94</ele>
        <time>2016-04-29T13:50:26Z</time>
      </trkpt>
      <trkpt lat="44.91896" lon="5.46358">
        <ele>1370.98</ele>
        <time>2016-04-29T13:50:29Z</time>
      </trkpt>
      <trkpt lat="44.91892" lon="5.46363">
        <ele>1370.5</ele>
        <time>2016-04-29T13:50:30Z</time>
      </trkpt>
      <trkpt lat="44.91882" lon="5.46373">
        <ele>1369.54</ele>
        <time>2016-04-29T13:50:32Z</time>
      </trkpt>
      <trkpt lat="44.91871" lon="5.46381">
        <ele>1369.05</ele>
        <time>2016-04-29T13:50:34Z</time>
      </trkpt>
      <trkpt lat="44.91866" lon="5.46383">
        <ele>1369.05</ele>
        <time>2016-04-29T13:50:35Z</time>
      </trkpt>
      <trkpt lat="44.91861" lon="5.46385">
        <ele>1369.54</ele>
        <time>2016-04-29T13:50:36Z</time>
      </trkpt>
      <trkpt lat="44.91857" lon="5.46387">
        <ele>1370.02</ele>
        <time>2016-04-29T13:50:37Z</time>
      </trkpt>
      <trkpt lat="44.91854" lon="5.4639">
        <ele>1370.5</ele>
        <time>2016-04-29T13:50:38Z</time>
      </trkpt>
      <trkpt lat="44.91851" lon="5.46393">
        <ele>1370.98</ele>
        <time>2016-04-29T13:50:39Z</time>
      </trkpt>
      <trkpt lat="44.91847" lon="5.46395">
        <ele>1370.98</ele>
        <time>2016-04-29T13:50:40Z</time>
      </trkpt>
      <trkpt lat="44.91843" lon="5.46397">
        <ele>1371.46</ele>
        <time>2016-04-29T13:50:41Z</time>
      </trkpt>
      <trkpt lat="44.91825" lon="5.46409">
        <ele>1372.42</ele>
        <time>2016-04-29T13:50:46Z</time>
      </trkpt>
      <trkpt lat="44.91822" lon="5.46413">
        <ele>1372.42</ele>
        <time>2016-04-29T13:50:47Z</time>
      </trkpt>
      <trkpt lat="44.91819" lon="5.46417">
        <ele>1372.42</ele>
        <time>2016-04-29T13:50:48Z</time>
      </trkpt>
      <trkpt lat="44.91813" lon="5.46425">
        <ele>1372.42</ele>
        <time>2016-04-29T13:50:50Z</time>
      </trkpt>
      <trkpt lat="44.9181" lon="5.4643">
        <ele>1372.42</ele>
        <time>2016-04-29T13:50:51Z</time>
      </trkpt>
      <trkpt lat="44.91789" lon="5.46476">
        <ele>1374.34</ele>
        <time>2016-04-29T13:51:02Z</time>
      </trkpt>
      <trkpt lat="44.91774" lon="5.46494">
        <ele>1376.26</ele>
        <time>2016-04-29T13:51:10Z</time>
      </trkpt>
      <trkpt lat="44.91772" lon="5.46495">
        <ele>1376.26</ele>
        <time>2016-04-29T13:51:11Z</time>
      </trkpt>
      <trkpt lat="44.9177" lon="5.46497">
        <ele>1376.75</ele>
        <time>2016-04-29T13:51:12Z</time>
      </trkpt>
      <trkpt lat="44.91768" lon="5.46497">
        <ele>1376.75</ele>
        <time>2016-04-29T13:51:13Z</time>
      </trkpt>
      <trkpt lat="44.91765" lon="5.46498">
        <ele>1376.26</ele>
        <time>2016-04-29T13:51:14Z</time>
      </trkpt>
      <trkpt lat="44.91746" lon="5.46507">
        <ele>1374.82</ele>
        <time>2016-04-29T13:51:19Z</time>
      </trkpt>
      <trkpt lat="44.9174" lon="5.46507">
        <ele>1373.86</ele>
        <time>2016-04-29T13:51:20Z</time>
      </trkpt>
      <trkpt lat="44.91734" lon="5.46506">
        <ele>1372.9</ele>
        <time>2016-04-29T13:51:21Z</time>
      </trkpt>
      <trkpt lat="44.9173" lon="5.46505">
        <ele>1371.94</ele>
        <time>2016-04-29T13:51:22Z</time>
      </trkpt>
      <trkpt lat="44.91727" lon="5.46503">
        <ele>1371.94</ele>
        <time>2016-04-29T13:51:23Z</time>
      </trkpt>
      <trkpt lat="44.91724" lon="5.46499">
        <ele>1371.94</ele>
        <time>2016-04-29T13:51:24Z</time>
      </trkpt>
      <trkpt lat="44.91723" lon="5.46496">
        <ele>1371.46</ele>
        <time>2016-04-29T13:51:25Z</time>
      </trkpt>
      <trkpt lat="44.91722" lon="5.46493">
        <ele>1371.46</ele>
        <time>2016-04-29T13:51:26Z</time>
      </trkpt>
      <trkpt lat="44.91722" lon="5.46491">
        <ele>1370.98</ele>
        <time>2016-04-29T13:51:27Z</time>
      </trkpt>
      <trkpt lat="44.91723" lon="5.46487">
        <ele>1370.5</ele>
        <time>2016-04-29T13:51:28Z</time>
      </trkpt>
      <trkpt lat="44.91723" lon="5.46483">
        <ele>1370.02</ele>
        <time>2016-04-29T13:51:29Z</time>
      </trkpt>
      <trkpt lat="44.91724" lon="5.4648">
        <ele>1370.02</ele>
        <time>2016-04-29T13:51:30Z</time>
      </trkpt>
      <trkpt lat="44.91724" lon="5.46476">
        <ele>1369.54</ele>
        <time>2016-04-29T13:51:31Z</time>
      </trkpt>
      <trkpt lat="44.91728" lon="5.46467">
        <ele>1368.57</ele>
        <time>2016-04-29T13:51:35Z</time>
      </trkpt>
      <trkpt lat="44.91728" lon="5.46465">
        <ele>1368.57</ele>
        <time>2016-04-29T13:51:36Z</time>
      </trkpt>
      <trkpt lat="44.91727" lon="5.46458">
        <ele>1367.61</ele>
        <time>2016-04-29T13:51:47Z</time>
      </trkpt>
      <trkpt lat="44.91729" lon="5.46452">
        <ele>1367.13</ele>
        <time>2016-04-29T13:52:00Z</time>
      </trkpt>
      <trkpt lat="44.91729" lon="5.46449">
        <ele>1367.13</ele>
        <time>2016-04-29T13:52:01Z</time>
      </trkpt>
      <trkpt lat="44.91729" lon="5.46447">
        <ele>1367.13</ele>
        <time>2016-04-29T13:52:02Z</time>
      </trkpt>
      <trkpt lat="44.91729" lon="5.46441">
        <ele>1367.61</ele>
        <time>2016-04-29T13:52:04Z</time>
      </trkpt>
      <trkpt lat="44.91728" lon="5.46438">
        <ele>1367.13</ele>
        <time>2016-04-29T13:52:05Z</time>
      </trkpt>
      <trkpt lat="44.91728" lon="5.46436">
        <ele>1367.61</ele>
        <time>2016-04-29T13:52:06Z</time>
      </trkpt>
      <trkpt lat="44.91724" lon="5.46415">
        <ele>1368.57</ele>
        <time>2016-04-29T13:52:15Z</time>
      </trkpt>
      <trkpt lat="44.91723" lon="5.46413">
        <ele>1368.57</ele>
        <time>2016-04-29T13:52:16Z</time>
      </trkpt>
      <trkpt lat="44.91722" lon="5.46411">
        <ele>1368.57</ele>
        <time>2016-04-29T13:52:17Z</time>
      </trkpt>
      <trkpt lat="44.9172" lon="5.46409">
        <ele>1369.05</ele>
        <time>2016-04-29T13:52:18Z</time>
      </trkpt>
      <trkpt lat="44.91719" lon="5.46407">
        <ele>1369.05</ele>
        <time>2016-04-29T13:52:19Z</time>
      </trkpt>
      <trkpt lat="44.91719" lon="5.46405">
        <ele>1369.54</ele>
        <time>2016-04-29T13:52:20Z</time>
      </trkpt>
      <trkpt lat="44.91718" lon="5.46403">
        <ele>1369.54</ele>
        <time>2016-04-29T13:52:21Z</time>
      </trkpt>
      <trkpt lat="44.91719" lon="5.46401">
        <ele>1370.02</ele>
        <time>2016-04-29T13:52:22Z</time>
      </trkpt>
      <trkpt lat="44.91719" lon="5.46399">
        <ele>1370.02</ele>
        <time>2016-04-29T13:52:23Z</time>
      </trkpt>
      <trkpt lat="44.9172" lon="5.46397">
        <ele>1370.02</ele>
        <time>2016-04-29T13:52:24Z</time>
      </trkpt>
      <trkpt lat="44.9172" lon="5.46394">
        <ele>1370.5</ele>
        <time>2016-04-29T13:52:25Z</time>
      </trkpt>
      <trkpt lat="44.9172" lon="5.46392">
        <ele>1370.5</ele>
        <time>2016-04-29T13:52:26Z</time>
      </trkpt>
      <trkpt lat="44.9172" lon="5.4639">
        <ele>1370.02</ele>
        <time>2016-04-29T13:52:27Z</time>
      </trkpt>
      <trkpt lat="44.91719" lon="5.46388">
        <ele>1370.5</ele>
        <time>2016-04-29T13:52:28Z</time>
      </trkpt>
      <trkpt lat="44.91719" lon="5.46386">
        <ele>1370.98</ele>
        <time>2016-04-29T13:52:29Z</time>
      </trkpt>
      <trkpt lat="44.91718" lon="5.46385">
        <ele>1370.98</ele>
        <time>2016-04-29T13:52:30Z</time>
      </trkpt>
      <trkpt lat="44.91715" lon="5.46382">
        <ele>1370.98</ele>
        <time>2016-04-29T13:52:32Z</time>
      </trkpt>
      <trkpt lat="44.91714" lon="5.46381">
        <ele>1371.46</ele>
        <time>2016-04-29T13:52:33Z</time>
      </trkpt>
      <trkpt lat="44.91712" lon="5.4638">
        <ele>1371.94</ele>
        <time>2016-04-29T13:52:34Z</time>
      </trkpt>
      <trkpt lat="44.91711" lon="5.46379">
        <ele>1371.94</ele>
        <time>2016-04-29T13:52:35Z</time>
      </trkpt>
      <trkpt lat="44.91709" lon="5.46379">
        <ele>1371.94</ele>
        <time>2016-04-29T13:52:36Z</time>
      </trkpt>
      <trkpt lat="44.91708" lon="5.46379">
        <ele>1372.42</ele>
        <time>2016-04-29T13:52:37Z</time>
      </trkpt>
      <trkpt lat="44.9168" lon="5.46401">
        <ele>1372.42</ele>
        <time>2016-04-29T13:52:52Z</time>
      </trkpt>
      <trkpt lat="44.91659" lon="5.46433">
        <ele>1371.94</ele>
        <time>2016-04-29T13:53:00Z</time>
      </trkpt>
      <trkpt lat="44.91647" lon="5.46449">
        <ele>1370.98</ele>
        <time>2016-04-29T13:53:04Z</time>
      </trkpt>
      <trkpt lat="44.91611" lon="5.46482">
        <ele>1369.54</ele>
        <time>2016-04-29T13:53:13Z</time>
      </trkpt>
      <trkpt lat="44.91599" lon="5.46488">
        <ele>1370.02</ele>
        <time>2016-04-29T13:53:16Z</time>
      </trkpt>
      <trkpt lat="44.91549" lon="5.46498">
        <ele>1370.02</ele>
        <time>2016-04-29T13:53:30Z</time>
      </trkpt>
      <trkpt lat="44.91526" lon="5.4648">
        <ele>1370.02</ele>
        <time>2016-04-29T13:53:38Z</time>
      </trkpt>
      <trkpt lat="44.91523" lon="5.46477">
        <ele>1370.02</ele>
        <time>2016-04-29T13:53:39Z</time>
      </trkpt>
      <trkpt lat="44.9152" lon="5.46474">
        <ele>1370.02</ele>
        <time>2016-04-29T13:53:40Z</time>
      </trkpt>
      <trkpt lat="44.91517" lon="5.46471">
        <ele>1370.02</ele>
        <time>2016-04-29T13:53:41Z</time>
      </trkpt>
      <trkpt lat="44.91513" lon="5.4647">
        <ele>1370.02</ele>
        <time>2016-04-29T13:53:42Z</time>
      </trkpt>
      <trkpt lat="44.91511" lon="5.46469">
        <ele>1369.54</ele>
        <time>2016-04-29T13:53:43Z</time>
      </trkpt>
      <trkpt lat="44.91508" lon="5.46469">
        <ele>1370.02</ele>
        <time>2016-04-29T13:53:44Z</time>
      </trkpt>
      <trkpt lat="44.91505" lon="5.4647">
        <ele>1370.02</ele>
        <time>2016-04-29T13:53:45Z</time>
      </trkpt>
      <trkpt lat="44.91501" lon="5.46472">
        <ele>1370.02</ele>
        <time>2016-04-29T13:53:46Z</time>
      </trkpt>
      <trkpt lat="44.91498" lon="5.46474">
        <ele>1370.02</ele>
        <time>2016-04-29T13:53:47Z</time>
      </trkpt>
      <trkpt lat="44.91494" lon="5.46477">
        <ele>1370.02</ele>
        <time>2016-04-29T13:53:48Z</time>
      </trkpt>
      <trkpt lat="44.91478" lon="5.46495">
        <ele>1370.02</ele>
        <time>2016-04-29T13:53:54Z</time>
      </trkpt>
      <trkpt lat="44.91476" lon="5.465">
        <ele>1370.02</ele>
        <time>2016-04-29T13:53:55Z</time>
      </trkpt>
      <trkpt lat="44.91474" lon="5.46503">
        <ele>1370.02</ele>
        <time>2016-04-29T13:53:56Z</time>
      </trkpt>
      <trkpt lat="44.91447" lon="5.46568">
        <ele>1370.02</ele>
        <time>2016-04-29T13:54:09Z</time>
      </trkpt>
      <trkpt lat="44.91414" lon="5.46601">
        <ele>1371.46</ele>
        <time>2016-04-29T13:54:21Z</time>
      </trkpt>
      <trkpt lat="44.91376" lon="5.46592">
        <ele>1372.42</ele>
        <time>2016-04-29T13:54:32Z</time>
      </trkpt>
      <trkpt lat="44.91347" lon="5.46579">
        <ele>1372.9</ele>
        <time>2016-04-29T13:54:41Z</time>
      </trkpt>
      <trkpt lat="44.91307" lon="5.4659">
        <ele>1374.34</ele>
        <time>2016-04-29T13:54:53Z</time>
      </trkpt>
      <trkpt lat="44.91269" lon="5.46566">
        <ele>1375.3</ele>
        <time>2016-04-29T13:55:05Z</time>
      </trkpt>
      <trkpt lat="44.91236" lon="5.46556">
        <ele>1376.26</ele>
        <time>2016-04-29T13:55:16Z</time>
      </trkpt>
      <trkpt lat="44.91216" lon="5.46572">
        <ele>1377.23</ele>
        <time>2016-04-29T13:55:23Z</time>
      </trkpt>
      <trkpt lat="44.91207" lon="5.46593">
        <ele>1372.9</ele>
        <time>2016-04-29T13:55:28Z</time>
      </trkpt>
      <trkpt lat="44.91206" lon="5.46596">
        <ele>1380.59</ele>
        <time>2016-04-29T13:55:29Z</time>
      </trkpt>
      <trkpt lat="44.91179" lon="5.46636">
        <ele>1378.67</ele>
        <time>2016-04-29T13:55:41Z</time>
      </trkpt>
      <trkpt lat="44.91142" lon="5.46646">
        <ele>1379.63</ele>
        <time>2016-04-29T13:55:53Z</time>
      </trkpt>
      <trkpt lat="44.91117" lon="5.46644">
        <ele>1381.07</ele>
        <time>2016-04-29T13:56:02Z</time>
      </trkpt>
      <trkpt lat="44.91094" lon="5.46624">
        <ele>1382.03</ele>
        <time>2016-04-29T13:56:12Z</time>
      </trkpt>
      <trkpt lat="44.91064" lon="5.46602">
        <ele>1382.99</ele>
        <time>2016-04-29T13:56:24Z</time>
      </trkpt>
      <trkpt lat="44.91054" lon="5.46567">
        <ele>1382.99</ele>
        <time>2016-04-29T13:56:34Z</time>
      </trkpt>
      <trkpt lat="44.91031" lon="5.46566">
        <ele>1383.96</ele>
        <time>2016-04-29T13:56:44Z</time>
      </trkpt>
      <trkpt lat="44.90998" lon="5.46576">
        <ele>1384.92</ele>
        <time>2016-04-29T13:56:56Z</time>
      </trkpt>
      <trkpt lat="44.90973" lon="5.46598">
        <ele>1386.36</ele>
        <time>2016-04-29T13:57:08Z</time>
      </trkpt>
      <trkpt lat="44.90971" lon="5.466">
        <ele>1386.36</ele>
        <time>2016-04-29T13:57:19Z</time>
      </trkpt>
      <trkpt lat="44.90965" lon="5.46599">
        <ele>1386.84</ele>
        <time>2016-04-29T13:57:35Z</time>
      </trkpt>
      <trkpt lat="44.90952" lon="5.46598">
        <ele>1387.32</ele>
        <time>2016-04-29T13:57:49Z</time>
      </trkpt>
      <trkpt lat="44.90924" lon="5.46597">
        <ele>1389.24</ele>
        <time>2016-04-29T13:58:02Z</time>
      </trkpt>
      <trkpt lat="44.90898" lon="5.46599">
        <ele>1389.72</ele>
        <time>2016-04-29T13:58:16Z</time>
      </trkpt>
      <trkpt lat="44.90871" lon="5.46618">
        <ele>1391.65</ele>
        <time>2016-04-29T13:58:29Z</time>
      </trkpt>
      <trkpt lat="44.90838" lon="5.46628">
        <ele>1393.09</ele>
        <time>2016-04-29T13:58:45Z</time>
      </trkpt>
      <trkpt lat="44.90812" lon="5.46649">
        <ele>1395.01</ele>
        <time>2016-04-29T13:59:00Z</time>
      </trkpt>
      <trkpt lat="44.90804" lon="5.46652">
        <ele>1395.49</ele>
        <time>2016-04-29T13:59:04Z</time>
      </trkpt>
      <trkpt lat="44.90802" lon="5.46653">
        <ele>1395.49</ele>
        <time>2016-04-29T13:59:05Z</time>
      </trkpt>
      <trkpt lat="44.908" lon="5.46653">
        <ele>1395.49</ele>
        <time>2016-04-29T13:59:06Z</time>
      </trkpt>
      <trkpt lat="44.90798" lon="5.46653">
        <ele>1395.49</ele>
        <time>2016-04-29T13:59:07Z</time>
      </trkpt>
      <trkpt lat="44.90796" lon="5.46653">
        <ele>1395.97</ele>
        <time>2016-04-29T13:59:08Z</time>
      </trkpt>
      <trkpt lat="44.90767" lon="5.46663">
        <ele>1397.89</ele>
        <time>2016-04-29T13:59:23Z</time>
      </trkpt>
      <trkpt lat="44.90761" lon="5.46662">
        <ele>1399.34</ele>
        <time>2016-04-29T13:59:26Z</time>
      </trkpt>
      <trkpt lat="44.90738" lon="5.46653">
        <ele>1399.34</ele>
        <time>2016-04-29T13:59:37Z</time>
      </trkpt>
      <trkpt lat="44.90725" lon="5.46646">
        <ele>1399.82</ele>
        <time>2016-04-29T13:59:44Z</time>
      </trkpt>
      <trkpt lat="44.90723" lon="5.46645">
        <ele>1400.3</ele>
        <time>2016-04-29T13:59:45Z</time>
      </trkpt>
      <trkpt lat="44.90721" lon="5.46644">
        <ele>1400.78</ele>
        <time>2016-04-29T13:59:46Z</time>
      </trkpt>
      <trkpt lat="44.9072" lon="5.46643">
        <ele>1400.78</ele>
        <time>2016-04-29T13:59:47Z</time>
      </trkpt>
      <trkpt lat="44.90719" lon="5.46642">
        <ele>1400.78</ele>
        <time>2016-04-29T13:59:48Z</time>
      </trkpt>
      <trkpt lat="44.90717" lon="5.4664">
        <ele>1401.26</ele>
        <time>2016-04-29T13:59:49Z</time>
      </trkpt>
      <trkpt lat="44.90716" lon="5.46638">
        <ele>1401.26</ele>
        <time>2016-04-29T13:59:50Z</time>
      </trkpt>
      <trkpt lat="44.90715" lon="5.46636">
        <ele>1401.26</ele>
        <time>2016-04-29T13:59:51Z</time>
      </trkpt>
      <trkpt lat="44.90714" lon="5.46634">
        <ele>1401.26</ele>
        <time>2016-04-29T13:59:52Z</time>
      </trkpt>
      <trkpt lat="44.90712" lon="5.46631">
        <ele>1401.26</ele>
        <time>2016-04-29T13:59:53Z</time>
      </trkpt>
      <trkpt lat="44.90706" lon="5.46623">
        <ele>1402.22</ele>
        <time>2016-04-29T13:59:57Z</time>
      </trkpt>
      <trkpt lat="44.90705" lon="5.46621">
        <ele>1402.22</ele>
        <time>2016-04-29T13:59:58Z</time>
      </trkpt>
      <trkpt lat="44.90687" lon="5.46605">
        <ele>1403.18</ele>
        <time>2016-04-29T14:00:07Z</time>
      </trkpt>
      <trkpt lat="44.90685" lon="5.46605">
        <ele>1403.18</ele>
        <time>2016-04-29T14:00:08Z</time>
      </trkpt>
      <trkpt lat="44.90676" lon="5.46606">
        <ele>1403.66</ele>
        <time>2016-04-29T14:00:13Z</time>
      </trkpt>
      <trkpt lat="44.90674" lon="5.46607">
        <ele>1403.66</ele>
        <time>2016-04-29T14:00:14Z</time>
      </trkpt>
      <trkpt lat="44.90672" lon="5.46608">
        <ele>1404.14</ele>
        <time>2016-04-29T14:00:15Z</time>
      </trkpt>
      <trkpt lat="44.9067" lon="5.4661">
        <ele>1404.14</ele>
        <time>2016-04-29T14:00:16Z</time>
      </trkpt>
      <trkpt lat="44.90668" lon="5.4661">
        <ele>1404.14</ele>
        <time>2016-04-29T14:00:17Z</time>
      </trkpt>
      <trkpt lat="44.90661" lon="5.46615">
        <ele>1404.62</ele>
        <time>2016-04-29T14:00:22Z</time>
      </trkpt>
      <trkpt lat="44.90659" lon="5.46616">
        <ele>1404.62</ele>
        <time>2016-04-29T14:00:23Z</time>
      </trkpt>
      <trkpt lat="44.90657" lon="5.46617">
        <ele>1404.62</ele>
        <time>2016-04-29T14:00:24Z</time>
      </trkpt>
      <trkpt lat="44.90656" lon="5.46617">
        <ele>1405.1</ele>
        <time>2016-04-29T14:00:25Z</time>
      </trkpt>
      <trkpt lat="44.9065" lon="5.46618">
        <ele>1405.58</ele>
        <time>2016-04-29T14:00:28Z</time>
      </trkpt>
      <trkpt lat="44.90649" lon="5.46619">
        <ele>1405.58</ele>
        <time>2016-04-29T14:00:29Z</time>
      </trkpt>
      <trkpt lat="44.90647" lon="5.4662">
        <ele>1406.07</ele>
        <time>2016-04-29T14:00:30Z</time>
      </trkpt>
      <trkpt lat="44.90645" lon="5.46621">
        <ele>1406.07</ele>
        <time>2016-04-29T14:00:31Z</time>
      </trkpt>
      <trkpt lat="44.90638" lon="5.46622">
        <ele>1406.07</ele>
        <time>2016-04-29T14:00:34Z</time>
      </trkpt>
      <trkpt lat="44.90636" lon="5.46623">
        <ele>1406.07</ele>
        <time>2016-04-29T14:00:35Z</time>
      </trkpt>
      <trkpt lat="44.90634" lon="5.46622">
        <ele>1406.55</ele>
        <time>2016-04-29T14:00:36Z</time>
      </trkpt>
      <trkpt lat="44.90631" lon="5.46622">
        <ele>1406.55</ele>
        <time>2016-04-29T14:00:37Z</time>
      </trkpt>
      <trkpt lat="44.90629" lon="5.46621">
        <ele>1407.03</ele>
        <time>2016-04-29T14:00:38Z</time>
      </trkpt>
      <trkpt lat="44.90627" lon="5.4662">
        <ele>1406.55</ele>
        <time>2016-04-29T14:00:39Z</time>
      </trkpt>
      <trkpt lat="44.90625" lon="5.46619">
        <ele>1407.03</ele>
        <time>2016-04-29T14:00:40Z</time>
      </trkpt>
      <trkpt lat="44.90623" lon="5.46618">
        <ele>1407.03</ele>
        <time>2016-04-29T14:00:41Z</time>
      </trkpt>
      <trkpt lat="44.90621" lon="5.46616">
        <ele>1407.03</ele>
        <time>2016-04-29T14:00:42Z</time>
      </trkpt>
      <trkpt lat="44.9062" lon="5.46614">
        <ele>1407.51</ele>
        <time>2016-04-29T14:00:43Z</time>
      </trkpt>
      <trkpt lat="44.90619" lon="5.46612">
        <ele>1407.51</ele>
        <time>2016-04-29T14:00:44Z</time>
      </trkpt>
      <trkpt lat="44.90617" lon="5.46609">
        <ele>1407.51</ele>
        <time>2016-04-29T14:00:45Z</time>
      </trkpt>
      <trkpt lat="44.90615" lon="5.46606">
        <ele>1407.51</ele>
        <time>2016-04-29T14:00:46Z</time>
      </trkpt>
      <trkpt lat="44.90614" lon="5.46603">
        <ele>1407.51</ele>
        <time>2016-04-29T14:00:47Z</time>
      </trkpt>
      <trkpt lat="44.90612" lon="5.46601">
        <ele>1407.99</ele>
        <time>2016-04-29T14:00:48Z</time>
      </trkpt>
      <trkpt lat="44.90585" lon="5.46566">
        <ele>1409.43</ele>
        <time>2016-04-29T14:01:03Z</time>
      </trkpt>
      <trkpt lat="44.9055" lon="5.46564">
        <ele>1411.35</ele>
        <time>2016-04-29T14:01:18Z</time>
      </trkpt>
      <trkpt lat="44.90521" lon="5.46569">
        <ele>1413.28</ele>
        <time>2016-04-29T14:01:31Z</time>
      </trkpt>
      <trkpt lat="44.90492" lon="5.46558">
        <ele>1416.64</ele>
        <time>2016-04-29T14:01:45Z</time>
      </trkpt>
      <trkpt lat="44.90468" lon="5.46552">
        <ele>1418.08</ele>
        <time>2016-04-29T14:01:58Z</time>
      </trkpt>
      <trkpt lat="44.90446" lon="5.4657">
        <ele>1419.52</ele>
        <time>2016-04-29T14:02:12Z</time>
      </trkpt>
      <trkpt lat="44.90435" lon="5.46576">
        <ele>1420.49</ele>
        <time>2016-04-29T14:02:19Z</time>
      </trkpt>
      <trkpt lat="44.90433" lon="5.46576">
        <ele>1420.49</ele>
        <time>2016-04-29T14:02:20Z</time>
      </trkpt>
      <trkpt lat="44.90422" lon="5.46576">
        <ele>1421.45</ele>
        <time>2016-04-29T14:02:27Z</time>
      </trkpt>
      <trkpt lat="44.90421" lon="5.46576">
        <ele>1421.45</ele>
        <time>2016-04-29T14:02:28Z</time>
      </trkpt>
      <trkpt lat="44.9042" lon="5.46576">
        <ele>1421.45</ele>
        <time>2016-04-29T14:02:29Z</time>
      </trkpt>
      <trkpt lat="44.90413" lon="5.46575">
        <ele>1421.93</ele>
        <time>2016-04-29T14:02:32Z</time>
      </trkpt>
      <trkpt lat="44.90411" lon="5.46574">
        <ele>1421.93</ele>
        <time>2016-04-29T14:02:33Z</time>
      </trkpt>
      <trkpt lat="44.90409" lon="5.46573">
        <ele>1421.93</ele>
        <time>2016-04-29T14:02:34Z</time>
      </trkpt>
      <trkpt lat="44.9038" lon="5.46555">
        <ele>1423.37</ele>
        <time>2016-04-29T14:02:49Z</time>
      </trkpt>
      <trkpt lat="44.90363" lon="5.46545">
        <ele>1424.33</ele>
        <time>2016-04-29T14:03:00Z</time>
      </trkpt>
      <trkpt lat="44.90339" lon="5.46547">
        <ele>1425.77</ele>
        <time>2016-04-29T14:03:12Z</time>
      </trkpt>
      <trkpt lat="44.90333" lon="5.46548">
        <ele>1426.25</ele>
        <time>2016-04-29T14:03:15Z</time>
      </trkpt>
      <trkpt lat="44.9033" lon="5.46549">
        <ele>1426.25</ele>
        <time>2016-04-29T14:03:17Z</time>
      </trkpt>
      <trkpt lat="44.90328" lon="5.4655">
        <ele>1426.73</ele>
        <time>2016-04-29T14:03:18Z</time>
      </trkpt>
      <trkpt lat="44.90326" lon="5.46551">
        <ele>1426.73</ele>
        <time>2016-04-29T14:03:19Z</time>
      </trkpt>
      <trkpt lat="44.90324" lon="5.46552">
        <ele>1426.73</ele>
        <time>2016-04-29T14:03:20Z</time>
      </trkpt>
      <trkpt lat="44.90322" lon="5.46552">
        <ele>1426.73</ele>
        <time>2016-04-29T14:03:21Z</time>
      </trkpt>
      <trkpt lat="44.90319" lon="5.46552">
        <ele>1427.21</ele>
        <time>2016-04-29T14:03:22Z</time>
      </trkpt>
      <trkpt lat="44.90299" lon="5.46557">
        <ele>1428.66</ele>
        <time>2016-04-29T14:03:34Z</time>
      </trkpt>
      <trkpt lat="44.90263" lon="5.46549">
        <ele>1431.06</ele>
        <time>2016-04-29T14:03:52Z</time>
      </trkpt>
      <trkpt lat="44.90247" lon="5.46542">
        <ele>1432.98</ele>
        <time>2016-04-29T14:04:03Z</time>
      </trkpt>
      <trkpt lat="44.90244" lon="5.4654">
        <ele>1433.46</ele>
        <time>2016-04-29T14:04:05Z</time>
      </trkpt>
      <trkpt lat="44.90243" lon="5.46539">
        <ele>1433.46</ele>
        <time>2016-04-29T14:04:06Z</time>
      </trkpt>
      <trkpt lat="44.90241" lon="5.46539">
        <ele>1433.94</ele>
        <time>2016-04-29T14:04:07Z</time>
      </trkpt>
      <trkpt lat="44.90235" lon="5.46537">
        <ele>1434.42</ele>
        <time>2016-04-29T14:04:13Z</time>
      </trkpt>
      <trkpt lat="44.90234" lon="5.46537">
        <ele>1434.42</ele>
        <time>2016-04-29T14:04:14Z</time>
      </trkpt>
      <trkpt lat="44.90227" lon="5.46538">
        <ele>1435.39</ele>
        <time>2016-04-29T14:04:18Z</time>
      </trkpt>
      <trkpt lat="44.90225" lon="5.46539">
        <ele>1435.39</ele>
        <time>2016-04-29T14:04:19Z</time>
      </trkpt>
      <trkpt lat="44.90223" lon="5.46539">
        <ele>1435.39</ele>
        <time>2016-04-29T14:04:20Z</time>
      </trkpt>
      <trkpt lat="44.90222" lon="5.4654">
        <ele>1435.39</ele>
        <time>2016-04-29T14:04:21Z</time>
      </trkpt>
      <trkpt lat="44.90221" lon="5.4654">
        <ele>1435.87</ele>
        <time>2016-04-29T14:04:22Z</time>
      </trkpt>
      <trkpt lat="44.9022" lon="5.46541">
        <ele>1435.39</ele>
        <time>2016-04-29T14:04:23Z</time>
      </trkpt>
      <trkpt lat="44.90217" lon="5.46543">
        <ele>1435.87</ele>
        <time>2016-04-29T14:04:25Z</time>
      </trkpt>
      <trkpt lat="44.90211" lon="5.46543">
        <ele>1435.87</ele>
        <time>2016-04-29T14:04:29Z</time>
      </trkpt>
      <trkpt lat="44.9021" lon="5.46543">
        <ele>1435.87</ele>
        <time>2016-04-29T14:04:30Z</time>
      </trkpt>
      <trkpt lat="44.90208" lon="5.46543">
        <ele>1436.35</ele>
        <time>2016-04-29T14:04:31Z</time>
      </trkpt>
      <trkpt lat="44.90207" lon="5.46543">
        <ele>1436.35</ele>
        <time>2016-04-29T14:04:32Z</time>
      </trkpt>
      <trkpt lat="44.90205" lon="5.46543">
        <ele>1436.35</ele>
        <time>2016-04-29T14:04:33Z</time>
      </trkpt>
      <trkpt lat="44.90203" lon="5.46544">
        <ele>1436.35</ele>
        <time>2016-04-29T14:04:34Z</time>
      </trkpt>
      <trkpt lat="44.90201" lon="5.46544">
        <ele>1436.83</ele>
        <time>2016-04-29T14:04:35Z</time>
      </trkpt>
      <trkpt lat="44.90199" lon="5.46544">
        <ele>1436.83</ele>
        <time>2016-04-29T14:04:36Z</time>
      </trkpt>
      <trkpt lat="44.90196" lon="5.46543">
        <ele>1437.31</ele>
        <time>2016-04-29T14:04:37Z</time>
      </trkpt>
      <trkpt lat="44.90175" lon="5.4655">
        <ele>1439.71</ele>
        <time>2016-04-29T14:04:51Z</time>
      </trkpt>
      <trkpt lat="44.90159" lon="5.46566">
        <ele>1441.15</ele>
        <time>2016-04-29T14:05:05Z</time>
      </trkpt>
      <trkpt lat="44.90156" lon="5.46568">
        <ele>1441.15</ele>
        <time>2016-04-29T14:05:07Z</time>
      </trkpt>
      <trkpt lat="44.90154" lon="5.46568">
        <ele>1441.15</ele>
        <time>2016-04-29T14:05:08Z</time>
      </trkpt>
      <trkpt lat="44.90153" lon="5.46569">
        <ele>1441.63</ele>
        <time>2016-04-29T14:05:09Z</time>
      </trkpt>
      <trkpt lat="44.90149" lon="5.4657">
        <ele>1441.63</ele>
        <time>2016-04-29T14:05:11Z</time>
      </trkpt>
      <trkpt lat="44.90147" lon="5.46571">
        <ele>1441.63</ele>
        <time>2016-04-29T14:05:12Z</time>
      </trkpt>
      <trkpt lat="44.90145" lon="5.46571">
        <ele>1441.63</ele>
        <time>2016-04-29T14:05:13Z</time>
      </trkpt>
      <trkpt lat="44.90119" lon="5.46564">
        <ele>1443.56</ele>
        <time>2016-04-29T14:05:31Z</time>
      </trkpt>
      <trkpt lat="44.90097" lon="5.46562">
        <ele>1445.96</ele>
        <time>2016-04-29T14:05:46Z</time>
      </trkpt>
      <trkpt lat="44.90095" lon="5.46562">
        <ele>1446.44</ele>
        <time>2016-04-29T14:05:47Z</time>
      </trkpt>
      <trkpt lat="44.90094" lon="5.46562">
        <ele>1446.44</ele>
        <time>2016-04-29T14:05:48Z</time>
      </trkpt>
      <trkpt lat="44.90092" lon="5.46562">
        <ele>1446.44</ele>
        <time>2016-04-29T14:05:49Z</time>
      </trkpt>
      <trkpt lat="44.90091" lon="5.46563">
        <ele>1446.92</ele>
        <time>2016-04-29T14:05:50Z</time>
      </trkpt>
      <trkpt lat="44.9009" lon="5.46563">
        <ele>1446.92</ele>
        <time>2016-04-29T14:05:51Z</time>
      </trkpt>
      <trkpt lat="44.90088" lon="5.46564">
        <ele>1446.92</ele>
        <time>2016-04-29T14:05:52Z</time>
      </trkpt>
      <trkpt lat="44.90087" lon="5.46565">
        <ele>1446.92</ele>
        <time>2016-04-29T14:05:53Z</time>
      </trkpt>
      <trkpt lat="44.90086" lon="5.46566">
        <ele>1446.92</ele>
        <time>2016-04-29T14:05:54Z</time>
      </trkpt>
      <trkpt lat="44.90084" lon="5.46567">
        <ele>1447.4</ele>
        <time>2016-04-29T14:05:55Z</time>
      </trkpt>
      <trkpt lat="44.90083" lon="5.46568">
        <ele>1447.4</ele>
        <time>2016-04-29T14:05:56Z</time>
      </trkpt>
      <trkpt lat="44.90082" lon="5.46569">
        <ele>1447.88</ele>
        <time>2016-04-29T14:05:57Z</time>
      </trkpt>
      <trkpt lat="44.90081" lon="5.46571">
        <ele>1447.88</ele>
        <time>2016-04-29T14:05:58Z</time>
      </trkpt>
      <trkpt lat="44.90079" lon="5.46572">
        <ele>1447.88</ele>
        <time>2016-04-29T14:05:59Z</time>
      </trkpt>
      <trkpt lat="44.90078" lon="5.46576">
        <ele>1448.36</ele>
        <time>2016-04-29T14:06:01Z</time>
      </trkpt>
      <trkpt lat="44.90078" lon="5.46578">
        <ele>1448.36</ele>
        <time>2016-04-29T14:06:02Z</time>
      </trkpt>
      <trkpt lat="44.90077" lon="5.4658">
        <ele>1448.36</ele>
        <time>2016-04-29T14:06:03Z</time>
      </trkpt>
      <trkpt lat="44.90077" lon="5.46581">
        <ele>1448.84</ele>
        <time>2016-04-29T14:06:04Z</time>
      </trkpt>
      <trkpt lat="44.90077" lon="5.46583">
        <ele>1448.84</ele>
        <time>2016-04-29T14:06:05Z</time>
      </trkpt>
      <trkpt lat="44.90076" lon="5.46585">
        <ele>1448.84</ele>
        <time>2016-04-29T14:06:06Z</time>
      </trkpt>
      <trkpt lat="44.90076" lon="5.46587">
        <ele>1448.84</ele>
        <time>2016-04-29T14:06:07Z</time>
      </trkpt>
      <trkpt lat="44.90076" lon="5.46588">
        <ele>1449.32</ele>
        <time>2016-04-29T14:06:08Z</time>
      </trkpt>
      <trkpt lat="44.90076" lon="5.4659">
        <ele>1449.32</ele>
        <time>2016-04-29T14:06:09Z</time>
      </trkpt>
      <trkpt lat="44.90076" lon="5.46592">
        <ele>1449.32</ele>
        <time>2016-04-29T14:06:10Z</time>
      </trkpt>
      <trkpt lat="44.90075" lon="5.46594">
        <ele>1449.32</ele>
        <time>2016-04-29T14:06:11Z</time>
      </trkpt>
      <trkpt lat="44.90072" lon="5.46617">
        <ele>1450.77</ele>
        <time>2016-04-29T14:06:23Z</time>
      </trkpt>
      <trkpt lat="44.90071" lon="5.46619">
        <ele>1451.25</ele>
        <time>2016-04-29T14:06:24Z</time>
      </trkpt>
      <trkpt lat="44.9007" lon="5.4662">
        <ele>1451.25</ele>
        <time>2016-04-29T14:06:25Z</time>
      </trkpt>
      <trkpt lat="44.90069" lon="5.46622">
        <ele>1451.25</ele>
        <time>2016-04-29T14:06:26Z</time>
      </trkpt>
      <trkpt lat="44.90068" lon="5.46624">
        <ele>1451.73</ele>
        <time>2016-04-29T14:06:27Z</time>
      </trkpt>
      <trkpt lat="44.90067" lon="5.46625">
        <ele>1451.73</ele>
        <time>2016-04-29T14:06:28Z</time>
      </trkpt>
      <trkpt lat="44.90066" lon="5.46627">
        <ele>1452.21</ele>
        <time>2016-04-29T14:06:29Z</time>
      </trkpt>
      <trkpt lat="44.90066" lon="5.46628">
        <ele>1452.21</ele>
        <time>2016-04-29T14:06:30Z</time>
      </trkpt>
      <trkpt lat="44.90065" lon="5.4663">
        <ele>1452.69</ele>
        <time>2016-04-29T14:06:31Z</time>
      </trkpt>
      <trkpt lat="44.90064" lon="5.46631">
        <ele>1452.69</ele>
        <time>2016-04-29T14:06:32Z</time>
      </trkpt>
      <trkpt lat="44.90063" lon="5.46632">
        <ele>1453.17</ele>
        <time>2016-04-29T14:06:33Z</time>
      </trkpt>
      <trkpt lat="44.90062" lon="5.46634">
        <ele>1453.17</ele>
        <time>2016-04-29T14:06:34Z</time>
      </trkpt>
      <trkpt lat="44.90061" lon="5.46636">
        <ele>1453.17</ele>
        <time>2016-04-29T14:06:35Z</time>
      </trkpt>
      <trkpt lat="44.9006" lon="5.46637">
        <ele>1453.65</ele>
        <time>2016-04-29T14:06:36Z</time>
      </trkpt>
      <trkpt lat="44.90059" lon="5.46639">
        <ele>1453.65</ele>
        <time>2016-04-29T14:06:37Z</time>
      </trkpt>
      <trkpt lat="44.90058" lon="5.4664">
        <ele>1453.65</ele>
        <time>2016-04-29T14:06:38Z</time>
      </trkpt>
      <trkpt lat="44.90057" lon="5.46642">
        <ele>1454.13</ele>
        <time>2016-04-29T14:06:39Z</time>
      </trkpt>
      <trkpt lat="44.90056" lon="5.46644">
        <ele>1454.13</ele>
        <time>2016-04-29T14:06:40Z</time>
      </trkpt>
      <trkpt lat="44.90056" lon="5.46645">
        <ele>1454.61</ele>
        <time>2016-04-29T14:06:41Z</time>
      </trkpt>
      <trkpt lat="44.90055" lon="5.46647">
        <ele>1454.61</ele>
        <time>2016-04-29T14:06:42Z</time>
      </trkpt>
      <trkpt lat="44.90053" lon="5.46657">
        <ele>1455.09</ele>
        <time>2016-04-29T14:06:47Z</time>
      </trkpt>
      <trkpt lat="44.90053" lon="5.46659">
        <ele>1455.57</ele>
        <time>2016-04-29T14:06:48Z</time>
      </trkpt>
      <trkpt lat="44.90053" lon="5.46661">
        <ele>1455.57</ele>
        <time>2016-04-29T14:06:49Z</time>
      </trkpt>
      <trkpt lat="44.90052" lon="5.46663">
        <ele>1456.05</ele>
        <time>2016-04-29T14:06:50Z</time>
      </trkpt>
      <trkpt lat="44.90052" lon="5.46665">
        <ele>1456.05</ele>
        <time>2016-04-29T14:06:51Z</time>
      </trkpt>
      <trkpt lat="44.90051" lon="5.46666">
        <ele>1456.05</ele>
        <time>2016-04-29T14:06:52Z</time>
      </trkpt>
      <trkpt lat="44.90051" lon="5.4667">
        <ele>1457.02</ele>
        <time>2016-04-29T14:06:54Z</time>
      </trkpt>
      <trkpt lat="44.9005" lon="5.46672">
        <ele>1457.02</ele>
        <time>2016-04-29T14:06:55Z</time>
      </trkpt>
      <trkpt lat="44.90049" lon="5.46674">
        <ele>1457.02</ele>
        <time>2016-04-29T14:06:56Z</time>
      </trkpt>
      <trkpt lat="44.90049" lon="5.46676">
        <ele>1457.02</ele>
        <time>2016-04-29T14:06:57Z</time>
      </trkpt>
      <trkpt lat="44.90049" lon="5.46679">
        <ele>1457.5</ele>
        <time>2016-04-29T14:06:58Z</time>
      </trkpt>
      <trkpt lat="44.90048" lon="5.46681">
        <ele>1457.5</ele>
        <time>2016-04-29T14:06:59Z</time>
      </trkpt>
      <trkpt lat="44.90048" lon="5.46683">
        <ele>1457.98</ele>
        <time>2016-04-29T14:07:00Z</time>
      </trkpt>
      <trkpt lat="44.90048" lon="5.46685">
        <ele>1457.98</ele>
        <time>2016-04-29T14:07:01Z</time>
      </trkpt>
      <trkpt lat="44.90048" lon="5.46688">
        <ele>1458.46</ele>
        <time>2016-04-29T14:07:02Z</time>
      </trkpt>
      <trkpt lat="44.90047" lon="5.46689">
        <ele>1458.46</ele>
        <time>2016-04-29T14:07:03Z</time>
      </trkpt>
      <trkpt lat="44.90047" lon="5.46692">
        <ele>1458.94</ele>
        <time>2016-04-29T14:07:04Z</time>
      </trkpt>
      <trkpt lat="44.90047" lon="5.46694">
        <ele>1458.94</ele>
        <time>2016-04-29T14:07:05Z</time>
      </trkpt>
      <trkpt lat="44.90046" lon="5.46696">
        <ele>1459.42</ele>
        <time>2016-04-29T14:07:06Z</time>
      </trkpt>
      <trkpt lat="44.90045" lon="5.46698">
        <ele>1459.42</ele>
        <time>2016-04-29T14:07:07Z</time>
      </trkpt>
      <trkpt lat="44.90044" lon="5.467">
        <ele>1459.9</ele>
        <time>2016-04-29T14:07:08Z</time>
      </trkpt>
      <trkpt lat="44.90041" lon="5.46711">
        <ele>1460.86</ele>
        <time>2016-04-29T14:07:13Z</time>
      </trkpt>
      <trkpt lat="44.9004" lon="5.46713">
        <ele>1460.86</ele>
        <time>2016-04-29T14:07:14Z</time>
      </trkpt>
      <trkpt lat="44.9004" lon="5.46716">
        <ele>1461.34</ele>
        <time>2016-04-29T14:07:15Z</time>
      </trkpt>
      <trkpt lat="44.90039" lon="5.46718">
        <ele>1461.34</ele>
        <time>2016-04-29T14:07:16Z</time>
      </trkpt>
      <trkpt lat="44.90039" lon="5.4672">
        <ele>1461.34</ele>
        <time>2016-04-29T14:07:17Z</time>
      </trkpt>
      <trkpt lat="44.90038" lon="5.46721">
        <ele>1461.82</ele>
        <time>2016-04-29T14:07:18Z</time>
      </trkpt>
      <trkpt lat="44.90038" lon="5.46724">
        <ele>1461.82</ele>
        <time>2016-04-29T14:07:19Z</time>
      </trkpt>
      <trkpt lat="44.90038" lon="5.46726">
        <ele>1462.3</ele>
        <time>2016-04-29T14:07:20Z</time>
      </trkpt>
      <trkpt lat="44.90037" lon="5.46729">
        <ele>1462.3</ele>
        <time>2016-04-29T14:07:21Z</time>
      </trkpt>
      <trkpt lat="44.90037" lon="5.4673">
        <ele>1462.3</ele>
        <time>2016-04-29T14:07:22Z</time>
      </trkpt>
      <trkpt lat="44.90036" lon="5.46733">
        <ele>1462.78</ele>
        <time>2016-04-29T14:07:23Z</time>
      </trkpt>
      <trkpt lat="44.90036" lon="5.46735">
        <ele>1462.78</ele>
        <time>2016-04-29T14:07:24Z</time>
      </trkpt>
      <trkpt lat="44.90035" lon="5.46737">
        <ele>1462.78</ele>
        <time>2016-04-29T14:07:25Z</time>
      </trkpt>
      <trkpt lat="44.90034" lon="5.46739">
        <ele>1462.78</ele>
        <time>2016-04-29T14:07:26Z</time>
      </trkpt>
      <trkpt lat="44.90034" lon="5.46741">
        <ele>1463.26</ele>
        <time>2016-04-29T14:07:27Z</time>
      </trkpt>
      <trkpt lat="44.90034" lon="5.46746">
        <ele>1463.26</ele>
        <time>2016-04-29T14:07:29Z</time>
      </trkpt>
      <trkpt lat="44.90034" lon="5.46749">
        <ele>1463.74</ele>
        <time>2016-04-29T14:07:40Z</time>
      </trkpt>
      <trkpt lat="44.90033" lon="5.46759">
        <ele>1468.07</ele>
        <time>2016-04-29T14:09:15Z</time>
      </trkpt>
      <trkpt lat="44.90034" lon="5.46761">
        <ele>1468.07</ele>
        <time>2016-04-29T14:09:17Z</time>
      </trkpt>
      <trkpt lat="44.90034" lon="5.46763">
        <ele>1469.51</ele>
        <time>2016-04-29T14:09:47Z</time>
      </trkpt>
      <trkpt lat="44.90034" lon="5.46761">
        <ele>1469.51</ele>
        <time>2016-04-29T14:10:17Z</time>
      </trkpt>
      <trkpt lat="44.90035" lon="5.46757">
        <ele>1472.88</ele>
        <time>2016-04-29T14:10:29Z</time>
      </trkpt>
      <trkpt lat="44.90035" lon="5.46757">
        <ele>1469.51</ele>
        <time>2016-04-29T14:10:30Z</time>
      </trkpt>
      <trkpt lat="44.90035" lon="5.46756">
        <ele>1468.55</ele>
        <time>2016-04-29T14:10:47Z</time>
      </trkpt>
      <trkpt lat="44.90036" lon="5.46756">
        <ele>1469.03</ele>
        <time>2016-04-29T14:11:08Z</time>
      </trkpt>
      <trkpt lat="44.90036" lon="5.46755">
        <ele>1469.03</ele>
        <time>2016-04-29T14:11:19Z</time>
      </trkpt>
      <trkpt lat="44.90036" lon="5.46757">
        <ele>1469.51</ele>
        <time>2016-04-29T14:11:36Z</time>
      </trkpt>
      <trkpt lat="44.90037" lon="5.46758">
        <ele>1469.03</ele>
        <time>2016-04-29T14:11:56Z</time>
      </trkpt>
      <trkpt lat="44.90036" lon="5.46756">
        <ele>1469.03</ele>
        <time>2016-04-29T14:12:13Z</time>
      </trkpt>
      <trkpt lat="44.90036" lon="5.46754">
        <ele>1468.55</ele>
        <time>2016-04-29T14:12:37Z</time>
      </trkpt>
      <trkpt lat="44.90035" lon="5.46754">
        <ele>1467.11</ele>
        <time>2016-04-29T14:12:49Z</time>
      </trkpt>
      <trkpt lat="44.90035" lon="5.46754">
        <ele>1469.03</ele>
        <time>2016-04-29T14:13:11Z</time>
      </trkpt>
      <trkpt lat="44.90035" lon="5.46754">
        <ele>1468.55</ele>
        <time>2016-04-29T14:13:36Z</time>
      </trkpt>
      <trkpt lat="44.90035" lon="5.46754">
        <ele>1468.07</ele>
        <time>2016-04-29T14:14:00Z</time>
      </trkpt>
      <trkpt lat="44.90035" lon="5.46753">
        <ele>1468.07</ele>
        <time>2016-04-29T14:14:13Z</time>
      </trkpt>
      <trkpt lat="44.90034" lon="5.46754">
        <ele>1468.07</ele>
        <time>2016-04-29T14:14:41Z</time>
      </trkpt>
      <trkpt lat="44.90036" lon="5.46754">
        <ele>1468.55</ele>
        <time>2016-04-29T14:15:07Z</time>
      </trkpt>
      <trkpt lat="44.90036" lon="5.46755">
        <ele>1468.07</ele>
        <time>2016-04-29T14:15:34Z</time>
      </trkpt>
      <trkpt lat="44.90036" lon="5.46755">
        <ele>1468.55</ele>
        <time>2016-04-29T14:16:03Z</time>
      </trkpt>
      <trkpt lat="44.90036" lon="5.46755">
        <ele>1468.55</ele>
        <time>2016-04-29T14:16:30Z</time>
      </trkpt>
      <trkpt lat="44.90032" lon="5.4674">
        <ele>1468.07</ele>
        <time>2016-04-29T14:18:59Z</time>
      </trkpt>
      <trkpt lat="44.90036" lon="5.46762">
        <ele>1465.19</ele>
        <time>2016-04-29T14:19:21Z</time>
      </trkpt>
      <trkpt lat="44.90036" lon="5.46762">
        <ele>1463.26</ele>
        <time>2016-04-29T14:19:49Z</time>
      </trkpt>
      <trkpt lat="44.90036" lon="5.46759">
        <ele>1462.78</ele>
        <time>2016-04-29T14:20:13Z</time>
      </trkpt>
      <trkpt lat="44.90035" lon="5.46756">
        <ele>1463.26</ele>
        <time>2016-04-29T14:20:36Z</time>
      </trkpt>
      <trkpt lat="44.90034" lon="5.46757">
        <ele>1465.19</ele>
        <time>2016-04-29T14:20:59Z</time>
      </trkpt>
      <trkpt lat="44.90036" lon="5.46757">
        <ele>1464.23</ele>
        <time>2016-04-29T14:21:19Z</time>
      </trkpt>
      <trkpt lat="44.90036" lon="5.46757">
        <ele>1462.78</ele>
        <time>2016-04-29T14:21:35Z</time>
      </trkpt>
      <trkpt lat="44.90036" lon="5.46757">
        <ele>1463.74</ele>
        <time>2016-04-29T14:21:49Z</time>
      </trkpt>
      <trkpt lat="44.90037" lon="5.46756">
        <ele>1463.26</ele>
        <time>2016-04-29T14:22:10Z</time>
      </trkpt>
      <trkpt lat="44.90036" lon="5.46756">
        <ele>1463.74</ele>
        <time>2016-04-29T14:22:33Z</time>
      </trkpt>
      <trkpt lat="44.90036" lon="5.46756">
        <ele>1463.26</ele>
        <time>2016-04-29T14:22:41Z</time>
      </trkpt>
      <trkpt lat="44.90036" lon="5.46756">
        <ele>1464.23</ele>
        <time>2016-04-29T14:22:44Z</time>
      </trkpt>
      <trkpt lat="44.90036" lon="5.46763">
        <ele>1463.74</ele>
        <time>2016-04-29T14:22:56Z</time>
      </trkpt>
      <trkpt lat="44.90038" lon="5.46763">
        <ele>1464.23</ele>
        <time>2016-04-29T14:23:31Z</time>
      </trkpt>
      <trkpt lat="44.90036" lon="5.46762">
        <ele>1464.23</ele>
        <time>2016-04-29T14:24:05Z</time>
      </trkpt>
      <trkpt lat="44.90036" lon="5.46762">
        <ele>1463.74</ele>
        <time>2016-04-29T14:24:22Z</time>
      </trkpt>
      <trkpt lat="44.90032" lon="5.46759">
        <ele>1463.74</ele>
        <time>2016-04-29T14:24:40Z</time>
      </trkpt>
      <trkpt lat="44.90028" lon="5.46759">
        <ele>1464.23</ele>
        <time>2016-04-29T14:24:44Z</time>
      </trkpt>
      <trkpt lat="44.90027" lon="5.46764">
        <ele>1464.71</ele>
        <time>2016-04-29T14:24:49Z</time>
      </trkpt>
      <trkpt lat="44.90021" lon="5.4678">
        <ele>1464.71</ele>
        <time>2016-04-29T14:24:56Z</time>
      </trkpt>
      <trkpt lat="44.90008" lon="5.46824">
        <ele>1466.15</ele>
        <time>2016-04-29T14:25:13Z</time>
      </trkpt>
      <trkpt lat="44.89995" lon="5.46862">
        <ele>1466.63</ele>
        <time>2016-04-29T14:25:28Z</time>
      </trkpt>
      <trkpt lat="44.89979" lon="5.46901">
        <ele>1467.59</ele>
        <time>2016-04-29T14:25:44Z</time>
      </trkpt>
      <trkpt lat="44.89978" lon="5.46917">
        <ele>1468.07</ele>
        <time>2016-04-29T14:25:49Z</time>
      </trkpt>
      <trkpt lat="44.8998" lon="5.46929">
        <ele>1468.55</ele>
        <time>2016-04-29T14:25:53Z</time>
      </trkpt>
      <trkpt lat="44.90001" lon="5.46967">
        <ele>1469.03</ele>
        <time>2016-04-29T14:26:07Z</time>
      </trkpt>
      <trkpt lat="44.90004" lon="5.47014">
        <ele>1470.47</ele>
        <time>2016-04-29T14:26:20Z</time>
      </trkpt>
      <trkpt lat="44.89995" lon="5.47058">
        <ele>1471.92</ele>
        <time>2016-04-29T14:26:33Z</time>
      </trkpt>
      <trkpt lat="44.89985" lon="5.4707">
        <ele>1472.4</ele>
        <time>2016-04-29T14:26:38Z</time>
      </trkpt>
      <trkpt lat="44.89957" lon="5.47097">
        <ele>1473.84</ele>
        <time>2016-04-29T14:26:51Z</time>
      </trkpt>
      <trkpt lat="44.89954" lon="5.471">
        <ele>1474.32</ele>
        <time>2016-04-29T14:26:53Z</time>
      </trkpt>
      <trkpt lat="44.89939" lon="5.47113">
        <ele>1474.8</ele>
        <time>2016-04-29T14:27:00Z</time>
      </trkpt>
      <trkpt lat="44.89922" lon="5.4715">
        <ele>1475.76</ele>
        <time>2016-04-29T14:27:13Z</time>
      </trkpt>
      <trkpt lat="44.89896" lon="5.47179">
        <ele>1476.72</ele>
        <time>2016-04-29T14:27:26Z</time>
      </trkpt>
      <trkpt lat="44.89884" lon="5.47231">
        <ele>1476.72</ele>
        <time>2016-04-29T14:27:40Z</time>
      </trkpt>
      <trkpt lat="44.8987" lon="5.47277">
        <ele>1477.68</ele>
        <time>2016-04-29T14:27:52Z</time>
      </trkpt>
      <trkpt lat="44.89876" lon="5.47331">
        <ele>1478.65</ele>
        <time>2016-04-29T14:28:05Z</time>
      </trkpt>
      <trkpt lat="44.8986" lon="5.4736">
        <ele>1479.61</ele>
        <time>2016-04-29T14:28:15Z</time>
      </trkpt>
      <trkpt lat="44.89858" lon="5.47359">
        <ele>1479.61</ele>
        <time>2016-04-29T14:28:16Z</time>
      </trkpt>
      <trkpt lat="44.89834" lon="5.47318">
        <ele>1479.13</ele>
        <time>2016-04-29T14:28:28Z</time>
      </trkpt>
      <trkpt lat="44.89797" lon="5.4729">
        <ele>1479.61</ele>
        <time>2016-04-29T14:28:41Z</time>
      </trkpt>
      <trkpt lat="44.89767" lon="5.47264">
        <ele>1479.61</ele>
        <time>2016-04-29T14:28:52Z</time>
      </trkpt>
      <trkpt lat="44.89741" lon="5.47299">
        <ele>1480.57</ele>
        <time>2016-04-29T14:29:04Z</time>
      </trkpt>
      <trkpt lat="44.89741" lon="5.47351">
        <ele>1481.53</ele>
        <time>2016-04-29T14:29:16Z</time>
      </trkpt>
      <trkpt lat="44.89736" lon="5.47413">
        <ele>1482.97</ele>
        <time>2016-04-29T14:29:31Z</time>
      </trkpt>
      <trkpt lat="44.89714" lon="5.4745">
        <ele>1484.89</ele>
        <time>2016-04-29T14:29:44Z</time>
      </trkpt>
      <trkpt lat="44.89689" lon="5.47496">
        <ele>1486.82</ele>
        <time>2016-04-29T14:30:01Z</time>
      </trkpt>
      <trkpt lat="44.89675" lon="5.47536">
        <ele>1488.74</ele>
        <time>2016-04-29T14:30:15Z</time>
      </trkpt>
      <trkpt lat="44.89671" lon="5.47539">
        <ele>1489.22</ele>
        <time>2016-04-29T14:30:17Z</time>
      </trkpt>
      <trkpt lat="44.89638" lon="5.47525">
        <ele>1491.14</ele>
        <time>2016-04-29T14:30:34Z</time>
      </trkpt>
      <trkpt lat="44.89634" lon="5.47488">
        <ele>1492.1</ele>
        <time>2016-04-29T14:30:47Z</time>
      </trkpt>
      <trkpt lat="44.89611" lon="5.47457">
        <ele>1494.51</ele>
        <time>2016-04-29T14:31:03Z</time>
      </trkpt>
      <trkpt lat="44.89587" lon="5.47429">
        <ele>1496.91</ele>
        <time>2016-04-29T14:31:19Z</time>
      </trkpt>
      <trkpt lat="44.89558" lon="5.47409">
        <ele>1498.35</ele>
        <time>2016-04-29T14:31:35Z</time>
      </trkpt>
      <trkpt lat="44.89532" lon="5.47415">
        <ele>1500.27</ele>
        <time>2016-04-29T14:31:50Z</time>
      </trkpt>
      <trkpt lat="44.89519" lon="5.47423">
        <ele>1501.72</ele>
        <time>2016-04-29T14:31:58Z</time>
      </trkpt>
      <trkpt lat="44.89512" lon="5.47428">
        <ele>1502.2</ele>
        <time>2016-04-29T14:32:03Z</time>
      </trkpt>
      <trkpt lat="44.89496" lon="5.47458">
        <ele>1505.08</ele>
        <time>2016-04-29T14:32:20Z</time>
      </trkpt>
      <trkpt lat="44.89481" lon="5.47489">
        <ele>1507</ele>
        <time>2016-04-29T14:32:36Z</time>
      </trkpt>
      <trkpt lat="44.89466" lon="5.47518">
        <ele>1510.37</ele>
        <time>2016-04-29T14:32:52Z</time>
      </trkpt>
      <trkpt lat="44.89458" lon="5.47523">
        <ele>1510.85</ele>
        <time>2016-04-29T14:32:57Z</time>
      </trkpt>
      <trkpt lat="44.89431" lon="5.47514">
        <ele>1511.81</ele>
        <time>2016-04-29T14:33:11Z</time>
      </trkpt>
      <trkpt lat="44.894" lon="5.47511">
        <ele>1513.73</ele>
        <time>2016-04-29T14:33:26Z</time>
      </trkpt>
      <trkpt lat="44.89386" lon="5.47468">
        <ele>1514.21</ele>
        <time>2016-04-29T14:33:41Z</time>
      </trkpt>
      <trkpt lat="44.89376" lon="5.47413">
        <ele>1515.18</ele>
        <time>2016-04-29T14:33:54Z</time>
      </trkpt>
      <trkpt lat="44.89372" lon="5.47371">
        <ele>1514.69</ele>
        <time>2016-04-29T14:34:05Z</time>
      </trkpt>
      <trkpt lat="44.89363" lon="5.47317">
        <ele>1512.77</ele>
        <time>2016-04-29T14:34:18Z</time>
      </trkpt>
      <trkpt lat="44.89362" lon="5.47299">
        <ele>1511.81</ele>
        <time>2016-04-29T14:34:21Z</time>
      </trkpt>
      <trkpt lat="44.89362" lon="5.47293">
        <ele>1511.81</ele>
        <time>2016-04-29T14:34:22Z</time>
      </trkpt>
      <trkpt lat="44.89361" lon="5.47244">
        <ele>1509.41</ele>
        <time>2016-04-29T14:34:28Z</time>
      </trkpt>
      <trkpt lat="44.89361" lon="5.47236">
        <ele>1509.41</ele>
        <time>2016-04-29T14:34:29Z</time>
      </trkpt>
      <trkpt lat="44.89361" lon="5.47228">
        <ele>1508.93</ele>
        <time>2016-04-29T14:34:30Z</time>
      </trkpt>
      <trkpt lat="44.89374" lon="5.4713">
        <ele>1507</ele>
        <time>2016-04-29T14:34:42Z</time>
      </trkpt>
      <trkpt lat="44.89375" lon="5.47121">
        <ele>1507</ele>
        <time>2016-04-29T14:34:43Z</time>
      </trkpt>
      <trkpt lat="44.89376" lon="5.47086">
        <ele>1505.56</ele>
        <time>2016-04-29T14:34:47Z</time>
      </trkpt>
      <trkpt lat="44.89379" lon="5.47053">
        <ele>1505.08</ele>
        <time>2016-04-29T14:34:51Z</time>
      </trkpt>
      <trkpt lat="44.89379" lon="5.47045">
        <ele>1505.08</ele>
        <time>2016-04-29T14:34:52Z</time>
      </trkpt>
      <trkpt lat="44.89377" lon="5.47037">
        <ele>1505.08</ele>
        <time>2016-04-29T14:34:53Z</time>
      </trkpt>
      <trkpt lat="44.89374" lon="5.47029">
        <ele>1504.6</ele>
        <time>2016-04-29T14:34:54Z</time>
      </trkpt>
      <trkpt lat="44.89371" lon="5.47022">
        <ele>1504.6</ele>
        <time>2016-04-29T14:34:55Z</time>
      </trkpt>
      <trkpt lat="44.89361" lon="5.47002">
        <ele>1503.64</ele>
        <time>2016-04-29T14:34:58Z</time>
      </trkpt>
      <trkpt lat="44.89359" lon="5.46995">
        <ele>1503.64</ele>
        <time>2016-04-29T14:34:59Z</time>
      </trkpt>
      <trkpt lat="44.89355" lon="5.46979">
        <ele>1502.68</ele>
        <time>2016-04-29T14:35:01Z</time>
      </trkpt>
      <trkpt lat="44.89352" lon="5.46963">
        <ele>1502.68</ele>
        <time>2016-04-29T14:35:03Z</time>
      </trkpt>
      <trkpt lat="44.8935" lon="5.46956">
        <ele>1502.68</ele>
        <time>2016-04-29T14:35:04Z</time>
      </trkpt>
      <trkpt lat="44.89347" lon="5.46948">
        <ele>1502.68</ele>
        <time>2016-04-29T14:35:05Z</time>
      </trkpt>
      <trkpt lat="44.89341" lon="5.46935">
        <ele>1502.2</ele>
        <time>2016-04-29T14:35:07Z</time>
      </trkpt>
      <trkpt lat="44.89336" lon="5.4693">
        <ele>1502.2</ele>
        <time>2016-04-29T14:35:08Z</time>
      </trkpt>
      <trkpt lat="44.89331" lon="5.46928">
        <ele>1501.72</ele>
        <time>2016-04-29T14:35:09Z</time>
      </trkpt>
      <trkpt lat="44.89327" lon="5.46929">
        <ele>1501.72</ele>
        <time>2016-04-29T14:35:10Z</time>
      </trkpt>
      <trkpt lat="44.89324" lon="5.46932">
        <ele>1501.72</ele>
        <time>2016-04-29T14:35:11Z</time>
      </trkpt>
      <trkpt lat="44.89321" lon="5.46936">
        <ele>1502.2</ele>
        <time>2016-04-29T14:35:12Z</time>
      </trkpt>
      <trkpt lat="44.89306" lon="5.46964">
        <ele>1502.2</ele>
        <time>2016-04-29T14:35:19Z</time>
      </trkpt>
      <trkpt lat="44.89304" lon="5.4697">
        <ele>1502.2</ele>
        <time>2016-04-29T14:35:20Z</time>
      </trkpt>
      <trkpt lat="44.89302" lon="5.46975">
        <ele>1502.2</ele>
        <time>2016-04-29T14:35:21Z</time>
      </trkpt>
      <trkpt lat="44.89296" lon="5.46986">
        <ele>1502.2</ele>
        <time>2016-04-29T14:35:23Z</time>
      </trkpt>
      <trkpt lat="44.89293" lon="5.46989">
        <ele>1502.2</ele>
        <time>2016-04-29T14:35:24Z</time>
      </trkpt>
      <trkpt lat="44.8929" lon="5.46991">
        <ele>1502.2</ele>
        <time>2016-04-29T14:35:25Z</time>
      </trkpt>
      <trkpt lat="44.89257" lon="5.47008">
        <ele>1501.72</ele>
        <time>2016-04-29T14:35:38Z</time>
      </trkpt>
      <trkpt lat="44.8923" lon="5.47011">
        <ele>1501.72</ele>
        <time>2016-04-29T14:35:50Z</time>
      </trkpt>
      <trkpt lat="44.89208" lon="5.46986">
        <ele>1501.72</ele>
        <time>2016-04-29T14:36:01Z</time>
      </trkpt>
      <trkpt lat="44.89198" lon="5.46942">
        <ele>1502.2</ele>
        <time>2016-04-29T14:36:13Z</time>
      </trkpt>
      <trkpt lat="44.89193" lon="5.46885">
        <ele>1502.2</ele>
        <time>2016-04-29T14:36:24Z</time>
      </trkpt>
      <trkpt lat="44.8918" lon="5.46848">
        <ele>1502.2</ele>
        <time>2016-04-29T14:36:32Z</time>
      </trkpt>
      <trkpt lat="44.89176" lon="5.46845">
        <ele>1501.72</ele>
        <time>2016-04-29T14:36:33Z</time>
      </trkpt>
      <trkpt lat="44.89172" lon="5.46842">
        <ele>1501.72</ele>
        <time>2016-04-29T14:36:34Z</time>
      </trkpt>
      <trkpt lat="44.89168" lon="5.4684">
        <ele>1502.2</ele>
        <time>2016-04-29T14:36:35Z</time>
      </trkpt>
      <trkpt lat="44.89164" lon="5.46839">
        <ele>1502.2</ele>
        <time>2016-04-29T14:36:36Z</time>
      </trkpt>
      <trkpt lat="44.8916" lon="5.46839">
        <ele>1502.2</ele>
        <time>2016-04-29T14:36:37Z</time>
      </trkpt>
      <trkpt lat="44.89156" lon="5.4684">
        <ele>1502.2</ele>
        <time>2016-04-29T14:36:38Z</time>
      </trkpt>
      <trkpt lat="44.89126" lon="5.46835">
        <ele>1502.2</ele>
        <time>2016-04-29T14:36:46Z</time>
      </trkpt>
      <trkpt lat="44.89123" lon="5.4683">
        <ele>1502.2</ele>
        <time>2016-04-29T14:36:47Z</time>
      </trkpt>
      <trkpt lat="44.89121" lon="5.46825">
        <ele>1502.2</ele>
        <time>2016-04-29T14:36:48Z</time>
      </trkpt>
      <trkpt lat="44.89119" lon="5.4682">
        <ele>1502.2</ele>
        <time>2016-04-29T14:36:49Z</time>
      </trkpt>
      <trkpt lat="44.89118" lon="5.46815">
        <ele>1502.2</ele>
        <time>2016-04-29T14:36:50Z</time>
      </trkpt>
      <trkpt lat="44.89116" lon="5.4681">
        <ele>1501.72</ele>
        <time>2016-04-29T14:36:51Z</time>
      </trkpt>
      <trkpt lat="44.89115" lon="5.46805">
        <ele>1501.72</ele>
        <time>2016-04-29T14:36:52Z</time>
      </trkpt>
      <trkpt lat="44.8909" lon="5.46769">
        <ele>1502.2</ele>
        <time>2016-04-29T14:37:02Z</time>
      </trkpt>
      <trkpt lat="44.89072" lon="5.46727">
        <ele>1501.72</ele>
        <time>2016-04-29T14:37:13Z</time>
      </trkpt>
      <trkpt lat="44.89052" lon="5.46662">
        <ele>1501.72</ele>
        <time>2016-04-29T14:37:27Z</time>
      </trkpt>
      <trkpt lat="44.8903" lon="5.466">
        <ele>1501.72</ele>
        <time>2016-04-29T14:37:39Z</time>
      </trkpt>
      <trkpt lat="44.89024" lon="5.46593">
        <ele>1501.72</ele>
        <time>2016-04-29T14:37:41Z</time>
      </trkpt>
      <trkpt lat="44.88993" lon="5.46554">
        <ele>1501.72</ele>
        <time>2016-04-29T14:37:52Z</time>
      </trkpt>
      <trkpt lat="44.88965" lon="5.46499">
        <ele>1501.72</ele>
        <time>2016-04-29T14:38:04Z</time>
      </trkpt>
      <trkpt lat="44.88962" lon="5.46495">
        <ele>1502.2</ele>
        <time>2016-04-29T14:38:05Z</time>
      </trkpt>
      <trkpt lat="44.88959" lon="5.46491">
        <ele>1501.72</ele>
        <time>2016-04-29T14:38:06Z</time>
      </trkpt>
      <trkpt lat="44.88956" lon="5.46488">
        <ele>1501.72</ele>
        <time>2016-04-29T14:38:07Z</time>
      </trkpt>
      <trkpt lat="44.88954" lon="5.46486">
        <ele>1501.72</ele>
        <time>2016-04-29T14:38:08Z</time>
      </trkpt>
      <trkpt lat="44.88951" lon="5.46483">
        <ele>1502.2</ele>
        <time>2016-04-29T14:38:09Z</time>
      </trkpt>
      <trkpt lat="44.88949" lon="5.46479">
        <ele>1502.68</ele>
        <time>2016-04-29T14:38:10Z</time>
      </trkpt>
      <trkpt lat="44.88948" lon="5.46475">
        <ele>1502.68</ele>
        <time>2016-04-29T14:38:11Z</time>
      </trkpt>
      <trkpt lat="44.88946" lon="5.4647">
        <ele>1502.2</ele>
        <time>2016-04-29T14:38:12Z</time>
      </trkpt>
      <trkpt lat="44.88945" lon="5.46465">
        <ele>1502.68</ele>
        <time>2016-04-29T14:38:13Z</time>
      </trkpt>
      <trkpt lat="44.88945" lon="5.4646">
        <ele>1502.68</ele>
        <time>2016-04-29T14:38:14Z</time>
      </trkpt>
      <trkpt lat="44.88944" lon="5.46456">
        <ele>1502.68</ele>
        <time>2016-04-29T14:38:15Z</time>
      </trkpt>
      <trkpt lat="44.88932" lon="5.46417">
        <ele>1502.68</ele>
        <time>2016-04-29T14:38:23Z</time>
      </trkpt>
      <trkpt lat="44.88928" lon="5.46414">
        <ele>1502.68</ele>
        <time>2016-04-29T14:38:24Z</time>
      </trkpt>
      <trkpt lat="44.88925" lon="5.46414">
        <ele>1502.68</ele>
        <time>2016-04-29T14:38:25Z</time>
      </trkpt>
      <trkpt lat="44.88921" lon="5.46413">
        <ele>1502.68</ele>
        <time>2016-04-29T14:38:26Z</time>
      </trkpt>
      <trkpt lat="44.88918" lon="5.46413">
        <ele>1502.68</ele>
        <time>2016-04-29T14:38:27Z</time>
      </trkpt>
      <trkpt lat="44.88914" lon="5.46413">
        <ele>1502.68</ele>
        <time>2016-04-29T14:38:28Z</time>
      </trkpt>
      <trkpt lat="44.88885" lon="5.46391">
        <ele>1503.64</ele>
        <time>2016-04-29T14:38:39Z</time>
      </trkpt>
      <trkpt lat="44.88874" lon="5.46349">
        <ele>1505.56</ele>
        <time>2016-04-29T14:38:53Z</time>
      </trkpt>
      <trkpt lat="44.88874" lon="5.46312">
        <ele>1508.45</ele>
        <time>2016-04-29T14:39:07Z</time>
      </trkpt>
      <trkpt lat="44.88877" lon="5.46289">
        <ele>1509.41</ele>
        <time>2016-04-29T14:39:15Z</time>
      </trkpt>
      <trkpt lat="44.88867" lon="5.46256">
        <ele>1511.81</ele>
        <time>2016-04-29T14:39:28Z</time>
      </trkpt>
      <trkpt lat="44.88868" lon="5.46223">
        <ele>1512.77</ele>
        <time>2016-04-29T14:39:39Z</time>
      </trkpt>
      <trkpt lat="44.8889" lon="5.46186">
        <ele>1511.81</ele>
        <time>2016-04-29T14:39:51Z</time>
      </trkpt>
      <trkpt lat="44.88892" lon="5.46182">
        <ele>1511.81</ele>
        <time>2016-04-29T14:39:52Z</time>
      </trkpt>
      <trkpt lat="44.88893" lon="5.46176">
        <ele>1511.33</ele>
        <time>2016-04-29T14:39:53Z</time>
      </trkpt>
      <trkpt lat="44.88894" lon="5.4617">
        <ele>1510.85</ele>
        <time>2016-04-29T14:39:54Z</time>
      </trkpt>
      <trkpt lat="44.88894" lon="5.46164">
        <ele>1510.85</ele>
        <time>2016-04-29T14:39:55Z</time>
      </trkpt>
      <trkpt lat="44.88895" lon="5.46159">
        <ele>1510.85</ele>
        <time>2016-04-29T14:39:56Z</time>
      </trkpt>
      <trkpt lat="44.88895" lon="5.46153">
        <ele>1510.37</ele>
        <time>2016-04-29T14:39:57Z</time>
      </trkpt>
      <trkpt lat="44.88895" lon="5.46147">
        <ele>1510.37</ele>
        <time>2016-04-29T14:39:58Z</time>
      </trkpt>
      <trkpt lat="44.88891" lon="5.46128">
        <ele>1509.89</ele>
        <time>2016-04-29T14:40:01Z</time>
      </trkpt>
      <trkpt lat="44.8889" lon="5.46121">
        <ele>1509.41</ele>
        <time>2016-04-29T14:40:02Z</time>
      </trkpt>
      <trkpt lat="44.88889" lon="5.46107">
        <ele>1509.41</ele>
        <time>2016-04-29T14:40:04Z</time>
      </trkpt>
      <trkpt lat="44.8889" lon="5.46101">
        <ele>1509.41</ele>
        <time>2016-04-29T14:40:05Z</time>
      </trkpt>
      <trkpt lat="44.88893" lon="5.46095">
        <ele>1508.93</ele>
        <time>2016-04-29T14:40:06Z</time>
      </trkpt>
      <trkpt lat="44.88898" lon="5.46084">
        <ele>1508.45</ele>
        <time>2016-04-29T14:40:08Z</time>
      </trkpt>
      <trkpt lat="44.88907" lon="5.46069">
        <ele>1507.97</ele>
        <time>2016-04-29T14:40:11Z</time>
      </trkpt>
      <trkpt lat="44.8894" lon="5.46019">
        <ele>1505.56</ele>
        <time>2016-04-29T14:40:20Z</time>
      </trkpt>
      <trkpt lat="44.88944" lon="5.46011">
        <ele>1505.08</ele>
        <time>2016-04-29T14:40:21Z</time>
      </trkpt>
      <trkpt lat="44.88946" lon="5.46003">
        <ele>1504.6</ele>
        <time>2016-04-29T14:40:22Z</time>
      </trkpt>
      <trkpt lat="44.88948" lon="5.45994">
        <ele>1504.12</ele>
        <time>2016-04-29T14:40:23Z</time>
      </trkpt>
      <trkpt lat="44.88949" lon="5.45985">
        <ele>1503.64</ele>
        <time>2016-04-29T14:40:24Z</time>
      </trkpt>
      <trkpt lat="44.88948" lon="5.45974">
        <ele>1502.68</ele>
        <time>2016-04-29T14:40:25Z</time>
      </trkpt>
      <trkpt lat="44.88948" lon="5.45964">
        <ele>1501.72</ele>
        <time>2016-04-29T14:40:26Z</time>
      </trkpt>
      <trkpt lat="44.88948" lon="5.45953">
        <ele>1501.24</ele>
        <time>2016-04-29T14:40:27Z</time>
      </trkpt>
      <trkpt lat="44.88951" lon="5.45943">
        <ele>1500.76</ele>
        <time>2016-04-29T14:40:28Z</time>
      </trkpt>
      <trkpt lat="44.88955" lon="5.45934">
        <ele>1499.79</ele>
        <time>2016-04-29T14:40:29Z</time>
      </trkpt>
      <trkpt lat="44.88959" lon="5.45925">
        <ele>1499.79</ele>
        <time>2016-04-29T14:40:30Z</time>
      </trkpt>
      <trkpt lat="44.88961" lon="5.45914">
        <ele>1499.79</ele>
        <time>2016-04-29T14:40:31Z</time>
      </trkpt>
      <trkpt lat="44.88963" lon="5.45903">
        <ele>1499.31</ele>
        <time>2016-04-29T14:40:32Z</time>
      </trkpt>
      <trkpt lat="44.88964" lon="5.45891">
        <ele>1498.35</ele>
        <time>2016-04-29T14:40:33Z</time>
      </trkpt>
      <trkpt lat="44.88964" lon="5.45879">
        <ele>1497.39</ele>
        <time>2016-04-29T14:40:34Z</time>
      </trkpt>
      <trkpt lat="44.88966" lon="5.45855">
        <ele>1495.95</ele>
        <time>2016-04-29T14:40:36Z</time>
      </trkpt>
      <trkpt lat="44.88968" lon="5.45844">
        <ele>1495.47</ele>
        <time>2016-04-29T14:40:37Z</time>
      </trkpt>
      <trkpt lat="44.8897" lon="5.45833">
        <ele>1494.51</ele>
        <time>2016-04-29T14:40:38Z</time>
      </trkpt>
      <trkpt lat="44.88973" lon="5.45822">
        <ele>1493.06</ele>
        <time>2016-04-29T14:40:39Z</time>
      </trkpt>
      <trkpt lat="44.88978" lon="5.45812">
        <ele>1492.1</ele>
        <time>2016-04-29T14:40:40Z</time>
      </trkpt>
      <trkpt lat="44.88985" lon="5.45804">
        <ele>1491.14</ele>
        <time>2016-04-29T14:40:41Z</time>
      </trkpt>
      <trkpt lat="44.88993" lon="5.45799">
        <ele>1491.14</ele>
        <time>2016-04-29T14:40:42Z</time>
      </trkpt>
      <trkpt lat="44.89" lon="5.45796">
        <ele>1490.18</ele>
        <time>2016-04-29T14:40:43Z</time>
      </trkpt>
      <trkpt lat="44.89007" lon="5.45793">
        <ele>1489.22</ele>
        <time>2016-04-29T14:40:44Z</time>
      </trkpt>
      <trkpt lat="44.89015" lon="5.45787">
        <ele>1487.78</ele>
        <time>2016-04-29T14:40:45Z</time>
      </trkpt>
      <trkpt lat="44.89021" lon="5.45779">
        <ele>1487.3</ele>
        <time>2016-04-29T14:40:46Z</time>
      </trkpt>
      <trkpt lat="44.89025" lon="5.4577">
        <ele>1486.82</ele>
        <time>2016-04-29T14:40:47Z</time>
      </trkpt>
      <trkpt lat="44.89029" lon="5.4576">
        <ele>1486.34</ele>
        <time>2016-04-29T14:40:48Z</time>
      </trkpt>
      <trkpt lat="44.89032" lon="5.4575">
        <ele>1485.85</ele>
        <time>2016-04-29T14:40:49Z</time>
      </trkpt>
      <trkpt lat="44.89033" lon="5.4574">
        <ele>1485.85</ele>
        <time>2016-04-29T14:40:50Z</time>
      </trkpt>
      <trkpt lat="44.89035" lon="5.45731">
        <ele>1486.34</ele>
        <time>2016-04-29T14:40:51Z</time>
      </trkpt>
      <trkpt lat="44.89036" lon="5.45723">
        <ele>1486.34</ele>
        <time>2016-04-29T14:40:52Z</time>
      </trkpt>
      <trkpt lat="44.89038" lon="5.45715">
        <ele>1486.82</ele>
        <time>2016-04-29T14:40:53Z</time>
      </trkpt>
      <trkpt lat="44.89042" lon="5.45709">
        <ele>1487.3</ele>
        <time>2016-04-29T14:40:54Z</time>
      </trkpt>
      <trkpt lat="44.89046" lon="5.45704">
        <ele>1487.3</ele>
        <time>2016-04-29T14:40:55Z</time>
      </trkpt>
      <trkpt lat="44.89051" lon="5.45701">
        <ele>1487.78</ele>
        <time>2016-04-29T14:40:56Z</time>
      </trkpt>
      <trkpt lat="44.89054" lon="5.45696">
        <ele>1487.3</ele>
        <time>2016-04-29T14:40:57Z</time>
      </trkpt>
      <trkpt lat="44.8906" lon="5.45686">
        <ele>1487.3</ele>
        <time>2016-04-29T14:40:59Z</time>
      </trkpt>
      <trkpt lat="44.89062" lon="5.4568">
        <ele>1487.3</ele>
        <time>2016-04-29T14:41:00Z</time>
      </trkpt>
      <trkpt lat="44.89062" lon="5.45673">
        <ele>1487.3</ele>
        <time>2016-04-29T14:41:01Z</time>
      </trkpt>
      <trkpt lat="44.89061" lon="5.45666">
        <ele>1487.3</ele>
        <time>2016-04-29T14:41:02Z</time>
      </trkpt>
      <trkpt lat="44.8906" lon="5.45659">
        <ele>1486.82</ele>
        <time>2016-04-29T14:41:03Z</time>
      </trkpt>
      <trkpt lat="44.89059" lon="5.45651">
        <ele>1486.34</ele>
        <time>2016-04-29T14:41:04Z</time>
      </trkpt>
      <trkpt lat="44.8906" lon="5.45642">
        <ele>1485.85</ele>
        <time>2016-04-29T14:41:05Z</time>
      </trkpt>
      <trkpt lat="44.89062" lon="5.45634">
        <ele>1483.93</ele>
        <time>2016-04-29T14:41:06Z</time>
      </trkpt>
      <trkpt lat="44.89067" lon="5.45629">
        <ele>1483.93</ele>
        <time>2016-04-29T14:41:07Z</time>
      </trkpt>
      <trkpt lat="44.89073" lon="5.45624">
        <ele>1482.49</ele>
        <time>2016-04-29T14:41:08Z</time>
      </trkpt>
      <trkpt lat="44.89078" lon="5.45616">
        <ele>1481.05</ele>
        <time>2016-04-29T14:41:09Z</time>
      </trkpt>
      <trkpt lat="44.8908" lon="5.45605">
        <ele>1480.09</ele>
        <time>2016-04-29T14:41:10Z</time>
      </trkpt>
      <trkpt lat="44.89079" lon="5.45593">
        <ele>1479.13</ele>
        <time>2016-04-29T14:41:11Z</time>
      </trkpt>
      <trkpt lat="44.89076" lon="5.45582">
        <ele>1478.16</ele>
        <time>2016-04-29T14:41:12Z</time>
      </trkpt>
      <trkpt lat="44.89071" lon="5.45572">
        <ele>1477.2</ele>
        <time>2016-04-29T14:41:13Z</time>
      </trkpt>
      <trkpt lat="44.89067" lon="5.45562">
        <ele>1476.24</ele>
        <time>2016-04-29T14:41:14Z</time>
      </trkpt>
      <trkpt lat="44.89067" lon="5.4555">
        <ele>1474.8</ele>
        <time>2016-04-29T14:41:15Z</time>
      </trkpt>
      <trkpt lat="44.89067" lon="5.45537">
        <ele>1473.84</ele>
        <time>2016-04-29T14:41:16Z</time>
      </trkpt>
      <trkpt lat="44.89069" lon="5.45524">
        <ele>1472.88</ele>
        <time>2016-04-29T14:41:17Z</time>
      </trkpt>
      <trkpt lat="44.89071" lon="5.45511">
        <ele>1471.92</ele>
        <time>2016-04-29T14:41:18Z</time>
      </trkpt>
      <trkpt lat="44.89078" lon="5.45473">
        <ele>1469.51</ele>
        <time>2016-04-29T14:41:21Z</time>
      </trkpt>
      <trkpt lat="44.89076" lon="5.45464">
        <ele>1469.03</ele>
        <time>2016-04-29T14:41:22Z</time>
      </trkpt>
      <trkpt lat="44.89071" lon="5.45456">
        <ele>1468.55</ele>
        <time>2016-04-29T14:41:23Z</time>
      </trkpt>
      <trkpt lat="44.89064" lon="5.45452">
        <ele>1468.07</ele>
        <time>2016-04-29T14:41:24Z</time>
      </trkpt>
      <trkpt lat="44.89057" lon="5.45453">
        <ele>1468.07</ele>
        <time>2016-04-29T14:41:25Z</time>
      </trkpt>
      <trkpt lat="44.8905" lon="5.45457">
        <ele>1467.59</ele>
        <time>2016-04-29T14:41:26Z</time>
      </trkpt>
      <trkpt lat="44.89043" lon="5.45466">
        <ele>1467.11</ele>
        <time>2016-04-29T14:41:27Z</time>
      </trkpt>
      <trkpt lat="44.89036" lon="5.45474">
        <ele>1466.63</ele>
        <time>2016-04-29T14:41:28Z</time>
      </trkpt>
      <trkpt lat="44.8903" lon="5.45484">
        <ele>1465.67</ele>
        <time>2016-04-29T14:41:29Z</time>
      </trkpt>
      <trkpt lat="44.89023" lon="5.45494">
        <ele>1464.71</ele>
        <time>2016-04-29T14:41:30Z</time>
      </trkpt>
      <trkpt lat="44.89016" lon="5.45503">
        <ele>1463.26</ele>
        <time>2016-04-29T14:41:31Z</time>
      </trkpt>
      <trkpt lat="44.89007" lon="5.45509">
        <ele>1461.34</ele>
        <time>2016-04-29T14:41:32Z</time>
      </trkpt>
      <trkpt lat="44.88997" lon="5.45511">
        <ele>1461.34</ele>
        <time>2016-04-29T14:41:33Z</time>
      </trkpt>
      <trkpt lat="44.88988" lon="5.45511">
        <ele>1460.38</ele>
        <time>2016-04-29T14:41:34Z</time>
      </trkpt>
      <trkpt lat="44.88978" lon="5.4551">
        <ele>1459.9</ele>
        <time>2016-04-29T14:41:35Z</time>
      </trkpt>
      <trkpt lat="44.88969" lon="5.45508">
        <ele>1459.42</ele>
        <time>2016-04-29T14:41:36Z</time>
      </trkpt>
      <trkpt lat="44.88946" lon="5.45507">
        <ele>1460.38</ele>
        <time>2016-04-29T14:41:39Z</time>
      </trkpt>
      <trkpt lat="44.88939" lon="5.45509">
        <ele>1460.86</ele>
        <time>2016-04-29T14:41:40Z</time>
      </trkpt>
      <trkpt lat="44.88933" lon="5.45512">
        <ele>1460.86</ele>
        <time>2016-04-29T14:41:41Z</time>
      </trkpt>
      <trkpt lat="44.88915" lon="5.45521">
        <ele>1460.86</ele>
        <time>2016-04-29T14:41:44Z</time>
      </trkpt>
      <trkpt lat="44.88909" lon="5.45522">
        <ele>1460.38</ele>
        <time>2016-04-29T14:41:45Z</time>
      </trkpt>
      <trkpt lat="44.88902" lon="5.45521">
        <ele>1459.9</ele>
        <time>2016-04-29T14:41:46Z</time>
      </trkpt>
      <trkpt lat="44.88889" lon="5.45517">
        <ele>1459.42</ele>
        <time>2016-04-29T14:41:48Z</time>
      </trkpt>
      <trkpt lat="44.88882" lon="5.45513">
        <ele>1458.94</ele>
        <time>2016-04-29T14:41:49Z</time>
      </trkpt>
      <trkpt lat="44.88876" lon="5.45508">
        <ele>1457.98</ele>
        <time>2016-04-29T14:41:50Z</time>
      </trkpt>
      <trkpt lat="44.88842" lon="5.45461">
        <ele>1453.65</ele>
        <time>2016-04-29T14:41:56Z</time>
      </trkpt>
      <trkpt lat="44.88838" lon="5.45449">
        <ele>1453.17</ele>
        <time>2016-04-29T14:41:57Z</time>
      </trkpt>
      <trkpt lat="44.8882" lon="5.4539">
        <ele>1449.32</ele>
        <time>2016-04-29T14:42:02Z</time>
      </trkpt>
      <trkpt lat="44.88814" lon="5.4537">
        <ele>1448.84</ele>
        <time>2016-04-29T14:42:04Z</time>
      </trkpt>
      <trkpt lat="44.88814" lon="5.45362">
        <ele>1448.84</ele>
        <time>2016-04-29T14:42:05Z</time>
      </trkpt>
      <trkpt lat="44.88816" lon="5.45356">
        <ele>1448.84</ele>
        <time>2016-04-29T14:42:06Z</time>
      </trkpt>
      <trkpt lat="44.88819" lon="5.45354">
        <ele>1448.36</ele>
        <time>2016-04-29T14:42:07Z</time>
      </trkpt>
      <trkpt lat="44.88823" lon="5.45355">
        <ele>1447.88</ele>
        <time>2016-04-29T14:42:08Z</time>
      </trkpt>
      <trkpt lat="44.88827" lon="5.4536">
        <ele>1447.4</ele>
        <time>2016-04-29T14:42:09Z</time>
      </trkpt>
      <trkpt lat="44.8883" lon="5.45367">
        <ele>1446.92</ele>
        <time>2016-04-29T14:42:10Z</time>
      </trkpt>
      <trkpt lat="44.88834" lon="5.45374">
        <ele>1446.44</ele>
        <time>2016-04-29T14:42:11Z</time>
      </trkpt>
      <trkpt lat="44.88838" lon="5.45381">
        <ele>1445.96</ele>
        <time>2016-04-29T14:42:12Z</time>
      </trkpt>
      <trkpt lat="44.88866" lon="5.45417">
        <ele>1443.08</ele>
        <time>2016-04-29T14:42:17Z</time>
      </trkpt>
      <trkpt lat="44.88873" lon="5.45423">
        <ele>1442.11</ele>
        <time>2016-04-29T14:42:18Z</time>
      </trkpt>
      <trkpt lat="44.8888" lon="5.45428">
        <ele>1441.63</ele>
        <time>2016-04-29T14:42:19Z</time>
      </trkpt>
      <trkpt lat="44.88887" lon="5.45432">
        <ele>1440.67</ele>
        <time>2016-04-29T14:42:20Z</time>
      </trkpt>
      <trkpt lat="44.88895" lon="5.45433">
        <ele>1439.71</ele>
        <time>2016-04-29T14:42:21Z</time>
      </trkpt>
      <trkpt lat="44.88903" lon="5.45431">
        <ele>1438.75</ele>
        <time>2016-04-29T14:42:22Z</time>
      </trkpt>
      <trkpt lat="44.88911" lon="5.45427">
        <ele>1438.27</ele>
        <time>2016-04-29T14:42:23Z</time>
      </trkpt>
      <trkpt lat="44.88917" lon="5.45421">
        <ele>1437.79</ele>
        <time>2016-04-29T14:42:24Z</time>
      </trkpt>
      <trkpt lat="44.88924" lon="5.45413">
        <ele>1437.31</ele>
        <time>2016-04-29T14:42:25Z</time>
      </trkpt>
      <trkpt lat="44.88928" lon="5.45403">
        <ele>1436.35</ele>
        <time>2016-04-29T14:42:26Z</time>
      </trkpt>
      <trkpt lat="44.8893" lon="5.4539">
        <ele>1435.39</ele>
        <time>2016-04-29T14:42:27Z</time>
      </trkpt>
      <trkpt lat="44.88931" lon="5.45377">
        <ele>1435.39</ele>
        <time>2016-04-29T14:42:28Z</time>
      </trkpt>
      <trkpt lat="44.88931" lon="5.45339">
        <ele>1433.46</ele>
        <time>2016-04-29T14:42:31Z</time>
      </trkpt>
      <trkpt lat="44.88934" lon="5.45327">
        <ele>1432.5</ele>
        <time>2016-04-29T14:42:32Z</time>
      </trkpt>
      <trkpt lat="44.8894" lon="5.45318">
        <ele>1431.54</ele>
        <time>2016-04-29T14:42:33Z</time>
      </trkpt>
      <trkpt lat="44.88947" lon="5.4531">
        <ele>1430.58</ele>
        <time>2016-04-29T14:42:34Z</time>
      </trkpt>
      <trkpt lat="44.88953" lon="5.453">
        <ele>1429.14</ele>
        <time>2016-04-29T14:42:35Z</time>
      </trkpt>
      <trkpt lat="44.88957" lon="5.45289">
        <ele>1428.66</ele>
        <time>2016-04-29T14:42:36Z</time>
      </trkpt>
      <trkpt lat="44.8896" lon="5.45276">
        <ele>1428.66</ele>
        <time>2016-04-29T14:42:37Z</time>
      </trkpt>
      <trkpt lat="44.88961" lon="5.45264">
        <ele>1428.18</ele>
        <time>2016-04-29T14:42:38Z</time>
      </trkpt>
      <trkpt lat="44.88962" lon="5.45251">
        <ele>1427.7</ele>
        <time>2016-04-29T14:42:39Z</time>
      </trkpt>
      <trkpt lat="44.88963" lon="5.45238">
        <ele>1427.7</ele>
        <time>2016-04-29T14:42:40Z</time>
      </trkpt>
      <trkpt lat="44.88966" lon="5.4521">
        <ele>1426.25</ele>
        <time>2016-04-29T14:42:42Z</time>
      </trkpt>
      <trkpt lat="44.88968" lon="5.45196">
        <ele>1425.29</ele>
        <time>2016-04-29T14:42:43Z</time>
      </trkpt>
      <trkpt lat="44.88969" lon="5.45182">
        <ele>1422.89</ele>
        <time>2016-04-29T14:42:44Z</time>
      </trkpt>
      <trkpt lat="44.88969" lon="5.45167">
        <ele>1421.93</ele>
        <time>2016-04-29T14:42:45Z</time>
      </trkpt>
      <trkpt lat="44.88969" lon="5.45153">
        <ele>1420.97</ele>
        <time>2016-04-29T14:42:46Z</time>
      </trkpt>
      <trkpt lat="44.88969" lon="5.45139">
        <ele>1420.97</ele>
        <time>2016-04-29T14:42:47Z</time>
      </trkpt>
      <trkpt lat="44.8897" lon="5.45126">
        <ele>1420.49</ele>
        <time>2016-04-29T14:42:48Z</time>
      </trkpt>
      <trkpt lat="44.88971" lon="5.45115">
        <ele>1420</ele>
        <time>2016-04-29T14:42:49Z</time>
      </trkpt>
      <trkpt lat="44.88974" lon="5.45094">
        <ele>1418.56</ele>
        <time>2016-04-29T14:42:51Z</time>
      </trkpt>
      <trkpt lat="44.88973" lon="5.45084">
        <ele>1418.08</ele>
        <time>2016-04-29T14:42:52Z</time>
      </trkpt>
      <trkpt lat="44.88969" lon="5.45075">
        <ele>1417.12</ele>
        <time>2016-04-29T14:42:53Z</time>
      </trkpt>
      <trkpt lat="44.88963" lon="5.45069">
        <ele>1416.16</ele>
        <time>2016-04-29T14:42:54Z</time>
      </trkpt>
      <trkpt lat="44.88956" lon="5.45067">
        <ele>1416.16</ele>
        <time>2016-04-29T14:42:55Z</time>
      </trkpt>
      <trkpt lat="44.88949" lon="5.45065">
        <ele>1415.68</ele>
        <time>2016-04-29T14:42:56Z</time>
      </trkpt>
      <trkpt lat="44.88943" lon="5.45061">
        <ele>1415.2</ele>
        <time>2016-04-29T14:42:57Z</time>
      </trkpt>
      <trkpt lat="44.88937" lon="5.45055">
        <ele>1414.72</ele>
        <time>2016-04-29T14:42:58Z</time>
      </trkpt>
      <trkpt lat="44.88934" lon="5.45047">
        <ele>1414.24</ele>
        <time>2016-04-29T14:42:59Z</time>
      </trkpt>
      <trkpt lat="44.88931" lon="5.45037">
        <ele>1413.76</ele>
        <time>2016-04-29T14:43:00Z</time>
      </trkpt>
      <trkpt lat="44.88929" lon="5.45027">
        <ele>1413.28</ele>
        <time>2016-04-29T14:43:01Z</time>
      </trkpt>
      <trkpt lat="44.88928" lon="5.45016">
        <ele>1412.79</ele>
        <time>2016-04-29T14:43:02Z</time>
      </trkpt>
      <trkpt lat="44.88919" lon="5.44957">
        <ele>1408.95</ele>
        <time>2016-04-29T14:43:07Z</time>
      </trkpt>
      <trkpt lat="44.88917" lon="5.44944">
        <ele>1408.95</ele>
        <time>2016-04-29T14:43:08Z</time>
      </trkpt>
      <trkpt lat="44.88912" lon="5.4492">
        <ele>1406.55</ele>
        <time>2016-04-29T14:43:10Z</time>
      </trkpt>
      <trkpt lat="44.88906" lon="5.4491">
        <ele>1406.55</ele>
        <time>2016-04-29T14:43:11Z</time>
      </trkpt>
      <trkpt lat="44.88898" lon="5.44901">
        <ele>1405.58</ele>
        <time>2016-04-29T14:43:12Z</time>
      </trkpt>
      <trkpt lat="44.8889" lon="5.44896">
        <ele>1405.58</ele>
        <time>2016-04-29T14:43:13Z</time>
      </trkpt>
      <trkpt lat="44.88883" lon="5.44891">
        <ele>1405.1</ele>
        <time>2016-04-29T14:43:14Z</time>
      </trkpt>
      <trkpt lat="44.88879" lon="5.44885">
        <ele>1404.62</ele>
        <time>2016-04-29T14:43:15Z</time>
      </trkpt>
      <trkpt lat="44.88863" lon="5.44855">
        <ele>1401.74</ele>
        <time>2016-04-29T14:43:18Z</time>
      </trkpt>
      <trkpt lat="44.88854" lon="5.44833">
        <ele>1400.3</ele>
        <time>2016-04-29T14:43:20Z</time>
      </trkpt>
      <trkpt lat="44.88847" lon="5.44824">
        <ele>1398.86</ele>
        <time>2016-04-29T14:43:21Z</time>
      </trkpt>
      <trkpt lat="44.8884" lon="5.44816">
        <ele>1398.37</ele>
        <time>2016-04-29T14:43:22Z</time>
      </trkpt>
      <trkpt lat="44.88833" lon="5.4481">
        <ele>1397.89</ele>
        <time>2016-04-29T14:43:23Z</time>
      </trkpt>
      <trkpt lat="44.88825" lon="5.44804">
        <ele>1397.89</ele>
        <time>2016-04-29T14:43:24Z</time>
      </trkpt>
      <trkpt lat="44.88774" lon="5.44766">
        <ele>1396.93</ele>
        <time>2016-04-29T14:43:32Z</time>
      </trkpt>
      <trkpt lat="44.88769" lon="5.4476">
        <ele>1396.45</ele>
        <time>2016-04-29T14:43:33Z</time>
      </trkpt>
      <trkpt lat="44.88766" lon="5.44752">
        <ele>1396.45</ele>
        <time>2016-04-29T14:43:34Z</time>
      </trkpt>
      <trkpt lat="44.88764" lon="5.44743">
        <ele>1395.97</ele>
        <time>2016-04-29T14:43:35Z</time>
      </trkpt>
      <trkpt lat="44.88763" lon="5.44734">
        <ele>1396.45</ele>
        <time>2016-04-29T14:43:36Z</time>
      </trkpt>
      <trkpt lat="44.88764" lon="5.44726">
        <ele>1396.45</ele>
        <time>2016-04-29T14:43:37Z</time>
      </trkpt>
      <trkpt lat="44.88765" lon="5.44718">
        <ele>1396.45</ele>
        <time>2016-04-29T14:43:38Z</time>
      </trkpt>
      <trkpt lat="44.88765" lon="5.44621">
        <ele>1394.53</ele>
        <time>2016-04-29T14:43:50Z</time>
      </trkpt>
      <trkpt lat="44.88762" lon="5.44596">
        <ele>1393.57</ele>
        <time>2016-04-29T14:43:53Z</time>
      </trkpt>
      <trkpt lat="44.8876" lon="5.44579">
        <ele>1393.09</ele>
        <time>2016-04-29T14:43:55Z</time>
      </trkpt>
      <trkpt lat="44.88753" lon="5.44545">
        <ele>1392.13</ele>
        <time>2016-04-29T14:43:59Z</time>
      </trkpt>
      <trkpt lat="44.88747" lon="5.44528">
        <ele>1392.13</ele>
        <time>2016-04-29T14:44:01Z</time>
      </trkpt>
      <trkpt lat="44.88745" lon="5.4452">
        <ele>1391.65</ele>
        <time>2016-04-29T14:44:02Z</time>
      </trkpt>
      <trkpt lat="44.88743" lon="5.44514">
        <ele>1391.17</ele>
        <time>2016-04-29T14:44:03Z</time>
      </trkpt>
      <trkpt lat="44.8874" lon="5.44509">
        <ele>1391.17</ele>
        <time>2016-04-29T14:44:04Z</time>
      </trkpt>
      <trkpt lat="44.88736" lon="5.44504">
        <ele>1390.68</ele>
        <time>2016-04-29T14:44:05Z</time>
      </trkpt>
      <trkpt lat="44.8873" lon="5.44501">
        <ele>1389.72</ele>
        <time>2016-04-29T14:44:06Z</time>
      </trkpt>
      <trkpt lat="44.88724" lon="5.44501">
        <ele>1388.76</ele>
        <time>2016-04-29T14:44:07Z</time>
      </trkpt>
      <trkpt lat="44.88719" lon="5.44506">
        <ele>1387.8</ele>
        <time>2016-04-29T14:44:08Z</time>
      </trkpt>
      <trkpt lat="44.88716" lon="5.44514">
        <ele>1386.84</ele>
        <time>2016-04-29T14:44:09Z</time>
      </trkpt>
      <trkpt lat="44.88715" lon="5.44524">
        <ele>1386.36</ele>
        <time>2016-04-29T14:44:10Z</time>
      </trkpt>
      <trkpt lat="44.88716" lon="5.44533">
        <ele>1385.88</ele>
        <time>2016-04-29T14:44:11Z</time>
      </trkpt>
      <trkpt lat="44.88718" lon="5.44542">
        <ele>1384.92</ele>
        <time>2016-04-29T14:44:12Z</time>
      </trkpt>
      <trkpt lat="44.88718" lon="5.44551">
        <ele>1384.92</ele>
        <time>2016-04-29T14:44:13Z</time>
      </trkpt>
      <trkpt lat="44.88715" lon="5.44557">
        <ele>1383.96</ele>
        <time>2016-04-29T14:44:14Z</time>
      </trkpt>
      <trkpt lat="44.88712" lon="5.4456">
        <ele>1382.99</ele>
        <time>2016-04-29T14:44:15Z</time>
      </trkpt>
      <trkpt lat="44.88706" lon="5.44559">
        <ele>1382.03</ele>
        <time>2016-04-29T14:44:16Z</time>
      </trkpt>
      <trkpt lat="44.88698" lon="5.44556">
        <ele>1381.07</ele>
        <time>2016-04-29T14:44:17Z</time>
      </trkpt>
      <trkpt lat="44.8869" lon="5.44552">
        <ele>1380.11</ele>
        <time>2016-04-29T14:44:18Z</time>
      </trkpt>
      <trkpt lat="44.88683" lon="5.44549">
        <ele>1379.15</ele>
        <time>2016-04-29T14:44:19Z</time>
      </trkpt>
      <trkpt lat="44.88656" lon="5.44539">
        <ele>1377.23</ele>
        <time>2016-04-29T14:44:22Z</time>
      </trkpt>
      <trkpt lat="44.88647" lon="5.44534">
        <ele>1376.26</ele>
        <time>2016-04-29T14:44:23Z</time>
      </trkpt>
      <trkpt lat="44.88637" lon="5.4453">
        <ele>1372.9</ele>
        <time>2016-04-29T14:44:24Z</time>
      </trkpt>
      <trkpt lat="44.88627" lon="5.44526">
        <ele>1371.46</ele>
        <time>2016-04-29T14:44:25Z</time>
      </trkpt>
      <trkpt lat="44.88616" lon="5.44524">
        <ele>1370.5</ele>
        <time>2016-04-29T14:44:26Z</time>
      </trkpt>
      <trkpt lat="44.88605" lon="5.44522">
        <ele>1369.54</ele>
        <time>2016-04-29T14:44:27Z</time>
      </trkpt>
      <trkpt lat="44.88594" lon="5.44518">
        <ele>1368.09</ele>
        <time>2016-04-29T14:44:28Z</time>
      </trkpt>
      <trkpt lat="44.88583" lon="5.44514">
        <ele>1367.13</ele>
        <time>2016-04-29T14:44:29Z</time>
      </trkpt>
      <trkpt lat="44.88572" lon="5.44511">
        <ele>1366.17</ele>
        <time>2016-04-29T14:44:30Z</time>
      </trkpt>
      <trkpt lat="44.88547" lon="5.44505">
        <ele>1362.33</ele>
        <time>2016-04-29T14:44:32Z</time>
      </trkpt>
      <trkpt lat="44.8851" lon="5.44492">
        <ele>1358.48</ele>
        <time>2016-04-29T14:44:35Z</time>
      </trkpt>
      <trkpt lat="44.88487" lon="5.44481">
        <ele>1356.56</ele>
        <time>2016-04-29T14:44:37Z</time>
      </trkpt>
      <trkpt lat="44.88447" lon="5.44452">
        <ele>1353.67</ele>
        <time>2016-04-29T14:44:42Z</time>
      </trkpt>
      <trkpt lat="44.88433" lon="5.44445">
        <ele>1352.71</ele>
        <time>2016-04-29T14:44:46Z</time>
      </trkpt>
      <trkpt lat="44.88431" lon="5.44447">
        <ele>1353.19</ele>
        <time>2016-04-29T14:44:47Z</time>
      </trkpt>
      <trkpt lat="44.88429" lon="5.44449">
        <ele>1353.19</ele>
        <time>2016-04-29T14:44:48Z</time>
      </trkpt>
      <trkpt lat="44.88429" lon="5.44452">
        <ele>1353.19</ele>
        <time>2016-04-29T14:44:49Z</time>
      </trkpt>
      <trkpt lat="44.88435" lon="5.4445">
        <ele>1353.19</ele>
        <time>2016-04-29T14:44:57Z</time>
      </trkpt>
      <trkpt lat="44.88437" lon="5.44449">
        <ele>1353.67</ele>
        <time>2016-04-29T14:45:15Z</time>
      </trkpt>
      <trkpt lat="44.88438" lon="5.44449">
        <ele>1353.67</ele>
        <time>2016-04-29T14:45:40Z</time>
      </trkpt>
      <trkpt lat="44.88452" lon="5.44419">
        <ele>1352.71</ele>
        <time>2016-04-29T14:45:52Z</time>
      </trkpt>
      <trkpt lat="44.88478" lon="5.44375">
        <ele>1352.23</ele>
        <time>2016-04-29T14:46:06Z</time>
      </trkpt>
      <trkpt lat="44.88503" lon="5.44326">
        <ele>1352.23</ele>
        <time>2016-04-29T14:46:19Z</time>
      </trkpt>
      <trkpt lat="44.88532" lon="5.44278">
        <ele>1351.75</ele>
        <time>2016-04-29T14:46:32Z</time>
      </trkpt>
      <trkpt lat="44.88551" lon="5.44249">
        <ele>1351.75</ele>
        <time>2016-04-29T14:46:41Z</time>
      </trkpt>
      <trkpt lat="44.88556" lon="5.44247">
        <ele>1351.75</ele>
        <time>2016-04-29T14:46:42Z</time>
      </trkpt>
      <trkpt lat="44.8861" lon="5.44233">
        <ele>1351.75</ele>
        <time>2016-04-29T14:46:55Z</time>
      </trkpt>
      <trkpt lat="44.88623" lon="5.44229">
        <ele>1351.27</ele>
        <time>2016-04-29T14:46:58Z</time>
      </trkpt>
      <trkpt lat="44.88628" lon="5.44227">
        <ele>1350.79</ele>
        <time>2016-04-29T14:46:59Z</time>
      </trkpt>
      <trkpt lat="44.88632" lon="5.44224">
        <ele>1350.79</ele>
        <time>2016-04-29T14:47:00Z</time>
      </trkpt>
      <trkpt lat="44.88636" lon="5.44221">
        <ele>1350.79</ele>
        <time>2016-04-29T14:47:01Z</time>
      </trkpt>
      <trkpt lat="44.88639" lon="5.44215">
        <ele>1350.31</ele>
        <time>2016-04-29T14:47:02Z</time>
      </trkpt>
      <trkpt lat="44.88642" lon="5.44209">
        <ele>1349.35</ele>
        <time>2016-04-29T14:47:03Z</time>
      </trkpt>
      <trkpt lat="44.8865" lon="5.44185">
        <ele>1348.39</ele>
        <time>2016-04-29T14:47:06Z</time>
      </trkpt>
      <trkpt lat="44.88654" lon="5.44166">
        <ele>1346.94</ele>
        <time>2016-04-29T14:47:08Z</time>
      </trkpt>
      <trkpt lat="44.88656" lon="5.44155">
        <ele>1345.98</ele>
        <time>2016-04-29T14:47:09Z</time>
      </trkpt>
      <trkpt lat="44.88657" lon="5.44144">
        <ele>1345.02</ele>
        <time>2016-04-29T14:47:10Z</time>
      </trkpt>
      <trkpt lat="44.88657" lon="5.44133">
        <ele>1344.06</ele>
        <time>2016-04-29T14:47:11Z</time>
      </trkpt>
      <trkpt lat="44.88656" lon="5.44121">
        <ele>1343.58</ele>
        <time>2016-04-29T14:47:12Z</time>
      </trkpt>
      <trkpt lat="44.88654" lon="5.4411">
        <ele>1342.62</ele>
        <time>2016-04-29T14:47:13Z</time>
      </trkpt>
      <trkpt lat="44.88652" lon="5.44098">
        <ele>1341.18</ele>
        <time>2016-04-29T14:47:14Z</time>
      </trkpt>
      <trkpt lat="44.88648" lon="5.44086">
        <ele>1340.7</ele>
        <time>2016-04-29T14:47:15Z</time>
      </trkpt>
      <trkpt lat="44.88645" lon="5.44074">
        <ele>1340.22</ele>
        <time>2016-04-29T14:47:16Z</time>
      </trkpt>
      <trkpt lat="44.88641" lon="5.44062">
        <ele>1338.77</ele>
        <time>2016-04-29T14:47:17Z</time>
      </trkpt>
      <trkpt lat="44.88639" lon="5.4405">
        <ele>1338.29</ele>
        <time>2016-04-29T14:47:18Z</time>
      </trkpt>
      <trkpt lat="44.88639" lon="5.44038">
        <ele>1337.33</ele>
        <time>2016-04-29T14:47:19Z</time>
      </trkpt>
      <trkpt lat="44.88642" lon="5.44027">
        <ele>1335.89</ele>
        <time>2016-04-29T14:47:20Z</time>
      </trkpt>
      <trkpt lat="44.88647" lon="5.44016">
        <ele>1334.93</ele>
        <time>2016-04-29T14:47:21Z</time>
      </trkpt>
      <trkpt lat="44.88652" lon="5.44005">
        <ele>1333.97</ele>
        <time>2016-04-29T14:47:22Z</time>
      </trkpt>
      <trkpt lat="44.88662" lon="5.43982">
        <ele>1332.04</ele>
        <time>2016-04-29T14:47:24Z</time>
      </trkpt>
      <trkpt lat="44.88664" lon="5.43968">
        <ele>1331.08</ele>
        <time>2016-04-29T14:47:25Z</time>
      </trkpt>
      <trkpt lat="44.88665" lon="5.43954">
        <ele>1330.12</ele>
        <time>2016-04-29T14:47:26Z</time>
      </trkpt>
      <trkpt lat="44.88664" lon="5.43924">
        <ele>1328.2</ele>
        <time>2016-04-29T14:47:28Z</time>
      </trkpt>
      <trkpt lat="44.88665" lon="5.43909">
        <ele>1327.72</ele>
        <time>2016-04-29T14:47:29Z</time>
      </trkpt>
      <trkpt lat="44.88668" lon="5.43879">
        <ele>1325.8</ele>
        <time>2016-04-29T14:47:31Z</time>
      </trkpt>
      <trkpt lat="44.88667" lon="5.43864">
        <ele>1324.35</ele>
        <time>2016-04-29T14:47:32Z</time>
      </trkpt>
      <trkpt lat="44.88658" lon="5.43817">
        <ele>1321.47</ele>
        <time>2016-04-29T14:47:35Z</time>
      </trkpt>
      <trkpt lat="44.88654" lon="5.43802">
        <ele>1320.51</ele>
        <time>2016-04-29T14:47:36Z</time>
      </trkpt>
      <trkpt lat="44.88648" lon="5.43788">
        <ele>1319.07</ele>
        <time>2016-04-29T14:47:37Z</time>
      </trkpt>
      <trkpt lat="44.88642" lon="5.43775">
        <ele>1318.59</ele>
        <time>2016-04-29T14:47:38Z</time>
      </trkpt>
      <trkpt lat="44.88635" lon="5.43762">
        <ele>1317.62</ele>
        <time>2016-04-29T14:47:39Z</time>
      </trkpt>
      <trkpt lat="44.88628" lon="5.43752">
        <ele>1317.14</ele>
        <time>2016-04-29T14:47:40Z</time>
      </trkpt>
      <trkpt lat="44.88622" lon="5.43742">
        <ele>1316.18</ele>
        <time>2016-04-29T14:47:41Z</time>
      </trkpt>
      <trkpt lat="44.88618" lon="5.43733">
        <ele>1316.18</ele>
        <time>2016-04-29T14:47:42Z</time>
      </trkpt>
      <trkpt lat="44.88616" lon="5.43725">
        <ele>1315.7</ele>
        <time>2016-04-29T14:47:43Z</time>
      </trkpt>
      <trkpt lat="44.88618" lon="5.43719">
        <ele>1315.22</ele>
        <time>2016-04-29T14:47:44Z</time>
      </trkpt>
      <trkpt lat="44.88622" lon="5.43715">
        <ele>1314.26</ele>
        <time>2016-04-29T14:47:45Z</time>
      </trkpt>
      <trkpt lat="44.88627" lon="5.43715">
        <ele>1313.78</ele>
        <time>2016-04-29T14:47:46Z</time>
      </trkpt>
      <trkpt lat="44.88634" lon="5.43718">
        <ele>1312.82</ele>
        <time>2016-04-29T14:47:47Z</time>
      </trkpt>
      <trkpt lat="44.88641" lon="5.43722">
        <ele>1311.86</ele>
        <time>2016-04-29T14:47:48Z</time>
      </trkpt>
      <trkpt lat="44.88684" lon="5.43741">
        <ele>1308.49</ele>
        <time>2016-04-29T14:47:53Z</time>
      </trkpt>
      <trkpt lat="44.88693" lon="5.43746">
        <ele>1307.53</ele>
        <time>2016-04-29T14:47:54Z</time>
      </trkpt>
      <trkpt lat="44.887" lon="5.43753">
        <ele>1307.05</ele>
        <time>2016-04-29T14:47:55Z</time>
      </trkpt>
      <trkpt lat="44.88706" lon="5.43763">
        <ele>1306.57</ele>
        <time>2016-04-29T14:47:56Z</time>
      </trkpt>
      <trkpt lat="44.88708" lon="5.43774">
        <ele>1306.57</ele>
        <time>2016-04-29T14:47:57Z</time>
      </trkpt>
      <trkpt lat="44.88708" lon="5.43785">
        <ele>1306.09</ele>
        <time>2016-04-29T14:47:58Z</time>
      </trkpt>
      <trkpt lat="44.88706" lon="5.43796">
        <ele>1305.61</ele>
        <time>2016-04-29T14:47:59Z</time>
      </trkpt>
      <trkpt lat="44.88704" lon="5.43808">
        <ele>1305.13</ele>
        <time>2016-04-29T14:48:00Z</time>
      </trkpt>
      <trkpt lat="44.88698" lon="5.43846">
        <ele>1301.76</ele>
        <time>2016-04-29T14:48:03Z</time>
      </trkpt>
      <trkpt lat="44.88699" lon="5.43858">
        <ele>1300.8</ele>
        <time>2016-04-29T14:48:04Z</time>
      </trkpt>
      <trkpt lat="44.88702" lon="5.4387">
        <ele>1300.32</ele>
        <time>2016-04-29T14:48:05Z</time>
      </trkpt>
      <trkpt lat="44.88706" lon="5.4388">
        <ele>1299.84</ele>
        <time>2016-04-29T14:48:06Z</time>
      </trkpt>
      <trkpt lat="44.88711" lon="5.4389">
        <ele>1299.36</ele>
        <time>2016-04-29T14:48:07Z</time>
      </trkpt>
      <trkpt lat="44.88717" lon="5.43899">
        <ele>1297.92</ele>
        <time>2016-04-29T14:48:08Z</time>
      </trkpt>
      <trkpt lat="44.88725" lon="5.43908">
        <ele>1297.92</ele>
        <time>2016-04-29T14:48:09Z</time>
      </trkpt>
      <trkpt lat="44.88733" lon="5.43915">
        <ele>1297.92</ele>
        <time>2016-04-29T14:48:10Z</time>
      </trkpt>
      <trkpt lat="44.88741" lon="5.43922">
        <ele>1297.44</ele>
        <time>2016-04-29T14:48:11Z</time>
      </trkpt>
      <trkpt lat="44.8875" lon="5.43927">
        <ele>1297.44</ele>
        <time>2016-04-29T14:48:12Z</time>
      </trkpt>
      <trkpt lat="44.8876" lon="5.43932">
        <ele>1297.44</ele>
        <time>2016-04-29T14:48:13Z</time>
      </trkpt>
      <trkpt lat="44.88777" lon="5.43939">
        <ele>1297.92</ele>
        <time>2016-04-29T14:48:15Z</time>
      </trkpt>
      <trkpt lat="44.88785" lon="5.43938">
        <ele>1297.44</ele>
        <time>2016-04-29T14:48:16Z</time>
      </trkpt>
      <trkpt lat="44.88794" lon="5.43934">
        <ele>1297.44</ele>
        <time>2016-04-29T14:48:17Z</time>
      </trkpt>
      <trkpt lat="44.88801" lon="5.43929">
        <ele>1297.44</ele>
        <time>2016-04-29T14:48:18Z</time>
      </trkpt>
      <trkpt lat="44.88808" lon="5.43924">
        <ele>1296.96</ele>
        <time>2016-04-29T14:48:19Z</time>
      </trkpt>
      <trkpt lat="44.88814" lon="5.43918">
        <ele>1295.99</ele>
        <time>2016-04-29T14:48:20Z</time>
      </trkpt>
      <trkpt lat="44.8884" lon="5.43894">
        <ele>1295.51</ele>
        <time>2016-04-29T14:48:25Z</time>
      </trkpt>
      <trkpt lat="44.88846" lon="5.43889">
        <ele>1295.03</ele>
        <time>2016-04-29T14:48:26Z</time>
      </trkpt>
      <trkpt lat="44.88853" lon="5.43886">
        <ele>1294.55</ele>
        <time>2016-04-29T14:48:27Z</time>
      </trkpt>
      <trkpt lat="44.88861" lon="5.43885">
        <ele>1294.07</ele>
        <time>2016-04-29T14:48:28Z</time>
      </trkpt>
      <trkpt lat="44.88869" lon="5.43887">
        <ele>1293.11</ele>
        <time>2016-04-29T14:48:29Z</time>
      </trkpt>
      <trkpt lat="44.88876" lon="5.4389">
        <ele>1292.63</ele>
        <time>2016-04-29T14:48:30Z</time>
      </trkpt>
      <trkpt lat="44.88883" lon="5.43895">
        <ele>1292.15</ele>
        <time>2016-04-29T14:48:31Z</time>
      </trkpt>
      <trkpt lat="44.8892" lon="5.43916">
        <ele>1288.78</ele>
        <time>2016-04-29T14:48:36Z</time>
      </trkpt>
      <trkpt lat="44.88929" lon="5.43916">
        <ele>1287.82</ele>
        <time>2016-04-29T14:48:37Z</time>
      </trkpt>
      <trkpt lat="44.88937" lon="5.43916">
        <ele>1287.34</ele>
        <time>2016-04-29T14:48:38Z</time>
      </trkpt>
      <trkpt lat="44.88946" lon="5.43918">
        <ele>1286.86</ele>
        <time>2016-04-29T14:48:39Z</time>
      </trkpt>
      <trkpt lat="44.88954" lon="5.43921">
        <ele>1286.86</ele>
        <time>2016-04-29T14:48:40Z</time>
      </trkpt>
      <trkpt lat="44.88962" lon="5.43925">
        <ele>1287.34</ele>
        <time>2016-04-29T14:48:41Z</time>
      </trkpt>
      <trkpt lat="44.88966" lon="5.43928">
        <ele>1287.82</ele>
        <time>2016-04-29T14:48:42Z</time>
      </trkpt>
      <trkpt lat="44.88973" lon="5.43936">
        <ele>1289.27</ele>
        <time>2016-04-29T14:48:43Z</time>
      </trkpt>
      <trkpt lat="44.88977" lon="5.4394">
        <ele>1289.75</ele>
        <time>2016-04-29T14:48:44Z</time>
      </trkpt>
      <trkpt lat="44.88977" lon="5.43942">
        <ele>1290.23</ele>
        <time>2016-04-29T14:48:45Z</time>
      </trkpt>
      <trkpt lat="44.88976" lon="5.43944">
        <ele>1290.71</ele>
        <time>2016-04-29T14:48:46Z</time>
      </trkpt>
      <trkpt lat="44.88969" lon="5.43949">
        <ele>1291.67</ele>
        <time>2016-04-29T14:48:51Z</time>
      </trkpt>
      <trkpt lat="44.88967" lon="5.4395">
        <ele>1291.67</ele>
        <time>2016-04-29T14:48:52Z</time>
      </trkpt>
      <trkpt lat="44.88965" lon="5.43951">
        <ele>1291.67</ele>
        <time>2016-04-29T14:48:53Z</time>
      </trkpt>
      <trkpt lat="44.8896" lon="5.43953">
        <ele>1292.63</ele>
        <time>2016-04-29T14:48:57Z</time>
      </trkpt>
      <trkpt lat="44.88959" lon="5.43955">
        <ele>1292.63</ele>
        <time>2016-04-29T14:48:58Z</time>
      </trkpt>
      <trkpt lat="44.88954" lon="5.43963">
        <ele>1294.07</ele>
        <time>2016-04-29T14:49:07Z</time>
      </trkpt>
      <trkpt lat="44.88953" lon="5.43965">
        <ele>1294.55</ele>
        <time>2016-04-29T14:49:08Z</time>
      </trkpt>
      <trkpt lat="44.88951" lon="5.43966">
        <ele>1294.55</ele>
        <time>2016-04-29T14:49:09Z</time>
      </trkpt>
      <trkpt lat="44.8895" lon="5.43968">
        <ele>1294.55</ele>
        <time>2016-04-29T14:49:10Z</time>
      </trkpt>
      <trkpt lat="44.88941" lon="5.43985">
        <ele>1295.99</ele>
        <time>2016-04-29T14:49:20Z</time>
      </trkpt>
      <trkpt lat="44.88941" lon="5.43988">
        <ele>1296.48</ele>
        <time>2016-04-29T14:49:22Z</time>
      </trkpt>
      <trkpt lat="44.88939" lon="5.43997">
        <ele>1296.96</ele>
        <time>2016-04-29T14:49:27Z</time>
      </trkpt>
      <trkpt lat="44.88931" lon="5.44018">
        <ele>1298.88</ele>
        <time>2016-04-29T14:49:41Z</time>
      </trkpt>
      <trkpt lat="44.88928" lon="5.44026">
        <ele>1299.84</ele>
        <time>2016-04-29T14:49:46Z</time>
      </trkpt>
      <trkpt lat="44.88928" lon="5.44029">
        <ele>1299.84</ele>
        <time>2016-04-29T14:49:47Z</time>
      </trkpt>
      <trkpt lat="44.88927" lon="5.44032">
        <ele>1299.84</ele>
        <time>2016-04-29T14:49:48Z</time>
      </trkpt>
      <trkpt lat="44.8893" lon="5.44057">
        <ele>1301.28</ele>
        <time>2016-04-29T14:50:01Z</time>
      </trkpt>
      <trkpt lat="44.88931" lon="5.44059">
        <ele>1301.76</ele>
        <time>2016-04-29T14:50:03Z</time>
      </trkpt>
      <trkpt lat="44.88932" lon="5.44061">
        <ele>1301.76</ele>
        <time>2016-04-29T14:50:04Z</time>
      </trkpt>
      <trkpt lat="44.88934" lon="5.44065">
        <ele>1302.24</ele>
        <time>2016-04-29T14:50:07Z</time>
      </trkpt>
      <trkpt lat="44.88935" lon="5.44066">
        <ele>1302.24</ele>
        <time>2016-04-29T14:50:08Z</time>
      </trkpt>
      <trkpt lat="44.88935" lon="5.44068">
        <ele>1302.24</ele>
        <time>2016-04-29T14:50:09Z</time>
      </trkpt>
      <trkpt lat="44.88937" lon="5.44069">
        <ele>1302.24</ele>
        <time>2016-04-29T14:50:10Z</time>
      </trkpt>
      <trkpt lat="44.8894" lon="5.44071">
        <ele>1302.72</ele>
        <time>2016-04-29T14:50:12Z</time>
      </trkpt>
      <trkpt lat="44.88942" lon="5.4407">
        <ele>1302.72</ele>
        <time>2016-04-29T14:50:13Z</time>
      </trkpt>
      <trkpt lat="44.88943" lon="5.44071">
        <ele>1302.72</ele>
        <time>2016-04-29T14:50:14Z</time>
      </trkpt>
      <trkpt lat="44.88945" lon="5.4407">
        <ele>1303.2</ele>
        <time>2016-04-29T14:50:15Z</time>
      </trkpt>
      <trkpt lat="44.88961" lon="5.44061">
        <ele>1304.17</ele>
        <time>2016-04-29T14:50:27Z</time>
      </trkpt>
      <trkpt lat="44.8898" lon="5.44043">
        <ele>1306.09</ele>
        <time>2016-04-29T14:50:42Z</time>
      </trkpt>
      <trkpt lat="44.88999" lon="5.44025">
        <ele>1308.01</ele>
        <time>2016-04-29T14:50:58Z</time>
      </trkpt>
      <trkpt lat="44.89002" lon="5.44021">
        <ele>1308.49</ele>
        <time>2016-04-29T14:51:01Z</time>
      </trkpt>
      <trkpt lat="44.89003" lon="5.4402">
        <ele>1308.49</ele>
        <time>2016-04-29T14:51:02Z</time>
      </trkpt>
      <trkpt lat="44.89005" lon="5.44018">
        <ele>1308.49</ele>
        <time>2016-04-29T14:51:03Z</time>
      </trkpt>
      <trkpt lat="44.89012" lon="5.44009">
        <ele>1309.45</ele>
        <time>2016-04-29T14:51:10Z</time>
      </trkpt>
      <trkpt lat="44.89013" lon="5.44008">
        <ele>1309.93</ele>
        <time>2016-04-29T14:51:11Z</time>
      </trkpt>
      <trkpt lat="44.89015" lon="5.44007">
        <ele>1309.93</ele>
        <time>2016-04-29T14:51:12Z</time>
      </trkpt>
      <trkpt lat="44.89016" lon="5.44005">
        <ele>1309.93</ele>
        <time>2016-04-29T14:51:13Z</time>
      </trkpt>
      <trkpt lat="44.89016" lon="5.44005">
        <ele>1310.41</ele>
        <time>2016-04-29T14:51:14Z</time>
      </trkpt>
      <trkpt lat="44.89021" lon="5.43998">
        <ele>1310.41</ele>
        <time>2016-04-29T14:51:19Z</time>
      </trkpt>
      <trkpt lat="44.89022" lon="5.43997">
        <ele>1310.9</ele>
        <time>2016-04-29T14:51:20Z</time>
      </trkpt>
      <trkpt lat="44.89023" lon="5.43996">
        <ele>1310.9</ele>
        <time>2016-04-29T14:51:21Z</time>
      </trkpt>
      <trkpt lat="44.89024" lon="5.43995">
        <ele>1310.9</ele>
        <time>2016-04-29T14:51:22Z</time>
      </trkpt>
      <trkpt lat="44.89025" lon="5.43994">
        <ele>1311.38</ele>
        <time>2016-04-29T14:51:23Z</time>
      </trkpt>
      <trkpt lat="44.89026" lon="5.43993">
        <ele>1310.9</ele>
        <time>2016-04-29T14:51:24Z</time>
      </trkpt>
      <trkpt lat="44.89027" lon="5.43992">
        <ele>1311.38</ele>
        <time>2016-04-29T14:51:25Z</time>
      </trkpt>
      <trkpt lat="44.89028" lon="5.43991">
        <ele>1311.38</ele>
        <time>2016-04-29T14:51:26Z</time>
      </trkpt>
      <trkpt lat="44.89044" lon="5.4398">
        <ele>1313.78</ele>
        <time>2016-04-29T14:51:41Z</time>
      </trkpt>
      <trkpt lat="44.89059" lon="5.43971">
        <ele>1315.7</ele>
        <time>2016-04-29T14:51:55Z</time>
      </trkpt>
      <trkpt lat="44.89072" lon="5.4396">
        <ele>1317.62</ele>
        <time>2016-04-29T14:52:08Z</time>
      </trkpt>
      <trkpt lat="44.89078" lon="5.43953">
        <ele>1318.1</ele>
        <time>2016-04-29T14:52:15Z</time>
      </trkpt>
      <trkpt lat="44.89079" lon="5.43952">
        <ele>1318.1</ele>
        <time>2016-04-29T14:52:16Z</time>
      </trkpt>
      <trkpt lat="44.8908" lon="5.43951">
        <ele>1318.59</ele>
        <time>2016-04-29T14:52:17Z</time>
      </trkpt>
      <trkpt lat="44.89086" lon="5.43938">
        <ele>1320.03</ele>
        <time>2016-04-29T14:52:29Z</time>
      </trkpt>
      <trkpt lat="44.89087" lon="5.43937">
        <ele>1320.03</ele>
        <time>2016-04-29T14:52:30Z</time>
      </trkpt>
      <trkpt lat="44.89091" lon="5.43935">
        <ele>1320.51</ele>
        <time>2016-04-29T14:52:34Z</time>
      </trkpt>
      <trkpt lat="44.89092" lon="5.43935">
        <ele>1320.99</ele>
        <time>2016-04-29T14:52:35Z</time>
      </trkpt>
      <trkpt lat="44.89093" lon="5.43934">
        <ele>1320.99</ele>
        <time>2016-04-29T14:52:36Z</time>
      </trkpt>
      <trkpt lat="44.89094" lon="5.43934">
        <ele>1320.99</ele>
        <time>2016-04-29T14:52:37Z</time>
      </trkpt>
      <trkpt lat="44.89095" lon="5.43934">
        <ele>1321.47</ele>
        <time>2016-04-29T14:52:38Z</time>
      </trkpt>
      <trkpt lat="44.89096" lon="5.43935">
        <ele>1321.47</ele>
        <time>2016-04-29T14:52:39Z</time>
      </trkpt>
      <trkpt lat="44.89098" lon="5.43935">
        <ele>1321.47</ele>
        <time>2016-04-29T14:52:40Z</time>
      </trkpt>
      <trkpt lat="44.89099" lon="5.43936">
        <ele>1321.95</ele>
        <time>2016-04-29T14:52:41Z</time>
      </trkpt>
      <trkpt lat="44.891" lon="5.43938">
        <ele>1321.95</ele>
        <time>2016-04-29T14:52:42Z</time>
      </trkpt>
      <trkpt lat="44.89101" lon="5.43939">
        <ele>1321.95</ele>
        <time>2016-04-29T14:52:43Z</time>
      </trkpt>
      <trkpt lat="44.89102" lon="5.43941">
        <ele>1321.95</ele>
        <time>2016-04-29T14:52:44Z</time>
      </trkpt>
      <trkpt lat="44.89103" lon="5.43942">
        <ele>1322.43</ele>
        <time>2016-04-29T14:52:45Z</time>
      </trkpt>
      <trkpt lat="44.89105" lon="5.43948">
        <ele>1322.91</ele>
        <time>2016-04-29T14:52:48Z</time>
      </trkpt>
      <trkpt lat="44.89106" lon="5.43951">
        <ele>1322.91</ele>
        <time>2016-04-29T14:52:49Z</time>
      </trkpt>
      <trkpt lat="44.89106" lon="5.43953">
        <ele>1322.91</ele>
        <time>2016-04-29T14:52:50Z</time>
      </trkpt>
      <trkpt lat="44.89106" lon="5.43955">
        <ele>1323.39</ele>
        <time>2016-04-29T14:52:51Z</time>
      </trkpt>
      <trkpt lat="44.89108" lon="5.43957">
        <ele>1323.39</ele>
        <time>2016-04-29T14:52:52Z</time>
      </trkpt>
      <trkpt lat="44.89108" lon="5.43959">
        <ele>1323.39</ele>
        <time>2016-04-29T14:52:53Z</time>
      </trkpt>
      <trkpt lat="44.89109" lon="5.43962">
        <ele>1323.39</ele>
        <time>2016-04-29T14:52:54Z</time>
      </trkpt>
      <trkpt lat="44.89109" lon="5.43964">
        <ele>1323.39</ele>
        <time>2016-04-29T14:52:55Z</time>
      </trkpt>
      <trkpt lat="44.8911" lon="5.43965">
        <ele>1323.87</ele>
        <time>2016-04-29T14:52:56Z</time>
      </trkpt>
      <trkpt lat="44.89111" lon="5.43968">
        <ele>1323.87</ele>
        <time>2016-04-29T14:52:57Z</time>
      </trkpt>
      <trkpt lat="44.89114" lon="5.43977">
        <ele>1323.87</ele>
        <time>2016-04-29T14:53:01Z</time>
      </trkpt>
      <trkpt lat="44.89114" lon="5.4398">
        <ele>1324.35</ele>
        <time>2016-04-29T14:53:02Z</time>
      </trkpt>
      <trkpt lat="44.89115" lon="5.43982">
        <ele>1324.35</ele>
        <time>2016-04-29T14:53:03Z</time>
      </trkpt>
      <trkpt lat="44.89115" lon="5.43984">
        <ele>1324.35</ele>
        <time>2016-04-29T14:53:04Z</time>
      </trkpt>
      <trkpt lat="44.89116" lon="5.43986">
        <ele>1324.35</ele>
        <time>2016-04-29T14:53:05Z</time>
      </trkpt>
      <trkpt lat="44.89117" lon="5.43988">
        <ele>1324.35</ele>
        <time>2016-04-29T14:53:06Z</time>
      </trkpt>
      <trkpt lat="44.89118" lon="5.4399">
        <ele>1324.83</ele>
        <time>2016-04-29T14:53:07Z</time>
      </trkpt>
      <trkpt lat="44.89118" lon="5.43993">
        <ele>1324.83</ele>
        <time>2016-04-29T14:53:08Z</time>
      </trkpt>
      <trkpt lat="44.89119" lon="5.43995">
        <ele>1324.83</ele>
        <time>2016-04-29T14:53:09Z</time>
      </trkpt>
      <trkpt lat="44.8912" lon="5.44">
        <ele>1325.31</ele>
        <time>2016-04-29T14:53:11Z</time>
      </trkpt>
      <trkpt lat="44.8912" lon="5.44003">
        <ele>1325.31</ele>
        <time>2016-04-29T14:53:12Z</time>
      </trkpt>
      <trkpt lat="44.89121" lon="5.44005">
        <ele>1325.8</ele>
        <time>2016-04-29T14:53:13Z</time>
      </trkpt>
      <trkpt lat="44.89121" lon="5.44007">
        <ele>1325.31</ele>
        <time>2016-04-29T14:53:14Z</time>
      </trkpt>
      <trkpt lat="44.89122" lon="5.4401">
        <ele>1325.8</ele>
        <time>2016-04-29T14:53:15Z</time>
      </trkpt>
      <trkpt lat="44.89123" lon="5.44012">
        <ele>1325.8</ele>
        <time>2016-04-29T14:53:16Z</time>
      </trkpt>
      <trkpt lat="44.89124" lon="5.44014">
        <ele>1325.8</ele>
        <time>2016-04-29T14:53:17Z</time>
      </trkpt>
      <trkpt lat="44.89125" lon="5.44017">
        <ele>1325.8</ele>
        <time>2016-04-29T14:53:18Z</time>
      </trkpt>
      <trkpt lat="44.89126" lon="5.44019">
        <ele>1325.8</ele>
        <time>2016-04-29T14:53:19Z</time>
      </trkpt>
      <trkpt lat="44.89139" lon="5.4403">
        <ele>1326.76</ele>
        <time>2016-04-29T14:53:28Z</time>
      </trkpt>
      <trkpt lat="44.89141" lon="5.4403">
        <ele>1326.76</ele>
        <time>2016-04-29T14:53:29Z</time>
      </trkpt>
      <trkpt lat="44.89144" lon="5.4403">
        <ele>1326.76</ele>
        <time>2016-04-29T14:53:30Z</time>
      </trkpt>
      <trkpt lat="44.89145" lon="5.44029">
        <ele>1326.76</ele>
        <time>2016-04-29T14:53:31Z</time>
      </trkpt>
      <trkpt lat="44.89147" lon="5.44029">
        <ele>1326.76</ele>
        <time>2016-04-29T14:53:32Z</time>
      </trkpt>
      <trkpt lat="44.89149" lon="5.44029">
        <ele>1326.76</ele>
        <time>2016-04-29T14:53:33Z</time>
      </trkpt>
      <trkpt lat="44.89159" lon="5.44032">
        <ele>1327.72</ele>
        <time>2016-04-29T14:53:39Z</time>
      </trkpt>
      <trkpt lat="44.89171" lon="5.44056">
        <ele>1329.16</ele>
        <time>2016-04-29T14:53:51Z</time>
      </trkpt>
      <trkpt lat="44.89174" lon="5.44061">
        <ele>1329.64</ele>
        <time>2016-04-29T14:53:53Z</time>
      </trkpt>
      <trkpt lat="44.89176" lon="5.44066">
        <ele>1329.64</ele>
        <time>2016-04-29T14:53:55Z</time>
      </trkpt>
      <trkpt lat="44.89177" lon="5.44068">
        <ele>1329.64</ele>
        <time>2016-04-29T14:53:56Z</time>
      </trkpt>
      <trkpt lat="44.89178" lon="5.4407">
        <ele>1329.64</ele>
        <time>2016-04-29T14:53:57Z</time>
      </trkpt>
      <trkpt lat="44.89181" lon="5.44071">
        <ele>1329.64</ele>
        <time>2016-04-29T14:53:58Z</time>
      </trkpt>
      <trkpt lat="44.89184" lon="5.44071">
        <ele>1329.64</ele>
        <time>2016-04-29T14:53:59Z</time>
      </trkpt>
      <trkpt lat="44.89201" lon="5.4406">
        <ele>1331.08</ele>
        <time>2016-04-29T14:54:08Z</time>
      </trkpt>
      <trkpt lat="44.89219" lon="5.44043">
        <ele>1332.04</ele>
        <time>2016-04-29T14:54:22Z</time>
      </trkpt>
      <trkpt lat="44.89239" lon="5.44033">
        <ele>1333.01</ele>
        <time>2016-04-29T14:54:33Z</time>
      </trkpt>
      <trkpt lat="44.89265" lon="5.44031">
        <ele>1334.93</ele>
        <time>2016-04-29T14:54:47Z</time>
      </trkpt>
      <trkpt lat="44.8928" lon="5.4405">
        <ele>1336.37</ele>
        <time>2016-04-29T14:54:59Z</time>
      </trkpt>
      <trkpt lat="44.89301" lon="5.44074">
        <ele>1336.85</ele>
        <time>2016-04-29T14:55:11Z</time>
      </trkpt>
      <trkpt lat="44.89322" lon="5.44064">
        <ele>1338.77</ele>
        <time>2016-04-29T14:55:22Z</time>
      </trkpt>
      <trkpt lat="44.89347" lon="5.44053">
        <ele>1339.73</ele>
        <time>2016-04-29T14:55:36Z</time>
      </trkpt>
      <trkpt lat="44.89371" lon="5.44064">
        <ele>1341.66</ele>
        <time>2016-04-29T14:55:49Z</time>
      </trkpt>
      <trkpt lat="44.89374" lon="5.44066">
        <ele>1341.66</ele>
        <time>2016-04-29T14:55:51Z</time>
      </trkpt>
      <trkpt lat="44.89379" lon="5.44076">
        <ele>1342.14</ele>
        <time>2016-04-29T14:55:55Z</time>
      </trkpt>
      <trkpt lat="44.8938" lon="5.44081">
        <ele>1342.62</ele>
        <time>2016-04-29T14:55:57Z</time>
      </trkpt>
      <trkpt lat="44.89382" lon="5.44085">
        <ele>1342.62</ele>
        <time>2016-04-29T14:55:58Z</time>
      </trkpt>
      <trkpt lat="44.89383" lon="5.44088">
        <ele>1342.62</ele>
        <time>2016-04-29T14:55:59Z</time>
      </trkpt>
      <trkpt lat="44.89383" lon="5.44091">
        <ele>1343.1</ele>
        <time>2016-04-29T14:56:00Z</time>
      </trkpt>
      <trkpt lat="44.89384" lon="5.44094">
        <ele>1343.1</ele>
        <time>2016-04-29T14:56:01Z</time>
      </trkpt>
      <trkpt lat="44.89389" lon="5.44103">
        <ele>1343.58</ele>
        <time>2016-04-29T14:56:04Z</time>
      </trkpt>
      <trkpt lat="44.89395" lon="5.44132">
        <ele>1344.54</ele>
        <time>2016-04-29T14:56:14Z</time>
      </trkpt>
      <trkpt lat="44.89396" lon="5.44136">
        <ele>1344.54</ele>
        <time>2016-04-29T14:56:15Z</time>
      </trkpt>
      <trkpt lat="44.89397" lon="5.44138">
        <ele>1344.54</ele>
        <time>2016-04-29T14:56:16Z</time>
      </trkpt>
      <trkpt lat="44.89398" lon="5.44141">
        <ele>1345.02</ele>
        <time>2016-04-29T14:56:17Z</time>
      </trkpt>
      <trkpt lat="44.89398" lon="5.44143">
        <ele>1345.02</ele>
        <time>2016-04-29T14:56:18Z</time>
      </trkpt>
      <trkpt lat="44.894" lon="5.44145">
        <ele>1345.02</ele>
        <time>2016-04-29T14:56:19Z</time>
      </trkpt>
      <trkpt lat="44.89402" lon="5.44147">
        <ele>1345.02</ele>
        <time>2016-04-29T14:56:20Z</time>
      </trkpt>
      <trkpt lat="44.89403" lon="5.44149">
        <ele>1345.02</ele>
        <time>2016-04-29T14:56:21Z</time>
      </trkpt>
      <trkpt lat="44.89404" lon="5.44151">
        <ele>1345.5</ele>
        <time>2016-04-29T14:56:22Z</time>
      </trkpt>
      <trkpt lat="44.89405" lon="5.44153">
        <ele>1345.5</ele>
        <time>2016-04-29T14:56:23Z</time>
      </trkpt>
      <trkpt lat="44.89406" lon="5.44155">
        <ele>1345.5</ele>
        <time>2016-04-29T14:56:24Z</time>
      </trkpt>
      <trkpt lat="44.89407" lon="5.44157">
        <ele>1345.5</ele>
        <time>2016-04-29T14:56:25Z</time>
      </trkpt>
      <trkpt lat="44.89408" lon="5.4416">
        <ele>1345.98</ele>
        <time>2016-04-29T14:56:26Z</time>
      </trkpt>
      <trkpt lat="44.89409" lon="5.44163">
        <ele>1345.98</ele>
        <time>2016-04-29T14:56:27Z</time>
      </trkpt>
      <trkpt lat="44.8941" lon="5.44165">
        <ele>1345.98</ele>
        <time>2016-04-29T14:56:28Z</time>
      </trkpt>
      <trkpt lat="44.89411" lon="5.44167">
        <ele>1346.46</ele>
        <time>2016-04-29T14:56:29Z</time>
      </trkpt>
      <trkpt lat="44.89411" lon="5.44168">
        <ele>1346.46</ele>
        <time>2016-04-29T14:56:30Z</time>
      </trkpt>
      <trkpt lat="44.89414" lon="5.44172">
        <ele>1346.46</ele>
        <time>2016-04-29T14:56:31Z</time>
      </trkpt>
      <trkpt lat="44.89416" lon="5.44174">
        <ele>1346.46</ele>
        <time>2016-04-29T14:56:32Z</time>
      </trkpt>
      <trkpt lat="44.89418" lon="5.44175">
        <ele>1346.94</ele>
        <time>2016-04-29T14:56:33Z</time>
      </trkpt>
      <trkpt lat="44.8942" lon="5.44177">
        <ele>1346.94</ele>
        <time>2016-04-29T14:56:34Z</time>
      </trkpt>
      <trkpt lat="44.89427" lon="5.44182">
        <ele>1347.43</ele>
        <time>2016-04-29T14:56:38Z</time>
      </trkpt>
      <trkpt lat="44.89428" lon="5.44183">
        <ele>1347.43</ele>
        <time>2016-04-29T14:56:39Z</time>
      </trkpt>
      <trkpt lat="44.8943" lon="5.44184">
        <ele>1347.91</ele>
        <time>2016-04-29T14:56:40Z</time>
      </trkpt>
      <trkpt lat="44.89431" lon="5.44186">
        <ele>1347.91</ele>
        <time>2016-04-29T14:56:41Z</time>
      </trkpt>
      <trkpt lat="44.89432" lon="5.44188">
        <ele>1347.91</ele>
        <time>2016-04-29T14:56:42Z</time>
      </trkpt>
      <trkpt lat="44.89448" lon="5.44205">
        <ele>1349.83</ele>
        <time>2016-04-29T14:56:53Z</time>
      </trkpt>
      <trkpt lat="44.89464" lon="5.44204">
        <ele>1351.27</ele>
        <time>2016-04-29T14:57:03Z</time>
      </trkpt>
      <trkpt lat="44.89466" lon="5.44205">
        <ele>1351.27</ele>
        <time>2016-04-29T14:57:04Z</time>
      </trkpt>
      <trkpt lat="44.89468" lon="5.44204">
        <ele>1351.27</ele>
        <time>2016-04-29T14:57:05Z</time>
      </trkpt>
      <trkpt lat="44.8948" lon="5.44204">
        <ele>1352.23</ele>
        <time>2016-04-29T14:57:10Z</time>
      </trkpt>
      <trkpt lat="44.89482" lon="5.44204">
        <ele>1352.23</ele>
        <time>2016-04-29T14:57:11Z</time>
      </trkpt>
      <trkpt lat="44.89484" lon="5.44204">
        <ele>1352.23</ele>
        <time>2016-04-29T14:57:12Z</time>
      </trkpt>
      <trkpt lat="44.89486" lon="5.44204">
        <ele>1352.23</ele>
        <time>2016-04-29T14:57:13Z</time>
      </trkpt>
      <trkpt lat="44.89488" lon="5.44203">
        <ele>1352.23</ele>
        <time>2016-04-29T14:57:14Z</time>
      </trkpt>
      <trkpt lat="44.89511" lon="5.44204">
        <ele>1353.19</ele>
        <time>2016-04-29T14:57:26Z</time>
      </trkpt>
      <trkpt lat="44.89511" lon="5.44205">
        <ele>1353.19</ele>
        <time>2016-04-29T14:57:27Z</time>
      </trkpt>
      <trkpt lat="44.89512" lon="5.44206">
        <ele>1353.19</ele>
        <time>2016-04-29T14:57:28Z</time>
      </trkpt>
      <trkpt lat="44.89514" lon="5.44208">
        <ele>1353.19</ele>
        <time>2016-04-29T14:57:29Z</time>
      </trkpt>
      <trkpt lat="44.89515" lon="5.4421">
        <ele>1353.67</ele>
        <time>2016-04-29T14:57:30Z</time>
      </trkpt>
      <trkpt lat="44.89516" lon="5.44211">
        <ele>1353.19</ele>
        <time>2016-04-29T14:57:31Z</time>
      </trkpt>
      <trkpt lat="44.89517" lon="5.44213">
        <ele>1353.67</ele>
        <time>2016-04-29T14:57:32Z</time>
      </trkpt>
      <trkpt lat="44.89519" lon="5.44215">
        <ele>1353.67</ele>
        <time>2016-04-29T14:57:33Z</time>
      </trkpt>
      <trkpt lat="44.89521" lon="5.44217">
        <ele>1353.67</ele>
        <time>2016-04-29T14:57:34Z</time>
      </trkpt>
      <trkpt lat="44.89522" lon="5.44218">
        <ele>1353.67</ele>
        <time>2016-04-29T14:57:35Z</time>
      </trkpt>
      <trkpt lat="44.89525" lon="5.44218">
        <ele>1353.67</ele>
        <time>2016-04-29T14:57:36Z</time>
      </trkpt>
      <trkpt lat="44.89527" lon="5.44219">
        <ele>1354.15</ele>
        <time>2016-04-29T14:57:37Z</time>
      </trkpt>
      <trkpt lat="44.89529" lon="5.44219">
        <ele>1354.15</ele>
        <time>2016-04-29T14:57:38Z</time>
      </trkpt>
      <trkpt lat="44.89531" lon="5.44219">
        <ele>1354.15</ele>
        <time>2016-04-29T14:57:39Z</time>
      </trkpt>
      <trkpt lat="44.89533" lon="5.44219">
        <ele>1354.15</ele>
        <time>2016-04-29T14:57:40Z</time>
      </trkpt>
      <trkpt lat="44.89539" lon="5.44216">
        <ele>1354.63</ele>
        <time>2016-04-29T14:57:44Z</time>
      </trkpt>
      <trkpt lat="44.89541" lon="5.44216">
        <ele>1355.12</ele>
        <time>2016-04-29T14:57:45Z</time>
      </trkpt>
      <trkpt lat="44.89543" lon="5.44215">
        <ele>1355.12</ele>
        <time>2016-04-29T14:57:46Z</time>
      </trkpt>
      <trkpt lat="44.89544" lon="5.44214">
        <ele>1355.12</ele>
        <time>2016-04-29T14:57:47Z</time>
      </trkpt>
      <trkpt lat="44.89546" lon="5.44212">
        <ele>1355.12</ele>
        <time>2016-04-29T14:57:48Z</time>
      </trkpt>
      <trkpt lat="44.89566" lon="5.44187">
        <ele>1356.08</ele>
        <time>2016-04-29T14:58:01Z</time>
      </trkpt>
      <trkpt lat="44.89583" lon="5.44171">
        <ele>1357.04</ele>
        <time>2016-04-29T14:58:14Z</time>
      </trkpt>
      <trkpt lat="44.89583" lon="5.44172">
        <ele>1357.04</ele>
        <time>2016-04-29T14:58:28Z</time>
      </trkpt>
      <trkpt lat="44.89582" lon="5.44172">
        <ele>1357.04</ele>
        <time>2016-04-29T14:58:44Z</time>
      </trkpt>
      <trkpt lat="44.89581" lon="5.44173">
        <ele>1357.04</ele>
        <time>2016-04-29T14:59:11Z</time>
      </trkpt>
      <trkpt lat="44.89581" lon="5.44173">
        <ele>1357.04</ele>
        <time>2016-04-29T14:59:22Z</time>
      </trkpt>
      <trkpt lat="44.89583" lon="5.44173">
        <ele>1357.52</ele>
        <time>2016-04-29T14:59:42Z</time>
      </trkpt>
      <trkpt lat="44.89582" lon="5.44174">
        <ele>1357.52</ele>
        <time>2016-04-29T15:00:13Z</time>
      </trkpt>
      <trkpt lat="44.89582" lon="5.44174">
        <ele>1357.52</ele>
        <time>2016-04-29T15:00:45Z</time>
      </trkpt>
      <trkpt lat="44.89582" lon="5.44174">
        <ele>1357.52</ele>
        <time>2016-04-29T15:01:18Z</time>
      </trkpt>
      <trkpt lat="44.89582" lon="5.44175">
        <ele>1357.52</ele>
        <time>2016-04-29T15:01:49Z</time>
      </trkpt>
      <trkpt lat="44.89581" lon="5.44173">
        <ele>1358</ele>
        <time>2016-04-29T15:02:16Z</time>
      </trkpt>
      <trkpt lat="44.89581" lon="5.44174">
        <ele>1357.52</ele>
        <time>2016-04-29T15:02:48Z</time>
      </trkpt>
      <trkpt lat="44.89582" lon="5.44173">
        <ele>1357.52</ele>
        <time>2016-04-29T15:03:16Z</time>
      </trkpt>
      <trkpt lat="44.89581" lon="5.44173">
        <ele>1357.52</ele>
        <time>2016-04-29T15:03:49Z</time>
      </trkpt>
      <trkpt lat="44.89581" lon="5.44173">
        <ele>1358</ele>
        <time>2016-04-29T15:04:20Z</time>
      </trkpt>
      <trkpt lat="44.8958" lon="5.44173">
        <ele>1358</ele>
        <time>2016-04-29T15:04:50Z</time>
      </trkpt>
      <trkpt lat="44.89581" lon="5.44173">
        <ele>1358</ele>
        <time>2016-04-29T15:05:20Z</time>
      </trkpt>
      <trkpt lat="44.8958" lon="5.44171">
        <ele>1358</ele>
        <time>2016-04-29T15:05:55Z</time>
      </trkpt>
      <trkpt lat="44.8958" lon="5.44171">
        <ele>1358</ele>
        <time>2016-04-29T15:06:27Z</time>
      </trkpt>
      <trkpt lat="44.89579" lon="5.4417">
        <ele>1358</ele>
        <time>2016-04-29T15:07:00Z</time>
      </trkpt>
      <trkpt lat="44.89581" lon="5.4417">
        <ele>1358</ele>
        <time>2016-04-29T15:07:33Z</time>
      </trkpt>
      <trkpt lat="44.89582" lon="5.44169">
        <ele>1358</ele>
        <time>2016-04-29T15:08:05Z</time>
      </trkpt>
      <trkpt lat="44.89581" lon="5.44168">
        <ele>1358</ele>
        <time>2016-04-29T15:08:34Z</time>
      </trkpt>
      <trkpt lat="44.8958" lon="5.44168">
        <ele>1358</ele>
        <time>2016-04-29T15:09:06Z</time>
      </trkpt>
      <trkpt lat="44.89579" lon="5.44167">
        <ele>1358</ele>
        <time>2016-04-29T15:09:35Z</time>
      </trkpt>
      <trkpt lat="44.89579" lon="5.44169">
        <ele>1358.48</ele>
        <time>2016-04-29T15:10:08Z</time>
      </trkpt>
      <trkpt lat="44.89579" lon="5.44169">
        <ele>1358</ele>
        <time>2016-04-29T15:10:45Z</time>
      </trkpt>
      <trkpt lat="44.89579" lon="5.44168">
        <ele>1358.48</ele>
        <time>2016-04-29T15:11:16Z</time>
      </trkpt>
      <trkpt lat="44.8958" lon="5.44169">
        <ele>1358.48</ele>
        <time>2016-04-29T15:11:42Z</time>
      </trkpt>
      <trkpt lat="44.8958" lon="5.4417">
        <ele>1358.96</ele>
        <time>2016-04-29T15:12:13Z</time>
      </trkpt>
      <trkpt lat="44.8958" lon="5.4417">
        <ele>1358.48</ele>
        <time>2016-04-29T15:12:44Z</time>
      </trkpt>
      <trkpt lat="44.8958" lon="5.44169">
        <ele>1358.96</ele>
        <time>2016-04-29T15:13:18Z</time>
      </trkpt>
      <trkpt lat="44.89581" lon="5.44169">
        <ele>1358.48</ele>
        <time>2016-04-29T15:13:50Z</time>
      </trkpt>
      <trkpt lat="44.89581" lon="5.4417">
        <ele>1358.48</ele>
        <time>2016-04-29T15:14:21Z</time>
      </trkpt>
      <trkpt lat="44.89581" lon="5.44172">
        <ele>1358.96</ele>
        <time>2016-04-29T15:14:53Z</time>
      </trkpt>
      <trkpt lat="44.89581" lon="5.44172">
        <ele>1359.44</ele>
        <time>2016-04-29T15:15:10Z</time>
      </trkpt>
      <trkpt lat="44.89581" lon="5.44172">
        <ele>1358.48</ele>
        <time>2016-04-29T15:15:27Z</time>
      </trkpt>
      <trkpt lat="44.89582" lon="5.44172">
        <ele>1358.48</ele>
        <time>2016-04-29T15:15:48Z</time>
      </trkpt>
      <trkpt lat="44.89581" lon="5.44172">
        <ele>1358</ele>
        <time>2016-04-29T15:16:05Z</time>
      </trkpt>
      <trkpt lat="44.8958" lon="5.44174">
        <ele>1358</ele>
        <time>2016-04-29T15:16:32Z</time>
      </trkpt>
      <trkpt lat="44.89582" lon="5.44171">
        <ele>1358.48</ele>
        <time>2016-04-29T15:16:58Z</time>
      </trkpt>
      <trkpt lat="44.89583" lon="5.44171">
        <ele>1358</ele>
        <time>2016-04-29T15:17:24Z</time>
      </trkpt>
      <trkpt lat="44.89583" lon="5.44171">
        <ele>1358.48</ele>
        <time>2016-04-29T15:17:45Z</time>
      </trkpt>
      <trkpt lat="44.89583" lon="5.44171">
        <ele>1358.96</ele>
        <time>2016-04-29T15:18:06Z</time>
      </trkpt>
      <trkpt lat="44.89584" lon="5.44172">
        <ele>1358.96</ele>
        <time>2016-04-29T15:18:38Z</time>
      </trkpt>
      <trkpt lat="44.89583" lon="5.44171">
        <ele>1358.96</ele>
        <time>2016-04-29T15:18:55Z</time>
      </trkpt>
      <trkpt lat="44.89584" lon="5.4417">
        <ele>1358.96</ele>
        <time>2016-04-29T15:18:58Z</time>
      </trkpt>
      <trkpt lat="44.89589" lon="5.44167">
        <ele>1358</ele>
        <time>2016-04-29T15:19:03Z</time>
      </trkpt>
      <trkpt lat="44.8959" lon="5.44167">
        <ele>1358</ele>
        <time>2016-04-29T15:19:04Z</time>
      </trkpt>
      <trkpt lat="44.89592" lon="5.44168">
        <ele>1358</ele>
        <time>2016-04-29T15:19:05Z</time>
      </trkpt>
      <trkpt lat="44.89594" lon="5.44169">
        <ele>1358</ele>
        <time>2016-04-29T15:19:06Z</time>
      </trkpt>
      <trkpt lat="44.89595" lon="5.4417">
        <ele>1358</ele>
        <time>2016-04-29T15:19:07Z</time>
      </trkpt>
      <trkpt lat="44.89598" lon="5.44172">
        <ele>1358</ele>
        <time>2016-04-29T15:19:08Z</time>
      </trkpt>
      <trkpt lat="44.896" lon="5.44173">
        <ele>1357.52</ele>
        <time>2016-04-29T15:19:09Z</time>
      </trkpt>
      <trkpt lat="44.89602" lon="5.44175">
        <ele>1357.52</ele>
        <time>2016-04-29T15:19:10Z</time>
      </trkpt>
      <trkpt lat="44.89603" lon="5.44177">
        <ele>1357.52</ele>
        <time>2016-04-29T15:19:11Z</time>
      </trkpt>
      <trkpt lat="44.89605" lon="5.44179">
        <ele>1357.52</ele>
        <time>2016-04-29T15:19:12Z</time>
      </trkpt>
      <trkpt lat="44.89607" lon="5.44182">
        <ele>1357.52</ele>
        <time>2016-04-29T15:19:13Z</time>
      </trkpt>
      <trkpt lat="44.89609" lon="5.44184">
        <ele>1357.52</ele>
        <time>2016-04-29T15:19:14Z</time>
      </trkpt>
      <trkpt lat="44.89626" lon="5.44217">
        <ele>1356.56</ele>
        <time>2016-04-29T15:19:25Z</time>
      </trkpt>
      <trkpt lat="44.89635" lon="5.44257">
        <ele>1356.08</ele>
        <time>2016-04-29T15:19:36Z</time>
      </trkpt>
      <trkpt lat="44.89648" lon="5.4427">
        <ele>1356.08</ele>
        <time>2016-04-29T15:19:42Z</time>
      </trkpt>
      <trkpt lat="44.89651" lon="5.44269">
        <ele>1355.6</ele>
        <time>2016-04-29T15:19:43Z</time>
      </trkpt>
      <trkpt lat="44.89654" lon="5.44268">
        <ele>1355.6</ele>
        <time>2016-04-29T15:19:44Z</time>
      </trkpt>
      <trkpt lat="44.89657" lon="5.44266">
        <ele>1355.6</ele>
        <time>2016-04-29T15:19:45Z</time>
      </trkpt>
      <trkpt lat="44.8966" lon="5.44263">
        <ele>1355.6</ele>
        <time>2016-04-29T15:19:46Z</time>
      </trkpt>
      <trkpt lat="44.89662" lon="5.44261">
        <ele>1355.6</ele>
        <time>2016-04-29T15:19:47Z</time>
      </trkpt>
      <trkpt lat="44.89694" lon="5.44219">
        <ele>1354.63</ele>
        <time>2016-04-29T15:19:59Z</time>
      </trkpt>
      <trkpt lat="44.89697" lon="5.44215">
        <ele>1354.63</ele>
        <time>2016-04-29T15:20:00Z</time>
      </trkpt>
      <trkpt lat="44.89701" lon="5.4421">
        <ele>1354.63</ele>
        <time>2016-04-29T15:20:01Z</time>
      </trkpt>
      <trkpt lat="44.89737" lon="5.44174">
        <ele>1354.15</ele>
        <time>2016-04-29T15:20:12Z</time>
      </trkpt>
      <trkpt lat="44.89771" lon="5.44159">
        <ele>1354.15</ele>
        <time>2016-04-29T15:20:22Z</time>
      </trkpt>
      <trkpt lat="44.89774" lon="5.44163">
        <ele>1353.67</ele>
        <time>2016-04-29T15:20:23Z</time>
      </trkpt>
      <trkpt lat="44.89777" lon="5.44168">
        <ele>1353.67</ele>
        <time>2016-04-29T15:20:24Z</time>
      </trkpt>
      <trkpt lat="44.89798" lon="5.44207">
        <ele>1352.23</ele>
        <time>2016-04-29T15:20:31Z</time>
      </trkpt>
      <trkpt lat="44.898" lon="5.44213">
        <ele>1351.75</ele>
        <time>2016-04-29T15:20:32Z</time>
      </trkpt>
      <trkpt lat="44.89802" lon="5.4422">
        <ele>1351.27</ele>
        <time>2016-04-29T15:20:33Z</time>
      </trkpt>
      <trkpt lat="44.89803" lon="5.44227">
        <ele>1351.27</ele>
        <time>2016-04-29T15:20:34Z</time>
      </trkpt>
      <trkpt lat="44.89804" lon="5.44234">
        <ele>1350.79</ele>
        <time>2016-04-29T15:20:35Z</time>
      </trkpt>
      <trkpt lat="44.89806" lon="5.44241">
        <ele>1350.79</ele>
        <time>2016-04-29T15:20:36Z</time>
      </trkpt>
      <trkpt lat="44.89809" lon="5.44248">
        <ele>1350.79</ele>
        <time>2016-04-29T15:20:37Z</time>
      </trkpt>
      <trkpt lat="44.89812" lon="5.44254">
        <ele>1350.79</ele>
        <time>2016-04-29T15:20:38Z</time>
      </trkpt>
      <trkpt lat="44.89834" lon="5.44294">
        <ele>1349.83</ele>
        <time>2016-04-29T15:20:45Z</time>
      </trkpt>
      <trkpt lat="44.89852" lon="5.44321">
        <ele>1350.79</ele>
        <time>2016-04-29T15:20:51Z</time>
      </trkpt>
      <trkpt lat="44.89855" lon="5.44324">
        <ele>1351.27</ele>
        <time>2016-04-29T15:20:52Z</time>
      </trkpt>
      <trkpt lat="44.89857" lon="5.44327">
        <ele>1351.27</ele>
        <time>2016-04-29T15:20:53Z</time>
      </trkpt>
      <trkpt lat="44.8986" lon="5.4433">
        <ele>1351.75</ele>
        <time>2016-04-29T15:20:54Z</time>
      </trkpt>
      <trkpt lat="44.89863" lon="5.44332">
        <ele>1351.75</ele>
        <time>2016-04-29T15:20:55Z</time>
      </trkpt>
      <trkpt lat="44.89866" lon="5.44333">
        <ele>1351.75</ele>
        <time>2016-04-29T15:20:56Z</time>
      </trkpt>
      <trkpt lat="44.8987" lon="5.44334">
        <ele>1353.67</ele>
        <time>2016-04-29T15:20:57Z</time>
      </trkpt>
      <trkpt lat="44.89873" lon="5.44334">
        <ele>1351.75</ele>
        <time>2016-04-29T15:20:58Z</time>
      </trkpt>
      <trkpt lat="44.89877" lon="5.44335">
        <ele>1352.71</ele>
        <time>2016-04-29T15:20:59Z</time>
      </trkpt>
      <trkpt lat="44.8988" lon="5.44337">
        <ele>1352.23</ele>
        <time>2016-04-29T15:21:00Z</time>
      </trkpt>
      <trkpt lat="44.89883" lon="5.44341">
        <ele>1352.23</ele>
        <time>2016-04-29T15:21:01Z</time>
      </trkpt>
      <trkpt lat="44.89885" lon="5.44345">
        <ele>1352.23</ele>
        <time>2016-04-29T15:21:02Z</time>
      </trkpt>
      <trkpt lat="44.89885" lon="5.4435">
        <ele>1352.23</ele>
        <time>2016-04-29T15:21:03Z</time>
      </trkpt>
      <trkpt lat="44.89886" lon="5.44356">
        <ele>1352.23</ele>
        <time>2016-04-29T15:21:04Z</time>
      </trkpt>
      <trkpt lat="44.89886" lon="5.44362">
        <ele>1351.75</ele>
        <time>2016-04-29T15:21:05Z</time>
      </trkpt>
      <trkpt lat="44.89885" lon="5.44368">
        <ele>1351.75</ele>
        <time>2016-04-29T15:21:06Z</time>
      </trkpt>
      <trkpt lat="44.8988" lon="5.44402">
        <ele>1351.75</ele>
        <time>2016-04-29T15:21:13Z</time>
      </trkpt>
      <trkpt lat="44.89881" lon="5.44407">
        <ele>1351.75</ele>
        <time>2016-04-29T15:21:14Z</time>
      </trkpt>
      <trkpt lat="44.8988" lon="5.44412">
        <ele>1351.75</ele>
        <time>2016-04-29T15:21:15Z</time>
      </trkpt>
      <trkpt lat="44.8988" lon="5.44417">
        <ele>1351.75</ele>
        <time>2016-04-29T15:21:16Z</time>
      </trkpt>
      <trkpt lat="44.8988" lon="5.44422">
        <ele>1351.75</ele>
        <time>2016-04-29T15:21:17Z</time>
      </trkpt>
      <trkpt lat="44.89882" lon="5.44437">
        <ele>1351.75</ele>
        <time>2016-04-29T15:21:20Z</time>
      </trkpt>
      <trkpt lat="44.89888" lon="5.44444">
        <ele>1351.75</ele>
        <time>2016-04-29T15:21:23Z</time>
      </trkpt>
      <trkpt lat="44.89891" lon="5.44443">
        <ele>1351.75</ele>
        <time>2016-04-29T15:21:24Z</time>
      </trkpt>
      <trkpt lat="44.89893" lon="5.44441">
        <ele>1351.75</ele>
        <time>2016-04-29T15:21:25Z</time>
      </trkpt>
      <trkpt lat="44.89894" lon="5.44438">
        <ele>1351.75</ele>
        <time>2016-04-29T15:21:26Z</time>
      </trkpt>
      <trkpt lat="44.89896" lon="5.44434">
        <ele>1351.75</ele>
        <time>2016-04-29T15:21:27Z</time>
      </trkpt>
      <trkpt lat="44.89897" lon="5.44431">
        <ele>1351.75</ele>
        <time>2016-04-29T15:21:28Z</time>
      </trkpt>
      <trkpt lat="44.89898" lon="5.44427">
        <ele>1351.75</ele>
        <time>2016-04-29T15:21:29Z</time>
      </trkpt>
      <trkpt lat="44.89908" lon="5.44383">
        <ele>1351.27</ele>
        <time>2016-04-29T15:21:38Z</time>
      </trkpt>
      <trkpt lat="44.89915" lon="5.44344">
        <ele>1351.27</ele>
        <time>2016-04-29T15:21:46Z</time>
      </trkpt>
      <trkpt lat="44.89917" lon="5.44309">
        <ele>1351.75</ele>
        <time>2016-04-29T15:21:52Z</time>
      </trkpt>
      <trkpt lat="44.89919" lon="5.44302">
        <ele>1351.75</ele>
        <time>2016-04-29T15:21:53Z</time>
      </trkpt>
      <trkpt lat="44.89921" lon="5.44297">
        <ele>1351.75</ele>
        <time>2016-04-29T15:21:54Z</time>
      </trkpt>
      <trkpt lat="44.89924" lon="5.44292">
        <ele>1351.27</ele>
        <time>2016-04-29T15:21:55Z</time>
      </trkpt>
      <trkpt lat="44.89927" lon="5.44287">
        <ele>1351.27</ele>
        <time>2016-04-29T15:21:56Z</time>
      </trkpt>
      <trkpt lat="44.89935" lon="5.44274">
        <ele>1351.27</ele>
        <time>2016-04-29T15:21:59Z</time>
      </trkpt>
      <trkpt lat="44.8994" lon="5.44273">
        <ele>1351.27</ele>
        <time>2016-04-29T15:22:00Z</time>
      </trkpt>
      <trkpt lat="44.89945" lon="5.44274">
        <ele>1351.27</ele>
        <time>2016-04-29T15:22:01Z</time>
      </trkpt>
      <trkpt lat="44.89948" lon="5.44277">
        <ele>1351.75</ele>
        <time>2016-04-29T15:22:02Z</time>
      </trkpt>
      <trkpt lat="44.89951" lon="5.44281">
        <ele>1351.75</ele>
        <time>2016-04-29T15:22:03Z</time>
      </trkpt>
      <trkpt lat="44.89952" lon="5.44286">
        <ele>1351.75</ele>
        <time>2016-04-29T15:22:04Z</time>
      </trkpt>
      <trkpt lat="44.89954" lon="5.4429">
        <ele>1352.23</ele>
        <time>2016-04-29T15:22:05Z</time>
      </trkpt>
      <trkpt lat="44.89954" lon="5.44294">
        <ele>1352.23</ele>
        <time>2016-04-29T15:22:06Z</time>
      </trkpt>
      <trkpt lat="44.89966" lon="5.44334">
        <ele>1353.19</ele>
        <time>2016-04-29T15:22:18Z</time>
      </trkpt>
      <trkpt lat="44.89994" lon="5.44351">
        <ele>1355.12</ele>
        <time>2016-04-29T15:22:31Z</time>
      </trkpt>
      <trkpt lat="44.90006" lon="5.44357">
        <ele>1355.6</ele>
        <time>2016-04-29T15:22:36Z</time>
      </trkpt>
      <trkpt lat="44.90011" lon="5.44362">
        <ele>1356.08</ele>
        <time>2016-04-29T15:22:38Z</time>
      </trkpt>
      <trkpt lat="44.90013" lon="5.44364">
        <ele>1356.08</ele>
        <time>2016-04-29T15:22:39Z</time>
      </trkpt>
      <trkpt lat="44.9003" lon="5.44391">
        <ele>1356.08</ele>
        <time>2016-04-29T15:22:48Z</time>
      </trkpt>
      <trkpt lat="44.90056" lon="5.44414">
        <ele>1357.04</ele>
        <time>2016-04-29T15:23:00Z</time>
      </trkpt>
      <trkpt lat="44.90086" lon="5.44415">
        <ele>1357.52</ele>
        <time>2016-04-29T15:23:10Z</time>
      </trkpt>
      <trkpt lat="44.90096" lon="5.44429">
        <ele>1358</ele>
        <time>2016-04-29T15:23:15Z</time>
      </trkpt>
      <trkpt lat="44.90096" lon="5.44432">
        <ele>1358</ele>
        <time>2016-04-29T15:23:16Z</time>
      </trkpt>
      <trkpt lat="44.90097" lon="5.44436">
        <ele>1358</ele>
        <time>2016-04-29T15:23:17Z</time>
      </trkpt>
      <trkpt lat="44.90097" lon="5.4444">
        <ele>1358</ele>
        <time>2016-04-29T15:23:18Z</time>
      </trkpt>
      <trkpt lat="44.90097" lon="5.44444">
        <ele>1358</ele>
        <time>2016-04-29T15:23:19Z</time>
      </trkpt>
      <trkpt lat="44.90096" lon="5.44448">
        <ele>1358</ele>
        <time>2016-04-29T15:23:20Z</time>
      </trkpt>
      <trkpt lat="44.90107" lon="5.44489">
        <ele>1357.52</ele>
        <time>2016-04-29T15:23:30Z</time>
      </trkpt>
      <trkpt lat="44.9011" lon="5.44491">
        <ele>1358</ele>
        <time>2016-04-29T15:23:31Z</time>
      </trkpt>
      <trkpt lat="44.90112" lon="5.44494">
        <ele>1358</ele>
        <time>2016-04-29T15:23:32Z</time>
      </trkpt>
      <trkpt lat="44.90116" lon="5.44495">
        <ele>1358</ele>
        <time>2016-04-29T15:23:33Z</time>
      </trkpt>
      <trkpt lat="44.90119" lon="5.44495">
        <ele>1357.52</ele>
        <time>2016-04-29T15:23:34Z</time>
      </trkpt>
      <trkpt lat="44.90122" lon="5.44496">
        <ele>1358</ele>
        <time>2016-04-29T15:23:35Z</time>
      </trkpt>
      <trkpt lat="44.90125" lon="5.44496">
        <ele>1358</ele>
        <time>2016-04-29T15:23:36Z</time>
      </trkpt>
      <trkpt lat="44.90128" lon="5.44494">
        <ele>1357.52</ele>
        <time>2016-04-29T15:23:37Z</time>
      </trkpt>
      <trkpt lat="44.90131" lon="5.44493">
        <ele>1358</ele>
        <time>2016-04-29T15:23:38Z</time>
      </trkpt>
      <trkpt lat="44.90156" lon="5.44477">
        <ele>1358</ele>
        <time>2016-04-29T15:23:46Z</time>
      </trkpt>
      <trkpt lat="44.90173" lon="5.44482">
        <ele>1357.52</ele>
        <time>2016-04-29T15:23:50Z</time>
      </trkpt>
      <trkpt lat="44.90177" lon="5.44484">
        <ele>1357.52</ele>
        <time>2016-04-29T15:23:51Z</time>
      </trkpt>
      <trkpt lat="44.90192" lon="5.44497">
        <ele>1357.52</ele>
        <time>2016-04-29T15:23:56Z</time>
      </trkpt>
      <trkpt lat="44.90196" lon="5.44499">
        <ele>1357.52</ele>
        <time>2016-04-29T15:23:57Z</time>
      </trkpt>
      <trkpt lat="44.90199" lon="5.44503">
        <ele>1357.52</ele>
        <time>2016-04-29T15:23:58Z</time>
      </trkpt>
      <trkpt lat="44.90201" lon="5.44507">
        <ele>1357.52</ele>
        <time>2016-04-29T15:23:59Z</time>
      </trkpt>
      <trkpt lat="44.90203" lon="5.44511">
        <ele>1357.52</ele>
        <time>2016-04-29T15:24:00Z</time>
      </trkpt>
      <trkpt lat="44.90206" lon="5.44515">
        <ele>1357.52</ele>
        <time>2016-04-29T15:24:01Z</time>
      </trkpt>
      <trkpt lat="44.90209" lon="5.44518">
        <ele>1357.52</ele>
        <time>2016-04-29T15:24:02Z</time>
      </trkpt>
      <trkpt lat="44.90218" lon="5.4453">
        <ele>1357.04</ele>
        <time>2016-04-29T15:24:05Z</time>
      </trkpt>
      <trkpt lat="44.9025" lon="5.44546">
        <ele>1358</ele>
        <time>2016-04-29T15:24:14Z</time>
      </trkpt>
      <trkpt lat="44.90254" lon="5.44544">
        <ele>1357.52</ele>
        <time>2016-04-29T15:24:15Z</time>
      </trkpt>
      <trkpt lat="44.90257" lon="5.44542">
        <ele>1357.52</ele>
        <time>2016-04-29T15:24:16Z</time>
      </trkpt>
      <trkpt lat="44.9026" lon="5.44538">
        <ele>1357.52</ele>
        <time>2016-04-29T15:24:17Z</time>
      </trkpt>
      <trkpt lat="44.90261" lon="5.44533">
        <ele>1357.52</ele>
        <time>2016-04-29T15:24:18Z</time>
      </trkpt>
      <trkpt lat="44.90262" lon="5.44529">
        <ele>1357.52</ele>
        <time>2016-04-29T15:24:19Z</time>
      </trkpt>
      <trkpt lat="44.90263" lon="5.44525">
        <ele>1357.52</ele>
        <time>2016-04-29T15:24:20Z</time>
      </trkpt>
      <trkpt lat="44.90265" lon="5.44522">
        <ele>1358</ele>
        <time>2016-04-29T15:24:21Z</time>
      </trkpt>
      <trkpt lat="44.90267" lon="5.44518">
        <ele>1358</ele>
        <time>2016-04-29T15:24:22Z</time>
      </trkpt>
      <trkpt lat="44.9027" lon="5.44515">
        <ele>1358</ele>
        <time>2016-04-29T15:24:23Z</time>
      </trkpt>
      <trkpt lat="44.90273" lon="5.44511">
        <ele>1358</ele>
        <time>2016-04-29T15:24:24Z</time>
      </trkpt>
      <trkpt lat="44.90305" lon="5.44478">
        <ele>1357.52</ele>
        <time>2016-04-29T15:24:35Z</time>
      </trkpt>
      <trkpt lat="44.90313" lon="5.44479">
        <ele>1357.52</ele>
        <time>2016-04-29T15:24:37Z</time>
      </trkpt>
      <trkpt lat="44.90317" lon="5.4448">
        <ele>1357.52</ele>
        <time>2016-04-29T15:24:38Z</time>
      </trkpt>
      <trkpt lat="44.9032" lon="5.44482">
        <ele>1358</ele>
        <time>2016-04-29T15:24:39Z</time>
      </trkpt>
      <trkpt lat="44.90334" lon="5.4449">
        <ele>1358</ele>
        <time>2016-04-29T15:24:43Z</time>
      </trkpt>
      <trkpt lat="44.90337" lon="5.4449">
        <ele>1358</ele>
        <time>2016-04-29T15:24:44Z</time>
      </trkpt>
      <trkpt lat="44.90341" lon="5.44488">
        <ele>1358</ele>
        <time>2016-04-29T15:24:45Z</time>
      </trkpt>
      <trkpt lat="44.90343" lon="5.44485">
        <ele>1358</ele>
        <time>2016-04-29T15:24:46Z</time>
      </trkpt>
      <trkpt lat="44.90345" lon="5.44482">
        <ele>1358</ele>
        <time>2016-04-29T15:24:47Z</time>
      </trkpt>
      <trkpt lat="44.90347" lon="5.44479">
        <ele>1358</ele>
        <time>2016-04-29T15:24:48Z</time>
      </trkpt>
      <trkpt lat="44.90375" lon="5.44441">
        <ele>1357.52</ele>
        <time>2016-04-29T15:24:58Z</time>
      </trkpt>
      <trkpt lat="44.90401" lon="5.44399">
        <ele>1358.48</ele>
        <time>2016-04-29T15:25:09Z</time>
      </trkpt>
      <trkpt lat="44.90411" lon="5.44368">
        <ele>1360.4</ele>
        <time>2016-04-29T15:25:19Z</time>
      </trkpt>
      <trkpt lat="44.90411" lon="5.44365">
        <ele>1360.4</ele>
        <time>2016-04-29T15:25:20Z</time>
      </trkpt>
      <trkpt lat="44.90411" lon="5.44361">
        <ele>1360.88</ele>
        <time>2016-04-29T15:25:21Z</time>
      </trkpt>
      <trkpt lat="44.9041" lon="5.44357">
        <ele>1360.88</ele>
        <time>2016-04-29T15:25:22Z</time>
      </trkpt>
      <trkpt lat="44.9041" lon="5.44353">
        <ele>1360.88</ele>
        <time>2016-04-29T15:25:23Z</time>
      </trkpt>
      <trkpt lat="44.9041" lon="5.44349">
        <ele>1360.88</ele>
        <time>2016-04-29T15:25:24Z</time>
      </trkpt>
      <trkpt lat="44.90409" lon="5.44345">
        <ele>1361.36</ele>
        <time>2016-04-29T15:25:25Z</time>
      </trkpt>
      <trkpt lat="44.90409" lon="5.44341">
        <ele>1361.36</ele>
        <time>2016-04-29T15:25:26Z</time>
      </trkpt>
      <trkpt lat="44.90408" lon="5.44338">
        <ele>1361.36</ele>
        <time>2016-04-29T15:25:27Z</time>
      </trkpt>
      <trkpt lat="44.90407" lon="5.44335">
        <ele>1361.84</ele>
        <time>2016-04-29T15:25:28Z</time>
      </trkpt>
      <trkpt lat="44.90406" lon="5.44332">
        <ele>1361.84</ele>
        <time>2016-04-29T15:25:29Z</time>
      </trkpt>
      <trkpt lat="44.90405" lon="5.44329">
        <ele>1362.33</ele>
        <time>2016-04-29T15:25:30Z</time>
      </trkpt>
      <trkpt lat="44.90404" lon="5.44326">
        <ele>1362.33</ele>
        <time>2016-04-29T15:25:31Z</time>
      </trkpt>
      <trkpt lat="44.90403" lon="5.44323">
        <ele>1362.33</ele>
        <time>2016-04-29T15:25:32Z</time>
      </trkpt>
      <trkpt lat="44.90402" lon="5.4432">
        <ele>1362.81</ele>
        <time>2016-04-29T15:25:33Z</time>
      </trkpt>
      <trkpt lat="44.90401" lon="5.44317">
        <ele>1362.81</ele>
        <time>2016-04-29T15:25:34Z</time>
      </trkpt>
      <trkpt lat="44.904" lon="5.44313">
        <ele>1363.29</ele>
        <time>2016-04-29T15:25:35Z</time>
      </trkpt>
      <trkpt lat="44.904" lon="5.4431">
        <ele>1363.29</ele>
        <time>2016-04-29T15:25:36Z</time>
      </trkpt>
      <trkpt lat="44.904" lon="5.44307">
        <ele>1363.29</ele>
        <time>2016-04-29T15:25:37Z</time>
      </trkpt>
      <trkpt lat="44.90402" lon="5.44284">
        <ele>1363.29</ele>
        <time>2016-04-29T15:25:43Z</time>
      </trkpt>
      <trkpt lat="44.90404" lon="5.4428">
        <ele>1363.29</ele>
        <time>2016-04-29T15:25:44Z</time>
      </trkpt>
      <trkpt lat="44.90409" lon="5.44264">
        <ele>1363.29</ele>
        <time>2016-04-29T15:25:48Z</time>
      </trkpt>
      <trkpt lat="44.90411" lon="5.44261">
        <ele>1363.29</ele>
        <time>2016-04-29T15:25:49Z</time>
      </trkpt>
      <trkpt lat="44.90413" lon="5.4426">
        <ele>1363.29</ele>
        <time>2016-04-29T15:25:50Z</time>
      </trkpt>
      <trkpt lat="44.90415" lon="5.44258">
        <ele>1363.29</ele>
        <time>2016-04-29T15:25:51Z</time>
      </trkpt>
      <trkpt lat="44.90417" lon="5.44257">
        <ele>1363.29</ele>
        <time>2016-04-29T15:25:52Z</time>
      </trkpt>
      <trkpt lat="44.90436" lon="5.44258">
        <ele>1365.21</ele>
        <time>2016-04-29T15:26:01Z</time>
      </trkpt>
      <trkpt lat="44.90438" lon="5.44259">
        <ele>1365.21</ele>
        <time>2016-04-29T15:26:02Z</time>
      </trkpt>
      <trkpt lat="44.90441" lon="5.44259">
        <ele>1365.69</ele>
        <time>2016-04-29T15:26:03Z</time>
      </trkpt>
      <trkpt lat="44.90455" lon="5.44263">
        <ele>1366.17</ele>
        <time>2016-04-29T15:26:09Z</time>
      </trkpt>
      <trkpt lat="44.90458" lon="5.44264">
        <ele>1366.17</ele>
        <time>2016-04-29T15:26:10Z</time>
      </trkpt>
      <trkpt lat="44.9046" lon="5.44266">
        <ele>1366.65</ele>
        <time>2016-04-29T15:26:11Z</time>
      </trkpt>
      <trkpt lat="44.90461" lon="5.44267">
        <ele>1366.65</ele>
        <time>2016-04-29T15:26:12Z</time>
      </trkpt>
      <trkpt lat="44.90463" lon="5.44269">
        <ele>1366.65</ele>
        <time>2016-04-29T15:26:13Z</time>
      </trkpt>
      <trkpt lat="44.90464" lon="5.44271">
        <ele>1367.13</ele>
        <time>2016-04-29T15:26:14Z</time>
      </trkpt>
      <trkpt lat="44.90464" lon="5.44275">
        <ele>1367.13</ele>
        <time>2016-04-29T15:26:16Z</time>
      </trkpt>
      <trkpt lat="44.90465" lon="5.44278">
        <ele>1367.61</ele>
        <time>2016-04-29T15:26:17Z</time>
      </trkpt>
      <trkpt lat="44.90465" lon="5.44283">
        <ele>1368.09</ele>
        <time>2016-04-29T15:26:19Z</time>
      </trkpt>
      <trkpt lat="44.90463" lon="5.44312">
        <ele>1369.05</ele>
        <time>2016-04-29T15:26:29Z</time>
      </trkpt>
      <trkpt lat="44.90463" lon="5.44316">
        <ele>1369.54</ele>
        <time>2016-04-29T15:26:30Z</time>
      </trkpt>
      <trkpt lat="44.90476" lon="5.44341">
        <ele>1370.5</ele>
        <time>2016-04-29T15:26:41Z</time>
      </trkpt>
      <trkpt lat="44.90489" lon="5.44354">
        <ele>1370.98</ele>
        <time>2016-04-29T15:26:49Z</time>
      </trkpt>
      <trkpt lat="44.90488" lon="5.44358">
        <ele>1370.98</ele>
        <time>2016-04-29T15:26:50Z</time>
      </trkpt>
      <trkpt lat="44.9049" lon="5.4436">
        <ele>1370.98</ele>
        <time>2016-04-29T15:26:51Z</time>
      </trkpt>
      <trkpt lat="44.90491" lon="5.44363">
        <ele>1370.98</ele>
        <time>2016-04-29T15:26:52Z</time>
      </trkpt>
      <trkpt lat="44.90493" lon="5.44365">
        <ele>1370.98</ele>
        <time>2016-04-29T15:26:53Z</time>
      </trkpt>
      <trkpt lat="44.90493" lon="5.44369">
        <ele>1370.98</ele>
        <time>2016-04-29T15:26:54Z</time>
      </trkpt>
      <trkpt lat="44.90493" lon="5.44372">
        <ele>1370.98</ele>
        <time>2016-04-29T15:26:55Z</time>
      </trkpt>
      <trkpt lat="44.9049" lon="5.44393">
        <ele>1372.42</ele>
        <time>2016-04-29T15:27:04Z</time>
      </trkpt>
      <trkpt lat="44.9049" lon="5.44395">
        <ele>1372.42</ele>
        <time>2016-04-29T15:27:05Z</time>
      </trkpt>
      <trkpt lat="44.90489" lon="5.44396">
        <ele>1372.42</ele>
        <time>2016-04-29T15:27:06Z</time>
      </trkpt>
      <trkpt lat="44.90488" lon="5.44397">
        <ele>1372.9</ele>
        <time>2016-04-29T15:27:07Z</time>
      </trkpt>
      <trkpt lat="44.90486" lon="5.44399">
        <ele>1372.9</ele>
        <time>2016-04-29T15:27:08Z</time>
      </trkpt>
      <trkpt lat="44.90485" lon="5.44403">
        <ele>1373.38</ele>
        <time>2016-04-29T15:27:09Z</time>
      </trkpt>
      <trkpt lat="44.90478" lon="5.44414">
        <ele>1373.86</ele>
        <time>2016-04-29T15:27:13Z</time>
      </trkpt>
      <trkpt lat="44.90476" lon="5.44416">
        <ele>1373.86</ele>
        <time>2016-04-29T15:27:14Z</time>
      </trkpt>
      <trkpt lat="44.90475" lon="5.44419">
        <ele>1374.34</ele>
        <time>2016-04-29T15:27:15Z</time>
      </trkpt>
      <trkpt lat="44.90464" lon="5.44445">
        <ele>1375.78</ele>
        <time>2016-04-29T15:27:26Z</time>
      </trkpt>
      <trkpt lat="44.90462" lon="5.44452">
        <ele>1376.26</ele>
        <time>2016-04-29T15:27:29Z</time>
      </trkpt>
      <trkpt lat="44.90461" lon="5.44454">
        <ele>1376.26</ele>
        <time>2016-04-29T15:27:30Z</time>
      </trkpt>
      <trkpt lat="44.90447" lon="5.44475">
        <ele>1377.23</ele>
        <time>2016-04-29T15:27:41Z</time>
      </trkpt>
      <trkpt lat="44.90438" lon="5.44486">
        <ele>1378.19</ele>
        <time>2016-04-29T15:27:48Z</time>
      </trkpt>
      <trkpt lat="44.90436" lon="5.44488">
        <ele>1378.19</ele>
        <time>2016-04-29T15:27:49Z</time>
      </trkpt>
      <trkpt lat="44.90435" lon="5.44498">
        <ele>1378.67</ele>
        <time>2016-04-29T15:27:54Z</time>
      </trkpt>
      <trkpt lat="44.9044" lon="5.44515">
        <ele>1379.15</ele>
        <time>2016-04-29T15:28:00Z</time>
      </trkpt>
      <trkpt lat="44.90446" lon="5.44516">
        <ele>1379.15</ele>
        <time>2016-04-29T15:28:03Z</time>
      </trkpt>
      <trkpt lat="44.90447" lon="5.44516">
        <ele>1379.63</ele>
        <time>2016-04-29T15:28:04Z</time>
      </trkpt>
      <trkpt lat="44.90449" lon="5.44515">
        <ele>1379.63</ele>
        <time>2016-04-29T15:28:05Z</time>
      </trkpt>
      <trkpt lat="44.9045" lon="5.44514">
        <ele>1379.63</ele>
        <time>2016-04-29T15:28:06Z</time>
      </trkpt>
      <trkpt lat="44.90451" lon="5.44513">
        <ele>1380.11</ele>
        <time>2016-04-29T15:28:07Z</time>
      </trkpt>
      <trkpt lat="44.90453" lon="5.44511">
        <ele>1380.11</ele>
        <time>2016-04-29T15:28:08Z</time>
      </trkpt>
      <trkpt lat="44.90467" lon="5.44488">
        <ele>1381.07</ele>
        <time>2016-04-29T15:28:20Z</time>
      </trkpt>
      <trkpt lat="44.90468" lon="5.44487">
        <ele>1381.07</ele>
        <time>2016-04-29T15:28:21Z</time>
      </trkpt>
      <trkpt lat="44.90469" lon="5.44485">
        <ele>1381.55</ele>
        <time>2016-04-29T15:28:22Z</time>
      </trkpt>
      <trkpt lat="44.9047" lon="5.44483">
        <ele>1381.55</ele>
        <time>2016-04-29T15:28:23Z</time>
      </trkpt>
      <trkpt lat="44.9047" lon="5.44481">
        <ele>1381.55</ele>
        <time>2016-04-29T15:28:24Z</time>
      </trkpt>
      <trkpt lat="44.90471" lon="5.44479">
        <ele>1381.55</ele>
        <time>2016-04-29T15:28:25Z</time>
      </trkpt>
      <trkpt lat="44.90473" lon="5.44477">
        <ele>1381.55</ele>
        <time>2016-04-29T15:28:26Z</time>
      </trkpt>
      <trkpt lat="44.90495" lon="5.44477">
        <ele>1382.03</ele>
        <time>2016-04-29T15:28:36Z</time>
      </trkpt>
      <trkpt lat="44.905" lon="5.44513">
        <ele>1383.47</ele>
        <time>2016-04-29T15:28:48Z</time>
      </trkpt>
      <trkpt lat="44.905" lon="5.44528">
        <ele>1383.96</ele>
        <time>2016-04-29T15:28:53Z</time>
      </trkpt>
      <trkpt lat="44.90499" lon="5.4453">
        <ele>1384.44</ele>
        <time>2016-04-29T15:28:54Z</time>
      </trkpt>
      <trkpt lat="44.90499" lon="5.44533">
        <ele>1384.44</ele>
        <time>2016-04-29T15:28:55Z</time>
      </trkpt>
      <trkpt lat="44.90495" lon="5.44574">
        <ele>1386.36</ele>
        <time>2016-04-29T15:29:10Z</time>
      </trkpt>
      <trkpt lat="44.90494" lon="5.44577">
        <ele>1386.84</ele>
        <time>2016-04-29T15:29:11Z</time>
      </trkpt>
      <trkpt lat="44.90495" lon="5.44579">
        <ele>1386.84</ele>
        <time>2016-04-29T15:29:12Z</time>
      </trkpt>
      <trkpt lat="44.90501" lon="5.44591">
        <ele>1387.32</ele>
        <time>2016-04-29T15:29:17Z</time>
      </trkpt>
      <trkpt lat="44.90502" lon="5.44592">
        <ele>1387.32</ele>
        <time>2016-04-29T15:29:18Z</time>
      </trkpt>
      <trkpt lat="44.90504" lon="5.44595">
        <ele>1387.32</ele>
        <time>2016-04-29T15:29:19Z</time>
      </trkpt>
      <trkpt lat="44.90517" lon="5.4463">
        <ele>1386.84</ele>
        <time>2016-04-29T15:29:30Z</time>
      </trkpt>
      <trkpt lat="44.90523" lon="5.44635">
        <ele>1386.84</ele>
        <time>2016-04-29T15:29:33Z</time>
      </trkpt>
      <trkpt lat="44.90526" lon="5.44636">
        <ele>1386.84</ele>
        <time>2016-04-29T15:29:34Z</time>
      </trkpt>
      <trkpt lat="44.90528" lon="5.44638">
        <ele>1386.84</ele>
        <time>2016-04-29T15:29:35Z</time>
      </trkpt>
      <trkpt lat="44.90531" lon="5.4464">
        <ele>1386.84</ele>
        <time>2016-04-29T15:29:36Z</time>
      </trkpt>
      <trkpt lat="44.90533" lon="5.44643">
        <ele>1386.84</ele>
        <time>2016-04-29T15:29:37Z</time>
      </trkpt>
      <trkpt lat="44.90535" lon="5.44647">
        <ele>1387.32</ele>
        <time>2016-04-29T15:29:38Z</time>
      </trkpt>
      <trkpt lat="44.90537" lon="5.44651">
        <ele>1386.84</ele>
        <time>2016-04-29T15:29:39Z</time>
      </trkpt>
      <trkpt lat="44.90536" lon="5.44691">
        <ele>1387.32</ele>
        <time>2016-04-29T15:29:49Z</time>
      </trkpt>
      <trkpt lat="44.90538" lon="5.44695">
        <ele>1387.32</ele>
        <time>2016-04-29T15:29:50Z</time>
      </trkpt>
      <trkpt lat="44.9054" lon="5.44698">
        <ele>1387.32</ele>
        <time>2016-04-29T15:29:51Z</time>
      </trkpt>
      <trkpt lat="44.90543" lon="5.44698">
        <ele>1386.84</ele>
        <time>2016-04-29T15:29:52Z</time>
      </trkpt>
      <trkpt lat="44.90545" lon="5.44697">
        <ele>1386.84</ele>
        <time>2016-04-29T15:29:53Z</time>
      </trkpt>
      <trkpt lat="44.90547" lon="5.44696">
        <ele>1387.32</ele>
        <time>2016-04-29T15:29:54Z</time>
      </trkpt>
      <trkpt lat="44.90549" lon="5.44694">
        <ele>1387.32</ele>
        <time>2016-04-29T15:29:55Z</time>
      </trkpt>
      <trkpt lat="44.90551" lon="5.44691">
        <ele>1387.32</ele>
        <time>2016-04-29T15:29:56Z</time>
      </trkpt>
      <trkpt lat="44.90553" lon="5.44688">
        <ele>1387.32</ele>
        <time>2016-04-29T15:29:57Z</time>
      </trkpt>
      <trkpt lat="44.90555" lon="5.44684">
        <ele>1387.32</ele>
        <time>2016-04-29T15:29:58Z</time>
      </trkpt>
      <trkpt lat="44.90558" lon="5.44681">
        <ele>1387.32</ele>
        <time>2016-04-29T15:29:59Z</time>
      </trkpt>
      <trkpt lat="44.90589" lon="5.44638">
        <ele>1387.32</ele>
        <time>2016-04-29T15:30:12Z</time>
      </trkpt>
      <trkpt lat="44.90604" lon="5.44627">
        <ele>1386.36</ele>
        <time>2016-04-29T15:30:18Z</time>
      </trkpt>
      <trkpt lat="44.90606" lon="5.44628">
        <ele>1386.84</ele>
        <time>2016-04-29T15:30:19Z</time>
      </trkpt>
      <trkpt lat="44.90608" lon="5.44629">
        <ele>1386.84</ele>
        <time>2016-04-29T15:30:20Z</time>
      </trkpt>
      <trkpt lat="44.9061" lon="5.44631">
        <ele>1386.84</ele>
        <time>2016-04-29T15:30:21Z</time>
      </trkpt>
      <trkpt lat="44.90611" lon="5.44633">
        <ele>1386.84</ele>
        <time>2016-04-29T15:30:22Z</time>
      </trkpt>
      <trkpt lat="44.90612" lon="5.44636">
        <ele>1386.84</ele>
        <time>2016-04-29T15:30:23Z</time>
      </trkpt>
      <trkpt lat="44.90616" lon="5.4467">
        <ele>1386.84</ele>
        <time>2016-04-29T15:30:32Z</time>
      </trkpt>
      <trkpt lat="44.90617" lon="5.44673">
        <ele>1386.84</ele>
        <time>2016-04-29T15:30:33Z</time>
      </trkpt>
      <trkpt lat="44.90617" lon="5.44675">
        <ele>1386.84</ele>
        <time>2016-04-29T15:30:34Z</time>
      </trkpt>
      <trkpt lat="44.90617" lon="5.44681">
        <ele>1386.84</ele>
        <time>2016-04-29T15:30:36Z</time>
      </trkpt>
      <trkpt lat="44.90615" lon="5.44685">
        <ele>1386.84</ele>
        <time>2016-04-29T15:30:37Z</time>
      </trkpt>
      <trkpt lat="44.90618" lon="5.44698">
        <ele>1386.36</ele>
        <time>2016-04-29T15:30:44Z</time>
      </trkpt>
      <trkpt lat="44.9062" lon="5.44698">
        <ele>1386.36</ele>
        <time>2016-04-29T15:30:45Z</time>
      </trkpt>
      <trkpt lat="44.90653" lon="5.44712">
        <ele>1385.88</ele>
        <time>2016-04-29T15:30:56Z</time>
      </trkpt>
      <trkpt lat="44.90684" lon="5.44708">
        <ele>1386.36</ele>
        <time>2016-04-29T15:31:03Z</time>
      </trkpt>
      <trkpt lat="44.90696" lon="5.44686">
        <ele>1386.36</ele>
        <time>2016-04-29T15:31:09Z</time>
      </trkpt>
      <trkpt lat="44.90699" lon="5.44681">
        <ele>1385.88</ele>
        <time>2016-04-29T15:31:10Z</time>
      </trkpt>
      <trkpt lat="44.90706" lon="5.44662">
        <ele>1385.88</ele>
        <time>2016-04-29T15:31:14Z</time>
      </trkpt>
      <trkpt lat="44.90706" lon="5.44657">
        <ele>1386.36</ele>
        <time>2016-04-29T15:31:15Z</time>
      </trkpt>
      <trkpt lat="44.90707" lon="5.44652">
        <ele>1386.36</ele>
        <time>2016-04-29T15:31:16Z</time>
      </trkpt>
      <trkpt lat="44.90708" lon="5.44647">
        <ele>1386.36</ele>
        <time>2016-04-29T15:31:17Z</time>
      </trkpt>
      <trkpt lat="44.90709" lon="5.44642">
        <ele>1385.88</ele>
        <time>2016-04-29T15:31:18Z</time>
      </trkpt>
      <trkpt lat="44.9071" lon="5.44637">
        <ele>1385.88</ele>
        <time>2016-04-29T15:31:19Z</time>
      </trkpt>
      <trkpt lat="44.90715" lon="5.44593">
        <ele>1386.36</ele>
        <time>2016-04-29T15:31:28Z</time>
      </trkpt>
      <trkpt lat="44.90716" lon="5.44589">
        <ele>1386.36</ele>
        <time>2016-04-29T15:31:29Z</time>
      </trkpt>
      <trkpt lat="44.90719" lon="5.44586">
        <ele>1386.36</ele>
        <time>2016-04-29T15:31:30Z</time>
      </trkpt>
      <trkpt lat="44.90746" lon="5.44545">
        <ele>1387.8</ele>
        <time>2016-04-29T15:31:43Z</time>
      </trkpt>
      <trkpt lat="44.90748" lon="5.44545">
        <ele>1388.28</ele>
        <time>2016-04-29T15:31:44Z</time>
      </trkpt>
      <trkpt lat="44.90751" lon="5.44546">
        <ele>1388.76</ele>
        <time>2016-04-29T15:31:45Z</time>
      </trkpt>
      <trkpt lat="44.90754" lon="5.44548">
        <ele>1388.76</ele>
        <time>2016-04-29T15:31:46Z</time>
      </trkpt>
      <trkpt lat="44.90757" lon="5.4455">
        <ele>1388.76</ele>
        <time>2016-04-29T15:31:47Z</time>
      </trkpt>
      <trkpt lat="44.90759" lon="5.44553">
        <ele>1388.76</ele>
        <time>2016-04-29T15:31:48Z</time>
      </trkpt>
      <trkpt lat="44.90761" lon="5.44557">
        <ele>1388.76</ele>
        <time>2016-04-29T15:31:49Z</time>
      </trkpt>
      <trkpt lat="44.90762" lon="5.4456">
        <ele>1388.76</ele>
        <time>2016-04-29T15:31:50Z</time>
      </trkpt>
      <trkpt lat="44.90763" lon="5.44564">
        <ele>1389.24</ele>
        <time>2016-04-29T15:31:51Z</time>
      </trkpt>
      <trkpt lat="44.90764" lon="5.44568">
        <ele>1389.24</ele>
        <time>2016-04-29T15:31:52Z</time>
      </trkpt>
      <trkpt lat="44.90766" lon="5.44571">
        <ele>1389.24</ele>
        <time>2016-04-29T15:31:53Z</time>
      </trkpt>
      <trkpt lat="44.90769" lon="5.44573">
        <ele>1389.24</ele>
        <time>2016-04-29T15:31:54Z</time>
      </trkpt>
      <trkpt lat="44.90788" lon="5.44582">
        <ele>1390.68</ele>
        <time>2016-04-29T15:32:03Z</time>
      </trkpt>
      <trkpt lat="44.90808" lon="5.44575">
        <ele>1391.65</ele>
        <time>2016-04-29T15:32:12Z</time>
      </trkpt>
      <trkpt lat="44.90817" lon="5.44576">
        <ele>1392.13</ele>
        <time>2016-04-29T15:32:15Z</time>
      </trkpt>
      <trkpt lat="44.9082" lon="5.44579">
        <ele>1392.13</ele>
        <time>2016-04-29T15:32:16Z</time>
      </trkpt>
      <trkpt lat="44.90822" lon="5.44581">
        <ele>1392.61</ele>
        <time>2016-04-29T15:32:17Z</time>
      </trkpt>
      <trkpt lat="44.90833" lon="5.44602">
        <ele>1393.57</ele>
        <time>2016-04-29T15:32:25Z</time>
      </trkpt>
      <trkpt lat="44.90843" lon="5.44607">
        <ele>1394.53</ele>
        <time>2016-04-29T15:32:30Z</time>
      </trkpt>
      <trkpt lat="44.90865" lon="5.44601">
        <ele>1395.97</ele>
        <time>2016-04-29T15:32:41Z</time>
      </trkpt>
      <trkpt lat="44.90896" lon="5.44588">
        <ele>1396.45</ele>
        <time>2016-04-29T15:32:55Z</time>
      </trkpt>
      <trkpt lat="44.90912" lon="5.44571">
        <ele>1397.41</ele>
        <time>2016-04-29T15:33:04Z</time>
      </trkpt>
      <trkpt lat="44.90932" lon="5.44555">
        <ele>1399.34</ele>
        <time>2016-04-29T15:33:15Z</time>
      </trkpt>
      <trkpt lat="44.90949" lon="5.44525">
        <ele>1401.26</ele>
        <time>2016-04-29T15:33:27Z</time>
      </trkpt>
      <trkpt lat="44.90959" lon="5.44498">
        <ele>1403.18</ele>
        <time>2016-04-29T15:33:38Z</time>
      </trkpt>
      <trkpt lat="44.90961" lon="5.44497">
        <ele>1403.18</ele>
        <time>2016-04-29T15:33:39Z</time>
      </trkpt>
      <trkpt lat="44.90962" lon="5.44497">
        <ele>1403.18</ele>
        <time>2016-04-29T15:33:40Z</time>
      </trkpt>
      <trkpt lat="44.90964" lon="5.44498">
        <ele>1403.66</ele>
        <time>2016-04-29T15:33:41Z</time>
      </trkpt>
      <trkpt lat="44.90965" lon="5.44499">
        <ele>1403.66</ele>
        <time>2016-04-29T15:33:42Z</time>
      </trkpt>
      <trkpt lat="44.90966" lon="5.44501">
        <ele>1403.66</ele>
        <time>2016-04-29T15:33:43Z</time>
      </trkpt>
      <trkpt lat="44.90967" lon="5.44503">
        <ele>1403.66</ele>
        <time>2016-04-29T15:33:44Z</time>
      </trkpt>
      <trkpt lat="44.90967" lon="5.44506">
        <ele>1404.14</ele>
        <time>2016-04-29T15:33:45Z</time>
      </trkpt>
      <trkpt lat="44.90967" lon="5.44508">
        <ele>1404.14</ele>
        <time>2016-04-29T15:33:46Z</time>
      </trkpt>
      <trkpt lat="44.90966" lon="5.4451">
        <ele>1404.14</ele>
        <time>2016-04-29T15:33:47Z</time>
      </trkpt>
      <trkpt lat="44.90965" lon="5.44511">
        <ele>1404.14</ele>
        <time>2016-04-29T15:33:48Z</time>
      </trkpt>
      <trkpt lat="44.90964" lon="5.44513">
        <ele>1404.62</ele>
        <time>2016-04-29T15:33:49Z</time>
      </trkpt>
      <trkpt lat="44.90963" lon="5.44515">
        <ele>1404.62</ele>
        <time>2016-04-29T15:33:50Z</time>
      </trkpt>
      <trkpt lat="44.90962" lon="5.44516">
        <ele>1404.62</ele>
        <time>2016-04-29T15:33:51Z</time>
      </trkpt>
      <trkpt lat="44.9096" lon="5.44535">
        <ele>1406.07</ele>
        <time>2016-04-29T15:34:02Z</time>
      </trkpt>
      <trkpt lat="44.90961" lon="5.44549">
        <ele>1406.55</ele>
        <time>2016-04-29T15:34:07Z</time>
      </trkpt>
      <trkpt lat="44.90962" lon="5.44552">
        <ele>1406.55</ele>
        <time>2016-04-29T15:34:08Z</time>
      </trkpt>
      <trkpt lat="44.90962" lon="5.44554">
        <ele>1407.03</ele>
        <time>2016-04-29T15:34:09Z</time>
      </trkpt>
      <trkpt lat="44.90963" lon="5.44555">
        <ele>1407.03</ele>
        <time>2016-04-29T15:34:10Z</time>
      </trkpt>
      <trkpt lat="44.90963" lon="5.44557">
        <ele>1407.03</ele>
        <time>2016-04-29T15:34:11Z</time>
      </trkpt>
      <trkpt lat="44.90964" lon="5.44559">
        <ele>1407.03</ele>
        <time>2016-04-29T15:34:12Z</time>
      </trkpt>
      <trkpt lat="44.90965" lon="5.44561">
        <ele>1407.51</ele>
        <time>2016-04-29T15:34:14Z</time>
      </trkpt>
      <trkpt lat="44.90963" lon="5.44568">
        <ele>1407.99</ele>
        <time>2016-04-29T15:34:19Z</time>
      </trkpt>
      <trkpt lat="44.90948" lon="5.44583">
        <ele>1408.95</ele>
        <time>2016-04-29T15:34:27Z</time>
      </trkpt>
      <trkpt lat="44.90945" lon="5.44592">
        <ele>1409.43</ele>
        <time>2016-04-29T15:34:31Z</time>
      </trkpt>
      <trkpt lat="44.90944" lon="5.44594">
        <ele>1409.43</ele>
        <time>2016-04-29T15:34:32Z</time>
      </trkpt>
      <trkpt lat="44.90943" lon="5.44607">
        <ele>1410.87</ele>
        <time>2016-04-29T15:34:37Z</time>
      </trkpt>
      <trkpt lat="44.90942" lon="5.44626">
        <ele>1411.35</ele>
        <time>2016-04-29T15:34:46Z</time>
      </trkpt>
      <trkpt lat="44.90938" lon="5.44631">
        <ele>1411.83</ele>
        <time>2016-04-29T15:34:49Z</time>
      </trkpt>
      <trkpt lat="44.90928" lon="5.44641">
        <ele>1412.79</ele>
        <time>2016-04-29T15:34:56Z</time>
      </trkpt>
      <trkpt lat="44.90925" lon="5.44656">
        <ele>1413.76</ele>
        <time>2016-04-29T15:35:02Z</time>
      </trkpt>
      <trkpt lat="44.90933" lon="5.44649">
        <ele>1414.24</ele>
        <time>2016-04-29T15:35:11Z</time>
      </trkpt>
      <trkpt lat="44.90946" lon="5.44624">
        <ele>1416.64</ele>
        <time>2016-04-29T15:35:25Z</time>
      </trkpt>
      <trkpt lat="44.90962" lon="5.44624">
        <ele>1418.56</ele>
        <time>2016-04-29T15:35:36Z</time>
      </trkpt>
      <trkpt lat="44.90966" lon="5.44625">
        <ele>1418.56</ele>
        <time>2016-04-29T15:35:39Z</time>
      </trkpt>
      <trkpt lat="44.90973" lon="5.44628">
        <ele>1419.52</ele>
        <time>2016-04-29T15:35:44Z</time>
      </trkpt>
      <trkpt lat="44.90979" lon="5.44633">
        <ele>1420</ele>
        <time>2016-04-29T15:35:49Z</time>
      </trkpt>
      <trkpt lat="44.90996" lon="5.44633">
        <ele>1420.97</ele>
        <time>2016-04-29T15:36:01Z</time>
      </trkpt>
      <trkpt lat="44.91015" lon="5.44612">
        <ele>1422.41</ele>
        <time>2016-04-29T15:36:13Z</time>
      </trkpt>
      <trkpt lat="44.91018" lon="5.44609">
        <ele>1422.89</ele>
        <time>2016-04-29T15:36:15Z</time>
      </trkpt>
      <trkpt lat="44.91038" lon="5.44612">
        <ele>1424.33</ele>
        <time>2016-04-29T15:36:29Z</time>
      </trkpt>
      <trkpt lat="44.91039" lon="5.44614">
        <ele>1424.81</ele>
        <time>2016-04-29T15:36:30Z</time>
      </trkpt>
      <trkpt lat="44.91057" lon="5.44626">
        <ele>1425.77</ele>
        <time>2016-04-29T15:36:41Z</time>
      </trkpt>
      <trkpt lat="44.91084" lon="5.44628">
        <ele>1426.73</ele>
        <time>2016-04-29T15:36:53Z</time>
      </trkpt>
      <trkpt lat="44.91109" lon="5.44616">
        <ele>1427.21</ele>
        <time>2016-04-29T15:37:05Z</time>
      </trkpt>
      <trkpt lat="44.9113" lon="5.44622">
        <ele>1428.18</ele>
        <time>2016-04-29T15:37:14Z</time>
      </trkpt>
      <trkpt lat="44.91155" lon="5.44629">
        <ele>1428.18</ele>
        <time>2016-04-29T15:37:23Z</time>
      </trkpt>
      <trkpt lat="44.91159" lon="5.44629">
        <ele>1428.18</ele>
        <time>2016-04-29T15:37:25Z</time>
      </trkpt>
      <trkpt lat="44.91186" lon="5.44617">
        <ele>1428.18</ele>
        <time>2016-04-29T15:37:34Z</time>
      </trkpt>
      <trkpt lat="44.91217" lon="5.44613">
        <ele>1429.62</ele>
        <time>2016-04-29T15:37:45Z</time>
      </trkpt>
      <trkpt lat="44.91221" lon="5.44612">
        <ele>1429.62</ele>
        <time>2016-04-29T15:37:48Z</time>
      </trkpt>
      <trkpt lat="44.91239" lon="5.44603">
        <ele>1430.1</ele>
        <time>2016-04-29T15:37:55Z</time>
      </trkpt>
      <trkpt lat="44.91269" lon="5.4457">
        <ele>1429.62</ele>
        <time>2016-04-29T15:38:07Z</time>
      </trkpt>
      <trkpt lat="44.91285" lon="5.4456">
        <ele>1429.62</ele>
        <time>2016-04-29T15:38:13Z</time>
      </trkpt>
      <trkpt lat="44.91291" lon="5.44591">
        <ele>1429.14</ele>
        <time>2016-04-29T15:38:21Z</time>
      </trkpt>
      <trkpt lat="44.91305" lon="5.44625">
        <ele>1429.62</ele>
        <time>2016-04-29T15:38:31Z</time>
      </trkpt>
      <trkpt lat="44.91325" lon="5.4465">
        <ele>1430.58</ele>
        <time>2016-04-29T15:38:40Z</time>
      </trkpt>
      <trkpt lat="44.91331" lon="5.44664">
        <ele>1431.06</ele>
        <time>2016-04-29T15:38:44Z</time>
      </trkpt>
      <trkpt lat="44.9135" lon="5.44686">
        <ele>1430.1</ele>
        <time>2016-04-29T15:38:53Z</time>
      </trkpt>
      <trkpt lat="44.91356" lon="5.44687">
        <ele>1430.58</ele>
        <time>2016-04-29T15:38:55Z</time>
      </trkpt>
      <trkpt lat="44.9138" lon="5.44675">
        <ele>1428.66</ele>
        <time>2016-04-29T15:39:04Z</time>
      </trkpt>
      <trkpt lat="44.91388" lon="5.44673">
        <ele>1428.18</ele>
        <time>2016-04-29T15:39:06Z</time>
      </trkpt>
      <trkpt lat="44.91397" lon="5.44677">
        <ele>1427.21</ele>
        <time>2016-04-29T15:39:08Z</time>
      </trkpt>
      <trkpt lat="44.91401" lon="5.44682">
        <ele>1426.25</ele>
        <time>2016-04-29T15:39:09Z</time>
      </trkpt>
      <trkpt lat="44.91405" lon="5.44687">
        <ele>1425.77</ele>
        <time>2016-04-29T15:39:10Z</time>
      </trkpt>
      <trkpt lat="44.9141" lon="5.44688">
        <ele>1424.81</ele>
        <time>2016-04-29T15:39:11Z</time>
      </trkpt>
      <trkpt lat="44.91416" lon="5.44687">
        <ele>1424.33</ele>
        <time>2016-04-29T15:39:12Z</time>
      </trkpt>
      <trkpt lat="44.91423" lon="5.44684">
        <ele>1423.37</ele>
        <time>2016-04-29T15:39:13Z</time>
      </trkpt>
      <trkpt lat="44.9143" lon="5.4468">
        <ele>1422.89</ele>
        <time>2016-04-29T15:39:14Z</time>
      </trkpt>
      <trkpt lat="44.91437" lon="5.44675">
        <ele>1422.89</ele>
        <time>2016-04-29T15:39:15Z</time>
      </trkpt>
      <trkpt lat="44.91443" lon="5.44671">
        <ele>1421.93</ele>
        <time>2016-04-29T15:39:16Z</time>
      </trkpt>
      <trkpt lat="44.9145" lon="5.44668">
        <ele>1421.45</ele>
        <time>2016-04-29T15:39:17Z</time>
      </trkpt>
      <trkpt lat="44.91457" lon="5.44666">
        <ele>1421.45</ele>
        <time>2016-04-29T15:39:18Z</time>
      </trkpt>
      <trkpt lat="44.91482" lon="5.44661">
        <ele>1420</ele>
        <time>2016-04-29T15:39:23Z</time>
      </trkpt>
      <trkpt lat="44.91484" lon="5.44664">
        <ele>1419.52</ele>
        <time>2016-04-29T15:39:24Z</time>
      </trkpt>
      <trkpt lat="44.91487" lon="5.44667">
        <ele>1419.52</ele>
        <time>2016-04-29T15:39:25Z</time>
      </trkpt>
      <trkpt lat="44.91491" lon="5.44672">
        <ele>1419.04</ele>
        <time>2016-04-29T15:39:26Z</time>
      </trkpt>
      <trkpt lat="44.91493" lon="5.44677">
        <ele>1418.56</ele>
        <time>2016-04-29T15:39:27Z</time>
      </trkpt>
      <trkpt lat="44.91495" lon="5.44682">
        <ele>1418.08</ele>
        <time>2016-04-29T15:39:28Z</time>
      </trkpt>
      <trkpt lat="44.91498" lon="5.44688">
        <ele>1417.6</ele>
        <time>2016-04-29T15:39:29Z</time>
      </trkpt>
      <trkpt lat="44.915" lon="5.44696">
        <ele>1417.12</ele>
        <time>2016-04-29T15:39:30Z</time>
      </trkpt>
      <trkpt lat="44.915" lon="5.44704">
        <ele>1416.64</ele>
        <time>2016-04-29T15:39:31Z</time>
      </trkpt>
      <trkpt lat="44.91503" lon="5.44751">
        <ele>1413.28</ele>
        <time>2016-04-29T15:39:36Z</time>
      </trkpt>
      <trkpt lat="44.91504" lon="5.44771">
        <ele>1412.31</ele>
        <time>2016-04-29T15:39:38Z</time>
      </trkpt>
      <trkpt lat="44.91506" lon="5.44778">
        <ele>1412.31</ele>
        <time>2016-04-29T15:39:39Z</time>
      </trkpt>
      <trkpt lat="44.91508" lon="5.44782">
        <ele>1412.31</ele>
        <time>2016-04-29T15:39:40Z</time>
      </trkpt>
      <trkpt lat="44.91511" lon="5.44785">
        <ele>1411.83</ele>
        <time>2016-04-29T15:39:41Z</time>
      </trkpt>
      <trkpt lat="44.91514" lon="5.44787">
        <ele>1411.35</ele>
        <time>2016-04-29T15:39:42Z</time>
      </trkpt>
      <trkpt lat="44.91518" lon="5.44788">
        <ele>1410.87</ele>
        <time>2016-04-29T15:39:43Z</time>
      </trkpt>
      <trkpt lat="44.91544" lon="5.44793">
        <ele>1408.47</ele>
        <time>2016-04-29T15:39:48Z</time>
      </trkpt>
      <trkpt lat="44.91549" lon="5.4479">
        <ele>1407.99</ele>
        <time>2016-04-29T15:39:49Z</time>
      </trkpt>
      <trkpt lat="44.91555" lon="5.44784">
        <ele>1407.51</ele>
        <time>2016-04-29T15:39:50Z</time>
      </trkpt>
      <trkpt lat="44.91567" lon="5.44773">
        <ele>1406.07</ele>
        <time>2016-04-29T15:39:52Z</time>
      </trkpt>
      <trkpt lat="44.91574" lon="5.4477">
        <ele>1405.58</ele>
        <time>2016-04-29T15:39:53Z</time>
      </trkpt>
      <trkpt lat="44.91581" lon="5.44768">
        <ele>1404.14</ele>
        <time>2016-04-29T15:39:54Z</time>
      </trkpt>
      <trkpt lat="44.91587" lon="5.44769">
        <ele>1403.66</ele>
        <time>2016-04-29T15:39:55Z</time>
      </trkpt>
      <trkpt lat="44.91591" lon="5.44772">
        <ele>1403.66</ele>
        <time>2016-04-29T15:39:56Z</time>
      </trkpt>
      <trkpt lat="44.91594" lon="5.44778">
        <ele>1403.18</ele>
        <time>2016-04-29T15:39:57Z</time>
      </trkpt>
      <trkpt lat="44.91595" lon="5.44785">
        <ele>1401.74</ele>
        <time>2016-04-29T15:39:58Z</time>
      </trkpt>
      <trkpt lat="44.91594" lon="5.44792">
        <ele>1401.26</ele>
        <time>2016-04-29T15:39:59Z</time>
      </trkpt>
      <trkpt lat="44.91593" lon="5.44799">
        <ele>1401.26</ele>
        <time>2016-04-29T15:40:00Z</time>
      </trkpt>
      <trkpt lat="44.91592" lon="5.44807">
        <ele>1400.78</ele>
        <time>2016-04-29T15:40:01Z</time>
      </trkpt>
      <trkpt lat="44.91593" lon="5.44814">
        <ele>1399.82</ele>
        <time>2016-04-29T15:40:02Z</time>
      </trkpt>
      <trkpt lat="44.91597" lon="5.4482">
        <ele>1399.82</ele>
        <time>2016-04-29T15:40:03Z</time>
      </trkpt>
      <trkpt lat="44.91602" lon="5.44823">
        <ele>1399.34</ele>
        <time>2016-04-29T15:40:04Z</time>
      </trkpt>
      <trkpt lat="44.91608" lon="5.44824">
        <ele>1398.37</ele>
        <time>2016-04-29T15:40:05Z</time>
      </trkpt>
      <trkpt lat="44.91614" lon="5.44826">
        <ele>1398.37</ele>
        <time>2016-04-29T15:40:06Z</time>
      </trkpt>
      <trkpt lat="44.91619" lon="5.44828">
        <ele>1397.41</ele>
        <time>2016-04-29T15:40:07Z</time>
      </trkpt>
      <trkpt lat="44.91645" lon="5.44846">
        <ele>1396.93</ele>
        <time>2016-04-29T15:40:12Z</time>
      </trkpt>
      <trkpt lat="44.91666" lon="5.4487">
        <ele>1395.01</ele>
        <time>2016-04-29T15:40:16Z</time>
      </trkpt>
      <trkpt lat="44.91686" lon="5.44885">
        <ele>1392.13</ele>
        <time>2016-04-29T15:40:19Z</time>
      </trkpt>
      <trkpt lat="44.91694" lon="5.44888">
        <ele>1392.13</ele>
        <time>2016-04-29T15:40:20Z</time>
      </trkpt>
      <trkpt lat="44.91701" lon="5.4489">
        <ele>1391.17</ele>
        <time>2016-04-29T15:40:21Z</time>
      </trkpt>
      <trkpt lat="44.91708" lon="5.44893">
        <ele>1390.68</ele>
        <time>2016-04-29T15:40:22Z</time>
      </trkpt>
      <trkpt lat="44.91715" lon="5.44897">
        <ele>1390.2</ele>
        <time>2016-04-29T15:40:23Z</time>
      </trkpt>
      <trkpt lat="44.91721" lon="5.44901">
        <ele>1390.2</ele>
        <time>2016-04-29T15:40:24Z</time>
      </trkpt>
      <trkpt lat="44.91728" lon="5.44905">
        <ele>1390.2</ele>
        <time>2016-04-29T15:40:25Z</time>
      </trkpt>
      <trkpt lat="44.91734" lon="5.44906">
        <ele>1389.72</ele>
        <time>2016-04-29T15:40:26Z</time>
      </trkpt>
      <trkpt lat="44.9174" lon="5.44907">
        <ele>1390.2</ele>
        <time>2016-04-29T15:40:27Z</time>
      </trkpt>
      <trkpt lat="44.91759" lon="5.44908">
        <ele>1389.24</ele>
        <time>2016-04-29T15:40:30Z</time>
      </trkpt>
      <trkpt lat="44.91766" lon="5.44906">
        <ele>1388.76</ele>
        <time>2016-04-29T15:40:31Z</time>
      </trkpt>
      <trkpt lat="44.91772" lon="5.44902">
        <ele>1387.8</ele>
        <time>2016-04-29T15:40:32Z</time>
      </trkpt>
      <trkpt lat="44.91779" lon="5.44897">
        <ele>1387.32</ele>
        <time>2016-04-29T15:40:33Z</time>
      </trkpt>
      <trkpt lat="44.91785" lon="5.44893">
        <ele>1386.36</ele>
        <time>2016-04-29T15:40:34Z</time>
      </trkpt>
      <trkpt lat="44.91791" lon="5.44892">
        <ele>1385.88</ele>
        <time>2016-04-29T15:40:35Z</time>
      </trkpt>
      <trkpt lat="44.91797" lon="5.44894">
        <ele>1385.4</ele>
        <time>2016-04-29T15:40:36Z</time>
      </trkpt>
      <trkpt lat="44.91802" lon="5.44898">
        <ele>1384.92</ele>
        <time>2016-04-29T15:40:37Z</time>
      </trkpt>
      <trkpt lat="44.91807" lon="5.44903">
        <ele>1384.44</ele>
        <time>2016-04-29T15:40:38Z</time>
      </trkpt>
      <trkpt lat="44.91818" lon="5.44917">
        <ele>1384.44</ele>
        <time>2016-04-29T15:40:41Z</time>
      </trkpt>
      <trkpt lat="44.91821" lon="5.44923">
        <ele>1383.96</ele>
        <time>2016-04-29T15:40:42Z</time>
      </trkpt>
      <trkpt lat="44.91823" lon="5.44929">
        <ele>1383.47</ele>
        <time>2016-04-29T15:40:43Z</time>
      </trkpt>
      <trkpt lat="44.91824" lon="5.44934">
        <ele>1383.47</ele>
        <time>2016-04-29T15:40:44Z</time>
      </trkpt>
      <trkpt lat="44.91825" lon="5.4494">
        <ele>1383.96</ele>
        <time>2016-04-29T15:40:45Z</time>
      </trkpt>
      <trkpt lat="44.91828" lon="5.44944">
        <ele>1383.96</ele>
        <time>2016-04-29T15:40:46Z</time>
      </trkpt>
      <trkpt lat="44.91832" lon="5.44948">
        <ele>1383.96</ele>
        <time>2016-04-29T15:40:47Z</time>
      </trkpt>
      <trkpt lat="44.91835" lon="5.44951">
        <ele>1383.96</ele>
        <time>2016-04-29T15:40:48Z</time>
      </trkpt>
      <trkpt lat="44.9184" lon="5.44954">
        <ele>1383.47</ele>
        <time>2016-04-29T15:40:49Z</time>
      </trkpt>
      <trkpt lat="44.91846" lon="5.44956">
        <ele>1382.99</ele>
        <time>2016-04-29T15:40:50Z</time>
      </trkpt>
      <trkpt lat="44.91858" lon="5.44957">
        <ele>1382.03</ele>
        <time>2016-04-29T15:40:52Z</time>
      </trkpt>
      <trkpt lat="44.91863" lon="5.44956">
        <ele>1381.55</ele>
        <time>2016-04-29T15:40:53Z</time>
      </trkpt>
      <trkpt lat="44.9188" lon="5.44951">
        <ele>1380.11</ele>
        <time>2016-04-29T15:40:56Z</time>
      </trkpt>
      <trkpt lat="44.91884" lon="5.44948">
        <ele>1380.11</ele>
        <time>2016-04-29T15:40:57Z</time>
      </trkpt>
      <trkpt lat="44.91888" lon="5.44943">
        <ele>1379.15</ele>
        <time>2016-04-29T15:40:58Z</time>
      </trkpt>
      <trkpt lat="44.91893" lon="5.44939">
        <ele>1378.19</ele>
        <time>2016-04-29T15:40:59Z</time>
      </trkpt>
      <trkpt lat="44.91901" lon="5.44935">
        <ele>1378.19</ele>
        <time>2016-04-29T15:41:00Z</time>
      </trkpt>
      <trkpt lat="44.91908" lon="5.44932">
        <ele>1377.71</ele>
        <time>2016-04-29T15:41:01Z</time>
      </trkpt>
      <trkpt lat="44.91914" lon="5.4493">
        <ele>1377.23</ele>
        <time>2016-04-29T15:41:02Z</time>
      </trkpt>
      <trkpt lat="44.91919" lon="5.44931">
        <ele>1376.75</ele>
        <time>2016-04-29T15:41:03Z</time>
      </trkpt>
      <trkpt lat="44.91924" lon="5.44935">
        <ele>1376.75</ele>
        <time>2016-04-29T15:41:04Z</time>
      </trkpt>
      <trkpt lat="44.91927" lon="5.44941">
        <ele>1376.75</ele>
        <time>2016-04-29T15:41:05Z</time>
      </trkpt>
      <trkpt lat="44.91929" lon="5.44949">
        <ele>1375.78</ele>
        <time>2016-04-29T15:41:06Z</time>
      </trkpt>
      <trkpt lat="44.91929" lon="5.44956">
        <ele>1375.3</ele>
        <time>2016-04-29T15:41:07Z</time>
      </trkpt>
      <trkpt lat="44.91931" lon="5.44979">
        <ele>1373.86</ele>
        <time>2016-04-29T15:41:10Z</time>
      </trkpt>
      <trkpt lat="44.91935" lon="5.44985">
        <ele>1373.38</ele>
        <time>2016-04-29T15:41:11Z</time>
      </trkpt>
      <trkpt lat="44.9194" lon="5.44989">
        <ele>1372.9</ele>
        <time>2016-04-29T15:41:12Z</time>
      </trkpt>
      <trkpt lat="44.91946" lon="5.44989">
        <ele>1371.94</ele>
        <time>2016-04-29T15:41:13Z</time>
      </trkpt>
      <trkpt lat="44.91952" lon="5.44986">
        <ele>1371.94</ele>
        <time>2016-04-29T15:41:14Z</time>
      </trkpt>
      <trkpt lat="44.91958" lon="5.44982">
        <ele>1371.94</ele>
        <time>2016-04-29T15:41:15Z</time>
      </trkpt>
      <trkpt lat="44.91963" lon="5.44977">
        <ele>1370.98</ele>
        <time>2016-04-29T15:41:16Z</time>
      </trkpt>
      <trkpt lat="44.91993" lon="5.44949">
        <ele>1367.61</ele>
        <time>2016-04-29T15:41:21Z</time>
      </trkpt>
      <trkpt lat="44.91999" lon="5.44946">
        <ele>1367.13</ele>
        <time>2016-04-29T15:41:22Z</time>
      </trkpt>
      <trkpt lat="44.92004" lon="5.44946">
        <ele>1367.13</ele>
        <time>2016-04-29T15:41:23Z</time>
      </trkpt>
      <trkpt lat="44.9201" lon="5.44949">
        <ele>1366.65</ele>
        <time>2016-04-29T15:41:24Z</time>
      </trkpt>
      <trkpt lat="44.92014" lon="5.44954">
        <ele>1365.69</ele>
        <time>2016-04-29T15:41:25Z</time>
      </trkpt>
      <trkpt lat="44.92016" lon="5.44961">
        <ele>1364.73</ele>
        <time>2016-04-29T15:41:26Z</time>
      </trkpt>
      <trkpt lat="44.92016" lon="5.4497">
        <ele>1364.25</ele>
        <time>2016-04-29T15:41:27Z</time>
      </trkpt>
      <trkpt lat="44.92016" lon="5.44978">
        <ele>1363.77</ele>
        <time>2016-04-29T15:41:28Z</time>
      </trkpt>
      <trkpt lat="44.92016" lon="5.44987">
        <ele>1362.81</ele>
        <time>2016-04-29T15:41:29Z</time>
      </trkpt>
      <trkpt lat="44.92018" lon="5.44995">
        <ele>1362.33</ele>
        <time>2016-04-29T15:41:30Z</time>
      </trkpt>
      <trkpt lat="44.9202" lon="5.45001">
        <ele>1361.84</ele>
        <time>2016-04-29T15:41:31Z</time>
      </trkpt>
      <trkpt lat="44.92023" lon="5.45004">
        <ele>1361.84</ele>
        <time>2016-04-29T15:41:32Z</time>
      </trkpt>
      <trkpt lat="44.92027" lon="5.45004">
        <ele>1361.36</ele>
        <time>2016-04-29T15:41:33Z</time>
      </trkpt>
      <trkpt lat="44.92031" lon="5.45002">
        <ele>1361.36</ele>
        <time>2016-04-29T15:41:34Z</time>
      </trkpt>
      <trkpt lat="44.92051" lon="5.44995">
        <ele>1360.88</ele>
        <time>2016-04-29T15:41:38Z</time>
      </trkpt>
      <trkpt lat="44.9206" lon="5.44993">
        <ele>1359.44</ele>
        <time>2016-04-29T15:41:40Z</time>
      </trkpt>
      <trkpt lat="44.92066" lon="5.44993">
        <ele>1358.96</ele>
        <time>2016-04-29T15:41:41Z</time>
      </trkpt>
      <trkpt lat="44.92071" lon="5.44995">
        <ele>1358</ele>
        <time>2016-04-29T15:41:42Z</time>
      </trkpt>
      <trkpt lat="44.92077" lon="5.44999">
        <ele>1358</ele>
        <time>2016-04-29T15:41:43Z</time>
      </trkpt>
      <trkpt lat="44.92082" lon="5.45003">
        <ele>1357.52</ele>
        <time>2016-04-29T15:41:44Z</time>
      </trkpt>
      <trkpt lat="44.92087" lon="5.45008">
        <ele>1357.04</ele>
        <time>2016-04-29T15:41:45Z</time>
      </trkpt>
      <trkpt lat="44.92094" lon="5.45011">
        <ele>1356.56</ele>
        <time>2016-04-29T15:41:46Z</time>
      </trkpt>
      <trkpt lat="44.921" lon="5.4501">
        <ele>1355.6</ele>
        <time>2016-04-29T15:41:47Z</time>
      </trkpt>
      <trkpt lat="44.92107" lon="5.45007">
        <ele>1355.12</ele>
        <time>2016-04-29T15:41:48Z</time>
      </trkpt>
      <trkpt lat="44.92112" lon="5.45004">
        <ele>1355.12</ele>
        <time>2016-04-29T15:41:49Z</time>
      </trkpt>
      <trkpt lat="44.92116" lon="5.45002">
        <ele>1354.63</ele>
        <time>2016-04-29T15:41:50Z</time>
      </trkpt>
      <trkpt lat="44.92119" lon="5.45003">
        <ele>1354.15</ele>
        <time>2016-04-29T15:41:51Z</time>
      </trkpt>
      <trkpt lat="44.92121" lon="5.45005">
        <ele>1353.67</ele>
        <time>2016-04-29T15:41:52Z</time>
      </trkpt>
      <trkpt lat="44.92121" lon="5.45009">
        <ele>1353.67</ele>
        <time>2016-04-29T15:41:53Z</time>
      </trkpt>
      <trkpt lat="44.9212" lon="5.45012">
        <ele>1353.19</ele>
        <time>2016-04-29T15:41:54Z</time>
      </trkpt>
      <trkpt lat="44.92117" lon="5.45015">
        <ele>1352.71</ele>
        <time>2016-04-29T15:41:55Z</time>
      </trkpt>
      <trkpt lat="44.92113" lon="5.45017">
        <ele>1352.23</ele>
        <time>2016-04-29T15:41:56Z</time>
      </trkpt>
      <trkpt lat="44.92109" lon="5.45019">
        <ele>1352.23</ele>
        <time>2016-04-29T15:41:57Z</time>
      </trkpt>
      <trkpt lat="44.92105" lon="5.45022">
        <ele>1351.75</ele>
        <time>2016-04-29T15:41:58Z</time>
      </trkpt>
      <trkpt lat="44.92069" lon="5.4505">
        <ele>1347.91</ele>
        <time>2016-04-29T15:42:05Z</time>
      </trkpt>
      <trkpt lat="44.92064" lon="5.45055">
        <ele>1347.43</ele>
        <time>2016-04-29T15:42:06Z</time>
      </trkpt>
      <trkpt lat="44.92055" lon="5.45067">
        <ele>1346.46</ele>
        <time>2016-04-29T15:42:08Z</time>
      </trkpt>
      <trkpt lat="44.92044" lon="5.4509">
        <ele>1345.02</ele>
        <time>2016-04-29T15:42:11Z</time>
      </trkpt>
      <trkpt lat="44.92042" lon="5.45099">
        <ele>1344.54</ele>
        <time>2016-04-29T15:42:12Z</time>
      </trkpt>
      <trkpt lat="44.92041" lon="5.45109">
        <ele>1344.06</ele>
        <time>2016-04-29T15:42:13Z</time>
      </trkpt>
      <trkpt lat="44.92041" lon="5.45117">
        <ele>1343.1</ele>
        <time>2016-04-29T15:42:14Z</time>
      </trkpt>
      <trkpt lat="44.92043" lon="5.45125">
        <ele>1342.14</ele>
        <time>2016-04-29T15:42:15Z</time>
      </trkpt>
      <trkpt lat="44.92047" lon="5.45131">
        <ele>1341.18</ele>
        <time>2016-04-29T15:42:16Z</time>
      </trkpt>
      <trkpt lat="44.92052" lon="5.45136">
        <ele>1340.7</ele>
        <time>2016-04-29T15:42:17Z</time>
      </trkpt>
      <trkpt lat="44.92058" lon="5.45141">
        <ele>1339.73</ele>
        <time>2016-04-29T15:42:18Z</time>
      </trkpt>
      <trkpt lat="44.92066" lon="5.45145">
        <ele>1339.25</ele>
        <time>2016-04-29T15:42:19Z</time>
      </trkpt>
      <trkpt lat="44.92073" lon="5.45149">
        <ele>1338.29</ele>
        <time>2016-04-29T15:42:20Z</time>
      </trkpt>
      <trkpt lat="44.9208" lon="5.45153">
        <ele>1337.81</ele>
        <time>2016-04-29T15:42:21Z</time>
      </trkpt>
      <trkpt lat="44.92086" lon="5.45159">
        <ele>1337.33</ele>
        <time>2016-04-29T15:42:22Z</time>
      </trkpt>
      <trkpt lat="44.92092" lon="5.45166">
        <ele>1335.89</ele>
        <time>2016-04-29T15:42:23Z</time>
      </trkpt>
      <trkpt lat="44.92097" lon="5.45174">
        <ele>1334.93</ele>
        <time>2016-04-29T15:42:24Z</time>
      </trkpt>
      <trkpt lat="44.92101" lon="5.45183">
        <ele>1334.45</ele>
        <time>2016-04-29T15:42:25Z</time>
      </trkpt>
      <trkpt lat="44.92106" lon="5.45192">
        <ele>1332.52</ele>
        <time>2016-04-29T15:42:26Z</time>
      </trkpt>
      <trkpt lat="44.92116" lon="5.45219">
        <ele>1330.6</ele>
        <time>2016-04-29T15:42:29Z</time>
      </trkpt>
      <trkpt lat="44.92118" lon="5.45228">
        <ele>1329.64</ele>
        <time>2016-04-29T15:42:30Z</time>
      </trkpt>
      <trkpt lat="44.92124" lon="5.45256">
        <ele>1328.2</ele>
        <time>2016-04-29T15:42:33Z</time>
      </trkpt>
      <trkpt lat="44.92124" lon="5.45265">
        <ele>1327.24</ele>
        <time>2016-04-29T15:42:34Z</time>
      </trkpt>
      <trkpt lat="44.92127" lon="5.45295">
        <ele>1324.35</ele>
        <time>2016-04-29T15:42:37Z</time>
      </trkpt>
      <trkpt lat="44.92128" lon="5.45306">
        <ele>1323.39</ele>
        <time>2016-04-29T15:42:38Z</time>
      </trkpt>
      <trkpt lat="44.92128" lon="5.45318">
        <ele>1322.91</ele>
        <time>2016-04-29T15:42:39Z</time>
      </trkpt>
      <trkpt lat="44.92129" lon="5.45329">
        <ele>1321.95</ele>
        <time>2016-04-29T15:42:40Z</time>
      </trkpt>
      <trkpt lat="44.9213" lon="5.45341">
        <ele>1320.51</ele>
        <time>2016-04-29T15:42:41Z</time>
      </trkpt>
      <trkpt lat="44.92131" lon="5.45353">
        <ele>1320.03</ele>
        <time>2016-04-29T15:42:42Z</time>
      </trkpt>
      <trkpt lat="44.92135" lon="5.45386">
        <ele>1317.14</ele>
        <time>2016-04-29T15:42:45Z</time>
      </trkpt>
      <trkpt lat="44.92137" lon="5.45396">
        <ele>1316.18</ele>
        <time>2016-04-29T15:42:46Z</time>
      </trkpt>
      <trkpt lat="44.9214" lon="5.45406">
        <ele>1315.7</ele>
        <time>2016-04-29T15:42:47Z</time>
      </trkpt>
      <trkpt lat="44.92143" lon="5.45415">
        <ele>1314.74</ele>
        <time>2016-04-29T15:42:48Z</time>
      </trkpt>
      <trkpt lat="44.92147" lon="5.45424">
        <ele>1313.78</ele>
        <time>2016-04-29T15:42:49Z</time>
      </trkpt>
      <trkpt lat="44.92156" lon="5.45442">
        <ele>1310.41</ele>
        <time>2016-04-29T15:42:51Z</time>
      </trkpt>
      <trkpt lat="44.92161" lon="5.45449">
        <ele>1310.41</ele>
        <time>2016-04-29T15:42:52Z</time>
      </trkpt>
      <trkpt lat="44.92168" lon="5.45453">
        <ele>1310.41</ele>
        <time>2016-04-29T15:42:53Z</time>
      </trkpt>
      <trkpt lat="44.92174" lon="5.45456">
        <ele>1310.41</ele>
        <time>2016-04-29T15:42:54Z</time>
      </trkpt>
      <trkpt lat="44.92181" lon="5.45458">
        <ele>1310.41</ele>
        <time>2016-04-29T15:42:55Z</time>
      </trkpt>
      <trkpt lat="44.92187" lon="5.45461">
        <ele>1310.9</ele>
        <time>2016-04-29T15:42:56Z</time>
      </trkpt>
      <trkpt lat="44.92194" lon="5.45465">
        <ele>1310.9</ele>
        <time>2016-04-29T15:42:57Z</time>
      </trkpt>
      <trkpt lat="44.92201" lon="5.45467">
        <ele>1310.41</ele>
        <time>2016-04-29T15:42:58Z</time>
      </trkpt>
      <trkpt lat="44.92221" lon="5.45474">
        <ele>1311.38</ele>
        <time>2016-04-29T15:43:01Z</time>
      </trkpt>
      <trkpt lat="44.92226" lon="5.45477">
        <ele>1311.38</ele>
        <time>2016-04-29T15:43:02Z</time>
      </trkpt>
      <trkpt lat="44.92228" lon="5.45482">
        <ele>1310.9</ele>
        <time>2016-04-29T15:43:03Z</time>
      </trkpt>
      <trkpt lat="44.92231" lon="5.45487">
        <ele>1311.38</ele>
        <time>2016-04-29T15:43:04Z</time>
      </trkpt>
      <trkpt lat="44.92233" lon="5.45492">
        <ele>1311.38</ele>
        <time>2016-04-29T15:43:05Z</time>
      </trkpt>
      <trkpt lat="44.92238" lon="5.4555">
        <ele>1311.86</ele>
        <time>2016-04-29T15:43:17Z</time>
      </trkpt>
      <trkpt lat="44.92253" lon="5.45544">
        <ele>1312.34</ele>
        <time>2016-04-29T15:43:25Z</time>
      </trkpt>
      <trkpt lat="44.92254" lon="5.45545">
        <ele>1311.86</ele>
        <time>2016-04-29T15:43:44Z</time>
      </trkpt>
      <trkpt lat="44.92257" lon="5.45544">
        <ele>1311.86</ele>
        <time>2016-04-29T15:43:54Z</time>
      </trkpt>
      <trkpt lat="44.92257" lon="5.45542">
        <ele>1311.86</ele>
        <time>2016-04-29T15:44:22Z</time>
      </trkpt>
      <trkpt lat="44.92257" lon="5.45543">
        <ele>1312.34</ele>
        <time>2016-04-29T15:44:48Z</time>
      </trkpt>
      <trkpt lat="44.92258" lon="5.45539">
        <ele>1312.34</ele>
        <time>2016-04-29T15:45:03Z</time>
      </trkpt>
      <trkpt lat="44.92259" lon="5.45537">
        <ele>1311.86</ele>
        <time>2016-04-29T15:45:04Z</time>
      </trkpt>
      <trkpt lat="44.9226" lon="5.45534">
        <ele>1311.86</ele>
        <time>2016-04-29T15:45:05Z</time>
      </trkpt>
      <trkpt lat="44.92261" lon="5.4553">
        <ele>1311.86</ele>
        <time>2016-04-29T15:45:06Z</time>
      </trkpt>
      <trkpt lat="44.92262" lon="5.45525">
        <ele>1311.38</ele>
        <time>2016-04-29T15:45:07Z</time>
      </trkpt>
      <trkpt lat="44.92262" lon="5.45521">
        <ele>1311.38</ele>
        <time>2016-04-29T15:45:08Z</time>
      </trkpt>
      <trkpt lat="44.92263" lon="5.45517">
        <ele>1310.9</ele>
        <time>2016-04-29T15:45:09Z</time>
      </trkpt>
      <trkpt lat="44.92262" lon="5.4551">
        <ele>1310.41</ele>
        <time>2016-04-29T15:45:10Z</time>
      </trkpt>
      <trkpt lat="44.92261" lon="5.45502">
        <ele>1309.45</ele>
        <time>2016-04-29T15:45:11Z</time>
      </trkpt>
      <trkpt lat="44.9226" lon="5.45484">
        <ele>1308.49</ele>
        <time>2016-04-29T15:45:13Z</time>
      </trkpt>
      <trkpt lat="44.9226" lon="5.45474">
        <ele>1307.53</ele>
        <time>2016-04-29T15:45:14Z</time>
      </trkpt>
      <trkpt lat="44.92262" lon="5.45431">
        <ele>1305.13</ele>
        <time>2016-04-29T15:45:18Z</time>
      </trkpt>
      <trkpt lat="44.92261" lon="5.45421">
        <ele>1304.65</ele>
        <time>2016-04-29T15:45:19Z</time>
      </trkpt>
      <trkpt lat="44.92256" lon="5.4541">
        <ele>1304.17</ele>
        <time>2016-04-29T15:45:20Z</time>
      </trkpt>
      <trkpt lat="44.92251" lon="5.45399">
        <ele>1304.17</ele>
        <time>2016-04-29T15:45:21Z</time>
      </trkpt>
      <trkpt lat="44.92246" lon="5.45391">
        <ele>1303.2</ele>
        <time>2016-04-29T15:45:22Z</time>
      </trkpt>
      <trkpt lat="44.92241" lon="5.45383">
        <ele>1303.69</ele>
        <time>2016-04-29T15:45:23Z</time>
      </trkpt>
      <trkpt lat="44.92238" lon="5.45377">
        <ele>1303.2</ele>
        <time>2016-04-29T15:45:24Z</time>
      </trkpt>
      <trkpt lat="44.92235" lon="5.45371">
        <ele>1303.69</ele>
        <time>2016-04-29T15:45:25Z</time>
      </trkpt>
      <trkpt lat="44.92234" lon="5.45367">
        <ele>1303.2</ele>
        <time>2016-04-29T15:45:26Z</time>
      </trkpt>
      <trkpt lat="44.92233" lon="5.45363">
        <ele>1303.69</ele>
        <time>2016-04-29T15:45:27Z</time>
      </trkpt>
      <trkpt lat="44.92233" lon="5.45359">
        <ele>1303.69</ele>
        <time>2016-04-29T15:45:28Z</time>
      </trkpt>
      <trkpt lat="44.92232" lon="5.45355">
        <ele>1303.2</ele>
        <time>2016-04-29T15:45:29Z</time>
      </trkpt>
      <trkpt lat="44.9223" lon="5.45316">
        <ele>1302.24</ele>
        <time>2016-04-29T15:45:37Z</time>
      </trkpt>
      <trkpt lat="44.9223" lon="5.4531">
        <ele>1302.24</ele>
        <time>2016-04-29T15:45:38Z</time>
      </trkpt>
      <trkpt lat="44.9223" lon="5.45303">
        <ele>1302.24</ele>
        <time>2016-04-29T15:45:39Z</time>
      </trkpt>
      <trkpt lat="44.9223" lon="5.45297">
        <ele>1302.24</ele>
        <time>2016-04-29T15:45:40Z</time>
      </trkpt>
      <trkpt lat="44.9223" lon="5.4529">
        <ele>1302.24</ele>
        <time>2016-04-29T15:45:41Z</time>
      </trkpt>
      <trkpt lat="44.92231" lon="5.45284">
        <ele>1301.76</ele>
        <time>2016-04-29T15:45:42Z</time>
      </trkpt>
      <trkpt lat="44.92233" lon="5.45271">
        <ele>1300.8</ele>
        <time>2016-04-29T15:45:44Z</time>
      </trkpt>
      <trkpt lat="44.92235" lon="5.45265">
        <ele>1300.8</ele>
        <time>2016-04-29T15:45:45Z</time>
      </trkpt>
      <trkpt lat="44.92254" lon="5.45195">
        <ele>1299.84</ele>
        <time>2016-04-29T15:45:58Z</time>
      </trkpt>
      <trkpt lat="44.9227" lon="5.45138">
        <ele>1299.84</ele>
        <time>2016-04-29T15:46:11Z</time>
      </trkpt>
      <trkpt lat="44.92273" lon="5.45091">
        <ele>1299.84</ele>
        <time>2016-04-29T15:46:21Z</time>
      </trkpt>
      <trkpt lat="44.92277" lon="5.45073">
        <ele>1299.36</ele>
        <time>2016-04-29T15:46:24Z</time>
      </trkpt>
      <trkpt lat="44.92279" lon="5.45067">
        <ele>1299.84</ele>
        <time>2016-04-29T15:46:25Z</time>
      </trkpt>
      <trkpt lat="44.92283" lon="5.45062">
        <ele>1299.36</ele>
        <time>2016-04-29T15:46:26Z</time>
      </trkpt>
      <trkpt lat="44.92289" lon="5.45051">
        <ele>1298.88</ele>
        <time>2016-04-29T15:46:28Z</time>
      </trkpt>
      <trkpt lat="44.92297" lon="5.45034">
        <ele>1298.88</ele>
        <time>2016-04-29T15:46:31Z</time>
      </trkpt>
      <trkpt lat="44.92302" lon="5.45016">
        <ele>1298.4</ele>
        <time>2016-04-29T15:46:34Z</time>
      </trkpt>
      <trkpt lat="44.92308" lon="5.44998">
        <ele>1298.4</ele>
        <time>2016-04-29T15:46:37Z</time>
      </trkpt>
      <trkpt lat="44.92314" lon="5.44987">
        <ele>1297.92</ele>
        <time>2016-04-29T15:46:39Z</time>
      </trkpt>
      <trkpt lat="44.92316" lon="5.44981">
        <ele>1297.92</ele>
        <time>2016-04-29T15:46:40Z</time>
      </trkpt>
      <trkpt lat="44.92321" lon="5.44968">
        <ele>1297.92</ele>
        <time>2016-04-29T15:46:42Z</time>
      </trkpt>
      <trkpt lat="44.92322" lon="5.44962">
        <ele>1297.44</ele>
        <time>2016-04-29T15:46:43Z</time>
      </trkpt>
      <trkpt lat="44.92323" lon="5.44955">
        <ele>1297.44</ele>
        <time>2016-04-29T15:46:44Z</time>
      </trkpt>
      <trkpt lat="44.92322" lon="5.44948">
        <ele>1296.96</ele>
        <time>2016-04-29T15:46:45Z</time>
      </trkpt>
      <trkpt lat="44.92322" lon="5.4494">
        <ele>1296.96</ele>
        <time>2016-04-29T15:46:46Z</time>
      </trkpt>
      <trkpt lat="44.92323" lon="5.44933">
        <ele>1296.48</ele>
        <time>2016-04-29T15:46:47Z</time>
      </trkpt>
      <trkpt lat="44.92329" lon="5.44883">
        <ele>1294.07</ele>
        <time>2016-04-29T15:46:53Z</time>
      </trkpt>
      <trkpt lat="44.9233" lon="5.44841">
        <ele>1290.23</ele>
        <time>2016-04-29T15:46:57Z</time>
      </trkpt>
      <trkpt lat="44.9233" lon="5.44832">
        <ele>1289.75</ele>
        <time>2016-04-29T15:46:58Z</time>
      </trkpt>
      <trkpt lat="44.9233" lon="5.44824">
        <ele>1289.75</ele>
        <time>2016-04-29T15:46:59Z</time>
      </trkpt>
      <trkpt lat="44.92331" lon="5.44819">
        <ele>1289.75</ele>
        <time>2016-04-29T15:47:00Z</time>
      </trkpt>
      <trkpt lat="44.92331" lon="5.44815">
        <ele>1289.75</ele>
        <time>2016-04-29T15:47:01Z</time>
      </trkpt>
      <trkpt lat="44.92327" lon="5.44809">
        <ele>1289.27</ele>
        <time>2016-04-29T15:47:12Z</time>
      </trkpt>
      <trkpt lat="44.92316" lon="5.44803">
        <ele>1289.75</ele>
        <time>2016-04-29T15:47:39Z</time>
      </trkpt>
      <trkpt lat="44.92314" lon="5.44803">
        <ele>1289.27</ele>
        <time>2016-04-29T15:48:04Z</time>
      </trkpt>
      <trkpt lat="44.92313" lon="5.44802">
        <ele>1289.27</ele>
        <time>2016-04-29T15:48:29Z</time>
      </trkpt>
      <trkpt lat="44.92311" lon="5.44803">
        <ele>1289.75</ele>
        <time>2016-04-29T15:48:55Z</time>
      </trkpt>
      <trkpt lat="44.92314" lon="5.44788">
        <ele>1287.82</ele>
        <time>2016-04-29T15:49:02Z</time>
      </trkpt>
      <trkpt lat="44.92315" lon="5.44785">
        <ele>1287.82</ele>
        <time>2016-04-29T15:49:03Z</time>
      </trkpt>
      <trkpt lat="44.92316" lon="5.44782">
        <ele>1287.34</ele>
        <time>2016-04-29T15:49:04Z</time>
      </trkpt>
      <trkpt lat="44.92317" lon="5.4478">
        <ele>1286.86</ele>
        <time>2016-04-29T15:49:05Z</time>
      </trkpt>
      <trkpt lat="44.92317" lon="5.44776">
        <ele>1286.86</ele>
        <time>2016-04-29T15:49:06Z</time>
      </trkpt>
      <trkpt lat="44.92319" lon="5.44763">
        <ele>1284.94</ele>
        <time>2016-04-29T15:49:10Z</time>
      </trkpt>
      <trkpt lat="44.92319" lon="5.4476">
        <ele>1284.46</ele>
        <time>2016-04-29T15:49:11Z</time>
      </trkpt>
      <trkpt lat="44.92318" lon="5.44757">
        <ele>1283.98</ele>
        <time>2016-04-29T15:49:12Z</time>
      </trkpt>
      <trkpt lat="44.92306" lon="5.44735">
        <ele>1280.61</ele>
        <time>2016-04-29T15:49:19Z</time>
      </trkpt>
      <trkpt lat="44.92306" lon="5.4473">
        <ele>1280.13</ele>
        <time>2016-04-29T15:49:20Z</time>
      </trkpt>
      <trkpt lat="44.92308" lon="5.44725">
        <ele>1279.65</ele>
        <time>2016-04-29T15:49:21Z</time>
      </trkpt>
      <trkpt lat="44.92311" lon="5.44722">
        <ele>1278.69</ele>
        <time>2016-04-29T15:49:22Z</time>
      </trkpt>
      <trkpt lat="44.92317" lon="5.44723">
        <ele>1278.21</ele>
        <time>2016-04-29T15:49:23Z</time>
      </trkpt>
      <trkpt lat="44.92321" lon="5.44728">
        <ele>1277.73</ele>
        <time>2016-04-29T15:49:24Z</time>
      </trkpt>
      <trkpt lat="44.92326" lon="5.44734">
        <ele>1277.25</ele>
        <time>2016-04-29T15:49:25Z</time>
      </trkpt>
      <trkpt lat="44.92329" lon="5.44741">
        <ele>1276.29</ele>
        <time>2016-04-29T15:49:26Z</time>
      </trkpt>
      <trkpt lat="44.92332" lon="5.4475">
        <ele>1275.33</ele>
        <time>2016-04-29T15:49:27Z</time>
      </trkpt>
      <trkpt lat="44.92333" lon="5.44761">
        <ele>1274.85</ele>
        <time>2016-04-29T15:49:28Z</time>
      </trkpt>
      <trkpt lat="44.92334" lon="5.44772">
        <ele>1273.4</ele>
        <time>2016-04-29T15:49:29Z</time>
      </trkpt>
      <trkpt lat="44.92333" lon="5.44783">
        <ele>1272.92</ele>
        <time>2016-04-29T15:49:30Z</time>
      </trkpt>
      <trkpt lat="44.92332" lon="5.44794">
        <ele>1271.96</ele>
        <time>2016-04-29T15:49:31Z</time>
      </trkpt>
      <trkpt lat="44.92333" lon="5.44803">
        <ele>1271</ele>
        <time>2016-04-29T15:49:32Z</time>
      </trkpt>
      <trkpt lat="44.92336" lon="5.44812">
        <ele>1270.04</ele>
        <time>2016-04-29T15:49:33Z</time>
      </trkpt>
      <trkpt lat="44.92341" lon="5.44819">
        <ele>1268.6</ele>
        <time>2016-04-29T15:49:34Z</time>
      </trkpt>
      <trkpt lat="44.92345" lon="5.44823">
        <ele>1267.64</ele>
        <time>2016-04-29T15:49:35Z</time>
      </trkpt>
      <trkpt lat="44.92351" lon="5.44823">
        <ele>1266.67</ele>
        <time>2016-04-29T15:49:36Z</time>
      </trkpt>
      <trkpt lat="44.92356" lon="5.44821">
        <ele>1266.19</ele>
        <time>2016-04-29T15:49:37Z</time>
      </trkpt>
      <trkpt lat="44.92365" lon="5.44816">
        <ele>1264.75</ele>
        <time>2016-04-29T15:49:38Z</time>
      </trkpt>
      <trkpt lat="44.9237" lon="5.44812">
        <ele>1263.79</ele>
        <time>2016-04-29T15:49:39Z</time>
      </trkpt>
      <trkpt lat="44.92378" lon="5.44806">
        <ele>1262.35</ele>
        <time>2016-04-29T15:49:40Z</time>
      </trkpt>
      <trkpt lat="44.92386" lon="5.44803">
        <ele>1262.35</ele>
        <time>2016-04-29T15:49:41Z</time>
      </trkpt>
      <trkpt lat="44.92393" lon="5.44806">
        <ele>1260.91</ele>
        <time>2016-04-29T15:49:42Z</time>
      </trkpt>
      <trkpt lat="44.924" lon="5.44812">
        <ele>1259.46</ele>
        <time>2016-04-29T15:49:43Z</time>
      </trkpt>
      <trkpt lat="44.92406" lon="5.4482">
        <ele>1258.02</ele>
        <time>2016-04-29T15:49:44Z</time>
      </trkpt>
      <trkpt lat="44.92413" lon="5.44829">
        <ele>1256.58</ele>
        <time>2016-04-29T15:49:45Z</time>
      </trkpt>
      <trkpt lat="44.92424" lon="5.44849">
        <ele>1254.66</ele>
        <time>2016-04-29T15:49:47Z</time>
      </trkpt>
      <trkpt lat="44.92434" lon="5.44864">
        <ele>1251.29</ele>
        <time>2016-04-29T15:49:49Z</time>
      </trkpt>
      <trkpt lat="44.92436" lon="5.44867">
        <ele>1251.29</ele>
        <time>2016-04-29T15:49:50Z</time>
      </trkpt>
      <trkpt lat="44.92444" lon="5.44874">
        <ele>1250.33</ele>
        <time>2016-04-29T15:49:52Z</time>
      </trkpt>
      <trkpt lat="44.92449" lon="5.44877">
        <ele>1248.41</ele>
        <time>2016-04-29T15:49:54Z</time>
      </trkpt>
      <trkpt lat="44.9245" lon="5.44875">
        <ele>1246.97</ele>
        <time>2016-04-29T15:49:55Z</time>
      </trkpt>
      <trkpt lat="44.92448" lon="5.44869">
        <ele>1244.56</ele>
        <time>2016-04-29T15:49:56Z</time>
      </trkpt>
      <trkpt lat="44.92452" lon="5.44854">
        <ele>1243.12</ele>
        <time>2016-04-29T15:49:57Z</time>
      </trkpt>
      <trkpt lat="44.9247" lon="5.448">
        <ele>1239.76</ele>
        <time>2016-04-29T15:50:00Z</time>
      </trkpt>
      <trkpt lat="44.92494" lon="5.4476">
        <ele>1237.83</ele>
        <time>2016-04-29T15:50:02Z</time>
      </trkpt>
      <trkpt lat="44.92504" lon="5.44748">
        <ele>1237.35</ele>
        <time>2016-04-29T15:50:03Z</time>
      </trkpt>
      <trkpt lat="44.92514" lon="5.44739">
        <ele>1236.87</ele>
        <time>2016-04-29T15:50:04Z</time>
      </trkpt>
      <trkpt lat="44.92524" lon="5.44733">
        <ele>1236.39</ele>
        <time>2016-04-29T15:50:05Z</time>
      </trkpt>
      <trkpt lat="44.92544" lon="5.4472">
        <ele>1235.43</ele>
        <time>2016-04-29T15:50:06Z</time>
      </trkpt>
      <trkpt lat="44.9257" lon="5.44703">
        <ele>1233.51</ele>
        <time>2016-04-29T15:50:08Z</time>
      </trkpt>
      <trkpt lat="44.926" lon="5.4468">
        <ele>1230.62</ele>
        <time>2016-04-29T15:50:12Z</time>
      </trkpt>
      <trkpt lat="44.92619" lon="5.44664">
        <ele>1225.82</ele>
        <time>2016-04-29T15:50:15Z</time>
      </trkpt>
      <trkpt lat="44.92631" lon="5.44655">
        <ele>1230.62</ele>
        <time>2016-04-29T15:50:17Z</time>
      </trkpt>
      <trkpt lat="44.92637" lon="5.44651">
        <ele>1226.3</ele>
        <time>2016-04-29T15:50:18Z</time>
      </trkpt>
      <trkpt lat="44.92648" lon="5.44643">
        <ele>1222.45</ele>
        <time>2016-04-29T15:50:20Z</time>
      </trkpt>
      <trkpt lat="44.92654" lon="5.44638">
        <ele>1224.38</ele>
        <time>2016-04-29T15:50:21Z</time>
      </trkpt>
      <trkpt lat="44.92659" lon="5.44634">
        <ele>1223.9</ele>
        <time>2016-04-29T15:50:22Z</time>
      </trkpt>
      <trkpt lat="44.92676" lon="5.44613">
        <ele>1221.49</ele>
        <time>2016-04-29T15:50:26Z</time>
      </trkpt>
      <trkpt lat="44.92683" lon="5.446">
        <ele>1220.05</ele>
        <time>2016-04-29T15:50:28Z</time>
      </trkpt>
      <trkpt lat="44.92693" lon="5.44581">
        <ele>1217.65</ele>
        <time>2016-04-29T15:50:31Z</time>
      </trkpt>
      <trkpt lat="44.92705" lon="5.44565">
        <ele>1215.72</ele>
        <time>2016-04-29T15:50:34Z</time>
      </trkpt>
      <trkpt lat="44.9271" lon="5.44562">
        <ele>1215.24</ele>
        <time>2016-04-29T15:50:35Z</time>
      </trkpt>
      <trkpt lat="44.92715" lon="5.44559">
        <ele>1214.76</ele>
        <time>2016-04-29T15:50:36Z</time>
      </trkpt>
      <trkpt lat="44.92731" lon="5.44547">
        <ele>1212.84</ele>
        <time>2016-04-29T15:50:39Z</time>
      </trkpt>
      <trkpt lat="44.92744" lon="5.44534">
        <ele>1211.4</ele>
        <time>2016-04-29T15:50:42Z</time>
      </trkpt>
      <trkpt lat="44.92759" lon="5.44522">
        <ele>1209.48</ele>
        <time>2016-04-29T15:50:45Z</time>
      </trkpt>
      <trkpt lat="44.92764" lon="5.44516">
        <ele>1207.55</ele>
        <time>2016-04-29T15:50:46Z</time>
      </trkpt>
      <trkpt lat="44.92783" lon="5.4449">
        <ele>1204.19</ele>
        <time>2016-04-29T15:50:50Z</time>
      </trkpt>
      <trkpt lat="44.92789" lon="5.44486">
        <ele>1203.23</ele>
        <time>2016-04-29T15:50:51Z</time>
      </trkpt>
      <trkpt lat="44.92796" lon="5.44484">
        <ele>1202.75</ele>
        <time>2016-04-29T15:50:52Z</time>
      </trkpt>
      <trkpt lat="44.92803" lon="5.44484">
        <ele>1201.79</ele>
        <time>2016-04-29T15:50:53Z</time>
      </trkpt>
      <trkpt lat="44.92811" lon="5.44484">
        <ele>1201.3</ele>
        <time>2016-04-29T15:50:54Z</time>
      </trkpt>
      <trkpt lat="44.92819" lon="5.44484">
        <ele>1199.86</ele>
        <time>2016-04-29T15:50:55Z</time>
      </trkpt>
      <trkpt lat="44.92856" lon="5.4448">
        <ele>1196.02</ele>
        <time>2016-04-29T15:50:59Z</time>
      </trkpt>
      <trkpt lat="44.92886" lon="5.44475">
        <ele>1192.65</ele>
        <time>2016-04-29T15:51:02Z</time>
      </trkpt>
      <trkpt lat="44.92919" lon="5.44472">
        <ele>1189.29</ele>
        <time>2016-04-29T15:51:05Z</time>
      </trkpt>
      <trkpt lat="44.92929" lon="5.44473">
        <ele>1187.85</ele>
        <time>2016-04-29T15:51:06Z</time>
      </trkpt>
      <trkpt lat="44.92938" lon="5.44475">
        <ele>1186.4</ele>
        <time>2016-04-29T15:51:07Z</time>
      </trkpt>
      <trkpt lat="44.92947" lon="5.44479">
        <ele>1185.92</ele>
        <time>2016-04-29T15:51:08Z</time>
      </trkpt>
      <trkpt lat="44.92954" lon="5.44483">
        <ele>1185.44</ele>
        <time>2016-04-29T15:51:09Z</time>
      </trkpt>
      <trkpt lat="44.92962" lon="5.44489">
        <ele>1184.48</ele>
        <time>2016-04-29T15:51:10Z</time>
      </trkpt>
      <trkpt lat="44.92969" lon="5.44494">
        <ele>1184</ele>
        <time>2016-04-29T15:51:11Z</time>
      </trkpt>
      <trkpt lat="44.92976" lon="5.44498">
        <ele>1183.04</ele>
        <time>2016-04-29T15:51:12Z</time>
      </trkpt>
      <trkpt lat="44.92984" lon="5.44498">
        <ele>1181.6</ele>
        <time>2016-04-29T15:51:13Z</time>
      </trkpt>
      <trkpt lat="44.92992" lon="5.44495">
        <ele>1180.64</ele>
        <time>2016-04-29T15:51:14Z</time>
      </trkpt>
      <trkpt lat="44.92999" lon="5.44491">
        <ele>1180.16</ele>
        <time>2016-04-29T15:51:15Z</time>
      </trkpt>
      <trkpt lat="44.93026" lon="5.44481">
        <ele>1176.31</ele>
        <time>2016-04-29T15:51:18Z</time>
      </trkpt>
      <trkpt lat="44.93065" lon="5.44473">
        <ele>1171.98</ele>
        <time>2016-04-29T15:51:22Z</time>
      </trkpt>
      <trkpt lat="44.93108" lon="5.44475">
        <ele>1168.62</ele>
        <time>2016-04-29T15:51:26Z</time>
      </trkpt>
      <trkpt lat="44.93142" lon="5.44481">
        <ele>1165.26</ele>
        <time>2016-04-29T15:51:29Z</time>
      </trkpt>
      <trkpt lat="44.93153" lon="5.44482">
        <ele>1163.81</ele>
        <time>2016-04-29T15:51:30Z</time>
      </trkpt>
      <trkpt lat="44.93188" lon="5.44479">
        <ele>1160.93</ele>
        <time>2016-04-29T15:51:33Z</time>
      </trkpt>
      <trkpt lat="44.93223" lon="5.44473">
        <ele>1157.08</ele>
        <time>2016-04-29T15:51:36Z</time>
      </trkpt>
      <trkpt lat="44.93235" lon="5.4447">
        <ele>1154.68</ele>
        <time>2016-04-29T15:51:37Z</time>
      </trkpt>
      <trkpt lat="44.93247" lon="5.44468">
        <ele>1153.72</ele>
        <time>2016-04-29T15:51:38Z</time>
      </trkpt>
      <trkpt lat="44.93259" lon="5.44463">
        <ele>1151.8</ele>
        <time>2016-04-29T15:51:39Z</time>
      </trkpt>
      <trkpt lat="44.93272" lon="5.44458">
        <ele>1149.87</ele>
        <time>2016-04-29T15:51:40Z</time>
      </trkpt>
      <trkpt lat="44.93306" lon="5.44444">
        <ele>1146.99</ele>
        <time>2016-04-29T15:51:43Z</time>
      </trkpt>
      <trkpt lat="44.93327" lon="5.44436">
        <ele>1145.55</ele>
        <time>2016-04-29T15:51:45Z</time>
      </trkpt>
      <trkpt lat="44.93358" lon="5.44429">
        <ele>1142.66</ele>
        <time>2016-04-29T15:51:48Z</time>
      </trkpt>
      <trkpt lat="44.93391" lon="5.44425">
        <ele>1139.3</ele>
        <time>2016-04-29T15:51:51Z</time>
      </trkpt>
      <trkpt lat="44.93402" lon="5.44426">
        <ele>1137.86</ele>
        <time>2016-04-29T15:51:52Z</time>
      </trkpt>
      <trkpt lat="44.93413" lon="5.44428">
        <ele>1136.42</ele>
        <time>2016-04-29T15:51:53Z</time>
      </trkpt>
      <trkpt lat="44.93444" lon="5.44432">
        <ele>1133.53</ele>
        <time>2016-04-29T15:51:56Z</time>
      </trkpt>
      <trkpt lat="44.93455" lon="5.4443">
        <ele>1132.09</ele>
        <time>2016-04-29T15:51:57Z</time>
      </trkpt>
      <trkpt lat="44.93476" lon="5.44426">
        <ele>1130.65</ele>
        <time>2016-04-29T15:51:59Z</time>
      </trkpt>
      <trkpt lat="44.93496" lon="5.44426">
        <ele>1128.24</ele>
        <time>2016-04-29T15:52:01Z</time>
      </trkpt>
      <trkpt lat="44.93505" lon="5.44428">
        <ele>1126.8</ele>
        <time>2016-04-29T15:52:02Z</time>
      </trkpt>
      <trkpt lat="44.93514" lon="5.44432">
        <ele>1125.84</ele>
        <time>2016-04-29T15:52:03Z</time>
      </trkpt>
      <trkpt lat="44.93533" lon="5.44443">
        <ele>1123.92</ele>
        <time>2016-04-29T15:52:05Z</time>
      </trkpt>
      <trkpt lat="44.93542" lon="5.44446">
        <ele>1122.48</ele>
        <time>2016-04-29T15:52:06Z</time>
      </trkpt>
      <trkpt lat="44.93572" lon="5.44448">
        <ele>1118.63</ele>
        <time>2016-04-29T15:52:09Z</time>
      </trkpt>
      <trkpt lat="44.93591" lon="5.4445">
        <ele>1117.19</ele>
        <time>2016-04-29T15:52:11Z</time>
      </trkpt>
      <trkpt lat="44.93599" lon="5.44455">
        <ele>1117.19</ele>
        <time>2016-04-29T15:52:12Z</time>
      </trkpt>
      <trkpt lat="44.93607" lon="5.44462">
        <ele>1116.23</ele>
        <time>2016-04-29T15:52:13Z</time>
      </trkpt>
      <trkpt lat="44.93613" lon="5.44471">
        <ele>1115.27</ele>
        <time>2016-04-29T15:52:14Z</time>
      </trkpt>
      <trkpt lat="44.93619" lon="5.44479">
        <ele>1114.79</ele>
        <time>2016-04-29T15:52:15Z</time>
      </trkpt>
      <trkpt lat="44.93625" lon="5.44485">
        <ele>1114.31</ele>
        <time>2016-04-29T15:52:16Z</time>
      </trkpt>
      <trkpt lat="44.93632" lon="5.44489">
        <ele>1113.82</ele>
        <time>2016-04-29T15:52:17Z</time>
      </trkpt>
      <trkpt lat="44.93638" lon="5.4449">
        <ele>1113.82</ele>
        <time>2016-04-29T15:52:18Z</time>
      </trkpt>
      <trkpt lat="44.93644" lon="5.44489">
        <ele>1113.34</ele>
        <time>2016-04-29T15:52:19Z</time>
      </trkpt>
      <trkpt lat="44.93647" lon="5.44488">
        <ele>1113.34</ele>
        <time>2016-04-29T15:52:20Z</time>
      </trkpt>
      <trkpt lat="44.9365" lon="5.4449">
        <ele>1113.82</ele>
        <time>2016-04-29T15:52:28Z</time>
      </trkpt>
      <trkpt lat="44.93657" lon="5.44491">
        <ele>1113.82</ele>
        <time>2016-04-29T15:52:42Z</time>
      </trkpt>
      <trkpt lat="44.93659" lon="5.44491">
        <ele>1113.34</ele>
        <time>2016-04-29T15:52:43Z</time>
      </trkpt>
      <trkpt lat="44.93662" lon="5.44489">
        <ele>1113.82</ele>
        <time>2016-04-29T15:52:44Z</time>
      </trkpt>
      <trkpt lat="44.93666" lon="5.44489">
        <ele>1113.34</ele>
        <time>2016-04-29T15:52:45Z</time>
      </trkpt>
      <trkpt lat="44.93669" lon="5.44489">
        <ele>1113.34</ele>
        <time>2016-04-29T15:52:46Z</time>
      </trkpt>
      <trkpt lat="44.93673" lon="5.4449">
        <ele>1113.34</ele>
        <time>2016-04-29T15:52:47Z</time>
      </trkpt>
      <trkpt lat="44.93676" lon="5.4449">
        <ele>1113.82</ele>
        <time>2016-04-29T15:52:48Z</time>
      </trkpt>
      <trkpt lat="44.9368" lon="5.44492">
        <ele>1113.34</ele>
        <time>2016-04-29T15:52:49Z</time>
      </trkpt>
      <trkpt lat="44.93683" lon="5.44493">
        <ele>1113.34</ele>
        <time>2016-04-29T15:52:50Z</time>
      </trkpt>
      <trkpt lat="44.93686" lon="5.44494">
        <ele>1113.34</ele>
        <time>2016-04-29T15:52:51Z</time>
      </trkpt>
      <trkpt lat="44.9369" lon="5.44494">
        <ele>1113.34</ele>
        <time>2016-04-29T15:52:52Z</time>
      </trkpt>
      <trkpt lat="44.93693" lon="5.44495">
        <ele>1113.34</ele>
        <time>2016-04-29T15:52:53Z</time>
      </trkpt>
      <trkpt lat="44.93697" lon="5.44496">
        <ele>1113.34</ele>
        <time>2016-04-29T15:52:54Z</time>
      </trkpt>
      <trkpt lat="44.937" lon="5.44497">
        <ele>1113.34</ele>
        <time>2016-04-29T15:52:55Z</time>
      </trkpt>
      <trkpt lat="44.93703" lon="5.44498">
        <ele>1113.34</ele>
        <time>2016-04-29T15:52:56Z</time>
      </trkpt>
      <trkpt lat="44.93705" lon="5.44499">
        <ele>1113.34</ele>
        <time>2016-04-29T15:52:57Z</time>
      </trkpt>
      <trkpt lat="44.93708" lon="5.44499">
        <ele>1113.34</ele>
        <time>2016-04-29T15:52:58Z</time>
      </trkpt>
      <trkpt lat="44.93711" lon="5.445">
        <ele>1113.34</ele>
        <time>2016-04-29T15:52:59Z</time>
      </trkpt>
      <trkpt lat="44.93739" lon="5.44514">
        <ele>1113.82</ele>
        <time>2016-04-29T15:53:08Z</time>
      </trkpt>
      <trkpt lat="44.93775" lon="5.44506">
        <ele>1114.31</ele>
        <time>2016-04-29T15:53:18Z</time>
      </trkpt>
      <trkpt lat="44.93781" lon="5.44504">
        <ele>1113.82</ele>
        <time>2016-04-29T15:53:20Z</time>
      </trkpt>
      <trkpt lat="44.93784" lon="5.44504">
        <ele>1113.82</ele>
        <time>2016-04-29T15:53:21Z</time>
      </trkpt>
      <trkpt lat="44.9382" lon="5.445">
        <ele>1114.31</ele>
        <time>2016-04-29T15:53:33Z</time>
      </trkpt>
      <trkpt lat="44.93856" lon="5.44503">
        <ele>1113.82</ele>
        <time>2016-04-29T15:53:45Z</time>
      </trkpt>
      <trkpt lat="44.93868" lon="5.44507">
        <ele>1114.31</ele>
        <time>2016-04-29T15:53:50Z</time>
      </trkpt>
      <trkpt lat="44.93871" lon="5.44507">
        <ele>1114.31</ele>
        <time>2016-04-29T15:53:51Z</time>
      </trkpt>
      <trkpt lat="44.93873" lon="5.44507">
        <ele>1114.31</ele>
        <time>2016-04-29T15:53:52Z</time>
      </trkpt>
      <trkpt lat="44.93876" lon="5.44506">
        <ele>1114.79</ele>
        <time>2016-04-29T15:53:53Z</time>
      </trkpt>
      <trkpt lat="44.93878" lon="5.44505">
        <ele>1114.31</ele>
        <time>2016-04-29T15:53:54Z</time>
      </trkpt>
      <trkpt lat="44.93909" lon="5.44505">
        <ele>1114.79</ele>
        <time>2016-04-29T15:54:06Z</time>
      </trkpt>
      <trkpt lat="44.93927" lon="5.44506">
        <ele>1114.79</ele>
        <time>2016-04-29T15:54:14Z</time>
      </trkpt>
      <trkpt lat="44.93929" lon="5.44508">
        <ele>1114.79</ele>
        <time>2016-04-29T15:54:15Z</time>
      </trkpt>
      <trkpt lat="44.93932" lon="5.44508">
        <ele>1115.27</ele>
        <time>2016-04-29T15:54:16Z</time>
      </trkpt>
      <trkpt lat="44.93962" lon="5.44514">
        <ele>1115.27</ele>
        <time>2016-04-29T15:54:28Z</time>
      </trkpt>
      <trkpt lat="44.93981" lon="5.44512">
        <ele>1115.27</ele>
        <time>2016-04-29T15:54:37Z</time>
      </trkpt>
      <trkpt lat="44.93982" lon="5.44513">
        <ele>1115.27</ele>
        <time>2016-04-29T15:54:38Z</time>
      </trkpt>
      <trkpt lat="44.93997" lon="5.4452">
        <ele>1115.75</ele>
        <time>2016-04-29T15:54:47Z</time>
      </trkpt>
      <trkpt lat="44.93999" lon="5.44521">
        <ele>1115.27</ele>
        <time>2016-04-29T15:54:48Z</time>
      </trkpt>
      <trkpt lat="44.94" lon="5.44522">
        <ele>1115.27</ele>
        <time>2016-04-29T15:54:49Z</time>
      </trkpt>
      <trkpt lat="44.94001" lon="5.44522">
        <ele>1115.75</ele>
        <time>2016-04-29T15:54:50Z</time>
      </trkpt>
      <trkpt lat="44.94003" lon="5.44524">
        <ele>1115.27</ele>
        <time>2016-04-29T15:54:51Z</time>
      </trkpt>
      <trkpt lat="44.94004" lon="5.44525">
        <ele>1115.27</ele>
        <time>2016-04-29T15:54:52Z</time>
      </trkpt>
      <trkpt lat="44.94006" lon="5.44527">
        <ele>1115.75</ele>
        <time>2016-04-29T15:54:53Z</time>
      </trkpt>
      <trkpt lat="44.94009" lon="5.4453">
        <ele>1115.27</ele>
        <time>2016-04-29T15:54:55Z</time>
      </trkpt>
      <trkpt lat="44.94011" lon="5.44532">
        <ele>1115.27</ele>
        <time>2016-04-29T15:54:56Z</time>
      </trkpt>
      <trkpt lat="44.94032" lon="5.4455">
        <ele>1115.75</ele>
        <time>2016-04-29T15:55:04Z</time>
      </trkpt>
      <trkpt lat="44.94047" lon="5.44566">
        <ele>1115.75</ele>
        <time>2016-04-29T15:55:12Z</time>
      </trkpt>
      <trkpt lat="44.94049" lon="5.44567">
        <ele>1115.75</ele>
        <time>2016-04-29T15:55:13Z</time>
      </trkpt>
      <trkpt lat="44.94051" lon="5.44569">
        <ele>1115.75</ele>
        <time>2016-04-29T15:55:14Z</time>
      </trkpt>
      <trkpt lat="44.94053" lon="5.44571">
        <ele>1115.75</ele>
        <time>2016-04-29T15:55:15Z</time>
      </trkpt>
      <trkpt lat="44.94055" lon="5.44573">
        <ele>1115.75</ele>
        <time>2016-04-29T15:55:16Z</time>
      </trkpt>
      <trkpt lat="44.94058" lon="5.44574">
        <ele>1116.23</ele>
        <time>2016-04-29T15:55:17Z</time>
      </trkpt>
      <trkpt lat="44.94086" lon="5.44578">
        <ele>1115.75</ele>
        <time>2016-04-29T15:55:27Z</time>
      </trkpt>
      <trkpt lat="44.94107" lon="5.44584">
        <ele>1115.75</ele>
        <time>2016-04-29T15:55:36Z</time>
      </trkpt>
      <trkpt lat="44.94124" lon="5.44585">
        <ele>1115.75</ele>
        <time>2016-04-29T15:55:43Z</time>
      </trkpt>
      <trkpt lat="44.94125" lon="5.44586">
        <ele>1115.75</ele>
        <time>2016-04-29T15:55:44Z</time>
      </trkpt>
      <trkpt lat="44.94127" lon="5.44586">
        <ele>1115.75</ele>
        <time>2016-04-29T15:55:45Z</time>
      </trkpt>
      <trkpt lat="44.94129" lon="5.44587">
        <ele>1115.75</ele>
        <time>2016-04-29T15:55:46Z</time>
      </trkpt>
      <trkpt lat="44.94132" lon="5.44588">
        <ele>1115.75</ele>
        <time>2016-04-29T15:55:47Z</time>
      </trkpt>
      <trkpt lat="44.94135" lon="5.44589">
        <ele>1115.75</ele>
        <time>2016-04-29T15:55:48Z</time>
      </trkpt>
      <trkpt lat="44.94138" lon="5.4459">
        <ele>1115.75</ele>
        <time>2016-04-29T15:55:49Z</time>
      </trkpt>
      <trkpt lat="44.94141" lon="5.44592">
        <ele>1115.75</ele>
        <time>2016-04-29T15:55:50Z</time>
      </trkpt>
      <trkpt lat="44.94144" lon="5.44594">
        <ele>1115.75</ele>
        <time>2016-04-29T15:55:51Z</time>
      </trkpt>
      <trkpt lat="44.94146" lon="5.44595">
        <ele>1115.75</ele>
        <time>2016-04-29T15:55:52Z</time>
      </trkpt>
      <trkpt lat="44.9415" lon="5.44599">
        <ele>1115.75</ele>
        <time>2016-04-29T15:55:55Z</time>
      </trkpt>
      <trkpt lat="44.9415" lon="5.44602">
        <ele>1115.27</ele>
        <time>2016-04-29T15:55:57Z</time>
      </trkpt>
      <trkpt lat="44.9415" lon="5.44604">
        <ele>1115.75</ele>
        <time>2016-04-29T15:55:58Z</time>
      </trkpt>
      <trkpt lat="44.94152" lon="5.44607">
        <ele>1115.75</ele>
        <time>2016-04-29T15:55:59Z</time>
      </trkpt>
      <trkpt lat="44.94172" lon="5.44614">
        <ele>1115.75</ele>
        <time>2016-04-29T15:56:06Z</time>
      </trkpt>
      <trkpt lat="44.94211" lon="5.44629">
        <ele>1116.71</ele>
        <time>2016-04-29T15:56:16Z</time>
      </trkpt>
      <trkpt lat="44.9422" lon="5.44631">
        <ele>1116.23</ele>
        <time>2016-04-29T15:56:19Z</time>
      </trkpt>
      <trkpt lat="44.94222" lon="5.44632">
        <ele>1116.71</ele>
        <time>2016-04-29T15:56:20Z</time>
      </trkpt>
      <trkpt lat="44.94223" lon="5.44633">
        <ele>1116.71</ele>
        <time>2016-04-29T15:56:21Z</time>
      </trkpt>
      <trkpt lat="44.94225" lon="5.44634">
        <ele>1116.71</ele>
        <time>2016-04-29T15:56:22Z</time>
      </trkpt>
      <trkpt lat="44.94228" lon="5.44636">
        <ele>1116.71</ele>
        <time>2016-04-29T15:56:24Z</time>
      </trkpt>
      <trkpt lat="44.9423" lon="5.44637">
        <ele>1116.71</ele>
        <time>2016-04-29T15:56:25Z</time>
      </trkpt>
      <trkpt lat="44.94232" lon="5.44638">
        <ele>1116.71</ele>
        <time>2016-04-29T15:56:26Z</time>
      </trkpt>
      <trkpt lat="44.94234" lon="5.44638">
        <ele>1116.71</ele>
        <time>2016-04-29T15:56:27Z</time>
      </trkpt>
      <trkpt lat="44.94249" lon="5.44643">
        <ele>1117.19</ele>
        <time>2016-04-29T15:56:34Z</time>
      </trkpt>
      <trkpt lat="44.94275" lon="5.4465">
        <ele>1117.67</ele>
        <time>2016-04-29T15:56:44Z</time>
      </trkpt>
      <trkpt lat="44.94282" lon="5.44649">
        <ele>1117.67</ele>
        <time>2016-04-29T15:56:47Z</time>
      </trkpt>
      <trkpt lat="44.94283" lon="5.44647">
        <ele>1117.67</ele>
        <time>2016-04-29T15:56:48Z</time>
      </trkpt>
      <trkpt lat="44.94286" lon="5.44646">
        <ele>1117.67</ele>
        <time>2016-04-29T15:56:49Z</time>
      </trkpt>
      <trkpt lat="44.94288" lon="5.44646">
        <ele>1117.67</ele>
        <time>2016-04-29T15:56:50Z</time>
      </trkpt>
      <trkpt lat="44.94289" lon="5.44646">
        <ele>1117.67</ele>
        <time>2016-04-29T15:56:51Z</time>
      </trkpt>
      <trkpt lat="44.94292" lon="5.44646">
        <ele>1117.67</ele>
        <time>2016-04-29T15:56:52Z</time>
      </trkpt>
      <trkpt lat="44.94294" lon="5.44646">
        <ele>1117.67</ele>
        <time>2016-04-29T15:56:53Z</time>
      </trkpt>
      <trkpt lat="44.94296" lon="5.44647">
        <ele>1117.67</ele>
        <time>2016-04-29T15:56:54Z</time>
      </trkpt>
      <trkpt lat="44.94316" lon="5.4465">
        <ele>1118.15</ele>
        <time>2016-04-29T15:57:03Z</time>
      </trkpt>
      <trkpt lat="44.94318" lon="5.44651">
        <ele>1118.15</ele>
        <time>2016-04-29T15:57:04Z</time>
      </trkpt>
      <trkpt lat="44.9432" lon="5.44651">
        <ele>1118.15</ele>
        <time>2016-04-29T15:57:05Z</time>
      </trkpt>
      <trkpt lat="44.94322" lon="5.44651">
        <ele>1118.15</ele>
        <time>2016-04-29T15:57:06Z</time>
      </trkpt>
      <trkpt lat="44.94324" lon="5.44652">
        <ele>1117.67</ele>
        <time>2016-04-29T15:57:07Z</time>
      </trkpt>
      <trkpt lat="44.94326" lon="5.44653">
        <ele>1118.15</ele>
        <time>2016-04-29T15:57:08Z</time>
      </trkpt>
      <trkpt lat="44.94328" lon="5.44653">
        <ele>1118.15</ele>
        <time>2016-04-29T15:57:09Z</time>
      </trkpt>
      <trkpt lat="44.9433" lon="5.44653">
        <ele>1118.15</ele>
        <time>2016-04-29T15:57:10Z</time>
      </trkpt>
      <trkpt lat="44.94333" lon="5.44653">
        <ele>1118.15</ele>
        <time>2016-04-29T15:57:11Z</time>
      </trkpt>
      <trkpt lat="44.94339" lon="5.44655">
        <ele>1118.15</ele>
        <time>2016-04-29T15:57:14Z</time>
      </trkpt>
      <trkpt lat="44.94341" lon="5.44656">
        <ele>1117.67</ele>
        <time>2016-04-29T15:57:15Z</time>
      </trkpt>
      <trkpt lat="44.94343" lon="5.44657">
        <ele>1118.15</ele>
        <time>2016-04-29T15:57:16Z</time>
      </trkpt>
      <trkpt lat="44.94345" lon="5.44658">
        <ele>1118.15</ele>
        <time>2016-04-29T15:57:17Z</time>
      </trkpt>
      <trkpt lat="44.94347" lon="5.4466">
        <ele>1118.15</ele>
        <time>2016-04-29T15:57:18Z</time>
      </trkpt>
      <trkpt lat="44.94355" lon="5.44665">
        <ele>1118.63</ele>
        <time>2016-04-29T15:57:23Z</time>
      </trkpt>
      <trkpt lat="44.94364" lon="5.4467">
        <ele>1118.63</ele>
        <time>2016-04-29T15:57:31Z</time>
      </trkpt>
      <trkpt lat="44.94373" lon="5.44674">
        <ele>1119.11</ele>
        <time>2016-04-29T15:57:39Z</time>
      </trkpt>
      <trkpt lat="44.94393" lon="5.44679">
        <ele>1119.59</ele>
        <time>2016-04-29T15:57:48Z</time>
      </trkpt>
      <trkpt lat="44.94403" lon="5.44681">
        <ele>1119.59</ele>
        <time>2016-04-29T15:57:52Z</time>
      </trkpt>
      <trkpt lat="44.94407" lon="5.44684">
        <ele>1120.07</ele>
        <time>2016-04-29T15:57:54Z</time>
      </trkpt>
      <trkpt lat="44.94409" lon="5.44685">
        <ele>1120.07</ele>
        <time>2016-04-29T15:57:55Z</time>
      </trkpt>
      <trkpt lat="44.94412" lon="5.44685">
        <ele>1120.07</ele>
        <time>2016-04-29T15:57:56Z</time>
      </trkpt>
      <trkpt lat="44.94416" lon="5.44687">
        <ele>1120.07</ele>
        <time>2016-04-29T15:57:58Z</time>
      </trkpt>
      <trkpt lat="44.94418" lon="5.44688">
        <ele>1120.55</ele>
        <time>2016-04-29T15:57:59Z</time>
      </trkpt>
      <trkpt lat="44.9442" lon="5.44689">
        <ele>1120.07</ele>
        <time>2016-04-29T15:58:00Z</time>
      </trkpt>
      <trkpt lat="44.94423" lon="5.44691">
        <ele>1120.55</ele>
        <time>2016-04-29T15:58:02Z</time>
      </trkpt>
      <trkpt lat="44.94424" lon="5.44693">
        <ele>1120.55</ele>
        <time>2016-04-29T15:58:03Z</time>
      </trkpt>
      <trkpt lat="44.94426" lon="5.44695">
        <ele>1120.55</ele>
        <time>2016-04-29T15:58:04Z</time>
      </trkpt>
      <trkpt lat="44.94428" lon="5.44697">
        <ele>1120.55</ele>
        <time>2016-04-29T15:58:05Z</time>
      </trkpt>
      <trkpt lat="44.9443" lon="5.44698">
        <ele>1120.55</ele>
        <time>2016-04-29T15:58:06Z</time>
      </trkpt>
      <trkpt lat="44.94431" lon="5.44699">
        <ele>1120.55</ele>
        <time>2016-04-29T15:58:07Z</time>
      </trkpt>
      <trkpt lat="44.94433" lon="5.447">
        <ele>1121.03</ele>
        <time>2016-04-29T15:58:08Z</time>
      </trkpt>
      <trkpt lat="44.94435" lon="5.44701">
        <ele>1121.03</ele>
        <time>2016-04-29T15:58:09Z</time>
      </trkpt>
      <trkpt lat="44.94443" lon="5.44709">
        <ele>1122</ele>
        <time>2016-04-29T15:58:19Z</time>
      </trkpt>
      <trkpt lat="44.94446" lon="5.44714">
        <ele>1122.48</ele>
        <time>2016-04-29T15:58:22Z</time>
      </trkpt>
      <trkpt lat="44.94448" lon="5.44716">
        <ele>1122.48</ele>
        <time>2016-04-29T15:58:23Z</time>
      </trkpt>
      <trkpt lat="44.94457" lon="5.44722">
        <ele>1122.96</ele>
        <time>2016-04-29T15:58:31Z</time>
      </trkpt>
      <trkpt lat="44.94459" lon="5.44723">
        <ele>1122.96</ele>
        <time>2016-04-29T15:58:32Z</time>
      </trkpt>
      <trkpt lat="44.94461" lon="5.44723">
        <ele>1122.96</ele>
        <time>2016-04-29T15:58:33Z</time>
      </trkpt>
      <trkpt lat="44.94479" lon="5.4473">
        <ele>1123.44</ele>
        <time>2016-04-29T15:58:39Z</time>
      </trkpt>
      <trkpt lat="44.94481" lon="5.44729">
        <ele>1123.44</ele>
        <time>2016-04-29T15:58:40Z</time>
      </trkpt>
      <trkpt lat="44.94508" lon="5.44732">
        <ele>1123.92</ele>
        <time>2016-04-29T15:58:47Z</time>
      </trkpt>
      <trkpt lat="44.9451" lon="5.44732">
        <ele>1123.92</ele>
        <time>2016-04-29T15:58:48Z</time>
      </trkpt>
      <trkpt lat="44.94512" lon="5.44731">
        <ele>1123.92</ele>
        <time>2016-04-29T15:58:49Z</time>
      </trkpt>
      <trkpt lat="44.94514" lon="5.44731">
        <ele>1124.4</ele>
        <time>2016-04-29T15:58:50Z</time>
      </trkpt>
      <trkpt lat="44.94516" lon="5.44731">
        <ele>1124.4</ele>
        <time>2016-04-29T15:58:51Z</time>
      </trkpt>
      <trkpt lat="44.94518" lon="5.4473">
        <ele>1124.88</ele>
        <time>2016-04-29T15:58:52Z</time>
      </trkpt>
      <trkpt lat="44.9452" lon="5.44729">
        <ele>1124.88</ele>
        <time>2016-04-29T15:58:53Z</time>
      </trkpt>
      <trkpt lat="44.94521" lon="5.44729">
        <ele>1124.88</ele>
        <time>2016-04-29T15:58:54Z</time>
      </trkpt>
      <trkpt lat="44.94523" lon="5.44729">
        <ele>1124.88</ele>
        <time>2016-04-29T15:58:55Z</time>
      </trkpt>
      <trkpt lat="44.94525" lon="5.44729">
        <ele>1124.88</ele>
        <time>2016-04-29T15:58:56Z</time>
      </trkpt>
      <trkpt lat="44.94527" lon="5.44729">
        <ele>1124.88</ele>
        <time>2016-04-29T15:58:57Z</time>
      </trkpt>
      <trkpt lat="44.94529" lon="5.44729">
        <ele>1124.4</ele>
        <time>2016-04-29T15:58:58Z</time>
      </trkpt>
      <trkpt lat="44.94531" lon="5.44728">
        <ele>1124.88</ele>
        <time>2016-04-29T15:58:59Z</time>
      </trkpt>
      <trkpt lat="44.94533" lon="5.44727">
        <ele>1124.4</ele>
        <time>2016-04-29T15:59:00Z</time>
      </trkpt>
      <trkpt lat="44.94546" lon="5.44727">
        <ele>1124.88</ele>
        <time>2016-04-29T15:59:07Z</time>
      </trkpt>
      <trkpt lat="44.94548" lon="5.44728">
        <ele>1124.88</ele>
        <time>2016-04-29T15:59:08Z</time>
      </trkpt>
      <trkpt lat="44.94552" lon="5.44729">
        <ele>1125.36</ele>
        <time>2016-04-29T15:59:10Z</time>
      </trkpt>
      <trkpt lat="44.94554" lon="5.4473">
        <ele>1125.36</ele>
        <time>2016-04-29T15:59:23Z</time>
      </trkpt>
      <trkpt lat="44.94559" lon="5.44732">
        <ele>1125.36</ele>
        <time>2016-04-29T15:59:49Z</time>
      </trkpt>
      <trkpt lat="44.94557" lon="5.4473">
        <ele>1124.4</ele>
        <time>2016-04-29T16:00:07Z</time>
      </trkpt>
      <trkpt lat="44.94556" lon="5.4473">
        <ele>1124.4</ele>
        <time>2016-04-29T16:00:40Z</time>
      </trkpt>
      <trkpt lat="44.94555" lon="5.44732">
        <ele>1124.4</ele>
        <time>2016-04-29T16:01:10Z</time>
      </trkpt>
      <trkpt lat="44.94555" lon="5.44732">
        <ele>1124.4</ele>
        <time>2016-04-29T16:01:40Z</time>
      </trkpt>
      <trkpt lat="44.94556" lon="5.44733">
        <ele>1124.4</ele>
        <time>2016-04-29T16:02:15Z</time>
      </trkpt>
      <trkpt lat="44.94555" lon="5.44734">
        <ele>1124.4</ele>
        <time>2016-04-29T16:02:53Z</time>
      </trkpt>
      <trkpt lat="44.94555" lon="5.44734">
        <ele>1123.92</ele>
        <time>2016-04-29T16:03:24Z</time>
      </trkpt>
      <trkpt lat="44.94554" lon="5.44734">
        <ele>1124.88</ele>
        <time>2016-04-29T16:03:55Z</time>
      </trkpt>
      <trkpt lat="44.94561" lon="5.44744">
        <ele>1125.36</ele>
        <time>2016-04-29T16:04:04Z</time>
      </trkpt>
      <trkpt lat="44.94565" lon="5.44749">
        <ele>1125.36</ele>
        <time>2016-04-29T16:04:07Z</time>
      </trkpt>
      <trkpt lat="44.94568" lon="5.44752">
        <ele>1125.84</ele>
        <time>2016-04-29T16:04:10Z</time>
      </trkpt>
      <trkpt lat="44.9457" lon="5.44752">
        <ele>1125.84</ele>
        <time>2016-04-29T16:04:11Z</time>
      </trkpt>
      <trkpt lat="44.94573" lon="5.44753">
        <ele>1125.84</ele>
        <time>2016-04-29T16:04:13Z</time>
      </trkpt>
      <trkpt lat="44.94575" lon="5.44754">
        <ele>1125.84</ele>
        <time>2016-04-29T16:04:14Z</time>
      </trkpt>
      <trkpt lat="44.94577" lon="5.44753">
        <ele>1126.32</ele>
        <time>2016-04-29T16:04:15Z</time>
      </trkpt>
      <trkpt lat="44.94578" lon="5.44752">
        <ele>1126.32</ele>
        <time>2016-04-29T16:04:16Z</time>
      </trkpt>
      <trkpt lat="44.9458" lon="5.44751">
        <ele>1126.32</ele>
        <time>2016-04-29T16:04:17Z</time>
      </trkpt>
      <trkpt lat="44.94603" lon="5.44745">
        <ele>1126.8</ele>
        <time>2016-04-29T16:04:28Z</time>
      </trkpt>
      <trkpt lat="44.94618" lon="5.44755">
        <ele>1127.76</ele>
        <time>2016-04-29T16:04:38Z</time>
      </trkpt>
      <trkpt lat="44.94624" lon="5.44757">
        <ele>1128.73</ele>
        <time>2016-04-29T16:04:47Z</time>
      </trkpt>
      <trkpt lat="44.94626" lon="5.44757">
        <ele>1128.73</ele>
        <time>2016-04-29T16:04:48Z</time>
      </trkpt>
      <trkpt lat="44.94633" lon="5.44755">
        <ele>1128.73</ele>
        <time>2016-04-29T16:04:52Z</time>
      </trkpt>
      <trkpt lat="44.94635" lon="5.44753">
        <ele>1128.73</ele>
        <time>2016-04-29T16:04:53Z</time>
      </trkpt>
      <trkpt lat="44.94636" lon="5.44753">
        <ele>1129.21</ele>
        <time>2016-04-29T16:04:54Z</time>
      </trkpt>
      <trkpt lat="44.94638" lon="5.44753">
        <ele>1129.21</ele>
        <time>2016-04-29T16:04:55Z</time>
      </trkpt>
      <trkpt lat="44.94642" lon="5.44755">
        <ele>1129.21</ele>
        <time>2016-04-29T16:04:56Z</time>
      </trkpt>
      <trkpt lat="44.94648" lon="5.44758">
        <ele>1129.21</ele>
        <time>2016-04-29T16:04:57Z</time>
      </trkpt>
      <trkpt lat="44.94652" lon="5.4476">
        <ele>1129.21</ele>
        <time>2016-04-29T16:04:58Z</time>
      </trkpt>
      <trkpt lat="44.94655" lon="5.44762">
        <ele>1129.21</ele>
        <time>2016-04-29T16:04:59Z</time>
      </trkpt>
      <trkpt lat="44.94657" lon="5.44765">
        <ele>1129.21</ele>
        <time>2016-04-29T16:05:00Z</time>
      </trkpt>
      <trkpt lat="44.94659" lon="5.44767">
        <ele>1129.21</ele>
        <time>2016-04-29T16:05:01Z</time>
      </trkpt>
      <trkpt lat="44.9466" lon="5.44769">
        <ele>1129.69</ele>
        <time>2016-04-29T16:05:02Z</time>
      </trkpt>
      <trkpt lat="44.94662" lon="5.44771">
        <ele>1129.21</ele>
        <time>2016-04-29T16:05:03Z</time>
      </trkpt>
      <trkpt lat="44.94674" lon="5.4479">
        <ele>1130.17</ele>
        <time>2016-04-29T16:05:15Z</time>
      </trkpt>
      <trkpt lat="44.94676" lon="5.44791">
        <ele>1130.17</ele>
        <time>2016-04-29T16:05:16Z</time>
      </trkpt>
      <trkpt lat="44.94677" lon="5.44792">
        <ele>1130.65</ele>
        <time>2016-04-29T16:05:17Z</time>
      </trkpt>
      <trkpt lat="44.94678" lon="5.44793">
        <ele>1130.65</ele>
        <time>2016-04-29T16:05:18Z</time>
      </trkpt>
      <trkpt lat="44.94698" lon="5.44807">
        <ele>1130.65</ele>
        <time>2016-04-29T16:05:26Z</time>
      </trkpt>
      <trkpt lat="44.94707" lon="5.44817">
        <ele>1131.13</ele>
        <time>2016-04-29T16:05:34Z</time>
      </trkpt>
      <trkpt lat="44.94708" lon="5.44818">
        <ele>1131.13</ele>
        <time>2016-04-29T16:05:35Z</time>
      </trkpt>
      <trkpt lat="44.9471" lon="5.44818">
        <ele>1131.13</ele>
        <time>2016-04-29T16:05:36Z</time>
      </trkpt>
      <trkpt lat="44.94712" lon="5.44819">
        <ele>1131.13</ele>
        <time>2016-04-29T16:05:37Z</time>
      </trkpt>
      <trkpt lat="44.9472" lon="5.44821">
        <ele>1131.61</ele>
        <time>2016-04-29T16:05:43Z</time>
      </trkpt>
      <trkpt lat="44.94721" lon="5.44821">
        <ele>1131.61</ele>
        <time>2016-04-29T16:05:44Z</time>
      </trkpt>
      <trkpt lat="44.94723" lon="5.44821">
        <ele>1131.61</ele>
        <time>2016-04-29T16:05:45Z</time>
      </trkpt>
      <trkpt lat="44.94724" lon="5.44821">
        <ele>1132.09</ele>
        <time>2016-04-29T16:05:46Z</time>
      </trkpt>
      <trkpt lat="44.94726" lon="5.44821">
        <ele>1132.09</ele>
        <time>2016-04-29T16:05:47Z</time>
      </trkpt>
      <trkpt lat="44.94727" lon="5.44821">
        <ele>1132.09</ele>
        <time>2016-04-29T16:05:48Z</time>
      </trkpt>
      <trkpt lat="44.94728" lon="5.44822">
        <ele>1132.57</ele>
        <time>2016-04-29T16:05:49Z</time>
      </trkpt>
      <trkpt lat="44.94733" lon="5.44825">
        <ele>1132.09</ele>
        <time>2016-04-29T16:05:56Z</time>
      </trkpt>
      <trkpt lat="44.94745" lon="5.44837">
        <ele>1132.57</ele>
        <time>2016-04-29T16:06:04Z</time>
      </trkpt>
      <trkpt lat="44.94747" lon="5.44837">
        <ele>1132.57</ele>
        <time>2016-04-29T16:06:05Z</time>
      </trkpt>
      <trkpt lat="44.94749" lon="5.44837">
        <ele>1132.57</ele>
        <time>2016-04-29T16:06:06Z</time>
      </trkpt>
      <trkpt lat="44.94751" lon="5.44837">
        <ele>1132.57</ele>
        <time>2016-04-29T16:06:07Z</time>
      </trkpt>
      <trkpt lat="44.94753" lon="5.44837">
        <ele>1132.57</ele>
        <time>2016-04-29T16:06:08Z</time>
      </trkpt>
      <trkpt lat="44.94755" lon="5.44837">
        <ele>1133.05</ele>
        <time>2016-04-29T16:06:09Z</time>
      </trkpt>
      <trkpt lat="44.94756" lon="5.44836">
        <ele>1133.05</ele>
        <time>2016-04-29T16:06:10Z</time>
      </trkpt>
      <trkpt lat="44.94758" lon="5.44836">
        <ele>1133.05</ele>
        <time>2016-04-29T16:06:11Z</time>
      </trkpt>
      <trkpt lat="44.9476" lon="5.44835">
        <ele>1133.05</ele>
        <time>2016-04-29T16:06:12Z</time>
      </trkpt>
      <trkpt lat="44.94767" lon="5.44828">
        <ele>1133.05</ele>
        <time>2016-04-29T16:06:16Z</time>
      </trkpt>
      <trkpt lat="44.94769" lon="5.44827">
        <ele>1133.05</ele>
        <time>2016-04-29T16:06:17Z</time>
      </trkpt>
      <trkpt lat="44.94771" lon="5.44825">
        <ele>1133.05</ele>
        <time>2016-04-29T16:06:18Z</time>
      </trkpt>
      <trkpt lat="44.94773" lon="5.44823">
        <ele>1133.05</ele>
        <time>2016-04-29T16:06:19Z</time>
      </trkpt>
      <trkpt lat="44.94775" lon="5.44822">
        <ele>1133.05</ele>
        <time>2016-04-29T16:06:20Z</time>
      </trkpt>
      <trkpt lat="44.94776" lon="5.4482">
        <ele>1133.05</ele>
        <time>2016-04-29T16:06:21Z</time>
      </trkpt>
      <trkpt lat="44.94777" lon="5.44819">
        <ele>1133.05</ele>
        <time>2016-04-29T16:06:22Z</time>
      </trkpt>
      <trkpt lat="44.94796" lon="5.44813">
        <ele>1133.53</ele>
        <time>2016-04-29T16:06:32Z</time>
      </trkpt>
      <trkpt lat="44.94805" lon="5.44812">
        <ele>1134.01</ele>
        <time>2016-04-29T16:06:37Z</time>
      </trkpt>
      <trkpt lat="44.94807" lon="5.44813">
        <ele>1133.53</ele>
        <time>2016-04-29T16:06:38Z</time>
      </trkpt>
      <trkpt lat="44.94808" lon="5.44814">
        <ele>1133.53</ele>
        <time>2016-04-29T16:06:39Z</time>
      </trkpt>
      <trkpt lat="44.9481" lon="5.44814">
        <ele>1134.01</ele>
        <time>2016-04-29T16:06:40Z</time>
      </trkpt>
      <trkpt lat="44.94812" lon="5.44815">
        <ele>1134.01</ele>
        <time>2016-04-29T16:06:41Z</time>
      </trkpt>
      <trkpt lat="44.94814" lon="5.44815">
        <ele>1134.01</ele>
        <time>2016-04-29T16:06:42Z</time>
      </trkpt>
      <trkpt lat="44.94815" lon="5.44815">
        <ele>1134.01</ele>
        <time>2016-04-29T16:06:43Z</time>
      </trkpt>
      <trkpt lat="44.94816" lon="5.44816">
        <ele>1134.01</ele>
        <time>2016-04-29T16:06:44Z</time>
      </trkpt>
      <trkpt lat="44.94818" lon="5.44816">
        <ele>1134.01</ele>
        <time>2016-04-29T16:06:45Z</time>
      </trkpt>
      <trkpt lat="44.94819" lon="5.44817">
        <ele>1134.01</ele>
        <time>2016-04-29T16:06:46Z</time>
      </trkpt>
      <trkpt lat="44.94821" lon="5.44818">
        <ele>1134.01</ele>
        <time>2016-04-29T16:06:47Z</time>
      </trkpt>
      <trkpt lat="44.94822" lon="5.4482">
        <ele>1134.49</ele>
        <time>2016-04-29T16:06:48Z</time>
      </trkpt>
      <trkpt lat="44.94823" lon="5.44821">
        <ele>1134.49</ele>
        <time>2016-04-29T16:06:49Z</time>
      </trkpt>
      <trkpt lat="44.94824" lon="5.44822">
        <ele>1134.49</ele>
        <time>2016-04-29T16:06:50Z</time>
      </trkpt>
      <trkpt lat="44.94826" lon="5.44823">
        <ele>1134.49</ele>
        <time>2016-04-29T16:06:51Z</time>
      </trkpt>
      <trkpt lat="44.94828" lon="5.44824">
        <ele>1134.49</ele>
        <time>2016-04-29T16:06:52Z</time>
      </trkpt>
      <trkpt lat="44.94844" lon="5.44835">
        <ele>1134.97</ele>
        <time>2016-04-29T16:07:01Z</time>
      </trkpt>
      <trkpt lat="44.94845" lon="5.44837">
        <ele>1135.45</ele>
        <time>2016-04-29T16:07:02Z</time>
      </trkpt>
      <trkpt lat="44.94847" lon="5.44838">
        <ele>1135.45</ele>
        <time>2016-04-29T16:07:03Z</time>
      </trkpt>
      <trkpt lat="44.94874" lon="5.44848">
        <ele>1136.42</ele>
        <time>2016-04-29T16:07:15Z</time>
      </trkpt>
      <trkpt lat="44.94892" lon="5.4485">
        <ele>1136.9</ele>
        <time>2016-04-29T16:07:24Z</time>
      </trkpt>
      <trkpt lat="44.94894" lon="5.44851">
        <ele>1136.9</ele>
        <time>2016-04-29T16:07:25Z</time>
      </trkpt>
      <trkpt lat="44.94896" lon="5.44852">
        <ele>1136.9</ele>
        <time>2016-04-29T16:07:26Z</time>
      </trkpt>
      <trkpt lat="44.94897" lon="5.44852">
        <ele>1136.9</ele>
        <time>2016-04-29T16:07:27Z</time>
      </trkpt>
      <trkpt lat="44.94898" lon="5.44853">
        <ele>1137.38</ele>
        <time>2016-04-29T16:07:28Z</time>
      </trkpt>
      <trkpt lat="44.949" lon="5.44855">
        <ele>1137.38</ele>
        <time>2016-04-29T16:07:30Z</time>
      </trkpt>
      <trkpt lat="44.949" lon="5.44857">
        <ele>1137.86</ele>
        <time>2016-04-29T16:07:31Z</time>
      </trkpt>
      <trkpt lat="44.94903" lon="5.44863">
        <ele>1137.86</ele>
        <time>2016-04-29T16:07:43Z</time>
      </trkpt>
      <trkpt lat="44.94908" lon="5.44863">
        <ele>1137.38</ele>
        <time>2016-04-29T16:07:55Z</time>
      </trkpt>
      <trkpt lat="44.94912" lon="5.44865">
        <ele>1137.38</ele>
        <time>2016-04-29T16:08:12Z</time>
      </trkpt>
      <trkpt lat="44.94913" lon="5.44866">
        <ele>1137.86</ele>
        <time>2016-04-29T16:08:13Z</time>
      </trkpt>
      <trkpt lat="44.94923" lon="5.44871">
        <ele>1139.78</ele>
        <time>2016-04-29T16:08:20Z</time>
      </trkpt>
      <trkpt lat="44.94925" lon="5.44871">
        <ele>1140.74</ele>
        <time>2016-04-29T16:08:21Z</time>
      </trkpt>
      <trkpt lat="44.94926" lon="5.44871">
        <ele>1140.74</ele>
        <time>2016-04-29T16:08:22Z</time>
      </trkpt>
      <trkpt lat="44.94929" lon="5.44872">
        <ele>1141.22</ele>
        <time>2016-04-29T16:08:30Z</time>
      </trkpt>
      <trkpt lat="44.94933" lon="5.44871">
        <ele>1142.18</ele>
        <time>2016-04-29T16:08:41Z</time>
      </trkpt>
      <trkpt lat="44.94938" lon="5.44872">
        <ele>1141.7</ele>
        <time>2016-04-29T16:08:47Z</time>
      </trkpt>
      <trkpt lat="44.9494" lon="5.44874">
        <ele>1141.7</ele>
        <time>2016-04-29T16:08:48Z</time>
      </trkpt>
      <trkpt lat="44.94942" lon="5.44875">
        <ele>1141.22</ele>
        <time>2016-04-29T16:08:49Z</time>
      </trkpt>
      <trkpt lat="44.94943" lon="5.44877">
        <ele>1141.22</ele>
        <time>2016-04-29T16:08:50Z</time>
      </trkpt>
      <trkpt lat="44.94945" lon="5.44879">
        <ele>1141.22</ele>
        <time>2016-04-29T16:08:51Z</time>
      </trkpt>
      <trkpt lat="44.9495" lon="5.44887">
        <ele>1140.74</ele>
        <time>2016-04-29T16:08:55Z</time>
      </trkpt>
      <trkpt lat="44.9495" lon="5.44889">
        <ele>1140.26</ele>
        <time>2016-04-29T16:08:56Z</time>
      </trkpt>
      <trkpt lat="44.94951" lon="5.44891">
        <ele>1139.78</ele>
        <time>2016-04-29T16:08:57Z</time>
      </trkpt>
      <trkpt lat="44.94963" lon="5.44894">
        <ele>1139.3</ele>
        <time>2016-04-29T16:09:03Z</time>
      </trkpt>
      <trkpt lat="44.9497" lon="5.44896">
        <ele>1139.3</ele>
        <time>2016-04-29T16:09:08Z</time>
      </trkpt>
      <trkpt lat="44.94978" lon="5.44893">
        <ele>1138.34</ele>
        <time>2016-04-29T16:09:16Z</time>
      </trkpt>
      <trkpt lat="44.94983" lon="5.44892">
        <ele>1138.34</ele>
        <time>2016-04-29T16:09:27Z</time>
      </trkpt>
      <trkpt lat="44.94993" lon="5.44891">
        <ele>1138.34</ele>
        <time>2016-04-29T16:09:34Z</time>
      </trkpt>
      <trkpt lat="44.95009" lon="5.44897">
        <ele>1140.26</ele>
        <time>2016-04-29T16:09:44Z</time>
      </trkpt>
      <trkpt lat="44.95026" lon="5.44899">
        <ele>1139.78</ele>
        <time>2016-04-29T16:09:52Z</time>
      </trkpt>
      <trkpt lat="44.95028" lon="5.44899">
        <ele>1140.26</ele>
        <time>2016-04-29T16:09:53Z</time>
      </trkpt>
      <trkpt lat="44.9503" lon="5.449">
        <ele>1139.78</ele>
        <time>2016-04-29T16:09:54Z</time>
      </trkpt>
      <trkpt lat="44.95032" lon="5.44901">
        <ele>1140.26</ele>
        <time>2016-04-29T16:09:55Z</time>
      </trkpt>
      <trkpt lat="44.95036" lon="5.44903">
        <ele>1140.26</ele>
        <time>2016-04-29T16:09:58Z</time>
      </trkpt>
      <trkpt lat="44.9504" lon="5.44908">
        <ele>1140.74</ele>
        <time>2016-04-29T16:10:03Z</time>
      </trkpt>
      <trkpt lat="44.95042" lon="5.44909">
        <ele>1140.74</ele>
        <time>2016-04-29T16:10:04Z</time>
      </trkpt>
      <trkpt lat="44.95043" lon="5.4491">
        <ele>1140.74</ele>
        <time>2016-04-29T16:10:05Z</time>
      </trkpt>
      <trkpt lat="44.95046" lon="5.44912">
        <ele>1141.22</ele>
        <time>2016-04-29T16:10:06Z</time>
      </trkpt>
      <trkpt lat="44.95048" lon="5.44913">
        <ele>1141.22</ele>
        <time>2016-04-29T16:10:07Z</time>
      </trkpt>
      <trkpt lat="44.9505" lon="5.44914">
        <ele>1141.22</ele>
        <time>2016-04-29T16:10:08Z</time>
      </trkpt>
      <trkpt lat="44.95052" lon="5.44915">
        <ele>1141.22</ele>
        <time>2016-04-29T16:10:09Z</time>
      </trkpt>
      <trkpt lat="44.95055" lon="5.44917">
        <ele>1141.22</ele>
        <time>2016-04-29T16:10:10Z</time>
      </trkpt>
      <trkpt lat="44.95068" lon="5.44916">
        <ele>1142.66</ele>
        <time>2016-04-29T16:10:20Z</time>
      </trkpt>
      <trkpt lat="44.95081" lon="5.44909">
        <ele>1144.59</ele>
        <time>2016-04-29T16:10:31Z</time>
      </trkpt>
      <trkpt lat="44.95083" lon="5.44907">
        <ele>1145.55</ele>
        <time>2016-04-29T16:10:33Z</time>
      </trkpt>
      <trkpt lat="44.95084" lon="5.44905">
        <ele>1145.55</ele>
        <time>2016-04-29T16:10:34Z</time>
      </trkpt>
      <trkpt lat="44.95086" lon="5.44904">
        <ele>1146.03</ele>
        <time>2016-04-29T16:10:35Z</time>
      </trkpt>
      <trkpt lat="44.95087" lon="5.44902">
        <ele>1146.03</ele>
        <time>2016-04-29T16:10:36Z</time>
      </trkpt>
      <trkpt lat="44.9509" lon="5.44901">
        <ele>1146.51</ele>
        <time>2016-04-29T16:10:38Z</time>
      </trkpt>
      <trkpt lat="44.95091" lon="5.44901">
        <ele>1146.51</ele>
        <time>2016-04-29T16:10:39Z</time>
      </trkpt>
      <trkpt lat="44.95093" lon="5.44901">
        <ele>1146.03</ele>
        <time>2016-04-29T16:10:40Z</time>
      </trkpt>
      <trkpt lat="44.95095" lon="5.44901">
        <ele>1146.03</ele>
        <time>2016-04-29T16:10:52Z</time>
      </trkpt>
      <trkpt lat="44.95095" lon="5.44902">
        <ele>1146.03</ele>
        <time>2016-04-29T16:11:16Z</time>
      </trkpt>
      <trkpt lat="44.95097" lon="5.449">
        <ele>1146.03</ele>
        <time>2016-04-29T16:11:41Z</time>
      </trkpt>
      <trkpt lat="44.95102" lon="5.449">
        <ele>1145.55</ele>
        <time>2016-04-29T16:11:54Z</time>
      </trkpt>
      <trkpt lat="44.95107" lon="5.44903">
        <ele>1144.11</ele>
        <time>2016-04-29T16:12:06Z</time>
      </trkpt>
      <trkpt lat="44.9511" lon="5.44905">
        <ele>1143.63</ele>
        <time>2016-04-29T16:12:09Z</time>
      </trkpt>
      <trkpt lat="44.95111" lon="5.44905">
        <ele>1143.63</ele>
        <time>2016-04-29T16:12:10Z</time>
      </trkpt>
      <trkpt lat="44.95116" lon="5.4491">
        <ele>1143.14</ele>
        <time>2016-04-29T16:12:21Z</time>
      </trkpt>
      <trkpt lat="44.95124" lon="5.44911">
        <ele>1143.14</ele>
        <time>2016-04-29T16:12:31Z</time>
      </trkpt>
      <trkpt lat="44.95128" lon="5.44916">
        <ele>1142.66</ele>
        <time>2016-04-29T16:12:43Z</time>
      </trkpt>
      <trkpt lat="44.95129" lon="5.44917">
        <ele>1142.66</ele>
        <time>2016-04-29T16:12:44Z</time>
      </trkpt>
      <trkpt lat="44.95131" lon="5.44918">
        <ele>1143.14</ele>
        <time>2016-04-29T16:12:45Z</time>
      </trkpt>
      <trkpt lat="44.95133" lon="5.44919">
        <ele>1142.66</ele>
        <time>2016-04-29T16:12:47Z</time>
      </trkpt>
      <trkpt lat="44.95139" lon="5.44929">
        <ele>1143.14</ele>
        <time>2016-04-29T16:12:56Z</time>
      </trkpt>
      <trkpt lat="44.9514" lon="5.44932">
        <ele>1143.14</ele>
        <time>2016-04-29T16:13:01Z</time>
      </trkpt>
      <trkpt lat="44.95141" lon="5.44934">
        <ele>1143.14</ele>
        <time>2016-04-29T16:13:02Z</time>
      </trkpt>
      <trkpt lat="44.95157" lon="5.44946">
        <ele>1144.11</ele>
        <time>2016-04-29T16:13:10Z</time>
      </trkpt>
      <trkpt lat="44.95171" lon="5.44954">
        <ele>1143.63</ele>
        <time>2016-04-29T16:13:17Z</time>
      </trkpt>
      <trkpt lat="44.95173" lon="5.44954">
        <ele>1143.63</ele>
        <time>2016-04-29T16:13:18Z</time>
      </trkpt>
      <trkpt lat="44.95178" lon="5.44953">
        <ele>1143.63</ele>
        <time>2016-04-29T16:13:20Z</time>
      </trkpt>
      <trkpt lat="44.95186" lon="5.44959">
        <ele>1143.63</ele>
        <time>2016-04-29T16:13:29Z</time>
      </trkpt>
      <trkpt lat="44.95188" lon="5.44963">
        <ele>1143.63</ele>
        <time>2016-04-29T16:13:54Z</time>
      </trkpt>
      <trkpt lat="44.95189" lon="5.44963">
        <ele>1143.14</ele>
        <time>2016-04-29T16:13:55Z</time>
      </trkpt>
      <trkpt lat="44.95191" lon="5.44964">
        <ele>1143.63</ele>
        <time>2016-04-29T16:13:56Z</time>
      </trkpt>
      <trkpt lat="44.95192" lon="5.44965">
        <ele>1143.14</ele>
        <time>2016-04-29T16:13:57Z</time>
      </trkpt>
      <trkpt lat="44.95193" lon="5.44966">
        <ele>1143.14</ele>
        <time>2016-04-29T16:13:58Z</time>
      </trkpt>
      <trkpt lat="44.95194" lon="5.44967">
        <ele>1143.14</ele>
        <time>2016-04-29T16:13:59Z</time>
      </trkpt>
      <trkpt lat="44.95195" lon="5.44967">
        <ele>1143.14</ele>
        <time>2016-04-29T16:14:00Z</time>
      </trkpt>
      <trkpt lat="44.95197" lon="5.44968">
        <ele>1143.63</ele>
        <time>2016-04-29T16:14:01Z</time>
      </trkpt>
      <trkpt lat="44.95198" lon="5.44969">
        <ele>1143.63</ele>
        <time>2016-04-29T16:14:02Z</time>
      </trkpt>
      <trkpt lat="44.95201" lon="5.4497">
        <ele>1143.63</ele>
        <time>2016-04-29T16:14:04Z</time>
      </trkpt>
      <trkpt lat="44.95209" lon="5.44973">
        <ele>1144.11</ele>
        <time>2016-04-29T16:14:09Z</time>
      </trkpt>
      <trkpt lat="44.95211" lon="5.44974">
        <ele>1144.11</ele>
        <time>2016-04-29T16:14:10Z</time>
      </trkpt>
      <trkpt lat="44.95213" lon="5.44975">
        <ele>1144.11</ele>
        <time>2016-04-29T16:14:11Z</time>
      </trkpt>
      <trkpt lat="44.95215" lon="5.44976">
        <ele>1144.11</ele>
        <time>2016-04-29T16:14:12Z</time>
      </trkpt>
      <trkpt lat="44.95217" lon="5.44976">
        <ele>1144.11</ele>
        <time>2016-04-29T16:14:13Z</time>
      </trkpt>
      <trkpt lat="44.95228" lon="5.44976">
        <ele>1144.59</ele>
        <time>2016-04-29T16:14:15Z</time>
      </trkpt>
      <trkpt lat="44.95235" lon="5.44979">
        <ele>1144.59</ele>
        <time>2016-04-29T16:14:16Z</time>
      </trkpt>
      <trkpt lat="44.95238" lon="5.4498">
        <ele>1144.59</ele>
        <time>2016-04-29T16:14:17Z</time>
      </trkpt>
      <trkpt lat="44.95239" lon="5.44981">
        <ele>1145.07</ele>
        <time>2016-04-29T16:14:18Z</time>
      </trkpt>
      <trkpt lat="44.95245" lon="5.44984">
        <ele>1145.07</ele>
        <time>2016-04-29T16:14:20Z</time>
      </trkpt>
      <trkpt lat="44.95249" lon="5.44984">
        <ele>1145.07</ele>
        <time>2016-04-29T16:14:21Z</time>
      </trkpt>
      <trkpt lat="44.95252" lon="5.44984">
        <ele>1145.07</ele>
        <time>2016-04-29T16:14:22Z</time>
      </trkpt>
      <trkpt lat="44.95254" lon="5.44985">
        <ele>1145.55</ele>
        <time>2016-04-29T16:14:23Z</time>
      </trkpt>
      <trkpt lat="44.95256" lon="5.44986">
        <ele>1146.03</ele>
        <time>2016-04-29T16:14:24Z</time>
      </trkpt>
      <trkpt lat="44.95258" lon="5.44987">
        <ele>1146.03</ele>
        <time>2016-04-29T16:14:25Z</time>
      </trkpt>
      <trkpt lat="44.9526" lon="5.44988">
        <ele>1146.03</ele>
        <time>2016-04-29T16:14:26Z</time>
      </trkpt>
      <trkpt lat="44.95262" lon="5.44988">
        <ele>1146.03</ele>
        <time>2016-04-29T16:14:27Z</time>
      </trkpt>
      <trkpt lat="44.95264" lon="5.44989">
        <ele>1146.03</ele>
        <time>2016-04-29T16:14:28Z</time>
      </trkpt>
      <trkpt lat="44.95265" lon="5.4499">
        <ele>1146.03</ele>
        <time>2016-04-29T16:14:29Z</time>
      </trkpt>
      <trkpt lat="44.95267" lon="5.44991">
        <ele>1146.03</ele>
        <time>2016-04-29T16:14:30Z</time>
      </trkpt>
      <trkpt lat="44.95269" lon="5.44991">
        <ele>1146.51</ele>
        <time>2016-04-29T16:14:31Z</time>
      </trkpt>
      <trkpt lat="44.95278" lon="5.4499">
        <ele>1146.51</ele>
        <time>2016-04-29T16:14:42Z</time>
      </trkpt>
      <trkpt lat="44.95279" lon="5.4499">
        <ele>1146.99</ele>
        <time>2016-04-29T16:15:07Z</time>
      </trkpt>
      <trkpt lat="44.95281" lon="5.44992">
        <ele>1146.51</ele>
        <time>2016-04-29T16:15:35Z</time>
      </trkpt>
      <trkpt lat="44.95281" lon="5.44992">
        <ele>1146.51</ele>
        <time>2016-04-29T16:16:05Z</time>
      </trkpt>
      <trkpt lat="44.95281" lon="5.44989">
        <ele>1146.51</ele>
        <time>2016-04-29T16:16:31Z</time>
      </trkpt>
      <trkpt lat="44.95281" lon="5.44989">
        <ele>1146.99</ele>
        <time>2016-04-29T16:16:56Z</time>
      </trkpt>
      <trkpt lat="44.9528" lon="5.4499">
        <ele>1146.51</ele>
        <time>2016-04-29T16:17:31Z</time>
      </trkpt>
      <trkpt lat="44.9528" lon="5.4499">
        <ele>1145.55</ele>
        <time>2016-04-29T16:17:39Z</time>
      </trkpt>
      <trkpt lat="44.95281" lon="5.4499">
        <ele>1146.51</ele>
        <time>2016-04-29T16:18:06Z</time>
      </trkpt>
      <trkpt lat="44.95284" lon="5.44991">
        <ele>1146.51</ele>
        <time>2016-04-29T16:18:13Z</time>
      </trkpt>
      <trkpt lat="44.95286" lon="5.44996">
        <ele>1146.99</ele>
        <time>2016-04-29T16:18:16Z</time>
      </trkpt>
      <trkpt lat="44.95287" lon="5.44997">
        <ele>1146.99</ele>
        <time>2016-04-29T16:18:17Z</time>
      </trkpt>
      <trkpt lat="44.95288" lon="5.44998">
        <ele>1146.99</ele>
        <time>2016-04-29T16:18:18Z</time>
      </trkpt>
      <trkpt lat="44.9529" lon="5.44999">
        <ele>1146.99</ele>
        <time>2016-04-29T16:18:19Z</time>
      </trkpt>
      <trkpt lat="44.95292" lon="5.45">
        <ele>1146.99</ele>
        <time>2016-04-29T16:18:20Z</time>
      </trkpt>
      <trkpt lat="44.95293" lon="5.44999">
        <ele>1146.99</ele>
        <time>2016-04-29T16:18:21Z</time>
      </trkpt>
      <trkpt lat="44.95295" lon="5.44999">
        <ele>1146.99</ele>
        <time>2016-04-29T16:18:22Z</time>
      </trkpt>
      <trkpt lat="44.95296" lon="5.44998">
        <ele>1147.47</ele>
        <time>2016-04-29T16:18:23Z</time>
      </trkpt>
      <trkpt lat="44.95309" lon="5.44999">
        <ele>1148.43</ele>
        <time>2016-04-29T16:18:33Z</time>
      </trkpt>
      <trkpt lat="44.95322" lon="5.45002">
        <ele>1149.87</ele>
        <time>2016-04-29T16:18:43Z</time>
      </trkpt>
      <trkpt lat="44.9533" lon="5.45005">
        <ele>1149.87</ele>
        <time>2016-04-29T16:18:48Z</time>
      </trkpt>
      <trkpt lat="44.95331" lon="5.45006">
        <ele>1150.35</ele>
        <time>2016-04-29T16:18:49Z</time>
      </trkpt>
      <trkpt lat="44.95332" lon="5.45007">
        <ele>1150.35</ele>
        <time>2016-04-29T16:18:50Z</time>
      </trkpt>
      <trkpt lat="44.95334" lon="5.45008">
        <ele>1150.84</ele>
        <time>2016-04-29T16:18:51Z</time>
      </trkpt>
      <trkpt lat="44.95335" lon="5.4501">
        <ele>1150.84</ele>
        <time>2016-04-29T16:18:52Z</time>
      </trkpt>
      <trkpt lat="44.95351" lon="5.45025">
        <ele>1152.76</ele>
        <time>2016-04-29T16:19:03Z</time>
      </trkpt>
      <trkpt lat="44.95362" lon="5.45038">
        <ele>1153.24</ele>
        <time>2016-04-29T16:19:10Z</time>
      </trkpt>
      <trkpt lat="44.95363" lon="5.4504">
        <ele>1153.24</ele>
        <time>2016-04-29T16:19:11Z</time>
      </trkpt>
      <trkpt lat="44.95364" lon="5.45042">
        <ele>1153.72</ele>
        <time>2016-04-29T16:19:12Z</time>
      </trkpt>
      <trkpt lat="44.95366" lon="5.45043">
        <ele>1153.72</ele>
        <time>2016-04-29T16:19:13Z</time>
      </trkpt>
      <trkpt lat="44.95378" lon="5.45064">
        <ele>1154.68</ele>
        <time>2016-04-29T16:19:24Z</time>
      </trkpt>
      <trkpt lat="44.95379" lon="5.45066">
        <ele>1155.16</ele>
        <time>2016-04-29T16:19:25Z</time>
      </trkpt>
      <trkpt lat="44.9538" lon="5.45068">
        <ele>1155.16</ele>
        <time>2016-04-29T16:19:26Z</time>
      </trkpt>
      <trkpt lat="44.95394" lon="5.45099">
        <ele>1157.08</ele>
        <time>2016-04-29T16:19:40Z</time>
      </trkpt>
      <trkpt lat="44.95394" lon="5.45104">
        <ele>1157.56</ele>
        <time>2016-04-29T16:19:42Z</time>
      </trkpt>
      <trkpt lat="44.95394" lon="5.45107">
        <ele>1157.56</ele>
        <time>2016-04-29T16:19:43Z</time>
      </trkpt>
      <trkpt lat="44.95396" lon="5.4511">
        <ele>1157.56</ele>
        <time>2016-04-29T16:19:44Z</time>
      </trkpt>
      <trkpt lat="44.9541" lon="5.45132">
        <ele>1159.01</ele>
        <time>2016-04-29T16:19:54Z</time>
      </trkpt>
      <trkpt lat="44.95412" lon="5.45135">
        <ele>1159.49</ele>
        <time>2016-04-29T16:19:56Z</time>
      </trkpt>
      <trkpt lat="44.95412" lon="5.45137">
        <ele>1159.49</ele>
        <time>2016-04-29T16:19:57Z</time>
      </trkpt>
      <trkpt lat="44.95414" lon="5.45139">
        <ele>1159.49</ele>
        <time>2016-04-29T16:19:58Z</time>
      </trkpt>
      <trkpt lat="44.95416" lon="5.4514">
        <ele>1159.97</ele>
        <time>2016-04-29T16:19:59Z</time>
      </trkpt>
      <trkpt lat="44.95418" lon="5.45143">
        <ele>1159.97</ele>
        <time>2016-04-29T16:20:00Z</time>
      </trkpt>
      <trkpt lat="44.95438" lon="5.4516">
        <ele>1161.41</ele>
        <time>2016-04-29T16:20:09Z</time>
      </trkpt>
      <trkpt lat="44.9544" lon="5.45161">
        <ele>1161.89</ele>
        <time>2016-04-29T16:20:10Z</time>
      </trkpt>
      <trkpt lat="44.95443" lon="5.45174">
        <ele>1163.81</ele>
        <time>2016-04-29T16:20:21Z</time>
      </trkpt>
      <trkpt lat="44.95451" lon="5.4518">
        <ele>1165.26</ele>
        <time>2016-04-29T16:20:30Z</time>
      </trkpt>
      <trkpt lat="44.95457" lon="5.45175">
        <ele>1167.18</ele>
        <time>2016-04-29T16:20:42Z</time>
      </trkpt>
      <trkpt lat="44.95472" lon="5.45167">
        <ele>1169.1</ele>
        <time>2016-04-29T16:20:54Z</time>
      </trkpt>
      <trkpt lat="44.95477" lon="5.45163">
        <ele>1169.58</ele>
        <time>2016-04-29T16:20:58Z</time>
      </trkpt>
      <trkpt lat="44.95479" lon="5.45163">
        <ele>1170.06</ele>
        <time>2016-04-29T16:20:59Z</time>
      </trkpt>
      <trkpt lat="44.9548" lon="5.45162">
        <ele>1170.06</ele>
        <time>2016-04-29T16:21:00Z</time>
      </trkpt>
      <trkpt lat="44.95482" lon="5.45161">
        <ele>1170.06</ele>
        <time>2016-04-29T16:21:01Z</time>
      </trkpt>
      <trkpt lat="44.95483" lon="5.4516">
        <ele>1170.54</ele>
        <time>2016-04-29T16:21:02Z</time>
      </trkpt>
      <trkpt lat="44.95484" lon="5.45159">
        <ele>1171.02</ele>
        <time>2016-04-29T16:21:03Z</time>
      </trkpt>
      <trkpt lat="44.95508" lon="5.4516">
        <ele>1173.91</ele>
        <time>2016-04-29T16:21:21Z</time>
      </trkpt>
      <trkpt lat="44.95526" lon="5.45171">
        <ele>1176.31</ele>
        <time>2016-04-29T16:21:35Z</time>
      </trkpt>
      <trkpt lat="44.95528" lon="5.45173">
        <ele>1176.31</ele>
        <time>2016-04-29T16:21:37Z</time>
      </trkpt>
      <trkpt lat="44.9553" lon="5.45173">
        <ele>1176.79</ele>
        <time>2016-04-29T16:21:38Z</time>
      </trkpt>
      <trkpt lat="44.95535" lon="5.45175">
        <ele>1177.27</ele>
        <time>2016-04-29T16:21:42Z</time>
      </trkpt>
      <trkpt lat="44.95555" lon="5.45168">
        <ele>1180.16</ele>
        <time>2016-04-29T16:21:57Z</time>
      </trkpt>
      <trkpt lat="44.95573" lon="5.45163">
        <ele>1182.56</ele>
        <time>2016-04-29T16:22:10Z</time>
      </trkpt>
      <trkpt lat="44.95586" lon="5.45154">
        <ele>1184</ele>
        <time>2016-04-29T16:22:19Z</time>
      </trkpt>
      <trkpt lat="44.95587" lon="5.45153">
        <ele>1184</ele>
        <time>2016-04-29T16:22:20Z</time>
      </trkpt>
      <trkpt lat="44.95588" lon="5.45151">
        <ele>1184.48</ele>
        <time>2016-04-29T16:22:21Z</time>
      </trkpt>
      <trkpt lat="44.95589" lon="5.4515">
        <ele>1184.96</ele>
        <time>2016-04-29T16:22:22Z</time>
      </trkpt>
      <trkpt lat="44.95591" lon="5.45149">
        <ele>1184.96</ele>
        <time>2016-04-29T16:22:23Z</time>
      </trkpt>
      <trkpt lat="44.95593" lon="5.45146">
        <ele>1184.96</ele>
        <time>2016-04-29T16:22:25Z</time>
      </trkpt>
      <trkpt lat="44.95594" lon="5.45145">
        <ele>1184.96</ele>
        <time>2016-04-29T16:22:26Z</time>
      </trkpt>
      <trkpt lat="44.95595" lon="5.45144">
        <ele>1185.44</ele>
        <time>2016-04-29T16:22:27Z</time>
      </trkpt>
      <trkpt lat="44.95597" lon="5.45143">
        <ele>1185.44</ele>
        <time>2016-04-29T16:22:28Z</time>
      </trkpt>
      <trkpt lat="44.95598" lon="5.45143">
        <ele>1185.92</ele>
        <time>2016-04-29T16:22:29Z</time>
      </trkpt>
      <trkpt lat="44.95599" lon="5.45142">
        <ele>1185.92</ele>
        <time>2016-04-29T16:22:30Z</time>
      </trkpt>
      <trkpt lat="44.95602" lon="5.45142">
        <ele>1186.4</ele>
        <time>2016-04-29T16:22:32Z</time>
      </trkpt>
      <trkpt lat="44.95603" lon="5.45142">
        <ele>1186.4</ele>
        <time>2016-04-29T16:22:33Z</time>
      </trkpt>
      <trkpt lat="44.95605" lon="5.45142">
        <ele>1186.4</ele>
        <time>2016-04-29T16:22:34Z</time>
      </trkpt>
      <trkpt lat="44.95622" lon="5.45146">
        <ele>1187.85</ele>
        <time>2016-04-29T16:22:45Z</time>
      </trkpt>
      <trkpt lat="44.95628" lon="5.45145">
        <ele>1188.33</ele>
        <time>2016-04-29T16:22:49Z</time>
      </trkpt>
      <trkpt lat="44.95649" lon="5.45128">
        <ele>1189.77</ele>
        <time>2016-04-29T16:23:02Z</time>
      </trkpt>
      <trkpt lat="44.95666" lon="5.4511">
        <ele>1191.21</ele>
        <time>2016-04-29T16:23:16Z</time>
      </trkpt>
      <trkpt lat="44.95668" lon="5.4511">
        <ele>1190.73</ele>
        <time>2016-04-29T16:23:17Z</time>
      </trkpt>
      <trkpt lat="44.95671" lon="5.45109">
        <ele>1191.21</ele>
        <time>2016-04-29T16:23:19Z</time>
      </trkpt>
      <trkpt lat="44.95673" lon="5.45107">
        <ele>1191.21</ele>
        <time>2016-04-29T16:23:20Z</time>
      </trkpt>
      <trkpt lat="44.95678" lon="5.45103">
        <ele>1191.69</ele>
        <time>2016-04-29T16:23:23Z</time>
      </trkpt>
      <trkpt lat="44.9568" lon="5.45103">
        <ele>1191.69</ele>
        <time>2016-04-29T16:23:24Z</time>
      </trkpt>
      <trkpt lat="44.95682" lon="5.45102">
        <ele>1191.69</ele>
        <time>2016-04-29T16:23:25Z</time>
      </trkpt>
      <trkpt lat="44.95684" lon="5.45101">
        <ele>1192.17</ele>
        <time>2016-04-29T16:23:26Z</time>
      </trkpt>
      <trkpt lat="44.95686" lon="5.45101">
        <ele>1191.69</ele>
        <time>2016-04-29T16:23:27Z</time>
      </trkpt>
      <trkpt lat="44.95688" lon="5.45101">
        <ele>1192.17</ele>
        <time>2016-04-29T16:23:28Z</time>
      </trkpt>
      <trkpt lat="44.95691" lon="5.45101">
        <ele>1192.17</ele>
        <time>2016-04-29T16:23:29Z</time>
      </trkpt>
      <trkpt lat="44.9572" lon="5.45103">
        <ele>1194.58</ele>
        <time>2016-04-29T16:23:42Z</time>
      </trkpt>
      <trkpt lat="44.95748" lon="5.45105">
        <ele>1197.46</ele>
        <time>2016-04-29T16:23:58Z</time>
      </trkpt>
      <trkpt lat="44.95768" lon="5.45108">
        <ele>1198.9</ele>
        <time>2016-04-29T16:24:10Z</time>
      </trkpt>
      <trkpt lat="44.95797" lon="5.45114">
        <ele>1200.82</ele>
        <time>2016-04-29T16:24:25Z</time>
      </trkpt>
      <trkpt lat="44.95821" lon="5.4512">
        <ele>1202.75</ele>
        <time>2016-04-29T16:24:39Z</time>
      </trkpt>
      <trkpt lat="44.95823" lon="5.45121">
        <ele>1203.23</ele>
        <time>2016-04-29T16:24:40Z</time>
      </trkpt>
      <trkpt lat="44.95825" lon="5.45121">
        <ele>1203.23</ele>
        <time>2016-04-29T16:24:41Z</time>
      </trkpt>
      <trkpt lat="44.95827" lon="5.45122">
        <ele>1203.23</ele>
        <time>2016-04-29T16:24:42Z</time>
      </trkpt>
      <trkpt lat="44.95829" lon="5.45122">
        <ele>1203.23</ele>
        <time>2016-04-29T16:24:43Z</time>
      </trkpt>
      <trkpt lat="44.95858" lon="5.45129">
        <ele>1206.11</ele>
        <time>2016-04-29T16:24:59Z</time>
      </trkpt>
      <trkpt lat="44.95882" lon="5.45135">
        <ele>1208.03</ele>
        <time>2016-04-29T16:25:13Z</time>
      </trkpt>
      <trkpt lat="44.95909" lon="5.45141">
        <ele>1210.44</ele>
        <time>2016-04-29T16:25:28Z</time>
      </trkpt>
      <trkpt lat="44.95936" lon="5.45144">
        <ele>1213.32</ele>
        <time>2016-04-29T16:25:44Z</time>
      </trkpt>
      <trkpt lat="44.95964" lon="5.45151">
        <ele>1215.24</ele>
        <time>2016-04-29T16:26:01Z</time>
      </trkpt>
      <trkpt lat="44.95969" lon="5.45151">
        <ele>1215.72</ele>
        <time>2016-04-29T16:26:04Z</time>
      </trkpt>
      <trkpt lat="44.95971" lon="5.4515">
        <ele>1215.72</ele>
        <time>2016-04-29T16:26:05Z</time>
      </trkpt>
      <trkpt lat="44.95973" lon="5.45151">
        <ele>1216.21</ele>
        <time>2016-04-29T16:26:06Z</time>
      </trkpt>
      <trkpt lat="44.95979" lon="5.45152">
        <ele>1216.69</ele>
        <time>2016-04-29T16:26:10Z</time>
      </trkpt>
      <trkpt lat="44.95981" lon="5.45152">
        <ele>1216.69</ele>
        <time>2016-04-29T16:26:11Z</time>
      </trkpt>
      <trkpt lat="44.95983" lon="5.45152">
        <ele>1216.69</ele>
        <time>2016-04-29T16:26:12Z</time>
      </trkpt>
      <trkpt lat="44.95995" lon="5.45154">
        <ele>1218.13</ele>
        <time>2016-04-29T16:26:19Z</time>
      </trkpt>
      <trkpt lat="44.95996" lon="5.45154">
        <ele>1218.13</ele>
        <time>2016-04-29T16:26:20Z</time>
      </trkpt>
      <trkpt lat="44.96024" lon="5.45156">
        <ele>1220.53</ele>
        <time>2016-04-29T16:26:36Z</time>
      </trkpt>
      <trkpt lat="44.96051" lon="5.4516">
        <ele>1222.45</ele>
        <time>2016-04-29T16:26:52Z</time>
      </trkpt>
      <trkpt lat="44.96075" lon="5.45162">
        <ele>1224.38</ele>
        <time>2016-04-29T16:27:06Z</time>
      </trkpt>
      <trkpt lat="44.96096" lon="5.45164">
        <ele>1225.82</ele>
        <time>2016-04-29T16:27:17Z</time>
      </trkpt>
      <trkpt lat="44.96116" lon="5.45167">
        <ele>1227.26</ele>
        <time>2016-04-29T16:27:28Z</time>
      </trkpt>
      <trkpt lat="44.96118" lon="5.45168">
        <ele>1227.26</ele>
        <time>2016-04-29T16:27:29Z</time>
      </trkpt>
      <trkpt lat="44.96119" lon="5.45168">
        <ele>1227.74</ele>
        <time>2016-04-29T16:27:30Z</time>
      </trkpt>
      <trkpt lat="44.96131" lon="5.45173">
        <ele>1228.7</ele>
        <time>2016-04-29T16:27:38Z</time>
      </trkpt>
      <trkpt lat="44.96151" lon="5.45178">
        <ele>1230.62</ele>
        <time>2016-04-29T16:27:50Z</time>
      </trkpt>
      <trkpt lat="44.9617" lon="5.45178">
        <ele>1232.55</ele>
        <time>2016-04-29T16:28:01Z</time>
      </trkpt>
      <trkpt lat="44.96192" lon="5.4516">
        <ele>1233.03</ele>
        <time>2016-04-29T16:28:11Z</time>
      </trkpt>
      <trkpt lat="44.96212" lon="5.45145">
        <ele>1234.47</ele>
        <time>2016-04-29T16:28:23Z</time>
      </trkpt>
      <trkpt lat="44.96232" lon="5.4515">
        <ele>1235.91</ele>
        <time>2016-04-29T16:28:35Z</time>
      </trkpt>
      <trkpt lat="44.96254" lon="5.45155">
        <ele>1237.83</ele>
        <time>2016-04-29T16:28:47Z</time>
      </trkpt>
      <trkpt lat="44.96276" lon="5.45157">
        <ele>1238.8</ele>
        <time>2016-04-29T16:28:59Z</time>
      </trkpt>
      <trkpt lat="44.96295" lon="5.45161">
        <ele>1240.72</ele>
        <time>2016-04-29T16:29:11Z</time>
      </trkpt>
      <trkpt lat="44.96297" lon="5.45162">
        <ele>1240.72</ele>
        <time>2016-04-29T16:29:12Z</time>
      </trkpt>
      <trkpt lat="44.96299" lon="5.45162">
        <ele>1241.2</ele>
        <time>2016-04-29T16:29:13Z</time>
      </trkpt>
      <trkpt lat="44.963" lon="5.45163">
        <ele>1241.2</ele>
        <time>2016-04-29T16:29:14Z</time>
      </trkpt>
      <trkpt lat="44.96302" lon="5.45163">
        <ele>1241.2</ele>
        <time>2016-04-29T16:29:15Z</time>
      </trkpt>
      <trkpt lat="44.96304" lon="5.45163">
        <ele>1241.2</ele>
        <time>2016-04-29T16:29:16Z</time>
      </trkpt>
      <trkpt lat="44.96306" lon="5.45164">
        <ele>1241.68</ele>
        <time>2016-04-29T16:29:17Z</time>
      </trkpt>
      <trkpt lat="44.96327" lon="5.45171">
        <ele>1243.6</ele>
        <time>2016-04-29T16:29:31Z</time>
      </trkpt>
      <trkpt lat="44.96347" lon="5.45177">
        <ele>1245.04</ele>
        <time>2016-04-29T16:29:44Z</time>
      </trkpt>
      <trkpt lat="44.96356" lon="5.45179">
        <ele>1245.53</ele>
        <time>2016-04-29T16:29:49Z</time>
      </trkpt>
      <trkpt lat="44.96358" lon="5.4518">
        <ele>1245.53</ele>
        <time>2016-04-29T16:29:50Z</time>
      </trkpt>
      <trkpt lat="44.9636" lon="5.45181">
        <ele>1246.01</ele>
        <time>2016-04-29T16:29:51Z</time>
      </trkpt>
      <trkpt lat="44.96361" lon="5.45181">
        <ele>1246.01</ele>
        <time>2016-04-29T16:29:52Z</time>
      </trkpt>
      <trkpt lat="44.96363" lon="5.45182">
        <ele>1246.49</ele>
        <time>2016-04-29T16:29:53Z</time>
      </trkpt>
      <trkpt lat="44.96387" lon="5.45196">
        <ele>1247.45</ele>
        <time>2016-04-29T16:30:07Z</time>
      </trkpt>
      <trkpt lat="44.96405" lon="5.45214">
        <ele>1249.37</ele>
        <time>2016-04-29T16:30:20Z</time>
      </trkpt>
      <trkpt lat="44.96415" lon="5.45224">
        <ele>1250.33</ele>
        <time>2016-04-29T16:30:28Z</time>
      </trkpt>
      <trkpt lat="44.96442" lon="5.45239">
        <ele>1252.25</ele>
        <time>2016-04-29T16:30:44Z</time>
      </trkpt>
      <trkpt lat="44.96445" lon="5.4524">
        <ele>1252.74</ele>
        <time>2016-04-29T16:30:45Z</time>
      </trkpt>
      <trkpt lat="44.96447" lon="5.45241">
        <ele>1252.74</ele>
        <time>2016-04-29T16:30:46Z</time>
      </trkpt>
      <trkpt lat="44.96448" lon="5.45242">
        <ele>1253.22</ele>
        <time>2016-04-29T16:30:47Z</time>
      </trkpt>
      <trkpt lat="44.9645" lon="5.45243">
        <ele>1253.22</ele>
        <time>2016-04-29T16:30:48Z</time>
      </trkpt>
      <trkpt lat="44.96462" lon="5.4525">
        <ele>1255.62</ele>
        <time>2016-04-29T16:30:54Z</time>
      </trkpt>
      <trkpt lat="44.96474" lon="5.45258">
        <ele>1255.14</ele>
        <time>2016-04-29T16:31:03Z</time>
      </trkpt>
      <trkpt lat="44.96492" lon="5.45272">
        <ele>1257.06</ele>
        <time>2016-04-29T16:31:15Z</time>
      </trkpt>
      <trkpt lat="44.96498" lon="5.45279">
        <ele>1257.54</ele>
        <time>2016-04-29T16:31:20Z</time>
      </trkpt>
      <trkpt lat="44.965" lon="5.4528">
        <ele>1258.02</ele>
        <time>2016-04-29T16:31:21Z</time>
      </trkpt>
      <trkpt lat="44.96518" lon="5.45288">
        <ele>1259.46</ele>
        <time>2016-04-29T16:31:31Z</time>
      </trkpt>
      <trkpt lat="44.9652" lon="5.45288">
        <ele>1259.46</ele>
        <time>2016-04-29T16:31:32Z</time>
      </trkpt>
      <trkpt lat="44.96521" lon="5.45287">
        <ele>1259.46</ele>
        <time>2016-04-29T16:31:33Z</time>
      </trkpt>
      <trkpt lat="44.96544" lon="5.4527">
        <ele>1261.39</ele>
        <time>2016-04-29T16:31:46Z</time>
      </trkpt>
      <trkpt lat="44.96553" lon="5.45268">
        <ele>1262.35</ele>
        <time>2016-04-29T16:31:52Z</time>
      </trkpt>
      <trkpt lat="44.96555" lon="5.45268">
        <ele>1262.83</ele>
        <time>2016-04-29T16:31:53Z</time>
      </trkpt>
      <trkpt lat="44.96577" lon="5.45274">
        <ele>1264.75</ele>
        <time>2016-04-29T16:32:07Z</time>
      </trkpt>
      <trkpt lat="44.96588" lon="5.45293">
        <ele>1266.67</ele>
        <time>2016-04-29T16:32:19Z</time>
      </trkpt>
      <trkpt lat="44.96589" lon="5.45295">
        <ele>1267.16</ele>
        <time>2016-04-29T16:32:20Z</time>
      </trkpt>
      <trkpt lat="44.9659" lon="5.45297">
        <ele>1267.16</ele>
        <time>2016-04-29T16:32:21Z</time>
      </trkpt>
      <trkpt lat="44.96591" lon="5.45298">
        <ele>1267.16</ele>
        <time>2016-04-29T16:32:22Z</time>
      </trkpt>
      <trkpt lat="44.96591" lon="5.453">
        <ele>1267.64</ele>
        <time>2016-04-29T16:32:23Z</time>
      </trkpt>
      <trkpt lat="44.96592" lon="5.45301">
        <ele>1267.64</ele>
        <time>2016-04-29T16:32:24Z</time>
      </trkpt>
      <trkpt lat="44.96593" lon="5.45302">
        <ele>1267.64</ele>
        <time>2016-04-29T16:32:25Z</time>
      </trkpt>
      <trkpt lat="44.96595" lon="5.45304">
        <ele>1268.12</ele>
        <time>2016-04-29T16:32:26Z</time>
      </trkpt>
      <trkpt lat="44.96597" lon="5.45305">
        <ele>1268.12</ele>
        <time>2016-04-29T16:32:27Z</time>
      </trkpt>
      <trkpt lat="44.96598" lon="5.45307">
        <ele>1268.12</ele>
        <time>2016-04-29T16:32:28Z</time>
      </trkpt>
      <trkpt lat="44.96612" lon="5.4532">
        <ele>1269.56</ele>
        <time>2016-04-29T16:32:38Z</time>
      </trkpt>
      <trkpt lat="44.96613" lon="5.45321">
        <ele>1269.56</ele>
        <time>2016-04-29T16:32:39Z</time>
      </trkpt>
      <trkpt lat="44.96614" lon="5.45322">
        <ele>1269.56</ele>
        <time>2016-04-29T16:32:40Z</time>
      </trkpt>
      <trkpt lat="44.96622" lon="5.4533">
        <ele>1271</ele>
        <time>2016-04-29T16:32:47Z</time>
      </trkpt>
      <trkpt lat="44.9663" lon="5.45339">
        <ele>1272.44</ele>
        <time>2016-04-29T16:32:55Z</time>
      </trkpt>
      <trkpt lat="44.96642" lon="5.45349">
        <ele>1274.36</ele>
        <time>2016-04-29T16:33:05Z</time>
      </trkpt>
      <trkpt lat="44.96659" lon="5.45357">
        <ele>1275.33</ele>
        <time>2016-04-29T16:33:14Z</time>
      </trkpt>
      <trkpt lat="44.9667" lon="5.45367">
        <ele>1276.77</ele>
        <time>2016-04-29T16:33:22Z</time>
      </trkpt>
      <trkpt lat="44.96672" lon="5.45368">
        <ele>1276.77</ele>
        <time>2016-04-29T16:33:23Z</time>
      </trkpt>
      <trkpt lat="44.96683" lon="5.45378">
        <ele>1278.21</ele>
        <time>2016-04-29T16:33:31Z</time>
      </trkpt>
      <trkpt lat="44.96686" lon="5.45383">
        <ele>1278.69</ele>
        <time>2016-04-29T16:33:34Z</time>
      </trkpt>
      <trkpt lat="44.96706" lon="5.45388">
        <ele>1280.13</ele>
        <time>2016-04-29T16:33:46Z</time>
      </trkpt>
      <trkpt lat="44.96722" lon="5.45389">
        <ele>1281.57</ele>
        <time>2016-04-29T16:33:55Z</time>
      </trkpt>
      <trkpt lat="44.96741" lon="5.45395">
        <ele>1283.02</ele>
        <time>2016-04-29T16:34:04Z</time>
      </trkpt>
      <trkpt lat="44.96749" lon="5.45402">
        <ele>1283.98</ele>
        <time>2016-04-29T16:34:10Z</time>
      </trkpt>
      <trkpt lat="44.96749" lon="5.45403">
        <ele>1283.98</ele>
        <time>2016-04-29T16:34:11Z</time>
      </trkpt>
      <trkpt lat="44.9675" lon="5.45405">
        <ele>1283.98</ele>
        <time>2016-04-29T16:34:12Z</time>
      </trkpt>
      <trkpt lat="44.96751" lon="5.45407">
        <ele>1284.46</ele>
        <time>2016-04-29T16:34:13Z</time>
      </trkpt>
      <trkpt lat="44.96752" lon="5.45408">
        <ele>1284.46</ele>
        <time>2016-04-29T16:34:14Z</time>
      </trkpt>
      <trkpt lat="44.96756" lon="5.45423">
        <ele>1285.9</ele>
        <time>2016-04-29T16:34:25Z</time>
      </trkpt>
      <trkpt lat="44.96754" lon="5.45425">
        <ele>1285.9</ele>
        <time>2016-04-29T16:34:26Z</time>
      </trkpt>
      <trkpt lat="44.96754" lon="5.45427">
        <ele>1285.9</ele>
        <time>2016-04-29T16:34:27Z</time>
      </trkpt>
      <trkpt lat="44.96754" lon="5.45429">
        <ele>1285.9</ele>
        <time>2016-04-29T16:34:28Z</time>
      </trkpt>
      <trkpt lat="44.96754" lon="5.45431">
        <ele>1286.38</ele>
        <time>2016-04-29T16:34:29Z</time>
      </trkpt>
      <trkpt lat="44.96755" lon="5.45432">
        <ele>1286.38</ele>
        <time>2016-04-29T16:34:30Z</time>
      </trkpt>
      <trkpt lat="44.96755" lon="5.45438">
        <ele>1286.86</ele>
        <time>2016-04-29T16:34:34Z</time>
      </trkpt>
      <trkpt lat="44.96753" lon="5.45449">
        <ele>1287.82</ele>
        <time>2016-04-29T16:34:42Z</time>
      </trkpt>
      <trkpt lat="44.96751" lon="5.4547">
        <ele>1288.78</ele>
        <time>2016-04-29T16:34:51Z</time>
      </trkpt>
      <trkpt lat="44.96752" lon="5.45472">
        <ele>1288.78</ele>
        <time>2016-04-29T16:34:52Z</time>
      </trkpt>
      <trkpt lat="44.9675" lon="5.45491">
        <ele>1290.23</ele>
        <time>2016-04-29T16:35:02Z</time>
      </trkpt>
      <trkpt lat="44.9675" lon="5.45494">
        <ele>1290.23</ele>
        <time>2016-04-29T16:35:03Z</time>
      </trkpt>
      <trkpt lat="44.9675" lon="5.45496">
        <ele>1290.71</ele>
        <time>2016-04-29T16:35:04Z</time>
      </trkpt>
      <trkpt lat="44.96748" lon="5.45504">
        <ele>1291.19</ele>
        <time>2016-04-29T16:35:08Z</time>
      </trkpt>
      <trkpt lat="44.96747" lon="5.45505">
        <ele>1291.19</ele>
        <time>2016-04-29T16:35:09Z</time>
      </trkpt>
      <trkpt lat="44.96747" lon="5.45508">
        <ele>1291.67</ele>
        <time>2016-04-29T16:35:10Z</time>
      </trkpt>
      <trkpt lat="44.96746" lon="5.4551">
        <ele>1291.67</ele>
        <time>2016-04-29T16:35:11Z</time>
      </trkpt>
      <trkpt lat="44.96745" lon="5.45511">
        <ele>1291.67</ele>
        <time>2016-04-29T16:35:12Z</time>
      </trkpt>
      <trkpt lat="44.96744" lon="5.45513">
        <ele>1292.15</ele>
        <time>2016-04-29T16:35:13Z</time>
      </trkpt>
      <trkpt lat="44.96743" lon="5.45515">
        <ele>1292.15</ele>
        <time>2016-04-29T16:35:14Z</time>
      </trkpt>
      <trkpt lat="44.96743" lon="5.45517">
        <ele>1292.63</ele>
        <time>2016-04-29T16:35:15Z</time>
      </trkpt>
      <trkpt lat="44.96742" lon="5.4552">
        <ele>1292.63</ele>
        <time>2016-04-29T16:35:16Z</time>
      </trkpt>
      <trkpt lat="44.96742" lon="5.45522">
        <ele>1292.63</ele>
        <time>2016-04-29T16:35:17Z</time>
      </trkpt>
      <trkpt lat="44.96742" lon="5.45524">
        <ele>1293.11</ele>
        <time>2016-04-29T16:35:18Z</time>
      </trkpt>
      <trkpt lat="44.96741" lon="5.45526">
        <ele>1293.11</ele>
        <time>2016-04-29T16:35:19Z</time>
      </trkpt>
      <trkpt lat="44.96741" lon="5.45528">
        <ele>1293.11</ele>
        <time>2016-04-29T16:35:20Z</time>
      </trkpt>
      <trkpt lat="44.9674" lon="5.4553">
        <ele>1293.11</ele>
        <time>2016-04-29T16:35:21Z</time>
      </trkpt>
      <trkpt lat="44.96739" lon="5.45532">
        <ele>1293.11</ele>
        <time>2016-04-29T16:35:22Z</time>
      </trkpt>
      <trkpt lat="44.96738" lon="5.45536">
        <ele>1294.07</ele>
        <time>2016-04-29T16:35:24Z</time>
      </trkpt>
      <trkpt lat="44.96738" lon="5.45538">
        <ele>1294.07</ele>
        <time>2016-04-29T16:35:25Z</time>
      </trkpt>
      <trkpt lat="44.96738" lon="5.45539">
        <ele>1294.07</ele>
        <time>2016-04-29T16:35:26Z</time>
      </trkpt>
      <trkpt lat="44.96738" lon="5.45542">
        <ele>1294.07</ele>
        <time>2016-04-29T16:35:27Z</time>
      </trkpt>
      <trkpt lat="44.96738" lon="5.45544">
        <ele>1294.07</ele>
        <time>2016-04-29T16:35:28Z</time>
      </trkpt>
      <trkpt lat="44.96738" lon="5.45546">
        <ele>1294.07</ele>
        <time>2016-04-29T16:35:29Z</time>
      </trkpt>
      <trkpt lat="44.96737" lon="5.45548">
        <ele>1294.55</ele>
        <time>2016-04-29T16:35:30Z</time>
      </trkpt>
      <trkpt lat="44.96736" lon="5.4555">
        <ele>1294.55</ele>
        <time>2016-04-29T16:35:31Z</time>
      </trkpt>
      <trkpt lat="44.96736" lon="5.45552">
        <ele>1294.55</ele>
        <time>2016-04-29T16:35:32Z</time>
      </trkpt>
      <trkpt lat="44.96735" lon="5.45553">
        <ele>1295.03</ele>
        <time>2016-04-29T16:35:33Z</time>
      </trkpt>
      <trkpt lat="44.96735" lon="5.45555">
        <ele>1295.03</ele>
        <time>2016-04-29T16:35:34Z</time>
      </trkpt>
      <trkpt lat="44.96734" lon="5.45557">
        <ele>1295.03</ele>
        <time>2016-04-29T16:35:35Z</time>
      </trkpt>
      <trkpt lat="44.96734" lon="5.45559">
        <ele>1295.51</ele>
        <time>2016-04-29T16:35:36Z</time>
      </trkpt>
      <trkpt lat="44.96733" lon="5.45562">
        <ele>1295.51</ele>
        <time>2016-04-29T16:35:37Z</time>
      </trkpt>
      <trkpt lat="44.96732" lon="5.45564">
        <ele>1295.99</ele>
        <time>2016-04-29T16:35:38Z</time>
      </trkpt>
      <trkpt lat="44.96731" lon="5.45565">
        <ele>1295.99</ele>
        <time>2016-04-29T16:35:39Z</time>
      </trkpt>
      <trkpt lat="44.96729" lon="5.45568">
        <ele>1295.99</ele>
        <time>2016-04-29T16:35:41Z</time>
      </trkpt>
      <trkpt lat="44.96728" lon="5.4557">
        <ele>1296.48</ele>
        <time>2016-04-29T16:35:42Z</time>
      </trkpt>
      <trkpt lat="44.96727" lon="5.45571">
        <ele>1296.48</ele>
        <time>2016-04-29T16:35:43Z</time>
      </trkpt>
      <trkpt lat="44.96727" lon="5.45573">
        <ele>1296.48</ele>
        <time>2016-04-29T16:35:44Z</time>
      </trkpt>
      <trkpt lat="44.96726" lon="5.45575">
        <ele>1296.96</ele>
        <time>2016-04-29T16:35:45Z</time>
      </trkpt>
      <trkpt lat="44.96725" lon="5.45577">
        <ele>1296.96</ele>
        <time>2016-04-29T16:35:46Z</time>
      </trkpt>
      <trkpt lat="44.96723" lon="5.45579">
        <ele>1296.96</ele>
        <time>2016-04-29T16:35:47Z</time>
      </trkpt>
      <trkpt lat="44.96722" lon="5.45581">
        <ele>1297.44</ele>
        <time>2016-04-29T16:35:48Z</time>
      </trkpt>
      <trkpt lat="44.96721" lon="5.45583">
        <ele>1297.44</ele>
        <time>2016-04-29T16:35:49Z</time>
      </trkpt>
      <trkpt lat="44.9672" lon="5.45585">
        <ele>1297.44</ele>
        <time>2016-04-29T16:35:50Z</time>
      </trkpt>
      <trkpt lat="44.96719" lon="5.45586">
        <ele>1297.44</ele>
        <time>2016-04-29T16:35:51Z</time>
      </trkpt>
      <trkpt lat="44.96718" lon="5.45588">
        <ele>1297.92</ele>
        <time>2016-04-29T16:35:52Z</time>
      </trkpt>
      <trkpt lat="44.96718" lon="5.45591">
        <ele>1297.92</ele>
        <time>2016-04-29T16:35:53Z</time>
      </trkpt>
      <trkpt lat="44.96717" lon="5.45593">
        <ele>1297.92</ele>
        <time>2016-04-29T16:35:54Z</time>
      </trkpt>
      <trkpt lat="44.96717" lon="5.45595">
        <ele>1297.92</ele>
        <time>2016-04-29T16:35:55Z</time>
      </trkpt>
      <trkpt lat="44.96716" lon="5.45597">
        <ele>1298.4</ele>
        <time>2016-04-29T16:35:56Z</time>
      </trkpt>
      <trkpt lat="44.96716" lon="5.45599">
        <ele>1298.4</ele>
        <time>2016-04-29T16:35:57Z</time>
      </trkpt>
      <trkpt lat="44.96716" lon="5.45601">
        <ele>1298.88</ele>
        <time>2016-04-29T16:35:58Z</time>
      </trkpt>
      <trkpt lat="44.96716" lon="5.45604">
        <ele>1298.88</ele>
        <time>2016-04-29T16:35:59Z</time>
      </trkpt>
      <trkpt lat="44.96716" lon="5.45606">
        <ele>1298.88</ele>
        <time>2016-04-29T16:36:00Z</time>
      </trkpt>
      <trkpt lat="44.96716" lon="5.45607">
        <ele>1299.36</ele>
        <time>2016-04-29T16:36:01Z</time>
      </trkpt>
      <trkpt lat="44.96716" lon="5.45609">
        <ele>1299.36</ele>
        <time>2016-04-29T16:36:02Z</time>
      </trkpt>
      <trkpt lat="44.96715" lon="5.45611">
        <ele>1299.36</ele>
        <time>2016-04-29T16:36:03Z</time>
      </trkpt>
      <trkpt lat="44.96714" lon="5.45613">
        <ele>1299.84</ele>
        <time>2016-04-29T16:36:04Z</time>
      </trkpt>
      <trkpt lat="44.96714" lon="5.45615">
        <ele>1299.84</ele>
        <time>2016-04-29T16:36:05Z</time>
      </trkpt>
      <trkpt lat="44.96714" lon="5.45618">
        <ele>1299.84</ele>
        <time>2016-04-29T16:36:06Z</time>
      </trkpt>
      <trkpt lat="44.96714" lon="5.4562">
        <ele>1300.32</ele>
        <time>2016-04-29T16:36:07Z</time>
      </trkpt>
      <trkpt lat="44.96713" lon="5.45625">
        <ele>1300.32</ele>
        <time>2016-04-29T16:36:10Z</time>
      </trkpt>
      <trkpt lat="44.96713" lon="5.45627">
        <ele>1300.32</ele>
        <time>2016-04-29T16:36:11Z</time>
      </trkpt>
      <trkpt lat="44.96713" lon="5.45636">
        <ele>1301.28</ele>
        <time>2016-04-29T16:36:15Z</time>
      </trkpt>
      <trkpt lat="44.96713" lon="5.45638">
        <ele>1301.28</ele>
        <time>2016-04-29T16:36:16Z</time>
      </trkpt>
      <trkpt lat="44.96714" lon="5.45641">
        <ele>1301.28</ele>
        <time>2016-04-29T16:36:17Z</time>
      </trkpt>
      <trkpt lat="44.96715" lon="5.45643">
        <ele>1301.76</ele>
        <time>2016-04-29T16:36:18Z</time>
      </trkpt>
      <trkpt lat="44.96717" lon="5.45646">
        <ele>1301.76</ele>
        <time>2016-04-29T16:36:19Z</time>
      </trkpt>
      <trkpt lat="44.96719" lon="5.45648">
        <ele>1301.76</ele>
        <time>2016-04-29T16:36:20Z</time>
      </trkpt>
      <trkpt lat="44.96721" lon="5.4565">
        <ele>1301.76</ele>
        <time>2016-04-29T16:36:21Z</time>
      </trkpt>
      <trkpt lat="44.96724" lon="5.45652">
        <ele>1301.76</ele>
        <time>2016-04-29T16:36:22Z</time>
      </trkpt>
      <trkpt lat="44.96726" lon="5.45654">
        <ele>1302.24</ele>
        <time>2016-04-29T16:36:23Z</time>
      </trkpt>
      <trkpt lat="44.96742" lon="5.45662">
        <ele>1302.72</ele>
        <time>2016-04-29T16:36:34Z</time>
      </trkpt>
      <trkpt lat="44.96744" lon="5.45663">
        <ele>1302.72</ele>
        <time>2016-04-29T16:36:35Z</time>
      </trkpt>
      <trkpt lat="44.96771" lon="5.45684">
        <ele>1303.2</ele>
        <time>2016-04-29T16:36:48Z</time>
      </trkpt>
      <trkpt lat="44.96794" lon="5.45706">
        <ele>1302.24</ele>
        <time>2016-04-29T16:37:00Z</time>
      </trkpt>
      <trkpt lat="44.9681" lon="5.45731">
        <ele>1304.65</ele>
        <time>2016-04-29T16:37:11Z</time>
      </trkpt>
      <trkpt lat="44.96823" lon="5.45747">
        <ele>1305.13</ele>
        <time>2016-04-29T16:37:19Z</time>
      </trkpt>
      <trkpt lat="44.96824" lon="5.45749">
        <ele>1305.13</ele>
        <time>2016-04-29T16:37:20Z</time>
      </trkpt>
      <trkpt lat="44.96826" lon="5.45751">
        <ele>1305.13</ele>
        <time>2016-04-29T16:37:21Z</time>
      </trkpt>
      <trkpt lat="44.96828" lon="5.45752">
        <ele>1305.61</ele>
        <time>2016-04-29T16:37:22Z</time>
      </trkpt>
      <trkpt lat="44.9683" lon="5.45754">
        <ele>1305.61</ele>
        <time>2016-04-29T16:37:23Z</time>
      </trkpt>
      <trkpt lat="44.96831" lon="5.45755">
        <ele>1305.61</ele>
        <time>2016-04-29T16:37:24Z</time>
      </trkpt>
      <trkpt lat="44.96832" lon="5.45757">
        <ele>1305.61</ele>
        <time>2016-04-29T16:37:25Z</time>
      </trkpt>
      <trkpt lat="44.96832" lon="5.45759">
        <ele>1305.61</ele>
        <time>2016-04-29T16:37:26Z</time>
      </trkpt>
      <trkpt lat="44.96833" lon="5.45761">
        <ele>1306.09</ele>
        <time>2016-04-29T16:37:27Z</time>
      </trkpt>
      <trkpt lat="44.96834" lon="5.45763">
        <ele>1306.57</ele>
        <time>2016-04-29T16:37:29Z</time>
      </trkpt>
      <trkpt lat="44.96834" lon="5.45768">
        <ele>1306.57</ele>
        <time>2016-04-29T16:37:32Z</time>
      </trkpt>
      <trkpt lat="44.96835" lon="5.45771">
        <ele>1307.05</ele>
        <time>2016-04-29T16:37:33Z</time>
      </trkpt>
      <trkpt lat="44.96837" lon="5.45778">
        <ele>1307.05</ele>
        <time>2016-04-29T16:37:35Z</time>
      </trkpt>
      <trkpt lat="44.96839" lon="5.45782">
        <ele>1307.05</ele>
        <time>2016-04-29T16:37:36Z</time>
      </trkpt>
      <trkpt lat="44.96841" lon="5.45785">
        <ele>1307.05</ele>
        <time>2016-04-29T16:37:37Z</time>
      </trkpt>
      <trkpt lat="44.96842" lon="5.45787">
        <ele>1307.05</ele>
        <time>2016-04-29T16:37:38Z</time>
      </trkpt>
      <trkpt lat="44.96846" lon="5.45797">
        <ele>1308.01</ele>
        <time>2016-04-29T16:37:41Z</time>
      </trkpt>
      <trkpt lat="44.96848" lon="5.458">
        <ele>1308.01</ele>
        <time>2016-04-29T16:37:42Z</time>
      </trkpt>
      <trkpt lat="44.96853" lon="5.45809">
        <ele>1308.49</ele>
        <time>2016-04-29T16:37:45Z</time>
      </trkpt>
      <trkpt lat="44.96852" lon="5.45821">
        <ele>1308.97</ele>
        <time>2016-04-29T16:37:51Z</time>
      </trkpt>
      <trkpt lat="44.96854" lon="5.45824">
        <ele>1308.97</ele>
        <time>2016-04-29T16:37:52Z</time>
      </trkpt>
      <trkpt lat="44.96855" lon="5.45828">
        <ele>1308.97</ele>
        <time>2016-04-29T16:37:53Z</time>
      </trkpt>
      <trkpt lat="44.96857" lon="5.45831">
        <ele>1309.45</ele>
        <time>2016-04-29T16:37:54Z</time>
      </trkpt>
      <trkpt lat="44.96859" lon="5.45834">
        <ele>1309.45</ele>
        <time>2016-04-29T16:37:55Z</time>
      </trkpt>
      <trkpt lat="44.96882" lon="5.45861">
        <ele>1310.41</ele>
        <time>2016-04-29T16:38:05Z</time>
      </trkpt>
      <trkpt lat="44.96897" lon="5.45873">
        <ele>1309.93</ele>
        <time>2016-04-29T16:38:13Z</time>
      </trkpt>
      <trkpt lat="44.96899" lon="5.45874">
        <ele>1311.86</ele>
        <time>2016-04-29T16:38:14Z</time>
      </trkpt>
      <trkpt lat="44.96916" lon="5.45887">
        <ele>1311.86</ele>
        <time>2016-04-29T16:38:23Z</time>
      </trkpt>
      <trkpt lat="44.96933" lon="5.45916">
        <ele>1313.3</ele>
        <time>2016-04-29T16:38:34Z</time>
      </trkpt>
      <trkpt lat="44.96936" lon="5.45919">
        <ele>1313.78</ele>
        <time>2016-04-29T16:38:36Z</time>
      </trkpt>
      <trkpt lat="44.96952" lon="5.45925">
        <ele>1314.26</ele>
        <time>2016-04-29T16:38:43Z</time>
      </trkpt>
      <trkpt lat="44.96955" lon="5.45926">
        <ele>1314.74</ele>
        <time>2016-04-29T16:38:44Z</time>
      </trkpt>
      <trkpt lat="44.96958" lon="5.45927">
        <ele>1314.74</ele>
        <time>2016-04-29T16:38:45Z</time>
      </trkpt>
      <trkpt lat="44.9696" lon="5.45927">
        <ele>1314.74</ele>
        <time>2016-04-29T16:38:46Z</time>
      </trkpt>
      <trkpt lat="44.96962" lon="5.45928">
        <ele>1314.74</ele>
        <time>2016-04-29T16:38:47Z</time>
      </trkpt>
      <trkpt lat="44.96963" lon="5.45929">
        <ele>1314.74</ele>
        <time>2016-04-29T16:38:48Z</time>
      </trkpt>
      <trkpt lat="44.96987" lon="5.45937">
        <ele>1315.7</ele>
        <time>2016-04-29T16:38:58Z</time>
      </trkpt>
      <trkpt lat="44.97014" lon="5.45962">
        <ele>1316.18</ele>
        <time>2016-04-29T16:39:09Z</time>
      </trkpt>
      <trkpt lat="44.97028" lon="5.45979">
        <ele>1316.66</ele>
        <time>2016-04-29T16:39:18Z</time>
      </trkpt>
      <trkpt lat="44.9704" lon="5.45992">
        <ele>1317.14</ele>
        <time>2016-04-29T16:39:24Z</time>
      </trkpt>
      <trkpt lat="44.97046" lon="5.45996">
        <ele>1317.14</ele>
        <time>2016-04-29T16:39:26Z</time>
      </trkpt>
      <trkpt lat="44.97048" lon="5.45997">
        <ele>1317.62</ele>
        <time>2016-04-29T16:39:27Z</time>
      </trkpt>
      <trkpt lat="44.97058" lon="5.46009">
        <ele>1317.62</ele>
        <time>2016-04-29T16:39:36Z</time>
      </trkpt>
      <trkpt lat="44.97067" lon="5.46028">
        <ele>1317.62</ele>
        <time>2016-04-29T16:39:42Z</time>
      </trkpt>
      <trkpt lat="44.97076" lon="5.46068">
        <ele>1319.55</ele>
        <time>2016-04-29T16:39:53Z</time>
      </trkpt>
      <trkpt lat="44.97074" lon="5.46095">
        <ele>1320.51</ele>
        <time>2016-04-29T16:40:02Z</time>
      </trkpt>
      <trkpt lat="44.97074" lon="5.46098">
        <ele>1320.51</ele>
        <time>2016-04-29T16:40:03Z</time>
      </trkpt>
      <trkpt lat="44.9708" lon="5.46116">
        <ele>1321.95</ele>
        <time>2016-04-29T16:40:12Z</time>
      </trkpt>
      <trkpt lat="44.9708" lon="5.46118">
        <ele>1321.95</ele>
        <time>2016-04-29T16:40:13Z</time>
      </trkpt>
      <trkpt lat="44.97081" lon="5.46121">
        <ele>1322.43</ele>
        <time>2016-04-29T16:40:14Z</time>
      </trkpt>
      <trkpt lat="44.97088" lon="5.46133">
        <ele>1322.91</ele>
        <time>2016-04-29T16:40:20Z</time>
      </trkpt>
      <trkpt lat="44.97101" lon="5.46151">
        <ele>1324.35</ele>
        <time>2016-04-29T16:40:30Z</time>
      </trkpt>
      <trkpt lat="44.97102" lon="5.46152">
        <ele>1324.35</ele>
        <time>2016-04-29T16:40:31Z</time>
      </trkpt>
      <trkpt lat="44.97105" lon="5.46154">
        <ele>1324.83</ele>
        <time>2016-04-29T16:40:33Z</time>
      </trkpt>
      <trkpt lat="44.97119" lon="5.46168">
        <ele>1325.8</ele>
        <time>2016-04-29T16:40:41Z</time>
      </trkpt>
      <trkpt lat="44.97133" lon="5.46193">
        <ele>1327.24</ele>
        <time>2016-04-29T16:40:53Z</time>
      </trkpt>
      <trkpt lat="44.97153" lon="5.46215">
        <ele>1328.68</ele>
        <time>2016-04-29T16:41:05Z</time>
      </trkpt>
      <trkpt lat="44.97177" lon="5.46233">
        <ele>1328.68</ele>
        <time>2016-04-29T16:41:18Z</time>
      </trkpt>
      <trkpt lat="44.9719" lon="5.46238">
        <ele>1329.64</ele>
        <time>2016-04-29T16:41:26Z</time>
      </trkpt>
      <trkpt lat="44.97197" lon="5.46239">
        <ele>1330.12</ele>
        <time>2016-04-29T16:41:29Z</time>
      </trkpt>
      <trkpt lat="44.97208" lon="5.46241">
        <ele>1330.12</ele>
        <time>2016-04-29T16:41:34Z</time>
      </trkpt>
      <trkpt lat="44.9721" lon="5.46241">
        <ele>1330.12</ele>
        <time>2016-04-29T16:41:35Z</time>
      </trkpt>
      <trkpt lat="44.97242" lon="5.46238">
        <ele>1330.12</ele>
        <time>2016-04-29T16:41:47Z</time>
      </trkpt>
      <trkpt lat="44.97276" lon="5.46247">
        <ele>1329.16</ele>
        <time>2016-04-29T16:41:59Z</time>
      </trkpt>
      <trkpt lat="44.97312" lon="5.46253">
        <ele>1326.76</ele>
        <time>2016-04-29T16:42:08Z</time>
      </trkpt>
      <trkpt lat="44.97316" lon="5.46252">
        <ele>1326.76</ele>
        <time>2016-04-29T16:42:09Z</time>
      </trkpt>
      <trkpt lat="44.97321" lon="5.46253">
        <ele>1326.28</ele>
        <time>2016-04-29T16:42:10Z</time>
      </trkpt>
      <trkpt lat="44.97325" lon="5.46253">
        <ele>1326.28</ele>
        <time>2016-04-29T16:42:11Z</time>
      </trkpt>
      <trkpt lat="44.9733" lon="5.46253">
        <ele>1326.28</ele>
        <time>2016-04-29T16:42:12Z</time>
      </trkpt>
      <trkpt lat="44.97335" lon="5.46253">
        <ele>1325.8</ele>
        <time>2016-04-29T16:42:13Z</time>
      </trkpt>
      <trkpt lat="44.9734" lon="5.46254">
        <ele>1325.8</ele>
        <time>2016-04-29T16:42:14Z</time>
      </trkpt>
      <trkpt lat="44.97345" lon="5.46255">
        <ele>1325.31</ele>
        <time>2016-04-29T16:42:15Z</time>
      </trkpt>
      <trkpt lat="44.9735" lon="5.46256">
        <ele>1324.83</ele>
        <time>2016-04-29T16:42:16Z</time>
      </trkpt>
      <trkpt lat="44.97355" lon="5.46257">
        <ele>1324.35</ele>
        <time>2016-04-29T16:42:17Z</time>
      </trkpt>
      <trkpt lat="44.97365" lon="5.46258">
        <ele>1323.87</ele>
        <time>2016-04-29T16:42:19Z</time>
      </trkpt>
      <trkpt lat="44.9737" lon="5.46258">
        <ele>1323.87</ele>
        <time>2016-04-29T16:42:20Z</time>
      </trkpt>
      <trkpt lat="44.9738" lon="5.46257">
        <ele>1323.39</ele>
        <time>2016-04-29T16:42:22Z</time>
      </trkpt>
      <trkpt lat="44.97385" lon="5.46255">
        <ele>1323.39</ele>
        <time>2016-04-29T16:42:23Z</time>
      </trkpt>
      <trkpt lat="44.9739" lon="5.46253">
        <ele>1323.39</ele>
        <time>2016-04-29T16:42:24Z</time>
      </trkpt>
      <trkpt lat="44.97432" lon="5.46236">
        <ele>1320.51</ele>
        <time>2016-04-29T16:42:32Z</time>
      </trkpt>
      <trkpt lat="44.97439" lon="5.46235">
        <ele>1319.55</ele>
        <time>2016-04-29T16:42:33Z</time>
      </trkpt>
      <trkpt lat="44.9746" lon="5.46229">
        <ele>1318.1</ele>
        <time>2016-04-29T16:42:36Z</time>
      </trkpt>
      <trkpt lat="44.97467" lon="5.46226">
        <ele>1317.62</ele>
        <time>2016-04-29T16:42:37Z</time>
      </trkpt>
      <trkpt lat="44.97475" lon="5.46223">
        <ele>1317.14</ele>
        <time>2016-04-29T16:42:38Z</time>
      </trkpt>
      <trkpt lat="44.97513" lon="5.46211">
        <ele>1313.78</ele>
        <time>2016-04-29T16:42:43Z</time>
      </trkpt>
      <trkpt lat="44.97536" lon="5.46203">
        <ele>1311.86</ele>
        <time>2016-04-29T16:42:46Z</time>
      </trkpt>
      <trkpt lat="44.97544" lon="5.46201">
        <ele>1311.38</ele>
        <time>2016-04-29T16:42:47Z</time>
      </trkpt>
      <trkpt lat="44.9759" lon="5.46193">
        <ele>1308.49</ele>
        <time>2016-04-29T16:42:52Z</time>
      </trkpt>
      <trkpt lat="44.97599" lon="5.46189">
        <ele>1308.01</ele>
        <time>2016-04-29T16:42:53Z</time>
      </trkpt>
      <trkpt lat="44.97615" lon="5.46181">
        <ele>1307.53</ele>
        <time>2016-04-29T16:42:55Z</time>
      </trkpt>
      <trkpt lat="44.97623" lon="5.46176">
        <ele>1307.53</ele>
        <time>2016-04-29T16:42:56Z</time>
      </trkpt>
      <trkpt lat="44.97688" lon="5.46121">
        <ele>1308.01</ele>
        <time>2016-04-29T16:43:07Z</time>
      </trkpt>
      <trkpt lat="44.97693" lon="5.46118">
        <ele>1308.01</ele>
        <time>2016-04-29T16:43:08Z</time>
      </trkpt>
      <trkpt lat="44.97701" lon="5.46109">
        <ele>1308.01</ele>
        <time>2016-04-29T16:43:10Z</time>
      </trkpt>
      <trkpt lat="44.97742" lon="5.46042">
        <ele>1306.09</ele>
        <time>2016-04-29T16:43:20Z</time>
      </trkpt>
      <trkpt lat="44.97752" lon="5.46017">
        <ele>1305.13</ele>
        <time>2016-04-29T16:43:23Z</time>
      </trkpt>
      <trkpt lat="44.97755" lon="5.46008">
        <ele>1304.65</ele>
        <time>2016-04-29T16:43:24Z</time>
      </trkpt>
      <trkpt lat="44.97773" lon="5.45942">
        <ele>1303.2</ele>
        <time>2016-04-29T16:43:32Z</time>
      </trkpt>
      <trkpt lat="44.97775" lon="5.45935">
        <ele>1303.2</ele>
        <time>2016-04-29T16:43:33Z</time>
      </trkpt>
      <trkpt lat="44.97778" lon="5.45928">
        <ele>1303.2</ele>
        <time>2016-04-29T16:43:34Z</time>
      </trkpt>
      <trkpt lat="44.97786" lon="5.45918">
        <ele>1302.72</ele>
        <time>2016-04-29T16:43:36Z</time>
      </trkpt>
      <trkpt lat="44.97789" lon="5.45914">
        <ele>1302.72</ele>
        <time>2016-04-29T16:43:37Z</time>
      </trkpt>
      <trkpt lat="44.97793" lon="5.45911">
        <ele>1302.24</ele>
        <time>2016-04-29T16:43:38Z</time>
      </trkpt>
      <trkpt lat="44.97813" lon="5.45904">
        <ele>1300.32</ele>
        <time>2016-04-29T16:43:42Z</time>
      </trkpt>
      <trkpt lat="44.97825" lon="5.45903">
        <ele>1299.36</ele>
        <time>2016-04-29T16:43:44Z</time>
      </trkpt>
      <trkpt lat="44.97833" lon="5.45901">
        <ele>1298.4</ele>
        <time>2016-04-29T16:43:45Z</time>
      </trkpt>
      <trkpt lat="44.97856" lon="5.45899">
        <ele>1296.96</ele>
        <time>2016-04-29T16:43:48Z</time>
      </trkpt>
      <trkpt lat="44.97872" lon="5.45895">
        <ele>1295.51</ele>
        <time>2016-04-29T16:43:50Z</time>
      </trkpt>
      <trkpt lat="44.97916" lon="5.45894">
        <ele>1292.15</ele>
        <time>2016-04-29T16:43:55Z</time>
      </trkpt>
      <trkpt lat="44.9794" lon="5.45894">
        <ele>1290.71</ele>
        <time>2016-04-29T16:43:58Z</time>
      </trkpt>
      <trkpt lat="44.97995" lon="5.45896">
        <ele>1288.78</ele>
        <time>2016-04-29T16:44:06Z</time>
      </trkpt>
      <trkpt lat="44.98005" lon="5.45898">
        <ele>1288.78</ele>
        <time>2016-04-29T16:44:08Z</time>
      </trkpt>
      <trkpt lat="44.98034" lon="5.45901">
        <ele>1289.27</ele>
        <time>2016-04-29T16:44:18Z</time>
      </trkpt>
      <trkpt lat="44.98038" lon="5.45902">
        <ele>1289.75</ele>
        <time>2016-04-29T16:44:28Z</time>
      </trkpt>
      <trkpt lat="44.9804" lon="5.45903">
        <ele>1289.75</ele>
        <time>2016-04-29T16:44:59Z</time>
      </trkpt>
      <trkpt lat="44.9804" lon="5.45904">
        <ele>1289.75</ele>
        <time>2016-04-29T16:45:20Z</time>
      </trkpt>
      <trkpt lat="44.98043" lon="5.45905">
        <ele>1289.75</ele>
        <time>2016-04-29T16:45:41Z</time>
      </trkpt>
      <trkpt lat="44.98043" lon="5.45906">
        <ele>1289.75</ele>
        <time>2016-04-29T16:46:06Z</time>
      </trkpt>
      <trkpt lat="44.98043" lon="5.45905">
        <ele>1290.23</ele>
        <time>2016-04-29T16:46:29Z</time>
      </trkpt>
      <trkpt lat="44.98044" lon="5.45905">
        <ele>1290.23</ele>
        <time>2016-04-29T16:47:00Z</time>
      </trkpt>
      <trkpt lat="44.98044" lon="5.45905">
        <ele>1290.23</ele>
        <time>2016-04-29T16:47:31Z</time>
      </trkpt>
      <trkpt lat="44.98043" lon="5.45907">
        <ele>1290.23</ele>
        <time>2016-04-29T16:47:55Z</time>
      </trkpt>
      <trkpt lat="44.9804" lon="5.45903">
        <ele>1290.23</ele>
        <time>2016-04-29T16:48:22Z</time>
      </trkpt>
      <trkpt lat="44.98041" lon="5.45904">
        <ele>1290.23</ele>
        <time>2016-04-29T16:48:45Z</time>
      </trkpt>
      <trkpt lat="44.98044" lon="5.45902">
        <ele>1290.23</ele>
        <time>2016-04-29T16:49:02Z</time>
      </trkpt>
      <trkpt lat="44.98052" lon="5.45904">
        <ele>1290.71</ele>
        <time>2016-04-29T16:49:11Z</time>
      </trkpt>
      <trkpt lat="44.98053" lon="5.45904">
        <ele>1290.71</ele>
        <time>2016-04-29T16:49:12Z</time>
      </trkpt>
      <trkpt lat="44.98055" lon="5.45905">
        <ele>1290.71</ele>
        <time>2016-04-29T16:49:13Z</time>
      </trkpt>
      <trkpt lat="44.98056" lon="5.45905">
        <ele>1290.71</ele>
        <time>2016-04-29T16:49:14Z</time>
      </trkpt>
      <trkpt lat="44.98058" lon="5.45905">
        <ele>1291.19</ele>
        <time>2016-04-29T16:49:16Z</time>
      </trkpt>
      <trkpt lat="44.98059" lon="5.45905">
        <ele>1290.71</ele>
        <time>2016-04-29T16:49:17Z</time>
      </trkpt>
      <trkpt lat="44.98087" lon="5.4591">
        <ele>1292.63</ele>
        <time>2016-04-29T16:49:32Z</time>
      </trkpt>
      <trkpt lat="44.98103" lon="5.45908">
        <ele>1293.11</ele>
        <time>2016-04-29T16:49:39Z</time>
      </trkpt>
      <trkpt lat="44.98106" lon="5.45908">
        <ele>1293.11</ele>
        <time>2016-04-29T16:49:40Z</time>
      </trkpt>
      <trkpt lat="44.98145" lon="5.4589">
        <ele>1290.71</ele>
        <time>2016-04-29T16:49:54Z</time>
      </trkpt>
      <trkpt lat="44.98165" lon="5.45879">
        <ele>1289.75</ele>
        <time>2016-04-29T16:49:58Z</time>
      </trkpt>
      <trkpt lat="44.9817" lon="5.45876">
        <ele>1288.78</ele>
        <time>2016-04-29T16:49:59Z</time>
      </trkpt>
      <trkpt lat="44.982" lon="5.45858">
        <ele>1286.86</ele>
        <time>2016-04-29T16:50:04Z</time>
      </trkpt>
      <trkpt lat="44.98228" lon="5.45845">
        <ele>1285.9</ele>
        <time>2016-04-29T16:50:09Z</time>
      </trkpt>
      <trkpt lat="44.98233" lon="5.45842">
        <ele>1285.9</ele>
        <time>2016-04-29T16:50:10Z</time>
      </trkpt>
      <trkpt lat="44.98238" lon="5.45839">
        <ele>1284.94</ele>
        <time>2016-04-29T16:50:11Z</time>
      </trkpt>
      <trkpt lat="44.98243" lon="5.45837">
        <ele>1284.94</ele>
        <time>2016-04-29T16:50:12Z</time>
      </trkpt>
      <trkpt lat="44.98247" lon="5.45835">
        <ele>1284.94</ele>
        <time>2016-04-29T16:50:13Z</time>
      </trkpt>
      <trkpt lat="44.98261" lon="5.45829">
        <ele>1284.94</ele>
        <time>2016-04-29T16:50:16Z</time>
      </trkpt>
      <trkpt lat="44.98266" lon="5.45828">
        <ele>1284.46</ele>
        <time>2016-04-29T16:50:17Z</time>
      </trkpt>
      <trkpt lat="44.9827" lon="5.45826">
        <ele>1284.46</ele>
        <time>2016-04-29T16:50:18Z</time>
      </trkpt>
      <trkpt lat="44.98275" lon="5.45823">
        <ele>1283.98</ele>
        <time>2016-04-29T16:50:19Z</time>
      </trkpt>
      <trkpt lat="44.98281" lon="5.45821">
        <ele>1284.46</ele>
        <time>2016-04-29T16:50:20Z</time>
      </trkpt>
      <trkpt lat="44.98286" lon="5.45819">
        <ele>1284.46</ele>
        <time>2016-04-29T16:50:21Z</time>
      </trkpt>
      <trkpt lat="44.98291" lon="5.45817">
        <ele>1284.94</ele>
        <time>2016-04-29T16:50:22Z</time>
      </trkpt>
      <trkpt lat="44.983" lon="5.45811">
        <ele>1285.42</ele>
        <time>2016-04-29T16:50:24Z</time>
      </trkpt>
      <trkpt lat="44.98303" lon="5.45808">
        <ele>1284.94</ele>
        <time>2016-04-29T16:50:25Z</time>
      </trkpt>
      <trkpt lat="44.98306" lon="5.45807">
        <ele>1285.42</ele>
        <time>2016-04-29T16:50:26Z</time>
      </trkpt>
      <trkpt lat="44.98333" lon="5.45797">
        <ele>1284.94</ele>
        <time>2016-04-29T16:50:33Z</time>
      </trkpt>
      <trkpt lat="44.98342" lon="5.45797">
        <ele>1284.94</ele>
        <time>2016-04-29T16:50:36Z</time>
      </trkpt>
      <trkpt lat="44.98345" lon="5.45796">
        <ele>1284.94</ele>
        <time>2016-04-29T16:50:37Z</time>
      </trkpt>
      <trkpt lat="44.98348" lon="5.45796">
        <ele>1284.94</ele>
        <time>2016-04-29T16:50:38Z</time>
      </trkpt>
      <trkpt lat="44.98352" lon="5.45795">
        <ele>1284.94</ele>
        <time>2016-04-29T16:50:39Z</time>
      </trkpt>
      <trkpt lat="44.98356" lon="5.45794">
        <ele>1284.94</ele>
        <time>2016-04-29T16:50:40Z</time>
      </trkpt>
      <trkpt lat="44.98361" lon="5.45791">
        <ele>1284.46</ele>
        <time>2016-04-29T16:50:41Z</time>
      </trkpt>
      <trkpt lat="44.98365" lon="5.45789">
        <ele>1284.46</ele>
        <time>2016-04-29T16:50:42Z</time>
      </trkpt>
      <trkpt lat="44.98388" lon="5.45779">
        <ele>1283.98</ele>
        <time>2016-04-29T16:50:46Z</time>
      </trkpt>
      <trkpt lat="44.98433" lon="5.45759">
        <ele>1283.5</ele>
        <time>2016-04-29T16:50:53Z</time>
      </trkpt>
      <trkpt lat="44.98438" lon="5.45757">
        <ele>1283.5</ele>
        <time>2016-04-29T16:50:54Z</time>
      </trkpt>
      <trkpt lat="44.9849" lon="5.45737">
        <ele>1282.54</ele>
        <time>2016-04-29T16:51:04Z</time>
      </trkpt>
      <trkpt lat="44.98558" lon="5.45735">
        <ele>1282.54</ele>
        <time>2016-04-29T16:51:18Z</time>
      </trkpt>
      <trkpt lat="44.98603" lon="5.45742">
        <ele>1284.46</ele>
        <time>2016-04-29T16:51:30Z</time>
      </trkpt>
      <trkpt lat="44.98613" lon="5.4575">
        <ele>1283.98</ele>
        <time>2016-04-29T16:51:33Z</time>
      </trkpt>
      <trkpt lat="44.98616" lon="5.45755">
        <ele>1283.98</ele>
        <time>2016-04-29T16:51:34Z</time>
      </trkpt>
      <trkpt lat="44.98618" lon="5.45759">
        <ele>1283.02</ele>
        <time>2016-04-29T16:51:35Z</time>
      </trkpt>
      <trkpt lat="44.9862" lon="5.45765">
        <ele>1283.02</ele>
        <time>2016-04-29T16:51:36Z</time>
      </trkpt>
      <trkpt lat="44.98621" lon="5.45772">
        <ele>1282.54</ele>
        <time>2016-04-29T16:51:37Z</time>
      </trkpt>
      <trkpt lat="44.98621" lon="5.45781">
        <ele>1281.57</ele>
        <time>2016-04-29T16:51:38Z</time>
      </trkpt>
      <trkpt lat="44.9862" lon="5.4579">
        <ele>1281.09</ele>
        <time>2016-04-29T16:51:39Z</time>
      </trkpt>
      <trkpt lat="44.98619" lon="5.45799">
        <ele>1280.61</ele>
        <time>2016-04-29T16:51:40Z</time>
      </trkpt>
      <trkpt lat="44.98617" lon="5.45826">
        <ele>1279.17</ele>
        <time>2016-04-29T16:51:43Z</time>
      </trkpt>
      <trkpt lat="44.98618" lon="5.45835">
        <ele>1278.21</ele>
        <time>2016-04-29T16:51:44Z</time>
      </trkpt>
      <trkpt lat="44.9862" lon="5.45844">
        <ele>1278.21</ele>
        <time>2016-04-29T16:51:45Z</time>
      </trkpt>
      <trkpt lat="44.98623" lon="5.45852">
        <ele>1277.25</ele>
        <time>2016-04-29T16:51:46Z</time>
      </trkpt>
      <trkpt lat="44.98627" lon="5.4586">
        <ele>1276.77</ele>
        <time>2016-04-29T16:51:47Z</time>
      </trkpt>
      <trkpt lat="44.98632" lon="5.45867">
        <ele>1276.77</ele>
        <time>2016-04-29T16:51:48Z</time>
      </trkpt>
      <trkpt lat="44.98641" lon="5.45879">
        <ele>1276.77</ele>
        <time>2016-04-29T16:51:50Z</time>
      </trkpt>
      <trkpt lat="44.98646" lon="5.45884">
        <ele>1275.81</ele>
        <time>2016-04-29T16:51:51Z</time>
      </trkpt>
      <trkpt lat="44.98651" lon="5.45889">
        <ele>1275.33</ele>
        <time>2016-04-29T16:51:52Z</time>
      </trkpt>
      <trkpt lat="44.98656" lon="5.45893">
        <ele>1275.33</ele>
        <time>2016-04-29T16:51:53Z</time>
      </trkpt>
      <trkpt lat="44.98665" lon="5.45903">
        <ele>1274.36</ele>
        <time>2016-04-29T16:51:55Z</time>
      </trkpt>
      <trkpt lat="44.98669" lon="5.45909">
        <ele>1274.85</ele>
        <time>2016-04-29T16:51:56Z</time>
      </trkpt>
      <trkpt lat="44.98672" lon="5.45915">
        <ele>1274.85</ele>
        <time>2016-04-29T16:51:57Z</time>
      </trkpt>
      <trkpt lat="44.98673" lon="5.45921">
        <ele>1274.85</ele>
        <time>2016-04-29T16:51:58Z</time>
      </trkpt>
      <trkpt lat="44.98674" lon="5.45928">
        <ele>1274.85</ele>
        <time>2016-04-29T16:51:59Z</time>
      </trkpt>
      <trkpt lat="44.98674" lon="5.45935">
        <ele>1274.85</ele>
        <time>2016-04-29T16:52:00Z</time>
      </trkpt>
      <trkpt lat="44.9867" lon="5.45992">
        <ele>1274.85</ele>
        <time>2016-04-29T16:52:08Z</time>
      </trkpt>
      <trkpt lat="44.9867" lon="5.46008">
        <ele>1273.88</ele>
        <time>2016-04-29T16:52:10Z</time>
      </trkpt>
      <trkpt lat="44.98672" lon="5.46015">
        <ele>1273.88</ele>
        <time>2016-04-29T16:52:11Z</time>
      </trkpt>
      <trkpt lat="44.98673" lon="5.46021">
        <ele>1273.88</ele>
        <time>2016-04-29T16:52:12Z</time>
      </trkpt>
      <trkpt lat="44.98675" lon="5.46026">
        <ele>1274.36</ele>
        <time>2016-04-29T16:52:13Z</time>
      </trkpt>
      <trkpt lat="44.98678" lon="5.4603">
        <ele>1274.36</ele>
        <time>2016-04-29T16:52:14Z</time>
      </trkpt>
      <trkpt lat="44.98682" lon="5.46034">
        <ele>1274.36</ele>
        <time>2016-04-29T16:52:15Z</time>
      </trkpt>
      <trkpt lat="44.98686" lon="5.46036">
        <ele>1273.88</ele>
        <time>2016-04-29T16:52:16Z</time>
      </trkpt>
      <trkpt lat="44.9869" lon="5.46038">
        <ele>1273.88</ele>
        <time>2016-04-29T16:52:17Z</time>
      </trkpt>
      <trkpt lat="44.98698" lon="5.46041">
        <ele>1273.88</ele>
        <time>2016-04-29T16:52:19Z</time>
      </trkpt>
      <trkpt lat="44.9871" lon="5.46045">
        <ele>1274.36</ele>
        <time>2016-04-29T16:52:22Z</time>
      </trkpt>
      <trkpt lat="44.98715" lon="5.46046">
        <ele>1274.36</ele>
        <time>2016-04-29T16:52:23Z</time>
      </trkpt>
      <trkpt lat="44.98729" lon="5.46048">
        <ele>1273.88</ele>
        <time>2016-04-29T16:52:26Z</time>
      </trkpt>
      <trkpt lat="44.98734" lon="5.46048">
        <ele>1273.4</ele>
        <time>2016-04-29T16:52:27Z</time>
      </trkpt>
      <trkpt lat="44.98739" lon="5.46049">
        <ele>1272.92</ele>
        <time>2016-04-29T16:52:28Z</time>
      </trkpt>
      <trkpt lat="44.98766" lon="5.46064">
        <ele>1271.48</ele>
        <time>2016-04-29T16:52:33Z</time>
      </trkpt>
      <trkpt lat="44.98771" lon="5.4607">
        <ele>1271</ele>
        <time>2016-04-29T16:52:34Z</time>
      </trkpt>
      <trkpt lat="44.98775" lon="5.46077">
        <ele>1271</ele>
        <time>2016-04-29T16:52:35Z</time>
      </trkpt>
      <trkpt lat="44.98777" lon="5.46084">
        <ele>1271</ele>
        <time>2016-04-29T16:52:36Z</time>
      </trkpt>
      <trkpt lat="44.9878" lon="5.46091">
        <ele>1270.52</ele>
        <time>2016-04-29T16:52:37Z</time>
      </trkpt>
      <trkpt lat="44.98782" lon="5.46099">
        <ele>1270.04</ele>
        <time>2016-04-29T16:52:38Z</time>
      </trkpt>
      <trkpt lat="44.98803" lon="5.46149">
        <ele>1267.16</ele>
        <time>2016-04-29T16:52:44Z</time>
      </trkpt>
      <trkpt lat="44.98806" lon="5.46158">
        <ele>1266.67</ele>
        <time>2016-04-29T16:52:45Z</time>
      </trkpt>
      <trkpt lat="44.98817" lon="5.46194">
        <ele>1265.71</ele>
        <time>2016-04-29T16:52:49Z</time>
      </trkpt>
      <trkpt lat="44.98818" lon="5.46202">
        <ele>1265.71</ele>
        <time>2016-04-29T16:52:50Z</time>
      </trkpt>
      <trkpt lat="44.98818" lon="5.46211">
        <ele>1265.71</ele>
        <time>2016-04-29T16:52:51Z</time>
      </trkpt>
      <trkpt lat="44.98817" lon="5.4622">
        <ele>1265.71</ele>
        <time>2016-04-29T16:52:52Z</time>
      </trkpt>
      <trkpt lat="44.98815" lon="5.46229">
        <ele>1265.23</ele>
        <time>2016-04-29T16:52:53Z</time>
      </trkpt>
      <trkpt lat="44.98813" lon="5.46248">
        <ele>1263.79</ele>
        <time>2016-04-29T16:52:55Z</time>
      </trkpt>
      <trkpt lat="44.98815" lon="5.46256">
        <ele>1263.31</ele>
        <time>2016-04-29T16:52:56Z</time>
      </trkpt>
      <trkpt lat="44.98819" lon="5.46261">
        <ele>1263.31</ele>
        <time>2016-04-29T16:52:57Z</time>
      </trkpt>
      <trkpt lat="44.98823" lon="5.46262">
        <ele>1263.31</ele>
        <time>2016-04-29T16:52:58Z</time>
      </trkpt>
      <trkpt lat="44.98829" lon="5.46259">
        <ele>1263.31</ele>
        <time>2016-04-29T16:52:59Z</time>
      </trkpt>
      <trkpt lat="44.98834" lon="5.46256">
        <ele>1263.79</ele>
        <time>2016-04-29T16:53:00Z</time>
      </trkpt>
      <trkpt lat="44.98838" lon="5.46253">
        <ele>1263.31</ele>
        <time>2016-04-29T16:53:01Z</time>
      </trkpt>
      <trkpt lat="44.98842" lon="5.4625">
        <ele>1263.31</ele>
        <time>2016-04-29T16:53:02Z</time>
      </trkpt>
      <trkpt lat="44.98876" lon="5.46236">
        <ele>1261.39</ele>
        <time>2016-04-29T16:53:09Z</time>
      </trkpt>
      <trkpt lat="44.98919" lon="5.46227">
        <ele>1260.43</ele>
        <time>2016-04-29T16:53:17Z</time>
      </trkpt>
      <trkpt lat="44.98924" lon="5.46228">
        <ele>1260.43</ele>
        <time>2016-04-29T16:53:18Z</time>
      </trkpt>
      <trkpt lat="44.9893" lon="5.46229">
        <ele>1259.94</ele>
        <time>2016-04-29T16:53:19Z</time>
      </trkpt>
      <trkpt lat="44.98935" lon="5.46231">
        <ele>1259.94</ele>
        <time>2016-04-29T16:53:20Z</time>
      </trkpt>
      <trkpt lat="44.98939" lon="5.46234">
        <ele>1259.94</ele>
        <time>2016-04-29T16:53:21Z</time>
      </trkpt>
      <trkpt lat="44.98952" lon="5.46245">
        <ele>1259.46</ele>
        <time>2016-04-29T16:53:24Z</time>
      </trkpt>
      <trkpt lat="44.98957" lon="5.46248">
        <ele>1259.46</ele>
        <time>2016-04-29T16:53:25Z</time>
      </trkpt>
      <trkpt lat="44.98961" lon="5.46251">
        <ele>1258.98</ele>
        <time>2016-04-29T16:53:26Z</time>
      </trkpt>
      <trkpt lat="44.98966" lon="5.46253">
        <ele>1258.98</ele>
        <time>2016-04-29T16:53:27Z</time>
      </trkpt>
      <trkpt lat="44.98972" lon="5.46254">
        <ele>1258.98</ele>
        <time>2016-04-29T16:53:28Z</time>
      </trkpt>
      <trkpt lat="44.98977" lon="5.46255">
        <ele>1258.98</ele>
        <time>2016-04-29T16:53:29Z</time>
      </trkpt>
      <trkpt lat="44.98982" lon="5.46256">
        <ele>1258.5</ele>
        <time>2016-04-29T16:53:30Z</time>
      </trkpt>
      <trkpt lat="44.98988" lon="5.46258">
        <ele>1258.5</ele>
        <time>2016-04-29T16:53:31Z</time>
      </trkpt>
      <trkpt lat="44.98993" lon="5.4626">
        <ele>1258.5</ele>
        <time>2016-04-29T16:53:32Z</time>
      </trkpt>
      <trkpt lat="44.99054" lon="5.46291">
        <ele>1256.1</ele>
        <time>2016-04-29T16:53:44Z</time>
      </trkpt>
      <trkpt lat="44.99111" lon="5.46311">
        <ele>1256.1</ele>
        <time>2016-04-29T16:53:55Z</time>
      </trkpt>
      <trkpt lat="44.99161" lon="5.46341">
        <ele>1256.58</ele>
        <time>2016-04-29T16:54:07Z</time>
      </trkpt>
      <trkpt lat="44.99164" lon="5.46343">
        <ele>1256.58</ele>
        <time>2016-04-29T16:54:08Z</time>
      </trkpt>
      <trkpt lat="44.99168" lon="5.46345">
        <ele>1257.06</ele>
        <time>2016-04-29T16:54:09Z</time>
      </trkpt>
      <trkpt lat="44.99172" lon="5.46347">
        <ele>1257.06</ele>
        <time>2016-04-29T16:54:10Z</time>
      </trkpt>
      <trkpt lat="44.99189" lon="5.46355">
        <ele>1257.06</ele>
        <time>2016-04-29T16:54:14Z</time>
      </trkpt>
      <trkpt lat="44.99193" lon="5.46356">
        <ele>1257.54</ele>
        <time>2016-04-29T16:54:15Z</time>
      </trkpt>
      <trkpt lat="44.99205" lon="5.46361">
        <ele>1257.06</ele>
        <time>2016-04-29T16:54:18Z</time>
      </trkpt>
      <trkpt lat="44.99209" lon="5.46364">
        <ele>1257.06</ele>
        <time>2016-04-29T16:54:19Z</time>
      </trkpt>
      <trkpt lat="44.99215" lon="5.4637">
        <ele>1257.06</ele>
        <time>2016-04-29T16:54:21Z</time>
      </trkpt>
      <trkpt lat="44.99217" lon="5.46373">
        <ele>1257.54</ele>
        <time>2016-04-29T16:54:22Z</time>
      </trkpt>
      <trkpt lat="44.99219" lon="5.46377">
        <ele>1257.54</ele>
        <time>2016-04-29T16:54:23Z</time>
      </trkpt>
      <trkpt lat="44.99221" lon="5.46381">
        <ele>1257.54</ele>
        <time>2016-04-29T16:54:24Z</time>
      </trkpt>
      <trkpt lat="44.99224" lon="5.46386">
        <ele>1257.54</ele>
        <time>2016-04-29T16:54:25Z</time>
      </trkpt>
      <trkpt lat="44.99226" lon="5.4639">
        <ele>1257.06</ele>
        <time>2016-04-29T16:54:26Z</time>
      </trkpt>
      <trkpt lat="44.99228" lon="5.46395">
        <ele>1257.06</ele>
        <time>2016-04-29T16:54:27Z</time>
      </trkpt>
      <trkpt lat="44.99238" lon="5.46415">
        <ele>1257.06</ele>
        <time>2016-04-29T16:54:31Z</time>
      </trkpt>
      <trkpt lat="44.99241" lon="5.4642">
        <ele>1257.06</ele>
        <time>2016-04-29T16:54:32Z</time>
      </trkpt>
      <trkpt lat="44.99244" lon="5.46425">
        <ele>1257.06</ele>
        <time>2016-04-29T16:54:33Z</time>
      </trkpt>
      <trkpt lat="44.99259" lon="5.46442">
        <ele>1257.06</ele>
        <time>2016-04-29T16:54:39Z</time>
      </trkpt>
      <trkpt lat="44.99263" lon="5.46444">
        <ele>1257.06</ele>
        <time>2016-04-29T16:54:40Z</time>
      </trkpt>
      <trkpt lat="44.99267" lon="5.46446">
        <ele>1257.06</ele>
        <time>2016-04-29T16:54:41Z</time>
      </trkpt>
      <trkpt lat="44.99301" lon="5.4645">
        <ele>1257.06</ele>
        <time>2016-04-29T16:54:49Z</time>
      </trkpt>
      <trkpt lat="44.99304" lon="5.46449">
        <ele>1257.06</ele>
        <time>2016-04-29T16:54:50Z</time>
      </trkpt>
      <trkpt lat="44.99329" lon="5.46445">
        <ele>1257.54</ele>
        <time>2016-04-29T16:54:56Z</time>
      </trkpt>
      <trkpt lat="44.99333" lon="5.46449">
        <ele>1257.54</ele>
        <time>2016-04-29T16:54:57Z</time>
      </trkpt>
      <trkpt lat="44.99335" lon="5.46453">
        <ele>1257.54</ele>
        <time>2016-04-29T16:54:58Z</time>
      </trkpt>
      <trkpt lat="44.99337" lon="5.46458">
        <ele>1257.06</ele>
        <time>2016-04-29T16:54:59Z</time>
      </trkpt>
      <trkpt lat="44.99337" lon="5.46464">
        <ele>1257.06</ele>
        <time>2016-04-29T16:55:00Z</time>
      </trkpt>
      <trkpt lat="44.99337" lon="5.4647">
        <ele>1257.06</ele>
        <time>2016-04-29T16:55:01Z</time>
      </trkpt>
      <trkpt lat="44.99338" lon="5.46489">
        <ele>1257.06</ele>
        <time>2016-04-29T16:55:04Z</time>
      </trkpt>
      <trkpt lat="44.99339" lon="5.46495">
        <ele>1256.58</ele>
        <time>2016-04-29T16:55:05Z</time>
      </trkpt>
      <trkpt lat="44.99341" lon="5.46502">
        <ele>1256.58</ele>
        <time>2016-04-29T16:55:06Z</time>
      </trkpt>
      <trkpt lat="44.99343" lon="5.46508">
        <ele>1256.58</ele>
        <time>2016-04-29T16:55:07Z</time>
      </trkpt>
      <trkpt lat="44.99345" lon="5.46513">
        <ele>1256.58</ele>
        <time>2016-04-29T16:55:08Z</time>
      </trkpt>
      <trkpt lat="44.99348" lon="5.46517">
        <ele>1256.1</ele>
        <time>2016-04-29T16:55:09Z</time>
      </trkpt>
      <trkpt lat="44.9936" lon="5.4653">
        <ele>1256.58</ele>
        <time>2016-04-29T16:55:13Z</time>
      </trkpt>
      <trkpt lat="44.99364" lon="5.46532">
        <ele>1256.58</ele>
        <time>2016-04-29T16:55:14Z</time>
      </trkpt>
      <trkpt lat="44.99403" lon="5.46551">
        <ele>1255.62</ele>
        <time>2016-04-29T16:55:24Z</time>
      </trkpt>
      <trkpt lat="44.99408" lon="5.46551">
        <ele>1255.62</ele>
        <time>2016-04-29T16:55:25Z</time>
      </trkpt>
      <trkpt lat="44.99428" lon="5.46548">
        <ele>1255.62</ele>
        <time>2016-04-29T16:55:29Z</time>
      </trkpt>
      <trkpt lat="44.99451" lon="5.46541">
        <ele>1255.14</ele>
        <time>2016-04-29T16:55:34Z</time>
      </trkpt>
      <trkpt lat="44.99456" lon="5.46541">
        <ele>1255.14</ele>
        <time>2016-04-29T16:55:35Z</time>
      </trkpt>
      <trkpt lat="44.99471" lon="5.46543">
        <ele>1254.66</ele>
        <time>2016-04-29T16:55:38Z</time>
      </trkpt>
      <trkpt lat="44.99485" lon="5.46547">
        <ele>1255.14</ele>
        <time>2016-04-29T16:55:41Z</time>
      </trkpt>
      <trkpt lat="44.99503" lon="5.46553">
        <ele>1254.66</ele>
        <time>2016-04-29T16:55:45Z</time>
      </trkpt>
      <trkpt lat="44.99512" lon="5.46558">
        <ele>1255.14</ele>
        <time>2016-04-29T16:55:47Z</time>
      </trkpt>
      <trkpt lat="44.99534" lon="5.46575">
        <ele>1254.66</ele>
        <time>2016-04-29T16:55:53Z</time>
      </trkpt>
      <trkpt lat="44.99539" lon="5.46577">
        <ele>1254.66</ele>
        <time>2016-04-29T16:55:54Z</time>
      </trkpt>
      <trkpt lat="44.99542" lon="5.46578">
        <ele>1255.14</ele>
        <time>2016-04-29T16:55:55Z</time>
      </trkpt>
      <trkpt lat="44.99555" lon="5.46581">
        <ele>1254.66</ele>
        <time>2016-04-29T16:55:58Z</time>
      </trkpt>
      <trkpt lat="44.99564" lon="5.46583">
        <ele>1254.66</ele>
        <time>2016-04-29T16:56:00Z</time>
      </trkpt>
      <trkpt lat="44.99587" lon="5.46593">
        <ele>1254.66</ele>
        <time>2016-04-29T16:56:05Z</time>
      </trkpt>
      <trkpt lat="44.99591" lon="5.46597">
        <ele>1254.66</ele>
        <time>2016-04-29T16:56:06Z</time>
      </trkpt>
      <trkpt lat="44.99607" lon="5.46613">
        <ele>1254.18</ele>
        <time>2016-04-29T16:56:10Z</time>
      </trkpt>
      <trkpt lat="44.99614" lon="5.46622">
        <ele>1254.18</ele>
        <time>2016-04-29T16:56:12Z</time>
      </trkpt>
      <trkpt lat="44.9962" lon="5.46631">
        <ele>1254.18</ele>
        <time>2016-04-29T16:56:14Z</time>
      </trkpt>
      <trkpt lat="44.9964" lon="5.46652">
        <ele>1253.22</ele>
        <time>2016-04-29T16:56:19Z</time>
      </trkpt>
      <trkpt lat="44.99644" lon="5.46655">
        <ele>1253.22</ele>
        <time>2016-04-29T16:56:20Z</time>
      </trkpt>
      <trkpt lat="44.99656" lon="5.46664">
        <ele>1253.22</ele>
        <time>2016-04-29T16:56:23Z</time>
      </trkpt>
      <trkpt lat="44.9966" lon="5.46667">
        <ele>1252.74</ele>
        <time>2016-04-29T16:56:24Z</time>
      </trkpt>
      <trkpt lat="44.99663" lon="5.46669">
        <ele>1252.74</ele>
        <time>2016-04-29T16:56:25Z</time>
      </trkpt>
      <trkpt lat="44.99667" lon="5.46672">
        <ele>1252.74</ele>
        <time>2016-04-29T16:56:26Z</time>
      </trkpt>
      <trkpt lat="44.99669" lon="5.46677">
        <ele>1252.74</ele>
        <time>2016-04-29T16:56:27Z</time>
      </trkpt>
      <trkpt lat="44.99673" lon="5.4668">
        <ele>1252.25</ele>
        <time>2016-04-29T16:56:28Z</time>
      </trkpt>
      <trkpt lat="44.99677" lon="5.46684">
        <ele>1252.25</ele>
        <time>2016-04-29T16:56:29Z</time>
      </trkpt>
      <trkpt lat="44.997" lon="5.46704">
        <ele>1251.29</ele>
        <time>2016-04-29T16:56:34Z</time>
      </trkpt>
      <trkpt lat="44.99704" lon="5.46706">
        <ele>1251.29</ele>
        <time>2016-04-29T16:56:35Z</time>
      </trkpt>
      <trkpt lat="44.99709" lon="5.46709">
        <ele>1250.81</ele>
        <time>2016-04-29T16:56:36Z</time>
      </trkpt>
      <trkpt lat="44.99746" lon="5.46728">
        <ele>1249.37</ele>
        <time>2016-04-29T16:56:43Z</time>
      </trkpt>
      <trkpt lat="44.99752" lon="5.46731">
        <ele>1249.37</ele>
        <time>2016-04-29T16:56:44Z</time>
      </trkpt>
      <trkpt lat="44.99758" lon="5.46735">
        <ele>1248.89</ele>
        <time>2016-04-29T16:56:45Z</time>
      </trkpt>
      <trkpt lat="44.99763" lon="5.46739">
        <ele>1248.41</ele>
        <time>2016-04-29T16:56:46Z</time>
      </trkpt>
      <trkpt lat="44.99769" lon="5.46743">
        <ele>1247.93</ele>
        <time>2016-04-29T16:56:47Z</time>
      </trkpt>
      <trkpt lat="44.99795" lon="5.46765">
        <ele>1246.49</ele>
        <time>2016-04-29T16:56:52Z</time>
      </trkpt>
      <trkpt lat="44.99842" lon="5.46799">
        <ele>1245.04</ele>
        <time>2016-04-29T16:57:01Z</time>
      </trkpt>
      <trkpt lat="44.99858" lon="5.46807">
        <ele>1244.08</ele>
        <time>2016-04-29T16:57:04Z</time>
      </trkpt>
      <trkpt lat="44.99865" lon="5.46807">
        <ele>1241.68</ele>
        <time>2016-04-29T16:57:05Z</time>
      </trkpt>
      <trkpt lat="44.99871" lon="5.46807">
        <ele>1245.53</ele>
        <time>2016-04-29T16:57:06Z</time>
      </trkpt>
      <trkpt lat="44.99877" lon="5.46807">
        <ele>1243.6</ele>
        <time>2016-04-29T16:57:07Z</time>
      </trkpt>
      <trkpt lat="44.9989" lon="5.46809">
        <ele>1242.64</ele>
        <time>2016-04-29T16:57:09Z</time>
      </trkpt>
      <trkpt lat="44.99903" lon="5.46812">
        <ele>1241.2</ele>
        <time>2016-04-29T16:57:11Z</time>
      </trkpt>
      <trkpt lat="44.99909" lon="5.46815">
        <ele>1241.2</ele>
        <time>2016-04-29T16:57:12Z</time>
      </trkpt>
      <trkpt lat="44.99913" lon="5.4682">
        <ele>1241.2</ele>
        <time>2016-04-29T16:57:13Z</time>
      </trkpt>
      <trkpt lat="44.99917" lon="5.46824">
        <ele>1240.72</ele>
        <time>2016-04-29T16:57:14Z</time>
      </trkpt>
      <trkpt lat="44.99925" lon="5.46834">
        <ele>1239.28</ele>
        <time>2016-04-29T16:57:16Z</time>
      </trkpt>
      <trkpt lat="44.99931" lon="5.46838">
        <ele>1238.8</ele>
        <time>2016-04-29T16:57:17Z</time>
      </trkpt>
      <trkpt lat="44.99937" lon="5.46839">
        <ele>1237.83</ele>
        <time>2016-04-29T16:57:18Z</time>
      </trkpt>
      <trkpt lat="44.99943" lon="5.46839">
        <ele>1237.83</ele>
        <time>2016-04-29T16:57:19Z</time>
      </trkpt>
      <trkpt lat="44.9995" lon="5.46839">
        <ele>1237.35</ele>
        <time>2016-04-29T16:57:20Z</time>
      </trkpt>
      <trkpt lat="44.99986" lon="5.46837">
        <ele>1234.95</ele>
        <time>2016-04-29T16:57:25Z</time>
      </trkpt>
      <trkpt lat="44.99994" lon="5.46835">
        <ele>1234.47</ele>
        <time>2016-04-29T16:57:26Z</time>
      </trkpt>
      <trkpt lat="45.00009" lon="5.46829">
        <ele>1233.51</ele>
        <time>2016-04-29T16:57:28Z</time>
      </trkpt>
      <trkpt lat="45.00024" lon="5.46824">
        <ele>1233.03</ele>
        <time>2016-04-29T16:57:30Z</time>
      </trkpt>
      <trkpt lat="45.00032" lon="5.46823">
        <ele>1232.55</ele>
        <time>2016-04-29T16:57:31Z</time>
      </trkpt>
      <trkpt lat="45.0004" lon="5.46824">
        <ele>1231.59</ele>
        <time>2016-04-29T16:57:32Z</time>
      </trkpt>
      <trkpt lat="45.00049" lon="5.46825">
        <ele>1231.11</ele>
        <time>2016-04-29T16:57:33Z</time>
      </trkpt>
      <trkpt lat="45.00057" lon="5.46828">
        <ele>1230.62</ele>
        <time>2016-04-29T16:57:34Z</time>
      </trkpt>
      <trkpt lat="45.00065" lon="5.46832">
        <ele>1230.14</ele>
        <time>2016-04-29T16:57:35Z</time>
      </trkpt>
      <trkpt lat="45.00081" lon="5.46841">
        <ele>1229.18</ele>
        <time>2016-04-29T16:57:37Z</time>
      </trkpt>
      <trkpt lat="45.00096" lon="5.46852">
        <ele>1227.74</ele>
        <time>2016-04-29T16:57:39Z</time>
      </trkpt>
      <trkpt lat="45.00104" lon="5.46856">
        <ele>1226.3</ele>
        <time>2016-04-29T16:57:40Z</time>
      </trkpt>
      <trkpt lat="45.00138" lon="5.46863">
        <ele>1224.38</ele>
        <time>2016-04-29T16:57:44Z</time>
      </trkpt>
      <trkpt lat="45.00154" lon="5.4687">
        <ele>1223.42</ele>
        <time>2016-04-29T16:57:46Z</time>
      </trkpt>
      <trkpt lat="45.00161" lon="5.46875">
        <ele>1222.93</ele>
        <time>2016-04-29T16:57:47Z</time>
      </trkpt>
      <trkpt lat="45.00168" lon="5.46881">
        <ele>1222.45</ele>
        <time>2016-04-29T16:57:48Z</time>
      </trkpt>
      <trkpt lat="45.00193" lon="5.46912">
        <ele>1220.05</ele>
        <time>2016-04-29T16:57:52Z</time>
      </trkpt>
      <trkpt lat="45.002" lon="5.46919">
        <ele>1219.57</ele>
        <time>2016-04-29T16:57:53Z</time>
      </trkpt>
      <trkpt lat="45.00208" lon="5.46924">
        <ele>1218.61</ele>
        <time>2016-04-29T16:57:54Z</time>
      </trkpt>
      <trkpt lat="45.00215" lon="5.46927">
        <ele>1218.61</ele>
        <time>2016-04-29T16:57:55Z</time>
      </trkpt>
      <trkpt lat="45.00223" lon="5.46928">
        <ele>1218.13</ele>
        <time>2016-04-29T16:57:56Z</time>
      </trkpt>
      <trkpt lat="45.00233" lon="5.46926">
        <ele>1217.17</ele>
        <time>2016-04-29T16:57:57Z</time>
      </trkpt>
      <trkpt lat="45.00243" lon="5.46921">
        <ele>1216.69</ele>
        <time>2016-04-29T16:57:58Z</time>
      </trkpt>
      <trkpt lat="45.00251" lon="5.46915">
        <ele>1216.21</ele>
        <time>2016-04-29T16:57:59Z</time>
      </trkpt>
      <trkpt lat="45.00259" lon="5.46908">
        <ele>1215.72</ele>
        <time>2016-04-29T16:58:00Z</time>
      </trkpt>
      <trkpt lat="45.0029" lon="5.46875">
        <ele>1213.32</ele>
        <time>2016-04-29T16:58:04Z</time>
      </trkpt>
      <trkpt lat="45.00296" lon="5.46869">
        <ele>1213.32</ele>
        <time>2016-04-29T16:58:05Z</time>
      </trkpt>
      <trkpt lat="45.00302" lon="5.46865">
        <ele>1212.84</ele>
        <time>2016-04-29T16:58:06Z</time>
      </trkpt>
      <trkpt lat="45.0031" lon="5.46864">
        <ele>1212.36</ele>
        <time>2016-04-29T16:58:07Z</time>
      </trkpt>
      <trkpt lat="45.00318" lon="5.46864">
        <ele>1211.88</ele>
        <time>2016-04-29T16:58:08Z</time>
      </trkpt>
      <trkpt lat="45.00325" lon="5.46865">
        <ele>1210.92</ele>
        <time>2016-04-29T16:58:09Z</time>
      </trkpt>
      <trkpt lat="45.00333" lon="5.46868">
        <ele>1210.44</ele>
        <time>2016-04-29T16:58:10Z</time>
      </trkpt>
      <trkpt lat="45.00341" lon="5.46872">
        <ele>1209.96</ele>
        <time>2016-04-29T16:58:11Z</time>
      </trkpt>
      <trkpt lat="45.00348" lon="5.46876">
        <ele>1209.48</ele>
        <time>2016-04-29T16:58:12Z</time>
      </trkpt>
      <trkpt lat="45.00365" lon="5.46883">
        <ele>1208.51</ele>
        <time>2016-04-29T16:58:14Z</time>
      </trkpt>
      <trkpt lat="45.0039" lon="5.46889">
        <ele>1207.07</ele>
        <time>2016-04-29T16:58:17Z</time>
      </trkpt>
      <trkpt lat="45.00414" lon="5.469">
        <ele>1205.63</ele>
        <time>2016-04-29T16:58:20Z</time>
      </trkpt>
      <trkpt lat="45.00422" lon="5.46906">
        <ele>1204.67</ele>
        <time>2016-04-29T16:58:21Z</time>
      </trkpt>
      <trkpt lat="45.00429" lon="5.46914">
        <ele>1204.19</ele>
        <time>2016-04-29T16:58:22Z</time>
      </trkpt>
      <trkpt lat="45.00458" lon="5.46944">
        <ele>1201.79</ele>
        <time>2016-04-29T16:58:26Z</time>
      </trkpt>
      <trkpt lat="45.00496" lon="5.46969">
        <ele>1198.42</ele>
        <time>2016-04-29T16:58:31Z</time>
      </trkpt>
      <trkpt lat="45.00514" lon="5.46975">
        <ele>1197.46</ele>
        <time>2016-04-29T16:58:33Z</time>
      </trkpt>
      <trkpt lat="45.00524" lon="5.46976">
        <ele>1196.98</ele>
        <time>2016-04-29T16:58:34Z</time>
      </trkpt>
      <trkpt lat="45.00532" lon="5.46976">
        <ele>1196.98</ele>
        <time>2016-04-29T16:58:35Z</time>
      </trkpt>
      <trkpt lat="45.00561" lon="5.46974">
        <ele>1195.54</ele>
        <time>2016-04-29T16:58:39Z</time>
      </trkpt>
      <trkpt lat="45.00567" lon="5.46976">
        <ele>1195.06</ele>
        <time>2016-04-29T16:58:40Z</time>
      </trkpt>
      <trkpt lat="45.00574" lon="5.4698">
        <ele>1194.58</ele>
        <time>2016-04-29T16:58:41Z</time>
      </trkpt>
      <trkpt lat="45.00598" lon="5.46989">
        <ele>1196.98</ele>
        <time>2016-04-29T16:58:48Z</time>
      </trkpt>
      <trkpt lat="45.00616" lon="5.46973">
        <ele>1198.42</ele>
        <time>2016-04-29T16:58:58Z</time>
      </trkpt>
      <trkpt lat="45.00618" lon="5.46971">
        <ele>1198.42</ele>
        <time>2016-04-29T16:58:59Z</time>
      </trkpt>
      <trkpt lat="45.0062" lon="5.46969">
        <ele>1198.42</ele>
        <time>2016-04-29T16:59:00Z</time>
      </trkpt>
      <trkpt lat="45.00635" lon="5.46952">
        <ele>1200.82</ele>
        <time>2016-04-29T16:59:11Z</time>
      </trkpt>
      <trkpt lat="45.0065" lon="5.4694">
        <ele>1202.27</ele>
        <time>2016-04-29T16:59:19Z</time>
      </trkpt>
      <trkpt lat="45.00652" lon="5.46939">
        <ele>1202.75</ele>
        <time>2016-04-29T16:59:20Z</time>
      </trkpt>
      <trkpt lat="45.00659" lon="5.46929">
        <ele>1203.23</ele>
        <time>2016-04-29T16:59:31Z</time>
      </trkpt>
      <trkpt lat="45.00664" lon="5.46928">
        <ele>1203.23</ele>
        <time>2016-04-29T16:59:48Z</time>
      </trkpt>
      <trkpt lat="45.00667" lon="5.4693">
        <ele>1203.71</ele>
        <time>2016-04-29T17:00:12Z</time>
      </trkpt>
      <trkpt lat="45.00666" lon="5.46929">
        <ele>1201.79</ele>
        <time>2016-04-29T17:00:34Z</time>
      </trkpt>
      <trkpt lat="45.00666" lon="5.46929">
        <ele>1205.15</ele>
        <time>2016-04-29T17:00:35Z</time>
      </trkpt>
      <trkpt lat="45.00666" lon="5.46928">
        <ele>1203.71</ele>
        <time>2016-04-29T17:00:36Z</time>
      </trkpt>
      <trkpt lat="45.00676" lon="5.4693">
        <ele>1204.19</ele>
        <time>2016-04-29T17:00:53Z</time>
      </trkpt>
      <trkpt lat="45.0068" lon="5.46932">
        <ele>1205.15</ele>
        <time>2016-04-29T17:00:56Z</time>
      </trkpt>
      <trkpt lat="45.00696" lon="5.46945">
        <ele>1207.55</ele>
        <time>2016-04-29T17:01:06Z</time>
      </trkpt>
      <trkpt lat="45.00713" lon="5.46965">
        <ele>1213.32</ele>
        <time>2016-04-29T17:01:18Z</time>
      </trkpt>
      <trkpt lat="45.00715" lon="5.46966">
        <ele>1209.96</ele>
        <time>2016-04-29T17:01:19Z</time>
      </trkpt>
      <trkpt lat="45.00716" lon="5.46967">
        <ele>1209.96</ele>
        <time>2016-04-29T17:01:20Z</time>
      </trkpt>
      <trkpt lat="45.00718" lon="5.46968">
        <ele>1209.96</ele>
        <time>2016-04-29T17:01:21Z</time>
      </trkpt>
      <trkpt lat="45.00737" lon="5.46973">
        <ele>1212.36</ele>
        <time>2016-04-29T17:01:33Z</time>
      </trkpt>
      <trkpt lat="45.00739" lon="5.46973">
        <ele>1212.36</ele>
        <time>2016-04-29T17:01:34Z</time>
      </trkpt>
      <trkpt lat="45.00742" lon="5.46972">
        <ele>1212.84</ele>
        <time>2016-04-29T17:01:35Z</time>
      </trkpt>
      <trkpt lat="45.00743" lon="5.46972">
        <ele>1212.84</ele>
        <time>2016-04-29T17:01:36Z</time>
      </trkpt>
      <trkpt lat="45.00746" lon="5.46972">
        <ele>1212.84</ele>
        <time>2016-04-29T17:01:37Z</time>
      </trkpt>
      <trkpt lat="45.00747" lon="5.46973">
        <ele>1213.32</ele>
        <time>2016-04-29T17:01:38Z</time>
      </trkpt>
      <trkpt lat="45.0077" lon="5.46972">
        <ele>1215.72</ele>
        <time>2016-04-29T17:01:53Z</time>
      </trkpt>
      <trkpt lat="45.00782" lon="5.46963">
        <ele>1217.65</ele>
        <time>2016-04-29T17:02:03Z</time>
      </trkpt>
      <trkpt lat="45.00806" lon="5.4696">
        <ele>1219.57</ele>
        <time>2016-04-29T17:02:17Z</time>
      </trkpt>
      <trkpt lat="45.00808" lon="5.46961">
        <ele>1220.05</ele>
        <time>2016-04-29T17:02:18Z</time>
      </trkpt>
      <trkpt lat="45.00809" lon="5.46962">
        <ele>1220.05</ele>
        <time>2016-04-29T17:02:19Z</time>
      </trkpt>
      <trkpt lat="45.00811" lon="5.46964">
        <ele>1220.05</ele>
        <time>2016-04-29T17:02:20Z</time>
      </trkpt>
      <trkpt lat="45.00812" lon="5.46965">
        <ele>1220.53</ele>
        <time>2016-04-29T17:02:21Z</time>
      </trkpt>
      <trkpt lat="45.00812" lon="5.46967">
        <ele>1220.53</ele>
        <time>2016-04-29T17:02:22Z</time>
      </trkpt>
      <trkpt lat="45.00813" lon="5.46969">
        <ele>1220.53</ele>
        <time>2016-04-29T17:02:23Z</time>
      </trkpt>
      <trkpt lat="45.00814" lon="5.46971">
        <ele>1221.01</ele>
        <time>2016-04-29T17:02:24Z</time>
      </trkpt>
      <trkpt lat="45.00815" lon="5.46973">
        <ele>1221.01</ele>
        <time>2016-04-29T17:02:25Z</time>
      </trkpt>
      <trkpt lat="45.00828" lon="5.47002">
        <ele>1223.42</ele>
        <time>2016-04-29T17:02:40Z</time>
      </trkpt>
      <trkpt lat="45.00828" lon="5.47009">
        <ele>1223.9</ele>
        <time>2016-04-29T17:02:43Z</time>
      </trkpt>
      <trkpt lat="45.00828" lon="5.47015">
        <ele>1224.38</ele>
        <time>2016-04-29T17:02:45Z</time>
      </trkpt>
      <trkpt lat="45.00827" lon="5.47017">
        <ele>1224.38</ele>
        <time>2016-04-29T17:02:46Z</time>
      </trkpt>
      <trkpt lat="45.00827" lon="5.47019">
        <ele>1224.38</ele>
        <time>2016-04-29T17:02:47Z</time>
      </trkpt>
      <trkpt lat="45.00826" lon="5.47021">
        <ele>1224.86</ele>
        <time>2016-04-29T17:02:48Z</time>
      </trkpt>
      <trkpt lat="45.00826" lon="5.47024">
        <ele>1224.38</ele>
        <time>2016-04-29T17:02:49Z</time>
      </trkpt>
      <trkpt lat="45.00826" lon="5.47026">
        <ele>1224.86</ele>
        <time>2016-04-29T17:02:50Z</time>
      </trkpt>
      <trkpt lat="45.00826" lon="5.47028">
        <ele>1224.86</ele>
        <time>2016-04-29T17:02:51Z</time>
      </trkpt>
      <trkpt lat="45.00823" lon="5.47038">
        <ele>1225.82</ele>
        <time>2016-04-29T17:02:56Z</time>
      </trkpt>
      <trkpt lat="45.00819" lon="5.47048">
        <ele>1227.74</ele>
        <time>2016-04-29T17:03:02Z</time>
      </trkpt>
      <trkpt lat="45.00819" lon="5.4705">
        <ele>1226.78</ele>
        <time>2016-04-29T17:03:03Z</time>
      </trkpt>
      <trkpt lat="45.00818" lon="5.47052">
        <ele>1227.26</ele>
        <time>2016-04-29T17:03:04Z</time>
      </trkpt>
      <trkpt lat="45.00816" lon="5.47053">
        <ele>1227.26</ele>
        <time>2016-04-29T17:03:05Z</time>
      </trkpt>
      <trkpt lat="45.00815" lon="5.47055">
        <ele>1227.26</ele>
        <time>2016-04-29T17:03:06Z</time>
      </trkpt>
      <trkpt lat="45.00814" lon="5.47057">
        <ele>1227.74</ele>
        <time>2016-04-29T17:03:07Z</time>
      </trkpt>
      <trkpt lat="45.00813" lon="5.47059">
        <ele>1227.74</ele>
        <time>2016-04-29T17:03:08Z</time>
      </trkpt>
      <trkpt lat="45.00812" lon="5.47061">
        <ele>1227.74</ele>
        <time>2016-04-29T17:03:09Z</time>
      </trkpt>
      <trkpt lat="45.00812" lon="5.47063">
        <ele>1228.22</ele>
        <time>2016-04-29T17:03:10Z</time>
      </trkpt>
      <trkpt lat="45.00811" lon="5.47065">
        <ele>1228.22</ele>
        <time>2016-04-29T17:03:11Z</time>
      </trkpt>
      <trkpt lat="45.00804" lon="5.47075">
        <ele>1229.18</ele>
        <time>2016-04-29T17:03:18Z</time>
      </trkpt>
      <trkpt lat="45.00802" lon="5.47075">
        <ele>1229.18</ele>
        <time>2016-04-29T17:03:19Z</time>
      </trkpt>
      <trkpt lat="45.00779" lon="5.4709">
        <ele>1230.62</ele>
        <time>2016-04-29T17:03:33Z</time>
      </trkpt>
      <trkpt lat="45.00776" lon="5.47093">
        <ele>1231.59</ele>
        <time>2016-04-29T17:03:36Z</time>
      </trkpt>
      <trkpt lat="45.00769" lon="5.471">
        <ele>1232.07</ele>
        <time>2016-04-29T17:03:41Z</time>
      </trkpt>
      <trkpt lat="45.00769" lon="5.47102">
        <ele>1232.07</ele>
        <time>2016-04-29T17:03:42Z</time>
      </trkpt>
      <trkpt lat="45.00769" lon="5.47105">
        <ele>1232.55</ele>
        <time>2016-04-29T17:03:43Z</time>
      </trkpt>
      <trkpt lat="45.00769" lon="5.47108">
        <ele>1232.55</ele>
        <time>2016-04-29T17:03:44Z</time>
      </trkpt>
      <trkpt lat="45.00769" lon="5.4711">
        <ele>1232.55</ele>
        <time>2016-04-29T17:03:45Z</time>
      </trkpt>
      <trkpt lat="45.0077" lon="5.47112">
        <ele>1233.03</ele>
        <time>2016-04-29T17:03:46Z</time>
      </trkpt>
      <trkpt lat="45.00771" lon="5.47113">
        <ele>1233.03</ele>
        <time>2016-04-29T17:03:47Z</time>
      </trkpt>
      <trkpt lat="45.00773" lon="5.47114">
        <ele>1233.03</ele>
        <time>2016-04-29T17:03:48Z</time>
      </trkpt>
      <trkpt lat="45.00796" lon="5.47112">
        <ele>1235.43</ele>
        <time>2016-04-29T17:04:02Z</time>
      </trkpt>
      <trkpt lat="45.00818" lon="5.47104">
        <ele>1237.35</ele>
        <time>2016-04-29T17:04:16Z</time>
      </trkpt>
      <trkpt lat="45.00834" lon="5.47103">
        <ele>1239.28</ele>
        <time>2016-04-29T17:04:27Z</time>
      </trkpt>
      <trkpt lat="45.00836" lon="5.47104">
        <ele>1239.76</ele>
        <time>2016-04-29T17:04:29Z</time>
      </trkpt>
      <trkpt lat="45.00837" lon="5.47106">
        <ele>1239.76</ele>
        <time>2016-04-29T17:04:30Z</time>
      </trkpt>
      <trkpt lat="45.00838" lon="5.47106">
        <ele>1239.76</ele>
        <time>2016-04-29T17:04:31Z</time>
      </trkpt>
      <trkpt lat="45.00861" lon="5.47123">
        <ele>1242.64</ele>
        <time>2016-04-29T17:04:47Z</time>
      </trkpt>
      <trkpt lat="45.00875" lon="5.47133">
        <ele>1244.08</ele>
        <time>2016-04-29T17:05:00Z</time>
      </trkpt>
      <trkpt lat="45.00878" lon="5.47132">
        <ele>1245.04</ele>
        <time>2016-04-29T17:05:03Z</time>
      </trkpt>
      <trkpt lat="45.00879" lon="5.47131">
        <ele>1245.04</ele>
        <time>2016-04-29T17:05:04Z</time>
      </trkpt>
      <trkpt lat="45.00883" lon="5.4713">
        <ele>1245.04</ele>
        <time>2016-04-29T17:05:06Z</time>
      </trkpt>
      <trkpt lat="45.00884" lon="5.4713">
        <ele>1246.01</ele>
        <time>2016-04-29T17:05:07Z</time>
      </trkpt>
      <trkpt lat="45.00886" lon="5.47129">
        <ele>1245.53</ele>
        <time>2016-04-29T17:05:08Z</time>
      </trkpt>
      <trkpt lat="45.00888" lon="5.47129">
        <ele>1246.01</ele>
        <time>2016-04-29T17:05:09Z</time>
      </trkpt>
      <trkpt lat="45.0089" lon="5.47128">
        <ele>1246.01</ele>
        <time>2016-04-29T17:05:10Z</time>
      </trkpt>
      <trkpt lat="45.00892" lon="5.47126">
        <ele>1246.01</ele>
        <time>2016-04-29T17:05:11Z</time>
      </trkpt>
      <trkpt lat="45.00908" lon="5.47108">
        <ele>1247.93</ele>
        <time>2016-04-29T17:05:23Z</time>
      </trkpt>
      <trkpt lat="45.00925" lon="5.47085">
        <ele>1250.81</ele>
        <time>2016-04-29T17:05:38Z</time>
      </trkpt>
      <trkpt lat="45.00943" lon="5.47063">
        <ele>1252.74</ele>
        <time>2016-04-29T17:05:54Z</time>
      </trkpt>
      <trkpt lat="45.00961" lon="5.47048">
        <ele>1254.66</ele>
        <time>2016-04-29T17:06:08Z</time>
      </trkpt>
      <trkpt lat="45.00963" lon="5.47047">
        <ele>1254.66</ele>
        <time>2016-04-29T17:06:09Z</time>
      </trkpt>
      <trkpt lat="45.00964" lon="5.47046">
        <ele>1254.66</ele>
        <time>2016-04-29T17:06:10Z</time>
      </trkpt>
      <trkpt lat="45.00965" lon="5.47045">
        <ele>1254.66</ele>
        <time>2016-04-29T17:06:11Z</time>
      </trkpt>
      <trkpt lat="45.00967" lon="5.47044">
        <ele>1255.14</ele>
        <time>2016-04-29T17:06:12Z</time>
      </trkpt>
      <trkpt lat="45.00968" lon="5.47043">
        <ele>1255.14</ele>
        <time>2016-04-29T17:06:13Z</time>
      </trkpt>
      <trkpt lat="45.0099" lon="5.47026">
        <ele>1257.54</ele>
        <time>2016-04-29T17:06:27Z</time>
      </trkpt>
      <trkpt lat="45.0101" lon="5.47015">
        <ele>1259.46</ele>
        <time>2016-04-29T17:06:41Z</time>
      </trkpt>
      <trkpt lat="45.01028" lon="5.47002">
        <ele>1261.87</ele>
        <time>2016-04-29T17:06:54Z</time>
      </trkpt>
      <trkpt lat="45.01041" lon="5.46995">
        <ele>1263.31</ele>
        <time>2016-04-29T17:07:04Z</time>
      </trkpt>
      <trkpt lat="45.01042" lon="5.46994">
        <ele>1263.31</ele>
        <time>2016-04-29T17:07:05Z</time>
      </trkpt>
      <trkpt lat="45.01044" lon="5.46994">
        <ele>1263.31</ele>
        <time>2016-04-29T17:07:06Z</time>
      </trkpt>
      <trkpt lat="45.01066" lon="5.46989">
        <ele>1265.71</ele>
        <time>2016-04-29T17:07:20Z</time>
      </trkpt>
      <trkpt lat="45.01079" lon="5.46988">
        <ele>1266.67</ele>
        <time>2016-04-29T17:07:28Z</time>
      </trkpt>
      <trkpt lat="45.0108" lon="5.46988">
        <ele>1267.16</ele>
        <time>2016-04-29T17:07:29Z</time>
      </trkpt>
      <trkpt lat="45.01082" lon="5.46988">
        <ele>1267.16</ele>
        <time>2016-04-29T17:07:30Z</time>
      </trkpt>
      <trkpt lat="45.01084" lon="5.46988">
        <ele>1267.16</ele>
        <time>2016-04-29T17:07:31Z</time>
      </trkpt>
      <trkpt lat="45.01085" lon="5.46988">
        <ele>1267.16</ele>
        <time>2016-04-29T17:07:32Z</time>
      </trkpt>
      <trkpt lat="45.01087" lon="5.46987">
        <ele>1267.16</ele>
        <time>2016-04-29T17:07:33Z</time>
      </trkpt>
      <trkpt lat="45.01089" lon="5.46987">
        <ele>1267.64</ele>
        <time>2016-04-29T17:07:34Z</time>
      </trkpt>
      <trkpt lat="45.0109" lon="5.46986">
        <ele>1267.64</ele>
        <time>2016-04-29T17:07:35Z</time>
      </trkpt>
      <trkpt lat="45.01107" lon="5.46986">
        <ele>1269.08</ele>
        <time>2016-04-29T17:07:46Z</time>
      </trkpt>
      <trkpt lat="45.01127" lon="5.46983">
        <ele>1271</ele>
        <time>2016-04-29T17:07:59Z</time>
      </trkpt>
      <trkpt lat="45.01129" lon="5.46983">
        <ele>1271.48</ele>
        <time>2016-04-29T17:08:00Z</time>
      </trkpt>
      <trkpt lat="45.0113" lon="5.46983">
        <ele>1271.48</ele>
        <time>2016-04-29T17:08:01Z</time>
      </trkpt>
      <trkpt lat="45.01132" lon="5.46983">
        <ele>1271.48</ele>
        <time>2016-04-29T17:08:02Z</time>
      </trkpt>
      <trkpt lat="45.01134" lon="5.46983">
        <ele>1271.96</ele>
        <time>2016-04-29T17:08:03Z</time>
      </trkpt>
      <trkpt lat="45.01155" lon="5.46983">
        <ele>1273.88</ele>
        <time>2016-04-29T17:08:15Z</time>
      </trkpt>
      <trkpt lat="45.01174" lon="5.4699">
        <ele>1275.81</ele>
        <time>2016-04-29T17:08:26Z</time>
      </trkpt>
      <trkpt lat="45.01194" lon="5.46993">
        <ele>1277.73</ele>
        <time>2016-04-29T17:08:38Z</time>
      </trkpt>
      <trkpt lat="45.01218" lon="5.46997">
        <ele>1279.17</ele>
        <time>2016-04-29T17:08:51Z</time>
      </trkpt>
      <trkpt lat="45.01234" lon="5.46998">
        <ele>1280.61</ele>
        <time>2016-04-29T17:09:01Z</time>
      </trkpt>
      <trkpt lat="45.01236" lon="5.46998">
        <ele>1281.09</ele>
        <time>2016-04-29T17:09:02Z</time>
      </trkpt>
      <trkpt lat="45.01238" lon="5.46998">
        <ele>1281.09</ele>
        <time>2016-04-29T17:09:03Z</time>
      </trkpt>
      <trkpt lat="45.0124" lon="5.46998">
        <ele>1281.09</ele>
        <time>2016-04-29T17:09:04Z</time>
      </trkpt>
      <trkpt lat="45.01242" lon="5.46998">
        <ele>1281.57</ele>
        <time>2016-04-29T17:09:05Z</time>
      </trkpt>
      <trkpt lat="45.01245" lon="5.46998">
        <ele>1281.57</ele>
        <time>2016-04-29T17:09:06Z</time>
      </trkpt>
      <trkpt lat="45.01247" lon="5.46997">
        <ele>1281.57</ele>
        <time>2016-04-29T17:09:07Z</time>
      </trkpt>
      <trkpt lat="45.01249" lon="5.46997">
        <ele>1282.06</ele>
        <time>2016-04-29T17:09:08Z</time>
      </trkpt>
      <trkpt lat="45.01251" lon="5.46997">
        <ele>1282.06</ele>
        <time>2016-04-29T17:09:09Z</time>
      </trkpt>
      <trkpt lat="45.01254" lon="5.46997">
        <ele>1281.57</ele>
        <time>2016-04-29T17:09:10Z</time>
      </trkpt>
      <trkpt lat="45.01256" lon="5.46997">
        <ele>1282.06</ele>
        <time>2016-04-29T17:09:11Z</time>
      </trkpt>
      <trkpt lat="45.01276" lon="5.47">
        <ele>1283.5</ele>
        <time>2016-04-29T17:09:22Z</time>
      </trkpt>
      <trkpt lat="45.01299" lon="5.47014">
        <ele>1285.42</ele>
        <time>2016-04-29T17:09:35Z</time>
      </trkpt>
      <trkpt lat="45.0132" lon="5.47034">
        <ele>1287.34</ele>
        <time>2016-04-29T17:09:48Z</time>
      </trkpt>
      <trkpt lat="45.01322" lon="5.47035">
        <ele>1287.34</ele>
        <time>2016-04-29T17:09:49Z</time>
      </trkpt>
      <trkpt lat="45.0134" lon="5.47062">
        <ele>1289.75</ele>
        <time>2016-04-29T17:10:04Z</time>
      </trkpt>
      <trkpt lat="45.01345" lon="5.47101">
        <ele>1291.19</ele>
        <time>2016-04-29T17:10:20Z</time>
      </trkpt>
      <trkpt lat="45.0135" lon="5.47135">
        <ele>1293.11</ele>
        <time>2016-04-29T17:10:35Z</time>
      </trkpt>
      <trkpt lat="45.0135" lon="5.47138">
        <ele>1293.11</ele>
        <time>2016-04-29T17:10:36Z</time>
      </trkpt>
      <trkpt lat="45.0135" lon="5.47139">
        <ele>1293.11</ele>
        <time>2016-04-29T17:10:37Z</time>
      </trkpt>
      <trkpt lat="45.0135" lon="5.47142">
        <ele>1293.11</ele>
        <time>2016-04-29T17:10:38Z</time>
      </trkpt>
      <trkpt lat="45.0135" lon="5.47144">
        <ele>1293.11</ele>
        <time>2016-04-29T17:10:39Z</time>
      </trkpt>
      <trkpt lat="45.0135" lon="5.47148">
        <ele>1293.59</ele>
        <time>2016-04-29T17:10:51Z</time>
      </trkpt>
      <trkpt lat="45.0135" lon="5.47149">
        <ele>1293.11</ele>
        <time>2016-04-29T17:11:13Z</time>
      </trkpt>
      <trkpt lat="45.01352" lon="5.47148">
        <ele>1293.59</ele>
        <time>2016-04-29T17:11:37Z</time>
      </trkpt>
      <trkpt lat="45.01353" lon="5.47149">
        <ele>1293.59</ele>
        <time>2016-04-29T17:12:01Z</time>
      </trkpt>
      <trkpt lat="45.01353" lon="5.47149">
        <ele>1293.59</ele>
        <time>2016-04-29T17:12:25Z</time>
      </trkpt>
      <trkpt lat="45.01352" lon="5.47148">
        <ele>1292.63</ele>
        <time>2016-04-29T17:12:34Z</time>
      </trkpt>
      <trkpt lat="45.01349" lon="5.47146">
        <ele>1292.63</ele>
        <time>2016-04-29T17:13:04Z</time>
      </trkpt>
      <trkpt lat="45.01348" lon="5.47146">
        <ele>1292.63</ele>
        <time>2016-04-29T17:13:36Z</time>
      </trkpt>
      <trkpt lat="45.01346" lon="5.47148">
        <ele>1292.63</ele>
        <time>2016-04-29T17:14:07Z</time>
      </trkpt>
      <trkpt lat="45.01348" lon="5.47147">
        <ele>1292.15</ele>
        <time>2016-04-29T17:14:34Z</time>
      </trkpt>
      <trkpt lat="45.01346" lon="5.47146">
        <ele>1292.15</ele>
        <time>2016-04-29T17:15:07Z</time>
      </trkpt>
      <trkpt lat="45.01347" lon="5.47144">
        <ele>1292.15</ele>
        <time>2016-04-29T17:15:37Z</time>
      </trkpt>
      <trkpt lat="45.01347" lon="5.47146">
        <ele>1292.15</ele>
        <time>2016-04-29T17:16:06Z</time>
      </trkpt>
      <trkpt lat="45.01346" lon="5.47145">
        <ele>1292.15</ele>
        <time>2016-04-29T17:16:33Z</time>
      </trkpt>
      <trkpt lat="45.01346" lon="5.47144">
        <ele>1291.67</ele>
        <time>2016-04-29T17:16:55Z</time>
      </trkpt>
      <trkpt lat="45.01346" lon="5.47143">
        <ele>1291.67</ele>
        <time>2016-04-29T17:17:26Z</time>
      </trkpt>
      <trkpt lat="45.01344" lon="5.47144">
        <ele>1292.15</ele>
        <time>2016-04-29T17:17:55Z</time>
      </trkpt>
      <trkpt lat="45.01344" lon="5.47145">
        <ele>1293.11</ele>
        <time>2016-04-29T17:18:09Z</time>
      </trkpt>
      <trkpt lat="45.01345" lon="5.47147">
        <ele>1293.11</ele>
        <time>2016-04-29T17:18:37Z</time>
      </trkpt>
      <trkpt lat="45.01344" lon="5.4715">
        <ele>1293.11</ele>
        <time>2016-04-29T17:18:50Z</time>
      </trkpt>
      <trkpt lat="45.01342" lon="5.4715">
        <ele>1293.11</ele>
        <time>2016-04-29T17:18:52Z</time>
      </trkpt>
      <trkpt lat="45.01329" lon="5.47147">
        <ele>1293.11</ele>
        <time>2016-04-29T17:19:03Z</time>
      </trkpt>
      <trkpt lat="45.01328" lon="5.47149">
        <ele>1293.11</ele>
        <time>2016-04-29T17:19:04Z</time>
      </trkpt>
      <trkpt lat="45.01327" lon="5.47151">
        <ele>1292.63</ele>
        <time>2016-04-29T17:19:05Z</time>
      </trkpt>
      <trkpt lat="45.01326" lon="5.47154">
        <ele>1293.11</ele>
        <time>2016-04-29T17:19:06Z</time>
      </trkpt>
      <trkpt lat="45.01325" lon="5.47156">
        <ele>1293.11</ele>
        <time>2016-04-29T17:19:07Z</time>
      </trkpt>
      <trkpt lat="45.01324" lon="5.47158">
        <ele>1293.11</ele>
        <time>2016-04-29T17:19:08Z</time>
      </trkpt>
      <trkpt lat="45.01324" lon="5.4716">
        <ele>1293.59</ele>
        <time>2016-04-29T17:19:09Z</time>
      </trkpt>
      <trkpt lat="45.01311" lon="5.47188">
        <ele>1293.11</ele>
        <time>2016-04-29T17:19:23Z</time>
      </trkpt>
      <trkpt lat="45.01307" lon="5.47194">
        <ele>1294.55</ele>
        <time>2016-04-29T17:19:28Z</time>
      </trkpt>
      <trkpt lat="45.01304" lon="5.47201">
        <ele>1295.51</ele>
        <time>2016-04-29T17:19:34Z</time>
      </trkpt>
      <trkpt lat="45.01298" lon="5.47211">
        <ele>1295.51</ele>
        <time>2016-04-29T17:19:46Z</time>
      </trkpt>
      <trkpt lat="45.01294" lon="5.47218">
        <ele>1295.51</ele>
        <time>2016-04-29T17:19:54Z</time>
      </trkpt>
      <trkpt lat="45.01291" lon="5.47218">
        <ele>1295.99</ele>
        <time>2016-04-29T17:20:02Z</time>
      </trkpt>
      <trkpt lat="45.01291" lon="5.47216">
        <ele>1295.51</ele>
        <time>2016-04-29T17:20:03Z</time>
      </trkpt>
      <trkpt lat="45.01293" lon="5.47214">
        <ele>1295.51</ele>
        <time>2016-04-29T17:20:04Z</time>
      </trkpt>
      <trkpt lat="45.01294" lon="5.47214">
        <ele>1295.03</ele>
        <time>2016-04-29T17:20:05Z</time>
      </trkpt>
      <trkpt lat="45.01295" lon="5.47213">
        <ele>1295.51</ele>
        <time>2016-04-29T17:20:06Z</time>
      </trkpt>
      <trkpt lat="45.01301" lon="5.47212">
        <ele>1295.51</ele>
        <time>2016-04-29T17:20:18Z</time>
      </trkpt>
      <trkpt lat="45.013" lon="5.47213">
        <ele>1295.99</ele>
        <time>2016-04-29T17:20:46Z</time>
      </trkpt>
      <trkpt lat="45.013" lon="5.47213">
        <ele>1295.51</ele>
        <time>2016-04-29T17:21:11Z</time>
      </trkpt>
      <trkpt lat="45.01304" lon="5.47215">
        <ele>1295.99</ele>
        <time>2016-04-29T17:21:30Z</time>
      </trkpt>
      <trkpt lat="45.01315" lon="5.47233">
        <ele>1296.48</ele>
        <time>2016-04-29T17:21:40Z</time>
      </trkpt>
      <trkpt lat="45.01336" lon="5.47255">
        <ele>1298.4</ele>
        <time>2016-04-29T17:21:54Z</time>
      </trkpt>
      <trkpt lat="45.01355" lon="5.47263">
        <ele>1299.84</ele>
        <time>2016-04-29T17:22:07Z</time>
      </trkpt>
      <trkpt lat="45.01368" lon="5.47285">
        <ele>1299.84</ele>
        <time>2016-04-29T17:22:18Z</time>
      </trkpt>
      <trkpt lat="45.01369" lon="5.47288">
        <ele>1299.84</ele>
        <time>2016-04-29T17:22:19Z</time>
      </trkpt>
      <trkpt lat="45.01369" lon="5.47308">
        <ele>1300.8</ele>
        <time>2016-04-29T17:22:27Z</time>
      </trkpt>
      <trkpt lat="45.01369" lon="5.4731">
        <ele>1300.8</ele>
        <time>2016-04-29T17:22:28Z</time>
      </trkpt>
      <trkpt lat="45.01369" lon="5.47312">
        <ele>1301.28</ele>
        <time>2016-04-29T17:22:29Z</time>
      </trkpt>
      <trkpt lat="45.0137" lon="5.47319">
        <ele>1301.76</ele>
        <time>2016-04-29T17:22:32Z</time>
      </trkpt>
      <trkpt lat="45.01371" lon="5.47321">
        <ele>1301.76</ele>
        <time>2016-04-29T17:22:33Z</time>
      </trkpt>
      <trkpt lat="45.01372" lon="5.47323">
        <ele>1301.76</ele>
        <time>2016-04-29T17:22:34Z</time>
      </trkpt>
      <trkpt lat="45.01373" lon="5.47325">
        <ele>1302.24</ele>
        <time>2016-04-29T17:22:35Z</time>
      </trkpt>
      <trkpt lat="45.01374" lon="5.47327">
        <ele>1301.76</ele>
        <time>2016-04-29T17:22:36Z</time>
      </trkpt>
      <trkpt lat="45.01392" lon="5.47352">
        <ele>1304.17</ele>
        <time>2016-04-29T17:22:52Z</time>
      </trkpt>
      <trkpt lat="45.01394" lon="5.47357">
        <ele>1304.17</ele>
        <time>2016-04-29T17:22:55Z</time>
      </trkpt>
      <trkpt lat="45.01395" lon="5.47358">
        <ele>1304.65</ele>
        <time>2016-04-29T17:22:56Z</time>
      </trkpt>
      <trkpt lat="45.01398" lon="5.47362">
        <ele>1305.13</ele>
        <time>2016-04-29T17:23:00Z</time>
      </trkpt>
      <trkpt lat="45.01403" lon="5.47366">
        <ele>1305.61</ele>
        <time>2016-04-29T17:23:04Z</time>
      </trkpt>
      <trkpt lat="45.01405" lon="5.47367">
        <ele>1305.61</ele>
        <time>2016-04-29T17:23:05Z</time>
      </trkpt>
      <trkpt lat="45.01411" lon="5.47371">
        <ele>1306.09</ele>
        <time>2016-04-29T17:23:10Z</time>
      </trkpt>
      <trkpt lat="45.01413" lon="5.47372">
        <ele>1306.57</ele>
        <time>2016-04-29T17:23:12Z</time>
      </trkpt>
      <trkpt lat="45.01418" lon="5.47373">
        <ele>1306.57</ele>
        <time>2016-04-29T17:23:15Z</time>
      </trkpt>
      <trkpt lat="45.0142" lon="5.47372">
        <ele>1306.09</ele>
        <time>2016-04-29T17:23:16Z</time>
      </trkpt>
      <trkpt lat="45.01422" lon="5.47371">
        <ele>1306.09</ele>
        <time>2016-04-29T17:23:17Z</time>
      </trkpt>
      <trkpt lat="45.01449" lon="5.47352">
        <ele>1308.01</ele>
        <time>2016-04-29T17:23:31Z</time>
      </trkpt>
      <trkpt lat="45.01452" lon="5.47353">
        <ele>1308.49</ele>
        <time>2016-04-29T17:23:33Z</time>
      </trkpt>
      <trkpt lat="45.01454" lon="5.47353">
        <ele>1308.49</ele>
        <time>2016-04-29T17:23:34Z</time>
      </trkpt>
      <trkpt lat="45.01456" lon="5.47354">
        <ele>1308.49</ele>
        <time>2016-04-29T17:23:35Z</time>
      </trkpt>
      <trkpt lat="45.01458" lon="5.47354">
        <ele>1308.49</ele>
        <time>2016-04-29T17:23:36Z</time>
      </trkpt>
      <trkpt lat="45.01489" lon="5.47343">
        <ele>1308.97</ele>
        <time>2016-04-29T17:23:48Z</time>
      </trkpt>
      <trkpt lat="45.01519" lon="5.47319">
        <ele>1308.97</ele>
        <time>2016-04-29T17:23:58Z</time>
      </trkpt>
      <trkpt lat="45.01556" lon="5.47332">
        <ele>1309.93</ele>
        <time>2016-04-29T17:24:09Z</time>
      </trkpt>
      <trkpt lat="45.01571" lon="5.47338">
        <ele>1309.93</ele>
        <time>2016-04-29T17:24:15Z</time>
      </trkpt>
      <trkpt lat="45.01571" lon="5.47336">
        <ele>1309.93</ele>
        <time>2016-04-29T17:24:16Z</time>
      </trkpt>
      <trkpt lat="45.01569" lon="5.47335">
        <ele>1309.93</ele>
        <time>2016-04-29T17:24:17Z</time>
      </trkpt>
      <trkpt lat="45.01565" lon="5.47335">
        <ele>1309.93</ele>
        <time>2016-04-29T17:24:19Z</time>
      </trkpt>
      <trkpt lat="45.01567" lon="5.47357">
        <ele>1308.49</ele>
        <time>2016-04-29T17:24:29Z</time>
      </trkpt>
      <trkpt lat="45.01571" lon="5.4736">
        <ele>1308.49</ele>
        <time>2016-04-29T17:24:30Z</time>
      </trkpt>
      <trkpt lat="45.0158" lon="5.47359">
        <ele>1307.53</ele>
        <time>2016-04-29T17:24:32Z</time>
      </trkpt>
      <trkpt lat="45.01595" lon="5.47356">
        <ele>1306.09</ele>
        <time>2016-04-29T17:24:35Z</time>
      </trkpt>
      <trkpt lat="45.016" lon="5.47355">
        <ele>1306.57</ele>
        <time>2016-04-29T17:24:36Z</time>
      </trkpt>
      <trkpt lat="45.01602" lon="5.47355">
        <ele>1307.05</ele>
        <time>2016-04-29T17:24:37Z</time>
      </trkpt>
      <trkpt lat="45.01605" lon="5.47354">
        <ele>1307.05</ele>
        <time>2016-04-29T17:24:38Z</time>
      </trkpt>
      <trkpt lat="45.01607" lon="5.47354">
        <ele>1307.53</ele>
        <time>2016-04-29T17:24:39Z</time>
      </trkpt>
      <trkpt lat="45.01609" lon="5.47352">
        <ele>1308.01</ele>
        <time>2016-04-29T17:24:40Z</time>
      </trkpt>
      <trkpt lat="45.01611" lon="5.47351">
        <ele>1308.01</ele>
        <time>2016-04-29T17:24:41Z</time>
      </trkpt>
      <trkpt lat="45.0162" lon="5.47343">
        <ele>1308.97</ele>
        <time>2016-04-29T17:24:47Z</time>
      </trkpt>
      <trkpt lat="45.01622" lon="5.47341">
        <ele>1308.97</ele>
        <time>2016-04-29T17:24:48Z</time>
      </trkpt>
      <trkpt lat="45.01625" lon="5.47338">
        <ele>1308.97</ele>
        <time>2016-04-29T17:24:49Z</time>
      </trkpt>
      <trkpt lat="45.01645" lon="5.47326">
        <ele>1307.05</ele>
        <time>2016-04-29T17:24:54Z</time>
      </trkpt>
      <trkpt lat="45.01665" lon="5.47321">
        <ele>1306.09</ele>
        <time>2016-04-29T17:24:59Z</time>
      </trkpt>
      <trkpt lat="45.01669" lon="5.47322">
        <ele>1306.09</ele>
        <time>2016-04-29T17:25:00Z</time>
      </trkpt>
      <trkpt lat="45.01674" lon="5.47323">
        <ele>1306.09</ele>
        <time>2016-04-29T17:25:01Z</time>
      </trkpt>
      <trkpt lat="45.01677" lon="5.47322">
        <ele>1306.57</ele>
        <time>2016-04-29T17:25:02Z</time>
      </trkpt>
      <trkpt lat="45.0168" lon="5.47321">
        <ele>1306.57</ele>
        <time>2016-04-29T17:25:03Z</time>
      </trkpt>
      <trkpt lat="45.01683" lon="5.4732">
        <ele>1307.05</ele>
        <time>2016-04-29T17:25:04Z</time>
      </trkpt>
      <trkpt lat="45.01685" lon="5.47319">
        <ele>1307.05</ele>
        <time>2016-04-29T17:25:05Z</time>
      </trkpt>
      <trkpt lat="45.01691" lon="5.47315">
        <ele>1307.53</ele>
        <time>2016-04-29T17:25:08Z</time>
      </trkpt>
      <trkpt lat="45.01693" lon="5.47313">
        <ele>1308.01</ele>
        <time>2016-04-29T17:25:09Z</time>
      </trkpt>
      <trkpt lat="45.01695" lon="5.47311">
        <ele>1307.53</ele>
        <time>2016-04-29T17:25:10Z</time>
      </trkpt>
      <trkpt lat="45.01697" lon="5.47309">
        <ele>1308.01</ele>
        <time>2016-04-29T17:25:11Z</time>
      </trkpt>
      <trkpt lat="45.017" lon="5.47307">
        <ele>1308.01</ele>
        <time>2016-04-29T17:25:12Z</time>
      </trkpt>
      <trkpt lat="45.01723" lon="5.47287">
        <ele>1309.93</ele>
        <time>2016-04-29T17:25:23Z</time>
      </trkpt>
      <trkpt lat="45.01745" lon="5.47262">
        <ele>1312.82</ele>
        <time>2016-04-29T17:25:37Z</time>
      </trkpt>
      <trkpt lat="45.01761" lon="5.47253">
        <ele>1311.86</ele>
        <time>2016-04-29T17:25:44Z</time>
      </trkpt>
      <trkpt lat="45.01764" lon="5.47253">
        <ele>1311.86</ele>
        <time>2016-04-29T17:25:45Z</time>
      </trkpt>
      <trkpt lat="45.01766" lon="5.47254">
        <ele>1312.34</ele>
        <time>2016-04-29T17:25:46Z</time>
      </trkpt>
      <trkpt lat="45.01769" lon="5.47254">
        <ele>1312.34</ele>
        <time>2016-04-29T17:25:47Z</time>
      </trkpt>
      <trkpt lat="45.01771" lon="5.47255">
        <ele>1312.34</ele>
        <time>2016-04-29T17:25:48Z</time>
      </trkpt>
      <trkpt lat="45.01781" lon="5.47259">
        <ele>1312.34</ele>
        <time>2016-04-29T17:25:55Z</time>
      </trkpt>
      <trkpt lat="45.01791" lon="5.47266">
        <ele>1311.38</ele>
        <time>2016-04-29T17:26:05Z</time>
      </trkpt>
      <trkpt lat="45.018" lon="5.47266">
        <ele>1309.93</ele>
        <time>2016-04-29T17:26:10Z</time>
      </trkpt>
      <trkpt lat="45.01808" lon="5.47267">
        <ele>1308.01</ele>
        <time>2016-04-29T17:26:13Z</time>
      </trkpt>
      <trkpt lat="45.01815" lon="5.47277">
        <ele>1304.65</ele>
        <time>2016-04-29T17:26:16Z</time>
      </trkpt>
      <trkpt lat="45.01818" lon="5.47281">
        <ele>1304.17</ele>
        <time>2016-04-29T17:26:17Z</time>
      </trkpt>
      <trkpt lat="45.01822" lon="5.47285">
        <ele>1303.69</ele>
        <time>2016-04-29T17:26:18Z</time>
      </trkpt>
      <trkpt lat="45.01835" lon="5.47292">
        <ele>1303.2</ele>
        <time>2016-04-29T17:26:20Z</time>
      </trkpt>
      <trkpt lat="45.01842" lon="5.47295">
        <ele>1303.69</ele>
        <time>2016-04-29T17:26:21Z</time>
      </trkpt>
      <trkpt lat="45.01878" lon="5.47304">
        <ele>1307.05</ele>
        <time>2016-04-29T17:26:26Z</time>
      </trkpt>
      <trkpt lat="45.01918" lon="5.47315">
        <ele>1307.05</ele>
        <time>2016-04-29T17:26:37Z</time>
      </trkpt>
      <trkpt lat="45.01955" lon="5.47328">
        <ele>1306.09</ele>
        <time>2016-04-29T17:26:48Z</time>
      </trkpt>
      <trkpt lat="45.01962" lon="5.4733">
        <ele>1305.61</ele>
        <time>2016-04-29T17:26:50Z</time>
      </trkpt>
      <trkpt lat="45.01966" lon="5.47333">
        <ele>1305.13</ele>
        <time>2016-04-29T17:26:51Z</time>
      </trkpt>
      <trkpt lat="45.01969" lon="5.47336">
        <ele>1305.13</ele>
        <time>2016-04-29T17:26:52Z</time>
      </trkpt>
      <trkpt lat="45.01976" lon="5.47343">
        <ele>1304.17</ele>
        <time>2016-04-29T17:26:54Z</time>
      </trkpt>
      <trkpt lat="45.01979" lon="5.47348">
        <ele>1303.69</ele>
        <time>2016-04-29T17:26:55Z</time>
      </trkpt>
      <trkpt lat="45.01984" lon="5.47353">
        <ele>1303.69</ele>
        <time>2016-04-29T17:26:56Z</time>
      </trkpt>
      <trkpt lat="45.01988" lon="5.4736">
        <ele>1303.2</ele>
        <time>2016-04-29T17:26:57Z</time>
      </trkpt>
      <trkpt lat="45.01992" lon="5.47366">
        <ele>1302.72</ele>
        <time>2016-04-29T17:26:58Z</time>
      </trkpt>
      <trkpt lat="45.01996" lon="5.47371">
        <ele>1302.72</ele>
        <time>2016-04-29T17:26:59Z</time>
      </trkpt>
      <trkpt lat="45.01999" lon="5.47378">
        <ele>1302.72</ele>
        <time>2016-04-29T17:27:00Z</time>
      </trkpt>
      <trkpt lat="45.02002" lon="5.47383">
        <ele>1302.72</ele>
        <time>2016-04-29T17:27:01Z</time>
      </trkpt>
      <trkpt lat="45.02006" lon="5.47387">
        <ele>1302.24</ele>
        <time>2016-04-29T17:27:02Z</time>
      </trkpt>
      <trkpt lat="45.02008" lon="5.47393">
        <ele>1302.24</ele>
        <time>2016-04-29T17:27:03Z</time>
      </trkpt>
      <trkpt lat="45.0201" lon="5.47399">
        <ele>1302.24</ele>
        <time>2016-04-29T17:27:04Z</time>
      </trkpt>
      <trkpt lat="45.02012" lon="5.47406">
        <ele>1301.76</ele>
        <time>2016-04-29T17:27:05Z</time>
      </trkpt>
      <trkpt lat="45.02013" lon="5.47412">
        <ele>1301.28</ele>
        <time>2016-04-29T17:27:06Z</time>
      </trkpt>
      <trkpt lat="45.02015" lon="5.47419">
        <ele>1301.28</ele>
        <time>2016-04-29T17:27:07Z</time>
      </trkpt>
      <trkpt lat="45.02018" lon="5.47426">
        <ele>1300.8</ele>
        <time>2016-04-29T17:27:08Z</time>
      </trkpt>
      <trkpt lat="45.02024" lon="5.4744">
        <ele>1299.84</ele>
        <time>2016-04-29T17:27:10Z</time>
      </trkpt>
      <trkpt lat="45.02028" lon="5.47446">
        <ele>1299.84</ele>
        <time>2016-04-29T17:27:11Z</time>
      </trkpt>
      <trkpt lat="45.02032" lon="5.47452">
        <ele>1299.36</ele>
        <time>2016-04-29T17:27:12Z</time>
      </trkpt>
      <trkpt lat="45.02035" lon="5.47459">
        <ele>1299.36</ele>
        <time>2016-04-29T17:27:13Z</time>
      </trkpt>
      <trkpt lat="45.02037" lon="5.47466">
        <ele>1298.88</ele>
        <time>2016-04-29T17:27:14Z</time>
      </trkpt>
      <trkpt lat="45.02038" lon="5.47474">
        <ele>1298.88</ele>
        <time>2016-04-29T17:27:15Z</time>
      </trkpt>
      <trkpt lat="45.02039" lon="5.47482">
        <ele>1297.92</ele>
        <time>2016-04-29T17:27:16Z</time>
      </trkpt>
      <trkpt lat="45.02039" lon="5.4749">
        <ele>1297.44</ele>
        <time>2016-04-29T17:27:17Z</time>
      </trkpt>
      <trkpt lat="45.0204" lon="5.47507">
        <ele>1296.96</ele>
        <time>2016-04-29T17:27:19Z</time>
      </trkpt>
      <trkpt lat="45.02046" lon="5.47541">
        <ele>1295.51</ele>
        <time>2016-04-29T17:27:23Z</time>
      </trkpt>
      <trkpt lat="45.0205" lon="5.47548">
        <ele>1295.03</ele>
        <time>2016-04-29T17:27:24Z</time>
      </trkpt>
      <trkpt lat="45.02055" lon="5.47552">
        <ele>1294.55</ele>
        <time>2016-04-29T17:27:25Z</time>
      </trkpt>
      <trkpt lat="45.02062" lon="5.47555">
        <ele>1294.07</ele>
        <time>2016-04-29T17:27:26Z</time>
      </trkpt>
      <trkpt lat="45.02068" lon="5.47557">
        <ele>1294.55</ele>
        <time>2016-04-29T17:27:27Z</time>
      </trkpt>
      <trkpt lat="45.02073" lon="5.47557">
        <ele>1294.55</ele>
        <time>2016-04-29T17:27:28Z</time>
      </trkpt>
      <trkpt lat="45.02079" lon="5.47558">
        <ele>1294.55</ele>
        <time>2016-04-29T17:27:29Z</time>
      </trkpt>
      <trkpt lat="45.02108" lon="5.47565">
        <ele>1294.55</ele>
        <time>2016-04-29T17:27:36Z</time>
      </trkpt>
      <trkpt lat="45.02111" lon="5.47566">
        <ele>1294.55</ele>
        <time>2016-04-29T17:27:37Z</time>
      </trkpt>
      <trkpt lat="45.02115" lon="5.47567">
        <ele>1294.55</ele>
        <time>2016-04-29T17:27:38Z</time>
      </trkpt>
      <trkpt lat="45.02119" lon="5.47569">
        <ele>1294.07</ele>
        <time>2016-04-29T17:27:39Z</time>
      </trkpt>
      <trkpt lat="45.02124" lon="5.47571">
        <ele>1294.55</ele>
        <time>2016-04-29T17:27:40Z</time>
      </trkpt>
      <trkpt lat="45.02128" lon="5.47574">
        <ele>1294.07</ele>
        <time>2016-04-29T17:27:41Z</time>
      </trkpt>
      <trkpt lat="45.02133" lon="5.47576">
        <ele>1294.07</ele>
        <time>2016-04-29T17:27:42Z</time>
      </trkpt>
      <trkpt lat="45.02142" lon="5.47582">
        <ele>1293.59</ele>
        <time>2016-04-29T17:27:44Z</time>
      </trkpt>
      <trkpt lat="45.02151" lon="5.47587">
        <ele>1293.11</ele>
        <time>2016-04-29T17:27:46Z</time>
      </trkpt>
      <trkpt lat="45.0216" lon="5.47589">
        <ele>1293.11</ele>
        <time>2016-04-29T17:27:48Z</time>
      </trkpt>
      <trkpt lat="45.02169" lon="5.47591">
        <ele>1293.59</ele>
        <time>2016-04-29T17:27:50Z</time>
      </trkpt>
      <trkpt lat="45.02173" lon="5.47591">
        <ele>1293.59</ele>
        <time>2016-04-29T17:27:51Z</time>
      </trkpt>
      <trkpt lat="45.02177" lon="5.47592">
        <ele>1293.59</ele>
        <time>2016-04-29T17:27:52Z</time>
      </trkpt>
      <trkpt lat="45.02182" lon="5.47593">
        <ele>1293.59</ele>
        <time>2016-04-29T17:27:53Z</time>
      </trkpt>
      <trkpt lat="45.02185" lon="5.47594">
        <ele>1293.59</ele>
        <time>2016-04-29T17:27:54Z</time>
      </trkpt>
      <trkpt lat="45.02189" lon="5.47595">
        <ele>1293.59</ele>
        <time>2016-04-29T17:27:55Z</time>
      </trkpt>
      <trkpt lat="45.02192" lon="5.47597">
        <ele>1293.59</ele>
        <time>2016-04-29T17:27:56Z</time>
      </trkpt>
      <trkpt lat="45.02221" lon="5.47603">
        <ele>1291.67</ele>
        <time>2016-04-29T17:28:06Z</time>
      </trkpt>
      <trkpt lat="45.02227" lon="5.47604">
        <ele>1291.19</ele>
        <time>2016-04-29T17:28:07Z</time>
      </trkpt>
      <trkpt lat="45.02232" lon="5.47604">
        <ele>1290.23</ele>
        <time>2016-04-29T17:28:08Z</time>
      </trkpt>
      <trkpt lat="45.02239" lon="5.47605">
        <ele>1290.23</ele>
        <time>2016-04-29T17:28:09Z</time>
      </trkpt>
      <trkpt lat="45.02245" lon="5.47606">
        <ele>1289.75</ele>
        <time>2016-04-29T17:28:10Z</time>
      </trkpt>
      <trkpt lat="45.0225" lon="5.47608">
        <ele>1289.75</ele>
        <time>2016-04-29T17:28:11Z</time>
      </trkpt>
      <trkpt lat="45.02255" lon="5.4761">
        <ele>1289.27</ele>
        <time>2016-04-29T17:28:12Z</time>
      </trkpt>
      <trkpt lat="45.02259" lon="5.47611">
        <ele>1289.27</ele>
        <time>2016-04-29T17:28:13Z</time>
      </trkpt>
      <trkpt lat="45.02263" lon="5.47613">
        <ele>1289.27</ele>
        <time>2016-04-29T17:28:14Z</time>
      </trkpt>
      <trkpt lat="45.02267" lon="5.47614">
        <ele>1289.27</ele>
        <time>2016-04-29T17:28:15Z</time>
      </trkpt>
      <trkpt lat="45.02271" lon="5.47615">
        <ele>1289.27</ele>
        <time>2016-04-29T17:28:16Z</time>
      </trkpt>
      <trkpt lat="45.02275" lon="5.47615">
        <ele>1289.27</ele>
        <time>2016-04-29T17:28:17Z</time>
      </trkpt>
      <trkpt lat="45.02279" lon="5.47616">
        <ele>1289.27</ele>
        <time>2016-04-29T17:28:18Z</time>
      </trkpt>
      <trkpt lat="45.02283" lon="5.47618">
        <ele>1288.78</ele>
        <time>2016-04-29T17:28:19Z</time>
      </trkpt>
      <trkpt lat="45.02286" lon="5.47619">
        <ele>1288.78</ele>
        <time>2016-04-29T17:28:20Z</time>
      </trkpt>
      <trkpt lat="45.0229" lon="5.47621">
        <ele>1288.78</ele>
        <time>2016-04-29T17:28:21Z</time>
      </trkpt>
      <trkpt lat="45.02318" lon="5.47638">
        <ele>1288.78</ele>
        <time>2016-04-29T17:28:34Z</time>
      </trkpt>
      <trkpt lat="45.02337" lon="5.4764">
        <ele>1288.78</ele>
        <time>2016-04-29T17:28:43Z</time>
      </trkpt>
      <trkpt lat="45.02362" lon="5.47642">
        <ele>1287.82</ele>
        <time>2016-04-29T17:28:54Z</time>
      </trkpt>
      <trkpt lat="45.0241" lon="5.47657">
        <ele>1284.94</ele>
        <time>2016-04-29T17:29:10Z</time>
      </trkpt>
      <trkpt lat="45.02453" lon="5.47664">
        <ele>1283.5</ele>
        <time>2016-04-29T17:29:23Z</time>
      </trkpt>
      <trkpt lat="45.02482" lon="5.47668">
        <ele>1283.5</ele>
        <time>2016-04-29T17:29:36Z</time>
      </trkpt>
      <trkpt lat="45.02503" lon="5.4767">
        <ele>1282.54</ele>
        <time>2016-04-29T17:29:49Z</time>
      </trkpt>
      <trkpt lat="45.02504" lon="5.4767">
        <ele>1282.54</ele>
        <time>2016-04-29T17:30:15Z</time>
      </trkpt>
      <trkpt lat="45.02506" lon="5.4767">
        <ele>1282.54</ele>
        <time>2016-04-29T17:30:40Z</time>
      </trkpt>
      <trkpt lat="45.02508" lon="5.4767">
        <ele>1282.06</ele>
        <time>2016-04-29T17:30:41Z</time>
      </trkpt>
      <trkpt lat="45.0251" lon="5.47671">
        <ele>1282.06</ele>
        <time>2016-04-29T17:30:42Z</time>
      </trkpt>
      <trkpt lat="45.02513" lon="5.47672">
        <ele>1281.57</ele>
        <time>2016-04-29T17:30:43Z</time>
      </trkpt>
      <trkpt lat="45.02517" lon="5.47674">
        <ele>1281.09</ele>
        <time>2016-04-29T17:30:44Z</time>
      </trkpt>
      <trkpt lat="45.02522" lon="5.47676">
        <ele>1281.09</ele>
        <time>2016-04-29T17:30:45Z</time>
      </trkpt>
      <trkpt lat="45.02528" lon="5.47678">
        <ele>1280.61</ele>
        <time>2016-04-29T17:30:46Z</time>
      </trkpt>
      <trkpt lat="45.02547" lon="5.47683">
        <ele>1278.21</ele>
        <time>2016-04-29T17:30:49Z</time>
      </trkpt>
      <trkpt lat="45.02575" lon="5.47689">
        <ele>1278.21</ele>
        <time>2016-04-29T17:30:54Z</time>
      </trkpt>
      <trkpt lat="45.02605" lon="5.47699">
        <ele>1278.69</ele>
        <time>2016-04-29T17:31:03Z</time>
      </trkpt>
      <trkpt lat="45.02607" lon="5.47701">
        <ele>1278.69</ele>
        <time>2016-04-29T17:31:04Z</time>
      </trkpt>
      <trkpt lat="45.0261" lon="5.47702">
        <ele>1278.69</ele>
        <time>2016-04-29T17:31:05Z</time>
      </trkpt>
      <trkpt lat="45.02613" lon="5.47703">
        <ele>1278.69</ele>
        <time>2016-04-29T17:31:06Z</time>
      </trkpt>
      <trkpt lat="45.02616" lon="5.47703">
        <ele>1278.69</ele>
        <time>2016-04-29T17:31:07Z</time>
      </trkpt>
      <trkpt lat="45.02618" lon="5.47704">
        <ele>1279.17</ele>
        <time>2016-04-29T17:31:08Z</time>
      </trkpt>
      <trkpt lat="45.02621" lon="5.47705">
        <ele>1279.17</ele>
        <time>2016-04-29T17:31:09Z</time>
      </trkpt>
      <trkpt lat="45.02624" lon="5.47706">
        <ele>1279.65</ele>
        <time>2016-04-29T17:31:10Z</time>
      </trkpt>
      <trkpt lat="45.02645" lon="5.47712">
        <ele>1281.09</ele>
        <time>2016-04-29T17:31:22Z</time>
      </trkpt>
      <trkpt lat="45.0265" lon="5.47713">
        <ele>1281.09</ele>
        <time>2016-04-29T17:31:25Z</time>
      </trkpt>
      <trkpt lat="45.02652" lon="5.47712">
        <ele>1281.57</ele>
        <time>2016-04-29T17:31:26Z</time>
      </trkpt>
      <trkpt lat="45.02654" lon="5.47712">
        <ele>1281.57</ele>
        <time>2016-04-29T17:31:27Z</time>
      </trkpt>
      <trkpt lat="45.02668" lon="5.47715">
        <ele>1282.06</ele>
        <time>2016-04-29T17:31:35Z</time>
      </trkpt>
      <trkpt lat="45.02669" lon="5.47716">
        <ele>1282.06</ele>
        <time>2016-04-29T17:31:36Z</time>
      </trkpt>
      <trkpt lat="45.02671" lon="5.47717">
        <ele>1282.06</ele>
        <time>2016-04-29T17:31:37Z</time>
      </trkpt>
      <trkpt lat="45.02673" lon="5.47718">
        <ele>1282.06</ele>
        <time>2016-04-29T17:31:38Z</time>
      </trkpt>
      <trkpt lat="45.02675" lon="5.47718">
        <ele>1282.06</ele>
        <time>2016-04-29T17:31:39Z</time>
      </trkpt>
      <trkpt lat="45.02677" lon="5.47719">
        <ele>1282.54</ele>
        <time>2016-04-29T17:31:40Z</time>
      </trkpt>
      <trkpt lat="45.02706" lon="5.47721">
        <ele>1283.5</ele>
        <time>2016-04-29T17:31:55Z</time>
      </trkpt>
      <trkpt lat="45.02743" lon="5.47719">
        <ele>1284.46</ele>
        <time>2016-04-29T17:32:13Z</time>
      </trkpt>
      <trkpt lat="45.02777" lon="5.47707">
        <ele>1285.9</ele>
        <time>2016-04-29T17:32:32Z</time>
      </trkpt>
      <trkpt lat="45.02802" lon="5.477">
        <ele>1287.82</ele>
        <time>2016-04-29T17:32:48Z</time>
      </trkpt>
      <trkpt lat="45.02817" lon="5.47697">
        <ele>1288.78</ele>
        <time>2016-04-29T17:32:58Z</time>
      </trkpt>
      <trkpt lat="45.02819" lon="5.47697">
        <ele>1289.27</ele>
        <time>2016-04-29T17:32:59Z</time>
      </trkpt>
      <trkpt lat="45.0282" lon="5.47696">
        <ele>1289.27</ele>
        <time>2016-04-29T17:33:00Z</time>
      </trkpt>
      <trkpt lat="45.02821" lon="5.47696">
        <ele>1289.27</ele>
        <time>2016-04-29T17:33:01Z</time>
      </trkpt>
      <trkpt lat="45.02823" lon="5.47696">
        <ele>1289.27</ele>
        <time>2016-04-29T17:33:02Z</time>
      </trkpt>
      <trkpt lat="45.02824" lon="5.47696">
        <ele>1289.75</ele>
        <time>2016-04-29T17:33:03Z</time>
      </trkpt>
      <trkpt lat="45.02826" lon="5.47695">
        <ele>1289.27</ele>
        <time>2016-04-29T17:33:04Z</time>
      </trkpt>
      <trkpt lat="45.02844" lon="5.47699">
        <ele>1290.71</ele>
        <time>2016-04-29T17:33:16Z</time>
      </trkpt>
      <trkpt lat="45.02846" lon="5.477">
        <ele>1290.71</ele>
        <time>2016-04-29T17:33:17Z</time>
      </trkpt>
      <trkpt lat="45.02875" lon="5.47707">
        <ele>1292.15</ele>
        <time>2016-04-29T17:33:34Z</time>
      </trkpt>
      <trkpt lat="45.02905" lon="5.47714">
        <ele>1292.63</ele>
        <time>2016-04-29T17:33:50Z</time>
      </trkpt>
      <trkpt lat="45.02938" lon="5.4772">
        <ele>1293.11</ele>
        <time>2016-04-29T17:34:06Z</time>
      </trkpt>
      <trkpt lat="45.02967" lon="5.47722">
        <ele>1293.11</ele>
        <time>2016-04-29T17:34:21Z</time>
      </trkpt>
      <trkpt lat="45.02998" lon="5.47726">
        <ele>1293.59</ele>
        <time>2016-04-29T17:34:35Z</time>
      </trkpt>
      <trkpt lat="45.03033" lon="5.47737">
        <ele>1294.07</ele>
        <time>2016-04-29T17:34:54Z</time>
      </trkpt>
      <trkpt lat="45.03061" lon="5.47744">
        <ele>1294.07</ele>
        <time>2016-04-29T17:35:09Z</time>
      </trkpt>
      <trkpt lat="45.03063" lon="5.47744">
        <ele>1294.55</ele>
        <time>2016-04-29T17:35:10Z</time>
      </trkpt>
      <trkpt lat="45.03064" lon="5.47745">
        <ele>1294.55</ele>
        <time>2016-04-29T17:35:11Z</time>
      </trkpt>
      <trkpt lat="45.03065" lon="5.47745">
        <ele>1294.55</ele>
        <time>2016-04-29T17:35:12Z</time>
      </trkpt>
      <trkpt lat="45.03067" lon="5.47745">
        <ele>1294.55</ele>
        <time>2016-04-29T17:35:13Z</time>
      </trkpt>
      <trkpt lat="45.03069" lon="5.47746">
        <ele>1294.55</ele>
        <time>2016-04-29T17:35:14Z</time>
      </trkpt>
      <trkpt lat="45.03071" lon="5.47746">
        <ele>1294.55</ele>
        <time>2016-04-29T17:35:15Z</time>
      </trkpt>
      <trkpt lat="45.03073" lon="5.47747">
        <ele>1294.55</ele>
        <time>2016-04-29T17:35:16Z</time>
      </trkpt>
      <trkpt lat="45.03103" lon="5.47764">
        <ele>1293.59</ele>
        <time>2016-04-29T17:35:31Z</time>
      </trkpt>
      <trkpt lat="45.03123" lon="5.47775">
        <ele>1293.59</ele>
        <time>2016-04-29T17:35:42Z</time>
      </trkpt>
      <trkpt lat="45.03165" lon="5.47782">
        <ele>1292.63</ele>
        <time>2016-04-29T17:35:57Z</time>
      </trkpt>
      <trkpt lat="45.03216" lon="5.47783">
        <ele>1292.63</ele>
        <time>2016-04-29T17:36:15Z</time>
      </trkpt>
      <trkpt lat="45.03244" lon="5.47786">
        <ele>1293.11</ele>
        <time>2016-04-29T17:36:28Z</time>
      </trkpt>
      <trkpt lat="45.03273" lon="5.47802">
        <ele>1294.55</ele>
        <time>2016-04-29T17:36:45Z</time>
      </trkpt>
      <trkpt lat="45.03295" lon="5.47831">
        <ele>1295.51</ele>
        <time>2016-04-29T17:37:03Z</time>
      </trkpt>
      <trkpt lat="45.03317" lon="5.47861">
        <ele>1296.96</ele>
        <time>2016-04-29T17:37:20Z</time>
      </trkpt>
      <trkpt lat="45.03333" lon="5.47884">
        <ele>1298.4</ele>
        <time>2016-04-29T17:37:34Z</time>
      </trkpt>
      <trkpt lat="45.0335" lon="5.47907">
        <ele>1299.84</ele>
        <time>2016-04-29T17:37:50Z</time>
      </trkpt>
      <trkpt lat="45.03362" lon="5.47927">
        <ele>1300.8</ele>
        <time>2016-04-29T17:38:05Z</time>
      </trkpt>
      <trkpt lat="45.03375" lon="5.47945">
        <ele>1302.72</ele>
        <time>2016-04-29T17:38:21Z</time>
      </trkpt>
      <trkpt lat="45.0338" lon="5.47952">
        <ele>1303.69</ele>
        <time>2016-04-29T17:38:27Z</time>
      </trkpt>
      <trkpt lat="45.03381" lon="5.47953">
        <ele>1303.69</ele>
        <time>2016-04-29T17:38:28Z</time>
      </trkpt>
      <trkpt lat="45.03382" lon="5.47954">
        <ele>1303.69</ele>
        <time>2016-04-29T17:38:29Z</time>
      </trkpt>
      <trkpt lat="45.03382" lon="5.47955">
        <ele>1303.69</ele>
        <time>2016-04-29T17:38:30Z</time>
      </trkpt>
      <trkpt lat="45.03384" lon="5.47955">
        <ele>1304.17</ele>
        <time>2016-04-29T17:38:31Z</time>
      </trkpt>
      <trkpt lat="45.03385" lon="5.47957">
        <ele>1304.17</ele>
        <time>2016-04-29T17:38:33Z</time>
      </trkpt>
      <trkpt lat="45.03386" lon="5.47958">
        <ele>1304.17</ele>
        <time>2016-04-29T17:38:34Z</time>
      </trkpt>
      <trkpt lat="45.03393" lon="5.47965">
        <ele>1305.13</ele>
        <time>2016-04-29T17:38:42Z</time>
      </trkpt>
      <trkpt lat="45.03394" lon="5.47965">
        <ele>1305.13</ele>
        <time>2016-04-29T17:38:43Z</time>
      </trkpt>
      <trkpt lat="45.03403" lon="5.4797">
        <ele>1306.57</ele>
        <time>2016-04-29T17:38:52Z</time>
      </trkpt>
      <trkpt lat="45.03405" lon="5.47972">
        <ele>1307.05</ele>
        <time>2016-04-29T17:38:55Z</time>
      </trkpt>
      <trkpt lat="45.0341" lon="5.47976">
        <ele>1307.53</ele>
        <time>2016-04-29T17:39:00Z</time>
      </trkpt>
      <trkpt lat="45.03417" lon="5.47976">
        <ele>1308.49</ele>
        <time>2016-04-29T17:39:06Z</time>
      </trkpt>
      <trkpt lat="45.03425" lon="5.47977">
        <ele>1309.45</ele>
        <time>2016-04-29T17:39:14Z</time>
      </trkpt>
      <trkpt lat="45.03427" lon="5.47976">
        <ele>1309.93</ele>
        <time>2016-04-29T17:39:16Z</time>
      </trkpt>
      <trkpt lat="45.03441" lon="5.47976">
        <ele>1310.9</ele>
        <time>2016-04-29T17:39:27Z</time>
      </trkpt>
      <trkpt lat="45.03456" lon="5.47978">
        <ele>1311.86</ele>
        <time>2016-04-29T17:39:38Z</time>
      </trkpt>
      <trkpt lat="45.03461" lon="5.47978">
        <ele>1312.34</ele>
        <time>2016-04-29T17:39:42Z</time>
      </trkpt>
      <trkpt lat="45.03474" lon="5.47979">
        <ele>1313.3</ele>
        <time>2016-04-29T17:39:52Z</time>
      </trkpt>
      <trkpt lat="45.03499" lon="5.47975">
        <ele>1314.26</ele>
        <time>2016-04-29T17:40:06Z</time>
      </trkpt>
      <trkpt lat="45.03519" lon="5.47973">
        <ele>1315.7</ele>
        <time>2016-04-29T17:40:19Z</time>
      </trkpt>
      <trkpt lat="45.03533" lon="5.4797">
        <ele>1316.66</ele>
        <time>2016-04-29T17:40:29Z</time>
      </trkpt>
      <trkpt lat="45.03535" lon="5.4797">
        <ele>1316.66</ele>
        <time>2016-04-29T17:40:30Z</time>
      </trkpt>
      <trkpt lat="45.03541" lon="5.4797">
        <ele>1317.14</ele>
        <time>2016-04-29T17:40:34Z</time>
      </trkpt>
      <trkpt lat="45.03544" lon="5.47969">
        <ele>1317.14</ele>
        <time>2016-04-29T17:40:36Z</time>
      </trkpt>
      <trkpt lat="45.03546" lon="5.47969">
        <ele>1317.14</ele>
        <time>2016-04-29T17:40:37Z</time>
      </trkpt>
      <trkpt lat="45.03547" lon="5.47969">
        <ele>1317.62</ele>
        <time>2016-04-29T17:40:38Z</time>
      </trkpt>
      <trkpt lat="45.0355" lon="5.47969">
        <ele>1317.62</ele>
        <time>2016-04-29T17:40:41Z</time>
      </trkpt>
      <trkpt lat="45.03551" lon="5.47968">
        <ele>1317.62</ele>
        <time>2016-04-29T17:40:42Z</time>
      </trkpt>
      <trkpt lat="45.03553" lon="5.47967">
        <ele>1317.62</ele>
        <time>2016-04-29T17:40:43Z</time>
      </trkpt>
      <trkpt lat="45.03554" lon="5.47967">
        <ele>1317.62</ele>
        <time>2016-04-29T17:40:44Z</time>
      </trkpt>
      <trkpt lat="45.03577" lon="5.47965">
        <ele>1319.07</ele>
        <time>2016-04-29T17:40:58Z</time>
      </trkpt>
      <trkpt lat="45.03594" lon="5.47964">
        <ele>1320.03</ele>
        <time>2016-04-29T17:41:10Z</time>
      </trkpt>
      <trkpt lat="45.03621" lon="5.47962">
        <ele>1321.95</ele>
        <time>2016-04-29T17:41:27Z</time>
      </trkpt>
      <trkpt lat="45.03626" lon="5.47961">
        <ele>1322.43</ele>
        <time>2016-04-29T17:41:30Z</time>
      </trkpt>
      <trkpt lat="45.03627" lon="5.47961">
        <ele>1322.91</ele>
        <time>2016-04-29T17:41:31Z</time>
      </trkpt>
      <trkpt lat="45.03628" lon="5.47961">
        <ele>1322.91</ele>
        <time>2016-04-29T17:41:32Z</time>
      </trkpt>
      <trkpt lat="45.0363" lon="5.47959">
        <ele>1322.91</ele>
        <time>2016-04-29T17:41:33Z</time>
      </trkpt>
      <trkpt lat="45.03631" lon="5.47959">
        <ele>1322.91</ele>
        <time>2016-04-29T17:41:34Z</time>
      </trkpt>
      <trkpt lat="45.03633" lon="5.47959">
        <ele>1323.39</ele>
        <time>2016-04-29T17:41:35Z</time>
      </trkpt>
      <trkpt lat="45.03635" lon="5.47958">
        <ele>1323.39</ele>
        <time>2016-04-29T17:41:36Z</time>
      </trkpt>
      <trkpt lat="45.03636" lon="5.47957">
        <ele>1323.39</ele>
        <time>2016-04-29T17:41:37Z</time>
      </trkpt>
      <trkpt lat="45.03638" lon="5.47957">
        <ele>1323.87</ele>
        <time>2016-04-29T17:41:38Z</time>
      </trkpt>
      <trkpt lat="45.0364" lon="5.47957">
        <ele>1323.87</ele>
        <time>2016-04-29T17:41:39Z</time>
      </trkpt>
      <trkpt lat="45.03641" lon="5.47956">
        <ele>1323.87</ele>
        <time>2016-04-29T17:41:40Z</time>
      </trkpt>
      <trkpt lat="45.03643" lon="5.47955">
        <ele>1323.87</ele>
        <time>2016-04-29T17:41:41Z</time>
      </trkpt>
      <trkpt lat="45.03645" lon="5.47954">
        <ele>1323.87</ele>
        <time>2016-04-29T17:41:42Z</time>
      </trkpt>
      <trkpt lat="45.03646" lon="5.47953">
        <ele>1324.35</ele>
        <time>2016-04-29T17:41:43Z</time>
      </trkpt>
      <trkpt lat="45.03648" lon="5.47952">
        <ele>1324.35</ele>
        <time>2016-04-29T17:41:44Z</time>
      </trkpt>
      <trkpt lat="45.03649" lon="5.47951">
        <ele>1324.35</ele>
        <time>2016-04-29T17:41:45Z</time>
      </trkpt>
      <trkpt lat="45.03651" lon="5.4795">
        <ele>1324.35</ele>
        <time>2016-04-29T17:41:46Z</time>
      </trkpt>
      <trkpt lat="45.03652" lon="5.47948">
        <ele>1324.35</ele>
        <time>2016-04-29T17:41:47Z</time>
      </trkpt>
      <trkpt lat="45.03653" lon="5.47947">
        <ele>1324.83</ele>
        <time>2016-04-29T17:41:48Z</time>
      </trkpt>
      <trkpt lat="45.03655" lon="5.47946">
        <ele>1324.83</ele>
        <time>2016-04-29T17:41:49Z</time>
      </trkpt>
      <trkpt lat="45.03656" lon="5.47944">
        <ele>1324.83</ele>
        <time>2016-04-29T17:41:50Z</time>
      </trkpt>
      <trkpt lat="45.03673" lon="5.47924">
        <ele>1325.31</ele>
        <time>2016-04-29T17:42:01Z</time>
      </trkpt>
      <trkpt lat="45.03703" lon="5.47892">
        <ele>1325.8</ele>
        <time>2016-04-29T17:42:16Z</time>
      </trkpt>
      <trkpt lat="45.03735" lon="5.47856">
        <ele>1326.76</ele>
        <time>2016-04-29T17:42:30Z</time>
      </trkpt>
      <trkpt lat="45.03757" lon="5.47828">
        <ele>1328.2</ele>
        <time>2016-04-29T17:42:42Z</time>
      </trkpt>
      <trkpt lat="45.0376" lon="5.47825">
        <ele>1328.2</ele>
        <time>2016-04-29T17:42:44Z</time>
      </trkpt>
      <trkpt lat="45.03761" lon="5.47823">
        <ele>1328.2</ele>
        <time>2016-04-29T17:42:45Z</time>
      </trkpt>
      <trkpt lat="45.03762" lon="5.47821">
        <ele>1328.68</ele>
        <time>2016-04-29T17:42:46Z</time>
      </trkpt>
      <trkpt lat="45.03764" lon="5.47819">
        <ele>1328.2</ele>
        <time>2016-04-29T17:42:47Z</time>
      </trkpt>
      <trkpt lat="45.03767" lon="5.47817">
        <ele>1328.68</ele>
        <time>2016-04-29T17:42:48Z</time>
      </trkpt>
      <trkpt lat="45.03769" lon="5.47814">
        <ele>1328.68</ele>
        <time>2016-04-29T17:42:49Z</time>
      </trkpt>
      <trkpt lat="45.03793" lon="5.47802">
        <ele>1330.12</ele>
        <time>2016-04-29T17:43:00Z</time>
      </trkpt>
      <trkpt lat="45.03823" lon="5.47792">
        <ele>1331.08</ele>
        <time>2016-04-29T17:43:13Z</time>
      </trkpt>
      <trkpt lat="45.03852" lon="5.47781">
        <ele>1333.01</ele>
        <time>2016-04-29T17:43:29Z</time>
      </trkpt>
      <trkpt lat="45.03873" lon="5.47772">
        <ele>1334.45</ele>
        <time>2016-04-29T17:43:42Z</time>
      </trkpt>
      <trkpt lat="45.03874" lon="5.47772">
        <ele>1334.45</ele>
        <time>2016-04-29T17:43:43Z</time>
      </trkpt>
      <trkpt lat="45.03876" lon="5.47771">
        <ele>1334.93</ele>
        <time>2016-04-29T17:43:44Z</time>
      </trkpt>
      <trkpt lat="45.03881" lon="5.4777">
        <ele>1334.93</ele>
        <time>2016-04-29T17:43:47Z</time>
      </trkpt>
      <trkpt lat="45.03882" lon="5.47769">
        <ele>1334.93</ele>
        <time>2016-04-29T17:43:48Z</time>
      </trkpt>
      <trkpt lat="45.03909" lon="5.47764">
        <ele>1336.85</ele>
        <time>2016-04-29T17:44:02Z</time>
      </trkpt>
      <trkpt lat="45.03924" lon="5.47754">
        <ele>1338.29</ele>
        <time>2016-04-29T17:44:13Z</time>
      </trkpt>
      <trkpt lat="45.03929" lon="5.47753">
        <ele>1338.77</ele>
        <time>2016-04-29T17:44:16Z</time>
      </trkpt>
      <trkpt lat="45.03931" lon="5.47751">
        <ele>1338.77</ele>
        <time>2016-04-29T17:44:17Z</time>
      </trkpt>
      <trkpt lat="45.03932" lon="5.4775">
        <ele>1338.77</ele>
        <time>2016-04-29T17:44:18Z</time>
      </trkpt>
      <trkpt lat="45.03933" lon="5.47749">
        <ele>1339.25</ele>
        <time>2016-04-29T17:44:19Z</time>
      </trkpt>
      <trkpt lat="45.03934" lon="5.47748">
        <ele>1339.25</ele>
        <time>2016-04-29T17:44:20Z</time>
      </trkpt>
      <trkpt lat="45.03936" lon="5.47748">
        <ele>1339.25</ele>
        <time>2016-04-29T17:44:21Z</time>
      </trkpt>
      <trkpt lat="45.03937" lon="5.47747">
        <ele>1339.25</ele>
        <time>2016-04-29T17:44:22Z</time>
      </trkpt>
      <trkpt lat="45.03939" lon="5.47747">
        <ele>1339.73</ele>
        <time>2016-04-29T17:44:23Z</time>
      </trkpt>
      <trkpt lat="45.03941" lon="5.47747">
        <ele>1339.73</ele>
        <time>2016-04-29T17:44:24Z</time>
      </trkpt>
      <trkpt lat="45.03942" lon="5.47747">
        <ele>1339.73</ele>
        <time>2016-04-29T17:44:25Z</time>
      </trkpt>
      <trkpt lat="45.03944" lon="5.47748">
        <ele>1339.73</ele>
        <time>2016-04-29T17:44:26Z</time>
      </trkpt>
      <trkpt lat="45.03945" lon="5.47747">
        <ele>1340.22</ele>
        <time>2016-04-29T17:44:27Z</time>
      </trkpt>
      <trkpt lat="45.03947" lon="5.47746">
        <ele>1340.22</ele>
        <time>2016-04-29T17:44:28Z</time>
      </trkpt>
      <trkpt lat="45.03948" lon="5.47745">
        <ele>1340.22</ele>
        <time>2016-04-29T17:44:29Z</time>
      </trkpt>
      <trkpt lat="45.0395" lon="5.47744">
        <ele>1340.22</ele>
        <time>2016-04-29T17:44:30Z</time>
      </trkpt>
      <trkpt lat="45.03951" lon="5.47743">
        <ele>1340.7</ele>
        <time>2016-04-29T17:44:31Z</time>
      </trkpt>
      <trkpt lat="45.03953" lon="5.47742">
        <ele>1340.7</ele>
        <time>2016-04-29T17:44:32Z</time>
      </trkpt>
      <trkpt lat="45.03955" lon="5.47741">
        <ele>1340.7</ele>
        <time>2016-04-29T17:44:33Z</time>
      </trkpt>
      <trkpt lat="45.03973" lon="5.47733">
        <ele>1343.1</ele>
        <time>2016-04-29T17:44:47Z</time>
      </trkpt>
      <trkpt lat="45.03975" lon="5.47732">
        <ele>1343.1</ele>
        <time>2016-04-29T17:44:48Z</time>
      </trkpt>
      <trkpt lat="45.03977" lon="5.4773">
        <ele>1343.58</ele>
        <time>2016-04-29T17:44:50Z</time>
      </trkpt>
      <trkpt lat="45.03979" lon="5.47728">
        <ele>1344.06</ele>
        <time>2016-04-29T17:44:51Z</time>
      </trkpt>
      <trkpt lat="45.03981" lon="5.47728">
        <ele>1344.06</ele>
        <time>2016-04-29T17:44:52Z</time>
      </trkpt>
      <trkpt lat="45.03994" lon="5.47722">
        <ele>1345.5</ele>
        <time>2016-04-29T17:45:04Z</time>
      </trkpt>
      <trkpt lat="45.03996" lon="5.47723">
        <ele>1345.5</ele>
        <time>2016-04-29T17:45:05Z</time>
      </trkpt>
      <trkpt lat="45.03998" lon="5.47723">
        <ele>1345.98</ele>
        <time>2016-04-29T17:45:07Z</time>
      </trkpt>
      <trkpt lat="45.04" lon="5.47723">
        <ele>1345.98</ele>
        <time>2016-04-29T17:45:08Z</time>
      </trkpt>
      <trkpt lat="45.04009" lon="5.47717">
        <ele>1346.94</ele>
        <time>2016-04-29T17:45:15Z</time>
      </trkpt>
      <trkpt lat="45.04012" lon="5.47716">
        <ele>1347.43</ele>
        <time>2016-04-29T17:45:17Z</time>
      </trkpt>
      <trkpt lat="45.04013" lon="5.47716">
        <ele>1347.43</ele>
        <time>2016-04-29T17:45:18Z</time>
      </trkpt>
      <trkpt lat="45.04014" lon="5.47715">
        <ele>1347.91</ele>
        <time>2016-04-29T17:45:19Z</time>
      </trkpt>
      <trkpt lat="45.04015" lon="5.47714">
        <ele>1347.91</ele>
        <time>2016-04-29T17:45:20Z</time>
      </trkpt>
      <trkpt lat="45.04017" lon="5.47714">
        <ele>1347.91</ele>
        <time>2016-04-29T17:45:21Z</time>
      </trkpt>
      <trkpt lat="45.04018" lon="5.47713">
        <ele>1347.91</ele>
        <time>2016-04-29T17:45:22Z</time>
      </trkpt>
      <trkpt lat="45.04035" lon="5.47708">
        <ele>1349.83</ele>
        <time>2016-04-29T17:45:35Z</time>
      </trkpt>
      <trkpt lat="45.04036" lon="5.47706">
        <ele>1349.83</ele>
        <time>2016-04-29T17:45:36Z</time>
      </trkpt>
      <trkpt lat="45.04037" lon="5.47705">
        <ele>1349.83</ele>
        <time>2016-04-29T17:45:37Z</time>
      </trkpt>
      <trkpt lat="45.04038" lon="5.47704">
        <ele>1350.31</ele>
        <time>2016-04-29T17:45:38Z</time>
      </trkpt>
      <trkpt lat="45.04055" lon="5.47693">
        <ele>1351.75</ele>
        <time>2016-04-29T17:45:51Z</time>
      </trkpt>
      <trkpt lat="45.04065" lon="5.47686">
        <ele>1352.71</ele>
        <time>2016-04-29T17:45:59Z</time>
      </trkpt>
      <trkpt lat="45.04067" lon="5.47685">
        <ele>1352.71</ele>
        <time>2016-04-29T17:46:00Z</time>
      </trkpt>
      <trkpt lat="45.04068" lon="5.47684">
        <ele>1352.71</ele>
        <time>2016-04-29T17:46:01Z</time>
      </trkpt>
      <trkpt lat="45.0407" lon="5.47683">
        <ele>1352.71</ele>
        <time>2016-04-29T17:46:03Z</time>
      </trkpt>
      <trkpt lat="45.04071" lon="5.47681">
        <ele>1353.19</ele>
        <time>2016-04-29T17:46:04Z</time>
      </trkpt>
      <trkpt lat="45.04072" lon="5.4768">
        <ele>1353.19</ele>
        <time>2016-04-29T17:46:05Z</time>
      </trkpt>
      <trkpt lat="45.04073" lon="5.47679">
        <ele>1353.19</ele>
        <time>2016-04-29T17:46:06Z</time>
      </trkpt>
      <trkpt lat="45.04075" lon="5.47679">
        <ele>1353.19</ele>
        <time>2016-04-29T17:46:07Z</time>
      </trkpt>
      <trkpt lat="45.04091" lon="5.47677">
        <ele>1355.12</ele>
        <time>2016-04-29T17:46:20Z</time>
      </trkpt>
      <trkpt lat="45.04096" lon="5.4768">
        <ele>1355.6</ele>
        <time>2016-04-29T17:46:25Z</time>
      </trkpt>
      <trkpt lat="45.04099" lon="5.47682">
        <ele>1356.08</ele>
        <time>2016-04-29T17:46:29Z</time>
      </trkpt>
      <trkpt lat="45.04115" lon="5.47675">
        <ele>1357.04</ele>
        <time>2016-04-29T17:46:39Z</time>
      </trkpt>
      <trkpt lat="45.04116" lon="5.47675">
        <ele>1357.04</ele>
        <time>2016-04-29T17:46:40Z</time>
      </trkpt>
      <trkpt lat="45.04117" lon="5.47674">
        <ele>1357.52</ele>
        <time>2016-04-29T17:46:41Z</time>
      </trkpt>
      <trkpt lat="45.04118" lon="5.47673">
        <ele>1357.52</ele>
        <time>2016-04-29T17:46:42Z</time>
      </trkpt>
      <trkpt lat="45.0412" lon="5.47673">
        <ele>1357.52</ele>
        <time>2016-04-29T17:46:43Z</time>
      </trkpt>
      <trkpt lat="45.04137" lon="5.47666">
        <ele>1358.96</ele>
        <time>2016-04-29T17:46:55Z</time>
      </trkpt>
      <trkpt lat="45.04149" lon="5.47664">
        <ele>1359.92</ele>
        <time>2016-04-29T17:47:02Z</time>
      </trkpt>
      <trkpt lat="45.04151" lon="5.47664">
        <ele>1359.92</ele>
        <time>2016-04-29T17:47:03Z</time>
      </trkpt>
      <trkpt lat="45.04153" lon="5.47663">
        <ele>1359.92</ele>
        <time>2016-04-29T17:47:04Z</time>
      </trkpt>
      <trkpt lat="45.04155" lon="5.47663">
        <ele>1359.92</ele>
        <time>2016-04-29T17:47:05Z</time>
      </trkpt>
      <trkpt lat="45.04157" lon="5.47662">
        <ele>1360.4</ele>
        <time>2016-04-29T17:47:06Z</time>
      </trkpt>
      <trkpt lat="45.04158" lon="5.47662">
        <ele>1360.4</ele>
        <time>2016-04-29T17:47:07Z</time>
      </trkpt>
      <trkpt lat="45.0416" lon="5.47662">
        <ele>1360.4</ele>
        <time>2016-04-29T17:47:08Z</time>
      </trkpt>
      <trkpt lat="45.04178" lon="5.47662">
        <ele>1361.84</ele>
        <time>2016-04-29T17:47:20Z</time>
      </trkpt>
      <trkpt lat="45.04181" lon="5.47661">
        <ele>1362.33</ele>
        <time>2016-04-29T17:47:22Z</time>
      </trkpt>
      <trkpt lat="45.04183" lon="5.4766">
        <ele>1362.33</ele>
        <time>2016-04-29T17:47:23Z</time>
      </trkpt>
      <trkpt lat="45.04202" lon="5.47658">
        <ele>1361.84</ele>
        <time>2016-04-29T17:47:34Z</time>
      </trkpt>
      <trkpt lat="45.04215" lon="5.47655">
        <ele>1361.36</ele>
        <time>2016-04-29T17:47:39Z</time>
      </trkpt>
      <trkpt lat="45.04223" lon="5.47654">
        <ele>1361.36</ele>
        <time>2016-04-29T17:47:42Z</time>
      </trkpt>
      <trkpt lat="45.04224" lon="5.47652">
        <ele>1361.84</ele>
        <time>2016-04-29T17:47:43Z</time>
      </trkpt>
      <trkpt lat="45.04225" lon="5.47652">
        <ele>1361.84</ele>
        <time>2016-04-29T17:47:44Z</time>
      </trkpt>
      <trkpt lat="45.04226" lon="5.47651">
        <ele>1361.84</ele>
        <time>2016-04-29T17:47:45Z</time>
      </trkpt>
      <trkpt lat="45.0423" lon="5.47649">
        <ele>1362.33</ele>
        <time>2016-04-29T17:47:48Z</time>
      </trkpt>
      <trkpt lat="45.04236" lon="5.47646">
        <ele>1362.81</ele>
        <time>2016-04-29T17:48:01Z</time>
      </trkpt>
      <trkpt lat="45.04236" lon="5.47645">
        <ele>1362.81</ele>
        <time>2016-04-29T17:48:23Z</time>
      </trkpt>
      <trkpt lat="45.04236" lon="5.47646">
        <ele>1362.33</ele>
        <time>2016-04-29T17:48:51Z</time>
      </trkpt>
      <trkpt lat="45.04238" lon="5.47648">
        <ele>1362.33</ele>
        <time>2016-04-29T17:49:06Z</time>
      </trkpt>
      <trkpt lat="45.04243" lon="5.47647">
        <ele>1362.81</ele>
        <time>2016-04-29T17:49:34Z</time>
      </trkpt>
      <trkpt lat="45.04242" lon="5.47645">
        <ele>1361.84</ele>
        <time>2016-04-29T17:49:55Z</time>
      </trkpt>
      <trkpt lat="45.04239" lon="5.4764">
        <ele>1361.84</ele>
        <time>2016-04-29T17:50:31Z</time>
      </trkpt>
      <trkpt lat="45.04239" lon="5.47642">
        <ele>1362.33</ele>
        <time>2016-04-29T17:51:05Z</time>
      </trkpt>
      <trkpt lat="45.04238" lon="5.47641">
        <ele>1362.33</ele>
        <time>2016-04-29T17:51:35Z</time>
      </trkpt>
      <trkpt lat="45.04238" lon="5.47641">
        <ele>1362.81</ele>
        <time>2016-04-29T17:52:08Z</time>
      </trkpt>
      <trkpt lat="45.04238" lon="5.47639">
        <ele>1362.81</ele>
        <time>2016-04-29T17:52:41Z</time>
      </trkpt>
      <trkpt lat="45.04238" lon="5.47641">
        <ele>1363.29</ele>
        <time>2016-04-29T17:53:12Z</time>
      </trkpt>
      <trkpt lat="45.04239" lon="5.4764">
        <ele>1363.77</ele>
        <time>2016-04-29T17:53:33Z</time>
      </trkpt>
      <trkpt lat="45.0424" lon="5.47641">
        <ele>1363.77</ele>
        <time>2016-04-29T17:53:52Z</time>
      </trkpt>
      <trkpt lat="45.0424" lon="5.47642">
        <ele>1363.77</ele>
        <time>2016-04-29T17:53:59Z</time>
      </trkpt>
      <trkpt lat="45.04242" lon="5.47642">
        <ele>1363.77</ele>
        <time>2016-04-29T17:54:00Z</time>
      </trkpt>
      <trkpt lat="45.04253" lon="5.47645">
        <ele>1363.77</ele>
        <time>2016-04-29T17:54:07Z</time>
      </trkpt>
      <trkpt lat="45.04259" lon="5.47645">
        <ele>1364.25</ele>
        <time>2016-04-29T17:54:12Z</time>
      </trkpt>
      <trkpt lat="45.04261" lon="5.47644">
        <ele>1364.25</ele>
        <time>2016-04-29T17:54:13Z</time>
      </trkpt>
      <trkpt lat="45.04265" lon="5.47642">
        <ele>1364.25</ele>
        <time>2016-04-29T17:54:17Z</time>
      </trkpt>
      <trkpt lat="45.04266" lon="5.47643">
        <ele>1364.25</ele>
        <time>2016-04-29T17:54:18Z</time>
      </trkpt>
      <trkpt lat="45.04269" lon="5.47643">
        <ele>1364.73</ele>
        <time>2016-04-29T17:54:20Z</time>
      </trkpt>
      <trkpt lat="45.0428" lon="5.47643">
        <ele>1364.25</ele>
        <time>2016-04-29T17:54:28Z</time>
      </trkpt>
      <trkpt lat="45.04281" lon="5.47644">
        <ele>1364.25</ele>
        <time>2016-04-29T17:54:29Z</time>
      </trkpt>
      <trkpt lat="45.04284" lon="5.47645">
        <ele>1364.25</ele>
        <time>2016-04-29T17:54:30Z</time>
      </trkpt>
      <trkpt lat="45.04287" lon="5.47645">
        <ele>1363.77</ele>
        <time>2016-04-29T17:54:31Z</time>
      </trkpt>
      <trkpt lat="45.0429" lon="5.47646">
        <ele>1363.77</ele>
        <time>2016-04-29T17:54:32Z</time>
      </trkpt>
      <trkpt lat="45.04294" lon="5.47648">
        <ele>1363.29</ele>
        <time>2016-04-29T17:54:33Z</time>
      </trkpt>
      <trkpt lat="45.04299" lon="5.4765">
        <ele>1362.81</ele>
        <time>2016-04-29T17:54:34Z</time>
      </trkpt>
      <trkpt lat="45.0432" lon="5.47652">
        <ele>1363.29</ele>
        <time>2016-04-29T17:54:43Z</time>
      </trkpt>
      <trkpt lat="45.04322" lon="5.47652">
        <ele>1363.29</ele>
        <time>2016-04-29T17:54:44Z</time>
      </trkpt>
      <trkpt lat="45.04325" lon="5.47652">
        <ele>1363.77</ele>
        <time>2016-04-29T17:54:45Z</time>
      </trkpt>
      <trkpt lat="45.04327" lon="5.47653">
        <ele>1363.29</ele>
        <time>2016-04-29T17:54:46Z</time>
      </trkpt>
      <trkpt lat="45.0433" lon="5.47653">
        <ele>1363.29</ele>
        <time>2016-04-29T17:54:47Z</time>
      </trkpt>
      <trkpt lat="45.04333" lon="5.47653">
        <ele>1363.77</ele>
        <time>2016-04-29T17:54:48Z</time>
      </trkpt>
      <trkpt lat="45.04335" lon="5.47652">
        <ele>1364.25</ele>
        <time>2016-04-29T17:54:49Z</time>
      </trkpt>
      <trkpt lat="45.04337" lon="5.47652">
        <ele>1364.25</ele>
        <time>2016-04-29T17:54:50Z</time>
      </trkpt>
      <trkpt lat="45.04339" lon="5.47652">
        <ele>1364.25</ele>
        <time>2016-04-29T17:54:51Z</time>
      </trkpt>
      <trkpt lat="45.04341" lon="5.47652">
        <ele>1364.25</ele>
        <time>2016-04-29T17:54:52Z</time>
      </trkpt>
      <trkpt lat="45.04343" lon="5.47651">
        <ele>1364.73</ele>
        <time>2016-04-29T17:54:53Z</time>
      </trkpt>
      <trkpt lat="45.04345" lon="5.47651">
        <ele>1364.73</ele>
        <time>2016-04-29T17:54:54Z</time>
      </trkpt>
      <trkpt lat="45.04346" lon="5.47651">
        <ele>1364.73</ele>
        <time>2016-04-29T17:54:55Z</time>
      </trkpt>
      <trkpt lat="45.04367" lon="5.47649">
        <ele>1366.17</ele>
        <time>2016-04-29T17:55:05Z</time>
      </trkpt>
      <trkpt lat="45.04368" lon="5.47649">
        <ele>1366.17</ele>
        <time>2016-04-29T17:55:06Z</time>
      </trkpt>
      <trkpt lat="45.0437" lon="5.47649">
        <ele>1366.17</ele>
        <time>2016-04-29T17:55:07Z</time>
      </trkpt>
      <trkpt lat="45.044" lon="5.47644">
        <ele>1367.13</ele>
        <time>2016-04-29T17:55:21Z</time>
      </trkpt>
      <trkpt lat="45.0442" lon="5.47639">
        <ele>1367.61</ele>
        <time>2016-04-29T17:55:32Z</time>
      </trkpt>
      <trkpt lat="45.04444" lon="5.47645">
        <ele>1367.13</ele>
        <time>2016-04-29T17:55:41Z</time>
      </trkpt>
      <trkpt lat="45.04477" lon="5.47647">
        <ele>1367.13</ele>
        <time>2016-04-29T17:55:51Z</time>
      </trkpt>
      <trkpt lat="45.04496" lon="5.47657">
        <ele>1367.61</ele>
        <time>2016-04-29T17:55:58Z</time>
      </trkpt>
      <trkpt lat="45.04523" lon="5.47659">
        <ele>1368.57</ele>
        <time>2016-04-29T17:56:09Z</time>
      </trkpt>
      <trkpt lat="45.0455" lon="5.4766">
        <ele>1368.09</ele>
        <time>2016-04-29T17:56:22Z</time>
      </trkpt>
      <trkpt lat="45.04579" lon="5.47677">
        <ele>1366.17</ele>
        <time>2016-04-29T17:56:30Z</time>
      </trkpt>
      <trkpt lat="45.04598" lon="5.47685">
        <ele>1365.21</ele>
        <time>2016-04-29T17:56:34Z</time>
      </trkpt>
      <trkpt lat="45.04604" lon="5.47686">
        <ele>1364.73</ele>
        <time>2016-04-29T17:56:35Z</time>
      </trkpt>
      <trkpt lat="45.0461" lon="5.47688">
        <ele>1364.73</ele>
        <time>2016-04-29T17:56:36Z</time>
      </trkpt>
      <trkpt lat="45.04628" lon="5.47692">
        <ele>1363.29</ele>
        <time>2016-04-29T17:56:40Z</time>
      </trkpt>
      <trkpt lat="45.04662" lon="5.47699">
        <ele>1360.4</ele>
        <time>2016-04-29T17:56:50Z</time>
      </trkpt>
      <trkpt lat="45.0468" lon="5.47699">
        <ele>1358.48</ele>
        <time>2016-04-29T17:56:54Z</time>
      </trkpt>
      <trkpt lat="45.04702" lon="5.47697">
        <ele>1355.12</ele>
        <time>2016-04-29T17:56:58Z</time>
      </trkpt>
      <trkpt lat="45.04722" lon="5.47695">
        <ele>1353.67</ele>
        <time>2016-04-29T17:57:00Z</time>
      </trkpt>
      <trkpt lat="45.04777" lon="5.47684">
        <ele>1350.31</ele>
        <time>2016-04-29T17:57:05Z</time>
      </trkpt>
      <trkpt lat="45.04787" lon="5.47681">
        <ele>1349.35</ele>
        <time>2016-04-29T17:57:06Z</time>
      </trkpt>
      <trkpt lat="45.04796" lon="5.47679">
        <ele>1348.87</ele>
        <time>2016-04-29T17:57:07Z</time>
      </trkpt>
      <trkpt lat="45.04828" lon="5.4767">
        <ele>1346.94</ele>
        <time>2016-04-29T17:57:11Z</time>
      </trkpt>
      <trkpt lat="45.04865" lon="5.47664">
        <ele>1343.58</ele>
        <time>2016-04-29T17:57:15Z</time>
      </trkpt>
      <trkpt lat="45.049" lon="5.4766">
        <ele>1340.7</ele>
        <time>2016-04-29T17:57:19Z</time>
      </trkpt>
      <trkpt lat="45.04907" lon="5.4766">
        <ele>1340.22</ele>
        <time>2016-04-29T17:57:20Z</time>
      </trkpt>
      <trkpt lat="45.04914" lon="5.4766">
        <ele>1339.73</ele>
        <time>2016-04-29T17:57:21Z</time>
      </trkpt>
      <trkpt lat="45.04927" lon="5.47661">
        <ele>1337.81</ele>
        <time>2016-04-29T17:57:23Z</time>
      </trkpt>
      <trkpt lat="45.04946" lon="5.4766">
        <ele>1335.89</ele>
        <time>2016-04-29T17:57:26Z</time>
      </trkpt>
      <trkpt lat="45.04952" lon="5.47657">
        <ele>1335.89</ele>
        <time>2016-04-29T17:57:27Z</time>
      </trkpt>
      <trkpt lat="45.04956" lon="5.47654">
        <ele>1334.93</ele>
        <time>2016-04-29T17:57:28Z</time>
      </trkpt>
      <trkpt lat="45.04961" lon="5.47652">
        <ele>1334.45</ele>
        <time>2016-04-29T17:57:29Z</time>
      </trkpt>
      <trkpt lat="45.04965" lon="5.4765">
        <ele>1333.97</ele>
        <time>2016-04-29T17:57:30Z</time>
      </trkpt>
      <trkpt lat="45.04969" lon="5.47647">
        <ele>1333.49</ele>
        <time>2016-04-29T17:57:31Z</time>
      </trkpt>
      <trkpt lat="45.04973" lon="5.47645">
        <ele>1333.01</ele>
        <time>2016-04-29T17:57:32Z</time>
      </trkpt>
      <trkpt lat="45.04977" lon="5.47643">
        <ele>1332.04</ele>
        <time>2016-04-29T17:57:33Z</time>
      </trkpt>
      <trkpt lat="45.04982" lon="5.47641">
        <ele>1331.56</ele>
        <time>2016-04-29T17:57:34Z</time>
      </trkpt>
      <trkpt lat="45.04992" lon="5.47636">
        <ele>1330.6</ele>
        <time>2016-04-29T17:57:36Z</time>
      </trkpt>
      <trkpt lat="45.04997" lon="5.47634">
        <ele>1330.12</ele>
        <time>2016-04-29T17:57:37Z</time>
      </trkpt>
      <trkpt lat="45.05007" lon="5.47629">
        <ele>1329.16</ele>
        <time>2016-04-29T17:57:39Z</time>
      </trkpt>
      <trkpt lat="45.05036" lon="5.47611">
        <ele>1325.8</ele>
        <time>2016-04-29T17:57:44Z</time>
      </trkpt>
      <trkpt lat="45.0504" lon="5.47609">
        <ele>1325.31</ele>
        <time>2016-04-29T17:57:45Z</time>
      </trkpt>
      <trkpt lat="45.05044" lon="5.47607">
        <ele>1325.31</ele>
        <time>2016-04-29T17:57:46Z</time>
      </trkpt>
      <trkpt lat="45.05049" lon="5.47605">
        <ele>1324.83</ele>
        <time>2016-04-29T17:57:47Z</time>
      </trkpt>
      <trkpt lat="45.05053" lon="5.47602">
        <ele>1323.87</ele>
        <time>2016-04-29T17:57:48Z</time>
      </trkpt>
      <trkpt lat="45.05058" lon="5.47599">
        <ele>1323.39</ele>
        <time>2016-04-29T17:57:49Z</time>
      </trkpt>
      <trkpt lat="45.05062" lon="5.47597">
        <ele>1322.91</ele>
        <time>2016-04-29T17:57:50Z</time>
      </trkpt>
      <trkpt lat="45.05091" lon="5.47579">
        <ele>1320.99</ele>
        <time>2016-04-29T17:58:00Z</time>
      </trkpt>
      <trkpt lat="45.05093" lon="5.47574">
        <ele>1320.51</ele>
        <time>2016-04-29T17:58:12Z</time>
      </trkpt>
      <trkpt lat="45.05093" lon="5.47574">
        <ele>1320.99</ele>
        <time>2016-04-29T17:58:14Z</time>
      </trkpt>
      <trkpt lat="45.05101" lon="5.4758">
        <ele>1320.51</ele>
        <time>2016-04-29T17:58:20Z</time>
      </trkpt>
      <trkpt lat="45.05123" lon="5.47584">
        <ele>1318.59</ele>
        <time>2016-04-29T17:58:26Z</time>
      </trkpt>
      <trkpt lat="45.05138" lon="5.4758">
        <ele>1316.18</ele>
        <time>2016-04-29T17:58:30Z</time>
      </trkpt>
      <trkpt lat="45.05156" lon="5.47581">
        <ele>1313.3</ele>
        <time>2016-04-29T17:58:36Z</time>
      </trkpt>
      <trkpt lat="45.05161" lon="5.47583">
        <ele>1312.82</ele>
        <time>2016-04-29T17:58:38Z</time>
      </trkpt>
      <trkpt lat="45.05184" lon="5.47591">
        <ele>1308.49</ele>
        <time>2016-04-29T17:58:46Z</time>
      </trkpt>
      <trkpt lat="45.05201" lon="5.47592">
        <ele>1307.05</ele>
        <time>2016-04-29T17:58:49Z</time>
      </trkpt>
      <trkpt lat="45.05233" lon="5.47605">
        <ele>1305.13</ele>
        <time>2016-04-29T17:58:55Z</time>
      </trkpt>
      <trkpt lat="45.0525" lon="5.47626">
        <ele>1304.65</ele>
        <time>2016-04-29T17:59:00Z</time>
      </trkpt>
      <trkpt lat="45.05265" lon="5.47639">
        <ele>1302.24</ele>
        <time>2016-04-29T17:59:04Z</time>
      </trkpt>
      <trkpt lat="45.05279" lon="5.47645">
        <ele>1300.32</ele>
        <time>2016-04-29T17:59:07Z</time>
      </trkpt>
      <trkpt lat="45.05288" lon="5.47651">
        <ele>1297.92</ele>
        <time>2016-04-29T17:59:09Z</time>
      </trkpt>
      <trkpt lat="45.053" lon="5.47654">
        <ele>1295.99</ele>
        <time>2016-04-29T17:59:11Z</time>
      </trkpt>
      <trkpt lat="45.0533" lon="5.47663">
        <ele>1292.15</ele>
        <time>2016-04-29T17:59:16Z</time>
      </trkpt>
      <trkpt lat="45.05339" lon="5.4767">
        <ele>1290.71</ele>
        <time>2016-04-29T17:59:18Z</time>
      </trkpt>
      <trkpt lat="45.05357" lon="5.47693">
        <ele>1290.23</ele>
        <time>2016-04-29T17:59:22Z</time>
      </trkpt>
      <trkpt lat="45.05385" lon="5.4771">
        <ele>1286.86</ele>
        <time>2016-04-29T17:59:29Z</time>
      </trkpt>
      <trkpt lat="45.05391" lon="5.47713">
        <ele>1286.38</ele>
        <time>2016-04-29T17:59:30Z</time>
      </trkpt>
      <trkpt lat="45.05427" lon="5.47726">
        <ele>1282.54</ele>
        <time>2016-04-29T17:59:35Z</time>
      </trkpt>
      <trkpt lat="45.05465" lon="5.47732">
        <ele>1278.69</ele>
        <time>2016-04-29T17:59:43Z</time>
      </trkpt>
      <trkpt lat="45.05485" lon="5.47719">
        <ele>1274.85</ele>
        <time>2016-04-29T17:59:47Z</time>
      </trkpt>
      <trkpt lat="45.05504" lon="5.47707">
        <ele>1271</ele>
        <time>2016-04-29T17:59:51Z</time>
      </trkpt>
      <trkpt lat="45.05514" lon="5.47699">
        <ele>1267.64</ele>
        <time>2016-04-29T17:59:53Z</time>
      </trkpt>
      <trkpt lat="45.05517" lon="5.47695">
        <ele>1267.64</ele>
        <time>2016-04-29T17:59:54Z</time>
      </trkpt>
      <trkpt lat="45.05523" lon="5.47687">
        <ele>1266.19</ele>
        <time>2016-04-29T17:59:56Z</time>
      </trkpt>
      <trkpt lat="45.05526" lon="5.47683">
        <ele>1265.71</ele>
        <time>2016-04-29T17:59:57Z</time>
      </trkpt>
      <trkpt lat="45.05529" lon="5.4768">
        <ele>1265.71</ele>
        <time>2016-04-29T17:59:58Z</time>
      </trkpt>
      <trkpt lat="45.05534" lon="5.47666">
        <ele>1264.75</ele>
        <time>2016-04-29T18:00:02Z</time>
      </trkpt>
      <trkpt lat="45.05534" lon="5.47662">
        <ele>1264.27</ele>
        <time>2016-04-29T18:00:03Z</time>
      </trkpt>
      <trkpt lat="45.05534" lon="5.47657">
        <ele>1264.27</ele>
        <time>2016-04-29T18:00:04Z</time>
      </trkpt>
      <trkpt lat="45.05534" lon="5.47652">
        <ele>1263.79</ele>
        <time>2016-04-29T18:00:05Z</time>
      </trkpt>
      <trkpt lat="45.05535" lon="5.47649">
        <ele>1263.31</ele>
        <time>2016-04-29T18:00:06Z</time>
      </trkpt>
      <trkpt lat="45.05537" lon="5.47645">
        <ele>1263.31</ele>
        <time>2016-04-29T18:00:07Z</time>
      </trkpt>
      <trkpt lat="45.05544" lon="5.47612">
        <ele>1262.83</ele>
        <time>2016-04-29T18:00:15Z</time>
      </trkpt>
      <trkpt lat="45.05545" lon="5.4761">
        <ele>1263.31</ele>
        <time>2016-04-29T18:00:16Z</time>
      </trkpt>
      <trkpt lat="45.05549" lon="5.47611">
        <ele>1262.83</ele>
        <time>2016-04-29T18:00:28Z</time>
      </trkpt>
      <trkpt lat="45.05551" lon="5.47613">
        <ele>1263.31</ele>
        <time>2016-04-29T18:00:41Z</time>
      </trkpt>
      <trkpt lat="45.05552" lon="5.47615">
        <ele>1262.83</ele>
        <time>2016-04-29T18:00:42Z</time>
      </trkpt>
      <trkpt lat="45.05551" lon="5.47626">
        <ele>1262.83</ele>
        <time>2016-04-29T18:00:45Z</time>
      </trkpt>
      <trkpt lat="45.05552" lon="5.47632">
        <ele>1262.83</ele>
        <time>2016-04-29T18:00:46Z</time>
      </trkpt>
      <trkpt lat="45.05553" lon="5.47636">
        <ele>1262.83</ele>
        <time>2016-04-29T18:00:47Z</time>
      </trkpt>
      <trkpt lat="45.05562" lon="5.47669">
        <ele>1261.87</ele>
        <time>2016-04-29T18:00:54Z</time>
      </trkpt>
      <trkpt lat="45.05564" lon="5.47675">
        <ele>1261.39</ele>
        <time>2016-04-29T18:00:55Z</time>
      </trkpt>
      <trkpt lat="45.05567" lon="5.4768">
        <ele>1260.91</ele>
        <time>2016-04-29T18:00:56Z</time>
      </trkpt>
      <trkpt lat="45.05583" lon="5.47704">
        <ele>1259.46</ele>
        <time>2016-04-29T18:01:00Z</time>
      </trkpt>
      <trkpt lat="45.05588" lon="5.47709">
        <ele>1258.98</ele>
        <time>2016-04-29T18:01:01Z</time>
      </trkpt>
      <trkpt lat="45.05616" lon="5.47732">
        <ele>1257.54</ele>
        <time>2016-04-29T18:01:06Z</time>
      </trkpt>
      <trkpt lat="45.0563" lon="5.4775">
        <ele>1256.58</ele>
        <time>2016-04-29T18:01:09Z</time>
      </trkpt>
      <trkpt lat="45.05665" lon="5.47787">
        <ele>1254.18</ele>
        <time>2016-04-29T18:01:15Z</time>
      </trkpt>
      <trkpt lat="45.05677" lon="5.47799">
        <ele>1253.7</ele>
        <time>2016-04-29T18:01:17Z</time>
      </trkpt>
      <trkpt lat="45.05681" lon="5.47805">
        <ele>1254.18</ele>
        <time>2016-04-29T18:01:18Z</time>
      </trkpt>
      <trkpt lat="45.05687" lon="5.47818">
        <ele>1253.7</ele>
        <time>2016-04-29T18:01:20Z</time>
      </trkpt>
      <trkpt lat="45.0569" lon="5.47824">
        <ele>1253.22</ele>
        <time>2016-04-29T18:01:21Z</time>
      </trkpt>
      <trkpt lat="45.05694" lon="5.47831">
        <ele>1253.22</ele>
        <time>2016-04-29T18:01:22Z</time>
      </trkpt>
      <trkpt lat="45.0571" lon="5.47857">
        <ele>1251.77</ele>
        <time>2016-04-29T18:01:26Z</time>
      </trkpt>
      <trkpt lat="45.05713" lon="5.47865">
        <ele>1251.77</ele>
        <time>2016-04-29T18:01:27Z</time>
      </trkpt>
      <trkpt lat="45.05729" lon="5.47908">
        <ele>1249.85</ele>
        <time>2016-04-29T18:01:33Z</time>
      </trkpt>
      <trkpt lat="45.05733" lon="5.47915">
        <ele>1249.37</ele>
        <time>2016-04-29T18:01:34Z</time>
      </trkpt>
      <trkpt lat="45.05738" lon="5.47921">
        <ele>1248.89</ele>
        <time>2016-04-29T18:01:35Z</time>
      </trkpt>
      <trkpt lat="45.05743" lon="5.47925">
        <ele>1248.89</ele>
        <time>2016-04-29T18:01:36Z</time>
      </trkpt>
      <trkpt lat="45.05747" lon="5.47928">
        <ele>1248.89</ele>
        <time>2016-04-29T18:01:37Z</time>
      </trkpt>
      <trkpt lat="45.0575" lon="5.47932">
        <ele>1248.89</ele>
        <time>2016-04-29T18:01:38Z</time>
      </trkpt>
      <trkpt lat="45.05753" lon="5.47935">
        <ele>1248.41</ele>
        <time>2016-04-29T18:01:39Z</time>
      </trkpt>
      <trkpt lat="45.05763" lon="5.47956">
        <ele>1247.45</ele>
        <time>2016-04-29T18:01:44Z</time>
      </trkpt>
      <trkpt lat="45.05765" lon="5.47961">
        <ele>1246.97</ele>
        <time>2016-04-29T18:01:45Z</time>
      </trkpt>
      <trkpt lat="45.05768" lon="5.47965">
        <ele>1246.49</ele>
        <time>2016-04-29T18:01:46Z</time>
      </trkpt>
      <trkpt lat="45.05771" lon="5.47968">
        <ele>1246.01</ele>
        <time>2016-04-29T18:01:47Z</time>
      </trkpt>
      <trkpt lat="45.05775" lon="5.47972">
        <ele>1245.53</ele>
        <time>2016-04-29T18:01:48Z</time>
      </trkpt>
      <trkpt lat="45.05778" lon="5.47976">
        <ele>1245.04</ele>
        <time>2016-04-29T18:01:49Z</time>
      </trkpt>
      <trkpt lat="45.05785" lon="5.47987">
        <ele>1244.08</ele>
        <time>2016-04-29T18:01:56Z</time>
      </trkpt>
      <trkpt lat="45.05787" lon="5.47986">
        <ele>1244.08</ele>
        <time>2016-04-29T18:02:19Z</time>
      </trkpt>
      <trkpt lat="45.05786" lon="5.47985">
        <ele>1243.6</ele>
        <time>2016-04-29T18:02:45Z</time>
      </trkpt>
      <trkpt lat="45.05784" lon="5.47986">
        <ele>1243.6</ele>
        <time>2016-04-29T18:03:24Z</time>
      </trkpt>
      <trkpt lat="45.05786" lon="5.47985">
        <ele>1244.08</ele>
        <time>2016-04-29T18:03:56Z</time>
      </trkpt>
      <trkpt lat="45.05788" lon="5.47984">
        <ele>1244.08</ele>
        <time>2016-04-29T18:04:27Z</time>
      </trkpt>
      <trkpt lat="45.05788" lon="5.47986">
        <ele>1244.56</ele>
        <time>2016-04-29T18:04:53Z</time>
      </trkpt>
      <trkpt lat="45.05789" lon="5.47991">
        <ele>1244.56</ele>
        <time>2016-04-29T18:05:09Z</time>
      </trkpt>
      <trkpt lat="45.0579" lon="5.47993">
        <ele>1244.08</ele>
        <time>2016-04-29T18:05:10Z</time>
      </trkpt>
      <trkpt lat="45.0579" lon="5.47996">
        <ele>1244.08</ele>
        <time>2016-04-29T18:05:11Z</time>
      </trkpt>
      <trkpt lat="45.05791" lon="5.48">
        <ele>1243.6</ele>
        <time>2016-04-29T18:05:12Z</time>
      </trkpt>
      <trkpt lat="45.05792" lon="5.48003">
        <ele>1243.6</ele>
        <time>2016-04-29T18:05:13Z</time>
      </trkpt>
      <trkpt lat="45.05794" lon="5.48006">
        <ele>1242.64</ele>
        <time>2016-04-29T18:05:14Z</time>
      </trkpt>
      <trkpt lat="45.05795" lon="5.4801">
        <ele>1242.16</ele>
        <time>2016-04-29T18:05:15Z</time>
      </trkpt>
      <trkpt lat="45.05797" lon="5.48012">
        <ele>1241.68</ele>
        <time>2016-04-29T18:05:16Z</time>
      </trkpt>
      <trkpt lat="45.05799" lon="5.48015">
        <ele>1241.68</ele>
        <time>2016-04-29T18:05:17Z</time>
      </trkpt>
      <trkpt lat="45.05807" lon="5.48029">
        <ele>1237.83</ele>
        <time>2016-04-29T18:05:21Z</time>
      </trkpt>
      <trkpt lat="45.05811" lon="5.48035">
        <ele>1237.35</ele>
        <time>2016-04-29T18:05:23Z</time>
      </trkpt>
      <trkpt lat="45.05815" lon="5.48036">
        <ele>1236.39</ele>
        <time>2016-04-29T18:05:24Z</time>
      </trkpt>
      <trkpt lat="45.05817" lon="5.48038">
        <ele>1235.91</ele>
        <time>2016-04-29T18:05:25Z</time>
      </trkpt>
      <trkpt lat="45.05819" lon="5.48041">
        <ele>1235.43</ele>
        <time>2016-04-29T18:05:27Z</time>
      </trkpt>
      <trkpt lat="45.05829" lon="5.48057">
        <ele>1232.07</ele>
        <time>2016-04-29T18:05:31Z</time>
      </trkpt>
      <trkpt lat="45.05844" lon="5.48078">
        <ele>1228.7</ele>
        <time>2016-04-29T18:05:36Z</time>
      </trkpt>
      <trkpt lat="45.05849" lon="5.48085">
        <ele>1228.22</ele>
        <time>2016-04-29T18:05:38Z</time>
      </trkpt>
      <trkpt lat="45.05861" lon="5.48096">
        <ele>1224.38</ele>
        <time>2016-04-29T18:05:43Z</time>
      </trkpt>
      <trkpt lat="45.05869" lon="5.48103">
        <ele>1221.97</ele>
        <time>2016-04-29T18:05:47Z</time>
      </trkpt>
      <trkpt lat="45.05883" lon="5.48116">
        <ele>1218.61</ele>
        <time>2016-04-29T18:05:53Z</time>
      </trkpt>
      <trkpt lat="45.05887" lon="5.48118">
        <ele>1218.61</ele>
        <time>2016-04-29T18:05:54Z</time>
      </trkpt>
      <trkpt lat="45.05905" lon="5.4813">
        <ele>1215.24</ele>
        <time>2016-04-29T18:05:58Z</time>
      </trkpt>
      <trkpt lat="45.05911" lon="5.48133">
        <ele>1214.76</ele>
        <time>2016-04-29T18:05:59Z</time>
      </trkpt>
      <trkpt lat="45.05916" lon="5.48136">
        <ele>1213.8</ele>
        <time>2016-04-29T18:06:00Z</time>
      </trkpt>
      <trkpt lat="45.05931" lon="5.4815">
        <ele>1210.92</ele>
        <time>2016-04-29T18:06:05Z</time>
      </trkpt>
      <trkpt lat="45.05933" lon="5.48154">
        <ele>1210.92</ele>
        <time>2016-04-29T18:06:06Z</time>
      </trkpt>
      <trkpt lat="45.05941" lon="5.48168">
        <ele>1208.51</ele>
        <time>2016-04-29T18:06:10Z</time>
      </trkpt>
      <trkpt lat="45.05941" lon="5.48172">
        <ele>1208.03</ele>
        <time>2016-04-29T18:06:11Z</time>
      </trkpt>
      <trkpt lat="45.05943" lon="5.48176">
        <ele>1207.55</ele>
        <time>2016-04-29T18:06:12Z</time>
      </trkpt>
      <trkpt lat="45.05947" lon="5.48181">
        <ele>1206.11</ele>
        <time>2016-04-29T18:06:14Z</time>
      </trkpt>
      <trkpt lat="45.05955" lon="5.48188">
        <ele>1204.67</ele>
        <time>2016-04-29T18:06:18Z</time>
      </trkpt>
      <trkpt lat="45.05957" lon="5.48189">
        <ele>1204.19</ele>
        <time>2016-04-29T18:06:19Z</time>
      </trkpt>
      <trkpt lat="45.0596" lon="5.48189">
        <ele>1204.19</ele>
        <time>2016-04-29T18:06:20Z</time>
      </trkpt>
      <trkpt lat="45.05961" lon="5.4819">
        <ele>1203.71</ele>
        <time>2016-04-29T18:06:21Z</time>
      </trkpt>
      <trkpt lat="45.05963" lon="5.48193">
        <ele>1203.23</ele>
        <time>2016-04-29T18:06:22Z</time>
      </trkpt>
      <trkpt lat="45.05981" lon="5.48209">
        <ele>1199.86</ele>
        <time>2016-04-29T18:06:28Z</time>
      </trkpt>
      <trkpt lat="45.05984" lon="5.48212">
        <ele>1198.9</ele>
        <time>2016-04-29T18:06:29Z</time>
      </trkpt>
      <trkpt lat="45.05993" lon="5.48223">
        <ele>1196.02</ele>
        <time>2016-04-29T18:06:32Z</time>
      </trkpt>
      <trkpt lat="45.06002" lon="5.48233">
        <ele>1194.58</ele>
        <time>2016-04-29T18:06:35Z</time>
      </trkpt>
      <trkpt lat="45.06004" lon="5.48236">
        <ele>1194.09</ele>
        <time>2016-04-29T18:06:36Z</time>
      </trkpt>
      <trkpt lat="45.06008" lon="5.48238">
        <ele>1193.61</ele>
        <time>2016-04-29T18:06:37Z</time>
      </trkpt>
      <trkpt lat="45.06028" lon="5.48245">
        <ele>1191.21</ele>
        <time>2016-04-29T18:06:44Z</time>
      </trkpt>
      <trkpt lat="45.0603" lon="5.48245">
        <ele>1190.73</ele>
        <time>2016-04-29T18:06:45Z</time>
      </trkpt>
      <trkpt lat="45.06032" lon="5.48245">
        <ele>1190.25</ele>
        <time>2016-04-29T18:06:46Z</time>
      </trkpt>
      <trkpt lat="45.0604" lon="5.48252">
        <ele>1189.29</ele>
        <time>2016-04-29T18:06:50Z</time>
      </trkpt>
      <trkpt lat="45.06048" lon="5.48256">
        <ele>1187.37</ele>
        <time>2016-04-29T18:06:56Z</time>
      </trkpt>
      <trkpt lat="45.0605" lon="5.48255">
        <ele>1186.4</ele>
        <time>2016-04-29T18:06:57Z</time>
      </trkpt>
      <trkpt lat="45.06069" lon="5.48256">
        <ele>1184.96</ele>
        <time>2016-04-29T18:07:07Z</time>
      </trkpt>
      <trkpt lat="45.06071" lon="5.48257">
        <ele>1184.48</ele>
        <time>2016-04-29T18:07:08Z</time>
      </trkpt>
      <trkpt lat="45.06075" lon="5.48259">
        <ele>1184</ele>
        <time>2016-04-29T18:07:09Z</time>
      </trkpt>
      <trkpt lat="45.06079" lon="5.48262">
        <ele>1183.52</ele>
        <time>2016-04-29T18:07:10Z</time>
      </trkpt>
      <trkpt lat="45.06081" lon="5.48263">
        <ele>1183.04</ele>
        <time>2016-04-29T18:07:11Z</time>
      </trkpt>
      <trkpt lat="45.06082" lon="5.48265">
        <ele>1182.08</ele>
        <time>2016-04-29T18:07:12Z</time>
      </trkpt>
      <trkpt lat="45.06083" lon="5.48266">
        <ele>1182.08</ele>
        <time>2016-04-29T18:07:13Z</time>
      </trkpt>
      <trkpt lat="45.06085" lon="5.48268">
        <ele>1181.12</ele>
        <time>2016-04-29T18:07:14Z</time>
      </trkpt>
      <trkpt lat="45.06086" lon="5.48271">
        <ele>1180.64</ele>
        <time>2016-04-29T18:07:15Z</time>
      </trkpt>
      <trkpt lat="45.06088" lon="5.48275">
        <ele>1179.67</ele>
        <time>2016-04-29T18:07:16Z</time>
      </trkpt>
      <trkpt lat="45.06092" lon="5.4828">
        <ele>1178.71</ele>
        <time>2016-04-29T18:07:17Z</time>
      </trkpt>
      <trkpt lat="45.06102" lon="5.48292">
        <ele>1177.27</ele>
        <time>2016-04-29T18:07:19Z</time>
      </trkpt>
      <trkpt lat="45.06107" lon="5.48296">
        <ele>1176.31</ele>
        <time>2016-04-29T18:07:20Z</time>
      </trkpt>
      <trkpt lat="45.06124" lon="5.48307">
        <ele>1172.95</ele>
        <time>2016-04-29T18:07:23Z</time>
      </trkpt>
      <trkpt lat="45.06139" lon="5.48316">
        <ele>1171.5</ele>
        <time>2016-04-29T18:07:25Z</time>
      </trkpt>
      <trkpt lat="45.06172" lon="5.48338">
        <ele>1168.14</ele>
        <time>2016-04-29T18:07:31Z</time>
      </trkpt>
      <trkpt lat="45.06185" lon="5.48346">
        <ele>1167.66</ele>
        <time>2016-04-29T18:07:34Z</time>
      </trkpt>
      <trkpt lat="45.06189" lon="5.48348">
        <ele>1167.18</ele>
        <time>2016-04-29T18:07:35Z</time>
      </trkpt>
      <trkpt lat="45.06191" lon="5.48351">
        <ele>1167.18</ele>
        <time>2016-04-29T18:07:36Z</time>
      </trkpt>
      <trkpt lat="45.06198" lon="5.48359">
        <ele>1164.77</ele>
        <time>2016-04-29T18:07:40Z</time>
      </trkpt>
      <trkpt lat="45.062" lon="5.48363">
        <ele>1164.29</ele>
        <time>2016-04-29T18:07:41Z</time>
      </trkpt>
      <trkpt lat="45.06203" lon="5.48366">
        <ele>1164.29</ele>
        <time>2016-04-29T18:07:42Z</time>
      </trkpt>
      <trkpt lat="45.06207" lon="5.48369">
        <ele>1163.81</ele>
        <time>2016-04-29T18:07:43Z</time>
      </trkpt>
      <trkpt lat="45.0622" lon="5.4837">
        <ele>1163.33</ele>
        <time>2016-04-29T18:07:54Z</time>
      </trkpt>
      <trkpt lat="45.0623" lon="5.48374">
        <ele>1162.37</ele>
        <time>2016-04-29T18:08:19Z</time>
      </trkpt>
      <trkpt lat="45.06232" lon="5.48375">
        <ele>1161.89</ele>
        <time>2016-04-29T18:08:20Z</time>
      </trkpt>
      <trkpt lat="45.06234" lon="5.48377">
        <ele>1161.41</ele>
        <time>2016-04-29T18:08:21Z</time>
      </trkpt>
      <trkpt lat="45.06237" lon="5.4838">
        <ele>1160.45</ele>
        <time>2016-04-29T18:08:22Z</time>
      </trkpt>
      <trkpt lat="45.06241" lon="5.48383">
        <ele>1159.97</ele>
        <time>2016-04-29T18:08:23Z</time>
      </trkpt>
      <trkpt lat="45.06245" lon="5.48386">
        <ele>1159.01</ele>
        <time>2016-04-29T18:08:24Z</time>
      </trkpt>
      <trkpt lat="45.06248" lon="5.48392">
        <ele>1158.53</ele>
        <time>2016-04-29T18:08:25Z</time>
      </trkpt>
      <trkpt lat="45.06252" lon="5.48399">
        <ele>1157.08</ele>
        <time>2016-04-29T18:08:26Z</time>
      </trkpt>
      <trkpt lat="45.06257" lon="5.48409">
        <ele>1156.6</ele>
        <time>2016-04-29T18:08:27Z</time>
      </trkpt>
      <trkpt lat="45.06276" lon="5.48447">
        <ele>1153.24</ele>
        <time>2016-04-29T18:08:31Z</time>
      </trkpt>
      <trkpt lat="45.06281" lon="5.48458">
        <ele>1151.8</ele>
        <time>2016-04-29T18:08:32Z</time>
      </trkpt>
      <trkpt lat="45.06298" lon="5.48503">
        <ele>1148.43</ele>
        <time>2016-04-29T18:08:36Z</time>
      </trkpt>
      <trkpt lat="45.06319" lon="5.48546">
        <ele>1145.07</ele>
        <time>2016-04-29T18:08:40Z</time>
      </trkpt>
      <trkpt lat="45.06324" lon="5.48558">
        <ele>1143.63</ele>
        <time>2016-04-29T18:08:41Z</time>
      </trkpt>
      <trkpt lat="45.06339" lon="5.48595">
        <ele>1140.26</ele>
        <time>2016-04-29T18:08:44Z</time>
      </trkpt>
      <trkpt lat="45.06358" lon="5.4864">
        <ele>1138.82</ele>
        <time>2016-04-29T18:08:48Z</time>
      </trkpt>
      <trkpt lat="45.06378" lon="5.48695">
        <ele>1139.3</ele>
        <time>2016-04-29T18:08:54Z</time>
      </trkpt>
      <trkpt lat="45.0638" lon="5.48703">
        <ele>1139.78</ele>
        <time>2016-04-29T18:08:55Z</time>
      </trkpt>
      <trkpt lat="45.06381" lon="5.48709">
        <ele>1140.26</ele>
        <time>2016-04-29T18:08:56Z</time>
      </trkpt>
      <trkpt lat="45.06388" lon="5.48743">
        <ele>1142.66</ele>
        <time>2016-04-29T18:09:04Z</time>
      </trkpt>
      <trkpt lat="45.0639" lon="5.48747">
        <ele>1142.66</ele>
        <time>2016-04-29T18:09:05Z</time>
      </trkpt>
      <trkpt lat="45.06391" lon="5.48751">
        <ele>1143.14</ele>
        <time>2016-04-29T18:09:06Z</time>
      </trkpt>
      <trkpt lat="45.06393" lon="5.48755">
        <ele>1143.14</ele>
        <time>2016-04-29T18:09:07Z</time>
      </trkpt>
      <trkpt lat="45.06398" lon="5.48779">
        <ele>1144.11</ele>
        <time>2016-04-29T18:09:13Z</time>
      </trkpt>
      <trkpt lat="45.06398" lon="5.48783">
        <ele>1144.59</ele>
        <time>2016-04-29T18:09:14Z</time>
      </trkpt>
      <trkpt lat="45.06398" lon="5.48786">
        <ele>1144.59</ele>
        <time>2016-04-29T18:09:15Z</time>
      </trkpt>
      <trkpt lat="45.06399" lon="5.4879">
        <ele>1144.59</ele>
        <time>2016-04-29T18:09:16Z</time>
      </trkpt>
      <trkpt lat="45.06399" lon="5.48793">
        <ele>1144.59</ele>
        <time>2016-04-29T18:09:17Z</time>
      </trkpt>
      <trkpt lat="45.06398" lon="5.48797">
        <ele>1145.07</ele>
        <time>2016-04-29T18:09:18Z</time>
      </trkpt>
      <trkpt lat="45.06401" lon="5.48807">
        <ele>1145.55</ele>
        <time>2016-04-29T18:09:26Z</time>
      </trkpt>
      <trkpt lat="45.06408" lon="5.48814">
        <ele>1145.07</ele>
        <time>2016-04-29T18:09:47Z</time>
      </trkpt>
      <trkpt lat="45.06411" lon="5.48815">
        <ele>1145.07</ele>
        <time>2016-04-29T18:09:54Z</time>
      </trkpt>
      <trkpt lat="45.06412" lon="5.48816">
        <ele>1145.07</ele>
        <time>2016-04-29T18:09:56Z</time>
      </trkpt>
      <trkpt lat="45.06412" lon="5.48821">
        <ele>1145.55</ele>
        <time>2016-04-29T18:09:58Z</time>
      </trkpt>
      <trkpt lat="45.06412" lon="5.48824">
        <ele>1145.55</ele>
        <time>2016-04-29T18:09:59Z</time>
      </trkpt>
      <trkpt lat="45.06412" lon="5.48827">
        <ele>1145.55</ele>
        <time>2016-04-29T18:10:00Z</time>
      </trkpt>
      <trkpt lat="45.06412" lon="5.4883">
        <ele>1145.55</ele>
        <time>2016-04-29T18:10:01Z</time>
      </trkpt>
      <trkpt lat="45.06412" lon="5.48833">
        <ele>1145.55</ele>
        <time>2016-04-29T18:10:02Z</time>
      </trkpt>
      <trkpt lat="45.06413" lon="5.48836">
        <ele>1146.51</ele>
        <time>2016-04-29T18:10:04Z</time>
      </trkpt>
      <trkpt lat="45.06413" lon="5.48839">
        <ele>1146.51</ele>
        <time>2016-04-29T18:10:05Z</time>
      </trkpt>
      <trkpt lat="45.06414" lon="5.48851">
        <ele>1146.99</ele>
        <time>2016-04-29T18:10:10Z</time>
      </trkpt>
      <trkpt lat="45.06415" lon="5.48854">
        <ele>1146.99</ele>
        <time>2016-04-29T18:10:11Z</time>
      </trkpt>
      <trkpt lat="45.06415" lon="5.48858">
        <ele>1147.47</ele>
        <time>2016-04-29T18:10:12Z</time>
      </trkpt>
      <trkpt lat="45.06415" lon="5.48861">
        <ele>1147.47</ele>
        <time>2016-04-29T18:10:13Z</time>
      </trkpt>
      <trkpt lat="45.06415" lon="5.48865">
        <ele>1147.95</ele>
        <time>2016-04-29T18:10:14Z</time>
      </trkpt>
      <trkpt lat="45.06415" lon="5.48868">
        <ele>1147.95</ele>
        <time>2016-04-29T18:10:15Z</time>
      </trkpt>
      <trkpt lat="45.06416" lon="5.4887">
        <ele>1148.43</ele>
        <time>2016-04-29T18:10:16Z</time>
      </trkpt>
      <trkpt lat="45.06416" lon="5.48873">
        <ele>1148.43</ele>
        <time>2016-04-29T18:10:17Z</time>
      </trkpt>
      <trkpt lat="45.06416" lon="5.48876">
        <ele>1148.43</ele>
        <time>2016-04-29T18:10:18Z</time>
      </trkpt>
      <trkpt lat="45.06416" lon="5.48879">
        <ele>1148.43</ele>
        <time>2016-04-29T18:10:19Z</time>
      </trkpt>
      <trkpt lat="45.06415" lon="5.48882">
        <ele>1148.91</ele>
        <time>2016-04-29T18:10:20Z</time>
      </trkpt>
      <trkpt lat="45.06413" lon="5.48904">
        <ele>1150.35</ele>
        <time>2016-04-29T18:10:28Z</time>
      </trkpt>
      <trkpt lat="45.06414" lon="5.48906">
        <ele>1150.35</ele>
        <time>2016-04-29T18:10:29Z</time>
      </trkpt>
      <trkpt lat="45.06413" lon="5.48908">
        <ele>1150.35</ele>
        <time>2016-04-29T18:10:30Z</time>
      </trkpt>
      <trkpt lat="45.06405" lon="5.48938">
        <ele>1151.32</ele>
        <time>2016-04-29T18:10:40Z</time>
      </trkpt>
      <trkpt lat="45.06401" lon="5.48946">
        <ele>1152.28</ele>
        <time>2016-04-29T18:10:44Z</time>
      </trkpt>
      <trkpt lat="45.06401" lon="5.48948">
        <ele>1152.28</ele>
        <time>2016-04-29T18:10:45Z</time>
      </trkpt>
      <trkpt lat="45.06401" lon="5.48951">
        <ele>1152.28</ele>
        <time>2016-04-29T18:10:46Z</time>
      </trkpt>
      <trkpt lat="45.064" lon="5.48954">
        <ele>1152.76</ele>
        <time>2016-04-29T18:10:47Z</time>
      </trkpt>
      <trkpt lat="45.06399" lon="5.48957">
        <ele>1152.76</ele>
        <time>2016-04-29T18:10:48Z</time>
      </trkpt>
      <trkpt lat="45.06399" lon="5.4896">
        <ele>1152.76</ele>
        <time>2016-04-29T18:10:49Z</time>
      </trkpt>
      <trkpt lat="45.06398" lon="5.48963">
        <ele>1152.76</ele>
        <time>2016-04-29T18:10:50Z</time>
      </trkpt>
      <trkpt lat="45.06397" lon="5.48966">
        <ele>1153.24</ele>
        <time>2016-04-29T18:10:51Z</time>
      </trkpt>
      <trkpt lat="45.06397" lon="5.48968">
        <ele>1153.24</ele>
        <time>2016-04-29T18:10:52Z</time>
      </trkpt>
      <trkpt lat="45.06396" lon="5.48971">
        <ele>1153.24</ele>
        <time>2016-04-29T18:10:53Z</time>
      </trkpt>
      <trkpt lat="45.06394" lon="5.48974">
        <ele>1153.24</ele>
        <time>2016-04-29T18:10:54Z</time>
      </trkpt>
      <trkpt lat="45.06393" lon="5.48977">
        <ele>1153.72</ele>
        <time>2016-04-29T18:10:55Z</time>
      </trkpt>
      <trkpt lat="45.06393" lon="5.48979">
        <ele>1153.24</ele>
        <time>2016-04-29T18:10:56Z</time>
      </trkpt>
      <trkpt lat="45.06393" lon="5.48981">
        <ele>1153.72</ele>
        <time>2016-04-29T18:10:57Z</time>
      </trkpt>
      <trkpt lat="45.06392" lon="5.48984">
        <ele>1153.72</ele>
        <time>2016-04-29T18:10:58Z</time>
      </trkpt>
      <trkpt lat="45.06391" lon="5.48987">
        <ele>1154.2</ele>
        <time>2016-04-29T18:10:59Z</time>
      </trkpt>
      <trkpt lat="45.0639" lon="5.4899">
        <ele>1154.2</ele>
        <time>2016-04-29T18:11:00Z</time>
      </trkpt>
      <trkpt lat="45.0639" lon="5.48992">
        <ele>1154.2</ele>
        <time>2016-04-29T18:11:01Z</time>
      </trkpt>
      <trkpt lat="45.06389" lon="5.48995">
        <ele>1154.2</ele>
        <time>2016-04-29T18:11:02Z</time>
      </trkpt>
      <trkpt lat="45.06388" lon="5.48997">
        <ele>1154.2</ele>
        <time>2016-04-29T18:11:03Z</time>
      </trkpt>
      <trkpt lat="45.06386" lon="5.49">
        <ele>1154.68</ele>
        <time>2016-04-29T18:11:04Z</time>
      </trkpt>
      <trkpt lat="45.06385" lon="5.49002">
        <ele>1154.68</ele>
        <time>2016-04-29T18:11:05Z</time>
      </trkpt>
      <trkpt lat="45.06384" lon="5.49004">
        <ele>1154.68</ele>
        <time>2016-04-29T18:11:06Z</time>
      </trkpt>
      <trkpt lat="45.06383" lon="5.49007">
        <ele>1155.16</ele>
        <time>2016-04-29T18:11:07Z</time>
      </trkpt>
      <trkpt lat="45.06382" lon="5.4901">
        <ele>1155.16</ele>
        <time>2016-04-29T18:11:08Z</time>
      </trkpt>
      <trkpt lat="45.06382" lon="5.49013">
        <ele>1155.16</ele>
        <time>2016-04-29T18:11:09Z</time>
      </trkpt>
      <trkpt lat="45.06382" lon="5.49016">
        <ele>1155.16</ele>
        <time>2016-04-29T18:11:10Z</time>
      </trkpt>
      <trkpt lat="45.0638" lon="5.49018">
        <ele>1155.16</ele>
        <time>2016-04-29T18:11:11Z</time>
      </trkpt>
      <trkpt lat="45.06375" lon="5.49033">
        <ele>1155.64</ele>
        <time>2016-04-29T18:11:16Z</time>
      </trkpt>
      <trkpt lat="45.06374" lon="5.49036">
        <ele>1156.12</ele>
        <time>2016-04-29T18:11:17Z</time>
      </trkpt>
      <trkpt lat="45.06367" lon="5.49055">
        <ele>1156.6</ele>
        <time>2016-04-29T18:11:24Z</time>
      </trkpt>
      <trkpt lat="45.06362" lon="5.49069">
        <ele>1157.56</ele>
        <time>2016-04-29T18:11:33Z</time>
      </trkpt>
      <trkpt lat="45.06362" lon="5.49071">
        <ele>1158.05</ele>
        <time>2016-04-29T18:11:34Z</time>
      </trkpt>
      <trkpt lat="45.06361" lon="5.49074">
        <ele>1158.05</ele>
        <time>2016-04-29T18:11:35Z</time>
      </trkpt>
      <trkpt lat="45.06361" lon="5.49076">
        <ele>1158.53</ele>
        <time>2016-04-29T18:11:36Z</time>
      </trkpt>
      <trkpt lat="45.06359" lon="5.49079">
        <ele>1158.53</ele>
        <time>2016-04-29T18:11:37Z</time>
      </trkpt>
      <trkpt lat="45.06351" lon="5.4909">
        <ele>1159.01</ele>
        <time>2016-04-29T18:11:44Z</time>
      </trkpt>
      <trkpt lat="45.06347" lon="5.49098">
        <ele>1159.49</ele>
        <time>2016-04-29T18:11:48Z</time>
      </trkpt>
      <trkpt lat="45.06345" lon="5.49101">
        <ele>1159.49</ele>
        <time>2016-04-29T18:11:49Z</time>
      </trkpt>
      <trkpt lat="45.06344" lon="5.49103">
        <ele>1159.97</ele>
        <time>2016-04-29T18:11:50Z</time>
      </trkpt>
      <trkpt lat="45.06344" lon="5.49107">
        <ele>1159.97</ele>
        <time>2016-04-29T18:11:51Z</time>
      </trkpt>
      <trkpt lat="45.06343" lon="5.4911">
        <ele>1159.97</ele>
        <time>2016-04-29T18:11:52Z</time>
      </trkpt>
      <trkpt lat="45.06343" lon="5.49113">
        <ele>1159.97</ele>
        <time>2016-04-29T18:11:53Z</time>
      </trkpt>
      <trkpt lat="45.0634" lon="5.49116">
        <ele>1160.45</ele>
        <time>2016-04-29T18:11:54Z</time>
      </trkpt>
      <trkpt lat="45.06338" lon="5.49118">
        <ele>1160.45</ele>
        <time>2016-04-29T18:11:55Z</time>
      </trkpt>
      <trkpt lat="45.06323" lon="5.49142">
        <ele>1162.37</ele>
        <time>2016-04-29T18:12:06Z</time>
      </trkpt>
      <trkpt lat="45.06316" lon="5.4916">
        <ele>1162.85</ele>
        <time>2016-04-29T18:12:13Z</time>
      </trkpt>
      <trkpt lat="45.06315" lon="5.49162">
        <ele>1162.85</ele>
        <time>2016-04-29T18:12:14Z</time>
      </trkpt>
      <trkpt lat="45.06314" lon="5.49167">
        <ele>1162.85</ele>
        <time>2016-04-29T18:12:15Z</time>
      </trkpt>
      <trkpt lat="45.06314" lon="5.49169">
        <ele>1162.85</ele>
        <time>2016-04-29T18:12:16Z</time>
      </trkpt>
      <trkpt lat="45.06313" lon="5.49172">
        <ele>1162.85</ele>
        <time>2016-04-29T18:12:17Z</time>
      </trkpt>
      <trkpt lat="45.06309" lon="5.49183">
        <ele>1163.81</ele>
        <time>2016-04-29T18:12:22Z</time>
      </trkpt>
      <trkpt lat="45.063" lon="5.49198">
        <ele>1164.29</ele>
        <time>2016-04-29T18:12:29Z</time>
      </trkpt>
      <trkpt lat="45.06295" lon="5.49206">
        <ele>1165.26</ele>
        <time>2016-04-29T18:12:35Z</time>
      </trkpt>
      <trkpt lat="45.06287" lon="5.49214">
        <ele>1165.74</ele>
        <time>2016-04-29T18:12:42Z</time>
      </trkpt>
      <trkpt lat="45.06285" lon="5.49216">
        <ele>1165.74</ele>
        <time>2016-04-29T18:12:43Z</time>
      </trkpt>
      <trkpt lat="45.06281" lon="5.49218">
        <ele>1166.22</ele>
        <time>2016-04-29T18:12:45Z</time>
      </trkpt>
      <trkpt lat="45.06277" lon="5.49223">
        <ele>1166.22</ele>
        <time>2016-04-29T18:12:47Z</time>
      </trkpt>
      <trkpt lat="45.06275" lon="5.49226">
        <ele>1166.22</ele>
        <time>2016-04-29T18:12:48Z</time>
      </trkpt>
      <trkpt lat="45.06273" lon="5.49228">
        <ele>1166.22</ele>
        <time>2016-04-29T18:12:49Z</time>
      </trkpt>
      <trkpt lat="45.06272" lon="5.4923">
        <ele>1166.7</ele>
        <time>2016-04-29T18:12:50Z</time>
      </trkpt>
      <trkpt lat="45.0627" lon="5.49232">
        <ele>1166.7</ele>
        <time>2016-04-29T18:12:51Z</time>
      </trkpt>
      <trkpt lat="45.06267" lon="5.49251">
        <ele>1168.14</ele>
        <time>2016-04-29T18:13:02Z</time>
      </trkpt>
      <trkpt lat="45.06273" lon="5.49268">
        <ele>1170.06</ele>
        <time>2016-04-29T18:13:15Z</time>
      </trkpt>
      <trkpt lat="45.06276" lon="5.49276">
        <ele>1170.06</ele>
        <time>2016-04-29T18:13:19Z</time>
      </trkpt>
      <trkpt lat="45.06278" lon="5.49279">
        <ele>1170.06</ele>
        <time>2016-04-29T18:13:20Z</time>
      </trkpt>
      <trkpt lat="45.0628" lon="5.49284">
        <ele>1170.54</ele>
        <time>2016-04-29T18:13:22Z</time>
      </trkpt>
      <trkpt lat="45.06281" lon="5.49287">
        <ele>1170.54</ele>
        <time>2016-04-29T18:13:23Z</time>
      </trkpt>
      <trkpt lat="45.06291" lon="5.49309">
        <ele>1171.5</ele>
        <time>2016-04-29T18:13:33Z</time>
      </trkpt>
      <trkpt lat="45.06292" lon="5.49311">
        <ele>1171.5</ele>
        <time>2016-04-29T18:13:34Z</time>
      </trkpt>
      <trkpt lat="45.06319" lon="5.49363">
        <ele>1173.43</ele>
        <time>2016-04-29T18:13:47Z</time>
      </trkpt>
      <trkpt lat="45.06319" lon="5.49365">
        <ele>1173.43</ele>
        <time>2016-04-29T18:13:48Z</time>
      </trkpt>
      <trkpt lat="45.0632" lon="5.49368">
        <ele>1173.43</ele>
        <time>2016-04-29T18:13:49Z</time>
      </trkpt>
      <trkpt lat="45.0632" lon="5.4937">
        <ele>1173.91</ele>
        <time>2016-04-29T18:13:50Z</time>
      </trkpt>
      <trkpt lat="45.06321" lon="5.49373">
        <ele>1173.91</ele>
        <time>2016-04-29T18:13:51Z</time>
      </trkpt>
      <trkpt lat="45.06324" lon="5.49388">
        <ele>1174.39</ele>
        <time>2016-04-29T18:13:58Z</time>
      </trkpt>
      <trkpt lat="45.06326" lon="5.49397">
        <ele>1175.35</ele>
        <time>2016-04-29T18:14:02Z</time>
      </trkpt>
      <trkpt lat="45.06327" lon="5.49399">
        <ele>1175.35</ele>
        <time>2016-04-29T18:14:03Z</time>
      </trkpt>
      <trkpt lat="45.06337" lon="5.49418">
        <ele>1176.31</ele>
        <time>2016-04-29T18:14:14Z</time>
      </trkpt>
      <trkpt lat="45.06345" lon="5.49431">
        <ele>1177.75</ele>
        <time>2016-04-29T18:14:26Z</time>
      </trkpt>
      <trkpt lat="45.06347" lon="5.49433">
        <ele>1177.75</ele>
        <time>2016-04-29T18:14:27Z</time>
      </trkpt>
      <trkpt lat="45.06349" lon="5.49435">
        <ele>1177.75</ele>
        <time>2016-04-29T18:14:28Z</time>
      </trkpt>
      <trkpt lat="45.06351" lon="5.49437">
        <ele>1178.23</ele>
        <time>2016-04-29T18:14:29Z</time>
      </trkpt>
      <trkpt lat="45.06353" lon="5.4944">
        <ele>1178.23</ele>
        <time>2016-04-29T18:14:30Z</time>
      </trkpt>
      <trkpt lat="45.06353" lon="5.49441">
        <ele>1178.23</ele>
        <time>2016-04-29T18:14:31Z</time>
      </trkpt>
      <trkpt lat="45.06357" lon="5.49443">
        <ele>1178.23</ele>
        <time>2016-04-29T18:14:32Z</time>
      </trkpt>
      <trkpt lat="45.06376" lon="5.49446">
        <ele>1179.67</ele>
        <time>2016-04-29T18:14:43Z</time>
      </trkpt>
      <trkpt lat="45.06379" lon="5.49448">
        <ele>1179.67</ele>
        <time>2016-04-29T18:14:45Z</time>
      </trkpt>
      <trkpt lat="45.06382" lon="5.4945">
        <ele>1179.67</ele>
        <time>2016-04-29T18:14:46Z</time>
      </trkpt>
      <trkpt lat="45.06384" lon="5.49451">
        <ele>1179.67</ele>
        <time>2016-04-29T18:14:47Z</time>
      </trkpt>
      <trkpt lat="45.06386" lon="5.49453">
        <ele>1180.16</ele>
        <time>2016-04-29T18:14:48Z</time>
      </trkpt>
      <trkpt lat="45.06437" lon="5.49498">
        <ele>1181.6</ele>
        <time>2016-04-29T18:14:59Z</time>
      </trkpt>
      <trkpt lat="45.06451" lon="5.49509">
        <ele>1182.56</ele>
        <time>2016-04-29T18:15:08Z</time>
      </trkpt>
      <trkpt lat="45.0646" lon="5.49508">
        <ele>1182.56</ele>
        <time>2016-04-29T18:15:18Z</time>
      </trkpt>
      <trkpt lat="45.06461" lon="5.49508">
        <ele>1182.56</ele>
        <time>2016-04-29T18:15:36Z</time>
      </trkpt>
      <trkpt lat="45.0646" lon="5.49506">
        <ele>1182.56</ele>
        <time>2016-04-29T18:16:07Z</time>
      </trkpt>
      <trkpt lat="45.06463" lon="5.49506">
        <ele>1182.56</ele>
        <time>2016-04-29T18:16:42Z</time>
      </trkpt>
      <trkpt lat="45.06464" lon="5.49505">
        <ele>1183.04</ele>
        <time>2016-04-29T18:17:19Z</time>
      </trkpt>
      <trkpt lat="45.06464" lon="5.49507">
        <ele>1182.56</ele>
        <time>2016-04-29T18:17:54Z</time>
      </trkpt>
      <trkpt lat="45.06464" lon="5.49507">
        <ele>1182.56</ele>
        <time>2016-04-29T18:18:26Z</time>
      </trkpt>
      <trkpt lat="45.06462" lon="5.49506">
        <ele>1182.56</ele>
        <time>2016-04-29T18:18:58Z</time>
      </trkpt>
      <trkpt lat="45.06462" lon="5.49508">
        <ele>1182.56</ele>
        <time>2016-04-29T18:19:30Z</time>
      </trkpt>
      <trkpt lat="45.06463" lon="5.49507">
        <ele>1182.56</ele>
        <time>2016-04-29T18:19:59Z</time>
      </trkpt>
      <trkpt lat="45.06462" lon="5.49507">
        <ele>1182.56</ele>
        <time>2016-04-29T18:20:34Z</time>
      </trkpt>
      <trkpt lat="45.06462" lon="5.49507">
        <ele>1182.56</ele>
        <time>2016-04-29T18:20:55Z</time>
      </trkpt>
      <trkpt lat="45.06462" lon="5.49509">
        <ele>1182.56</ele>
        <time>2016-04-29T18:21:11Z</time>
      </trkpt>
      <trkpt lat="45.06462" lon="5.4951">
        <ele>1182.56</ele>
        <time>2016-04-29T18:21:34Z</time>
      </trkpt>
      <trkpt lat="45.06462" lon="5.49512">
        <ele>1182.56</ele>
        <time>2016-04-29T18:21:52Z</time>
      </trkpt>
      <trkpt lat="45.06459" lon="5.49518">
        <ele>1182.08</ele>
        <time>2016-04-29T18:21:56Z</time>
      </trkpt>
      <trkpt lat="45.06452" lon="5.49546">
        <ele>1183.52</ele>
        <time>2016-04-29T18:22:07Z</time>
      </trkpt>
      <trkpt lat="45.06472" lon="5.49577">
        <ele>1184</ele>
        <time>2016-04-29T18:22:20Z</time>
      </trkpt>
      <trkpt lat="45.06474" lon="5.49587">
        <ele>1184</ele>
        <time>2016-04-29T18:22:26Z</time>
      </trkpt>
      <trkpt lat="45.06476" lon="5.49588">
        <ele>1184.48</ele>
        <time>2016-04-29T18:22:28Z</time>
      </trkpt>
      <trkpt lat="45.06476" lon="5.49591">
        <ele>1184</ele>
        <time>2016-04-29T18:22:29Z</time>
      </trkpt>
      <trkpt lat="45.06486" lon="5.49605">
        <ele>1184.48</ele>
        <time>2016-04-29T18:22:38Z</time>
      </trkpt>
      <trkpt lat="45.06492" lon="5.49612">
        <ele>1184.48</ele>
        <time>2016-04-29T18:22:42Z</time>
      </trkpt>
      <trkpt lat="45.06512" lon="5.4963">
        <ele>1185.44</ele>
        <time>2016-04-29T18:22:54Z</time>
      </trkpt>
      <trkpt lat="45.06536" lon="5.49649">
        <ele>1185.44</ele>
        <time>2016-04-29T18:23:04Z</time>
      </trkpt>
      <trkpt lat="45.06561" lon="5.49666">
        <ele>1186.4</ele>
        <time>2016-04-29T18:23:15Z</time>
      </trkpt>
      <trkpt lat="45.06577" lon="5.49716">
        <ele>1185.92</ele>
        <time>2016-04-29T18:23:27Z</time>
      </trkpt>
      <trkpt lat="45.06599" lon="5.49778">
        <ele>1185.92</ele>
        <time>2016-04-29T18:23:41Z</time>
      </trkpt>
      <trkpt lat="45.06613" lon="5.49832">
        <ele>1186.88</ele>
        <time>2016-04-29T18:23:52Z</time>
      </trkpt>
      <trkpt lat="45.0659" lon="5.49874">
        <ele>1186.88</ele>
        <time>2016-04-29T18:24:02Z</time>
      </trkpt>
      <trkpt lat="45.06588" lon="5.4988">
        <ele>1187.37</ele>
        <time>2016-04-29T18:24:03Z</time>
      </trkpt>
      <trkpt lat="45.06587" lon="5.49887">
        <ele>1186.88</ele>
        <time>2016-04-29T18:24:04Z</time>
      </trkpt>
      <trkpt lat="45.06587" lon="5.49893">
        <ele>1187.37</ele>
        <time>2016-04-29T18:24:05Z</time>
      </trkpt>
      <trkpt lat="45.06587" lon="5.49897">
        <ele>1187.37</ele>
        <time>2016-04-29T18:24:06Z</time>
      </trkpt>
      <trkpt lat="45.06589" lon="5.49906">
        <ele>1187.37</ele>
        <time>2016-04-29T18:24:07Z</time>
      </trkpt>
      <trkpt lat="45.06597" lon="5.49925">
        <ele>1187.85</ele>
        <time>2016-04-29T18:24:11Z</time>
      </trkpt>
      <trkpt lat="45.06612" lon="5.49942">
        <ele>1187.85</ele>
        <time>2016-04-29T18:24:15Z</time>
      </trkpt>
      <trkpt lat="45.06614" lon="5.49947">
        <ele>1187.85</ele>
        <time>2016-04-29T18:24:16Z</time>
      </trkpt>
      <trkpt lat="45.06618" lon="5.49959">
        <ele>1187.85</ele>
        <time>2016-04-29T18:24:18Z</time>
      </trkpt>
      <trkpt lat="45.06616" lon="5.49983">
        <ele>1188.33</ele>
        <time>2016-04-29T18:24:22Z</time>
      </trkpt>
      <trkpt lat="45.06613" lon="5.49988">
        <ele>1187.85</ele>
        <time>2016-04-29T18:24:23Z</time>
      </trkpt>
      <trkpt lat="45.0661" lon="5.49991">
        <ele>1187.85</ele>
        <time>2016-04-29T18:24:24Z</time>
      </trkpt>
      <trkpt lat="45.06605" lon="5.49998">
        <ele>1187.85</ele>
        <time>2016-04-29T18:24:26Z</time>
      </trkpt>
      <trkpt lat="45.06602" lon="5.50002">
        <ele>1187.85</ele>
        <time>2016-04-29T18:24:27Z</time>
      </trkpt>
      <trkpt lat="45.06598" lon="5.50005">
        <ele>1187.85</ele>
        <time>2016-04-29T18:24:28Z</time>
      </trkpt>
      <trkpt lat="45.06595" lon="5.50008">
        <ele>1187.85</ele>
        <time>2016-04-29T18:24:29Z</time>
      </trkpt>
      <trkpt lat="45.06592" lon="5.50011">
        <ele>1187.85</ele>
        <time>2016-04-29T18:24:30Z</time>
      </trkpt>
      <trkpt lat="45.06588" lon="5.50013">
        <ele>1187.85</ele>
        <time>2016-04-29T18:24:31Z</time>
      </trkpt>
      <trkpt lat="45.06585" lon="5.50016">
        <ele>1187.85</ele>
        <time>2016-04-29T18:24:32Z</time>
      </trkpt>
      <trkpt lat="45.06571" lon="5.50027">
        <ele>1187.85</ele>
        <time>2016-04-29T18:24:37Z</time>
      </trkpt>
      <trkpt lat="45.06568" lon="5.5003">
        <ele>1187.85</ele>
        <time>2016-04-29T18:24:38Z</time>
      </trkpt>
      <trkpt lat="45.06544" lon="5.50044">
        <ele>1187.85</ele>
        <time>2016-04-29T18:24:44Z</time>
      </trkpt>
      <trkpt lat="45.0653" lon="5.5005">
        <ele>1187.85</ele>
        <time>2016-04-29T18:24:47Z</time>
      </trkpt>
      <trkpt lat="45.06477" lon="5.50079">
        <ele>1187.85</ele>
        <time>2016-04-29T18:24:59Z</time>
      </trkpt>
      <trkpt lat="45.06473" lon="5.50081">
        <ele>1187.37</ele>
        <time>2016-04-29T18:25:00Z</time>
      </trkpt>
      <trkpt lat="45.06468" lon="5.50083">
        <ele>1187.37</ele>
        <time>2016-04-29T18:25:01Z</time>
      </trkpt>
      <trkpt lat="45.06463" lon="5.50084">
        <ele>1187.37</ele>
        <time>2016-04-29T18:25:02Z</time>
      </trkpt>
      <trkpt lat="45.06459" lon="5.50087">
        <ele>1187.37</ele>
        <time>2016-04-29T18:25:03Z</time>
      </trkpt>
      <trkpt lat="45.06454" lon="5.50089">
        <ele>1187.37</ele>
        <time>2016-04-29T18:25:04Z</time>
      </trkpt>
      <trkpt lat="45.06449" lon="5.50093">
        <ele>1187.37</ele>
        <time>2016-04-29T18:25:05Z</time>
      </trkpt>
      <trkpt lat="45.06445" lon="5.50097">
        <ele>1187.37</ele>
        <time>2016-04-29T18:25:06Z</time>
      </trkpt>
      <trkpt lat="45.06441" lon="5.50101">
        <ele>1186.88</ele>
        <time>2016-04-29T18:25:07Z</time>
      </trkpt>
      <trkpt lat="45.06437" lon="5.50106">
        <ele>1186.88</ele>
        <time>2016-04-29T18:25:08Z</time>
      </trkpt>
      <trkpt lat="45.0643" lon="5.50116">
        <ele>1186.88</ele>
        <time>2016-04-29T18:25:10Z</time>
      </trkpt>
      <trkpt lat="45.06427" lon="5.50122">
        <ele>1186.88</ele>
        <time>2016-04-29T18:25:11Z</time>
      </trkpt>
      <trkpt lat="45.0642" lon="5.50132">
        <ele>1186.4</ele>
        <time>2016-04-29T18:25:13Z</time>
      </trkpt>
      <trkpt lat="45.06416" lon="5.50137">
        <ele>1186.88</ele>
        <time>2016-04-29T18:25:14Z</time>
      </trkpt>
      <trkpt lat="45.06413" lon="5.50142">
        <ele>1186.4</ele>
        <time>2016-04-29T18:25:15Z</time>
      </trkpt>
      <trkpt lat="45.06409" lon="5.50147">
        <ele>1186.4</ele>
        <time>2016-04-29T18:25:16Z</time>
      </trkpt>
      <trkpt lat="45.06406" lon="5.50153">
        <ele>1185.92</ele>
        <time>2016-04-29T18:25:17Z</time>
      </trkpt>
      <trkpt lat="45.06381" lon="5.5021">
        <ele>1185.92</ele>
        <time>2016-04-29T18:25:26Z</time>
      </trkpt>
      <trkpt lat="45.06378" lon="5.50216">
        <ele>1185.92</ele>
        <time>2016-04-29T18:25:27Z</time>
      </trkpt>
      <trkpt lat="45.06371" lon="5.50236">
        <ele>1185.92</ele>
        <time>2016-04-29T18:25:30Z</time>
      </trkpt>
      <trkpt lat="45.06368" lon="5.50242">
        <ele>1185.44</ele>
        <time>2016-04-29T18:25:31Z</time>
      </trkpt>
      <trkpt lat="45.06365" lon="5.50248">
        <ele>1185.92</ele>
        <time>2016-04-29T18:25:32Z</time>
      </trkpt>
      <trkpt lat="45.06353" lon="5.50271">
        <ele>1185.92</ele>
        <time>2016-04-29T18:25:36Z</time>
      </trkpt>
      <trkpt lat="45.06337" lon="5.50298">
        <ele>1185.92</ele>
        <time>2016-04-29T18:25:41Z</time>
      </trkpt>
      <trkpt lat="45.06335" lon="5.50305">
        <ele>1185.92</ele>
        <time>2016-04-29T18:25:42Z</time>
      </trkpt>
      <trkpt lat="45.06319" lon="5.5035">
        <ele>1185.92</ele>
        <time>2016-04-29T18:25:49Z</time>
      </trkpt>
      <trkpt lat="45.06314" lon="5.50362">
        <ele>1185.92</ele>
        <time>2016-04-29T18:25:51Z</time>
      </trkpt>
      <trkpt lat="45.06306" lon="5.50395">
        <ele>1185.92</ele>
        <time>2016-04-29T18:25:56Z</time>
      </trkpt>
      <trkpt lat="45.06298" lon="5.50414">
        <ele>1185.44</ele>
        <time>2016-04-29T18:25:59Z</time>
      </trkpt>
      <trkpt lat="45.06256" lon="5.50483">
        <ele>1184.48</ele>
        <time>2016-04-29T18:26:11Z</time>
      </trkpt>
      <trkpt lat="45.06252" lon="5.50488">
        <ele>1184.48</ele>
        <time>2016-04-29T18:26:12Z</time>
      </trkpt>
      <trkpt lat="45.06244" lon="5.505">
        <ele>1184</ele>
        <time>2016-04-29T18:26:14Z</time>
      </trkpt>
      <trkpt lat="45.06239" lon="5.50505">
        <ele>1183.52</ele>
        <time>2016-04-29T18:26:15Z</time>
      </trkpt>
      <trkpt lat="45.06188" lon="5.50553">
        <ele>1182.08</ele>
        <time>2016-04-29T18:26:25Z</time>
      </trkpt>
      <trkpt lat="45.06184" lon="5.5056">
        <ele>1182.08</ele>
        <time>2016-04-29T18:26:26Z</time>
      </trkpt>
      <trkpt lat="45.0618" lon="5.50568">
        <ele>1181.6</ele>
        <time>2016-04-29T18:26:27Z</time>
      </trkpt>
      <trkpt lat="45.06177" lon="5.50577">
        <ele>1181.6</ele>
        <time>2016-04-29T18:26:28Z</time>
      </trkpt>
      <trkpt lat="45.06174" lon="5.50586">
        <ele>1181.6</ele>
        <time>2016-04-29T18:26:29Z</time>
      </trkpt>
      <trkpt lat="45.06172" lon="5.50594">
        <ele>1181.6</ele>
        <time>2016-04-29T18:26:30Z</time>
      </trkpt>
      <trkpt lat="45.06156" lon="5.50642">
        <ele>1182.08</ele>
        <time>2016-04-29T18:26:36Z</time>
      </trkpt>
      <trkpt lat="45.06153" lon="5.50649">
        <ele>1182.08</ele>
        <time>2016-04-29T18:26:37Z</time>
      </trkpt>
      <trkpt lat="45.06148" lon="5.50655">
        <ele>1181.6</ele>
        <time>2016-04-29T18:26:38Z</time>
      </trkpt>
      <trkpt lat="45.06144" lon="5.5066">
        <ele>1181.6</ele>
        <time>2016-04-29T18:26:39Z</time>
      </trkpt>
      <trkpt lat="45.06139" lon="5.50665">
        <ele>1181.6</ele>
        <time>2016-04-29T18:26:40Z</time>
      </trkpt>
      <trkpt lat="45.0609" lon="5.50707">
        <ele>1180.16</ele>
        <time>2016-04-29T18:26:49Z</time>
      </trkpt>
      <trkpt lat="45.06014" lon="5.50764">
        <ele>1178.23</ele>
        <time>2016-04-29T18:27:03Z</time>
      </trkpt>
      <trkpt lat="45.05984" lon="5.50798">
        <ele>1178.23</ele>
        <time>2016-04-29T18:27:09Z</time>
      </trkpt>
      <trkpt lat="45.05957" lon="5.50847">
        <ele>1177.27</ele>
        <time>2016-04-29T18:27:16Z</time>
      </trkpt>
      <trkpt lat="45.05939" lon="5.50873">
        <ele>1176.31</ele>
        <time>2016-04-29T18:27:20Z</time>
      </trkpt>
      <trkpt lat="45.05887" lon="5.50928">
        <ele>1175.35</ele>
        <time>2016-04-29T18:27:30Z</time>
      </trkpt>
      <trkpt lat="45.05884" lon="5.50935">
        <ele>1175.35</ele>
        <time>2016-04-29T18:27:31Z</time>
      </trkpt>
      <trkpt lat="45.05873" lon="5.50958">
        <ele>1175.35</ele>
        <time>2016-04-29T18:27:34Z</time>
      </trkpt>
      <trkpt lat="45.0587" lon="5.50965">
        <ele>1175.35</ele>
        <time>2016-04-29T18:27:35Z</time>
      </trkpt>
      <trkpt lat="45.05843" lon="5.51005">
        <ele>1174.39</ele>
        <time>2016-04-29T18:27:41Z</time>
      </trkpt>
      <trkpt lat="45.05838" lon="5.5101">
        <ele>1174.39</ele>
        <time>2016-04-29T18:27:42Z</time>
      </trkpt>
      <trkpt lat="45.05828" lon="5.5102">
        <ele>1173.91</ele>
        <time>2016-04-29T18:27:44Z</time>
      </trkpt>
      <trkpt lat="45.05823" lon="5.51024">
        <ele>1173.91</ele>
        <time>2016-04-29T18:27:45Z</time>
      </trkpt>
      <trkpt lat="45.05812" lon="5.51031">
        <ele>1173.43</ele>
        <time>2016-04-29T18:27:47Z</time>
      </trkpt>
      <trkpt lat="45.05744" lon="5.51061">
        <ele>1172.95</ele>
        <time>2016-04-29T18:27:59Z</time>
      </trkpt>
      <trkpt lat="45.05738" lon="5.51064">
        <ele>1172.47</ele>
        <time>2016-04-29T18:28:00Z</time>
      </trkpt>
      <trkpt lat="45.05734" lon="5.51069">
        <ele>1172.95</ele>
        <time>2016-04-29T18:28:01Z</time>
      </trkpt>
      <trkpt lat="45.0573" lon="5.51075">
        <ele>1172.95</ele>
        <time>2016-04-29T18:28:02Z</time>
      </trkpt>
      <trkpt lat="45.05727" lon="5.51082">
        <ele>1172.95</ele>
        <time>2016-04-29T18:28:03Z</time>
      </trkpt>
      <trkpt lat="45.05725" lon="5.51089">
        <ele>1172.95</ele>
        <time>2016-04-29T18:28:04Z</time>
      </trkpt>
      <trkpt lat="45.05723" lon="5.51097">
        <ele>1172.95</ele>
        <time>2016-04-29T18:28:05Z</time>
      </trkpt>
      <trkpt lat="45.05722" lon="5.51105">
        <ele>1172.47</ele>
        <time>2016-04-29T18:28:06Z</time>
      </trkpt>
      <trkpt lat="45.0572" lon="5.51112">
        <ele>1172.47</ele>
        <time>2016-04-29T18:28:07Z</time>
      </trkpt>
      <trkpt lat="45.05716" lon="5.51119">
        <ele>1172.47</ele>
        <time>2016-04-29T18:28:08Z</time>
      </trkpt>
      <trkpt lat="45.05712" lon="5.51125">
        <ele>1171.98</ele>
        <time>2016-04-29T18:28:09Z</time>
      </trkpt>
      <trkpt lat="45.05707" lon="5.5113">
        <ele>1171.98</ele>
        <time>2016-04-29T18:28:10Z</time>
      </trkpt>
      <trkpt lat="45.05703" lon="5.51134">
        <ele>1171.98</ele>
        <time>2016-04-29T18:28:11Z</time>
      </trkpt>
      <trkpt lat="45.05697" lon="5.51136">
        <ele>1171.98</ele>
        <time>2016-04-29T18:28:12Z</time>
      </trkpt>
      <trkpt lat="45.05693" lon="5.51138">
        <ele>1171.5</ele>
        <time>2016-04-29T18:28:13Z</time>
      </trkpt>
      <trkpt lat="45.05687" lon="5.51139">
        <ele>1171.5</ele>
        <time>2016-04-29T18:28:14Z</time>
      </trkpt>
      <trkpt lat="45.05682" lon="5.51139">
        <ele>1171.5</ele>
        <time>2016-04-29T18:28:15Z</time>
      </trkpt>
      <trkpt lat="45.05624" lon="5.51134">
        <ele>1170.54</ele>
        <time>2016-04-29T18:28:26Z</time>
      </trkpt>
      <trkpt lat="45.05611" lon="5.51134">
        <ele>1170.54</ele>
        <time>2016-04-29T18:28:28Z</time>
      </trkpt>
      <trkpt lat="45.05605" lon="5.51136">
        <ele>1170.54</ele>
        <time>2016-04-29T18:28:29Z</time>
      </trkpt>
      <trkpt lat="45.056" lon="5.51138">
        <ele>1170.54</ele>
        <time>2016-04-29T18:28:30Z</time>
      </trkpt>
      <trkpt lat="45.05594" lon="5.51142">
        <ele>1170.54</ele>
        <time>2016-04-29T18:28:31Z</time>
      </trkpt>
      <trkpt lat="45.05588" lon="5.51146">
        <ele>1170.06</ele>
        <time>2016-04-29T18:28:32Z</time>
      </trkpt>
      <trkpt lat="45.05584" lon="5.51152">
        <ele>1170.54</ele>
        <time>2016-04-29T18:28:33Z</time>
      </trkpt>
      <trkpt lat="45.05582" lon="5.5116">
        <ele>1170.54</ele>
        <time>2016-04-29T18:28:34Z</time>
      </trkpt>
      <trkpt lat="45.05581" lon="5.51168">
        <ele>1170.54</ele>
        <time>2016-04-29T18:28:35Z</time>
      </trkpt>
      <trkpt lat="45.05582" lon="5.51175">
        <ele>1170.06</ele>
        <time>2016-04-29T18:28:36Z</time>
      </trkpt>
      <trkpt lat="45.05583" lon="5.51183">
        <ele>1170.06</ele>
        <time>2016-04-29T18:28:37Z</time>
      </trkpt>
      <trkpt lat="45.05585" lon="5.51191">
        <ele>1170.06</ele>
        <time>2016-04-29T18:28:38Z</time>
      </trkpt>
      <trkpt lat="45.05588" lon="5.51198">
        <ele>1169.1</ele>
        <time>2016-04-29T18:28:39Z</time>
      </trkpt>
      <trkpt lat="45.05592" lon="5.51204">
        <ele>1169.1</ele>
        <time>2016-04-29T18:28:40Z</time>
      </trkpt>
      <trkpt lat="45.05596" lon="5.5121">
        <ele>1168.62</ele>
        <time>2016-04-29T18:28:41Z</time>
      </trkpt>
      <trkpt lat="45.05601" lon="5.51216">
        <ele>1168.14</ele>
        <time>2016-04-29T18:28:42Z</time>
      </trkpt>
      <trkpt lat="45.05617" lon="5.51237">
        <ele>1166.22</ele>
        <time>2016-04-29T18:28:45Z</time>
      </trkpt>
      <trkpt lat="45.05631" lon="5.51264">
        <ele>1164.29</ele>
        <time>2016-04-29T18:28:48Z</time>
      </trkpt>
      <trkpt lat="45.05635" lon="5.51274">
        <ele>1163.81</ele>
        <time>2016-04-29T18:28:49Z</time>
      </trkpt>
      <trkpt lat="45.05639" lon="5.51285">
        <ele>1162.85</ele>
        <time>2016-04-29T18:28:50Z</time>
      </trkpt>
      <trkpt lat="45.05647" lon="5.51335">
        <ele>1160.93</ele>
        <time>2016-04-29T18:28:54Z</time>
      </trkpt>
      <trkpt lat="45.05645" lon="5.51348">
        <ele>1159.97</ele>
        <time>2016-04-29T18:28:55Z</time>
      </trkpt>
      <trkpt lat="45.0564" lon="5.5136">
        <ele>1159.01</ele>
        <time>2016-04-29T18:28:56Z</time>
      </trkpt>
      <trkpt lat="45.05633" lon="5.51371">
        <ele>1157.56</ele>
        <time>2016-04-29T18:28:57Z</time>
      </trkpt>
      <trkpt lat="45.05625" lon="5.51381">
        <ele>1157.08</ele>
        <time>2016-04-29T18:28:58Z</time>
      </trkpt>
      <trkpt lat="45.05618" lon="5.5139">
        <ele>1156.6</ele>
        <time>2016-04-29T18:28:59Z</time>
      </trkpt>
      <trkpt lat="45.05606" lon="5.51409">
        <ele>1155.64</ele>
        <time>2016-04-29T18:29:01Z</time>
      </trkpt>
      <trkpt lat="45.05603" lon="5.51422">
        <ele>1155.16</ele>
        <time>2016-04-29T18:29:02Z</time>
      </trkpt>
      <trkpt lat="45.05604" lon="5.51435">
        <ele>1154.68</ele>
        <time>2016-04-29T18:29:03Z</time>
      </trkpt>
      <trkpt lat="45.05606" lon="5.51448">
        <ele>1154.2</ele>
        <time>2016-04-29T18:29:04Z</time>
      </trkpt>
      <trkpt lat="45.05609" lon="5.51461">
        <ele>1153.72</ele>
        <time>2016-04-29T18:29:05Z</time>
      </trkpt>
      <trkpt lat="45.0561" lon="5.51474">
        <ele>1152.76</ele>
        <time>2016-04-29T18:29:06Z</time>
      </trkpt>
      <trkpt lat="45.05608" lon="5.51488">
        <ele>1152.28</ele>
        <time>2016-04-29T18:29:07Z</time>
      </trkpt>
      <trkpt lat="45.05604" lon="5.51501">
        <ele>1151.32</ele>
        <time>2016-04-29T18:29:08Z</time>
      </trkpt>
      <trkpt lat="45.05598" lon="5.51512">
        <ele>1150.35</ele>
        <time>2016-04-29T18:29:09Z</time>
      </trkpt>
      <trkpt lat="45.05591" lon="5.5152">
        <ele>1149.39</ele>
        <time>2016-04-29T18:29:10Z</time>
      </trkpt>
      <trkpt lat="45.05583" lon="5.51526">
        <ele>1148.91</ele>
        <time>2016-04-29T18:29:11Z</time>
      </trkpt>
      <trkpt lat="45.05575" lon="5.5153">
        <ele>1147.95</ele>
        <time>2016-04-29T18:29:12Z</time>
      </trkpt>
      <trkpt lat="45.05566" lon="5.51534">
        <ele>1147.47</ele>
        <time>2016-04-29T18:29:13Z</time>
      </trkpt>
      <trkpt lat="45.05555" lon="5.51539">
        <ele>1146.51</ele>
        <time>2016-04-29T18:29:14Z</time>
      </trkpt>
      <trkpt lat="45.05545" lon="5.51547">
        <ele>1146.51</ele>
        <time>2016-04-29T18:29:15Z</time>
      </trkpt>
      <trkpt lat="45.05537" lon="5.51556">
        <ele>1145.07</ele>
        <time>2016-04-29T18:29:16Z</time>
      </trkpt>
      <trkpt lat="45.05531" lon="5.51566">
        <ele>1144.59</ele>
        <time>2016-04-29T18:29:17Z</time>
      </trkpt>
      <trkpt lat="45.05529" lon="5.5158">
        <ele>1142.18</ele>
        <time>2016-04-29T18:29:18Z</time>
      </trkpt>
      <trkpt lat="45.05531" lon="5.51596">
        <ele>1145.07</ele>
        <time>2016-04-29T18:29:19Z</time>
      </trkpt>
      <trkpt lat="45.05534" lon="5.51611">
        <ele>1140.74</ele>
        <time>2016-04-29T18:29:20Z</time>
      </trkpt>
      <trkpt lat="45.05537" lon="5.51624">
        <ele>1147.95</ele>
        <time>2016-04-29T18:29:21Z</time>
      </trkpt>
      <trkpt lat="45.0554" lon="5.51637">
        <ele>1143.14</ele>
        <time>2016-04-29T18:29:22Z</time>
      </trkpt>
      <trkpt lat="45.05544" lon="5.51649">
        <ele>1142.66</ele>
        <time>2016-04-29T18:29:23Z</time>
      </trkpt>
      <trkpt lat="45.05549" lon="5.51659">
        <ele>1142.66</ele>
        <time>2016-04-29T18:29:24Z</time>
      </trkpt>
      <trkpt lat="45.05555" lon="5.51667">
        <ele>1142.66</ele>
        <time>2016-04-29T18:29:25Z</time>
      </trkpt>
      <trkpt lat="45.05564" lon="5.51685">
        <ele>1143.14</ele>
        <time>2016-04-29T18:29:27Z</time>
      </trkpt>
      <trkpt lat="45.05566" lon="5.51696">
        <ele>1143.14</ele>
        <time>2016-04-29T18:29:28Z</time>
      </trkpt>
      <trkpt lat="45.05567" lon="5.51706">
        <ele>1143.14</ele>
        <time>2016-04-29T18:29:29Z</time>
      </trkpt>
      <trkpt lat="45.05567" lon="5.51736">
        <ele>1143.14</ele>
        <time>2016-04-29T18:29:32Z</time>
      </trkpt>
      <trkpt lat="45.0557" lon="5.51745">
        <ele>1142.66</ele>
        <time>2016-04-29T18:29:33Z</time>
      </trkpt>
      <trkpt lat="45.05574" lon="5.51753">
        <ele>1143.14</ele>
        <time>2016-04-29T18:29:34Z</time>
      </trkpt>
      <trkpt lat="45.0558" lon="5.51767">
        <ele>1143.14</ele>
        <time>2016-04-29T18:29:36Z</time>
      </trkpt>
      <trkpt lat="45.05582" lon="5.51774">
        <ele>1143.63</ele>
        <time>2016-04-29T18:29:37Z</time>
      </trkpt>
      <trkpt lat="45.05582" lon="5.51782">
        <ele>1143.63</ele>
        <time>2016-04-29T18:29:38Z</time>
      </trkpt>
      <trkpt lat="45.0558" lon="5.51795">
        <ele>1143.14</ele>
        <time>2016-04-29T18:29:40Z</time>
      </trkpt>
      <trkpt lat="45.05577" lon="5.51801">
        <ele>1143.63</ele>
        <time>2016-04-29T18:29:41Z</time>
      </trkpt>
      <trkpt lat="45.05575" lon="5.51807">
        <ele>1143.14</ele>
        <time>2016-04-29T18:29:42Z</time>
      </trkpt>
      <trkpt lat="45.05564" lon="5.5183">
        <ele>1143.63</ele>
        <time>2016-04-29T18:29:46Z</time>
      </trkpt>
      <trkpt lat="45.05563" lon="5.51837">
        <ele>1143.14</ele>
        <time>2016-04-29T18:29:47Z</time>
      </trkpt>
      <trkpt lat="45.05562" lon="5.51845">
        <ele>1143.14</ele>
        <time>2016-04-29T18:29:48Z</time>
      </trkpt>
      <trkpt lat="45.05562" lon="5.51852">
        <ele>1143.14</ele>
        <time>2016-04-29T18:29:49Z</time>
      </trkpt>
      <trkpt lat="45.05562" lon="5.5186">
        <ele>1143.14</ele>
        <time>2016-04-29T18:29:50Z</time>
      </trkpt>
      <trkpt lat="45.05563" lon="5.51868">
        <ele>1143.14</ele>
        <time>2016-04-29T18:29:51Z</time>
      </trkpt>
      <trkpt lat="45.05566" lon="5.51875">
        <ele>1143.14</ele>
        <time>2016-04-29T18:29:52Z</time>
      </trkpt>
      <trkpt lat="45.05572" lon="5.51898">
        <ele>1143.63</ele>
        <time>2016-04-29T18:29:55Z</time>
      </trkpt>
      <trkpt lat="45.05574" lon="5.51905">
        <ele>1143.63</ele>
        <time>2016-04-29T18:29:56Z</time>
      </trkpt>
      <trkpt lat="45.05578" lon="5.51929">
        <ele>1143.14</ele>
        <time>2016-04-29T18:29:59Z</time>
      </trkpt>
      <trkpt lat="45.05579" lon="5.51936">
        <ele>1143.14</ele>
        <time>2016-04-29T18:30:00Z</time>
      </trkpt>
      <trkpt lat="45.05586" lon="5.51965">
        <ele>1143.63</ele>
        <time>2016-04-29T18:30:04Z</time>
      </trkpt>
      <trkpt lat="45.05588" lon="5.51994">
        <ele>1143.63</ele>
        <time>2016-04-29T18:30:08Z</time>
      </trkpt>
      <trkpt lat="45.05591" lon="5.52009">
        <ele>1143.14</ele>
        <time>2016-04-29T18:30:10Z</time>
      </trkpt>
      <trkpt lat="45.05592" lon="5.52016">
        <ele>1143.14</ele>
        <time>2016-04-29T18:30:11Z</time>
      </trkpt>
      <trkpt lat="45.05597" lon="5.52029">
        <ele>1143.14</ele>
        <time>2016-04-29T18:30:13Z</time>
      </trkpt>
      <trkpt lat="45.05614" lon="5.52071">
        <ele>1143.14</ele>
        <time>2016-04-29T18:30:20Z</time>
      </trkpt>
      <trkpt lat="45.05636" lon="5.52129">
        <ele>1142.18</ele>
        <time>2016-04-29T18:30:29Z</time>
      </trkpt>
      <trkpt lat="45.05639" lon="5.52135">
        <ele>1141.7</ele>
        <time>2016-04-29T18:30:30Z</time>
      </trkpt>
      <trkpt lat="45.05642" lon="5.52141">
        <ele>1141.7</ele>
        <time>2016-04-29T18:30:31Z</time>
      </trkpt>
      <trkpt lat="45.05647" lon="5.52146">
        <ele>1142.18</ele>
        <time>2016-04-29T18:30:32Z</time>
      </trkpt>
      <trkpt lat="45.05651" lon="5.52151">
        <ele>1141.7</ele>
        <time>2016-04-29T18:30:33Z</time>
      </trkpt>
      <trkpt lat="45.05655" lon="5.52155">
        <ele>1142.18</ele>
        <time>2016-04-29T18:30:34Z</time>
      </trkpt>
      <trkpt lat="45.05664" lon="5.52162">
        <ele>1142.18</ele>
        <time>2016-04-29T18:30:36Z</time>
      </trkpt>
      <trkpt lat="45.05684" lon="5.52175">
        <ele>1142.18</ele>
        <time>2016-04-29T18:30:41Z</time>
      </trkpt>
      <trkpt lat="45.05735" lon="5.52206">
        <ele>1140.74</ele>
        <time>2016-04-29T18:30:52Z</time>
      </trkpt>
      <trkpt lat="45.0574" lon="5.52208">
        <ele>1140.74</ele>
        <time>2016-04-29T18:30:53Z</time>
      </trkpt>
      <trkpt lat="45.05745" lon="5.5221">
        <ele>1140.74</ele>
        <time>2016-04-29T18:30:54Z</time>
      </trkpt>
      <trkpt lat="45.0575" lon="5.52212">
        <ele>1140.74</ele>
        <time>2016-04-29T18:30:55Z</time>
      </trkpt>
      <trkpt lat="45.05755" lon="5.52214">
        <ele>1140.74</ele>
        <time>2016-04-29T18:30:56Z</time>
      </trkpt>
      <trkpt lat="45.05761" lon="5.52216">
        <ele>1140.26</ele>
        <time>2016-04-29T18:30:57Z</time>
      </trkpt>
      <trkpt lat="45.05767" lon="5.52219">
        <ele>1140.26</ele>
        <time>2016-04-29T18:30:58Z</time>
      </trkpt>
      <trkpt lat="45.05773" lon="5.52221">
        <ele>1140.26</ele>
        <time>2016-04-29T18:30:59Z</time>
      </trkpt>
      <trkpt lat="45.0583" lon="5.52234">
        <ele>1140.26</ele>
        <time>2016-04-29T18:31:09Z</time>
      </trkpt>
      <trkpt lat="45.05911" lon="5.52282">
        <ele>1140.26</ele>
        <time>2016-04-29T18:31:25Z</time>
      </trkpt>
      <trkpt lat="45.05975" lon="5.52298">
        <ele>1141.7</ele>
        <time>2016-04-29T18:31:39Z</time>
      </trkpt>
      <trkpt lat="45.06034" lon="5.52308">
        <ele>1141.7</ele>
        <time>2016-04-29T18:31:51Z</time>
      </trkpt>
      <trkpt lat="45.06038" lon="5.5231">
        <ele>1141.7</ele>
        <time>2016-04-29T18:31:52Z</time>
      </trkpt>
      <trkpt lat="45.06043" lon="5.52314">
        <ele>1142.18</ele>
        <time>2016-04-29T18:31:53Z</time>
      </trkpt>
      <trkpt lat="45.06046" lon="5.52318">
        <ele>1142.18</ele>
        <time>2016-04-29T18:31:54Z</time>
      </trkpt>
      <trkpt lat="45.06049" lon="5.52323">
        <ele>1142.18</ele>
        <time>2016-04-29T18:31:55Z</time>
      </trkpt>
      <trkpt lat="45.06051" lon="5.52328">
        <ele>1142.18</ele>
        <time>2016-04-29T18:31:56Z</time>
      </trkpt>
      <trkpt lat="45.06053" lon="5.52335">
        <ele>1142.18</ele>
        <time>2016-04-29T18:31:57Z</time>
      </trkpt>
      <trkpt lat="45.06054" lon="5.52341">
        <ele>1142.18</ele>
        <time>2016-04-29T18:31:58Z</time>
      </trkpt>
      <trkpt lat="45.06056" lon="5.52348">
        <ele>1141.7</ele>
        <time>2016-04-29T18:31:59Z</time>
      </trkpt>
      <trkpt lat="45.06075" lon="5.52396">
        <ele>1141.7</ele>
        <time>2016-04-29T18:32:07Z</time>
      </trkpt>
      <trkpt lat="45.06078" lon="5.52401">
        <ele>1141.7</ele>
        <time>2016-04-29T18:32:08Z</time>
      </trkpt>
      <trkpt lat="45.06082" lon="5.52406">
        <ele>1141.7</ele>
        <time>2016-04-29T18:32:09Z</time>
      </trkpt>
      <trkpt lat="45.06086" lon="5.5241">
        <ele>1141.7</ele>
        <time>2016-04-29T18:32:10Z</time>
      </trkpt>
      <trkpt lat="45.06091" lon="5.52412">
        <ele>1141.7</ele>
        <time>2016-04-29T18:32:11Z</time>
      </trkpt>
      <trkpt lat="45.06096" lon="5.52414">
        <ele>1141.7</ele>
        <time>2016-04-29T18:32:12Z</time>
      </trkpt>
      <trkpt lat="45.0611" lon="5.5242">
        <ele>1141.7</ele>
        <time>2016-04-29T18:32:15Z</time>
      </trkpt>
      <trkpt lat="45.06197" lon="5.52446">
        <ele>1141.7</ele>
        <time>2016-04-29T18:32:32Z</time>
      </trkpt>
      <trkpt lat="45.06277" lon="5.52489">
        <ele>1141.7</ele>
        <time>2016-04-29T18:32:49Z</time>
      </trkpt>
      <trkpt lat="45.06361" lon="5.52466">
        <ele>1142.66</ele>
        <time>2016-04-29T18:33:06Z</time>
      </trkpt>
      <trkpt lat="45.06449" lon="5.52441">
        <ele>1143.14</ele>
        <time>2016-04-29T18:33:24Z</time>
      </trkpt>
      <trkpt lat="45.06454" lon="5.52442">
        <ele>1143.14</ele>
        <time>2016-04-29T18:33:25Z</time>
      </trkpt>
      <trkpt lat="45.0646" lon="5.52443">
        <ele>1142.66</ele>
        <time>2016-04-29T18:33:26Z</time>
      </trkpt>
      <trkpt lat="45.06465" lon="5.52447">
        <ele>1142.66</ele>
        <time>2016-04-29T18:33:27Z</time>
      </trkpt>
      <trkpt lat="45.06469" lon="5.52451">
        <ele>1142.66</ele>
        <time>2016-04-29T18:33:28Z</time>
      </trkpt>
      <trkpt lat="45.06474" lon="5.52455">
        <ele>1142.66</ele>
        <time>2016-04-29T18:33:29Z</time>
      </trkpt>
      <trkpt lat="45.06482" lon="5.52465">
        <ele>1142.66</ele>
        <time>2016-04-29T18:33:31Z</time>
      </trkpt>
      <trkpt lat="45.06485" lon="5.5247">
        <ele>1142.18</ele>
        <time>2016-04-29T18:33:32Z</time>
      </trkpt>
      <trkpt lat="45.06501" lon="5.52507">
        <ele>1142.66</ele>
        <time>2016-04-29T18:33:38Z</time>
      </trkpt>
      <trkpt lat="45.06538" lon="5.52609">
        <ele>1142.18</ele>
        <time>2016-04-29T18:33:54Z</time>
      </trkpt>
      <trkpt lat="45.06585" lon="5.52704">
        <ele>1140.74</ele>
        <time>2016-04-29T18:34:10Z</time>
      </trkpt>
      <trkpt lat="45.0661" lon="5.52771">
        <ele>1139.78</ele>
        <time>2016-04-29T18:34:21Z</time>
      </trkpt>
      <trkpt lat="45.06611" lon="5.52778">
        <ele>1138.82</ele>
        <time>2016-04-29T18:34:22Z</time>
      </trkpt>
      <trkpt lat="45.06611" lon="5.52786">
        <ele>1138.82</ele>
        <time>2016-04-29T18:34:23Z</time>
      </trkpt>
      <trkpt lat="45.06611" lon="5.52801">
        <ele>1138.34</ele>
        <time>2016-04-29T18:34:25Z</time>
      </trkpt>
      <trkpt lat="45.06604" lon="5.52899">
        <ele>1135.94</ele>
        <time>2016-04-29T18:34:37Z</time>
      </trkpt>
      <trkpt lat="45.06596" lon="5.53008">
        <ele>1132.57</ele>
        <time>2016-04-29T18:34:49Z</time>
      </trkpt>
      <trkpt lat="45.06587" lon="5.53098">
        <ele>1129.21</ele>
        <time>2016-04-29T18:34:58Z</time>
      </trkpt>
      <trkpt lat="45.0656" lon="5.53183">
        <ele>1129.69</ele>
        <time>2016-04-29T18:35:09Z</time>
      </trkpt>
      <trkpt lat="45.06556" lon="5.53196">
        <ele>1129.69</ele>
        <time>2016-04-29T18:35:11Z</time>
      </trkpt>
      <trkpt lat="45.06555" lon="5.53203">
        <ele>1129.69</ele>
        <time>2016-04-29T18:35:12Z</time>
      </trkpt>
      <trkpt lat="45.06555" lon="5.5321">
        <ele>1129.69</ele>
        <time>2016-04-29T18:35:13Z</time>
      </trkpt>
      <trkpt lat="45.06556" lon="5.53217">
        <ele>1129.69</ele>
        <time>2016-04-29T18:35:14Z</time>
      </trkpt>
      <trkpt lat="45.06558" lon="5.53224">
        <ele>1129.69</ele>
        <time>2016-04-29T18:35:15Z</time>
      </trkpt>
      <trkpt lat="45.0656" lon="5.53229">
        <ele>1129.69</ele>
        <time>2016-04-29T18:35:16Z</time>
      </trkpt>
      <trkpt lat="45.06564" lon="5.53233">
        <ele>1129.69</ele>
        <time>2016-04-29T18:35:17Z</time>
      </trkpt>
      <trkpt lat="45.06569" lon="5.53236">
        <ele>1129.69</ele>
        <time>2016-04-29T18:35:18Z</time>
      </trkpt>
      <trkpt lat="45.06629" lon="5.53254">
        <ele>1127.76</ele>
        <time>2016-04-29T18:35:28Z</time>
      </trkpt>
      <trkpt lat="45.06699" lon="5.53254">
        <ele>1123.92</ele>
        <time>2016-04-29T18:35:37Z</time>
      </trkpt>
      <trkpt lat="45.06707" lon="5.53255">
        <ele>1123.92</ele>
        <time>2016-04-29T18:35:38Z</time>
      </trkpt>
      <trkpt lat="45.0674" lon="5.53259">
        <ele>1121.03</ele>
        <time>2016-04-29T18:35:42Z</time>
      </trkpt>
      <trkpt lat="45.0679" lon="5.5328">
        <ele>1117.67</ele>
        <time>2016-04-29T18:35:48Z</time>
      </trkpt>
      <trkpt lat="45.06815" lon="5.53294">
        <ele>1115.75</ele>
        <time>2016-04-29T18:35:51Z</time>
      </trkpt>
      <trkpt lat="45.06824" lon="5.53301">
        <ele>1115.27</ele>
        <time>2016-04-29T18:35:52Z</time>
      </trkpt>
      <trkpt lat="45.0684" lon="5.53316">
        <ele>1114.31</ele>
        <time>2016-04-29T18:35:54Z</time>
      </trkpt>
      <trkpt lat="45.06847" lon="5.53328">
        <ele>1113.82</ele>
        <time>2016-04-29T18:35:55Z</time>
      </trkpt>
      <trkpt lat="45.06853" lon="5.53341">
        <ele>1113.34</ele>
        <time>2016-04-29T18:35:56Z</time>
      </trkpt>
      <trkpt lat="45.06857" lon="5.53355">
        <ele>1112.38</ele>
        <time>2016-04-29T18:35:57Z</time>
      </trkpt>
      <trkpt lat="45.0686" lon="5.53369">
        <ele>1111.9</ele>
        <time>2016-04-29T18:35:58Z</time>
      </trkpt>
      <trkpt lat="45.06862" lon="5.53384">
        <ele>1110.94</ele>
        <time>2016-04-29T18:35:59Z</time>
      </trkpt>
      <trkpt lat="45.06864" lon="5.53398">
        <ele>1110.46</ele>
        <time>2016-04-29T18:36:00Z</time>
      </trkpt>
      <trkpt lat="45.06864" lon="5.53413">
        <ele>1109.5</ele>
        <time>2016-04-29T18:36:01Z</time>
      </trkpt>
      <trkpt lat="45.06863" lon="5.53443">
        <ele>1106.13</ele>
        <time>2016-04-29T18:36:03Z</time>
      </trkpt>
      <trkpt lat="45.06854" lon="5.53484">
        <ele>1103.73</ele>
        <time>2016-04-29T18:36:06Z</time>
      </trkpt>
      <trkpt lat="45.06848" lon="5.53497">
        <ele>1102.77</ele>
        <time>2016-04-29T18:36:07Z</time>
      </trkpt>
      <trkpt lat="45.0684" lon="5.53507">
        <ele>1101.33</ele>
        <time>2016-04-29T18:36:08Z</time>
      </trkpt>
      <trkpt lat="45.0683" lon="5.53514">
        <ele>1100.37</ele>
        <time>2016-04-29T18:36:09Z</time>
      </trkpt>
      <trkpt lat="45.0682" lon="5.5352">
        <ele>1099.4</ele>
        <time>2016-04-29T18:36:10Z</time>
      </trkpt>
      <trkpt lat="45.0681" lon="5.53526">
        <ele>1098.44</ele>
        <time>2016-04-29T18:36:11Z</time>
      </trkpt>
      <trkpt lat="45.06789" lon="5.53535">
        <ele>1098.92</ele>
        <time>2016-04-29T18:36:13Z</time>
      </trkpt>
      <trkpt lat="45.06768" lon="5.53541">
        <ele>1095.08</ele>
        <time>2016-04-29T18:36:15Z</time>
      </trkpt>
      <trkpt lat="45.06739" lon="5.53548">
        <ele>1092.2</ele>
        <time>2016-04-29T18:36:18Z</time>
      </trkpt>
      <trkpt lat="45.06707" lon="5.53553">
        <ele>1089.31</ele>
        <time>2016-04-29T18:36:21Z</time>
      </trkpt>
      <trkpt lat="45.06674" lon="5.5356">
        <ele>1085.95</ele>
        <time>2016-04-29T18:36:24Z</time>
      </trkpt>
      <trkpt lat="45.06644" lon="5.53567">
        <ele>1081.62</ele>
        <time>2016-04-29T18:36:27Z</time>
      </trkpt>
      <trkpt lat="45.06632" lon="5.53573">
        <ele>1081.14</ele>
        <time>2016-04-29T18:36:28Z</time>
      </trkpt>
      <trkpt lat="45.06611" lon="5.53588">
        <ele>1079.7</ele>
        <time>2016-04-29T18:36:30Z</time>
      </trkpt>
      <trkpt lat="45.06603" lon="5.536">
        <ele>1078.74</ele>
        <time>2016-04-29T18:36:31Z</time>
      </trkpt>
      <trkpt lat="45.06598" lon="5.53614">
        <ele>1077.78</ele>
        <time>2016-04-29T18:36:32Z</time>
      </trkpt>
      <trkpt lat="45.06598" lon="5.53629">
        <ele>1076.81</ele>
        <time>2016-04-29T18:36:33Z</time>
      </trkpt>
      <trkpt lat="45.066" lon="5.53637">
        <ele>1076.33</ele>
        <time>2016-04-29T18:36:34Z</time>
      </trkpt>
      <trkpt lat="45.06611" lon="5.53654">
        <ele>1075.85</ele>
        <time>2016-04-29T18:36:35Z</time>
      </trkpt>
      <trkpt lat="45.06621" lon="5.53664">
        <ele>1075.37</ele>
        <time>2016-04-29T18:36:36Z</time>
      </trkpt>
      <trkpt lat="45.06647" lon="5.53686">
        <ele>1072.01</ele>
        <time>2016-04-29T18:36:38Z</time>
      </trkpt>
      <trkpt lat="45.06678" lon="5.53715">
        <ele>1068.64</ele>
        <time>2016-04-29T18:36:41Z</time>
      </trkpt>
      <trkpt lat="45.06698" lon="5.53732">
        <ele>1066.72</ele>
        <time>2016-04-29T18:36:43Z</time>
      </trkpt>
      <trkpt lat="45.06709" lon="5.53741">
        <ele>1069.12</ele>
        <time>2016-04-29T18:36:44Z</time>
      </trkpt>
      <trkpt lat="45.0672" lon="5.53751">
        <ele>1065.76</ele>
        <time>2016-04-29T18:36:45Z</time>
      </trkpt>
      <trkpt lat="45.06743" lon="5.53768">
        <ele>1063.36</ele>
        <time>2016-04-29T18:36:47Z</time>
      </trkpt>
      <trkpt lat="45.06781" lon="5.53789">
        <ele>1060.47</ele>
        <time>2016-04-29T18:36:50Z</time>
      </trkpt>
      <trkpt lat="45.06805" lon="5.53802">
        <ele>1057.11</ele>
        <time>2016-04-29T18:36:52Z</time>
      </trkpt>
      <trkpt lat="45.0682" lon="5.53811">
        <ele>1055.67</ele>
        <time>2016-04-29T18:36:53Z</time>
      </trkpt>
      <trkpt lat="45.06857" lon="5.53832">
        <ele>1052.3</ele>
        <time>2016-04-29T18:36:56Z</time>
      </trkpt>
      <trkpt lat="45.06901" lon="5.53866">
        <ele>1048.45</ele>
        <time>2016-04-29T18:37:00Z</time>
      </trkpt>
      <trkpt lat="45.06956" lon="5.5391">
        <ele>1045.57</ele>
        <time>2016-04-29T18:37:04Z</time>
      </trkpt>
      <trkpt lat="45.06968" lon="5.53919">
        <ele>1044.13</ele>
        <time>2016-04-29T18:37:05Z</time>
      </trkpt>
      <trkpt lat="45.06989" lon="5.53935">
        <ele>1042.21</ele>
        <time>2016-04-29T18:37:07Z</time>
      </trkpt>
      <trkpt lat="45.07019" lon="5.53947">
        <ele>1038.84</ele>
        <time>2016-04-29T18:37:10Z</time>
      </trkpt>
      <trkpt lat="45.07039" lon="5.53958">
        <ele>1035.48</ele>
        <time>2016-04-29T18:37:12Z</time>
      </trkpt>
      <trkpt lat="45.07051" lon="5.53965">
        <ele>1035.48</ele>
        <time>2016-04-29T18:37:13Z</time>
      </trkpt>
      <trkpt lat="45.07063" lon="5.53978">
        <ele>1033.55</ele>
        <time>2016-04-29T18:37:14Z</time>
      </trkpt>
      <trkpt lat="45.07074" lon="5.53992">
        <ele>1033.55</ele>
        <time>2016-04-29T18:37:15Z</time>
      </trkpt>
      <trkpt lat="45.07097" lon="5.54036">
        <ele>1029.71</ele>
        <time>2016-04-29T18:37:18Z</time>
      </trkpt>
      <trkpt lat="45.07105" lon="5.54074">
        <ele>1026.34</ele>
        <time>2016-04-29T18:37:21Z</time>
      </trkpt>
      <trkpt lat="45.07109" lon="5.54087">
        <ele>1025.86</ele>
        <time>2016-04-29T18:37:22Z</time>
      </trkpt>
      <trkpt lat="45.07113" lon="5.54102">
        <ele>1024.9</ele>
        <time>2016-04-29T18:37:23Z</time>
      </trkpt>
      <trkpt lat="45.07117" lon="5.54118">
        <ele>1023.46</ele>
        <time>2016-04-29T18:37:24Z</time>
      </trkpt>
      <trkpt lat="45.0713" lon="5.54166">
        <ele>1021.06</ele>
        <time>2016-04-29T18:37:27Z</time>
      </trkpt>
      <trkpt lat="45.07169" lon="5.54261">
        <ele>1017.69</ele>
        <time>2016-04-29T18:37:34Z</time>
      </trkpt>
      <trkpt lat="45.07185" lon="5.54321">
        <ele>1016.73</ele>
        <time>2016-04-29T18:37:39Z</time>
      </trkpt>
      <trkpt lat="45.07185" lon="5.54332">
        <ele>1016.73</ele>
        <time>2016-04-29T18:37:40Z</time>
      </trkpt>
      <trkpt lat="45.07184" lon="5.54343">
        <ele>1016.73</ele>
        <time>2016-04-29T18:37:41Z</time>
      </trkpt>
      <trkpt lat="45.07181" lon="5.54354">
        <ele>1016.25</ele>
        <time>2016-04-29T18:37:42Z</time>
      </trkpt>
      <trkpt lat="45.07178" lon="5.54364">
        <ele>1016.25</ele>
        <time>2016-04-29T18:37:43Z</time>
      </trkpt>
      <trkpt lat="45.07174" lon="5.54373">
        <ele>1015.77</ele>
        <time>2016-04-29T18:37:44Z</time>
      </trkpt>
      <trkpt lat="45.07135" lon="5.54446">
        <ele>1014.33</ele>
        <time>2016-04-29T18:37:53Z</time>
      </trkpt>
      <trkpt lat="45.0711" lon="5.54473">
        <ele>1011.93</ele>
        <time>2016-04-29T18:37:57Z</time>
      </trkpt>
      <trkpt lat="45.07102" lon="5.54479">
        <ele>1011.44</ele>
        <time>2016-04-29T18:37:58Z</time>
      </trkpt>
      <trkpt lat="45.07094" lon="5.54483">
        <ele>1010.48</ele>
        <time>2016-04-29T18:37:59Z</time>
      </trkpt>
      <trkpt lat="45.07086" lon="5.54486">
        <ele>1010</ele>
        <time>2016-04-29T18:38:00Z</time>
      </trkpt>
      <trkpt lat="45.07077" lon="5.54489">
        <ele>1009.04</ele>
        <time>2016-04-29T18:38:01Z</time>
      </trkpt>
      <trkpt lat="45.0704" lon="5.545">
        <ele>1005.68</ele>
        <time>2016-04-29T18:38:05Z</time>
      </trkpt>
      <trkpt lat="45.07021" lon="5.54503">
        <ele>1003.27</ele>
        <time>2016-04-29T18:38:07Z</time>
      </trkpt>
      <trkpt lat="45.0698" lon="5.545">
        <ele>998.95</ele>
        <time>2016-04-29T18:38:11Z</time>
      </trkpt>
      <trkpt lat="45.06968" lon="5.54498">
        <ele>997.02</ele>
        <time>2016-04-29T18:38:12Z</time>
      </trkpt>
      <trkpt lat="45.06956" lon="5.54497">
        <ele>996.54</ele>
        <time>2016-04-29T18:38:13Z</time>
      </trkpt>
      <trkpt lat="45.06919" lon="5.54496">
        <ele>992.7</ele>
        <time>2016-04-29T18:38:16Z</time>
      </trkpt>
      <trkpt lat="45.0688" lon="5.54497">
        <ele>989.33</ele>
        <time>2016-04-29T18:38:19Z</time>
      </trkpt>
      <trkpt lat="45.06867" lon="5.545">
        <ele>988.37</ele>
        <time>2016-04-29T18:38:20Z</time>
      </trkpt>
      <trkpt lat="45.06855" lon="5.54505">
        <ele>987.41</ele>
        <time>2016-04-29T18:38:21Z</time>
      </trkpt>
      <trkpt lat="45.06807" lon="5.54528">
        <ele>984.53</ele>
        <time>2016-04-29T18:38:25Z</time>
      </trkpt>
      <trkpt lat="45.06757" lon="5.5456">
        <ele>981.16</ele>
        <time>2016-04-29T18:38:30Z</time>
      </trkpt>
      <trkpt lat="45.06748" lon="5.54564">
        <ele>980.68</ele>
        <time>2016-04-29T18:38:31Z</time>
      </trkpt>
      <trkpt lat="45.06739" lon="5.54567">
        <ele>980.2</ele>
        <time>2016-04-29T18:38:32Z</time>
      </trkpt>
      <trkpt lat="45.06724" lon="5.54571">
        <ele>979.72</ele>
        <time>2016-04-29T18:38:34Z</time>
      </trkpt>
      <trkpt lat="45.06719" lon="5.54576">
        <ele>979.72</ele>
        <time>2016-04-29T18:38:35Z</time>
      </trkpt>
      <trkpt lat="45.06716" lon="5.54583">
        <ele>980.2</ele>
        <time>2016-04-29T18:38:36Z</time>
      </trkpt>
      <trkpt lat="45.06715" lon="5.5459">
        <ele>980.2</ele>
        <time>2016-04-29T18:38:37Z</time>
      </trkpt>
      <trkpt lat="45.06715" lon="5.54597">
        <ele>979.72</ele>
        <time>2016-04-29T18:38:38Z</time>
      </trkpt>
      <trkpt lat="45.06715" lon="5.54611">
        <ele>980.2</ele>
        <time>2016-04-29T18:38:40Z</time>
      </trkpt>
      <trkpt lat="45.06716" lon="5.54616">
        <ele>980.2</ele>
        <time>2016-04-29T18:38:41Z</time>
      </trkpt>
      <trkpt lat="45.06718" lon="5.54621">
        <ele>979.24</ele>
        <time>2016-04-29T18:38:42Z</time>
      </trkpt>
      <trkpt lat="45.0672" lon="5.54625">
        <ele>981.16</ele>
        <time>2016-04-29T18:38:43Z</time>
      </trkpt>
      <trkpt lat="45.06723" lon="5.54628">
        <ele>980.2</ele>
        <time>2016-04-29T18:38:44Z</time>
      </trkpt>
      <trkpt lat="45.06725" lon="5.54631">
        <ele>980.2</ele>
        <time>2016-04-29T18:38:45Z</time>
      </trkpt>
      <trkpt lat="45.06726" lon="5.54635">
        <ele>980.68</ele>
        <time>2016-04-29T18:38:46Z</time>
      </trkpt>
      <trkpt lat="45.06726" lon="5.54639">
        <ele>980.68</ele>
        <time>2016-04-29T18:38:47Z</time>
      </trkpt>
      <trkpt lat="45.06727" lon="5.54643">
        <ele>980.68</ele>
        <time>2016-04-29T18:38:48Z</time>
      </trkpt>
      <trkpt lat="45.06728" lon="5.54647">
        <ele>980.68</ele>
        <time>2016-04-29T18:38:49Z</time>
      </trkpt>
      <trkpt lat="45.06729" lon="5.54651">
        <ele>981.16</ele>
        <time>2016-04-29T18:38:50Z</time>
      </trkpt>
      <trkpt lat="45.06744" lon="5.54698">
        <ele>983.09</ele>
        <time>2016-04-29T18:39:05Z</time>
      </trkpt>
      <trkpt lat="45.06751" lon="5.54747">
        <ele>985.01</ele>
        <time>2016-04-29T18:39:19Z</time>
      </trkpt>
      <trkpt lat="45.06755" lon="5.54796">
        <ele>986.93</ele>
        <time>2016-04-29T18:39:30Z</time>
      </trkpt>
      <trkpt lat="45.06752" lon="5.54846">
        <ele>988.85</ele>
        <time>2016-04-29T18:39:41Z</time>
      </trkpt>
      <trkpt lat="45.06753" lon="5.54894">
        <ele>990.78</ele>
        <time>2016-04-29T18:39:53Z</time>
      </trkpt>
      <trkpt lat="45.06752" lon="5.54955">
        <ele>993.18</ele>
        <time>2016-04-29T18:40:08Z</time>
      </trkpt>
      <trkpt lat="45.06752" lon="5.5502">
        <ele>995.58</ele>
        <time>2016-04-29T18:40:25Z</time>
      </trkpt>
      <trkpt lat="45.06751" lon="5.55077">
        <ele>997.51</ele>
        <time>2016-04-29T18:40:41Z</time>
      </trkpt>
      <trkpt lat="45.06748" lon="5.55143">
        <ele>1000.39</ele>
        <time>2016-04-29T18:41:00Z</time>
      </trkpt>
      <trkpt lat="45.06749" lon="5.55203">
        <ele>1002.31</ele>
        <time>2016-04-29T18:41:17Z</time>
      </trkpt>
      <trkpt lat="45.0675" lon="5.55257">
        <ele>1004.23</ele>
        <time>2016-04-29T18:41:33Z</time>
      </trkpt>
      <trkpt lat="45.06773" lon="5.55304">
        <ele>1005.2</ele>
        <time>2016-04-29T18:41:47Z</time>
      </trkpt>
      <trkpt lat="45.06805" lon="5.55325">
        <ele>1007.12</ele>
        <time>2016-04-29T18:42:01Z</time>
      </trkpt>
      <trkpt lat="45.06826" lon="5.55315">
        <ele>1008.08</ele>
        <time>2016-04-29T18:42:12Z</time>
      </trkpt>
      <trkpt lat="45.06844" lon="5.55279">
        <ele>1010</ele>
        <time>2016-04-29T18:42:25Z</time>
      </trkpt>
      <trkpt lat="45.06862" lon="5.55225">
        <ele>1011.44</ele>
        <time>2016-04-29T18:42:40Z</time>
      </trkpt>
      <trkpt lat="45.06878" lon="5.55161">
        <ele>1012.89</ele>
        <time>2016-04-29T18:42:57Z</time>
      </trkpt>
      <trkpt lat="45.06888" lon="5.55115">
        <ele>1014.81</ele>
        <time>2016-04-29T18:43:10Z</time>
      </trkpt>
      <trkpt lat="45.06899" lon="5.55059">
        <ele>1017.21</ele>
        <time>2016-04-29T18:43:25Z</time>
      </trkpt>
      <trkpt lat="45.0691" lon="5.55008">
        <ele>1019.13</ele>
        <time>2016-04-29T18:43:40Z</time>
      </trkpt>
      <trkpt lat="45.06914" lon="5.54987">
        <ele>1020.1</ele>
        <time>2016-04-29T18:43:47Z</time>
      </trkpt>
      <trkpt lat="45.06929" lon="5.54968">
        <ele>1021.06</ele>
        <time>2016-04-29T18:43:58Z</time>
      </trkpt>
      <trkpt lat="45.06952" lon="5.54982">
        <ele>1023.46</ele>
        <time>2016-04-29T18:44:11Z</time>
      </trkpt>
      <trkpt lat="45.06978" lon="5.55004">
        <ele>1024.42</ele>
        <time>2016-04-29T18:44:24Z</time>
      </trkpt>
      <trkpt lat="45.06999" lon="5.55041">
        <ele>1025.38</ele>
        <time>2016-04-29T18:44:33Z</time>
      </trkpt>
      <trkpt lat="45.07003" lon="5.55045">
        <ele>1025.38</ele>
        <time>2016-04-29T18:44:34Z</time>
      </trkpt>
      <trkpt lat="45.07029" lon="5.55073">
        <ele>1026.83</ele>
        <time>2016-04-29T18:44:44Z</time>
      </trkpt>
      <trkpt lat="45.0703" lon="5.55077">
        <ele>1026.83</ele>
        <time>2016-04-29T18:44:45Z</time>
      </trkpt>
      <trkpt lat="45.07031" lon="5.55081">
        <ele>1027.31</ele>
        <time>2016-04-29T18:44:46Z</time>
      </trkpt>
      <trkpt lat="45.07059" lon="5.55113">
        <ele>1026.83</ele>
        <time>2016-04-29T18:44:58Z</time>
      </trkpt>
      <trkpt lat="45.07098" lon="5.55123">
        <ele>1026.34</ele>
        <time>2016-04-29T18:45:10Z</time>
      </trkpt>
      <trkpt lat="45.07138" lon="5.55147">
        <ele>1026.83</ele>
        <time>2016-04-29T18:45:23Z</time>
      </trkpt>
      <trkpt lat="45.07172" lon="5.55162">
        <ele>1026.34</ele>
        <time>2016-04-29T18:45:33Z</time>
      </trkpt>
      <trkpt lat="45.07189" lon="5.55171">
        <ele>1025.38</ele>
        <time>2016-04-29T18:45:37Z</time>
      </trkpt>
      <trkpt lat="45.07192" lon="5.55175">
        <ele>1025.38</ele>
        <time>2016-04-29T18:45:38Z</time>
      </trkpt>
      <trkpt lat="45.07239" lon="5.55242">
        <ele>1023.46</ele>
        <time>2016-04-29T18:45:52Z</time>
      </trkpt>
      <trkpt lat="45.07243" lon="5.55245">
        <ele>1023.46</ele>
        <time>2016-04-29T18:45:53Z</time>
      </trkpt>
      <trkpt lat="45.07249" lon="5.55246">
        <ele>1022.98</ele>
        <time>2016-04-29T18:45:54Z</time>
      </trkpt>
      <trkpt lat="45.07254" lon="5.55244">
        <ele>1022.5</ele>
        <time>2016-04-29T18:45:55Z</time>
      </trkpt>
      <trkpt lat="45.0726" lon="5.55242">
        <ele>1022.02</ele>
        <time>2016-04-29T18:45:56Z</time>
      </trkpt>
      <trkpt lat="45.07265" lon="5.55242">
        <ele>1022.5</ele>
        <time>2016-04-29T18:45:57Z</time>
      </trkpt>
      <trkpt lat="45.07269" lon="5.55245">
        <ele>1022.02</ele>
        <time>2016-04-29T18:45:58Z</time>
      </trkpt>
      <trkpt lat="45.07273" lon="5.5525">
        <ele>1022.02</ele>
        <time>2016-04-29T18:45:59Z</time>
      </trkpt>
      <trkpt lat="45.07277" lon="5.55253">
        <ele>1022.02</ele>
        <time>2016-04-29T18:46:00Z</time>
      </trkpt>
      <trkpt lat="45.07282" lon="5.55256">
        <ele>1022.02</ele>
        <time>2016-04-29T18:46:01Z</time>
      </trkpt>
      <trkpt lat="45.07285" lon="5.55259">
        <ele>1022.02</ele>
        <time>2016-04-29T18:46:02Z</time>
      </trkpt>
      <trkpt lat="45.07289" lon="5.55263">
        <ele>1021.54</ele>
        <time>2016-04-29T18:46:03Z</time>
      </trkpt>
      <trkpt lat="45.07292" lon="5.55268">
        <ele>1021.54</ele>
        <time>2016-04-29T18:46:04Z</time>
      </trkpt>
      <trkpt lat="45.07294" lon="5.55273">
        <ele>1021.54</ele>
        <time>2016-04-29T18:46:05Z</time>
      </trkpt>
      <trkpt lat="45.07296" lon="5.55279">
        <ele>1021.54</ele>
        <time>2016-04-29T18:46:06Z</time>
      </trkpt>
      <trkpt lat="45.07298" lon="5.55283">
        <ele>1021.54</ele>
        <time>2016-04-29T18:46:07Z</time>
      </trkpt>
      <trkpt lat="45.07302" lon="5.55287">
        <ele>1021.54</ele>
        <time>2016-04-29T18:46:08Z</time>
      </trkpt>
      <trkpt lat="45.07311" lon="5.55299">
        <ele>1021.06</ele>
        <time>2016-04-29T18:46:11Z</time>
      </trkpt>
      <trkpt lat="45.07333" lon="5.55328">
        <ele>1020.58</ele>
        <time>2016-04-29T18:46:22Z</time>
      </trkpt>
      <trkpt lat="45.07335" lon="5.55328">
        <ele>1020.58</ele>
        <time>2016-04-29T18:46:23Z</time>
      </trkpt>
      <trkpt lat="45.07337" lon="5.55326">
        <ele>1020.58</ele>
        <time>2016-04-29T18:46:24Z</time>
      </trkpt>
      <trkpt lat="45.07336" lon="5.55321">
        <ele>1020.58</ele>
        <time>2016-04-29T18:46:32Z</time>
      </trkpt>
      <trkpt lat="45.07336" lon="5.5532">
        <ele>1020.58</ele>
        <time>2016-04-29T18:46:45Z</time>
      </trkpt>
      <trkpt lat="45.07337" lon="5.5532">
        <ele>1021.06</ele>
        <time>2016-04-29T18:46:51Z</time>
      </trkpt>
      <trkpt lat="45.07336" lon="5.55321">
        <ele>1020.58</ele>
        <time>2016-04-29T18:46:59Z</time>
      </trkpt>
    </trkseg>
  </trk>
</gpx>